<?xml version="1.0" encoding="UTF-8" standalone="no" ?>
<gpx xmlns="http://www.topografix.com/GPX/1/1" xmlns:xsi="http://www.w3.org/2001/XMLSchema-instance" xsi:schemaLocation="http://www.topografix.com/GPX/1/1 http://www.topografix.com/GPX/1/1/gpx.xsd" version="1.1" creator="VisuGPX - https://www.visugpx.com">
  <metadata>
    <name>Tour d'Europe: étape 038</name>
    <desc><![CDATA[Étape 038]]></desc>
  </metadata>
  <trk>
    <name><![CDATA[Tour d'Europe: étape 038]]></name>
    <trkseg>
      <trkpt lat="63.41579" lon="9.0275">
        <ele>63.301103</ele>
        <time>2020-08-05T07:44:59.657Z</time>
      </trkpt>
      <trkpt lat="63.41554" lon="9.02639">
        <ele>63.301103</ele>
        <time>2020-08-05T07:45:01.377Z</time>
      </trkpt>
      <trkpt lat="63.41562" lon="9.0266">
        <ele>63.301103</ele>
        <time>2020-08-05T07:45:02.317Z</time>
      </trkpt>
      <trkpt lat="63.4155" lon="9.02614">
        <ele>63.291836</ele>
        <time>2020-08-05T07:48:24.313Z</time>
      </trkpt>
      <trkpt lat="63.4155" lon="9.02592">
        <ele>63.239086</ele>
        <time>2020-08-05T07:48:28.377Z</time>
      </trkpt>
      <trkpt lat="63.41555" lon="9.02573">
        <ele>63.185543</ele>
        <time>2020-08-05T07:48:33.352Z</time>
      </trkpt>
      <trkpt lat="63.4156" lon="9.02555">
        <ele>63.134499</ele>
        <time>2020-08-05T07:48:38.317Z</time>
      </trkpt>
      <trkpt lat="63.41564" lon="9.02537">
        <ele>63.086051</ele>
        <time>2020-08-05T07:48:43.297Z</time>
      </trkpt>
      <trkpt lat="63.41558" lon="9.0252">
        <ele>63.032022</ele>
        <time>2020-08-05T07:48:48.317Z</time>
      </trkpt>
      <trkpt lat="63.41548" lon="9.02514">
        <ele>62.97926</ele>
        <time>2020-08-05T07:48:51.310Z</time>
      </trkpt>
      <trkpt lat="63.41539" lon="9.02516">
        <ele>62.926434</ele>
        <time>2020-08-05T07:48:54.359Z</time>
      </trkpt>
      <trkpt lat="63.41531" lon="9.02528">
        <ele>62.875483</ele>
        <time>2020-08-05T07:48:57.342Z</time>
      </trkpt>
      <trkpt lat="63.41522" lon="9.02551">
        <ele>62.803368</ele>
        <time>2020-08-05T07:49:00.337Z</time>
      </trkpt>
      <trkpt lat="63.41515" lon="9.02569">
        <ele>62.744773</ele>
        <time>2020-08-05T07:49:02.343Z</time>
      </trkpt>
      <trkpt lat="63.41506" lon="9.02588">
        <ele>62.680934</ele>
        <time>2020-08-05T07:49:04.329Z</time>
      </trkpt>
      <trkpt lat="63.41498" lon="9.02609">
        <ele>62.614699</ele>
        <time>2020-08-05T07:49:06.331Z</time>
      </trkpt>
      <trkpt lat="63.41489" lon="9.02629">
        <ele>62.547733</ele>
        <time>2020-08-05T07:49:08.316Z</time>
      </trkpt>
      <trkpt lat="63.41481" lon="9.02647">
        <ele>62.488921</ele>
        <time>2020-08-05T07:49:10.354Z</time>
      </trkpt>
      <trkpt lat="63.41475" lon="9.02662">
        <ele>62.438659</ele>
        <time>2020-08-05T07:49:12.367Z</time>
      </trkpt>
      <trkpt lat="63.41466" lon="9.02682">
        <ele>62.372611</ele>
        <time>2020-08-05T07:49:15.330Z</time>
      </trkpt>
      <trkpt lat="63.41458" lon="9.02704">
        <ele>62.456662</ele>
        <time>2020-08-05T07:49:18.315Z</time>
      </trkpt>
      <trkpt lat="63.41451" lon="9.0272">
        <ele>62.612643</ele>
        <time>2020-08-05T07:49:20.301Z</time>
      </trkpt>
      <trkpt lat="63.41443" lon="9.02738">
        <ele>62.793445</ele>
        <time>2020-08-05T07:49:22.299Z</time>
      </trkpt>
      <trkpt lat="63.41432" lon="9.02756">
        <ele>63.001961</ele>
        <time>2020-08-05T07:49:24.308Z</time>
      </trkpt>
      <trkpt lat="63.41419" lon="9.02774">
        <ele>63.240388</ele>
        <time>2020-08-05T07:49:26.307Z</time>
      </trkpt>
      <trkpt lat="63.41408" lon="9.02788">
        <ele>63.449629</ele>
        <time>2020-08-05T07:49:28.331Z</time>
      </trkpt>
      <trkpt lat="63.41396" lon="9.02798">
        <ele>63.639344</ele>
        <time>2020-08-05T07:49:30.292Z</time>
      </trkpt>
      <trkpt lat="63.41387" lon="9.02805">
        <ele>63.794988</ele>
        <time>2020-08-05T07:49:32.335Z</time>
      </trkpt>
      <trkpt lat="63.41378" lon="9.02811">
        <ele>63.944425</ele>
        <time>2020-08-05T07:49:35.314Z</time>
      </trkpt>
      <trkpt lat="63.41368" lon="9.02817">
        <ele>64.104966</ele>
        <time>2020-08-05T07:49:39.321Z</time>
      </trkpt>
      <trkpt lat="63.41359" lon="9.02823">
        <ele>64.258312</ele>
        <time>2020-08-05T07:49:44.340Z</time>
      </trkpt>
      <trkpt lat="63.41349" lon="9.0283">
        <ele>64.416496</ele>
        <time>2020-08-05T07:49:49.315Z</time>
      </trkpt>
      <trkpt lat="63.41339" lon="9.02837">
        <ele>64.586276</ele>
        <time>2020-08-05T07:49:55.323Z</time>
      </trkpt>
      <trkpt lat="63.41329" lon="9.02843">
        <ele>64.750952</ele>
        <time>2020-08-05T07:50:00.303Z</time>
      </trkpt>
      <trkpt lat="63.41319" lon="9.0285">
        <ele>64.911505</ele>
        <time>2020-08-05T07:50:05.299Z</time>
      </trkpt>
      <trkpt lat="63.4131" lon="9.02858">
        <ele>65.063701</ele>
        <time>2020-08-05T07:50:11.326Z</time>
      </trkpt>
      <trkpt lat="63.41301" lon="9.0287">
        <ele>65.503043</ele>
        <time>2020-08-05T07:50:17.331Z</time>
      </trkpt>
      <trkpt lat="63.41294" lon="9.02883">
        <ele>66.368712</ele>
        <time>2020-08-05T07:50:24.303Z</time>
      </trkpt>
      <trkpt lat="63.41286" lon="9.02898">
        <ele>67.265911</ele>
        <time>2020-08-05T07:50:32.341Z</time>
      </trkpt>
      <trkpt lat="63.41278" lon="9.02912">
        <ele>68.165658</ele>
        <time>2020-08-05T07:50:40.297Z</time>
      </trkpt>
      <trkpt lat="63.41269" lon="9.02922">
        <ele>69.081219</ele>
        <time>2020-08-05T07:50:48.323Z</time>
      </trkpt>
      <trkpt lat="63.4126" lon="9.02927">
        <ele>69.93869</ele>
        <time>2020-08-05T07:50:54.328Z</time>
      </trkpt>
      <trkpt lat="63.4125" lon="9.02929">
        <ele>70.787479</ele>
        <time>2020-08-05T07:50:58.325Z</time>
      </trkpt>
      <trkpt lat="63.4124" lon="9.02926">
        <ele>71.758306</ele>
        <time>2020-08-05T07:51:02.322Z</time>
      </trkpt>
      <trkpt lat="63.41231" lon="9.02919">
        <ele>72.596679</ele>
        <time>2020-08-05T07:51:05.308Z</time>
      </trkpt>
      <trkpt lat="63.41222" lon="9.02911">
        <ele>73.476957</ele>
        <time>2020-08-05T07:51:08.300Z</time>
      </trkpt>
      <trkpt lat="63.41213" lon="9.02901">
        <ele>74.34085</ele>
        <time>2020-08-05T07:51:11.301Z</time>
      </trkpt>
      <trkpt lat="63.41205" lon="9.02886">
        <ele>75.331564</ele>
        <time>2020-08-05T07:51:15.337Z</time>
      </trkpt>
      <trkpt lat="63.41197" lon="9.02869">
        <ele>76.288946</ele>
        <time>2020-08-05T07:51:20.323Z</time>
      </trkpt>
      <trkpt lat="63.41191" lon="9.02849">
        <ele>77.25368</ele>
        <time>2020-08-05T07:51:25.310Z</time>
      </trkpt>
      <trkpt lat="63.41187" lon="9.0283">
        <ele>78.09131</ele>
        <time>2020-08-05T07:51:29.306Z</time>
      </trkpt>
      <trkpt lat="63.41183" lon="9.0281">
        <ele>78.962017</ele>
        <time>2020-08-05T07:51:33.340Z</time>
      </trkpt>
      <trkpt lat="63.4118" lon="9.0279">
        <ele>79.854057</ele>
        <time>2020-08-05T07:51:37.336Z</time>
      </trkpt>
      <trkpt lat="63.41177" lon="9.02769">
        <ele>80.740277</ele>
        <time>2020-08-05T07:51:41.330Z</time>
      </trkpt>
      <trkpt lat="63.41174" lon="9.02748">
        <ele>81.456889</ele>
        <time>2020-08-05T07:51:45.336Z</time>
      </trkpt>
      <trkpt lat="63.4117" lon="9.02726">
        <ele>81.902733</ele>
        <time>2020-08-05T07:51:49.331Z</time>
      </trkpt>
      <trkpt lat="63.41166" lon="9.02704">
        <ele>82.337933</ele>
        <time>2020-08-05T07:51:53.323Z</time>
      </trkpt>
      <trkpt lat="63.41163" lon="9.02684">
        <ele>82.722175</ele>
        <time>2020-08-05T07:51:57.294Z</time>
      </trkpt>
      <trkpt lat="63.41159" lon="9.02662">
        <ele>83.169177</ele>
        <time>2020-08-05T07:52:02.321Z</time>
      </trkpt>
      <trkpt lat="63.41155" lon="9.02639">
        <ele>83.61827</ele>
        <time>2020-08-05T07:52:06.325Z</time>
      </trkpt>
      <trkpt lat="63.41153" lon="9.02608">
        <ele>84.184335</ele>
        <time>2020-08-05T07:52:09.312Z</time>
      </trkpt>
      <trkpt lat="63.41151" lon="9.02582">
        <ele>84.680811</ele>
        <time>2020-08-05T07:52:11.330Z</time>
      </trkpt>
      <trkpt lat="63.4115" lon="9.02552">
        <ele>85.236747</ele>
        <time>2020-08-05T07:52:13.312Z</time>
      </trkpt>
      <trkpt lat="63.41148" lon="9.0252">
        <ele>85.833441</ele>
        <time>2020-08-05T07:52:15.311Z</time>
      </trkpt>
      <trkpt lat="63.41147" lon="9.02484">
        <ele>86.491776</ele>
        <time>2020-08-05T07:52:17.335Z</time>
      </trkpt>
      <trkpt lat="63.41146" lon="9.02447">
        <ele>87.184715</ele>
        <time>2020-08-05T07:52:19.308Z</time>
      </trkpt>
      <trkpt lat="63.41144" lon="9.0241">
        <ele>87.866624</ele>
        <time>2020-08-05T07:52:21.343Z</time>
      </trkpt>
      <trkpt lat="63.41144" lon="9.02374">
        <ele>88.521403</ele>
        <time>2020-08-05T07:52:23.311Z</time>
      </trkpt>
      <trkpt lat="63.41144" lon="9.02339">
        <ele>88.47172</ele>
        <time>2020-08-05T07:52:25.320Z</time>
      </trkpt>
      <trkpt lat="63.41144" lon="9.02305">
        <ele>88.078041</ele>
        <time>2020-08-05T07:52:27.365Z</time>
      </trkpt>
      <trkpt lat="63.41144" lon="9.02274">
        <ele>87.710408</ele>
        <time>2020-08-05T07:52:29.335Z</time>
      </trkpt>
      <trkpt lat="63.41145" lon="9.02245">
        <ele>87.361235</ele>
        <time>2020-08-05T07:52:31.342Z</time>
      </trkpt>
      <trkpt lat="63.41145" lon="9.02218">
        <ele>87.043108</ele>
        <time>2020-08-05T07:52:33.316Z</time>
      </trkpt>
      <trkpt lat="63.41145" lon="9.02193">
        <ele>86.747507</ele>
        <time>2020-08-05T07:52:35.317Z</time>
      </trkpt>
      <trkpt lat="63.41145" lon="9.02169">
        <ele>86.465002</ele>
        <time>2020-08-05T07:52:37.348Z</time>
      </trkpt>
      <trkpt lat="63.41144" lon="9.02146">
        <ele>86.19134</ele>
        <time>2020-08-05T07:52:39.347Z</time>
      </trkpt>
      <trkpt lat="63.41143" lon="9.02125">
        <ele>85.942899</ele>
        <time>2020-08-05T07:52:41.314Z</time>
      </trkpt>
      <trkpt lat="63.41142" lon="9.02102">
        <ele>85.676744</ele>
        <time>2020-08-05T07:52:43.298Z</time>
      </trkpt>
      <trkpt lat="63.41142" lon="9.0208">
        <ele>85.406426</ele>
        <time>2020-08-05T07:52:45.322Z</time>
      </trkpt>
      <trkpt lat="63.41141" lon="9.02056">
        <ele>85.126681</ele>
        <time>2020-08-05T07:52:47.310Z</time>
      </trkpt>
      <trkpt lat="63.41139" lon="9.02032">
        <ele>84.838307</ele>
        <time>2020-08-05T07:52:49.336Z</time>
      </trkpt>
      <trkpt lat="63.41137" lon="9.02008">
        <ele>84.547599</ele>
        <time>2020-08-05T07:52:51.319Z</time>
      </trkpt>
      <trkpt lat="63.41136" lon="9.01983">
        <ele>84.256285</ele>
        <time>2020-08-05T07:52:53.346Z</time>
      </trkpt>
      <trkpt lat="63.41135" lon="9.01958">
        <ele>83.977682</ele>
        <time>2020-08-05T07:52:55.305Z</time>
      </trkpt>
      <trkpt lat="63.41134" lon="9.01931">
        <ele>83.839026</ele>
        <time>2020-08-05T07:52:57.312Z</time>
      </trkpt>
      <trkpt lat="63.41134" lon="9.01902">
        <ele>83.689755</ele>
        <time>2020-08-05T07:52:59.296Z</time>
      </trkpt>
      <trkpt lat="63.41135" lon="9.01874">
        <ele>83.539424</ele>
        <time>2020-08-05T07:53:01.326Z</time>
      </trkpt>
      <trkpt lat="63.41138" lon="9.01844">
        <ele>83.383174</ele>
        <time>2020-08-05T07:53:03.292Z</time>
      </trkpt>
      <trkpt lat="63.41141" lon="9.01815">
        <ele>83.226822</ele>
        <time>2020-08-05T07:53:05.348Z</time>
      </trkpt>
      <trkpt lat="63.41145" lon="9.01786">
        <ele>83.071127</ele>
        <time>2020-08-05T07:53:07.303Z</time>
      </trkpt>
      <trkpt lat="63.41149" lon="9.01759">
        <ele>82.920245</ele>
        <time>2020-08-05T07:53:09.301Z</time>
      </trkpt>
      <trkpt lat="63.41152" lon="9.01733">
        <ele>82.779196</ele>
        <time>2020-08-05T07:53:11.315Z</time>
      </trkpt>
      <trkpt lat="63.41156" lon="9.0171">
        <ele>82.653343</ele>
        <time>2020-08-05T07:53:13.336Z</time>
      </trkpt>
      <trkpt lat="63.41159" lon="9.0169">
        <ele>82.544852</ele>
        <time>2020-08-05T07:53:15.316Z</time>
      </trkpt>
      <trkpt lat="63.41162" lon="9.01665">
        <ele>82.409792</ele>
        <time>2020-08-05T07:53:18.319Z</time>
      </trkpt>
      <trkpt lat="63.41164" lon="9.01644">
        <ele>82.299003</ele>
        <time>2020-08-05T07:53:21.338Z</time>
      </trkpt>
      <trkpt lat="63.41167" lon="9.01619">
        <ele>82.163111</ele>
        <time>2020-08-05T07:53:25.293Z</time>
      </trkpt>
      <trkpt lat="63.4117" lon="9.01596">
        <ele>82.039509</ele>
        <time>2020-08-05T07:53:29.314Z</time>
      </trkpt>
      <trkpt lat="63.41171" lon="9.01576">
        <ele>81.932777</ele>
        <time>2020-08-05T07:53:33.360Z</time>
      </trkpt>
      <trkpt lat="63.4117" lon="9.01553">
        <ele>81.907451</ele>
        <time>2020-08-05T07:53:37.310Z</time>
      </trkpt>
      <trkpt lat="63.41171" lon="9.01531">
        <ele>81.908162</ele>
        <time>2020-08-05T07:53:41.307Z</time>
      </trkpt>
      <trkpt lat="63.4117" lon="9.01506">
        <ele>81.90894</ele>
        <time>2020-08-05T07:53:45.330Z</time>
      </trkpt>
      <trkpt lat="63.41169" lon="9.01482">
        <ele>81.909741</ele>
        <time>2020-08-05T07:53:49.314Z</time>
      </trkpt>
      <trkpt lat="63.41168" lon="9.01462">
        <ele>81.910387</ele>
        <time>2020-08-05T07:53:52.314Z</time>
      </trkpt>
      <trkpt lat="63.41166" lon="9.0144">
        <ele>81.911089</ele>
        <time>2020-08-05T07:53:55.318Z</time>
      </trkpt>
      <trkpt lat="63.41164" lon="9.01417">
        <ele>81.911862</ele>
        <time>2020-08-05T07:53:58.314Z</time>
      </trkpt>
      <trkpt lat="63.41161" lon="9.01391">
        <ele>81.912708</ele>
        <time>2020-08-05T07:54:01.323Z</time>
      </trkpt>
      <trkpt lat="63.41158" lon="9.01371">
        <ele>81.913383</ele>
        <time>2020-08-05T07:54:03.339Z</time>
      </trkpt>
      <trkpt lat="63.41154" lon="9.01349">
        <ele>81.914141</ele>
        <time>2020-08-05T07:54:05.312Z</time>
      </trkpt>
      <trkpt lat="63.4115" lon="9.01326">
        <ele>81.914957</ele>
        <time>2020-08-05T07:54:07.324Z</time>
      </trkpt>
      <trkpt lat="63.41146" lon="9.013">
        <ele>81.915829</ele>
        <time>2020-08-05T07:54:09.362Z</time>
      </trkpt>
      <trkpt lat="63.41141" lon="9.01274">
        <ele>81.916753</ele>
        <time>2020-08-05T07:54:11.334Z</time>
      </trkpt>
      <trkpt lat="63.41135" lon="9.01246">
        <ele>81.917742</ele>
        <time>2020-08-05T07:54:13.348Z</time>
      </trkpt>
      <trkpt lat="63.41129" lon="9.01217">
        <ele>81.918763</ele>
        <time>2020-08-05T07:54:15.334Z</time>
      </trkpt>
      <trkpt lat="63.41123" lon="9.01187">
        <ele>81.903055</ele>
        <time>2020-08-05T07:54:17.355Z</time>
      </trkpt>
      <trkpt lat="63.41117" lon="9.01156">
        <ele>81.351536</ele>
        <time>2020-08-05T07:54:19.306Z</time>
      </trkpt>
      <trkpt lat="63.41111" lon="9.01123">
        <ele>80.76726</ele>
        <time>2020-08-05T07:54:21.309Z</time>
      </trkpt>
      <trkpt lat="63.41105" lon="9.01088">
        <ele>80.162263</ele>
        <time>2020-08-05T07:54:23.326Z</time>
      </trkpt>
      <trkpt lat="63.41097" lon="9.01054">
        <ele>79.546869</ele>
        <time>2020-08-05T07:54:25.326Z</time>
      </trkpt>
      <trkpt lat="63.4109" lon="9.01019">
        <ele>78.922647</ele>
        <time>2020-08-05T07:54:27.334Z</time>
      </trkpt>
      <trkpt lat="63.41083" lon="9.00985">
        <ele>78.308877</ele>
        <time>2020-08-05T07:54:29.327Z</time>
      </trkpt>
      <trkpt lat="63.41076" lon="9.00951">
        <ele>77.702544</ele>
        <time>2020-08-05T07:54:31.308Z</time>
      </trkpt>
      <trkpt lat="63.41068" lon="9.0092">
        <ele>77.114204</ele>
        <time>2020-08-05T07:54:33.317Z</time>
      </trkpt>
      <trkpt lat="63.41061" lon="9.00891">
        <ele>76.574296</ele>
        <time>2020-08-05T07:54:35.329Z</time>
      </trkpt>
      <trkpt lat="63.41055" lon="9.00865">
        <ele>76.089446</ele>
        <time>2020-08-05T07:54:37.331Z</time>
      </trkpt>
      <trkpt lat="63.41048" lon="9.00845">
        <ele>75.684035</ele>
        <time>2020-08-05T07:54:39.299Z</time>
      </trkpt>
      <trkpt lat="63.41041" lon="9.00831">
        <ele>75.308217</ele>
        <time>2020-08-05T07:54:41.331Z</time>
      </trkpt>
      <trkpt lat="63.4103" lon="9.00818">
        <ele>74.213119</ele>
        <time>2020-08-05T07:54:44.347Z</time>
      </trkpt>
      <trkpt lat="63.41017" lon="9.0081">
        <ele>73.01052</ele>
        <time>2020-08-05T07:54:47.318Z</time>
      </trkpt>
      <trkpt lat="63.41007" lon="9.00808">
        <ele>72.112736</ele>
        <time>2020-08-05T07:54:49.318Z</time>
      </trkpt>
      <trkpt lat="63.40996" lon="9.00813">
        <ele>71.148282</ele>
        <time>2020-08-05T07:54:51.341Z</time>
      </trkpt>
      <trkpt lat="63.40984" lon="9.00821">
        <ele>70.079079</ele>
        <time>2020-08-05T07:54:53.326Z</time>
      </trkpt>
      <trkpt lat="63.40971" lon="9.00833">
        <ele>68.820785</ele>
        <time>2020-08-05T07:54:55.356Z</time>
      </trkpt>
      <trkpt lat="63.40956" lon="9.00847">
        <ele>67.410664</ele>
        <time>2020-08-05T07:54:57.315Z</time>
      </trkpt>
      <trkpt lat="63.40941" lon="9.00866">
        <ele>65.843509</ele>
        <time>2020-08-05T07:54:59.295Z</time>
      </trkpt>
      <trkpt lat="63.40932" lon="9.00876">
        <ele>64.994021</ele>
        <time>2020-08-05T07:55:00.311Z</time>
      </trkpt>
      <trkpt lat="63.40923" lon="9.00887">
        <ele>64.106206</ele>
        <time>2020-08-05T07:55:01.303Z</time>
      </trkpt>
      <trkpt lat="63.40914" lon="9.00899">
        <ele>63.181964</ele>
        <time>2020-08-05T07:55:02.333Z</time>
      </trkpt>
      <trkpt lat="63.40905" lon="9.00911">
        <ele>62.232778</ele>
        <time>2020-08-05T07:55:03.321Z</time>
      </trkpt>
      <trkpt lat="63.40895" lon="9.00923">
        <ele>61.27574</ele>
        <time>2020-08-05T07:55:04.321Z</time>
      </trkpt>
      <trkpt lat="63.40886" lon="9.00936">
        <ele>60.310655</ele>
        <time>2020-08-05T07:55:05.298Z</time>
      </trkpt>
      <trkpt lat="63.40876" lon="9.00948">
        <ele>59.570894</ele>
        <time>2020-08-05T07:55:06.342Z</time>
      </trkpt>
      <trkpt lat="63.40867" lon="9.0096">
        <ele>59.55143</ele>
        <time>2020-08-05T07:55:07.334Z</time>
      </trkpt>
      <trkpt lat="63.40859" lon="9.00971">
        <ele>59.533016</ele>
        <time>2020-08-05T07:55:08.323Z</time>
      </trkpt>
      <trkpt lat="63.4085" lon="9.00981">
        <ele>59.515049</ele>
        <time>2020-08-05T07:55:09.313Z</time>
      </trkpt>
      <trkpt lat="63.40842" lon="9.00991">
        <ele>59.498414</ele>
        <time>2020-08-05T07:55:10.324Z</time>
      </trkpt>
      <trkpt lat="63.40828" lon="9.01005">
        <ele>59.469566</ele>
        <time>2020-08-05T07:55:12.343Z</time>
      </trkpt>
      <trkpt lat="63.40817" lon="9.01014">
        <ele>59.447521</ele>
        <time>2020-08-05T07:55:14.310Z</time>
      </trkpt>
      <trkpt lat="63.40808" lon="9.01022">
        <ele>59.430631</ele>
        <time>2020-08-05T07:55:16.314Z</time>
      </trkpt>
      <trkpt lat="63.40798" lon="9.01031">
        <ele>59.410028</ele>
        <time>2020-08-05T07:55:19.313Z</time>
      </trkpt>
      <trkpt lat="63.40787" lon="9.01041">
        <ele>59.388813</ele>
        <time>2020-08-05T07:55:23.316Z</time>
      </trkpt>
      <trkpt lat="63.40777" lon="9.01049">
        <ele>59.368672</ele>
        <time>2020-08-05T07:55:27.343Z</time>
      </trkpt>
      <trkpt lat="63.40767" lon="9.01054">
        <ele>59.349263</ele>
        <time>2020-08-05T07:55:31.347Z</time>
      </trkpt>
      <trkpt lat="63.40756" lon="9.0106">
        <ele>59.328973</ele>
        <time>2020-08-05T07:55:35.312Z</time>
      </trkpt>
      <trkpt lat="63.40747" lon="9.01062">
        <ele>59.311882</ele>
        <time>2020-08-05T07:55:39.310Z</time>
      </trkpt>
      <trkpt lat="63.40737" lon="9.01063">
        <ele>59.294104</ele>
        <time>2020-08-05T07:55:42.322Z</time>
      </trkpt>
      <trkpt lat="63.40728" lon="9.0106">
        <ele>59.275601</ele>
        <time>2020-08-05T07:55:45.327Z</time>
      </trkpt>
      <trkpt lat="63.40718" lon="9.01053">
        <ele>59.257447</ele>
        <time>2020-08-05T07:55:48.335Z</time>
      </trkpt>
      <trkpt lat="63.4071" lon="9.01045">
        <ele>59.483441</ele>
        <time>2020-08-05T07:55:51.307Z</time>
      </trkpt>
      <trkpt lat="63.407" lon="9.01033">
        <ele>61.041499</ele>
        <time>2020-08-05T07:55:55.317Z</time>
      </trkpt>
      <trkpt lat="63.40691" lon="9.01016">
        <ele>62.620458</ele>
        <time>2020-08-05T07:55:59.316Z</time>
      </trkpt>
      <trkpt lat="63.40685" lon="9.01001">
        <ele>63.930854</ele>
        <time>2020-08-05T07:56:02.333Z</time>
      </trkpt>
      <trkpt lat="63.4068" lon="9.00983">
        <ele>65.286093</ele>
        <time>2020-08-05T07:56:05.371Z</time>
      </trkpt>
      <trkpt lat="63.40675" lon="9.00961">
        <ele>66.810534</ele>
        <time>2020-08-05T07:56:08.345Z</time>
      </trkpt>
      <trkpt lat="63.40672" lon="9.00939">
        <ele>68.302664</ele>
        <time>2020-08-05T07:56:11.334Z</time>
      </trkpt>
      <trkpt lat="63.4067" lon="9.00916">
        <ele>69.763769</ele>
        <time>2020-08-05T07:56:14.314Z</time>
      </trkpt>
      <trkpt lat="63.40669" lon="9.00894">
        <ele>71.151241</ele>
        <time>2020-08-05T07:56:17.298Z</time>
      </trkpt>
      <trkpt lat="63.40671" lon="9.00873">
        <ele>72.47738</ele>
        <time>2020-08-05T07:56:20.315Z</time>
      </trkpt>
      <trkpt lat="63.40676" lon="9.0085">
        <ele>74.082061</ele>
        <time>2020-08-05T07:56:24.311Z</time>
      </trkpt>
      <trkpt lat="63.40681" lon="9.00832">
        <ele>75.426737</ele>
        <time>2020-08-05T07:56:28.353Z</time>
      </trkpt>
      <trkpt lat="63.40689" lon="9.00813">
        <ele>77.016741</ele>
        <time>2020-08-05T07:56:33.291Z</time>
      </trkpt>
      <trkpt lat="63.40696" lon="9.00798">
        <ele>78.384432</ele>
        <time>2020-08-05T07:56:37.315Z</time>
      </trkpt>
      <trkpt lat="63.40703" lon="9.00785">
        <ele>79.668899</ele>
        <time>2020-08-05T07:56:40.322Z</time>
      </trkpt>
      <trkpt lat="63.40711" lon="9.00772">
        <ele>81.02984</ele>
        <time>2020-08-05T07:56:43.350Z</time>
      </trkpt>
      <trkpt lat="63.4072" lon="9.00758">
        <ele>82.655971</ele>
        <time>2020-08-05T07:56:47.308Z</time>
      </trkpt>
      <trkpt lat="63.40729" lon="9.00744">
        <ele>84.137709</ele>
        <time>2020-08-05T07:56:51.311Z</time>
      </trkpt>
      <trkpt lat="63.40737" lon="9.00732">
        <ele>84.43481</ele>
        <time>2020-08-05T07:56:55.300Z</time>
      </trkpt>
      <trkpt lat="63.40746" lon="9.0072">
        <ele>84.391717</ele>
        <time>2020-08-05T07:56:59.339Z</time>
      </trkpt>
      <trkpt lat="63.40756" lon="9.00706">
        <ele>84.344205</ele>
        <time>2020-08-05T07:57:03.301Z</time>
      </trkpt>
      <trkpt lat="63.40764" lon="9.00695">
        <ele>84.303817</ele>
        <time>2020-08-05T07:57:07.335Z</time>
      </trkpt>
      <trkpt lat="63.40772" lon="9.00683">
        <ele>84.264556</ele>
        <time>2020-08-05T07:57:11.319Z</time>
      </trkpt>
      <trkpt lat="63.4078" lon="9.00667">
        <ele>84.22076</ele>
        <time>2020-08-05T07:57:15.330Z</time>
      </trkpt>
      <trkpt lat="63.40789" lon="9.00654">
        <ele>84.178872</ele>
        <time>2020-08-05T07:57:19.315Z</time>
      </trkpt>
      <trkpt lat="63.40799" lon="9.00642">
        <ele>84.132711</ele>
        <time>2020-08-05T07:57:23.311Z</time>
      </trkpt>
      <trkpt lat="63.40809" lon="9.00629">
        <ele>84.084959</ele>
        <time>2020-08-05T07:57:27.361Z</time>
      </trkpt>
      <trkpt lat="63.40819" lon="9.00616">
        <ele>84.036943</ele>
        <time>2020-08-05T07:57:31.352Z</time>
      </trkpt>
      <trkpt lat="63.40828" lon="9.00606">
        <ele>83.996878</ele>
        <time>2020-08-05T07:57:34.317Z</time>
      </trkpt>
      <trkpt lat="63.40839" lon="9.0059">
        <ele>83.942899</ele>
        <time>2020-08-05T07:57:37.309Z</time>
      </trkpt>
      <trkpt lat="63.40848" lon="9.00576">
        <ele>83.899052</ele>
        <time>2020-08-05T07:57:39.321Z</time>
      </trkpt>
      <trkpt lat="63.40858" lon="9.0056">
        <ele>83.850565</ele>
        <time>2020-08-05T07:57:41.322Z</time>
      </trkpt>
      <trkpt lat="63.40867" lon="9.00541">
        <ele>83.798871</ele>
        <time>2020-08-05T07:57:43.294Z</time>
      </trkpt>
      <trkpt lat="63.40876" lon="9.00516">
        <ele>83.740523</ele>
        <time>2020-08-05T07:57:45.334Z</time>
      </trkpt>
      <trkpt lat="63.40885" lon="9.00488">
        <ele>82.665459</ele>
        <time>2020-08-05T07:57:47.293Z</time>
      </trkpt>
      <trkpt lat="63.40892" lon="9.00458">
        <ele>81.439072</ele>
        <time>2020-08-05T07:57:49.311Z</time>
      </trkpt>
      <trkpt lat="63.40896" lon="9.00425">
        <ele>80.149482</ele>
        <time>2020-08-05T07:57:51.325Z</time>
      </trkpt>
      <trkpt lat="63.40899" lon="9.00387">
        <ele>78.760572</ele>
        <time>2020-08-05T07:57:53.312Z</time>
      </trkpt>
      <trkpt lat="63.40898" lon="9.0035">
        <ele>77.386596</ele>
        <time>2020-08-05T07:57:55.334Z</time>
      </trkpt>
      <trkpt lat="63.40895" lon="9.00314">
        <ele>76.026329</ele>
        <time>2020-08-05T07:57:57.308Z</time>
      </trkpt>
      <trkpt lat="63.40887" lon="9.0028">
        <ele>74.657438</ele>
        <time>2020-08-05T07:57:59.311Z</time>
      </trkpt>
      <trkpt lat="63.40878" lon="9.00251">
        <ele>73.337081</ele>
        <time>2020-08-05T07:58:01.308Z</time>
      </trkpt>
      <trkpt lat="63.40867" lon="9.00229">
        <ele>72.161964</ele>
        <time>2020-08-05T07:58:03.303Z</time>
      </trkpt>
      <trkpt lat="63.40856" lon="9.00209">
        <ele>71.004029</ele>
        <time>2020-08-05T07:58:05.310Z</time>
      </trkpt>
      <trkpt lat="63.40844" lon="9.00193">
        <ele>69.836855</ele>
        <time>2020-08-05T07:58:07.299Z</time>
      </trkpt>
      <trkpt lat="63.40832" lon="9.00183">
        <ele>68.830825</ele>
        <time>2020-08-05T07:58:09.358Z</time>
      </trkpt>
      <trkpt lat="63.40819" lon="9.00175">
        <ele>67.952918</ele>
        <time>2020-08-05T07:58:11.334Z</time>
      </trkpt>
      <trkpt lat="63.40805" lon="9.00169">
        <ele>67.017003</ele>
        <time>2020-08-05T07:58:13.318Z</time>
      </trkpt>
      <trkpt lat="63.4079" lon="9.00163">
        <ele>66.014213</ele>
        <time>2020-08-05T07:58:15.336Z</time>
      </trkpt>
      <trkpt lat="63.40774" lon="9.00159">
        <ele>64.932392</ele>
        <time>2020-08-05T07:58:17.379Z</time>
      </trkpt>
      <trkpt lat="63.40757" lon="9.00159">
        <ele>63.824034</ele>
        <time>2020-08-05T07:58:19.318Z</time>
      </trkpt>
      <trkpt lat="63.40739" lon="9.00162">
        <ele>62.672869</ele>
        <time>2020-08-05T07:58:21.317Z</time>
      </trkpt>
      <trkpt lat="63.40721" lon="9.00169">
        <ele>61.484505</ele>
        <time>2020-08-05T07:58:23.315Z</time>
      </trkpt>
      <trkpt lat="63.40713" lon="9.00175">
        <ele>60.898705</ele>
        <time>2020-08-05T07:58:24.333Z</time>
      </trkpt>
      <trkpt lat="63.40696" lon="9.00185">
        <ele>59.760842</ele>
        <time>2020-08-05T07:58:26.301Z</time>
      </trkpt>
      <trkpt lat="63.4068" lon="9.00197">
        <ele>58.647376</ele>
        <time>2020-08-05T07:58:28.367Z</time>
      </trkpt>
      <trkpt lat="63.40666" lon="9.00212">
        <ele>57.619984</ele>
        <time>2020-08-05T07:58:30.336Z</time>
      </trkpt>
      <trkpt lat="63.40653" lon="9.00227">
        <ele>57.280073</ele>
        <time>2020-08-05T07:58:32.346Z</time>
      </trkpt>
      <trkpt lat="63.40642" lon="9.00244">
        <ele>57.388977</ele>
        <time>2020-08-05T07:58:34.305Z</time>
      </trkpt>
      <trkpt lat="63.40631" lon="9.00257">
        <ele>57.483915</ele>
        <time>2020-08-05T07:58:36.323Z</time>
      </trkpt>
      <trkpt lat="63.40622" lon="9.00268">
        <ele>57.562973</ele>
        <time>2020-08-05T07:58:38.356Z</time>
      </trkpt>
      <trkpt lat="63.40613" lon="9.00281">
        <ele>57.650495</ele>
        <time>2020-08-05T07:58:40.311Z</time>
      </trkpt>
      <trkpt lat="63.40603" lon="9.00293">
        <ele>57.739339</ele>
        <time>2020-08-05T07:58:42.327Z</time>
      </trkpt>
      <trkpt lat="63.40594" lon="9.00304">
        <ele>57.820977</ele>
        <time>2020-08-05T07:58:44.300Z</time>
      </trkpt>
      <trkpt lat="63.40585" lon="9.00316">
        <ele>57.897569</ele>
        <time>2020-08-05T07:58:46.328Z</time>
      </trkpt>
      <trkpt lat="63.40577" lon="9.00327">
        <ele>57.975432</ele>
        <time>2020-08-05T07:58:48.319Z</time>
      </trkpt>
      <trkpt lat="63.40568" lon="9.00337">
        <ele>58.051769</ele>
        <time>2020-08-05T07:58:50.305Z</time>
      </trkpt>
      <trkpt lat="63.40557" lon="9.0035">
        <ele>58.149815</ele>
        <time>2020-08-05T07:58:53.361Z</time>
      </trkpt>
      <trkpt lat="63.40546" lon="9.00363">
        <ele>58.243584</ele>
        <time>2020-08-05T07:58:56.312Z</time>
      </trkpt>
      <trkpt lat="63.40536" lon="9.00374">
        <ele>58.33211</ele>
        <time>2020-08-05T07:58:59.310Z</time>
      </trkpt>
      <trkpt lat="63.40526" lon="9.00385">
        <ele>58.419003</ele>
        <time>2020-08-05T07:59:02.306Z</time>
      </trkpt>
      <trkpt lat="63.40517" lon="9.00396">
        <ele>58.503366</ele>
        <time>2020-08-05T07:59:05.352Z</time>
      </trkpt>
      <trkpt lat="63.40507" lon="9.00408">
        <ele>58.587896</ele>
        <time>2020-08-05T07:59:08.303Z</time>
      </trkpt>
      <trkpt lat="63.40497" lon="9.00419">
        <ele>58.546727</ele>
        <time>2020-08-05T07:59:11.338Z</time>
      </trkpt>
      <trkpt lat="63.40486" lon="9.00432">
        <ele>58.406329</ele>
        <time>2020-08-05T07:59:14.329Z</time>
      </trkpt>
      <trkpt lat="63.40475" lon="9.00446">
        <ele>58.259444</ele>
        <time>2020-08-05T07:59:17.317Z</time>
      </trkpt>
      <trkpt lat="63.40463" lon="9.00461">
        <ele>58.103278</ele>
        <time>2020-08-05T07:59:20.359Z</time>
      </trkpt>
      <trkpt lat="63.40455" lon="9.00472">
        <ele>57.989729</ele>
        <time>2020-08-05T07:59:22.351Z</time>
      </trkpt>
      <trkpt lat="63.40446" lon="9.00484">
        <ele>57.869815</ele>
        <time>2020-08-05T07:59:24.311Z</time>
      </trkpt>
      <trkpt lat="63.40436" lon="9.00498">
        <ele>57.741029</ele>
        <time>2020-08-05T07:59:26.361Z</time>
      </trkpt>
      <trkpt lat="63.40427" lon="9.00514">
        <ele>57.601638</ele>
        <time>2020-08-05T07:59:28.302Z</time>
      </trkpt>
      <trkpt lat="63.40416" lon="9.00532">
        <ele>57.445655</ele>
        <time>2020-08-05T07:59:30.362Z</time>
      </trkpt>
      <trkpt lat="63.40403" lon="9.0055">
        <ele>57.275813</ele>
        <time>2020-08-05T07:59:32.294Z</time>
      </trkpt>
      <trkpt lat="63.40389" lon="9.00566">
        <ele>57.091526</ele>
        <time>2020-08-05T07:59:34.314Z</time>
      </trkpt>
      <trkpt lat="63.40374" lon="9.00579">
        <ele>56.904795</ele>
        <time>2020-08-05T07:59:36.298Z</time>
      </trkpt>
      <trkpt lat="63.40359" lon="9.00587">
        <ele>56.728787</ele>
        <time>2020-08-05T07:59:38.316Z</time>
      </trkpt>
      <trkpt lat="63.40344" lon="9.00593">
        <ele>56.558548</ele>
        <time>2020-08-05T07:59:40.306Z</time>
      </trkpt>
      <trkpt lat="63.40331" lon="9.00596">
        <ele>56.549018</ele>
        <time>2020-08-05T07:59:42.330Z</time>
      </trkpt>
      <trkpt lat="63.4032" lon="9.00599">
        <ele>56.540951</ele>
        <time>2020-08-05T07:59:44.293Z</time>
      </trkpt>
      <trkpt lat="63.4031" lon="9.00602">
        <ele>56.533974</ele>
        <time>2020-08-05T07:59:46.340Z</time>
      </trkpt>
      <trkpt lat="63.40298" lon="9.00605">
        <ele>56.525129</ele>
        <time>2020-08-05T07:59:49.347Z</time>
      </trkpt>
      <trkpt lat="63.40287" lon="9.00607">
        <ele>56.517364</ele>
        <time>2020-08-05T07:59:52.310Z</time>
      </trkpt>
      <trkpt lat="63.40278" lon="9.00611">
        <ele>56.510176</ele>
        <time>2020-08-05T07:59:55.435Z</time>
      </trkpt>
      <trkpt lat="63.40268" lon="9.00613">
        <ele>56.503148</ele>
        <time>2020-08-05T07:59:58.358Z</time>
      </trkpt>
      <trkpt lat="63.40259" lon="9.00615">
        <ele>56.496413</ele>
        <time>2020-08-05T08:00:01.320Z</time>
      </trkpt>
      <trkpt lat="63.40249" lon="9.00618">
        <ele>56.489727</ele>
        <time>2020-08-05T08:00:04.292Z</time>
      </trkpt>
      <trkpt lat="63.4024" lon="9.00621">
        <ele>56.483004</ele>
        <time>2020-08-05T08:00:07.314Z</time>
      </trkpt>
      <trkpt lat="63.40231" lon="9.00624">
        <ele>56.476149</ele>
        <time>2020-08-05T08:00:10.355Z</time>
      </trkpt>
      <trkpt lat="63.40222" lon="9.00627">
        <ele>56.469664</ele>
        <time>2020-08-05T08:00:13.375Z</time>
      </trkpt>
      <trkpt lat="63.40213" lon="9.0063">
        <ele>56.463037</ele>
        <time>2020-08-05T08:00:16.341Z</time>
      </trkpt>
      <trkpt lat="63.40204" lon="9.00632">
        <ele>56.456296</ele>
        <time>2020-08-05T08:00:19.313Z</time>
      </trkpt>
      <trkpt lat="63.40194" lon="9.00633">
        <ele>56.449417</ele>
        <time>2020-08-05T08:00:22.302Z</time>
      </trkpt>
      <trkpt lat="63.40185" lon="9.00637">
        <ele>56.442771</ele>
        <time>2020-08-05T08:00:25.336Z</time>
      </trkpt>
      <trkpt lat="63.40176" lon="9.00638">
        <ele>56.43626</ele>
        <time>2020-08-05T08:00:28.312Z</time>
      </trkpt>
      <trkpt lat="63.40165" lon="9.00643">
        <ele>56.424111</ele>
        <time>2020-08-05T08:00:32.314Z</time>
      </trkpt>
      <trkpt lat="63.40154" lon="9.0065">
        <ele>56.316578</ele>
        <time>2020-08-05T08:00:36.330Z</time>
      </trkpt>
      <trkpt lat="63.40143" lon="9.00658">
        <ele>56.206179</ele>
        <time>2020-08-05T08:00:40.316Z</time>
      </trkpt>
      <trkpt lat="63.40135" lon="9.00667">
        <ele>56.121135</ele>
        <time>2020-08-05T08:00:43.309Z</time>
      </trkpt>
      <trkpt lat="63.40125" lon="9.0068">
        <ele>56.011113</ele>
        <time>2020-08-05T08:00:47.311Z</time>
      </trkpt>
      <trkpt lat="63.40117" lon="9.00693">
        <ele>55.925487</ele>
        <time>2020-08-05T08:00:50.298Z</time>
      </trkpt>
      <trkpt lat="63.4011" lon="9.00707">
        <ele>55.835006</ele>
        <time>2020-08-05T08:00:53.332Z</time>
      </trkpt>
      <trkpt lat="63.40103" lon="9.00726">
        <ele>55.731627</ele>
        <time>2020-08-05T08:00:56.332Z</time>
      </trkpt>
      <trkpt lat="63.40095" lon="9.00749">
        <ele>55.610581</ele>
        <time>2020-08-05T08:00:59.334Z</time>
      </trkpt>
      <trkpt lat="63.40089" lon="9.00767">
        <ele>55.515864</ele>
        <time>2020-08-05T08:01:01.297Z</time>
      </trkpt>
      <trkpt lat="63.40083" lon="9.0079">
        <ele>55.403619</ele>
        <time>2020-08-05T08:01:03.341Z</time>
      </trkpt>
      <trkpt lat="63.40075" lon="9.00814">
        <ele>55.276353</ele>
        <time>2020-08-05T08:01:05.296Z</time>
      </trkpt>
      <trkpt lat="63.40064" lon="9.0084">
        <ele>55.130644</ele>
        <time>2020-08-05T08:01:07.356Z</time>
      </trkpt>
      <trkpt lat="63.40051" lon="9.00868">
        <ele>54.960919</ele>
        <time>2020-08-05T08:01:09.335Z</time>
      </trkpt>
      <trkpt lat="63.40043" lon="9.00882">
        <ele>54.871823</ele>
        <time>2020-08-05T08:01:10.299Z</time>
      </trkpt>
      <trkpt lat="63.40036" lon="9.00896">
        <ele>54.780597</ele>
        <time>2020-08-05T08:01:11.295Z</time>
      </trkpt>
      <trkpt lat="63.40028" lon="9.00908">
        <ele>54.680706</ele>
        <time>2020-08-05T08:01:12.316Z</time>
      </trkpt>
      <trkpt lat="63.4002" lon="9.00919">
        <ele>54.57731</ele>
        <time>2020-08-05T08:01:13.353Z</time>
      </trkpt>
      <trkpt lat="63.40011" lon="9.00928">
        <ele>54.473856</ele>
        <time>2020-08-05T08:01:14.290Z</time>
      </trkpt>
      <trkpt lat="63.40003" lon="9.00937">
        <ele>54.370717</ele>
        <time>2020-08-05T08:01:15.321Z</time>
      </trkpt>
      <trkpt lat="63.39994" lon="9.00944">
        <ele>54.270604</ele>
        <time>2020-08-05T08:01:16.363Z</time>
      </trkpt>
      <trkpt lat="63.39985" lon="9.00949">
        <ele>54.172659</ele>
        <time>2020-08-05T08:01:17.333Z</time>
      </trkpt>
      <trkpt lat="63.39968" lon="9.00956">
        <ele>53.98713</ele>
        <time>2020-08-05T08:01:19.321Z</time>
      </trkpt>
      <trkpt lat="63.39952" lon="9.00959">
        <ele>53.811573</ele>
        <time>2020-08-05T08:01:21.314Z</time>
      </trkpt>
      <trkpt lat="63.39937" lon="9.0096">
        <ele>53.647522</ele>
        <time>2020-08-05T08:01:23.315Z</time>
      </trkpt>
      <trkpt lat="63.39923" lon="9.00957">
        <ele>53.488322</ele>
        <time>2020-08-05T08:01:25.363Z</time>
      </trkpt>
      <trkpt lat="63.39909" lon="9.00953">
        <ele>53.338127</ele>
        <time>2020-08-05T08:01:27.303Z</time>
      </trkpt>
      <trkpt lat="63.39897" lon="9.00947">
        <ele>53.200525</ele>
        <time>2020-08-05T08:01:29.325Z</time>
      </trkpt>
      <trkpt lat="63.39885" lon="9.0094">
        <ele>53.072625</ele>
        <time>2020-08-05T08:01:31.334Z</time>
      </trkpt>
      <trkpt lat="63.39874" lon="9.00931">
        <ele>52.947387</ele>
        <time>2020-08-05T08:01:33.352Z</time>
      </trkpt>
      <trkpt lat="63.39865" lon="9.00922">
        <ele>52.832665</ele>
        <time>2020-08-05T08:01:35.320Z</time>
      </trkpt>
      <trkpt lat="63.39855" lon="9.00913">
        <ele>52.909597</ele>
        <time>2020-08-05T08:01:37.316Z</time>
      </trkpt>
      <trkpt lat="63.39847" lon="9.00903">
        <ele>53.068957</ele>
        <time>2020-08-05T08:01:39.329Z</time>
      </trkpt>
      <trkpt lat="63.39839" lon="9.00893">
        <ele>53.224311</ele>
        <time>2020-08-05T08:01:41.307Z</time>
      </trkpt>
      <trkpt lat="63.39828" lon="9.00877">
        <ele>53.444709</ele>
        <time>2020-08-05T08:01:44.313Z</time>
      </trkpt>
      <trkpt lat="63.39817" lon="9.00862">
        <ele>53.654482</ele>
        <time>2020-08-05T08:01:47.313Z</time>
      </trkpt>
      <trkpt lat="63.39807" lon="9.00848">
        <ele>53.850185</ele>
        <time>2020-08-05T08:01:50.319Z</time>
      </trkpt>
      <trkpt lat="63.39797" lon="9.00833">
        <ele>54.047364</ele>
        <time>2020-08-05T08:01:53.362Z</time>
      </trkpt>
      <trkpt lat="63.39788" lon="9.00819">
        <ele>54.234186</ele>
        <time>2020-08-05T08:01:56.311Z</time>
      </trkpt>
      <trkpt lat="63.39778" lon="9.00806">
        <ele>54.422479</ele>
        <time>2020-08-05T08:01:59.301Z</time>
      </trkpt>
      <trkpt lat="63.39769" lon="9.00792">
        <ele>54.606366</ele>
        <time>2020-08-05T08:02:02.338Z</time>
      </trkpt>
      <trkpt lat="63.3976" lon="9.00778">
        <ele>54.793859</ele>
        <time>2020-08-05T08:02:05.362Z</time>
      </trkpt>
      <trkpt lat="63.3975" lon="9.00766">
        <ele>54.986681</ele>
        <time>2020-08-05T08:02:08.310Z</time>
      </trkpt>
      <trkpt lat="63.3974" lon="9.00751">
        <ele>55.177213</ele>
        <time>2020-08-05T08:02:11.327Z</time>
      </trkpt>
      <trkpt lat="63.3973" lon="9.00739">
        <ele>55.366436</ele>
        <time>2020-08-05T08:02:14.350Z</time>
      </trkpt>
      <trkpt lat="63.39721" lon="9.00725">
        <ele>55.55434</ele>
        <time>2020-08-05T08:02:17.349Z</time>
      </trkpt>
      <trkpt lat="63.39712" lon="9.0071">
        <ele>55.745707</ele>
        <time>2020-08-05T08:02:20.302Z</time>
      </trkpt>
      <trkpt lat="63.39702" lon="9.00696">
        <ele>55.899142</ele>
        <time>2020-08-05T08:02:23.312Z</time>
      </trkpt>
      <trkpt lat="63.39692" lon="9.00683">
        <ele>56.034814</ele>
        <time>2020-08-05T08:02:26.342Z</time>
      </trkpt>
      <trkpt lat="63.39683" lon="9.00669">
        <ele>56.167739</ele>
        <time>2020-08-05T08:02:29.310Z</time>
      </trkpt>
      <trkpt lat="63.39674" lon="9.00655">
        <ele>56.30543</ele>
        <time>2020-08-05T08:02:32.298Z</time>
      </trkpt>
      <trkpt lat="63.39664" lon="9.00642">
        <ele>56.444574</ele>
        <time>2020-08-05T08:02:35.322Z</time>
      </trkpt>
      <trkpt lat="63.39655" lon="9.00629">
        <ele>56.5804</ele>
        <time>2020-08-05T08:02:38.311Z</time>
      </trkpt>
      <trkpt lat="63.39645" lon="9.00616">
        <ele>56.715091</ele>
        <time>2020-08-05T08:02:41.320Z</time>
      </trkpt>
      <trkpt lat="63.39636" lon="9.00603">
        <ele>56.849781</ele>
        <time>2020-08-05T08:02:44.316Z</time>
      </trkpt>
      <trkpt lat="63.39627" lon="9.0059">
        <ele>56.979081</ele>
        <time>2020-08-05T08:02:47.348Z</time>
      </trkpt>
      <trkpt lat="63.39618" lon="9.00577">
        <ele>57.108321</ele>
        <time>2020-08-05T08:02:50.315Z</time>
      </trkpt>
      <trkpt lat="63.39609" lon="9.00563">
        <ele>57.239545</ele>
        <time>2020-08-05T08:02:53.339Z</time>
      </trkpt>
      <trkpt lat="63.39599" lon="9.0055">
        <ele>57.374236</ele>
        <time>2020-08-05T08:02:56.321Z</time>
      </trkpt>
      <trkpt lat="63.39591" lon="9.00536">
        <ele>57.506354</ele>
        <time>2020-08-05T08:02:59.306Z</time>
      </trkpt>
      <trkpt lat="63.39582" lon="9.00523">
        <ele>57.635349</ele>
        <time>2020-08-05T08:03:02.303Z</time>
      </trkpt>
      <trkpt lat="63.39573" lon="9.00508">
        <ele>57.767136</ele>
        <time>2020-08-05T08:03:05.333Z</time>
      </trkpt>
      <trkpt lat="63.39565" lon="9.00496">
        <ele>57.888589</ele>
        <time>2020-08-05T08:03:08.343Z</time>
      </trkpt>
      <trkpt lat="63.39557" lon="9.00483">
        <ele>58.009563</ele>
        <time>2020-08-05T08:03:11.357Z</time>
      </trkpt>
      <trkpt lat="63.39549" lon="9.0047">
        <ele>58.128118</ele>
        <time>2020-08-05T08:03:14.323Z</time>
      </trkpt>
      <trkpt lat="63.39541" lon="9.00457">
        <ele>58.247313</ele>
        <time>2020-08-05T08:03:17.308Z</time>
      </trkpt>
      <trkpt lat="63.39534" lon="9.00444">
        <ele>58.360291</ele>
        <time>2020-08-05T08:03:20.299Z</time>
      </trkpt>
      <trkpt lat="63.39526" lon="9.00428">
        <ele>58.496599</ele>
        <time>2020-08-05T08:03:24.297Z</time>
      </trkpt>
      <trkpt lat="63.39518" lon="9.00412">
        <ele>58.626089</ele>
        <time>2020-08-05T08:03:28.307Z</time>
      </trkpt>
      <trkpt lat="63.39511" lon="9.00397">
        <ele>58.744803</ele>
        <time>2020-08-05T08:03:32.312Z</time>
      </trkpt>
      <trkpt lat="63.39505" lon="9.0038">
        <ele>58.865997</ele>
        <time>2020-08-05T08:03:36.330Z</time>
      </trkpt>
      <trkpt lat="63.39498" lon="9.00365">
        <ele>58.980641</ele>
        <time>2020-08-05T08:03:40.316Z</time>
      </trkpt>
      <trkpt lat="63.39491" lon="9.00349">
        <ele>59.104776</ele>
        <time>2020-08-05T08:03:44.322Z</time>
      </trkpt>
      <trkpt lat="63.39486" lon="9.00331">
        <ele>59.225634</ele>
        <time>2020-08-05T08:03:48.317Z</time>
      </trkpt>
      <trkpt lat="63.39479" lon="9.00313">
        <ele>59.355632</ele>
        <time>2020-08-05T08:03:52.306Z</time>
      </trkpt>
      <trkpt lat="63.39472" lon="9.00295">
        <ele>59.485911</ele>
        <time>2020-08-05T08:03:56.311Z</time>
      </trkpt>
      <trkpt lat="63.39465" lon="9.00277">
        <ele>59.616954</ele>
        <time>2020-08-05T08:04:00.299Z</time>
      </trkpt>
      <trkpt lat="63.39459" lon="9.00257">
        <ele>59.753223</ele>
        <time>2020-08-05T08:04:04.366Z</time>
      </trkpt>
      <trkpt lat="63.39452" lon="9.00237">
        <ele>59.894297</ele>
        <time>2020-08-05T08:04:08.330Z</time>
      </trkpt>
      <trkpt lat="63.39445" lon="9.00217">
        <ele>60.03483</ele>
        <time>2020-08-05T08:04:12.308Z</time>
      </trkpt>
      <trkpt lat="63.39438" lon="9.00197">
        <ele>60.175048</ele>
        <time>2020-08-05T08:04:16.302Z</time>
      </trkpt>
      <trkpt lat="63.39431" lon="9.00178">
        <ele>60.34904</ele>
        <time>2020-08-05T08:04:20.333Z</time>
      </trkpt>
      <trkpt lat="63.39424" lon="9.00158">
        <ele>60.540461</ele>
        <time>2020-08-05T08:04:24.330Z</time>
      </trkpt>
      <trkpt lat="63.39417" lon="9.00137">
        <ele>60.733023</ele>
        <time>2020-08-05T08:04:28.324Z</time>
      </trkpt>
      <trkpt lat="63.39411" lon="9.00118">
        <ele>60.915165</ele>
        <time>2020-08-05T08:04:32.351Z</time>
      </trkpt>
      <trkpt lat="63.39404" lon="9.00098">
        <ele>61.097308</ele>
        <time>2020-08-05T08:04:36.353Z</time>
      </trkpt>
      <trkpt lat="63.39398" lon="9.0008">
        <ele>61.275501</ele>
        <time>2020-08-05T08:04:40.311Z</time>
      </trkpt>
      <trkpt lat="63.39391" lon="9.00058">
        <ele>61.469377</ele>
        <time>2020-08-05T08:04:44.370Z</time>
      </trkpt>
      <trkpt lat="63.39385" lon="9.00042">
        <ele>61.623227</ele>
        <time>2020-08-05T08:04:47.297Z</time>
      </trkpt>
      <trkpt lat="63.39379" lon="9.00021">
        <ele>61.820626</ele>
        <time>2020-08-05T08:04:51.342Z</time>
      </trkpt>
      <trkpt lat="63.39371" lon="9">
        <ele>62.021535</ele>
        <time>2020-08-05T08:04:55.325Z</time>
      </trkpt>
      <trkpt lat="63.39365" lon="8.99984">
        <ele>62.175204</ele>
        <time>2020-08-05T08:04:58.306Z</time>
      </trkpt>
      <trkpt lat="63.3936" lon="8.99968">
        <ele>62.327068</ele>
        <time>2020-08-05T08:05:01.391Z</time>
      </trkpt>
      <trkpt lat="63.39354" lon="8.99952">
        <ele>62.479895</ele>
        <time>2020-08-05T08:05:04.367Z</time>
      </trkpt>
      <trkpt lat="63.39348" lon="8.99935">
        <ele>62.646166</ele>
        <time>2020-08-05T08:05:07.304Z</time>
      </trkpt>
      <trkpt lat="63.39341" lon="8.99917">
        <ele>62.816406</ele>
        <time>2020-08-05T08:05:10.317Z</time>
      </trkpt>
      <trkpt lat="63.39335" lon="8.99899">
        <ele>62.987107</ele>
        <time>2020-08-05T08:05:13.300Z</time>
      </trkpt>
      <trkpt lat="63.39329" lon="8.99881">
        <ele>63.159415</ele>
        <time>2020-08-05T08:05:16.322Z</time>
      </trkpt>
      <trkpt lat="63.39323" lon="8.99862">
        <ele>63.29484</ele>
        <time>2020-08-05T08:05:19.318Z</time>
      </trkpt>
      <trkpt lat="63.39317" lon="8.99844">
        <ele>63.409591</ele>
        <time>2020-08-05T08:05:22.325Z</time>
      </trkpt>
      <trkpt lat="63.3931" lon="8.99827">
        <ele>63.520864</ele>
        <time>2020-08-05T08:05:25.341Z</time>
      </trkpt>
      <trkpt lat="63.39304" lon="8.9981">
        <ele>63.636181</ele>
        <time>2020-08-05T08:05:28.302Z</time>
      </trkpt>
      <trkpt lat="63.39297" lon="8.99792">
        <ele>63.751247</ele>
        <time>2020-08-05T08:05:31.341Z</time>
      </trkpt>
      <trkpt lat="63.39291" lon="8.99774">
        <ele>63.868523</ele>
        <time>2020-08-05T08:05:34.327Z</time>
      </trkpt>
      <trkpt lat="63.39285" lon="8.99758">
        <ele>63.979675</ele>
        <time>2020-08-05T08:05:37.302Z</time>
      </trkpt>
      <trkpt lat="63.39279" lon="8.99739">
        <ele>64.090482</ele>
        <time>2020-08-05T08:05:40.328Z</time>
      </trkpt>
      <trkpt lat="63.39274" lon="8.99722">
        <ele>64.19518</ele>
        <time>2020-08-05T08:05:43.308Z</time>
      </trkpt>
      <trkpt lat="63.39269" lon="8.99706">
        <ele>64.299577</ele>
        <time>2020-08-05T08:05:46.357Z</time>
      </trkpt>
      <trkpt lat="63.39263" lon="8.9969">
        <ele>64.403988</ele>
        <time>2020-08-05T08:05:49.319Z</time>
      </trkpt>
      <trkpt lat="63.39256" lon="8.99673">
        <ele>64.514425</ele>
        <time>2020-08-05T08:05:52.301Z</time>
      </trkpt>
      <trkpt lat="63.3925" lon="8.99655">
        <ele>64.629283</ele>
        <time>2020-08-05T08:05:55.291Z</time>
      </trkpt>
      <trkpt lat="63.39245" lon="8.99637">
        <ele>64.74373</ele>
        <time>2020-08-05T08:05:58.311Z</time>
      </trkpt>
      <trkpt lat="63.39238" lon="8.9962">
        <ele>64.855333</ele>
        <time>2020-08-05T08:06:01.374Z</time>
      </trkpt>
      <trkpt lat="63.39232" lon="8.99601">
        <ele>64.973581</ele>
        <time>2020-08-05T08:06:04.351Z</time>
      </trkpt>
      <trkpt lat="63.39225" lon="8.99582">
        <ele>65.09663</ele>
        <time>2020-08-05T08:06:07.298Z</time>
      </trkpt>
      <trkpt lat="63.39218" lon="8.99563">
        <ele>65.220571</ele>
        <time>2020-08-05T08:06:10.313Z</time>
      </trkpt>
      <trkpt lat="63.39211" lon="8.99542">
        <ele>65.461902</ele>
        <time>2020-08-05T08:06:13.318Z</time>
      </trkpt>
      <trkpt lat="63.39204" lon="8.9952">
        <ele>65.737459</ele>
        <time>2020-08-05T08:06:16.315Z</time>
      </trkpt>
      <trkpt lat="63.39197" lon="8.99498">
        <ele>66.007143</ele>
        <time>2020-08-05T08:06:19.348Z</time>
      </trkpt>
      <trkpt lat="63.3919" lon="8.99475">
        <ele>66.281051</ele>
        <time>2020-08-05T08:06:22.331Z</time>
      </trkpt>
      <trkpt lat="63.39184" lon="8.99454">
        <ele>66.54404</ele>
        <time>2020-08-05T08:06:25.314Z</time>
      </trkpt>
      <trkpt lat="63.39178" lon="8.99432">
        <ele>66.800487</ele>
        <time>2020-08-05T08:06:28.311Z</time>
      </trkpt>
      <trkpt lat="63.39173" lon="8.9941">
        <ele>67.052366</ele>
        <time>2020-08-05T08:06:31.310Z</time>
      </trkpt>
      <trkpt lat="63.39167" lon="8.99389">
        <ele>67.298688</ele>
        <time>2020-08-05T08:06:34.308Z</time>
      </trkpt>
      <trkpt lat="63.39162" lon="8.99367">
        <ele>67.552223</ele>
        <time>2020-08-05T08:06:37.323Z</time>
      </trkpt>
      <trkpt lat="63.39158" lon="8.99347">
        <ele>67.773271</ele>
        <time>2020-08-05T08:06:40.323Z</time>
      </trkpt>
      <trkpt lat="63.39153" lon="8.99327">
        <ele>68.001156</ele>
        <time>2020-08-05T08:06:43.299Z</time>
      </trkpt>
      <trkpt lat="63.39148" lon="8.99307">
        <ele>68.232768</ele>
        <time>2020-08-05T08:06:46.322Z</time>
      </trkpt>
      <trkpt lat="63.39143" lon="8.99286">
        <ele>68.469894</ele>
        <time>2020-08-05T08:06:49.301Z</time>
      </trkpt>
      <trkpt lat="63.39139" lon="8.99265">
        <ele>68.702259</ele>
        <time>2020-08-05T08:06:52.346Z</time>
      </trkpt>
      <trkpt lat="63.39134" lon="8.99244">
        <ele>68.942965</ele>
        <time>2020-08-05T08:06:55.334Z</time>
      </trkpt>
      <trkpt lat="63.39129" lon="8.99223">
        <ele>69.176118</ele>
        <time>2020-08-05T08:06:58.357Z</time>
      </trkpt>
      <trkpt lat="63.39125" lon="8.99202">
        <ele>69.658515</ele>
        <time>2020-08-05T08:07:01.326Z</time>
      </trkpt>
      <trkpt lat="63.39122" lon="8.99181">
        <ele>70.451571</ele>
        <time>2020-08-05T08:07:04.346Z</time>
      </trkpt>
      <trkpt lat="63.39119" lon="8.99159">
        <ele>71.218535</ele>
        <time>2020-08-05T08:07:07.311Z</time>
      </trkpt>
      <trkpt lat="63.39117" lon="8.99138">
        <ele>71.970438</ele>
        <time>2020-08-05T08:07:10.352Z</time>
      </trkpt>
      <trkpt lat="63.39116" lon="8.99115">
        <ele>72.750207</ele>
        <time>2020-08-05T08:07:13.326Z</time>
      </trkpt>
      <trkpt lat="63.39115" lon="8.99093">
        <ele>73.521331</ele>
        <time>2020-08-05T08:07:16.347Z</time>
      </trkpt>
      <trkpt lat="63.39115" lon="8.99071">
        <ele>74.264491</ele>
        <time>2020-08-05T08:07:19.300Z</time>
      </trkpt>
      <trkpt lat="63.39116" lon="8.9905">
        <ele>74.994275</ele>
        <time>2020-08-05T08:07:22.308Z</time>
      </trkpt>
      <trkpt lat="63.39116" lon="8.99024">
        <ele>75.881226</ele>
        <time>2020-08-05T08:07:26.387Z</time>
      </trkpt>
      <trkpt lat="63.39117" lon="8.99">
        <ele>76.719299</ele>
        <time>2020-08-05T08:07:30.332Z</time>
      </trkpt>
      <trkpt lat="63.39119" lon="8.98975">
        <ele>77.566139</ele>
        <time>2020-08-05T08:07:34.299Z</time>
      </trkpt>
      <trkpt lat="63.39119" lon="8.98949">
        <ele>78.446771</ele>
        <time>2020-08-05T08:07:38.320Z</time>
      </trkpt>
      <trkpt lat="63.39118" lon="8.98924">
        <ele>79.330187</ele>
        <time>2020-08-05T08:07:42.321Z</time>
      </trkpt>
      <trkpt lat="63.39117" lon="8.98898">
        <ele>80.198747</ele>
        <time>2020-08-05T08:07:46.311Z</time>
      </trkpt>
      <trkpt lat="63.39116" lon="8.98872">
        <ele>81.121241</ele>
        <time>2020-08-05T08:07:50.309Z</time>
      </trkpt>
      <trkpt lat="63.39115" lon="8.98849">
        <ele>81.905058</ele>
        <time>2020-08-05T08:07:53.363Z</time>
      </trkpt>
      <trkpt lat="63.39112" lon="8.98828">
        <ele>82.645868</ele>
        <time>2020-08-05T08:07:56.347Z</time>
      </trkpt>
      <trkpt lat="63.39109" lon="8.98805">
        <ele>83.008465</ele>
        <time>2020-08-05T08:08:00.302Z</time>
      </trkpt>
      <trkpt lat="63.39103" lon="8.98784">
        <ele>82.924509</ele>
        <time>2020-08-05T08:08:04.307Z</time>
      </trkpt>
      <trkpt lat="63.39099" lon="8.98765">
        <ele>82.849076</ele>
        <time>2020-08-05T08:08:08.306Z</time>
      </trkpt>
      <trkpt lat="63.39093" lon="8.98748">
        <ele>82.776404</ele>
        <time>2020-08-05T08:08:11.320Z</time>
      </trkpt>
      <trkpt lat="63.39087" lon="8.98735">
        <ele>82.706658</ele>
        <time>2020-08-05T08:08:14.299Z</time>
      </trkpt>
      <trkpt lat="63.3908" lon="8.98721">
        <ele>82.636112</ele>
        <time>2020-08-05T08:08:17.297Z</time>
      </trkpt>
      <trkpt lat="63.39072" lon="8.98707">
        <ele>82.558742</ele>
        <time>2020-08-05T08:08:20.333Z</time>
      </trkpt>
      <trkpt lat="63.39065" lon="8.98695">
        <ele>82.489023</ele>
        <time>2020-08-05T08:08:23.349Z</time>
      </trkpt>
      <trkpt lat="63.39054" lon="8.98682">
        <ele>82.396415</ele>
        <time>2020-08-05T08:08:27.307Z</time>
      </trkpt>
      <trkpt lat="63.39043" lon="8.98668">
        <ele>82.301279</ele>
        <time>2020-08-05T08:08:31.333Z</time>
      </trkpt>
      <trkpt lat="63.39034" lon="8.98652">
        <ele>82.211673</ele>
        <time>2020-08-05T08:08:35.321Z</time>
      </trkpt>
      <trkpt lat="63.39028" lon="8.98639">
        <ele>82.142169</ele>
        <time>2020-08-05T08:08:38.322Z</time>
      </trkpt>
      <trkpt lat="63.39019" lon="8.98622">
        <ele>82.055056</ele>
        <time>2020-08-05T08:08:42.385Z</time>
      </trkpt>
      <trkpt lat="63.39012" lon="8.98608">
        <ele>81.982755</ele>
        <time>2020-08-05T08:08:46.352Z</time>
      </trkpt>
      <trkpt lat="63.39004" lon="8.98593">
        <ele>81.897443</ele>
        <time>2020-08-05T08:08:51.306Z</time>
      </trkpt>
      <trkpt lat="63.38996" lon="8.98576">
        <ele>81.81525</ele>
        <time>2020-08-05T08:08:56.307Z</time>
      </trkpt>
      <trkpt lat="63.38988" lon="8.98559">
        <ele>81.728722</ele>
        <time>2020-08-05T08:09:01.334Z</time>
      </trkpt>
      <trkpt lat="63.3898" lon="8.98542">
        <ele>81.855722</ele>
        <time>2020-08-05T08:09:06.313Z</time>
      </trkpt>
      <trkpt lat="63.38972" lon="8.98528">
        <ele>82.599756</ele>
        <time>2020-08-05T08:09:11.315Z</time>
      </trkpt>
      <trkpt lat="63.38964" lon="8.98511">
        <ele>83.434534</ele>
        <time>2020-08-05T08:09:16.339Z</time>
      </trkpt>
      <trkpt lat="63.38956" lon="8.985">
        <ele>84.14991</ele>
        <time>2020-08-05T08:09:20.299Z</time>
      </trkpt>
      <trkpt lat="63.38948" lon="8.98487">
        <ele>84.843406</ele>
        <time>2020-08-05T08:09:24.358Z</time>
      </trkpt>
      <trkpt lat="63.3894" lon="8.98473">
        <ele>85.622589</ele>
        <time>2020-08-05T08:09:29.315Z</time>
      </trkpt>
      <trkpt lat="63.38931" lon="8.98471">
        <ele>86.327748</ele>
        <time>2020-08-05T08:09:34.303Z</time>
      </trkpt>
      <trkpt lat="63.38921" lon="8.98474">
        <ele>87.02719</ele>
        <time>2020-08-05T08:09:39.315Z</time>
      </trkpt>
      <trkpt lat="63.38913" lon="8.98481">
        <ele>87.716991</ele>
        <time>2020-08-05T08:09:44.321Z</time>
      </trkpt>
      <trkpt lat="63.38904" lon="8.98491">
        <ele>88.426457</ele>
        <time>2020-08-05T08:09:50.301Z</time>
      </trkpt>
      <trkpt lat="63.38898" lon="8.98506">
        <ele>89.112488</ele>
        <time>2020-08-05T08:09:56.312Z</time>
      </trkpt>
      <trkpt lat="63.38889" lon="8.98519">
        <ele>89.922385</ele>
        <time>2020-08-05T08:10:02.304Z</time>
      </trkpt>
      <trkpt lat="63.3888" lon="8.98532">
        <ele>90.694604</ele>
        <time>2020-08-05T08:10:08.383Z</time>
      </trkpt>
      <trkpt lat="63.38871" lon="8.98544">
        <ele>91.508634</ele>
        <time>2020-08-05T08:10:14.340Z</time>
      </trkpt>
      <trkpt lat="63.38862" lon="8.98554">
        <ele>92.256756</ele>
        <time>2020-08-05T08:10:19.319Z</time>
      </trkpt>
      <trkpt lat="63.38852" lon="8.98552">
        <ele>92.977101</ele>
        <time>2020-08-05T08:10:24.353Z</time>
      </trkpt>
      <trkpt lat="63.38844" lon="8.98545">
        <ele>93.655144</ele>
        <time>2020-08-05T08:10:29.348Z</time>
      </trkpt>
      <trkpt lat="63.38833" lon="8.98544">
        <ele>94.454667</ele>
        <time>2020-08-05T08:10:34.322Z</time>
      </trkpt>
      <trkpt lat="63.38824" lon="8.9856">
        <ele>95.13505</ele>
        <time>2020-08-05T08:10:38.308Z</time>
      </trkpt>
      <trkpt lat="63.38817" lon="8.98578">
        <ele>95.282153</ele>
        <time>2020-08-05T08:10:41.323Z</time>
      </trkpt>
      <trkpt lat="63.38809" lon="8.98598">
        <ele>95.453786</ele>
        <time>2020-08-05T08:10:44.333Z</time>
      </trkpt>
      <trkpt lat="63.388" lon="8.98618">
        <ele>95.632656</ele>
        <time>2020-08-05T08:10:47.327Z</time>
      </trkpt>
      <trkpt lat="63.38793" lon="8.98633">
        <ele>95.762872</ele>
        <time>2020-08-05T08:10:49.342Z</time>
      </trkpt>
      <trkpt lat="63.38785" lon="8.98648">
        <ele>95.906404</ele>
        <time>2020-08-05T08:10:51.321Z</time>
      </trkpt>
      <trkpt lat="63.38778" lon="8.98665">
        <ele>96.05138</ele>
        <time>2020-08-05T08:10:53.327Z</time>
      </trkpt>
      <trkpt lat="63.38771" lon="8.98683">
        <ele>96.197987</ele>
        <time>2020-08-05T08:10:55.301Z</time>
      </trkpt>
      <trkpt lat="63.38764" lon="8.98699">
        <ele>96.341401</ele>
        <time>2020-08-05T08:10:57.342Z</time>
      </trkpt>
      <trkpt lat="63.38757" lon="8.98714">
        <ele>96.473347</ele>
        <time>2020-08-05T08:10:59.318Z</time>
      </trkpt>
      <trkpt lat="63.38748" lon="8.9873">
        <ele>96.627623</ele>
        <time>2020-08-05T08:11:02.301Z</time>
      </trkpt>
      <trkpt lat="63.3874" lon="8.98746">
        <ele>96.784266</ele>
        <time>2020-08-05T08:11:05.321Z</time>
      </trkpt>
      <trkpt lat="63.38731" lon="8.98763">
        <ele>96.942506</ele>
        <time>2020-08-05T08:11:08.301Z</time>
      </trkpt>
      <trkpt lat="63.38722" lon="8.9878">
        <ele>97.101733</ele>
        <time>2020-08-05T08:11:11.321Z</time>
      </trkpt>
      <trkpt lat="63.38715" lon="8.98795">
        <ele>97.245662</ele>
        <time>2020-08-05T08:11:14.353Z</time>
      </trkpt>
      <trkpt lat="63.38706" lon="8.98814">
        <ele>97.411959</ele>
        <time>2020-08-05T08:11:18.312Z</time>
      </trkpt>
      <trkpt lat="63.38699" lon="8.98829">
        <ele>97.545349</ele>
        <time>2020-08-05T08:11:21.371Z</time>
      </trkpt>
      <trkpt lat="63.38692" lon="8.98846">
        <ele>97.459941</ele>
        <time>2020-08-05T08:11:24.351Z</time>
      </trkpt>
      <trkpt lat="63.38685" lon="8.98861">
        <ele>97.257085</ele>
        <time>2020-08-05T08:11:27.354Z</time>
      </trkpt>
      <trkpt lat="63.38677" lon="8.98878">
        <ele>97.052206</ele>
        <time>2020-08-05T08:11:30.340Z</time>
      </trkpt>
      <trkpt lat="63.3867" lon="8.98898">
        <ele>96.819862</ele>
        <time>2020-08-05T08:11:33.318Z</time>
      </trkpt>
      <trkpt lat="63.38663" lon="8.98918">
        <ele>96.604969</ele>
        <time>2020-08-05T08:11:36.341Z</time>
      </trkpt>
      <trkpt lat="63.38658" lon="8.98936">
        <ele>96.410394</ele>
        <time>2020-08-05T08:11:39.354Z</time>
      </trkpt>
      <trkpt lat="63.38652" lon="8.98957">
        <ele>96.199071</ele>
        <time>2020-08-05T08:11:42.314Z</time>
      </trkpt>
      <trkpt lat="63.38647" lon="8.98976">
        <ele>96.001611</ele>
        <time>2020-08-05T08:11:45.314Z</time>
      </trkpt>
      <trkpt lat="63.38643" lon="8.98998">
        <ele>95.795729</ele>
        <time>2020-08-05T08:11:48.352Z</time>
      </trkpt>
      <trkpt lat="63.38638" lon="8.9902">
        <ele>95.580885</ele>
        <time>2020-08-05T08:11:51.320Z</time>
      </trkpt>
      <trkpt lat="63.38633" lon="8.99041">
        <ele>95.361178</ele>
        <time>2020-08-05T08:11:54.319Z</time>
      </trkpt>
      <trkpt lat="63.38627" lon="8.99064">
        <ele>95.131659</ele>
        <time>2020-08-05T08:11:57.309Z</time>
      </trkpt>
      <trkpt lat="63.38622" lon="8.99086">
        <ele>94.910902</ele>
        <time>2020-08-05T08:12:00.313Z</time>
      </trkpt>
      <trkpt lat="63.38618" lon="8.99107">
        <ele>94.710633</ele>
        <time>2020-08-05T08:12:03.299Z</time>
      </trkpt>
      <trkpt lat="63.38613" lon="8.99128">
        <ele>94.50474</ele>
        <time>2020-08-05T08:12:06.295Z</time>
      </trkpt>
      <trkpt lat="63.38609" lon="8.99148">
        <ele>94.30771</ele>
        <time>2020-08-05T08:12:09.342Z</time>
      </trkpt>
      <trkpt lat="63.38606" lon="8.99168">
        <ele>94.124228</ele>
        <time>2020-08-05T08:12:12.294Z</time>
      </trkpt>
      <trkpt lat="63.38603" lon="8.99187">
        <ele>94.150816</ele>
        <time>2020-08-05T08:12:15.352Z</time>
      </trkpt>
      <trkpt lat="63.386" lon="8.99212">
        <ele>94.333322</ele>
        <time>2020-08-05T08:12:19.312Z</time>
      </trkpt>
      <trkpt lat="63.38599" lon="8.99236">
        <ele>94.509958</ele>
        <time>2020-08-05T08:12:23.306Z</time>
      </trkpt>
      <trkpt lat="63.38599" lon="8.99259">
        <ele>94.680992</ele>
        <time>2020-08-05T08:12:27.304Z</time>
      </trkpt>
      <trkpt lat="63.38599" lon="8.99281">
        <ele>94.838972</ele>
        <time>2020-08-05T08:12:31.319Z</time>
      </trkpt>
      <trkpt lat="63.386" lon="8.99302">
        <ele>94.9923</ele>
        <time>2020-08-05T08:12:35.303Z</time>
      </trkpt>
      <trkpt lat="63.38603" lon="8.99325">
        <ele>95.1635</ele>
        <time>2020-08-05T08:12:40.327Z</time>
      </trkpt>
      <trkpt lat="63.38605" lon="8.99346">
        <ele>95.317654</ele>
        <time>2020-08-05T08:12:44.335Z</time>
      </trkpt>
      <trkpt lat="63.38606" lon="8.99368">
        <ele>95.483258</ele>
        <time>2020-08-05T08:12:48.353Z</time>
      </trkpt>
      <trkpt lat="63.38607" lon="8.99393">
        <ele>95.662982</ele>
        <time>2020-08-05T08:12:53.323Z</time>
      </trkpt>
      <trkpt lat="63.38607" lon="8.99415">
        <ele>95.828235</ele>
        <time>2020-08-05T08:12:58.312Z</time>
      </trkpt>
      <trkpt lat="63.38605" lon="8.99439">
        <ele>96.000867</ele>
        <time>2020-08-05T08:13:03.307Z</time>
      </trkpt>
      <trkpt lat="63.386" lon="8.9946">
        <ele>96.174689</ele>
        <time>2020-08-05T08:13:07.316Z</time>
      </trkpt>
      <trkpt lat="63.38593" lon="8.99479">
        <ele>96.34923</ele>
        <time>2020-08-05T08:13:11.331Z</time>
      </trkpt>
      <trkpt lat="63.38586" lon="8.99499">
        <ele>96.535934</ele>
        <time>2020-08-05T08:13:15.294Z</time>
      </trkpt>
      <trkpt lat="63.3858" lon="8.99518">
        <ele>96.704263</ele>
        <time>2020-08-05T08:13:19.303Z</time>
      </trkpt>
      <trkpt lat="63.38572" lon="8.99536">
        <ele>96.896335</ele>
        <time>2020-08-05T08:13:23.350Z</time>
      </trkpt>
      <trkpt lat="63.38564" lon="8.9955">
        <ele>97.058245</ele>
        <time>2020-08-05T08:13:26.301Z</time>
      </trkpt>
      <trkpt lat="63.38555" lon="8.99565">
        <ele>97.244457</ele>
        <time>2020-08-05T08:13:29.312Z</time>
      </trkpt>
      <trkpt lat="63.38547" lon="8.99578">
        <ele>97.421272</ele>
        <time>2020-08-05T08:13:32.321Z</time>
      </trkpt>
      <trkpt lat="63.38538" lon="8.99591">
        <ele>97.597982</ele>
        <time>2020-08-05T08:13:35.311Z</time>
      </trkpt>
      <trkpt lat="63.38531" lon="8.99603">
        <ele>97.757344</ele>
        <time>2020-08-05T08:13:38.322Z</time>
      </trkpt>
      <trkpt lat="63.38523" lon="8.99615">
        <ele>97.911279</ele>
        <time>2020-08-05T08:13:41.318Z</time>
      </trkpt>
      <trkpt lat="63.38516" lon="8.99626">
        <ele>98.069421</ele>
        <time>2020-08-05T08:13:44.315Z</time>
      </trkpt>
      <trkpt lat="63.38506" lon="8.99642">
        <ele>98.266565</ele>
        <time>2020-08-05T08:13:48.321Z</time>
      </trkpt>
      <trkpt lat="63.38498" lon="8.99655">
        <ele>98.434637</ele>
        <time>2020-08-05T08:13:51.313Z</time>
      </trkpt>
      <trkpt lat="63.38491" lon="8.99668">
        <ele>98.591127</ele>
        <time>2020-08-05T08:13:54.334Z</time>
      </trkpt>
      <trkpt lat="63.38484" lon="8.99684">
        <ele>98.768795</ele>
        <time>2020-08-05T08:13:58.359Z</time>
      </trkpt>
      <trkpt lat="63.38477" lon="8.99699">
        <ele>98.931367</ele>
        <time>2020-08-05T08:14:01.319Z</time>
      </trkpt>
      <trkpt lat="63.38468" lon="8.99718">
        <ele>99.136039</ele>
        <time>2020-08-05T08:14:05.375Z</time>
      </trkpt>
      <trkpt lat="63.3846" lon="8.99736">
        <ele>99.331982</ele>
        <time>2020-08-05T08:14:09.363Z</time>
      </trkpt>
      <trkpt lat="63.38452" lon="8.99754">
        <ele>99.525731</ele>
        <time>2020-08-05T08:14:13.295Z</time>
      </trkpt>
      <trkpt lat="63.38444" lon="8.99774">
        <ele>99.725112</ele>
        <time>2020-08-05T08:14:17.303Z</time>
      </trkpt>
      <trkpt lat="63.38436" lon="8.99793">
        <ele>99.923973</ele>
        <time>2020-08-05T08:14:21.307Z</time>
      </trkpt>
      <trkpt lat="63.38429" lon="8.99811">
        <ele>100.108477</ele>
        <time>2020-08-05T08:14:25.341Z</time>
      </trkpt>
      <trkpt lat="63.38422" lon="8.99828">
        <ele>100.27368</ele>
        <time>2020-08-05T08:14:29.326Z</time>
      </trkpt>
      <trkpt lat="63.38414" lon="8.99844">
        <ele>100.439587</ele>
        <time>2020-08-05T08:14:33.348Z</time>
      </trkpt>
      <trkpt lat="63.38406" lon="8.99858">
        <ele>100.60582</ele>
        <time>2020-08-05T08:14:37.344Z</time>
      </trkpt>
      <trkpt lat="63.38397" lon="8.99872">
        <ele>100.777216</ele>
        <time>2020-08-05T08:14:41.317Z</time>
      </trkpt>
      <trkpt lat="63.38387" lon="8.99885">
        <ele>100.951742</ele>
        <time>2020-08-05T08:14:45.330Z</time>
      </trkpt>
      <trkpt lat="63.38378" lon="8.99894">
        <ele>101.114655</ele>
        <time>2020-08-05T08:14:49.311Z</time>
      </trkpt>
      <trkpt lat="63.38368" lon="8.99907">
        <ele>101.289435</ele>
        <time>2020-08-05T08:14:53.288Z</time>
      </trkpt>
      <trkpt lat="63.38358" lon="8.99918">
        <ele>101.464981</ele>
        <time>2020-08-05T08:14:57.363Z</time>
      </trkpt>
      <trkpt lat="63.3835" lon="8.99929">
        <ele>101.619016</ele>
        <time>2020-08-05T08:15:01.338Z</time>
      </trkpt>
      <trkpt lat="63.38342" lon="8.99939">
        <ele>101.769217</ele>
        <time>2020-08-05T08:15:05.289Z</time>
      </trkpt>
      <trkpt lat="63.38333" lon="8.99951">
        <ele>101.931586</ele>
        <time>2020-08-05T08:15:09.313Z</time>
      </trkpt>
      <trkpt lat="63.38325" lon="8.99962">
        <ele>102.087074</ele>
        <time>2020-08-05T08:15:13.312Z</time>
      </trkpt>
      <trkpt lat="63.38316" lon="8.99975">
        <ele>102.245338</ele>
        <time>2020-08-05T08:15:17.324Z</time>
      </trkpt>
      <trkpt lat="63.3831" lon="8.99989">
        <ele>102.391176</ele>
        <time>2020-08-05T08:15:21.330Z</time>
      </trkpt>
      <trkpt lat="63.38302" lon="9.00006">
        <ele>102.562361</ele>
        <time>2020-08-05T08:15:25.308Z</time>
      </trkpt>
      <trkpt lat="63.38293" lon="9.00025">
        <ele>102.753076</ele>
        <time>2020-08-05T08:15:29.310Z</time>
      </trkpt>
      <trkpt lat="63.38285" lon="9.00039">
        <ele>102.84694</ele>
        <time>2020-08-05T08:15:32.292Z</time>
      </trkpt>
      <trkpt lat="63.38277" lon="9.00055">
        <ele>102.621378</ele>
        <time>2020-08-05T08:15:35.370Z</time>
      </trkpt>
      <trkpt lat="63.38268" lon="9.00071">
        <ele>102.372959</ele>
        <time>2020-08-05T08:15:38.315Z</time>
      </trkpt>
      <trkpt lat="63.38258" lon="9.00084">
        <ele>102.130492</ele>
        <time>2020-08-05T08:15:41.303Z</time>
      </trkpt>
      <trkpt lat="63.38249" lon="9.00096">
        <ele>101.904355</ele>
        <time>2020-08-05T08:15:44.334Z</time>
      </trkpt>
      <trkpt lat="63.38238" lon="9.00107">
        <ele>101.665998</ele>
        <time>2020-08-05T08:15:47.307Z</time>
      </trkpt>
      <trkpt lat="63.38228" lon="9.00118">
        <ele>101.426266</ele>
        <time>2020-08-05T08:15:50.322Z</time>
      </trkpt>
      <trkpt lat="63.38217" lon="9.00126">
        <ele>101.188536</ele>
        <time>2020-08-05T08:15:53.293Z</time>
      </trkpt>
      <trkpt lat="63.38206" lon="9.00131">
        <ele>100.952961</ele>
        <time>2020-08-05T08:15:56.331Z</time>
      </trkpt>
      <trkpt lat="63.38194" lon="9.00134">
        <ele>100.701852</ele>
        <time>2020-08-05T08:15:59.337Z</time>
      </trkpt>
      <trkpt lat="63.38182" lon="9.00134">
        <ele>100.443926</ele>
        <time>2020-08-05T08:16:02.321Z</time>
      </trkpt>
      <trkpt lat="63.3817" lon="9.00133">
        <ele>100.194149</ele>
        <time>2020-08-05T08:16:05.338Z</time>
      </trkpt>
      <trkpt lat="63.38159" lon="9.00129">
        <ele>99.954806</ele>
        <time>2020-08-05T08:16:08.353Z</time>
      </trkpt>
      <trkpt lat="63.38147" lon="9.00127">
        <ele>99.708169</ele>
        <time>2020-08-05T08:16:11.318Z</time>
      </trkpt>
      <trkpt lat="63.38136" lon="9.00124">
        <ele>99.465704</ele>
        <time>2020-08-05T08:16:14.340Z</time>
      </trkpt>
      <trkpt lat="63.38125" lon="9.0012">
        <ele>99.236871</ele>
        <time>2020-08-05T08:16:17.313Z</time>
      </trkpt>
      <trkpt lat="63.38114" lon="9.00117">
        <ele>99.03299</ele>
        <time>2020-08-05T08:16:20.305Z</time>
      </trkpt>
      <trkpt lat="63.38103" lon="9.00112">
        <ele>98.867246</ele>
        <time>2020-08-05T08:16:23.311Z</time>
      </trkpt>
      <trkpt lat="63.38092" lon="9.00109">
        <ele>98.699933</ele>
        <time>2020-08-05T08:16:26.316Z</time>
      </trkpt>
      <trkpt lat="63.38081" lon="9.00107">
        <ele>98.539322</ele>
        <time>2020-08-05T08:16:29.315Z</time>
      </trkpt>
      <trkpt lat="63.38071" lon="9.00103">
        <ele>98.383321</ele>
        <time>2020-08-05T08:16:32.353Z</time>
      </trkpt>
      <trkpt lat="63.38061" lon="9.00101">
        <ele>98.22602</ele>
        <time>2020-08-05T08:16:35.314Z</time>
      </trkpt>
      <trkpt lat="63.38051" lon="9.00099">
        <ele>98.077843</ele>
        <time>2020-08-05T08:16:38.317Z</time>
      </trkpt>
      <trkpt lat="63.38041" lon="9.00097">
        <ele>97.932558</ele>
        <time>2020-08-05T08:16:41.305Z</time>
      </trkpt>
      <trkpt lat="63.38032" lon="9.00095">
        <ele>97.791579</ele>
        <time>2020-08-05T08:16:44.341Z</time>
      </trkpt>
      <trkpt lat="63.38022" lon="9.00093">
        <ele>97.64296</ele>
        <time>2020-08-05T08:16:47.335Z</time>
      </trkpt>
      <trkpt lat="63.38012" lon="9.0009">
        <ele>97.492769</ele>
        <time>2020-08-05T08:16:50.407Z</time>
      </trkpt>
      <trkpt lat="63.38003" lon="9.00088">
        <ele>97.344292</ele>
        <time>2020-08-05T08:16:53.323Z</time>
      </trkpt>
      <trkpt lat="63.37993" lon="9.00085">
        <ele>97.198068</ele>
        <time>2020-08-05T08:16:56.309Z</time>
      </trkpt>
      <trkpt lat="63.37983" lon="9.00083">
        <ele>97.048279</ele>
        <time>2020-08-05T08:16:59.340Z</time>
      </trkpt>
      <trkpt lat="63.37972" lon="9.0008">
        <ele>96.887597</ele>
        <time>2020-08-05T08:17:02.334Z</time>
      </trkpt>
      <trkpt lat="63.37961" lon="9.00079">
        <ele>96.716821</ele>
        <time>2020-08-05T08:17:05.352Z</time>
      </trkpt>
      <trkpt lat="63.37949" lon="9.00077">
        <ele>96.529689</ele>
        <time>2020-08-05T08:17:08.304Z</time>
      </trkpt>
      <trkpt lat="63.37936" lon="9.00074">
        <ele>96.445609</ele>
        <time>2020-08-05T08:17:11.312Z</time>
      </trkpt>
      <trkpt lat="63.37923" lon="9.00071">
        <ele>96.575967</ele>
        <time>2020-08-05T08:17:14.322Z</time>
      </trkpt>
      <trkpt lat="63.3791" lon="9.00068">
        <ele>96.708636</ele>
        <time>2020-08-05T08:17:17.351Z</time>
      </trkpt>
      <trkpt lat="63.37897" lon="9.00064">
        <ele>96.839428</ele>
        <time>2020-08-05T08:17:20.348Z</time>
      </trkpt>
      <trkpt lat="63.37884" lon="9.00061">
        <ele>96.967086</ele>
        <time>2020-08-05T08:17:23.303Z</time>
      </trkpt>
      <trkpt lat="63.37872" lon="9.00059">
        <ele>97.085312</ele>
        <time>2020-08-05T08:17:26.347Z</time>
      </trkpt>
      <trkpt lat="63.37863" lon="9.00056">
        <ele>97.182754</ele>
        <time>2020-08-05T08:17:29.326Z</time>
      </trkpt>
      <trkpt lat="63.37851" lon="9.00052">
        <ele>97.296987</ele>
        <time>2020-08-05T08:17:33.337Z</time>
      </trkpt>
      <trkpt lat="63.3784" lon="9.0005">
        <ele>97.409416</ele>
        <time>2020-08-05T08:17:37.310Z</time>
      </trkpt>
      <trkpt lat="63.37831" lon="9.00047">
        <ele>97.503933</ele>
        <time>2020-08-05T08:17:40.301Z</time>
      </trkpt>
      <trkpt lat="63.37821" lon="9.00045">
        <ele>97.601236</ele>
        <time>2020-08-05T08:17:43.316Z</time>
      </trkpt>
      <trkpt lat="63.37812" lon="9.00043">
        <ele>97.69138</ele>
        <time>2020-08-05T08:17:46.314Z</time>
      </trkpt>
      <trkpt lat="63.37802" lon="9.00042">
        <ele>97.787531</ele>
        <time>2020-08-05T08:17:49.357Z</time>
      </trkpt>
      <trkpt lat="63.37793" lon="9.00039">
        <ele>97.88513</ele>
        <time>2020-08-05T08:17:52.299Z</time>
      </trkpt>
      <trkpt lat="63.37783" lon="9.00037">
        <ele>97.978553</ele>
        <time>2020-08-05T08:17:55.311Z</time>
      </trkpt>
      <trkpt lat="63.37774" lon="9.00034">
        <ele>98.075161</ele>
        <time>2020-08-05T08:17:58.316Z</time>
      </trkpt>
      <trkpt lat="63.37764" lon="9.00032">
        <ele>98.175581</ele>
        <time>2020-08-05T08:18:01.327Z</time>
      </trkpt>
      <trkpt lat="63.37754" lon="9.00029">
        <ele>98.247983</ele>
        <time>2020-08-05T08:18:04.295Z</time>
      </trkpt>
      <trkpt lat="63.37744" lon="9.00026">
        <ele>98.312751</ele>
        <time>2020-08-05T08:18:07.307Z</time>
      </trkpt>
      <trkpt lat="63.37734" lon="9.00024">
        <ele>98.374837</ele>
        <time>2020-08-05T08:18:10.322Z</time>
      </trkpt>
      <trkpt lat="63.37725" lon="9.00023">
        <ele>98.43859</ele>
        <time>2020-08-05T08:18:13.344Z</time>
      </trkpt>
      <trkpt lat="63.37714" lon="9.00018">
        <ele>98.50698</ele>
        <time>2020-08-05T08:18:16.319Z</time>
      </trkpt>
      <trkpt lat="63.37703" lon="9.00015">
        <ele>98.581313</ele>
        <time>2020-08-05T08:18:19.351Z</time>
      </trkpt>
      <trkpt lat="63.37691" lon="9.00011">
        <ele>98.659506</ele>
        <time>2020-08-05T08:18:22.375Z</time>
      </trkpt>
      <trkpt lat="63.37679" lon="9.00008">
        <ele>98.740709</ele>
        <time>2020-08-05T08:18:25.323Z</time>
      </trkpt>
      <trkpt lat="63.37666" lon="9.00006">
        <ele>98.820795</ele>
        <time>2020-08-05T08:18:28.320Z</time>
      </trkpt>
      <trkpt lat="63.37653" lon="9.00003">
        <ele>98.906848</ele>
        <time>2020-08-05T08:18:31.327Z</time>
      </trkpt>
      <trkpt lat="63.37644" lon="9">
        <ele>98.965985</ele>
        <time>2020-08-05T08:18:33.330Z</time>
      </trkpt>
      <trkpt lat="63.37635" lon="8.99997">
        <ele>99.024918</ele>
        <time>2020-08-05T08:18:35.335Z</time>
      </trkpt>
      <trkpt lat="63.37625" lon="8.99995">
        <ele>99.088941</ele>
        <time>2020-08-05T08:18:37.339Z</time>
      </trkpt>
      <trkpt lat="63.37615" lon="8.99992">
        <ele>99.155678</ele>
        <time>2020-08-05T08:18:39.317Z</time>
      </trkpt>
      <trkpt lat="63.37605" lon="8.99991">
        <ele>99.222727</ele>
        <time>2020-08-05T08:18:41.322Z</time>
      </trkpt>
      <trkpt lat="63.37594" lon="8.99988">
        <ele>99.291213</ele>
        <time>2020-08-05T08:18:43.354Z</time>
      </trkpt>
      <trkpt lat="63.37584" lon="8.99986">
        <ele>99.360463</ele>
        <time>2020-08-05T08:18:45.300Z</time>
      </trkpt>
      <trkpt lat="63.37573" lon="8.99983">
        <ele>99.506771</ele>
        <time>2020-08-05T08:18:47.361Z</time>
      </trkpt>
      <trkpt lat="63.37564" lon="8.9998">
        <ele>99.647981</ele>
        <time>2020-08-05T08:18:49.335Z</time>
      </trkpt>
      <trkpt lat="63.37555" lon="8.99979">
        <ele>99.784076</ele>
        <time>2020-08-05T08:18:51.347Z</time>
      </trkpt>
      <trkpt lat="63.37543" lon="8.99976">
        <ele>99.96321</ele>
        <time>2020-08-05T08:18:54.316Z</time>
      </trkpt>
      <trkpt lat="63.37532" lon="8.99973">
        <ele>100.127979</ele>
        <time>2020-08-05T08:18:57.325Z</time>
      </trkpt>
      <trkpt lat="63.37521" lon="8.99971">
        <ele>100.289321</ele>
        <time>2020-08-05T08:19:00.351Z</time>
      </trkpt>
      <trkpt lat="63.37511" lon="8.99971">
        <ele>100.438159</ele>
        <time>2020-08-05T08:19:03.315Z</time>
      </trkpt>
      <trkpt lat="63.375" lon="8.99972">
        <ele>100.588754</ele>
        <time>2020-08-05T08:19:06.345Z</time>
      </trkpt>
      <trkpt lat="63.37491" lon="8.99974">
        <ele>100.728035</ele>
        <time>2020-08-05T08:19:09.362Z</time>
      </trkpt>
      <trkpt lat="63.3748" lon="8.99978">
        <ele>100.894693</ele>
        <time>2020-08-05T08:19:13.316Z</time>
      </trkpt>
      <trkpt lat="63.37469" lon="8.99982">
        <ele>101.056132</ele>
        <time>2020-08-05T08:19:17.342Z</time>
      </trkpt>
      <trkpt lat="63.37459" lon="8.99987">
        <ele>101.208446</ele>
        <time>2020-08-05T08:19:21.315Z</time>
      </trkpt>
      <trkpt lat="63.37449" lon="8.99994">
        <ele>101.364694</ele>
        <time>2020-08-05T08:19:25.316Z</time>
      </trkpt>
      <trkpt lat="63.37438" lon="9.00002">
        <ele>101.527459</ele>
        <time>2020-08-05T08:19:29.307Z</time>
      </trkpt>
      <trkpt lat="63.37428" lon="9.00012">
        <ele>101.691112</ele>
        <time>2020-08-05T08:19:33.320Z</time>
      </trkpt>
      <trkpt lat="63.37419" lon="9.0002">
        <ele>101.836858</ele>
        <time>2020-08-05T08:19:37.322Z</time>
      </trkpt>
      <trkpt lat="63.37409" lon="9.0003">
        <ele>101.993546</ele>
        <time>2020-08-05T08:19:41.341Z</time>
      </trkpt>
      <trkpt lat="63.37399" lon="9.00041">
        <ele>102.469863</ele>
        <time>2020-08-05T08:19:45.303Z</time>
      </trkpt>
      <trkpt lat="63.37391" lon="9.0005">
        <ele>102.939632</ele>
        <time>2020-08-05T08:19:49.296Z</time>
      </trkpt>
      <trkpt lat="63.37382" lon="9.0006">
        <ele>103.411035</ele>
        <time>2020-08-05T08:19:53.302Z</time>
      </trkpt>
      <trkpt lat="63.37373" lon="9.00071">
        <ele>103.891008</ele>
        <time>2020-08-05T08:19:57.346Z</time>
      </trkpt>
      <trkpt lat="63.37364" lon="9.0008">
        <ele>104.375724</ele>
        <time>2020-08-05T08:20:01.331Z</time>
      </trkpt>
      <trkpt lat="63.37356" lon="9.00088">
        <ele>104.813638</ele>
        <time>2020-08-05T08:20:05.350Z</time>
      </trkpt>
      <trkpt lat="63.37346" lon="9.00098">
        <ele>105.330163</ele>
        <time>2020-08-05T08:20:10.324Z</time>
      </trkpt>
      <trkpt lat="63.37338" lon="9.00107">
        <ele>105.777491</ele>
        <time>2020-08-05T08:20:14.308Z</time>
      </trkpt>
      <trkpt lat="63.37328" lon="9.00119">
        <ele>106.323845</ele>
        <time>2020-08-05T08:20:19.351Z</time>
      </trkpt>
      <trkpt lat="63.3732" lon="9.0013">
        <ele>106.782533</ele>
        <time>2020-08-05T08:20:23.343Z</time>
      </trkpt>
      <trkpt lat="63.3731" lon="9.00139">
        <ele>107.311175</ele>
        <time>2020-08-05T08:20:28.303Z</time>
      </trkpt>
      <trkpt lat="63.37302" lon="9.00149">
        <ele>107.76348</ele>
        <time>2020-08-05T08:20:32.323Z</time>
      </trkpt>
      <trkpt lat="63.37293" lon="9.00158">
        <ele>108.204605</ele>
        <time>2020-08-05T08:20:36.361Z</time>
      </trkpt>
      <trkpt lat="63.37283" lon="9.00168">
        <ele>108.737037</ele>
        <time>2020-08-05T08:20:41.363Z</time>
      </trkpt>
      <trkpt lat="63.37274" lon="9.0018">
        <ele>109.278106</ele>
        <time>2020-08-05T08:20:46.357Z</time>
      </trkpt>
      <trkpt lat="63.37264" lon="9.00192">
        <ele>109.801233</ele>
        <time>2020-08-05T08:20:51.317Z</time>
      </trkpt>
      <trkpt lat="63.37255" lon="9.00201">
        <ele>110.308661</ele>
        <time>2020-08-05T08:20:56.336Z</time>
      </trkpt>
      <trkpt lat="63.37244" lon="9.00212">
        <ele>110.777511</ele>
        <time>2020-08-05T08:21:01.321Z</time>
      </trkpt>
      <trkpt lat="63.37236" lon="9.00222">
        <ele>110.961288</ele>
        <time>2020-08-05T08:21:05.351Z</time>
      </trkpt>
      <trkpt lat="63.37228" lon="9.00232">
        <ele>111.155218</ele>
        <time>2020-08-05T08:21:09.311Z</time>
      </trkpt>
      <trkpt lat="63.3722" lon="9.00242">
        <ele>111.343797</ele>
        <time>2020-08-05T08:21:13.338Z</time>
      </trkpt>
      <trkpt lat="63.3721" lon="9.00253">
        <ele>111.572385</ele>
        <time>2020-08-05T08:21:18.324Z</time>
      </trkpt>
      <trkpt lat="63.37201" lon="9.00264">
        <ele>111.794465</ele>
        <time>2020-08-05T08:21:23.315Z</time>
      </trkpt>
      <trkpt lat="63.37192" lon="9.00273">
        <ele>111.982857</ele>
        <time>2020-08-05T08:21:27.373Z</time>
      </trkpt>
      <trkpt lat="63.37184" lon="9.00282">
        <ele>112.171324</ele>
        <time>2020-08-05T08:21:31.306Z</time>
      </trkpt>
      <trkpt lat="63.37174" lon="9.00294">
        <ele>112.395657</ele>
        <time>2020-08-05T08:21:36.315Z</time>
      </trkpt>
      <trkpt lat="63.37166" lon="9.00304">
        <ele>112.594705</ele>
        <time>2020-08-05T08:21:40.345Z</time>
      </trkpt>
      <trkpt lat="63.37156" lon="9.00314">
        <ele>112.817495</ele>
        <time>2020-08-05T08:21:44.326Z</time>
      </trkpt>
      <trkpt lat="63.37147" lon="9.00322">
        <ele>113.002175</ele>
        <time>2020-08-05T08:21:47.365Z</time>
      </trkpt>
      <trkpt lat="63.37138" lon="9.00329">
        <ele>113.200087</ele>
        <time>2020-08-05T08:21:50.342Z</time>
      </trkpt>
      <trkpt lat="63.37128" lon="9.00337">
        <ele>113.420688</ele>
        <time>2020-08-05T08:21:53.340Z</time>
      </trkpt>
      <trkpt lat="63.37117" lon="9.00347">
        <ele>113.661762</ele>
        <time>2020-08-05T08:21:56.321Z</time>
      </trkpt>
      <trkpt lat="63.37109" lon="9.00353">
        <ele>113.849535</ele>
        <time>2020-08-05T08:21:58.303Z</time>
      </trkpt>
      <trkpt lat="63.37099" lon="9.00359">
        <ele>114.046208</ele>
        <time>2020-08-05T08:22:00.335Z</time>
      </trkpt>
      <trkpt lat="63.3709" lon="9.00363">
        <ele>114.246971</ele>
        <time>2020-08-05T08:22:02.350Z</time>
      </trkpt>
      <trkpt lat="63.37079" lon="9.00368">
        <ele>114.329297</ele>
        <time>2020-08-05T08:22:04.294Z</time>
      </trkpt>
      <trkpt lat="63.37069" lon="9.00372">
        <ele>114.040108</ele>
        <time>2020-08-05T08:22:06.323Z</time>
      </trkpt>
      <trkpt lat="63.37058" lon="9.00376">
        <ele>113.751693</ele>
        <time>2020-08-05T08:22:08.319Z</time>
      </trkpt>
      <trkpt lat="63.37048" lon="9.00379">
        <ele>113.479281</ele>
        <time>2020-08-05T08:22:10.337Z</time>
      </trkpt>
      <trkpt lat="63.37038" lon="9.00382">
        <ele>113.223231</ele>
        <time>2020-08-05T08:22:12.331Z</time>
      </trkpt>
      <trkpt lat="63.37029" lon="9.00385">
        <ele>112.980575</ele>
        <time>2020-08-05T08:22:14.305Z</time>
      </trkpt>
      <trkpt lat="63.37016" lon="9.0039">
        <ele>112.638757</ele>
        <time>2020-08-05T08:22:17.327Z</time>
      </trkpt>
      <trkpt lat="63.37004" lon="9.00394">
        <ele>112.318151</ele>
        <time>2020-08-05T08:22:20.331Z</time>
      </trkpt>
      <trkpt lat="63.36992" lon="9.00398">
        <ele>112.000698</ele>
        <time>2020-08-05T08:22:23.336Z</time>
      </trkpt>
      <trkpt lat="63.3698" lon="9.00403">
        <ele>111.682505</ele>
        <time>2020-08-05T08:22:26.312Z</time>
      </trkpt>
      <trkpt lat="63.3697" lon="9.00407">
        <ele>111.3929</ele>
        <time>2020-08-05T08:22:29.307Z</time>
      </trkpt>
      <trkpt lat="63.36959" lon="9.00411">
        <ele>111.114903</ele>
        <time>2020-08-05T08:22:32.352Z</time>
      </trkpt>
      <trkpt lat="63.36948" lon="9.00415">
        <ele>110.829277</ele>
        <time>2020-08-05T08:22:35.319Z</time>
      </trkpt>
      <trkpt lat="63.36938" lon="9.00418">
        <ele>110.546437</ele>
        <time>2020-08-05T08:22:38.371Z</time>
      </trkpt>
      <trkpt lat="63.36927" lon="9.00422">
        <ele>110.257042</ele>
        <time>2020-08-05T08:22:41.332Z</time>
      </trkpt>
      <trkpt lat="63.36915" lon="9.00428">
        <ele>109.944694</ele>
        <time>2020-08-05T08:22:44.357Z</time>
      </trkpt>
      <trkpt lat="63.36903" lon="9.00432">
        <ele>109.638686</ele>
        <time>2020-08-05T08:22:47.321Z</time>
      </trkpt>
      <trkpt lat="63.36891" lon="9.00436">
        <ele>109.453013</ele>
        <time>2020-08-05T08:22:50.358Z</time>
      </trkpt>
      <trkpt lat="63.36878" lon="9.00438">
        <ele>109.256631</ele>
        <time>2020-08-05T08:22:53.342Z</time>
      </trkpt>
      <trkpt lat="63.36869" lon="9.00438">
        <ele>109.107862</ele>
        <time>2020-08-05T08:22:55.323Z</time>
      </trkpt>
      <trkpt lat="63.36859" lon="9.00438">
        <ele>108.954529</ele>
        <time>2020-08-05T08:22:57.366Z</time>
      </trkpt>
      <trkpt lat="63.36848" lon="9.00436">
        <ele>108.792871</ele>
        <time>2020-08-05T08:22:59.311Z</time>
      </trkpt>
      <trkpt lat="63.36837" lon="9.00432">
        <ele>108.61829</ele>
        <time>2020-08-05T08:23:01.329Z</time>
      </trkpt>
      <trkpt lat="63.36825" lon="9.00427">
        <ele>108.434355</ele>
        <time>2020-08-05T08:23:03.322Z</time>
      </trkpt>
      <trkpt lat="63.36812" lon="9.00421">
        <ele>108.239984</ele>
        <time>2020-08-05T08:23:05.308Z</time>
      </trkpt>
      <trkpt lat="63.36798" lon="9.00416">
        <ele>108.026159</ele>
        <time>2020-08-05T08:23:07.322Z</time>
      </trkpt>
      <trkpt lat="63.36783" lon="9.00411">
        <ele>107.793041</ele>
        <time>2020-08-05T08:23:09.336Z</time>
      </trkpt>
      <trkpt lat="63.36767" lon="9.00406">
        <ele>107.54591</ele>
        <time>2020-08-05T08:23:11.310Z</time>
      </trkpt>
      <trkpt lat="63.3675" lon="9.00402">
        <ele>107.283746</ele>
        <time>2020-08-05T08:23:13.297Z</time>
      </trkpt>
      <trkpt lat="63.36741" lon="9.00403">
        <ele>107.14689</ele>
        <time>2020-08-05T08:23:14.302Z</time>
      </trkpt>
      <trkpt lat="63.36732" lon="9.00406">
        <ele>107.007632</ele>
        <time>2020-08-05T08:23:15.317Z</time>
      </trkpt>
      <trkpt lat="63.36722" lon="9.00411">
        <ele>106.825038</ele>
        <time>2020-08-05T08:23:16.330Z</time>
      </trkpt>
      <trkpt lat="63.36713" lon="9.00417">
        <ele>106.601477</ele>
        <time>2020-08-05T08:23:17.314Z</time>
      </trkpt>
      <trkpt lat="63.36703" lon="9.00425">
        <ele>106.367211</ele>
        <time>2020-08-05T08:23:18.325Z</time>
      </trkpt>
      <trkpt lat="63.36693" lon="9.00434">
        <ele>106.131425</ele>
        <time>2020-08-05T08:23:19.318Z</time>
      </trkpt>
      <trkpt lat="63.36684" lon="9.00445">
        <ele>105.898076</ele>
        <time>2020-08-05T08:23:20.355Z</time>
      </trkpt>
      <trkpt lat="63.36676" lon="9.00457">
        <ele>105.669442</ele>
        <time>2020-08-05T08:23:21.293Z</time>
      </trkpt>
      <trkpt lat="63.36668" lon="9.00471">
        <ele>105.438682</ele>
        <time>2020-08-05T08:23:22.310Z</time>
      </trkpt>
      <trkpt lat="63.3666" lon="9.00485">
        <ele>105.211171</ele>
        <time>2020-08-05T08:23:23.317Z</time>
      </trkpt>
      <trkpt lat="63.36652" lon="9.00499">
        <ele>104.990559</ele>
        <time>2020-08-05T08:23:24.365Z</time>
      </trkpt>
      <trkpt lat="63.36645" lon="9.00513">
        <ele>104.769126</ele>
        <time>2020-08-05T08:23:25.338Z</time>
      </trkpt>
      <trkpt lat="63.36638" lon="9.00528">
        <ele>104.54979</ele>
        <time>2020-08-05T08:23:26.322Z</time>
      </trkpt>
      <trkpt lat="63.36631" lon="9.00542">
        <ele>104.332343</ele>
        <time>2020-08-05T08:23:27.324Z</time>
      </trkpt>
      <trkpt lat="63.36624" lon="9.00557">
        <ele>104.119777</ele>
        <time>2020-08-05T08:23:28.319Z</time>
      </trkpt>
      <trkpt lat="63.36617" lon="9.0057">
        <ele>103.91495</ele>
        <time>2020-08-05T08:23:29.355Z</time>
      </trkpt>
      <trkpt lat="63.36605" lon="9.00596">
        <ele>103.533605</ele>
        <time>2020-08-05T08:23:31.318Z</time>
      </trkpt>
      <trkpt lat="63.36593" lon="9.00618">
        <ele>103.174225</ele>
        <time>2020-08-05T08:23:33.355Z</time>
      </trkpt>
      <trkpt lat="63.3658" lon="9.00636">
        <ele>102.844794</ele>
        <time>2020-08-05T08:23:35.342Z</time>
      </trkpt>
      <trkpt lat="63.36566" lon="9.00649">
        <ele>102.719645</ele>
        <time>2020-08-05T08:23:37.320Z</time>
      </trkpt>
      <trkpt lat="63.36554" lon="9.00659">
        <ele>102.602884</ele>
        <time>2020-08-05T08:23:39.316Z</time>
      </trkpt>
      <trkpt lat="63.36541" lon="9.00667">
        <ele>102.49281</ele>
        <time>2020-08-05T08:23:41.310Z</time>
      </trkpt>
      <trkpt lat="63.36528" lon="9.00674">
        <ele>102.376592</ele>
        <time>2020-08-05T08:23:43.368Z</time>
      </trkpt>
      <trkpt lat="63.36516" lon="9.0068">
        <ele>102.26535</ele>
        <time>2020-08-05T08:23:45.320Z</time>
      </trkpt>
      <trkpt lat="63.36504" lon="9.00685">
        <ele>102.160211</ele>
        <time>2020-08-05T08:23:47.339Z</time>
      </trkpt>
      <trkpt lat="63.36492" lon="9.00688">
        <ele>102.061027</ele>
        <time>2020-08-05T08:23:49.312Z</time>
      </trkpt>
      <trkpt lat="63.36481" lon="9.00691">
        <ele>101.965321</ele>
        <time>2020-08-05T08:23:51.319Z</time>
      </trkpt>
      <trkpt lat="63.36471" lon="9.00694">
        <ele>101.871133</ele>
        <time>2020-08-05T08:23:53.345Z</time>
      </trkpt>
      <trkpt lat="63.3646" lon="9.00697">
        <ele>101.776892</ele>
        <time>2020-08-05T08:23:55.318Z</time>
      </trkpt>
      <trkpt lat="63.36449" lon="9.00701">
        <ele>101.68315</ele>
        <time>2020-08-05T08:23:57.320Z</time>
      </trkpt>
      <trkpt lat="63.36439" lon="9.00705">
        <ele>101.592092</ele>
        <time>2020-08-05T08:23:59.308Z</time>
      </trkpt>
      <trkpt lat="63.36429" lon="9.0071">
        <ele>101.502701</ele>
        <time>2020-08-05T08:24:01.335Z</time>
      </trkpt>
      <trkpt lat="63.36419" lon="9.00717">
        <ele>101.413641</ele>
        <time>2020-08-05T08:24:03.306Z</time>
      </trkpt>
      <trkpt lat="63.36409" lon="9.00724">
        <ele>101.328325</ele>
        <time>2020-08-05T08:24:05.341Z</time>
      </trkpt>
      <trkpt lat="63.364" lon="9.00731">
        <ele>101.311042</ele>
        <time>2020-08-05T08:24:07.315Z</time>
      </trkpt>
      <trkpt lat="63.36391" lon="9.0074">
        <ele>101.326689</ele>
        <time>2020-08-05T08:24:09.330Z</time>
      </trkpt>
      <trkpt lat="63.36381" lon="9.0075">
        <ele>101.342398</ele>
        <time>2020-08-05T08:24:11.314Z</time>
      </trkpt>
      <trkpt lat="63.36372" lon="9.00763">
        <ele>101.358265</ele>
        <time>2020-08-05T08:24:13.354Z</time>
      </trkpt>
      <trkpt lat="63.36363" lon="9.00777">
        <ele>101.374646</ele>
        <time>2020-08-05T08:24:15.307Z</time>
      </trkpt>
      <trkpt lat="63.36355" lon="9.00793">
        <ele>101.390521</ele>
        <time>2020-08-05T08:24:17.320Z</time>
      </trkpt>
      <trkpt lat="63.36348" lon="9.0081">
        <ele>101.406463</ele>
        <time>2020-08-05T08:24:19.314Z</time>
      </trkpt>
      <trkpt lat="63.36341" lon="9.00829">
        <ele>101.42264</ele>
        <time>2020-08-05T08:24:21.332Z</time>
      </trkpt>
      <trkpt lat="63.36335" lon="9.0085">
        <ele>101.438886</ele>
        <time>2020-08-05T08:24:23.318Z</time>
      </trkpt>
      <trkpt lat="63.36331" lon="9.00872">
        <ele>101.454919</ele>
        <time>2020-08-05T08:24:25.327Z</time>
      </trkpt>
      <trkpt lat="63.36327" lon="9.00894">
        <ele>101.470854</ele>
        <time>2020-08-05T08:24:27.319Z</time>
      </trkpt>
      <trkpt lat="63.36324" lon="9.00915">
        <ele>101.486034</ele>
        <time>2020-08-05T08:24:29.316Z</time>
      </trkpt>
      <trkpt lat="63.36321" lon="9.00937">
        <ele>101.500988</ele>
        <time>2020-08-05T08:24:31.311Z</time>
      </trkpt>
      <trkpt lat="63.36319" lon="9.00959">
        <ele>101.515729</ele>
        <time>2020-08-05T08:24:33.325Z</time>
      </trkpt>
      <trkpt lat="63.36318" lon="9.0098">
        <ele>101.530153</ele>
        <time>2020-08-05T08:24:35.309Z</time>
      </trkpt>
      <trkpt lat="63.36318" lon="9.01003">
        <ele>101.545122</ele>
        <time>2020-08-05T08:24:37.344Z</time>
      </trkpt>
      <trkpt lat="63.36319" lon="9.01026">
        <ele>101.560654</ele>
        <time>2020-08-05T08:24:39.330Z</time>
      </trkpt>
      <trkpt lat="63.3632" lon="9.01048">
        <ele>101.544949</ele>
        <time>2020-08-05T08:24:41.375Z</time>
      </trkpt>
      <trkpt lat="63.3632" lon="9.01072">
        <ele>101.486607</ele>
        <time>2020-08-05T08:24:43.336Z</time>
      </trkpt>
      <trkpt lat="63.36321" lon="9.01095">
        <ele>101.428945</ele>
        <time>2020-08-05T08:24:45.354Z</time>
      </trkpt>
      <trkpt lat="63.36322" lon="9.01119">
        <ele>101.370575</ele>
        <time>2020-08-05T08:24:47.326Z</time>
      </trkpt>
      <trkpt lat="63.36323" lon="9.01142">
        <ele>101.313368</ele>
        <time>2020-08-05T08:24:49.325Z</time>
      </trkpt>
      <trkpt lat="63.36322" lon="9.01164">
        <ele>101.257776</ele>
        <time>2020-08-05T08:24:51.353Z</time>
      </trkpt>
      <trkpt lat="63.36321" lon="9.01186">
        <ele>101.202257</ele>
        <time>2020-08-05T08:24:53.297Z</time>
      </trkpt>
      <trkpt lat="63.36318" lon="9.01209">
        <ele>101.144877</ele>
        <time>2020-08-05T08:24:55.306Z</time>
      </trkpt>
      <trkpt lat="63.36314" lon="9.0123">
        <ele>101.087798</ele>
        <time>2020-08-05T08:24:57.343Z</time>
      </trkpt>
      <trkpt lat="63.3631" lon="9.0125">
        <ele>101.03164</ele>
        <time>2020-08-05T08:24:59.338Z</time>
      </trkpt>
      <trkpt lat="63.36305" lon="9.0127">
        <ele>100.975515</ele>
        <time>2020-08-05T08:25:01.310Z</time>
      </trkpt>
      <trkpt lat="63.36298" lon="9.01288">
        <ele>100.918832</ele>
        <time>2020-08-05T08:25:03.300Z</time>
      </trkpt>
      <trkpt lat="63.36292" lon="9.01302">
        <ele>100.867195</ele>
        <time>2020-08-05T08:25:05.316Z</time>
      </trkpt>
      <trkpt lat="63.36285" lon="9.01316">
        <ele>100.814362</ele>
        <time>2020-08-05T08:25:07.348Z</time>
      </trkpt>
      <trkpt lat="63.36277" lon="9.01329">
        <ele>100.760787</ele>
        <time>2020-08-05T08:25:09.338Z</time>
      </trkpt>
      <trkpt lat="63.36269" lon="9.0134">
        <ele>100.710759</ele>
        <time>2020-08-05T08:25:11.338Z</time>
      </trkpt>
      <trkpt lat="63.36258" lon="9.01357">
        <ele>100.636325</ele>
        <time>2020-08-05T08:25:14.318Z</time>
      </trkpt>
      <trkpt lat="63.36246" lon="9.01371">
        <ele>100.675828</ele>
        <time>2020-08-05T08:25:17.327Z</time>
      </trkpt>
      <trkpt lat="63.36237" lon="9.01382">
        <ele>101.103632</ele>
        <time>2020-08-05T08:25:19.311Z</time>
      </trkpt>
      <trkpt lat="63.36229" lon="9.01394">
        <ele>101.525257</ele>
        <time>2020-08-05T08:25:21.349Z</time>
      </trkpt>
      <trkpt lat="63.36221" lon="9.01405">
        <ele>101.921054</ele>
        <time>2020-08-05T08:25:23.331Z</time>
      </trkpt>
      <trkpt lat="63.3621" lon="9.01419">
        <ele>102.48711</ele>
        <time>2020-08-05T08:25:26.299Z</time>
      </trkpt>
      <trkpt lat="63.36199" lon="9.01433">
        <ele>103.014889</ele>
        <time>2020-08-05T08:25:29.323Z</time>
      </trkpt>
      <trkpt lat="63.36189" lon="9.01447">
        <ele>103.497787</ele>
        <time>2020-08-05T08:25:32.312Z</time>
      </trkpt>
      <trkpt lat="63.36182" lon="9.01459">
        <ele>103.913247</ele>
        <time>2020-08-05T08:25:35.332Z</time>
      </trkpt>
      <trkpt lat="63.36172" lon="9.01474">
        <ele>104.413561</ele>
        <time>2020-08-05T08:25:39.363Z</time>
      </trkpt>
      <trkpt lat="63.36164" lon="9.01486">
        <ele>104.836688</ele>
        <time>2020-08-05T08:25:43.315Z</time>
      </trkpt>
      <trkpt lat="63.36155" lon="9.01497">
        <ele>105.254353</ele>
        <time>2020-08-05T08:25:48.327Z</time>
      </trkpt>
      <trkpt lat="63.36147" lon="9.01513">
        <ele>105.714981</ele>
        <time>2020-08-05T08:25:54.302Z</time>
      </trkpt>
      <trkpt lat="63.36138" lon="9.01527">
        <ele>106.180826</ele>
        <time>2020-08-05T08:25:59.366Z</time>
      </trkpt>
      <trkpt lat="63.36131" lon="9.01539">
        <ele>106.566647</ele>
        <time>2020-08-05T08:26:04.320Z</time>
      </trkpt>
      <trkpt lat="63.36124" lon="9.01551">
        <ele>106.960298</ele>
        <time>2020-08-05T08:26:09.349Z</time>
      </trkpt>
      <trkpt lat="63.36116" lon="9.01566">
        <ele>107.378463</ele>
        <time>2020-08-05T08:26:14.312Z</time>
      </trkpt>
      <trkpt lat="63.36109" lon="9.01579">
        <ele>107.778119</ele>
        <time>2020-08-05T08:26:19.290Z</time>
      </trkpt>
      <trkpt lat="63.36102" lon="9.01593">
        <ele>108.176508</ele>
        <time>2020-08-05T08:26:24.298Z</time>
      </trkpt>
      <trkpt lat="63.36095" lon="9.01607">
        <ele>108.716396</ele>
        <time>2020-08-05T08:26:29.320Z</time>
      </trkpt>
      <trkpt lat="63.36087" lon="9.0162">
        <ele>109.298937</ele>
        <time>2020-08-05T08:26:34.340Z</time>
      </trkpt>
      <trkpt lat="63.3608" lon="9.01633">
        <ele>109.865816</ele>
        <time>2020-08-05T08:26:39.302Z</time>
      </trkpt>
      <trkpt lat="63.36074" lon="9.01648">
        <ele>110.458204</ele>
        <time>2020-08-05T08:26:45.331Z</time>
      </trkpt>
      <trkpt lat="63.36066" lon="9.01661">
        <ele>111.05048</ele>
        <time>2020-08-05T08:26:51.331Z</time>
      </trkpt>
      <trkpt lat="63.36058" lon="9.01674">
        <ele>111.636209</ele>
        <time>2020-08-05T08:26:57.346Z</time>
      </trkpt>
      <trkpt lat="63.36051" lon="9.01688">
        <ele>112.240315</ele>
        <time>2020-08-05T08:27:04.336Z</time>
      </trkpt>
      <trkpt lat="63.36043" lon="9.01702">
        <ele>112.821449</ele>
        <time>2020-08-05T08:27:10.335Z</time>
      </trkpt>
      <trkpt lat="63.36036" lon="9.01715">
        <ele>113.390799</ele>
        <time>2020-08-05T08:27:16.312Z</time>
      </trkpt>
      <trkpt lat="63.36029" lon="9.01731">
        <ele>114.021635</ele>
        <time>2020-08-05T08:27:23.327Z</time>
      </trkpt>
      <trkpt lat="63.36022" lon="9.01744">
        <ele>114.572711</ele>
        <time>2020-08-05T08:27:29.355Z</time>
      </trkpt>
      <trkpt lat="63.36015" lon="9.01759">
        <ele>115.181442</ele>
        <time>2020-08-05T08:27:36.313Z</time>
      </trkpt>
      <trkpt lat="63.36007" lon="9.01771">
        <ele>115.752379</ele>
        <time>2020-08-05T08:27:42.316Z</time>
      </trkpt>
      <trkpt lat="63.35999" lon="9.01785">
        <ele>116.373373</ele>
        <time>2020-08-05T08:27:49.313Z</time>
      </trkpt>
      <trkpt lat="63.35991" lon="9.018">
        <ele>117.016129</ele>
        <time>2020-08-05T08:27:56.311Z</time>
      </trkpt>
      <trkpt lat="63.35984" lon="9.01814">
        <ele>117.593014</ele>
        <time>2020-08-05T08:28:02.311Z</time>
      </trkpt>
      <trkpt lat="63.35977" lon="9.01828">
        <ele>118.202835</ele>
        <time>2020-08-05T08:28:08.317Z</time>
      </trkpt>
      <trkpt lat="63.3597" lon="9.01843">
        <ele>118.781175</ele>
        <time>2020-08-05T08:28:14.300Z</time>
      </trkpt>
      <trkpt lat="63.35963" lon="9.01858">
        <ele>119.347212</ele>
        <time>2020-08-05T08:28:20.317Z</time>
      </trkpt>
      <trkpt lat="63.35954" lon="9.01869">
        <ele>119.71063</ele>
        <time>2020-08-05T08:28:27.329Z</time>
      </trkpt>
      <trkpt lat="63.35946" lon="9.01882">
        <ele>120.049202</ele>
        <time>2020-08-05T08:28:33.319Z</time>
      </trkpt>
      <trkpt lat="63.35938" lon="9.01894">
        <ele>120.39239</ele>
        <time>2020-08-05T08:28:39.315Z</time>
      </trkpt>
      <trkpt lat="63.35929" lon="9.01904">
        <ele>120.743497</ele>
        <time>2020-08-05T08:28:45.335Z</time>
      </trkpt>
      <trkpt lat="63.35921" lon="9.01915">
        <ele>121.062052</ele>
        <time>2020-08-05T08:28:50.333Z</time>
      </trkpt>
      <trkpt lat="63.35912" lon="9.01926">
        <ele>121.418505</ele>
        <time>2020-08-05T08:28:56.305Z</time>
      </trkpt>
      <trkpt lat="63.35903" lon="9.01935">
        <ele>121.781772</ele>
        <time>2020-08-05T08:29:03.310Z</time>
      </trkpt>
      <trkpt lat="63.35894" lon="9.01942">
        <ele>122.129354</ele>
        <time>2020-08-05T08:29:09.311Z</time>
      </trkpt>
      <trkpt lat="63.35885" lon="9.01947">
        <ele>122.445314</ele>
        <time>2020-08-05T08:29:14.306Z</time>
      </trkpt>
      <trkpt lat="63.35875" lon="9.01951">
        <ele>122.797739</ele>
        <time>2020-08-05T08:29:20.304Z</time>
      </trkpt>
      <trkpt lat="63.35865" lon="9.01953">
        <ele>123.168774</ele>
        <time>2020-08-05T08:29:26.321Z</time>
      </trkpt>
      <trkpt lat="63.35855" lon="9.01952">
        <ele>123.50018</ele>
        <time>2020-08-05T08:29:31.313Z</time>
      </trkpt>
      <trkpt lat="63.35846" lon="9.01953">
        <ele>123.831587</ele>
        <time>2020-08-05T08:29:36.328Z</time>
      </trkpt>
      <trkpt lat="63.35836" lon="9.01952">
        <ele>124.195051</ele>
        <time>2020-08-05T08:29:41.308Z</time>
      </trkpt>
      <trkpt lat="63.35825" lon="9.01951">
        <ele>124.569152</ele>
        <time>2020-08-05T08:29:46.301Z</time>
      </trkpt>
      <trkpt lat="63.35814" lon="9.01948">
        <ele>124.952112</ele>
        <time>2020-08-05T08:29:51.313Z</time>
      </trkpt>
      <trkpt lat="63.35804" lon="9.01947">
        <ele>125.315728</ele>
        <time>2020-08-05T08:29:56.358Z</time>
      </trkpt>
      <trkpt lat="63.35794" lon="9.01945">
        <ele>125.660432</ele>
        <time>2020-08-05T08:30:00.357Z</time>
      </trkpt>
      <trkpt lat="63.35784" lon="9.01943">
        <ele>126.340261</ele>
        <time>2020-08-05T08:30:05.321Z</time>
      </trkpt>
      <trkpt lat="63.35773" lon="9.01939">
        <ele>127.027785</ele>
        <time>2020-08-05T08:30:10.364Z</time>
      </trkpt>
      <trkpt lat="63.35763" lon="9.01937">
        <ele>127.690226</ele>
        <time>2020-08-05T08:30:15.309Z</time>
      </trkpt>
      <trkpt lat="63.35753" lon="9.01933">
        <ele>128.311873</ele>
        <time>2020-08-05T08:30:21.322Z</time>
      </trkpt>
      <trkpt lat="63.35743" lon="9.0193">
        <ele>128.969365</ele>
        <time>2020-08-05T08:30:27.319Z</time>
      </trkpt>
      <trkpt lat="63.35734" lon="9.01925">
        <ele>129.557331</ele>
        <time>2020-08-05T08:30:32.313Z</time>
      </trkpt>
      <trkpt lat="63.35725" lon="9.01918">
        <ele>130.200177</ele>
        <time>2020-08-05T08:30:38.318Z</time>
      </trkpt>
      <trkpt lat="63.35716" lon="9.01911">
        <ele>130.804244</ele>
        <time>2020-08-05T08:30:44.368Z</time>
      </trkpt>
      <trkpt lat="63.35706" lon="9.01901">
        <ele>131.472308</ele>
        <time>2020-08-05T08:30:50.314Z</time>
      </trkpt>
      <trkpt lat="63.35699" lon="9.0189">
        <ele>132.052109</ele>
        <time>2020-08-05T08:30:56.331Z</time>
      </trkpt>
      <trkpt lat="63.35689" lon="9.01882">
        <ele>132.706052</ele>
        <time>2020-08-05T08:31:03.323Z</time>
      </trkpt>
      <trkpt lat="63.35681" lon="9.01873">
        <ele>133.281007</ele>
        <time>2020-08-05T08:31:09.320Z</time>
      </trkpt>
      <trkpt lat="63.35672" lon="9.01863">
        <ele>133.893072</ele>
        <time>2020-08-05T08:31:16.323Z</time>
      </trkpt>
      <trkpt lat="63.35665" lon="9.01852">
        <ele>134.479018</ele>
        <time>2020-08-05T08:31:23.304Z</time>
      </trkpt>
      <trkpt lat="63.35657" lon="9.01841">
        <ele>135.081155</ele>
        <time>2020-08-05T08:31:31.315Z</time>
      </trkpt>
      <trkpt lat="63.35649" lon="9.01828">
        <ele>135.712298</ele>
        <time>2020-08-05T08:31:40.318Z</time>
      </trkpt>
      <trkpt lat="63.35641" lon="9.01815">
        <ele>136.339795</ele>
        <time>2020-08-05T08:31:48.311Z</time>
      </trkpt>
      <trkpt lat="63.35634" lon="9.01803">
        <ele>136.914692</ele>
        <time>2020-08-05T08:31:55.326Z</time>
      </trkpt>
      <trkpt lat="63.35627" lon="9.01789">
        <ele>137.260131</ele>
        <time>2020-08-05T08:32:02.358Z</time>
      </trkpt>
      <trkpt lat="63.3562" lon="9.01776">
        <ele>137.461979</ele>
        <time>2020-08-05T08:32:10.324Z</time>
      </trkpt>
      <trkpt lat="63.35613" lon="9.0176">
        <ele>137.683943</ele>
        <time>2020-08-05T08:32:18.340Z</time>
      </trkpt>
      <trkpt lat="63.35607" lon="9.01743">
        <ele>137.894811</ele>
        <time>2020-08-05T08:32:25.323Z</time>
      </trkpt>
      <trkpt lat="63.356" lon="9.01728">
        <ele>138.105582</ele>
        <time>2020-08-05T08:32:32.318Z</time>
      </trkpt>
      <trkpt lat="63.35594" lon="9.0171">
        <ele>138.329791</ele>
        <time>2020-08-05T08:32:38.326Z</time>
      </trkpt>
      <trkpt lat="63.35589" lon="9.01693">
        <ele>138.530399</ele>
        <time>2020-08-05T08:32:43.325Z</time>
      </trkpt>
      <trkpt lat="63.35584" lon="9.01675">
        <ele>138.738235</ele>
        <time>2020-08-05T08:32:48.319Z</time>
      </trkpt>
      <trkpt lat="63.35577" lon="9.01656">
        <ele>138.97389</ele>
        <time>2020-08-05T08:32:53.355Z</time>
      </trkpt>
      <trkpt lat="63.35571" lon="9.01638">
        <ele>139.200846</ele>
        <time>2020-08-05T08:32:57.327Z</time>
      </trkpt>
      <trkpt lat="63.35564" lon="9.01621">
        <ele>139.427002</ele>
        <time>2020-08-05T08:33:01.319Z</time>
      </trkpt>
      <trkpt lat="63.35557" lon="9.01602">
        <ele>139.673682</ele>
        <time>2020-08-05T08:33:05.305Z</time>
      </trkpt>
      <trkpt lat="63.35549" lon="9.01584">
        <ele>139.919638</ele>
        <time>2020-08-05T08:33:09.337Z</time>
      </trkpt>
      <trkpt lat="63.35544" lon="9.01568">
        <ele>140.117107</ele>
        <time>2020-08-05T08:33:12.312Z</time>
      </trkpt>
      <trkpt lat="63.35538" lon="9.0155">
        <ele>140.336016</ele>
        <time>2020-08-05T08:33:15.311Z</time>
      </trkpt>
      <trkpt lat="63.35532" lon="9.01532">
        <ele>140.559627</ele>
        <time>2020-08-05T08:33:18.299Z</time>
      </trkpt>
      <trkpt lat="63.35525" lon="9.01513">
        <ele>140.792161</ele>
        <time>2020-08-05T08:33:21.351Z</time>
      </trkpt>
      <trkpt lat="63.35518" lon="9.01493">
        <ele>141.049526</ele>
        <time>2020-08-05T08:33:24.354Z</time>
      </trkpt>
      <trkpt lat="63.35511" lon="9.01471">
        <ele>141.108018</ele>
        <time>2020-08-05T08:33:27.317Z</time>
      </trkpt>
      <trkpt lat="63.35503" lon="9.01448">
        <ele>141.129686</ele>
        <time>2020-08-05T08:33:30.312Z</time>
      </trkpt>
      <trkpt lat="63.35495" lon="9.0143">
        <ele>141.149313</ele>
        <time>2020-08-05T08:33:33.336Z</time>
      </trkpt>
      <trkpt lat="63.35487" lon="9.01408">
        <ele>141.170394</ele>
        <time>2020-08-05T08:33:36.312Z</time>
      </trkpt>
      <trkpt lat="63.3548" lon="9.01386">
        <ele>141.19161</ele>
        <time>2020-08-05T08:33:39.313Z</time>
      </trkpt>
      <trkpt lat="63.35472" lon="9.01365">
        <ele>141.212811</ele>
        <time>2020-08-05T08:33:42.311Z</time>
      </trkpt>
      <trkpt lat="63.35465" lon="9.0135">
        <ele>141.228966</ele>
        <time>2020-08-05T08:33:44.334Z</time>
      </trkpt>
      <trkpt lat="63.35459" lon="9.01334">
        <ele>141.245052</ele>
        <time>2020-08-05T08:33:46.331Z</time>
      </trkpt>
      <trkpt lat="63.35451" lon="9.01311">
        <ele>141.267504</ele>
        <time>2020-08-05T08:33:49.344Z</time>
      </trkpt>
      <trkpt lat="63.35444" lon="9.01291">
        <ele>141.286898</ele>
        <time>2020-08-05T08:33:52.326Z</time>
      </trkpt>
      <trkpt lat="63.35438" lon="9.01273">
        <ele>141.304513</ele>
        <time>2020-08-05T08:33:55.312Z</time>
      </trkpt>
      <trkpt lat="63.35432" lon="9.01257">
        <ele>141.319898</ele>
        <time>2020-08-05T08:33:58.336Z</time>
      </trkpt>
      <trkpt lat="63.35424" lon="9.01239">
        <ele>141.339131</ele>
        <time>2020-08-05T08:34:02.318Z</time>
      </trkpt>
      <trkpt lat="63.35416" lon="9.01223">
        <ele>141.358055</ele>
        <time>2020-08-05T08:34:06.309Z</time>
      </trkpt>
      <trkpt lat="63.35407" lon="9.01207">
        <ele>141.377059</ele>
        <time>2020-08-05T08:34:10.384Z</time>
      </trkpt>
      <trkpt lat="63.35399" lon="9.0119">
        <ele>141.396064</ele>
        <time>2020-08-05T08:34:14.312Z</time>
      </trkpt>
      <trkpt lat="63.35391" lon="9.01174">
        <ele>141.730754</ele>
        <time>2020-08-05T08:34:18.335Z</time>
      </trkpt>
      <trkpt lat="63.35383" lon="9.0116">
        <ele>142.061212</ele>
        <time>2020-08-05T08:34:22.335Z</time>
      </trkpt>
      <trkpt lat="63.35374" lon="9.01148">
        <ele>142.38328</ele>
        <time>2020-08-05T08:34:26.341Z</time>
      </trkpt>
      <trkpt lat="63.35366" lon="9.01136">
        <ele>142.702462</ele>
        <time>2020-08-05T08:34:30.333Z</time>
      </trkpt>
      <trkpt lat="63.35358" lon="9.01123">
        <ele>143.026966</ele>
        <time>2020-08-05T08:34:34.369Z</time>
      </trkpt>
      <trkpt lat="63.3535" lon="9.01112">
        <ele>143.340032</ele>
        <time>2020-08-05T08:34:38.317Z</time>
      </trkpt>
      <trkpt lat="63.35341" lon="9.011">
        <ele>143.650368</ele>
        <time>2020-08-05T08:34:42.320Z</time>
      </trkpt>
      <trkpt lat="63.35333" lon="9.0109">
        <ele>143.965824</ele>
        <time>2020-08-05T08:34:46.323Z</time>
      </trkpt>
      <trkpt lat="63.35324" lon="9.0108">
        <ele>144.27928</ele>
        <time>2020-08-05T08:34:50.316Z</time>
      </trkpt>
      <trkpt lat="63.35315" lon="9.0107">
        <ele>144.608678</ele>
        <time>2020-08-05T08:34:54.303Z</time>
      </trkpt>
      <trkpt lat="63.35306" lon="9.0106">
        <ele>144.923686</ele>
        <time>2020-08-05T08:34:58.321Z</time>
      </trkpt>
      <trkpt lat="63.35298" lon="9.01051">
        <ele>145.216609</ele>
        <time>2020-08-05T08:35:02.330Z</time>
      </trkpt>
      <trkpt lat="63.3529" lon="9.01041">
        <ele>145.520773</ele>
        <time>2020-08-05T08:35:06.306Z</time>
      </trkpt>
      <trkpt lat="63.35281" lon="9.01031">
        <ele>145.863212</ele>
        <time>2020-08-05T08:35:10.326Z</time>
      </trkpt>
      <trkpt lat="63.35271" lon="9.0102">
        <ele>146.198803</ele>
        <time>2020-08-05T08:35:14.334Z</time>
      </trkpt>
      <trkpt lat="63.35262" lon="9.0101">
        <ele>146.544783</ele>
        <time>2020-08-05T08:35:18.353Z</time>
      </trkpt>
      <trkpt lat="63.35253" lon="9.01001">
        <ele>146.852426</ele>
        <time>2020-08-05T08:35:22.303Z</time>
      </trkpt>
      <trkpt lat="63.35245" lon="9.0099">
        <ele>147.165796</ele>
        <time>2020-08-05T08:35:26.328Z</time>
      </trkpt>
      <trkpt lat="63.35235" lon="9.0098">
        <ele>147.603198</ele>
        <time>2020-08-05T08:35:31.350Z</time>
      </trkpt>
      <trkpt lat="63.35226" lon="9.00973">
        <ele>148.014304</ele>
        <time>2020-08-05T08:35:36.341Z</time>
      </trkpt>
      <trkpt lat="63.35218" lon="9.00965">
        <ele>148.41223</ele>
        <time>2020-08-05T08:35:41.316Z</time>
      </trkpt>
      <trkpt lat="63.3521" lon="9.00955">
        <ele>148.805914</ele>
        <time>2020-08-05T08:35:46.317Z</time>
      </trkpt>
      <trkpt lat="63.35201" lon="9.00942">
        <ele>149.256976</ele>
        <time>2020-08-05T08:35:52.316Z</time>
      </trkpt>
      <trkpt lat="63.35192" lon="9.00935">
        <ele>149.659976</ele>
        <time>2020-08-05T08:35:57.326Z</time>
      </trkpt>
      <trkpt lat="63.35184" lon="9.00924">
        <ele>150.074375</ele>
        <time>2020-08-05T08:36:03.364Z</time>
      </trkpt>
      <trkpt lat="63.35175" lon="9.00914">
        <ele>150.487837</ele>
        <time>2020-08-05T08:36:09.308Z</time>
      </trkpt>
      <trkpt lat="63.35167" lon="9.00904">
        <ele>150.905273</ele>
        <time>2020-08-05T08:36:15.320Z</time>
      </trkpt>
      <trkpt lat="63.35159" lon="9.00894">
        <ele>151.306541</ele>
        <time>2020-08-05T08:36:21.319Z</time>
      </trkpt>
      <trkpt lat="63.3515" lon="9.00886">
        <ele>151.707704</ele>
        <time>2020-08-05T08:36:27.331Z</time>
      </trkpt>
      <trkpt lat="63.35141" lon="9.00877">
        <ele>152.155191</ele>
        <time>2020-08-05T08:36:34.332Z</time>
      </trkpt>
      <trkpt lat="63.35132" lon="9.00866">
        <ele>152.571635</ele>
        <time>2020-08-05T08:36:40.357Z</time>
      </trkpt>
      <trkpt lat="63.35124" lon="9.00857">
        <ele>152.957844</ele>
        <time>2020-08-05T08:36:45.330Z</time>
      </trkpt>
      <trkpt lat="63.35116" lon="9.00847">
        <ele>153.378243</ele>
        <time>2020-08-05T08:36:51.326Z</time>
      </trkpt>
      <trkpt lat="63.35107" lon="9.00835">
        <ele>153.820935</ele>
        <time>2020-08-05T08:36:57.294Z</time>
      </trkpt>
      <trkpt lat="63.35097" lon="9.00825">
        <ele>154.280857</ele>
        <time>2020-08-05T08:37:03.355Z</time>
      </trkpt>
      <trkpt lat="63.35088" lon="9.00814">
        <ele>154.716296</ele>
        <time>2020-08-05T08:37:08.311Z</time>
      </trkpt>
      <trkpt lat="63.35079" lon="9.00801">
        <ele>154.919874</ele>
        <time>2020-08-05T08:37:13.338Z</time>
      </trkpt>
      <trkpt lat="63.35071" lon="9.0079">
        <ele>154.839045</ele>
        <time>2020-08-05T08:37:17.320Z</time>
      </trkpt>
      <trkpt lat="63.35063" lon="9.00777">
        <ele>154.747738</ele>
        <time>2020-08-05T08:37:21.305Z</time>
      </trkpt>
      <trkpt lat="63.35054" lon="9.00764">
        <ele>154.652883</ele>
        <time>2020-08-05T08:37:25.352Z</time>
      </trkpt>
      <trkpt lat="63.35044" lon="9.00749">
        <ele>154.550197</ele>
        <time>2020-08-05T08:37:29.320Z</time>
      </trkpt>
      <trkpt lat="63.35035" lon="9.00737">
        <ele>154.455906</ele>
        <time>2020-08-05T08:37:32.332Z</time>
      </trkpt>
      <trkpt lat="63.35026" lon="9.00724">
        <ele>154.359063</ele>
        <time>2020-08-05T08:37:35.329Z</time>
      </trkpt>
      <trkpt lat="63.35017" lon="9.0071">
        <ele>154.263082</ele>
        <time>2020-08-05T08:37:38.307Z</time>
      </trkpt>
      <trkpt lat="63.35008" lon="9.00696">
        <ele>154.166677</ele>
        <time>2020-08-05T08:37:41.353Z</time>
      </trkpt>
      <trkpt lat="63.34999" lon="9.00683">
        <ele>154.069906</ele>
        <time>2020-08-05T08:37:44.352Z</time>
      </trkpt>
      <trkpt lat="63.34991" lon="9.00669">
        <ele>153.977722</ele>
        <time>2020-08-05T08:37:47.319Z</time>
      </trkpt>
      <trkpt lat="63.34982" lon="9.00656">
        <ele>153.883981</ele>
        <time>2020-08-05T08:37:50.316Z</time>
      </trkpt>
      <trkpt lat="63.34972" lon="9.0064">
        <ele>153.774646</ele>
        <time>2020-08-05T08:37:53.320Z</time>
      </trkpt>
      <trkpt lat="63.34964" lon="9.00628">
        <ele>153.691485</ele>
        <time>2020-08-05T08:37:55.339Z</time>
      </trkpt>
      <trkpt lat="63.34956" lon="9.00616">
        <ele>153.604736</ele>
        <time>2020-08-05T08:37:57.330Z</time>
      </trkpt>
      <trkpt lat="63.34948" lon="9.00603">
        <ele>153.515642</ele>
        <time>2020-08-05T08:37:59.349Z</time>
      </trkpt>
      <trkpt lat="63.3494" lon="9.00589">
        <ele>153.425108</ele>
        <time>2020-08-05T08:38:01.324Z</time>
      </trkpt>
      <trkpt lat="63.34932" lon="9.00575">
        <ele>153.262841</ele>
        <time>2020-08-05T08:38:03.328Z</time>
      </trkpt>
      <trkpt lat="63.34923" lon="9.00561">
        <ele>152.990507</ele>
        <time>2020-08-05T08:38:05.342Z</time>
      </trkpt>
      <trkpt lat="63.34914" lon="9.00547">
        <ele>152.712016</ele>
        <time>2020-08-05T08:38:07.315Z</time>
      </trkpt>
      <trkpt lat="63.34904" lon="9.00533">
        <ele>152.428879</ele>
        <time>2020-08-05T08:38:09.326Z</time>
      </trkpt>
      <trkpt lat="63.34895" lon="9.00518">
        <ele>152.146246</ele>
        <time>2020-08-05T08:38:11.301Z</time>
      </trkpt>
      <trkpt lat="63.34886" lon="9.00504">
        <ele>151.854995</ele>
        <time>2020-08-05T08:38:13.311Z</time>
      </trkpt>
      <trkpt lat="63.34875" lon="9.00488">
        <ele>151.536647</ele>
        <time>2020-08-05T08:38:15.362Z</time>
      </trkpt>
      <trkpt lat="63.34864" lon="9.00471">
        <ele>151.188639</ele>
        <time>2020-08-05T08:38:17.310Z</time>
      </trkpt>
      <trkpt lat="63.34852" lon="9.00452">
        <ele>150.830873</ele>
        <time>2020-08-05T08:38:19.313Z</time>
      </trkpt>
      <trkpt lat="63.34839" lon="9.00432">
        <ele>150.436182</ele>
        <time>2020-08-05T08:38:21.343Z</time>
      </trkpt>
      <trkpt lat="63.34826" lon="9.0041">
        <ele>150.019251</ele>
        <time>2020-08-05T08:38:23.320Z</time>
      </trkpt>
      <trkpt lat="63.34812" lon="9.00388">
        <ele>149.592908</ele>
        <time>2020-08-05T08:38:25.358Z</time>
      </trkpt>
      <trkpt lat="63.34799" lon="9.00367">
        <ele>149.179983</ele>
        <time>2020-08-05T08:38:27.322Z</time>
      </trkpt>
      <trkpt lat="63.34787" lon="9.00347">
        <ele>148.911757</ele>
        <time>2020-08-05T08:38:29.303Z</time>
      </trkpt>
      <trkpt lat="63.34777" lon="9.00331">
        <ele>149.337428</ele>
        <time>2020-08-05T08:38:31.348Z</time>
      </trkpt>
      <trkpt lat="63.34769" lon="9.00317">
        <ele>149.676755</ele>
        <time>2020-08-05T08:38:33.329Z</time>
      </trkpt>
      <trkpt lat="63.3476" lon="9.00302">
        <ele>150.078321</ele>
        <time>2020-08-05T08:38:36.315Z</time>
      </trkpt>
      <trkpt lat="63.34752" lon="9.0029">
        <ele>150.417684</ele>
        <time>2020-08-05T08:38:39.324Z</time>
      </trkpt>
      <trkpt lat="63.34744" lon="9.00279">
        <ele>150.730402</ele>
        <time>2020-08-05T08:38:42.343Z</time>
      </trkpt>
      <trkpt lat="63.34735" lon="9.00264">
        <ele>151.121697</ele>
        <time>2020-08-05T08:38:46.375Z</time>
      </trkpt>
      <trkpt lat="63.34728" lon="9.00251">
        <ele>151.448857</ele>
        <time>2020-08-05T08:38:50.351Z</time>
      </trkpt>
      <trkpt lat="63.34719" lon="9.00236">
        <ele>151.826985</ele>
        <time>2020-08-05T08:38:55.342Z</time>
      </trkpt>
      <trkpt lat="63.34712" lon="9.00224">
        <ele>152.143036</ele>
        <time>2020-08-05T08:38:59.317Z</time>
      </trkpt>
      <trkpt lat="63.34703" lon="9.00211">
        <ele>152.522251</ele>
        <time>2020-08-05T08:39:04.307Z</time>
      </trkpt>
      <trkpt lat="63.34695" lon="9.00199">
        <ele>152.844871</ele>
        <time>2020-08-05T08:39:08.333Z</time>
      </trkpt>
      <trkpt lat="63.34688" lon="9.00186">
        <ele>153.160364</ele>
        <time>2020-08-05T08:39:12.330Z</time>
      </trkpt>
      <trkpt lat="63.34679" lon="9.00171">
        <ele>153.563731</ele>
        <time>2020-08-05T08:39:16.330Z</time>
      </trkpt>
      <trkpt lat="63.34671" lon="9.00158">
        <ele>153.916103</ele>
        <time>2020-08-05T08:39:19.307Z</time>
      </trkpt>
      <trkpt lat="63.34662" lon="9.00145">
        <ele>154.280683</ele>
        <time>2020-08-05T08:39:22.323Z</time>
      </trkpt>
      <trkpt lat="63.34651" lon="9.0013">
        <ele>154.708917</ele>
        <time>2020-08-05T08:39:25.296Z</time>
      </trkpt>
      <trkpt lat="63.3464" lon="9.00114">
        <ele>155.122113</ele>
        <time>2020-08-05T08:39:28.351Z</time>
      </trkpt>
      <trkpt lat="63.34632" lon="9.00103">
        <ele>155.21357</ele>
        <time>2020-08-05T08:39:30.322Z</time>
      </trkpt>
      <trkpt lat="63.34625" lon="9.00091">
        <ele>155.30408</ele>
        <time>2020-08-05T08:39:32.361Z</time>
      </trkpt>
      <trkpt lat="63.34617" lon="9.0008">
        <ele>155.393663</ele>
        <time>2020-08-05T08:39:34.329Z</time>
      </trkpt>
      <trkpt lat="63.34609" lon="9.00068">
        <ele>155.488385</ele>
        <time>2020-08-05T08:39:36.342Z</time>
      </trkpt>
      <trkpt lat="63.34602" lon="9.00056">
        <ele>155.577707</ele>
        <time>2020-08-05T08:39:38.316Z</time>
      </trkpt>
      <trkpt lat="63.34594" lon="9.00045">
        <ele>155.667487</ele>
        <time>2020-08-05T08:39:40.311Z</time>
      </trkpt>
      <trkpt lat="63.34587" lon="9.00034">
        <ele>155.759073</ele>
        <time>2020-08-05T08:39:42.350Z</time>
      </trkpt>
      <trkpt lat="63.34579" lon="9.00023">
        <ele>155.84983</ele>
        <time>2020-08-05T08:39:44.350Z</time>
      </trkpt>
      <trkpt lat="63.34572" lon="9.00011">
        <ele>155.940836</ele>
        <time>2020-08-05T08:39:46.337Z</time>
      </trkpt>
      <trkpt lat="63.34564" lon="9">
        <ele>156.030768</ele>
        <time>2020-08-05T08:39:48.342Z</time>
      </trkpt>
      <trkpt lat="63.34556" lon="8.99988">
        <ele>156.125176</ele>
        <time>2020-08-05T08:39:50.333Z</time>
      </trkpt>
      <trkpt lat="63.34548" lon="8.99976">
        <ele>156.22566</ele>
        <time>2020-08-05T08:39:52.332Z</time>
      </trkpt>
      <trkpt lat="63.34538" lon="8.99965">
        <ele>156.329583</ele>
        <time>2020-08-05T08:39:54.323Z</time>
      </trkpt>
      <trkpt lat="63.34529" lon="8.99954">
        <ele>156.434037</ele>
        <time>2020-08-05T08:39:56.311Z</time>
      </trkpt>
      <trkpt lat="63.3452" lon="8.99945">
        <ele>156.532069</ele>
        <time>2020-08-05T08:39:58.345Z</time>
      </trkpt>
      <trkpt lat="63.34511" lon="8.99936">
        <ele>156.626799</ele>
        <time>2020-08-05T08:40:00.298Z</time>
      </trkpt>
      <trkpt lat="63.34502" lon="8.99928">
        <ele>156.726601</ele>
        <time>2020-08-05T08:40:02.310Z</time>
      </trkpt>
      <trkpt lat="63.34492" lon="8.99922">
        <ele>156.825773</ele>
        <time>2020-08-05T08:40:04.317Z</time>
      </trkpt>
      <trkpt lat="63.34483" lon="8.99916">
        <ele>156.916966</ele>
        <time>2020-08-05T08:40:06.338Z</time>
      </trkpt>
      <trkpt lat="63.34473" lon="8.9991">
        <ele>156.996851</ele>
        <time>2020-08-05T08:40:08.353Z</time>
      </trkpt>
      <trkpt lat="63.34464" lon="8.99904">
        <ele>157.073403</ele>
        <time>2020-08-05T08:40:10.393Z</time>
      </trkpt>
      <trkpt lat="63.34454" lon="8.99899">
        <ele>157.149732</ele>
        <time>2020-08-05T08:40:12.308Z</time>
      </trkpt>
      <trkpt lat="63.34445" lon="8.99894">
        <ele>157.224361</ele>
        <time>2020-08-05T08:40:14.339Z</time>
      </trkpt>
      <trkpt lat="63.34432" lon="8.99887">
        <ele>157.328917</ele>
        <time>2020-08-05T08:40:17.327Z</time>
      </trkpt>
      <trkpt lat="63.3442" lon="8.9988">
        <ele>157.428626</ele>
        <time>2020-08-05T08:40:20.313Z</time>
      </trkpt>
      <trkpt lat="63.34408" lon="8.99874">
        <ele>157.524566</ele>
        <time>2020-08-05T08:40:23.314Z</time>
      </trkpt>
      <trkpt lat="63.34398" lon="8.99868">
        <ele>157.608067</ele>
        <time>2020-08-05T08:40:26.317Z</time>
      </trkpt>
      <trkpt lat="63.34389" lon="8.99864">
        <ele>157.683668</ele>
        <time>2020-08-05T08:40:29.347Z</time>
      </trkpt>
      <trkpt lat="63.3438" lon="8.99859">
        <ele>157.757526</ele>
        <time>2020-08-05T08:40:32.320Z</time>
      </trkpt>
      <trkpt lat="63.3437" lon="8.99853">
        <ele>157.83779</ele>
        <time>2020-08-05T08:40:36.334Z</time>
      </trkpt>
      <trkpt lat="63.3436" lon="8.9985">
        <ele>157.916991</ele>
        <time>2020-08-05T08:40:40.314Z</time>
      </trkpt>
      <trkpt lat="63.34351" lon="8.99846">
        <ele>157.992725</ele>
        <time>2020-08-05T08:40:44.329Z</time>
      </trkpt>
      <trkpt lat="63.34341" lon="8.99841">
        <ele>158.070756</ele>
        <time>2020-08-05T08:40:48.342Z</time>
      </trkpt>
      <trkpt lat="63.34331" lon="8.99837">
        <ele>158.146833</ele>
        <time>2020-08-05T08:40:52.327Z</time>
      </trkpt>
      <trkpt lat="63.34322" lon="8.99833">
        <ele>158.225947</ele>
        <time>2020-08-05T08:40:56.336Z</time>
      </trkpt>
      <trkpt lat="63.34312" lon="8.99829">
        <ele>158.304921</ele>
        <time>2020-08-05T08:41:00.340Z</time>
      </trkpt>
      <trkpt lat="63.34302" lon="8.99825">
        <ele>158.294232</ele>
        <time>2020-08-05T08:41:04.322Z</time>
      </trkpt>
      <trkpt lat="63.34291" lon="8.99819">
        <ele>158.280025</ele>
        <time>2020-08-05T08:41:08.310Z</time>
      </trkpt>
      <trkpt lat="63.34281" lon="8.99814">
        <ele>158.266455</ele>
        <time>2020-08-05T08:41:12.366Z</time>
      </trkpt>
      <trkpt lat="63.3427" lon="8.99809">
        <ele>158.251142</ele>
        <time>2020-08-05T08:41:16.332Z</time>
      </trkpt>
      <trkpt lat="63.34258" lon="8.99804">
        <ele>158.235329</ele>
        <time>2020-08-05T08:41:20.355Z</time>
      </trkpt>
      <trkpt lat="63.34247" lon="8.99798">
        <ele>158.219399</ele>
        <time>2020-08-05T08:41:24.360Z</time>
      </trkpt>
      <trkpt lat="63.34238" lon="8.99794">
        <ele>158.207214</ele>
        <time>2020-08-05T08:41:27.314Z</time>
      </trkpt>
      <trkpt lat="63.34228" lon="8.99789">
        <ele>158.194153</ele>
        <time>2020-08-05T08:41:30.321Z</time>
      </trkpt>
      <trkpt lat="63.34217" lon="8.99784">
        <ele>158.179376</ele>
        <time>2020-08-05T08:41:33.355Z</time>
      </trkpt>
      <trkpt lat="63.34205" lon="8.99778">
        <ele>158.162641</ele>
        <time>2020-08-05T08:41:36.329Z</time>
      </trkpt>
      <trkpt lat="63.34192" lon="8.99771">
        <ele>158.145192</ele>
        <time>2020-08-05T08:41:39.326Z</time>
      </trkpt>
      <trkpt lat="63.34183" lon="8.99768">
        <ele>158.132262</ele>
        <time>2020-08-05T08:41:41.358Z</time>
      </trkpt>
      <trkpt lat="63.34173" lon="8.99762">
        <ele>158.118547</ele>
        <time>2020-08-05T08:41:43.335Z</time>
      </trkpt>
      <trkpt lat="63.34162" lon="8.99757">
        <ele>158.104277</ele>
        <time>2020-08-05T08:41:45.370Z</time>
      </trkpt>
      <trkpt lat="63.34151" lon="8.99753">
        <ele>158.088736</ele>
        <time>2020-08-05T08:41:47.335Z</time>
      </trkpt>
      <trkpt lat="63.34139" lon="8.99748">
        <ele>158.072487</ele>
        <time>2020-08-05T08:41:49.295Z</time>
      </trkpt>
      <trkpt lat="63.34127" lon="8.99742">
        <ele>158.23953</ele>
        <time>2020-08-05T08:41:51.346Z</time>
      </trkpt>
      <trkpt lat="63.34114" lon="8.99737">
        <ele>158.47455</ele>
        <time>2020-08-05T08:41:53.356Z</time>
      </trkpt>
      <trkpt lat="63.34103" lon="8.99732">
        <ele>158.692499</ele>
        <time>2020-08-05T08:41:55.321Z</time>
      </trkpt>
      <trkpt lat="63.34091" lon="8.99726">
        <ele>158.905655</ele>
        <time>2020-08-05T08:41:57.315Z</time>
      </trkpt>
      <trkpt lat="63.3408" lon="8.99722">
        <ele>159.113689</ele>
        <time>2020-08-05T08:41:59.317Z</time>
      </trkpt>
      <trkpt lat="63.3407" lon="8.99717">
        <ele>159.303294</ele>
        <time>2020-08-05T08:42:01.331Z</time>
      </trkpt>
      <trkpt lat="63.34061" lon="8.99713">
        <ele>159.487102</ele>
        <time>2020-08-05T08:42:03.305Z</time>
      </trkpt>
      <trkpt lat="63.34052" lon="8.99709">
        <ele>159.656325</ele>
        <time>2020-08-05T08:42:05.325Z</time>
      </trkpt>
      <trkpt lat="63.34039" lon="8.99703">
        <ele>159.894001</ele>
        <time>2020-08-05T08:42:08.332Z</time>
      </trkpt>
      <trkpt lat="63.34027" lon="8.997">
        <ele>160.131744</ele>
        <time>2020-08-05T08:42:11.300Z</time>
      </trkpt>
      <trkpt lat="63.34015" lon="8.99699">
        <ele>160.35137</ele>
        <time>2020-08-05T08:42:14.319Z</time>
      </trkpt>
      <trkpt lat="63.34005" lon="8.99698">
        <ele>160.535714</ele>
        <time>2020-08-05T08:42:17.375Z</time>
      </trkpt>
      <trkpt lat="63.33994" lon="8.99694">
        <ele>160.73628</ele>
        <time>2020-08-05T08:42:21.311Z</time>
      </trkpt>
      <trkpt lat="63.33984" lon="8.99695">
        <ele>160.922521</ele>
        <time>2020-08-05T08:42:25.379Z</time>
      </trkpt>
      <trkpt lat="63.33975" lon="8.99699">
        <ele>161.091244</ele>
        <time>2020-08-05T08:42:29.311Z</time>
      </trkpt>
      <trkpt lat="63.33965" lon="8.997">
        <ele>161.29091</ele>
        <time>2020-08-05T08:42:34.310Z</time>
      </trkpt>
      <trkpt lat="63.33954" lon="8.99703">
        <ele>161.57988</ele>
        <time>2020-08-05T08:42:39.375Z</time>
      </trkpt>
      <trkpt lat="63.33945" lon="8.99707">
        <ele>161.926736</ele>
        <time>2020-08-05T08:42:43.315Z</time>
      </trkpt>
      <trkpt lat="63.33936" lon="8.99714">
        <ele>162.267828</ele>
        <time>2020-08-05T08:42:47.342Z</time>
      </trkpt>
      <trkpt lat="63.33926" lon="8.99723">
        <ele>162.681582</ele>
        <time>2020-08-05T08:42:52.333Z</time>
      </trkpt>
      <trkpt lat="63.33915" lon="8.99732">
        <ele>163.093496</ele>
        <time>2020-08-05T08:42:57.351Z</time>
      </trkpt>
      <trkpt lat="63.33907" lon="8.9974">
        <ele>163.442538</ele>
        <time>2020-08-05T08:43:01.310Z</time>
      </trkpt>
      <trkpt lat="63.33897" lon="8.99747">
        <ele>163.83407</ele>
        <time>2020-08-05T08:43:05.357Z</time>
      </trkpt>
      <trkpt lat="63.33888" lon="8.99755">
        <ele>164.170864</ele>
        <time>2020-08-05T08:43:08.366Z</time>
      </trkpt>
      <trkpt lat="63.33879" lon="8.99763">
        <ele>164.553027</ele>
        <time>2020-08-05T08:43:12.302Z</time>
      </trkpt>
      <trkpt lat="63.3387" lon="8.99771">
        <ele>164.909621</ele>
        <time>2020-08-05T08:43:16.346Z</time>
      </trkpt>
      <trkpt lat="63.3386" lon="8.9978">
        <ele>165.300662</ele>
        <time>2020-08-05T08:43:21.311Z</time>
      </trkpt>
      <trkpt lat="63.33852" lon="8.99792">
        <ele>165.662457</ele>
        <time>2020-08-05T08:43:25.332Z</time>
      </trkpt>
      <trkpt lat="63.33843" lon="8.99805">
        <ele>166.056792</ele>
        <time>2020-08-05T08:43:30.302Z</time>
      </trkpt>
      <trkpt lat="63.33835" lon="8.99819">
        <ele>166.459879</ele>
        <time>2020-08-05T08:43:35.362Z</time>
      </trkpt>
      <trkpt lat="63.33827" lon="8.99833">
        <ele>166.837025</ele>
        <time>2020-08-05T08:43:40.398Z</time>
      </trkpt>
      <trkpt lat="63.33819" lon="8.99849">
        <ele>167.215303</ele>
        <time>2020-08-05T08:43:45.313Z</time>
      </trkpt>
      <trkpt lat="63.33811" lon="8.99863">
        <ele>167.61166</ele>
        <time>2020-08-05T08:43:50.362Z</time>
      </trkpt>
      <trkpt lat="63.33803" lon="8.99878">
        <ele>168.006169</ele>
        <time>2020-08-05T08:43:55.330Z</time>
      </trkpt>
      <trkpt lat="63.33794" lon="8.99893">
        <ele>168.118018</ele>
        <time>2020-08-05T08:44:00.308Z</time>
      </trkpt>
      <trkpt lat="63.33787" lon="8.99908">
        <ele>168.114888</ele>
        <time>2020-08-05T08:44:04.349Z</time>
      </trkpt>
      <trkpt lat="63.33781" lon="8.99921">
        <ele>168.11188</ele>
        <time>2020-08-05T08:44:08.314Z</time>
      </trkpt>
      <trkpt lat="63.33773" lon="8.99938">
        <ele>168.108198</ele>
        <time>2020-08-05T08:44:12.322Z</time>
      </trkpt>
      <trkpt lat="63.33766" lon="8.99953">
        <ele>168.105111</ele>
        <time>2020-08-05T08:44:15.322Z</time>
      </trkpt>
      <trkpt lat="63.33759" lon="8.99965">
        <ele>168.101999</ele>
        <time>2020-08-05T08:44:18.350Z</time>
      </trkpt>
      <trkpt lat="63.3375" lon="8.99984">
        <ele>168.098024</ele>
        <time>2020-08-05T08:44:22.342Z</time>
      </trkpt>
      <trkpt lat="63.33741" lon="8.99999">
        <ele>168.094305</ele>
        <time>2020-08-05T08:44:25.299Z</time>
      </trkpt>
      <trkpt lat="63.33731" lon="9.00016">
        <ele>168.089836</ele>
        <time>2020-08-05T08:44:28.341Z</time>
      </trkpt>
      <trkpt lat="63.33723" lon="9.00031">
        <ele>168.086418</ele>
        <time>2020-08-05T08:44:30.355Z</time>
      </trkpt>
      <trkpt lat="63.33715" lon="9.00046">
        <ele>168.083012</ele>
        <time>2020-08-05T08:44:32.339Z</time>
      </trkpt>
      <trkpt lat="63.33707" lon="9.0006">
        <ele>168.079585</ele>
        <time>2020-08-05T08:44:34.331Z</time>
      </trkpt>
      <trkpt lat="63.33699" lon="9.00076">
        <ele>168.076085</ele>
        <time>2020-08-05T08:44:36.319Z</time>
      </trkpt>
      <trkpt lat="63.33691" lon="9.00092">
        <ele>168.072384</ele>
        <time>2020-08-05T08:44:38.343Z</time>
      </trkpt>
      <trkpt lat="63.33683" lon="9.00107">
        <ele>168.068949</ele>
        <time>2020-08-05T08:44:40.376Z</time>
      </trkpt>
      <trkpt lat="63.33675" lon="9.00123">
        <ele>168.065352</ele>
        <time>2020-08-05T08:44:42.312Z</time>
      </trkpt>
      <trkpt lat="63.33666" lon="9.00138">
        <ele>168.061748</ele>
        <time>2020-08-05T08:44:44.332Z</time>
      </trkpt>
      <trkpt lat="63.33658" lon="9.00153">
        <ele>167.977981</ele>
        <time>2020-08-05T08:44:46.311Z</time>
      </trkpt>
      <trkpt lat="63.3365" lon="9.00169">
        <ele>167.858911</ele>
        <time>2020-08-05T08:44:48.347Z</time>
      </trkpt>
      <trkpt lat="63.33643" lon="9.00184">
        <ele>167.745512</ele>
        <time>2020-08-05T08:44:50.360Z</time>
      </trkpt>
      <trkpt lat="63.33635" lon="9.00199">
        <ele>167.636439</ele>
        <time>2020-08-05T08:44:52.302Z</time>
      </trkpt>
      <trkpt lat="63.33626" lon="9.00217">
        <ele>167.494154</ele>
        <time>2020-08-05T08:44:55.332Z</time>
      </trkpt>
      <trkpt lat="63.33616" lon="9.00235">
        <ele>167.353159</ele>
        <time>2020-08-05T08:44:58.306Z</time>
      </trkpt>
      <trkpt lat="63.33608" lon="9.0025">
        <ele>167.238591</ele>
        <time>2020-08-05T08:45:01.307Z</time>
      </trkpt>
      <trkpt lat="63.336" lon="9.00266">
        <ele>167.113774</ele>
        <time>2020-08-05T08:45:04.326Z</time>
      </trkpt>
      <trkpt lat="63.3359" lon="9.00284">
        <ele>166.973185</ele>
        <time>2020-08-05T08:45:07.363Z</time>
      </trkpt>
      <trkpt lat="63.33581" lon="9.00302">
        <ele>166.835265</ele>
        <time>2020-08-05T08:45:10.327Z</time>
      </trkpt>
      <trkpt lat="63.33571" lon="9.0032">
        <ele>166.691993</ele>
        <time>2020-08-05T08:45:13.315Z</time>
      </trkpt>
      <trkpt lat="63.33561" lon="9.00337">
        <ele>166.554087</ele>
        <time>2020-08-05T08:45:16.330Z</time>
      </trkpt>
      <trkpt lat="63.33552" lon="9.00355">
        <ele>166.418837</ele>
        <time>2020-08-05T08:45:19.357Z</time>
      </trkpt>
      <trkpt lat="63.33543" lon="9.00372">
        <ele>166.28352</ele>
        <time>2020-08-05T08:45:22.350Z</time>
      </trkpt>
      <trkpt lat="63.33533" lon="9.00388">
        <ele>166.154085</ele>
        <time>2020-08-05T08:45:25.366Z</time>
      </trkpt>
      <trkpt lat="63.33523" lon="9.00406">
        <ele>166.052967</ele>
        <time>2020-08-05T08:45:28.317Z</time>
      </trkpt>
      <trkpt lat="63.33513" lon="9.00424">
        <ele>166.058105</ele>
        <time>2020-08-05T08:45:31.331Z</time>
      </trkpt>
      <trkpt lat="63.33504" lon="9.00441">
        <ele>166.063016</ele>
        <time>2020-08-05T08:45:34.371Z</time>
      </trkpt>
      <trkpt lat="63.33494" lon="9.0046">
        <ele>166.068084</ele>
        <time>2020-08-05T08:45:37.340Z</time>
      </trkpt>
      <trkpt lat="63.33485" lon="9.00476">
        <ele>166.072675</ele>
        <time>2020-08-05T08:45:40.299Z</time>
      </trkpt>
      <trkpt lat="63.33476" lon="9.00492">
        <ele>166.077089</ele>
        <time>2020-08-05T08:45:43.319Z</time>
      </trkpt>
      <trkpt lat="63.33468" lon="9.00507">
        <ele>166.081317</ele>
        <time>2020-08-05T08:45:46.360Z</time>
      </trkpt>
      <trkpt lat="63.3346" lon="9.00525">
        <ele>166.08586</ele>
        <time>2020-08-05T08:45:49.358Z</time>
      </trkpt>
      <trkpt lat="63.3345" lon="9.00543">
        <ele>166.090735</ele>
        <time>2020-08-05T08:45:52.356Z</time>
      </trkpt>
      <trkpt lat="63.3344" lon="9.00561">
        <ele>166.095987</ele>
        <time>2020-08-05T08:45:55.334Z</time>
      </trkpt>
      <trkpt lat="63.33429" lon="9.00577">
        <ele>166.101113</ele>
        <time>2020-08-05T08:45:58.311Z</time>
      </trkpt>
      <trkpt lat="63.33419" lon="9.00592">
        <ele>166.106003</ele>
        <time>2020-08-05T08:46:01.340Z</time>
      </trkpt>
      <trkpt lat="63.33408" lon="9.00606">
        <ele>166.110842</ele>
        <time>2020-08-05T08:46:04.309Z</time>
      </trkpt>
      <trkpt lat="63.33398" lon="9.0062">
        <ele>166.115546</ele>
        <time>2020-08-05T08:46:07.304Z</time>
      </trkpt>
      <trkpt lat="63.33388" lon="9.00633">
        <ele>166.120064</ele>
        <time>2020-08-05T08:46:10.357Z</time>
      </trkpt>
      <trkpt lat="63.33378" lon="9.00646">
        <ele>166.165278</ele>
        <time>2020-08-05T08:46:13.350Z</time>
      </trkpt>
      <trkpt lat="63.33368" lon="9.00658">
        <ele>166.259516</ele>
        <time>2020-08-05T08:46:16.333Z</time>
      </trkpt>
      <trkpt lat="63.33358" lon="9.0067">
        <ele>166.356293</ele>
        <time>2020-08-05T08:46:19.358Z</time>
      </trkpt>
      <trkpt lat="63.33348" lon="9.00681">
        <ele>166.446093</ele>
        <time>2020-08-05T08:46:22.325Z</time>
      </trkpt>
      <trkpt lat="63.33338" lon="9.00692">
        <ele>166.537543</ele>
        <time>2020-08-05T08:46:25.311Z</time>
      </trkpt>
      <trkpt lat="63.33328" lon="9.00703">
        <ele>166.633041</ele>
        <time>2020-08-05T08:46:28.335Z</time>
      </trkpt>
      <trkpt lat="63.33316" lon="9.00715">
        <ele>166.738047</ele>
        <time>2020-08-05T08:46:31.312Z</time>
      </trkpt>
      <trkpt lat="63.33308" lon="9.00725">
        <ele>166.81781</ele>
        <time>2020-08-05T08:46:34.332Z</time>
      </trkpt>
      <trkpt lat="63.33299" lon="9.00736">
        <ele>166.898117</ele>
        <time>2020-08-05T08:46:37.300Z</time>
      </trkpt>
      <trkpt lat="63.3329" lon="9.00746">
        <ele>166.984704</ele>
        <time>2020-08-05T08:46:40.315Z</time>
      </trkpt>
      <trkpt lat="63.3328" lon="9.00756">
        <ele>167.073105</ele>
        <time>2020-08-05T08:46:43.351Z</time>
      </trkpt>
      <trkpt lat="63.3327" lon="9.00768">
        <ele>167.165564</ele>
        <time>2020-08-05T08:46:46.334Z</time>
      </trkpt>
      <trkpt lat="63.33261" lon="9.00779">
        <ele>167.25604</ele>
        <time>2020-08-05T08:46:49.347Z</time>
      </trkpt>
      <trkpt lat="63.3325" lon="9.00789">
        <ele>167.351957</ele>
        <time>2020-08-05T08:46:52.331Z</time>
      </trkpt>
      <trkpt lat="63.3324" lon="9.00801">
        <ele>167.447366</ele>
        <time>2020-08-05T08:46:55.338Z</time>
      </trkpt>
      <trkpt lat="63.33231" lon="9.00812">
        <ele>167.52986</ele>
        <time>2020-08-05T08:46:58.310Z</time>
      </trkpt>
      <trkpt lat="63.33223" lon="9.00822">
        <ele>167.610426</ele>
        <time>2020-08-05T08:47:01.302Z</time>
      </trkpt>
      <trkpt lat="63.33211" lon="9.00834">
        <ele>167.525996</ele>
        <time>2020-08-05T08:47:04.327Z</time>
      </trkpt>
      <trkpt lat="63.332" lon="9.00846">
        <ele>167.434678</ele>
        <time>2020-08-05T08:47:07.309Z</time>
      </trkpt>
      <trkpt lat="63.33188" lon="9.00859">
        <ele>167.343834</ele>
        <time>2020-08-05T08:47:10.342Z</time>
      </trkpt>
      <trkpt lat="63.33177" lon="9.0087">
        <ele>167.255724</ele>
        <time>2020-08-05T08:47:13.350Z</time>
      </trkpt>
      <trkpt lat="63.33166" lon="9.00881">
        <ele>167.171367</ele>
        <time>2020-08-05T08:47:16.313Z</time>
      </trkpt>
      <trkpt lat="63.33156" lon="9.00892">
        <ele>167.090492</ele>
        <time>2020-08-05T08:47:19.331Z</time>
      </trkpt>
      <trkpt lat="63.33145" lon="9.00902">
        <ele>167.009899</ele>
        <time>2020-08-05T08:47:22.362Z</time>
      </trkpt>
      <trkpt lat="63.33135" lon="9.00913">
        <ele>166.930984</ele>
        <time>2020-08-05T08:47:25.315Z</time>
      </trkpt>
      <trkpt lat="63.33125" lon="9.00922">
        <ele>166.852695</ele>
        <time>2020-08-05T08:47:28.346Z</time>
      </trkpt>
      <trkpt lat="63.33115" lon="9.0093">
        <ele>166.775786</ele>
        <time>2020-08-05T08:47:31.342Z</time>
      </trkpt>
      <trkpt lat="63.33105" lon="9.00937">
        <ele>166.701992</ele>
        <time>2020-08-05T08:47:34.361Z</time>
      </trkpt>
      <trkpt lat="63.33095" lon="9.00943">
        <ele>166.627772</ele>
        <time>2020-08-05T08:47:37.329Z</time>
      </trkpt>
      <trkpt lat="63.33085" lon="9.00948">
        <ele>166.554526</ele>
        <time>2020-08-05T08:47:40.320Z</time>
      </trkpt>
      <trkpt lat="63.33074" lon="9.00953">
        <ele>166.475531</ele>
        <time>2020-08-05T08:47:43.297Z</time>
      </trkpt>
      <trkpt lat="63.33063" lon="9.00958">
        <ele>166.395147</ele>
        <time>2020-08-05T08:47:46.324Z</time>
      </trkpt>
      <trkpt lat="63.33052" lon="9.00958">
        <ele>166.399186</ele>
        <time>2020-08-05T08:47:49.356Z</time>
      </trkpt>
      <trkpt lat="63.3304" lon="9.0096">
        <ele>166.649412</ele>
        <time>2020-08-05T08:47:52.374Z</time>
      </trkpt>
      <trkpt lat="63.33029" lon="9.00961">
        <ele>166.896909</ele>
        <time>2020-08-05T08:47:55.344Z</time>
      </trkpt>
      <trkpt lat="63.33018" lon="9.00962">
        <ele>167.148971</ele>
        <time>2020-08-05T08:47:58.315Z</time>
      </trkpt>
      <trkpt lat="63.33007" lon="9.0096">
        <ele>167.386287</ele>
        <time>2020-08-05T08:48:01.329Z</time>
      </trkpt>
      <trkpt lat="63.32996" lon="9.00956">
        <ele>167.638484</ele>
        <time>2020-08-05T08:48:04.328Z</time>
      </trkpt>
      <trkpt lat="63.32985" lon="9.00952">
        <ele>167.880369</ele>
        <time>2020-08-05T08:48:07.342Z</time>
      </trkpt>
      <trkpt lat="63.32974" lon="9.00947">
        <ele>168.123489</ele>
        <time>2020-08-05T08:48:10.324Z</time>
      </trkpt>
      <trkpt lat="63.32963" lon="9.0094">
        <ele>168.370437</ele>
        <time>2020-08-05T08:48:13.343Z</time>
      </trkpt>
      <trkpt lat="63.32953" lon="9.00933">
        <ele>168.614984</ele>
        <time>2020-08-05T08:48:16.310Z</time>
      </trkpt>
      <trkpt lat="63.32942" lon="9.00925">
        <ele>168.873984</ele>
        <time>2020-08-05T08:48:19.310Z</time>
      </trkpt>
      <trkpt lat="63.32931" lon="9.00916">
        <ele>169.126071</ele>
        <time>2020-08-05T08:48:22.358Z</time>
      </trkpt>
      <trkpt lat="63.32921" lon="9.00907">
        <ele>169.362306</ele>
        <time>2020-08-05T08:48:25.339Z</time>
      </trkpt>
      <trkpt lat="63.3291" lon="9.00898">
        <ele>169.620183</ele>
        <time>2020-08-05T08:48:28.313Z</time>
      </trkpt>
      <trkpt lat="63.32899" lon="9.00888">
        <ele>169.880623</ele>
        <time>2020-08-05T08:48:31.370Z</time>
      </trkpt>
      <trkpt lat="63.32889" lon="9.00877">
        <ele>170.139819</ele>
        <time>2020-08-05T08:48:34.346Z</time>
      </trkpt>
      <trkpt lat="63.32879" lon="9.00866">
        <ele>170.37018</ele>
        <time>2020-08-05T08:48:37.304Z</time>
      </trkpt>
      <trkpt lat="63.32869" lon="9.00855">
        <ele>170.579342</ele>
        <time>2020-08-05T08:48:40.312Z</time>
      </trkpt>
      <trkpt lat="63.32859" lon="9.00844">
        <ele>170.795242</ele>
        <time>2020-08-05T08:48:43.329Z</time>
      </trkpt>
      <trkpt lat="63.32849" lon="9.00834">
        <ele>171.006963</ele>
        <time>2020-08-05T08:48:46.311Z</time>
      </trkpt>
      <trkpt lat="63.3284" lon="9.00823">
        <ele>171.203991</ele>
        <time>2020-08-05T08:48:49.349Z</time>
      </trkpt>
      <trkpt lat="63.32831" lon="9.00814">
        <ele>171.389274</ele>
        <time>2020-08-05T08:48:52.328Z</time>
      </trkpt>
      <trkpt lat="63.32823" lon="9.00805">
        <ele>171.564847</ele>
        <time>2020-08-05T08:48:55.355Z</time>
      </trkpt>
      <trkpt lat="63.32812" lon="9.00794">
        <ele>171.785022</ele>
        <time>2020-08-05T08:48:59.312Z</time>
      </trkpt>
      <trkpt lat="63.32803" lon="9.00784">
        <ele>171.979189</ele>
        <time>2020-08-05T08:49:03.323Z</time>
      </trkpt>
      <trkpt lat="63.32795" lon="9.00773">
        <ele>172.164443</ele>
        <time>2020-08-05T08:49:07.373Z</time>
      </trkpt>
      <trkpt lat="63.32786" lon="9.00763">
        <ele>172.341791</ele>
        <time>2020-08-05T08:49:11.336Z</time>
      </trkpt>
      <trkpt lat="63.32778" lon="9.00753">
        <ele>172.530388</ele>
        <time>2020-08-05T08:49:15.320Z</time>
      </trkpt>
      <trkpt lat="63.32769" lon="9.00743">
        <ele>172.708799</ele>
        <time>2020-08-05T08:49:19.332Z</time>
      </trkpt>
      <trkpt lat="63.3276" lon="9.00736">
        <ele>172.896122</ele>
        <time>2020-08-05T08:49:23.314Z</time>
      </trkpt>
      <trkpt lat="63.32752" lon="9.00726">
        <ele>173.076622</ele>
        <time>2020-08-05T08:49:27.314Z</time>
      </trkpt>
      <trkpt lat="63.32742" lon="9.00717">
        <ele>173.277567</ele>
        <time>2020-08-05T08:49:32.321Z</time>
      </trkpt>
      <trkpt lat="63.32731" lon="9.0071">
        <ele>173.490368</ele>
        <time>2020-08-05T08:49:37.336Z</time>
      </trkpt>
      <trkpt lat="63.32721" lon="9.00702">
        <ele>173.703017</ele>
        <time>2020-08-05T08:49:42.332Z</time>
      </trkpt>
      <trkpt lat="63.32711" lon="9.00695">
        <ele>174.024464</ele>
        <time>2020-08-05T08:49:46.319Z</time>
      </trkpt>
      <trkpt lat="63.32703" lon="9.0069">
        <ele>174.354226</ele>
        <time>2020-08-05T08:49:50.321Z</time>
      </trkpt>
      <trkpt lat="63.32693" lon="9.00687">
        <ele>174.708421</ele>
        <time>2020-08-05T08:49:54.313Z</time>
      </trkpt>
      <trkpt lat="63.32683" lon="9.00681">
        <ele>175.079312</ele>
        <time>2020-08-05T08:49:58.354Z</time>
      </trkpt>
      <trkpt lat="63.32673" lon="9.00678">
        <ele>175.452543</ele>
        <time>2020-08-05T08:50:02.373Z</time>
      </trkpt>
      <trkpt lat="63.32662" lon="9.00676">
        <ele>175.858035</ele>
        <time>2020-08-05T08:50:06.315Z</time>
      </trkpt>
      <trkpt lat="63.32651" lon="9.00675">
        <ele>176.278087</ele>
        <time>2020-08-05T08:50:10.330Z</time>
      </trkpt>
      <trkpt lat="63.32639" lon="9.00674">
        <ele>176.690521</ele>
        <time>2020-08-05T08:50:14.361Z</time>
      </trkpt>
      <trkpt lat="63.3263" lon="9.00673">
        <ele>177.033597</ele>
        <time>2020-08-05T08:50:17.340Z</time>
      </trkpt>
      <trkpt lat="63.32621" lon="9.00674">
        <ele>177.365821</ele>
        <time>2020-08-05T08:50:20.324Z</time>
      </trkpt>
      <trkpt lat="63.32609" lon="9.00675">
        <ele>177.803904</ele>
        <time>2020-08-05T08:50:24.370Z</time>
      </trkpt>
      <trkpt lat="63.32599" lon="9.00677">
        <ele>178.143905</ele>
        <time>2020-08-05T08:50:27.302Z</time>
      </trkpt>
      <trkpt lat="63.3259" lon="9.00679">
        <ele>178.499779</ele>
        <time>2020-08-05T08:50:30.364Z</time>
      </trkpt>
      <trkpt lat="63.3258" lon="9.00681">
        <ele>178.86924</ele>
        <time>2020-08-05T08:50:33.321Z</time>
      </trkpt>
      <trkpt lat="63.32569" lon="9.00684">
        <ele>179.254843</ele>
        <time>2020-08-05T08:50:36.351Z</time>
      </trkpt>
      <trkpt lat="63.3256" lon="9.00686">
        <ele>179.60728</ele>
        <time>2020-08-05T08:50:39.333Z</time>
      </trkpt>
      <trkpt lat="63.3255" lon="9.00689">
        <ele>179.950669</ele>
        <time>2020-08-05T08:50:42.322Z</time>
      </trkpt>
      <trkpt lat="63.32541" lon="9.00693">
        <ele>180.293804</ele>
        <time>2020-08-05T08:50:45.336Z</time>
      </trkpt>
      <trkpt lat="63.32529" lon="9.00697">
        <ele>181.054137</ele>
        <time>2020-08-05T08:50:49.313Z</time>
      </trkpt>
      <trkpt lat="63.32519" lon="9.00699">
        <ele>181.765707</ele>
        <time>2020-08-05T08:50:53.368Z</time>
      </trkpt>
      <trkpt lat="63.32509" lon="9.00703">
        <ele>182.394358</ele>
        <time>2020-08-05T08:50:57.321Z</time>
      </trkpt>
      <trkpt lat="63.325" lon="9.00706">
        <ele>183.017884</ele>
        <time>2020-08-05T08:51:01.353Z</time>
      </trkpt>
      <trkpt lat="63.32491" lon="9.00711">
        <ele>183.61886</ele>
        <time>2020-08-05T08:51:06.369Z</time>
      </trkpt>
      <trkpt lat="63.32482" lon="9.00717">
        <ele>184.232301</ele>
        <time>2020-08-05T08:51:11.353Z</time>
      </trkpt>
      <trkpt lat="63.32472" lon="9.00724">
        <ele>184.924869</ele>
        <time>2020-08-05T08:51:17.310Z</time>
      </trkpt>
      <trkpt lat="63.32462" lon="9.00731">
        <ele>185.597815</ele>
        <time>2020-08-05T08:51:22.322Z</time>
      </trkpt>
      <trkpt lat="63.32453" lon="9.00739">
        <ele>186.232277</ele>
        <time>2020-08-05T08:51:27.333Z</time>
      </trkpt>
      <trkpt lat="63.32444" lon="9.00746">
        <ele>186.858405</ele>
        <time>2020-08-05T08:51:32.311Z</time>
      </trkpt>
      <trkpt lat="63.32435" lon="9.00754">
        <ele>187.484109</ele>
        <time>2020-08-05T08:51:38.340Z</time>
      </trkpt>
      <trkpt lat="63.32427" lon="9.00766">
        <ele>188.130395</ele>
        <time>2020-08-05T08:51:45.338Z</time>
      </trkpt>
      <trkpt lat="63.32417" lon="9.00777">
        <ele>188.840425</ele>
        <time>2020-08-05T08:51:51.314Z</time>
      </trkpt>
      <trkpt lat="63.32408" lon="9.00785">
        <ele>189.458955</ele>
        <time>2020-08-05T08:51:56.313Z</time>
      </trkpt>
      <trkpt lat="63.324" lon="9.00794">
        <ele>190.076182</ele>
        <time>2020-08-05T08:52:01.338Z</time>
      </trkpt>
      <trkpt lat="63.3239" lon="9.00802">
        <ele>190.760844</ele>
        <time>2020-08-05T08:52:07.340Z</time>
      </trkpt>
      <trkpt lat="63.32381" lon="9.00812">
        <ele>191.40921</ele>
        <time>2020-08-05T08:52:13.339Z</time>
      </trkpt>
      <trkpt lat="63.32372" lon="9.00821">
        <ele>192.061126</ele>
        <time>2020-08-05T08:52:19.361Z</time>
      </trkpt>
      <trkpt lat="63.32364" lon="9.0083">
        <ele>192.620128</ele>
        <time>2020-08-05T08:52:26.366Z</time>
      </trkpt>
      <trkpt lat="63.32355" lon="9.00839">
        <ele>193.2391</ele>
        <time>2020-08-05T08:52:33.320Z</time>
      </trkpt>
      <trkpt lat="63.32346" lon="9.00849">
        <ele>193.808474</ele>
        <time>2020-08-05T08:52:39.340Z</time>
      </trkpt>
      <trkpt lat="63.32337" lon="9.00856">
        <ele>194.385372</ele>
        <time>2020-08-05T08:52:45.333Z</time>
      </trkpt>
      <trkpt lat="63.32329" lon="9.00863">
        <ele>194.946161</ele>
        <time>2020-08-05T08:52:51.316Z</time>
      </trkpt>
      <trkpt lat="63.3232" lon="9.00871">
        <ele>195.49412</ele>
        <time>2020-08-05T08:52:56.376Z</time>
      </trkpt>
      <trkpt lat="63.32312" lon="9.0088">
        <ele>196.08866</ele>
        <time>2020-08-05T08:53:01.319Z</time>
      </trkpt>
      <trkpt lat="63.32303" lon="9.00888">
        <ele>196.63662</ele>
        <time>2020-08-05T08:53:06.322Z</time>
      </trkpt>
      <trkpt lat="63.32294" lon="9.00896">
        <ele>197.249126</ele>
        <time>2020-08-05T08:53:12.341Z</time>
      </trkpt>
      <trkpt lat="63.32286" lon="9.00906">
        <ele>197.798032</ele>
        <time>2020-08-05T08:53:18.340Z</time>
      </trkpt>
      <trkpt lat="63.32277" lon="9.00915">
        <ele>198.37485</ele>
        <time>2020-08-05T08:53:24.317Z</time>
      </trkpt>
      <trkpt lat="63.32269" lon="9.00924">
        <ele>198.96787</ele>
        <time>2020-08-05T08:53:31.373Z</time>
      </trkpt>
      <trkpt lat="63.32259" lon="9.00935">
        <ele>199.603887</ele>
        <time>2020-08-05T08:53:37.323Z</time>
      </trkpt>
      <trkpt lat="63.3225" lon="9.00943">
        <ele>200.214321</ele>
        <time>2020-08-05T08:53:43.317Z</time>
      </trkpt>
      <trkpt lat="63.32242" lon="9.00952">
        <ele>200.775835</ele>
        <time>2020-08-05T08:53:50.351Z</time>
      </trkpt>
      <trkpt lat="63.32233" lon="9.00962">
        <ele>201.393063</ele>
        <time>2020-08-05T08:53:56.324Z</time>
      </trkpt>
      <trkpt lat="63.32223" lon="9.00971">
        <ele>202.027106</ele>
        <time>2020-08-05T08:54:02.324Z</time>
      </trkpt>
      <trkpt lat="63.32214" lon="9.00979">
        <ele>202.588312</ele>
        <time>2020-08-05T08:54:08.331Z</time>
      </trkpt>
      <trkpt lat="63.32206" lon="9.00987">
        <ele>203.070797</ele>
        <time>2020-08-05T08:54:14.341Z</time>
      </trkpt>
      <trkpt lat="63.32198" lon="9.00997">
        <ele>203.320147</ele>
        <time>2020-08-05T08:54:21.315Z</time>
      </trkpt>
      <trkpt lat="63.32189" lon="9.01008">
        <ele>203.592671</ele>
        <time>2020-08-05T08:54:27.336Z</time>
      </trkpt>
      <trkpt lat="63.3218" lon="9.01016">
        <ele>203.878101</ele>
        <time>2020-08-05T08:54:34.322Z</time>
      </trkpt>
      <trkpt lat="63.3217" lon="9.01024">
        <ele>204.159677</ele>
        <time>2020-08-05T08:54:40.330Z</time>
      </trkpt>
      <trkpt lat="63.32162" lon="9.01034">
        <ele>204.41262</ele>
        <time>2020-08-05T08:54:46.318Z</time>
      </trkpt>
      <trkpt lat="63.32152" lon="9.01043">
        <ele>204.700149</ele>
        <time>2020-08-05T08:54:52.315Z</time>
      </trkpt>
      <trkpt lat="63.32143" lon="9.01051">
        <ele>204.9469</ele>
        <time>2020-08-05T08:54:57.311Z</time>
      </trkpt>
      <trkpt lat="63.32134" lon="9.01059">
        <ele>205.219677</ele>
        <time>2020-08-05T08:55:03.320Z</time>
      </trkpt>
      <trkpt lat="63.32125" lon="9.0107">
        <ele>205.510706</ele>
        <time>2020-08-05T08:55:09.366Z</time>
      </trkpt>
      <trkpt lat="63.32116" lon="9.01081">
        <ele>205.790405</ele>
        <time>2020-08-05T08:55:15.322Z</time>
      </trkpt>
      <trkpt lat="63.32107" lon="9.01093">
        <ele>206.074102</ele>
        <time>2020-08-05T08:55:21.315Z</time>
      </trkpt>
      <trkpt lat="63.32099" lon="9.01105">
        <ele>206.320714</ele>
        <time>2020-08-05T08:55:25.322Z</time>
      </trkpt>
      <trkpt lat="63.32091" lon="9.01118">
        <ele>206.595005</ele>
        <time>2020-08-05T08:55:29.328Z</time>
      </trkpt>
      <trkpt lat="63.32083" lon="9.01133">
        <ele>206.891911</ele>
        <time>2020-08-05T08:55:33.353Z</time>
      </trkpt>
      <trkpt lat="63.32074" lon="9.01148">
        <ele>207.19672</ele>
        <time>2020-08-05T08:55:37.326Z</time>
      </trkpt>
      <trkpt lat="63.32065" lon="9.01162">
        <ele>207.487708</ele>
        <time>2020-08-05T08:55:41.302Z</time>
      </trkpt>
      <trkpt lat="63.32057" lon="9.01179">
        <ele>207.777599</ele>
        <time>2020-08-05T08:55:45.334Z</time>
      </trkpt>
      <trkpt lat="63.32051" lon="9.01192">
        <ele>207.854821</ele>
        <time>2020-08-05T08:55:48.378Z</time>
      </trkpt>
      <trkpt lat="63.32043" lon="9.01209">
        <ele>207.731897</ele>
        <time>2020-08-05T08:55:52.314Z</time>
      </trkpt>
      <trkpt lat="63.32035" lon="9.01223">
        <ele>207.619394</ele>
        <time>2020-08-05T08:55:56.305Z</time>
      </trkpt>
      <trkpt lat="63.32027" lon="9.01238">
        <ele>207.502075</ele>
        <time>2020-08-05T08:56:00.347Z</time>
      </trkpt>
      <trkpt lat="63.32018" lon="9.01253">
        <ele>207.37714</ele>
        <time>2020-08-05T08:56:04.306Z</time>
      </trkpt>
      <trkpt lat="63.32009" lon="9.01268">
        <ele>207.256591</ele>
        <time>2020-08-05T08:56:08.331Z</time>
      </trkpt>
      <trkpt lat="63.32001" lon="9.01284">
        <ele>207.136669</ele>
        <time>2020-08-05T08:56:12.310Z</time>
      </trkpt>
      <trkpt lat="63.31993" lon="9.013">
        <ele>207.014923</ele>
        <time>2020-08-05T08:56:16.348Z</time>
      </trkpt>
      <trkpt lat="63.31985" lon="9.01316">
        <ele>206.890961</ele>
        <time>2020-08-05T08:56:20.335Z</time>
      </trkpt>
      <trkpt lat="63.31976" lon="9.01332">
        <ele>206.766875</ele>
        <time>2020-08-05T08:56:24.298Z</time>
      </trkpt>
      <trkpt lat="63.31968" lon="9.01348">
        <ele>206.642375</ele>
        <time>2020-08-05T08:56:28.307Z</time>
      </trkpt>
      <trkpt lat="63.31959" lon="9.01366">
        <ele>206.511606</ele>
        <time>2020-08-05T08:56:32.311Z</time>
      </trkpt>
      <trkpt lat="63.31951" lon="9.01382">
        <ele>206.387321</ele>
        <time>2020-08-05T08:56:36.310Z</time>
      </trkpt>
      <trkpt lat="63.31942" lon="9.01397">
        <ele>206.265368</ele>
        <time>2020-08-05T08:56:40.335Z</time>
      </trkpt>
      <trkpt lat="63.31934" lon="9.0141">
        <ele>206.150592</ele>
        <time>2020-08-05T08:56:44.330Z</time>
      </trkpt>
      <trkpt lat="63.31926" lon="9.01422">
        <ele>206.041672</ele>
        <time>2020-08-05T08:56:48.323Z</time>
      </trkpt>
      <trkpt lat="63.31918" lon="9.01434">
        <ele>205.938543</ele>
        <time>2020-08-05T08:56:52.312Z</time>
      </trkpt>
      <trkpt lat="63.31909" lon="9.01445">
        <ele>206.39917</ele>
        <time>2020-08-05T08:56:57.318Z</time>
      </trkpt>
      <trkpt lat="63.31901" lon="9.01455">
        <ele>207.197991</ele>
        <time>2020-08-05T08:57:02.333Z</time>
      </trkpt>
      <trkpt lat="63.31893" lon="9.01465">
        <ele>207.993636</ele>
        <time>2020-08-05T08:57:07.347Z</time>
      </trkpt>
      <trkpt lat="63.31885" lon="9.01475">
        <ele>208.806739</ele>
        <time>2020-08-05T08:57:13.326Z</time>
      </trkpt>
      <trkpt lat="63.31875" lon="9.01482">
        <ele>209.651854</ele>
        <time>2020-08-05T08:57:20.313Z</time>
      </trkpt>
      <trkpt lat="63.31866" lon="9.0149">
        <ele>210.461037</ele>
        <time>2020-08-05T08:57:27.351Z</time>
      </trkpt>
      <trkpt lat="63.31857" lon="9.01497">
        <ele>211.315789</ele>
        <time>2020-08-05T08:57:34.320Z</time>
      </trkpt>
      <trkpt lat="63.31848" lon="9.01503">
        <ele>212.14489</ele>
        <time>2020-08-05T08:57:41.324Z</time>
      </trkpt>
      <trkpt lat="63.31839" lon="9.01508">
        <ele>212.906526</ele>
        <time>2020-08-05T08:57:48.314Z</time>
      </trkpt>
      <trkpt lat="63.31829" lon="9.0151">
        <ele>213.754757</ele>
        <time>2020-08-05T08:57:55.331Z</time>
      </trkpt>
      <trkpt lat="63.31819" lon="9.01512">
        <ele>214.599254</ele>
        <time>2020-08-05T08:58:02.312Z</time>
      </trkpt>
      <trkpt lat="63.3181" lon="9.01518">
        <ele>215.425041</ele>
        <time>2020-08-05T08:58:09.316Z</time>
      </trkpt>
      <trkpt lat="63.31801" lon="9.01521">
        <ele>216.205287</ele>
        <time>2020-08-05T08:58:15.306Z</time>
      </trkpt>
      <trkpt lat="63.31791" lon="9.01523">
        <ele>217.051342</ele>
        <time>2020-08-05T08:58:22.317Z</time>
      </trkpt>
      <trkpt lat="63.31782" lon="9.01524">
        <ele>217.843817</ele>
        <time>2020-08-05T08:58:28.330Z</time>
      </trkpt>
      <trkpt lat="63.31773" lon="9.01524">
        <ele>218.610417</ele>
        <time>2020-08-05T08:58:34.327Z</time>
      </trkpt>
      <trkpt lat="63.31763" lon="9.01523">
        <ele>219.445367</ele>
        <time>2020-08-05T08:58:41.320Z</time>
      </trkpt>
      <trkpt lat="63.31753" lon="9.01524">
        <ele>220.314472</ele>
        <time>2020-08-05T08:58:48.322Z</time>
      </trkpt>
      <trkpt lat="63.31743" lon="9.01525">
        <ele>221.149764</ele>
        <time>2020-08-05T08:58:55.323Z</time>
      </trkpt>
      <trkpt lat="63.31733" lon="9.01523">
        <ele>221.93143</ele>
        <time>2020-08-05T08:59:02.330Z</time>
      </trkpt>
      <trkpt lat="63.31723" lon="9.01525">
        <ele>222.653435</ele>
        <time>2020-08-05T08:59:09.319Z</time>
      </trkpt>
      <trkpt lat="63.31713" lon="9.01524">
        <ele>223.365957</ele>
        <time>2020-08-05T08:59:16.331Z</time>
      </trkpt>
      <trkpt lat="63.31704" lon="9.01523">
        <ele>224.072053</ele>
        <time>2020-08-05T08:59:22.335Z</time>
      </trkpt>
      <trkpt lat="63.31695" lon="9.01524">
        <ele>224.777442</ele>
        <time>2020-08-05T08:59:29.354Z</time>
      </trkpt>
      <trkpt lat="63.31686" lon="9.01526">
        <ele>225.463697</ele>
        <time>2020-08-05T08:59:36.307Z</time>
      </trkpt>
      <trkpt lat="63.31677" lon="9.01529">
        <ele>226.13855</ele>
        <time>2020-08-05T08:59:43.347Z</time>
      </trkpt>
      <trkpt lat="63.31667" lon="9.01534">
        <ele>226.860834</ele>
        <time>2020-08-05T08:59:51.338Z</time>
      </trkpt>
      <trkpt lat="63.31658" lon="9.01539">
        <ele>227.559646</ele>
        <time>2020-08-05T08:59:59.346Z</time>
      </trkpt>
      <trkpt lat="63.31649" lon="9.01543">
        <ele>228.293137</ele>
        <time>2020-08-05T09:00:07.359Z</time>
      </trkpt>
      <trkpt lat="63.31639" lon="9.01551">
        <ele>229.028811</ele>
        <time>2020-08-05T09:00:14.302Z</time>
      </trkpt>
      <trkpt lat="63.31631" lon="9.01558">
        <ele>229.734245</ele>
        <time>2020-08-05T09:00:21.336Z</time>
      </trkpt>
      <trkpt lat="63.31621" lon="9.01565">
        <ele>230.465345</ele>
        <time>2020-08-05T09:00:28.338Z</time>
      </trkpt>
      <trkpt lat="63.31613" lon="9.01574">
        <ele>231.163467</ele>
        <time>2020-08-05T09:00:35.347Z</time>
      </trkpt>
      <trkpt lat="63.31604" lon="9.01585">
        <ele>231.910228</ele>
        <time>2020-08-05T09:00:42.324Z</time>
      </trkpt>
      <trkpt lat="63.31595" lon="9.01593">
        <ele>232.665891</ele>
        <time>2020-08-05T09:00:49.333Z</time>
      </trkpt>
      <trkpt lat="63.31586" lon="9.01604">
        <ele>233.435841</ele>
        <time>2020-08-05T09:00:56.311Z</time>
      </trkpt>
      <trkpt lat="63.31578" lon="9.01615">
        <ele>234.126236</ele>
        <time>2020-08-05T09:01:03.327Z</time>
      </trkpt>
      <trkpt lat="63.31571" lon="9.01628">
        <ele>234.744144</ele>
        <time>2020-08-05T09:01:09.343Z</time>
      </trkpt>
      <trkpt lat="63.31564" lon="9.01641">
        <ele>235.034149</ele>
        <time>2020-08-05T09:01:16.360Z</time>
      </trkpt>
      <trkpt lat="63.31556" lon="9.01654">
        <ele>235.364633</ele>
        <time>2020-08-05T09:01:24.334Z</time>
      </trkpt>
      <trkpt lat="63.31548" lon="9.01667">
        <ele>235.674554</ele>
        <time>2020-08-05T09:01:31.314Z</time>
      </trkpt>
      <trkpt lat="63.3154" lon="9.01679">
        <ele>235.974544</ele>
        <time>2020-08-05T09:01:37.321Z</time>
      </trkpt>
      <trkpt lat="63.31533" lon="9.01693">
        <ele>236.2986</ele>
        <time>2020-08-05T09:01:43.309Z</time>
      </trkpt>
      <trkpt lat="63.31524" lon="9.01704">
        <ele>236.613033</ele>
        <time>2020-08-05T09:01:49.331Z</time>
      </trkpt>
      <trkpt lat="63.31517" lon="9.01717">
        <ele>236.911097</ele>
        <time>2020-08-05T09:01:55.319Z</time>
      </trkpt>
      <trkpt lat="63.31509" lon="9.01731">
        <ele>237.22017</ele>
        <time>2020-08-05T09:02:01.329Z</time>
      </trkpt>
      <trkpt lat="63.31502" lon="9.01745">
        <ele>237.539691</ele>
        <time>2020-08-05T09:02:07.336Z</time>
      </trkpt>
      <trkpt lat="63.31494" lon="9.01758">
        <ele>237.854888</ele>
        <time>2020-08-05T09:02:13.308Z</time>
      </trkpt>
      <trkpt lat="63.31486" lon="9.0177">
        <ele>238.157973</ele>
        <time>2020-08-05T09:02:18.311Z</time>
      </trkpt>
      <trkpt lat="63.31478" lon="9.01783">
        <ele>238.474726</ele>
        <time>2020-08-05T09:02:23.338Z</time>
      </trkpt>
      <trkpt lat="63.3147" lon="9.01795">
        <ele>238.770943</ele>
        <time>2020-08-05T09:02:28.307Z</time>
      </trkpt>
      <trkpt lat="63.31462" lon="9.0181">
        <ele>239.108353</ele>
        <time>2020-08-05T09:02:34.326Z</time>
      </trkpt>
      <trkpt lat="63.31455" lon="9.01823">
        <ele>239.411455</ele>
        <time>2020-08-05T09:02:40.353Z</time>
      </trkpt>
      <trkpt lat="63.31446" lon="9.01836">
        <ele>239.740197</ele>
        <time>2020-08-05T09:02:46.313Z</time>
      </trkpt>
      <trkpt lat="63.31439" lon="9.01851">
        <ele>240.042656</ele>
        <time>2020-08-05T09:02:51.312Z</time>
      </trkpt>
      <trkpt lat="63.31431" lon="9.01864">
        <ele>240.380991</ele>
        <time>2020-08-05T09:02:57.311Z</time>
      </trkpt>
      <trkpt lat="63.31423" lon="9.01876">
        <ele>241.048409</ele>
        <time>2020-08-05T09:03:02.317Z</time>
      </trkpt>
      <trkpt lat="63.31414" lon="9.01889">
        <ele>241.938754</ele>
        <time>2020-08-05T09:03:08.350Z</time>
      </trkpt>
      <trkpt lat="63.31406" lon="9.01901">
        <ele>242.822951</ele>
        <time>2020-08-05T09:03:14.357Z</time>
      </trkpt>
      <trkpt lat="63.31397" lon="9.01913">
        <ele>243.702007</ele>
        <time>2020-08-05T09:03:20.300Z</time>
      </trkpt>
      <trkpt lat="63.31389" lon="9.01922">
        <ele>244.468544</ele>
        <time>2020-08-05T09:03:25.337Z</time>
      </trkpt>
      <trkpt lat="63.3138" lon="9.01934">
        <ele>245.341474</ele>
        <time>2020-08-05T09:03:31.318Z</time>
      </trkpt>
      <trkpt lat="63.3137" lon="9.01941">
        <ele>246.215011</ele>
        <time>2020-08-05T09:03:36.314Z</time>
      </trkpt>
      <trkpt lat="63.31361" lon="9.01946">
        <ele>247.04309</ele>
        <time>2020-08-05T09:03:41.307Z</time>
      </trkpt>
      <trkpt lat="63.31352" lon="9.01952">
        <ele>247.817038</ele>
        <time>2020-08-05T09:03:46.319Z</time>
      </trkpt>
      <trkpt lat="63.31343" lon="9.01957">
        <ele>248.58462</ele>
        <time>2020-08-05T09:03:51.339Z</time>
      </trkpt>
      <trkpt lat="63.31333" lon="9.01962">
        <ele>249.462701</ele>
        <time>2020-08-05T09:03:57.328Z</time>
      </trkpt>
      <trkpt lat="63.31324" lon="9.01968">
        <ele>250.27435</ele>
        <time>2020-08-05T09:04:03.297Z</time>
      </trkpt>
      <trkpt lat="63.31314" lon="9.01969">
        <ele>251.10981</ele>
        <time>2020-08-05T09:04:09.329Z</time>
      </trkpt>
      <trkpt lat="63.31305" lon="9.01973">
        <ele>251.906795</ele>
        <time>2020-08-05T09:04:15.371Z</time>
      </trkpt>
      <trkpt lat="63.31295" lon="9.01975">
        <ele>252.803944</ele>
        <time>2020-08-05T09:04:21.347Z</time>
      </trkpt>
      <trkpt lat="63.31285" lon="9.01978">
        <ele>253.654202</ele>
        <time>2020-08-05T09:04:27.371Z</time>
      </trkpt>
      <trkpt lat="63.31274" lon="9.01981">
        <ele>254.578237</ele>
        <time>2020-08-05T09:04:33.335Z</time>
      </trkpt>
      <trkpt lat="63.31264" lon="9.01981">
        <ele>255.395198</ele>
        <time>2020-08-05T09:04:38.313Z</time>
      </trkpt>
      <trkpt lat="63.31254" lon="9.01982">
        <ele>255.916486</ele>
        <time>2020-08-05T09:04:44.318Z</time>
      </trkpt>
      <trkpt lat="63.31244" lon="9.01984">
        <ele>256.196069</ele>
        <time>2020-08-05T09:04:50.384Z</time>
      </trkpt>
      <trkpt lat="63.31235" lon="9.01985">
        <ele>256.448254</ele>
        <time>2020-08-05T09:04:55.316Z</time>
      </trkpt>
      <trkpt lat="63.31225" lon="9.01987">
        <ele>256.733983</ele>
        <time>2020-08-05T09:05:01.318Z</time>
      </trkpt>
      <trkpt lat="63.31215" lon="9.01989">
        <ele>257.004428</ele>
        <time>2020-08-05T09:05:06.336Z</time>
      </trkpt>
      <trkpt lat="63.31204" lon="9.01993">
        <ele>257.28909</ele>
        <time>2020-08-05T09:05:12.341Z</time>
      </trkpt>
      <trkpt lat="63.31195" lon="9.01994">
        <ele>257.56041</ele>
        <time>2020-08-05T09:05:18.342Z</time>
      </trkpt>
      <trkpt lat="63.31185" lon="9.01997">
        <ele>257.8151</ele>
        <time>2020-08-05T09:05:24.353Z</time>
      </trkpt>
      <trkpt lat="63.31175" lon="9.02">
        <ele>258.11061</ele>
        <time>2020-08-05T09:05:30.370Z</time>
      </trkpt>
      <trkpt lat="63.31164" lon="9.02004">
        <ele>258.402403</ele>
        <time>2020-08-05T09:05:35.357Z</time>
      </trkpt>
      <trkpt lat="63.31155" lon="9.02009">
        <ele>258.662904</ele>
        <time>2020-08-05T09:05:40.316Z</time>
      </trkpt>
      <trkpt lat="63.31146" lon="9.02014">
        <ele>258.91917</ele>
        <time>2020-08-05T09:05:45.324Z</time>
      </trkpt>
      <trkpt lat="63.31137" lon="9.02019">
        <ele>259.171344</ele>
        <time>2020-08-05T09:05:50.331Z</time>
      </trkpt>
      <trkpt lat="63.31128" lon="9.02025">
        <ele>259.428498</ele>
        <time>2020-08-05T09:05:55.359Z</time>
      </trkpt>
      <trkpt lat="63.31119" lon="9.02031">
        <ele>259.674104</ele>
        <time>2020-08-05T09:06:00.315Z</time>
      </trkpt>
      <trkpt lat="63.3111" lon="9.02039">
        <ele>259.935908</ele>
        <time>2020-08-05T09:06:05.336Z</time>
      </trkpt>
      <trkpt lat="63.31102" lon="9.02048">
        <ele>260.203469</ele>
        <time>2020-08-05T09:06:10.345Z</time>
      </trkpt>
      <trkpt lat="63.31092" lon="9.02059">
        <ele>260.499562</ele>
        <time>2020-08-05T09:06:16.318Z</time>
      </trkpt>
      <trkpt lat="63.31083" lon="9.02068">
        <ele>260.541741</ele>
        <time>2020-08-05T09:06:21.348Z</time>
      </trkpt>
      <trkpt lat="63.31075" lon="9.02078">
        <ele>260.072404</ele>
        <time>2020-08-05T09:06:26.323Z</time>
      </trkpt>
      <trkpt lat="63.31067" lon="9.0209">
        <ele>259.587687</ele>
        <time>2020-08-05T09:06:31.354Z</time>
      </trkpt>
      <trkpt lat="63.31058" lon="9.02102">
        <ele>259.066741</ele>
        <time>2020-08-05T09:06:36.334Z</time>
      </trkpt>
      <trkpt lat="63.31049" lon="9.02115">
        <ele>258.551717</ele>
        <time>2020-08-05T09:06:40.356Z</time>
      </trkpt>
      <trkpt lat="63.3104" lon="9.02129">
        <ele>257.994697</ele>
        <time>2020-08-05T09:06:44.307Z</time>
      </trkpt>
      <trkpt lat="63.31031" lon="9.02141">
        <ele>257.481487</ele>
        <time>2020-08-05T09:06:47.354Z</time>
      </trkpt>
      <trkpt lat="63.31021" lon="9.02156">
        <ele>256.898964</ele>
        <time>2020-08-05T09:06:50.312Z</time>
      </trkpt>
      <trkpt lat="63.31011" lon="9.02171">
        <ele>256.287208</ele>
        <time>2020-08-05T09:06:53.333Z</time>
      </trkpt>
      <trkpt lat="63.31003" lon="9.02182">
        <ele>255.844229</ele>
        <time>2020-08-05T09:06:55.322Z</time>
      </trkpt>
      <trkpt lat="63.30996" lon="9.02194">
        <ele>255.36952</ele>
        <time>2020-08-05T09:06:57.379Z</time>
      </trkpt>
      <trkpt lat="63.30987" lon="9.02207">
        <ele>254.847913</ele>
        <time>2020-08-05T09:06:59.332Z</time>
      </trkpt>
      <trkpt lat="63.30977" lon="9.02222">
        <ele>254.27262</ele>
        <time>2020-08-05T09:07:01.337Z</time>
      </trkpt>
      <trkpt lat="63.30966" lon="9.02238">
        <ele>253.623815</ele>
        <time>2020-08-05T09:07:03.313Z</time>
      </trkpt>
      <trkpt lat="63.30954" lon="9.02257">
        <ele>252.90144</ele>
        <time>2020-08-05T09:07:05.310Z</time>
      </trkpt>
      <trkpt lat="63.30941" lon="9.02277">
        <ele>252.09698</ele>
        <time>2020-08-05T09:07:07.318Z</time>
      </trkpt>
      <trkpt lat="63.30926" lon="9.02298">
        <ele>250.950203</ele>
        <time>2020-08-05T09:07:09.320Z</time>
      </trkpt>
      <trkpt lat="63.30918" lon="9.02309">
        <ele>250.245576</ele>
        <time>2020-08-05T09:07:10.382Z</time>
      </trkpt>
      <trkpt lat="63.3091" lon="9.0232">
        <ele>249.540207</ele>
        <time>2020-08-05T09:07:11.333Z</time>
      </trkpt>
      <trkpt lat="63.30901" lon="9.02332">
        <ele>248.825835</ele>
        <time>2020-08-05T09:07:12.312Z</time>
      </trkpt>
      <trkpt lat="63.30893" lon="9.02344">
        <ele>248.08944</ele>
        <time>2020-08-05T09:07:13.336Z</time>
      </trkpt>
      <trkpt lat="63.30884" lon="9.02357">
        <ele>247.321223</ele>
        <time>2020-08-05T09:07:14.333Z</time>
      </trkpt>
      <trkpt lat="63.30875" lon="9.0237">
        <ele>246.521153</ele>
        <time>2020-08-05T09:07:15.363Z</time>
      </trkpt>
      <trkpt lat="63.30865" lon="9.02383">
        <ele>245.699544</ele>
        <time>2020-08-05T09:07:16.311Z</time>
      </trkpt>
      <trkpt lat="63.30855" lon="9.02396">
        <ele>244.854244</ele>
        <time>2020-08-05T09:07:17.308Z</time>
      </trkpt>
      <trkpt lat="63.30845" lon="9.02408">
        <ele>243.989578</ele>
        <time>2020-08-05T09:07:18.357Z</time>
      </trkpt>
      <trkpt lat="63.30835" lon="9.02419">
        <ele>243.135499</ele>
        <time>2020-08-05T09:07:19.370Z</time>
      </trkpt>
      <trkpt lat="63.30824" lon="9.0243">
        <ele>242.305091</ele>
        <time>2020-08-05T09:07:20.380Z</time>
      </trkpt>
      <trkpt lat="63.30815" lon="9.0244">
        <ele>241.516286</ele>
        <time>2020-08-05T09:07:21.325Z</time>
      </trkpt>
      <trkpt lat="63.30805" lon="9.02449">
        <ele>240.758318</ele>
        <time>2020-08-05T09:07:22.325Z</time>
      </trkpt>
      <trkpt lat="63.30796" lon="9.02459">
        <ele>240.005649</ele>
        <time>2020-08-05T09:07:23.375Z</time>
      </trkpt>
      <trkpt lat="63.30786" lon="9.02469">
        <ele>239.209942</ele>
        <time>2020-08-05T09:07:24.381Z</time>
      </trkpt>
      <trkpt lat="63.30776" lon="9.02481">
        <ele>238.334631</ele>
        <time>2020-08-05T09:07:25.332Z</time>
      </trkpt>
      <trkpt lat="63.30765" lon="9.02492">
        <ele>237.223379</ele>
        <time>2020-08-05T09:07:26.332Z</time>
      </trkpt>
      <trkpt lat="63.30754" lon="9.02504">
        <ele>236.083521</ele>
        <time>2020-08-05T09:07:27.335Z</time>
      </trkpt>
      <trkpt lat="63.30743" lon="9.02516">
        <ele>234.89654</ele>
        <time>2020-08-05T09:07:28.322Z</time>
      </trkpt>
      <trkpt lat="63.30731" lon="9.02529">
        <ele>233.670763</ele>
        <time>2020-08-05T09:07:29.380Z</time>
      </trkpt>
      <trkpt lat="63.30718" lon="9.02542">
        <ele>232.402653</ele>
        <time>2020-08-05T09:07:30.335Z</time>
      </trkpt>
      <trkpt lat="63.30705" lon="9.02555">
        <ele>231.083838</ele>
        <time>2020-08-05T09:07:31.316Z</time>
      </trkpt>
      <trkpt lat="63.30693" lon="9.0257">
        <ele>229.765193</ele>
        <time>2020-08-05T09:07:32.339Z</time>
      </trkpt>
      <trkpt lat="63.3068" lon="9.02585">
        <ele>228.431128</ele>
        <time>2020-08-05T09:07:33.359Z</time>
      </trkpt>
      <trkpt lat="63.30667" lon="9.02599">
        <ele>227.088471</ele>
        <time>2020-08-05T09:07:34.335Z</time>
      </trkpt>
      <trkpt lat="63.30654" lon="9.02612">
        <ele>225.766495</ele>
        <time>2020-08-05T09:07:35.316Z</time>
      </trkpt>
      <trkpt lat="63.30642" lon="9.02624">
        <ele>224.529087</ele>
        <time>2020-08-05T09:07:36.330Z</time>
      </trkpt>
      <trkpt lat="63.3063" lon="9.02636">
        <ele>223.338965</ele>
        <time>2020-08-05T09:07:37.327Z</time>
      </trkpt>
      <trkpt lat="63.30619" lon="9.02646">
        <ele>222.22832</ele>
        <time>2020-08-05T09:07:38.308Z</time>
      </trkpt>
      <trkpt lat="63.30608" lon="9.02657">
        <ele>221.171179</ele>
        <time>2020-08-05T09:07:39.325Z</time>
      </trkpt>
      <trkpt lat="63.30598" lon="9.02666">
        <ele>220.138869</ele>
        <time>2020-08-05T09:07:40.341Z</time>
      </trkpt>
      <trkpt lat="63.30588" lon="9.02676">
        <ele>219.115137</ele>
        <time>2020-08-05T09:07:41.298Z</time>
      </trkpt>
      <trkpt lat="63.30578" lon="9.02687">
        <ele>218.070649</ele>
        <time>2020-08-05T09:07:42.332Z</time>
      </trkpt>
      <trkpt lat="63.30568" lon="9.02697">
        <ele>217.029759</ele>
        <time>2020-08-05T09:07:43.311Z</time>
      </trkpt>
      <trkpt lat="63.30558" lon="9.02707">
        <ele>215.977186</ele>
        <time>2020-08-05T09:07:44.333Z</time>
      </trkpt>
      <trkpt lat="63.30547" lon="9.02718">
        <ele>214.927855</ele>
        <time>2020-08-05T09:07:45.342Z</time>
      </trkpt>
      <trkpt lat="63.30537" lon="9.02729">
        <ele>213.864737</ele>
        <time>2020-08-05T09:07:46.327Z</time>
      </trkpt>
      <trkpt lat="63.30527" lon="9.0274">
        <ele>212.832269</ele>
        <time>2020-08-05T09:07:47.362Z</time>
      </trkpt>
      <trkpt lat="63.30517" lon="9.0275">
        <ele>211.818424</ele>
        <time>2020-08-05T09:07:48.323Z</time>
      </trkpt>
      <trkpt lat="63.30508" lon="9.0276">
        <ele>210.82682</ele>
        <time>2020-08-05T09:07:49.319Z</time>
      </trkpt>
      <trkpt lat="63.30498" lon="9.02771">
        <ele>209.850166</ele>
        <time>2020-08-05T09:07:50.308Z</time>
      </trkpt>
      <trkpt lat="63.30489" lon="9.02781">
        <ele>208.88641</ele>
        <time>2020-08-05T09:07:51.317Z</time>
      </trkpt>
      <trkpt lat="63.3048" lon="9.02792">
        <ele>207.914897</ele>
        <time>2020-08-05T09:07:52.333Z</time>
      </trkpt>
      <trkpt lat="63.30471" lon="9.02803">
        <ele>206.939419</ele>
        <time>2020-08-05T09:07:53.347Z</time>
      </trkpt>
      <trkpt lat="63.30462" lon="9.02814">
        <ele>205.980291</ele>
        <time>2020-08-05T09:07:54.315Z</time>
      </trkpt>
      <trkpt lat="63.30453" lon="9.02825">
        <ele>205.091798</ele>
        <time>2020-08-05T09:07:55.332Z</time>
      </trkpt>
      <trkpt lat="63.30444" lon="9.02837">
        <ele>204.624728</ele>
        <time>2020-08-05T09:07:56.321Z</time>
      </trkpt>
      <trkpt lat="63.30435" lon="9.02847">
        <ele>204.163661</ele>
        <time>2020-08-05T09:07:57.372Z</time>
      </trkpt>
      <trkpt lat="63.30426" lon="9.02859">
        <ele>203.710383</ele>
        <time>2020-08-05T09:07:58.306Z</time>
      </trkpt>
      <trkpt lat="63.30418" lon="9.02869">
        <ele>203.283083</ele>
        <time>2020-08-05T09:07:59.321Z</time>
      </trkpt>
      <trkpt lat="63.30411" lon="9.02881">
        <ele>202.855877</ele>
        <time>2020-08-05T09:08:00.363Z</time>
      </trkpt>
      <trkpt lat="63.30403" lon="9.02892">
        <ele>202.414911</ele>
        <time>2020-08-05T09:08:01.299Z</time>
      </trkpt>
      <trkpt lat="63.30394" lon="9.02905">
        <ele>201.956106</ele>
        <time>2020-08-05T09:08:02.336Z</time>
      </trkpt>
      <trkpt lat="63.30385" lon="9.02918">
        <ele>201.477059</ele>
        <time>2020-08-05T09:08:03.331Z</time>
      </trkpt>
      <trkpt lat="63.30377" lon="9.02932">
        <ele>200.991723</ele>
        <time>2020-08-05T09:08:04.354Z</time>
      </trkpt>
      <trkpt lat="63.30369" lon="9.02946">
        <ele>200.507562</ele>
        <time>2020-08-05T09:08:05.315Z</time>
      </trkpt>
      <trkpt lat="63.30359" lon="9.0296">
        <ele>199.992024</ele>
        <time>2020-08-05T09:08:06.328Z</time>
      </trkpt>
      <trkpt lat="63.30349" lon="9.02974">
        <ele>199.461617</ele>
        <time>2020-08-05T09:08:07.325Z</time>
      </trkpt>
      <trkpt lat="63.30341" lon="9.02988">
        <ele>198.964019</ele>
        <time>2020-08-05T09:08:08.315Z</time>
      </trkpt>
      <trkpt lat="63.30332" lon="9.03003">
        <ele>198.479855</ele>
        <time>2020-08-05T09:08:09.345Z</time>
      </trkpt>
      <trkpt lat="63.30324" lon="9.03017">
        <ele>197.974888</ele>
        <time>2020-08-05T09:08:10.351Z</time>
      </trkpt>
      <trkpt lat="63.30314" lon="9.03032">
        <ele>197.457679</ele>
        <time>2020-08-05T09:08:11.347Z</time>
      </trkpt>
      <trkpt lat="63.30305" lon="9.03048">
        <ele>196.917135</ele>
        <time>2020-08-05T09:08:12.331Z</time>
      </trkpt>
      <trkpt lat="63.30295" lon="9.03064">
        <ele>196.122035</ele>
        <time>2020-08-05T09:08:13.335Z</time>
      </trkpt>
      <trkpt lat="63.30285" lon="9.0308">
        <ele>195.296711</ele>
        <time>2020-08-05T09:08:14.323Z</time>
      </trkpt>
      <trkpt lat="63.30275" lon="9.03095">
        <ele>194.4873</ele>
        <time>2020-08-05T09:08:15.330Z</time>
      </trkpt>
      <trkpt lat="63.30266" lon="9.03111">
        <ele>193.716811</ele>
        <time>2020-08-05T09:08:16.334Z</time>
      </trkpt>
      <trkpt lat="63.30256" lon="9.03125">
        <ele>192.965851</ele>
        <time>2020-08-05T09:08:17.352Z</time>
      </trkpt>
      <trkpt lat="63.30248" lon="9.03139">
        <ele>192.26436</ele>
        <time>2020-08-05T09:08:18.328Z</time>
      </trkpt>
      <trkpt lat="63.30239" lon="9.03153">
        <ele>191.569949</ele>
        <time>2020-08-05T09:08:19.341Z</time>
      </trkpt>
      <trkpt lat="63.30231" lon="9.03168">
        <ele>190.876377</ele>
        <time>2020-08-05T09:08:20.315Z</time>
      </trkpt>
      <trkpt lat="63.30223" lon="9.03184">
        <ele>190.159609</ele>
        <time>2020-08-05T09:08:21.332Z</time>
      </trkpt>
      <trkpt lat="63.30215" lon="9.032">
        <ele>189.437905</ele>
        <time>2020-08-05T09:08:22.389Z</time>
      </trkpt>
      <trkpt lat="63.30207" lon="9.03217">
        <ele>188.710572</ele>
        <time>2020-08-05T09:08:23.322Z</time>
      </trkpt>
      <trkpt lat="63.30199" lon="9.03233">
        <ele>188.013272</ele>
        <time>2020-08-05T09:08:24.325Z</time>
      </trkpt>
      <trkpt lat="63.30192" lon="9.0325">
        <ele>187.330785</ele>
        <time>2020-08-05T09:08:25.326Z</time>
      </trkpt>
      <trkpt lat="63.30185" lon="9.03266">
        <ele>186.679823</ele>
        <time>2020-08-05T09:08:26.347Z</time>
      </trkpt>
      <trkpt lat="63.30179" lon="9.03281">
        <ele>186.062197</ele>
        <time>2020-08-05T09:08:27.331Z</time>
      </trkpt>
      <trkpt lat="63.30168" lon="9.03308">
        <ele>185.018922</ele>
        <time>2020-08-05T09:08:29.316Z</time>
      </trkpt>
      <trkpt lat="63.30162" lon="9.03323">
        <ele>184.605954</ele>
        <time>2020-08-05T09:08:31.316Z</time>
      </trkpt>
      <trkpt lat="63.30156" lon="9.03339">
        <ele>184.17746</ele>
        <time>2020-08-05T09:08:36.308Z</time>
      </trkpt>
      <trkpt lat="63.3015" lon="9.03356">
        <ele>183.739459</ele>
        <time>2020-08-05T09:08:39.322Z</time>
      </trkpt>
      <trkpt lat="63.30142" lon="9.03379">
        <ele>183.13098</ele>
        <time>2020-08-05T09:08:42.331Z</time>
      </trkpt>
      <trkpt lat="63.30136" lon="9.03396">
        <ele>182.69255</ele>
        <time>2020-08-05T09:08:44.309Z</time>
      </trkpt>
      <trkpt lat="63.30129" lon="9.03415">
        <ele>182.20459</ele>
        <time>2020-08-05T09:08:46.326Z</time>
      </trkpt>
      <trkpt lat="63.30122" lon="9.03434">
        <ele>181.710629</ele>
        <time>2020-08-05T09:08:48.312Z</time>
      </trkpt>
      <trkpt lat="63.30114" lon="9.03456">
        <ele>181.153112</ele>
        <time>2020-08-05T09:08:50.322Z</time>
      </trkpt>
      <trkpt lat="63.30106" lon="9.03479">
        <ele>180.54279</ele>
        <time>2020-08-05T09:08:52.339Z</time>
      </trkpt>
      <trkpt lat="63.30097" lon="9.03504">
        <ele>179.870478</ele>
        <time>2020-08-05T09:08:54.326Z</time>
      </trkpt>
      <trkpt lat="63.30087" lon="9.03532">
        <ele>179.160223</ele>
        <time>2020-08-05T09:08:56.361Z</time>
      </trkpt>
      <trkpt lat="63.30077" lon="9.03561">
        <ele>178.404396</ele>
        <time>2020-08-05T09:08:58.355Z</time>
      </trkpt>
      <trkpt lat="63.30066" lon="9.03591">
        <ele>177.639838</ele>
        <time>2020-08-05T09:09:00.321Z</time>
      </trkpt>
      <trkpt lat="63.30056" lon="9.0362">
        <ele>176.89994</ele>
        <time>2020-08-05T09:09:02.336Z</time>
      </trkpt>
      <trkpt lat="63.30044" lon="9.0365">
        <ele>176.610872</ele>
        <time>2020-08-05T09:09:04.323Z</time>
      </trkpt>
      <trkpt lat="63.30038" lon="9.03665">
        <ele>176.45273</ele>
        <time>2020-08-05T09:09:05.303Z</time>
      </trkpt>
      <trkpt lat="63.30031" lon="9.03682">
        <ele>176.286215</ele>
        <time>2020-08-05T09:09:06.314Z</time>
      </trkpt>
      <trkpt lat="63.30025" lon="9.03698">
        <ele>176.124725</ele>
        <time>2020-08-05T09:09:07.334Z</time>
      </trkpt>
      <trkpt lat="63.30018" lon="9.03714">
        <ele>175.965471</ele>
        <time>2020-08-05T09:09:08.318Z</time>
      </trkpt>
      <trkpt lat="63.30012" lon="9.03729">
        <ele>175.812876</ele>
        <time>2020-08-05T09:09:09.337Z</time>
      </trkpt>
      <trkpt lat="63.30001" lon="9.03758">
        <ele>175.526536</ele>
        <time>2020-08-05T09:09:11.331Z</time>
      </trkpt>
      <trkpt lat="63.2999" lon="9.03786">
        <ele>175.249187</ele>
        <time>2020-08-05T09:09:13.381Z</time>
      </trkpt>
      <trkpt lat="63.2998" lon="9.03814">
        <ele>174.981165</ele>
        <time>2020-08-05T09:09:15.303Z</time>
      </trkpt>
      <trkpt lat="63.2997" lon="9.0384">
        <ele>174.718318</ele>
        <time>2020-08-05T09:09:17.367Z</time>
      </trkpt>
      <trkpt lat="63.2996" lon="9.03866">
        <ele>174.464167</ele>
        <time>2020-08-05T09:09:19.332Z</time>
      </trkpt>
      <trkpt lat="63.29951" lon="9.03892">
        <ele>174.216543</ele>
        <time>2020-08-05T09:09:21.365Z</time>
      </trkpt>
      <trkpt lat="63.29942" lon="9.03919">
        <ele>173.969048</ele>
        <time>2020-08-05T09:09:23.362Z</time>
      </trkpt>
      <trkpt lat="63.29933" lon="9.03947">
        <ele>173.24672</ele>
        <time>2020-08-05T09:09:25.331Z</time>
      </trkpt>
      <trkpt lat="63.29925" lon="9.03976">
        <ele>172.402414</ele>
        <time>2020-08-05T09:09:27.353Z</time>
      </trkpt>
      <trkpt lat="63.29917" lon="9.04005">
        <ele>171.55452</ele>
        <time>2020-08-05T09:09:29.314Z</time>
      </trkpt>
      <trkpt lat="63.29909" lon="9.04038">
        <ele>170.661458</ele>
        <time>2020-08-05T09:09:31.318Z</time>
      </trkpt>
      <trkpt lat="63.29902" lon="9.04072">
        <ele>169.722691</ele>
        <time>2020-08-05T09:09:33.320Z</time>
      </trkpt>
      <trkpt lat="63.29895" lon="9.04108">
        <ele>168.77708</ele>
        <time>2020-08-05T09:09:35.346Z</time>
      </trkpt>
      <trkpt lat="63.29891" lon="9.04127">
        <ele>168.262999</ele>
        <time>2020-08-05T09:09:36.349Z</time>
      </trkpt>
      <trkpt lat="63.29887" lon="9.04147">
        <ele>167.737747</ele>
        <time>2020-08-05T09:09:37.323Z</time>
      </trkpt>
      <trkpt lat="63.29883" lon="9.04166">
        <ele>167.194291</ele>
        <time>2020-08-05T09:09:38.323Z</time>
      </trkpt>
      <trkpt lat="63.29879" lon="9.04187">
        <ele>166.633285</ele>
        <time>2020-08-05T09:09:39.320Z</time>
      </trkpt>
      <trkpt lat="63.29874" lon="9.04209">
        <ele>166.047662</ele>
        <time>2020-08-05T09:09:40.372Z</time>
      </trkpt>
      <trkpt lat="63.2987" lon="9.04231">
        <ele>165.452799</ele>
        <time>2020-08-05T09:09:41.374Z</time>
      </trkpt>
      <trkpt lat="63.29865" lon="9.04254">
        <ele>164.847021</ele>
        <time>2020-08-05T09:09:42.332Z</time>
      </trkpt>
      <trkpt lat="63.29861" lon="9.04278">
        <ele>164.216183</ele>
        <time>2020-08-05T09:09:43.315Z</time>
      </trkpt>
      <trkpt lat="63.29857" lon="9.04303">
        <ele>163.434883</ele>
        <time>2020-08-05T09:09:44.360Z</time>
      </trkpt>
      <trkpt lat="63.29852" lon="9.04329">
        <ele>162.591761</ele>
        <time>2020-08-05T09:09:45.341Z</time>
      </trkpt>
      <trkpt lat="63.29848" lon="9.04357">
        <ele>161.719841</ele>
        <time>2020-08-05T09:09:46.332Z</time>
      </trkpt>
      <trkpt lat="63.29844" lon="9.04386">
        <ele>160.825576</ele>
        <time>2020-08-05T09:09:47.337Z</time>
      </trkpt>
      <trkpt lat="63.29841" lon="9.04416">
        <ele>159.906928</ele>
        <time>2020-08-05T09:09:48.333Z</time>
      </trkpt>
      <trkpt lat="63.29838" lon="9.04446">
        <ele>158.971283</ele>
        <time>2020-08-05T09:09:49.314Z</time>
      </trkpt>
      <trkpt lat="63.29835" lon="9.04478">
        <ele>158.016523</ele>
        <time>2020-08-05T09:09:50.338Z</time>
      </trkpt>
      <trkpt lat="63.29834" lon="9.0451">
        <ele>157.059191</ele>
        <time>2020-08-05T09:09:51.312Z</time>
      </trkpt>
      <trkpt lat="63.29833" lon="9.04542">
        <ele>156.096964</ele>
        <time>2020-08-05T09:09:52.323Z</time>
      </trkpt>
      <trkpt lat="63.29833" lon="9.04575">
        <ele>155.115355</ele>
        <time>2020-08-05T09:09:53.310Z</time>
      </trkpt>
      <trkpt lat="63.29833" lon="9.04608">
        <ele>154.127583</ele>
        <time>2020-08-05T09:09:54.344Z</time>
      </trkpt>
      <trkpt lat="63.29834" lon="9.0464">
        <ele>153.160373</ele>
        <time>2020-08-05T09:09:55.310Z</time>
      </trkpt>
      <trkpt lat="63.29837" lon="9.04672">
        <ele>152.193835</ele>
        <time>2020-08-05T09:09:56.352Z</time>
      </trkpt>
      <trkpt lat="63.29839" lon="9.04703">
        <ele>151.406468</ele>
        <time>2020-08-05T09:09:57.362Z</time>
      </trkpt>
      <trkpt lat="63.29842" lon="9.04733">
        <ele>150.66279</ele>
        <time>2020-08-05T09:09:58.361Z</time>
      </trkpt>
      <trkpt lat="63.29845" lon="9.04761">
        <ele>149.942168</ele>
        <time>2020-08-05T09:09:59.320Z</time>
      </trkpt>
      <trkpt lat="63.29848" lon="9.04787">
        <ele>149.276748</ele>
        <time>2020-08-05T09:10:00.320Z</time>
      </trkpt>
      <trkpt lat="63.29852" lon="9.0481">
        <ele>148.663835</ele>
        <time>2020-08-05T09:10:01.311Z</time>
      </trkpt>
      <trkpt lat="63.29855" lon="9.04832">
        <ele>148.082096</ele>
        <time>2020-08-05T09:10:02.356Z</time>
      </trkpt>
      <trkpt lat="63.29859" lon="9.04854">
        <ele>147.498917</ele>
        <time>2020-08-05T09:10:03.333Z</time>
      </trkpt>
      <trkpt lat="63.29862" lon="9.04876">
        <ele>146.918064</ele>
        <time>2020-08-05T09:10:04.342Z</time>
      </trkpt>
      <trkpt lat="63.29866" lon="9.04898">
        <ele>146.346495</ele>
        <time>2020-08-05T09:10:05.343Z</time>
      </trkpt>
      <trkpt lat="63.2987" lon="9.04919">
        <ele>145.782985</ele>
        <time>2020-08-05T09:10:06.324Z</time>
      </trkpt>
      <trkpt lat="63.29873" lon="9.0494">
        <ele>145.226931</ele>
        <time>2020-08-05T09:10:07.347Z</time>
      </trkpt>
      <trkpt lat="63.29876" lon="9.04962">
        <ele>144.665762</ele>
        <time>2020-08-05T09:10:08.313Z</time>
      </trkpt>
      <trkpt lat="63.29879" lon="9.04982">
        <ele>144.130518</ele>
        <time>2020-08-05T09:10:09.324Z</time>
      </trkpt>
      <trkpt lat="63.29881" lon="9.05002">
        <ele>143.617004</ele>
        <time>2020-08-05T09:10:10.337Z</time>
      </trkpt>
      <trkpt lat="63.29883" lon="9.05023">
        <ele>143.091461</ele>
        <time>2020-08-05T09:10:11.317Z</time>
      </trkpt>
      <trkpt lat="63.29883" lon="9.05044">
        <ele>142.577445</ele>
        <time>2020-08-05T09:10:12.335Z</time>
      </trkpt>
      <trkpt lat="63.29882" lon="9.05064">
        <ele>142.077628</ele>
        <time>2020-08-05T09:10:13.355Z</time>
      </trkpt>
      <trkpt lat="63.2988" lon="9.05084">
        <ele>141.603844</ele>
        <time>2020-08-05T09:10:14.310Z</time>
      </trkpt>
      <trkpt lat="63.29874" lon="9.05121">
        <ele>140.691254</ele>
        <time>2020-08-05T09:10:16.372Z</time>
      </trkpt>
      <trkpt lat="63.29867" lon="9.05155">
        <ele>139.81821</ele>
        <time>2020-08-05T09:10:18.330Z</time>
      </trkpt>
      <trkpt lat="63.29859" lon="9.05186">
        <ele>138.957681</ele>
        <time>2020-08-05T09:10:20.306Z</time>
      </trkpt>
      <trkpt lat="63.29849" lon="9.05215">
        <ele>138.109796</ele>
        <time>2020-08-05T09:10:22.319Z</time>
      </trkpt>
      <trkpt lat="63.2984" lon="9.05242">
        <ele>137.332463</ele>
        <time>2020-08-05T09:10:24.362Z</time>
      </trkpt>
      <trkpt lat="63.29832" lon="9.05267">
        <ele>136.599411</ele>
        <time>2020-08-05T09:10:26.313Z</time>
      </trkpt>
      <trkpt lat="63.29824" lon="9.05292">
        <ele>135.889103</ele>
        <time>2020-08-05T09:10:28.332Z</time>
      </trkpt>
      <trkpt lat="63.29815" lon="9.05317">
        <ele>135.171084</ele>
        <time>2020-08-05T09:10:30.337Z</time>
      </trkpt>
      <trkpt lat="63.29808" lon="9.0534">
        <ele>134.498464</ele>
        <time>2020-08-05T09:10:32.327Z</time>
      </trkpt>
      <trkpt lat="63.29801" lon="9.05365">
        <ele>133.804558</ele>
        <time>2020-08-05T09:10:34.351Z</time>
      </trkpt>
      <trkpt lat="63.29795" lon="9.05394">
        <ele>133.052682</ele>
        <time>2020-08-05T09:10:36.312Z</time>
      </trkpt>
      <trkpt lat="63.2979" lon="9.05426">
        <ele>132.143233</ele>
        <time>2020-08-05T09:10:38.390Z</time>
      </trkpt>
      <trkpt lat="63.29785" lon="9.05464">
        <ele>131.044917</ele>
        <time>2020-08-05T09:10:40.322Z</time>
      </trkpt>
      <trkpt lat="63.29784" lon="9.05484">
        <ele>130.478176</ele>
        <time>2020-08-05T09:10:41.320Z</time>
      </trkpt>
      <trkpt lat="63.29783" lon="9.05504">
        <ele>129.903097</ele>
        <time>2020-08-05T09:10:42.327Z</time>
      </trkpt>
      <trkpt lat="63.29782" lon="9.05527">
        <ele>129.260763</ele>
        <time>2020-08-05T09:10:43.336Z</time>
      </trkpt>
      <trkpt lat="63.2978" lon="9.05549">
        <ele>128.626387</ele>
        <time>2020-08-05T09:10:44.330Z</time>
      </trkpt>
      <trkpt lat="63.29779" lon="9.05571">
        <ele>128.005936</ele>
        <time>2020-08-05T09:10:45.331Z</time>
      </trkpt>
      <trkpt lat="63.29777" lon="9.05593">
        <ele>127.387253</ele>
        <time>2020-08-05T09:10:46.356Z</time>
      </trkpt>
      <trkpt lat="63.29775" lon="9.05614">
        <ele>126.778646</ele>
        <time>2020-08-05T09:10:47.382Z</time>
      </trkpt>
      <trkpt lat="63.29772" lon="9.05634">
        <ele>126.182356</ele>
        <time>2020-08-05T09:10:48.347Z</time>
      </trkpt>
      <trkpt lat="63.29768" lon="9.05653">
        <ele>125.595172</ele>
        <time>2020-08-05T09:10:49.316Z</time>
      </trkpt>
      <trkpt lat="63.29763" lon="9.05671">
        <ele>125.002443</ele>
        <time>2020-08-05T09:10:50.341Z</time>
      </trkpt>
      <trkpt lat="63.29757" lon="9.05689">
        <ele>124.374706</ele>
        <time>2020-08-05T09:10:51.305Z</time>
      </trkpt>
      <trkpt lat="63.29751" lon="9.05708">
        <ele>123.727203</ele>
        <time>2020-08-05T09:10:52.332Z</time>
      </trkpt>
      <trkpt lat="63.29744" lon="9.05726">
        <ele>123.066371</ele>
        <time>2020-08-05T09:10:53.372Z</time>
      </trkpt>
      <trkpt lat="63.29737" lon="9.05744">
        <ele>122.410337</ele>
        <time>2020-08-05T09:10:54.309Z</time>
      </trkpt>
      <trkpt lat="63.29731" lon="9.05761">
        <ele>121.779988</ele>
        <time>2020-08-05T09:10:55.325Z</time>
      </trkpt>
      <trkpt lat="63.29726" lon="9.0578">
        <ele>121.082278</ele>
        <time>2020-08-05T09:10:56.306Z</time>
      </trkpt>
      <trkpt lat="63.29722" lon="9.05801">
        <ele>120.373689</ele>
        <time>2020-08-05T09:10:57.331Z</time>
      </trkpt>
      <trkpt lat="63.29719" lon="9.05823">
        <ele>119.662497</ele>
        <time>2020-08-05T09:10:58.321Z</time>
      </trkpt>
      <trkpt lat="63.29717" lon="9.05845">
        <ele>118.94711</ele>
        <time>2020-08-05T09:10:59.315Z</time>
      </trkpt>
      <trkpt lat="63.29717" lon="9.05868">
        <ele>118.220463</ele>
        <time>2020-08-05T09:11:00.360Z</time>
      </trkpt>
      <trkpt lat="63.29718" lon="9.05892">
        <ele>117.467618</ele>
        <time>2020-08-05T09:11:01.335Z</time>
      </trkpt>
      <trkpt lat="63.29718" lon="9.05917">
        <ele>116.706381</ele>
        <time>2020-08-05T09:11:02.374Z</time>
      </trkpt>
      <trkpt lat="63.29718" lon="9.05941">
        <ele>115.93571</ele>
        <time>2020-08-05T09:11:03.323Z</time>
      </trkpt>
      <trkpt lat="63.29718" lon="9.05966">
        <ele>115.140006</ele>
        <time>2020-08-05T09:11:04.314Z</time>
      </trkpt>
      <trkpt lat="63.29719" lon="9.05992">
        <ele>114.324681</ele>
        <time>2020-08-05T09:11:05.330Z</time>
      </trkpt>
      <trkpt lat="63.29719" lon="9.06019">
        <ele>113.494263</ele>
        <time>2020-08-05T09:11:06.332Z</time>
      </trkpt>
      <trkpt lat="63.29719" lon="9.06045">
        <ele>112.660701</ele>
        <time>2020-08-05T09:11:07.363Z</time>
      </trkpt>
      <trkpt lat="63.29718" lon="9.06071">
        <ele>111.857944</ele>
        <time>2020-08-05T09:11:08.375Z</time>
      </trkpt>
      <trkpt lat="63.29717" lon="9.06096">
        <ele>111.072291</ele>
        <time>2020-08-05T09:11:09.371Z</time>
      </trkpt>
      <trkpt lat="63.29716" lon="9.0612">
        <ele>110.303436</ele>
        <time>2020-08-05T09:11:10.341Z</time>
      </trkpt>
      <trkpt lat="63.29715" lon="9.06144">
        <ele>109.525773</ele>
        <time>2020-08-05T09:11:11.312Z</time>
      </trkpt>
      <trkpt lat="63.29713" lon="9.06169">
        <ele>108.747205</ele>
        <time>2020-08-05T09:11:12.335Z</time>
      </trkpt>
      <trkpt lat="63.2971" lon="9.06193">
        <ele>107.979718</ele>
        <time>2020-08-05T09:11:13.375Z</time>
      </trkpt>
      <trkpt lat="63.29707" lon="9.06217">
        <ele>107.205959</ele>
        <time>2020-08-05T09:11:14.374Z</time>
      </trkpt>
      <trkpt lat="63.29704" lon="9.06241">
        <ele>106.4209</ele>
        <time>2020-08-05T09:11:15.318Z</time>
      </trkpt>
      <trkpt lat="63.29701" lon="9.06266">
        <ele>105.620851</ele>
        <time>2020-08-05T09:11:16.355Z</time>
      </trkpt>
      <trkpt lat="63.29697" lon="9.06289">
        <ele>104.841661</ele>
        <time>2020-08-05T09:11:17.340Z</time>
      </trkpt>
      <trkpt lat="63.29692" lon="9.06311">
        <ele>104.07159</ele>
        <time>2020-08-05T09:11:18.362Z</time>
      </trkpt>
      <trkpt lat="63.29687" lon="9.06333">
        <ele>103.299957</ele>
        <time>2020-08-05T09:11:19.319Z</time>
      </trkpt>
      <trkpt lat="63.29681" lon="9.06355">
        <ele>102.528485</ele>
        <time>2020-08-05T09:11:20.354Z</time>
      </trkpt>
      <trkpt lat="63.29675" lon="9.06375">
        <ele>101.779077</ele>
        <time>2020-08-05T09:11:21.328Z</time>
      </trkpt>
      <trkpt lat="63.2967" lon="9.06394">
        <ele>101.055763</ele>
        <time>2020-08-05T09:11:22.359Z</time>
      </trkpt>
      <trkpt lat="63.29664" lon="9.06413">
        <ele>100.345005</ele>
        <time>2020-08-05T09:11:23.310Z</time>
      </trkpt>
      <trkpt lat="63.29658" lon="9.06431">
        <ele>99.64234</ele>
        <time>2020-08-05T09:11:24.339Z</time>
      </trkpt>
      <trkpt lat="63.29652" lon="9.0645">
        <ele>98.951235</ele>
        <time>2020-08-05T09:11:25.332Z</time>
      </trkpt>
      <trkpt lat="63.29646" lon="9.06467">
        <ele>98.268789</ele>
        <time>2020-08-05T09:11:26.333Z</time>
      </trkpt>
      <trkpt lat="63.29641" lon="9.06485">
        <ele>97.589314</ele>
        <time>2020-08-05T09:11:27.352Z</time>
      </trkpt>
      <trkpt lat="63.29635" lon="9.06503">
        <ele>96.920249</ele>
        <time>2020-08-05T09:11:28.337Z</time>
      </trkpt>
      <trkpt lat="63.2963" lon="9.06521">
        <ele>96.365676</ele>
        <time>2020-08-05T09:11:29.369Z</time>
      </trkpt>
      <trkpt lat="63.29625" lon="9.06538">
        <ele>95.939391</ele>
        <time>2020-08-05T09:11:30.365Z</time>
      </trkpt>
      <trkpt lat="63.29619" lon="9.06555">
        <ele>95.518077</ele>
        <time>2020-08-05T09:11:31.325Z</time>
      </trkpt>
      <trkpt lat="63.29614" lon="9.06572">
        <ele>95.095109</ele>
        <time>2020-08-05T09:11:32.310Z</time>
      </trkpt>
      <trkpt lat="63.29608" lon="9.06589">
        <ele>94.677093</ele>
        <time>2020-08-05T09:11:33.331Z</time>
      </trkpt>
      <trkpt lat="63.29603" lon="9.06605">
        <ele>94.261333</ele>
        <time>2020-08-05T09:11:34.325Z</time>
      </trkpt>
      <trkpt lat="63.29598" lon="9.06621">
        <ele>93.854755</ele>
        <time>2020-08-05T09:11:35.332Z</time>
      </trkpt>
      <trkpt lat="63.29587" lon="9.06653">
        <ele>93.067516</ele>
        <time>2020-08-05T09:11:37.338Z</time>
      </trkpt>
      <trkpt lat="63.29577" lon="9.06683">
        <ele>92.297009</ele>
        <time>2020-08-05T09:11:39.335Z</time>
      </trkpt>
      <trkpt lat="63.29567" lon="9.06712">
        <ele>91.549179</ele>
        <time>2020-08-05T09:11:41.334Z</time>
      </trkpt>
      <trkpt lat="63.29557" lon="9.06741">
        <ele>90.823481</ele>
        <time>2020-08-05T09:11:43.366Z</time>
      </trkpt>
      <trkpt lat="63.29548" lon="9.06768">
        <ele>90.12905</ele>
        <time>2020-08-05T09:11:45.314Z</time>
      </trkpt>
      <trkpt lat="63.29539" lon="9.06792">
        <ele>89.499537</ele>
        <time>2020-08-05T09:11:47.346Z</time>
      </trkpt>
      <trkpt lat="63.2953" lon="9.06816">
        <ele>88.885036</ele>
        <time>2020-08-05T09:11:49.322Z</time>
      </trkpt>
      <trkpt lat="63.29523" lon="9.06841">
        <ele>88.258923</ele>
        <time>2020-08-05T09:11:51.327Z</time>
      </trkpt>
      <trkpt lat="63.29515" lon="9.06867">
        <ele>87.541137</ele>
        <time>2020-08-05T09:11:53.372Z</time>
      </trkpt>
      <trkpt lat="63.29509" lon="9.06897">
        <ele>86.799482</ele>
        <time>2020-08-05T09:11:55.331Z</time>
      </trkpt>
      <trkpt lat="63.29506" lon="9.06933">
        <ele>85.958104</ele>
        <time>2020-08-05T09:11:57.349Z</time>
      </trkpt>
      <trkpt lat="63.29505" lon="9.06953">
        <ele>85.491363</ele>
        <time>2020-08-05T09:11:58.306Z</time>
      </trkpt>
      <trkpt lat="63.29504" lon="9.06974">
        <ele>85.000549</ele>
        <time>2020-08-05T09:11:59.320Z</time>
      </trkpt>
      <trkpt lat="63.29504" lon="9.06997">
        <ele>84.484295</ele>
        <time>2020-08-05T09:12:00.331Z</time>
      </trkpt>
      <trkpt lat="63.29504" lon="9.0702">
        <ele>83.961978</ele>
        <time>2020-08-05T09:12:01.318Z</time>
      </trkpt>
      <trkpt lat="63.29503" lon="9.07043">
        <ele>83.437073</ele>
        <time>2020-08-05T09:12:02.348Z</time>
      </trkpt>
      <trkpt lat="63.29503" lon="9.07065">
        <ele>82.91396</ele>
        <time>2020-08-05T09:12:03.309Z</time>
      </trkpt>
      <trkpt lat="63.29502" lon="9.07089">
        <ele>82.383987</ele>
        <time>2020-08-05T09:12:04.312Z</time>
      </trkpt>
      <trkpt lat="63.29501" lon="9.07112">
        <ele>81.844555</ele>
        <time>2020-08-05T09:12:05.350Z</time>
      </trkpt>
      <trkpt lat="63.29501" lon="9.07136">
        <ele>81.291973</ele>
        <time>2020-08-05T09:12:06.326Z</time>
      </trkpt>
      <trkpt lat="63.295" lon="9.07161">
        <ele>80.725662</ele>
        <time>2020-08-05T09:12:07.342Z</time>
      </trkpt>
      <trkpt lat="63.295" lon="9.07186">
        <ele>80.145085</ele>
        <time>2020-08-05T09:12:08.315Z</time>
      </trkpt>
      <trkpt lat="63.29499" lon="9.07212">
        <ele>79.555363</ele>
        <time>2020-08-05T09:12:09.328Z</time>
      </trkpt>
      <trkpt lat="63.29498" lon="9.07238">
        <ele>78.794424</ele>
        <time>2020-08-05T09:12:10.366Z</time>
      </trkpt>
      <trkpt lat="63.29497" lon="9.07263">
        <ele>77.908032</ele>
        <time>2020-08-05T09:12:11.314Z</time>
      </trkpt>
      <trkpt lat="63.29497" lon="9.07288">
        <ele>77.032798</ele>
        <time>2020-08-05T09:12:12.322Z</time>
      </trkpt>
      <trkpt lat="63.29496" lon="9.07313">
        <ele>76.194167</ele>
        <time>2020-08-05T09:12:13.344Z</time>
      </trkpt>
      <trkpt lat="63.29496" lon="9.07337">
        <ele>75.367591</ele>
        <time>2020-08-05T09:12:14.338Z</time>
      </trkpt>
      <trkpt lat="63.29495" lon="9.0736">
        <ele>74.557552</ele>
        <time>2020-08-05T09:12:15.339Z</time>
      </trkpt>
      <trkpt lat="63.29495" lon="9.07383">
        <ele>73.771665</ele>
        <time>2020-08-05T09:12:16.343Z</time>
      </trkpt>
      <trkpt lat="63.29494" lon="9.07405">
        <ele>72.985779</ele>
        <time>2020-08-05T09:12:17.342Z</time>
      </trkpt>
      <trkpt lat="63.29493" lon="9.07428">
        <ele>72.216642</ele>
        <time>2020-08-05T09:12:18.334Z</time>
      </trkpt>
      <trkpt lat="63.29492" lon="9.07449">
        <ele>71.455561</ele>
        <time>2020-08-05T09:12:19.326Z</time>
      </trkpt>
      <trkpt lat="63.2949" lon="9.07471">
        <ele>70.695154</ele>
        <time>2020-08-05T09:12:20.344Z</time>
      </trkpt>
      <trkpt lat="63.29487" lon="9.07492">
        <ele>69.932334</ele>
        <time>2020-08-05T09:12:21.369Z</time>
      </trkpt>
      <trkpt lat="63.29484" lon="9.07512">
        <ele>69.195998</ele>
        <time>2020-08-05T09:12:22.322Z</time>
      </trkpt>
      <trkpt lat="63.2948" lon="9.07531">
        <ele>68.470941</ele>
        <time>2020-08-05T09:12:23.318Z</time>
      </trkpt>
      <trkpt lat="63.29476" lon="9.0755">
        <ele>67.745617</ele>
        <time>2020-08-05T09:12:24.373Z</time>
      </trkpt>
      <trkpt lat="63.29472" lon="9.07568">
        <ele>67.045413</ele>
        <time>2020-08-05T09:12:25.335Z</time>
      </trkpt>
      <trkpt lat="63.29465" lon="9.07603">
        <ele>65.730858</ele>
        <time>2020-08-05T09:12:27.318Z</time>
      </trkpt>
      <trkpt lat="63.29461" lon="9.07636">
        <ele>64.702535</ele>
        <time>2020-08-05T09:12:29.360Z</time>
      </trkpt>
      <trkpt lat="63.29458" lon="9.07668">
        <ele>63.792325</ele>
        <time>2020-08-05T09:12:31.346Z</time>
      </trkpt>
      <trkpt lat="63.29457" lon="9.07699">
        <ele>62.920684</ele>
        <time>2020-08-05T09:12:33.321Z</time>
      </trkpt>
      <trkpt lat="63.29457" lon="9.07728">
        <ele>62.091255</ele>
        <time>2020-08-05T09:12:35.374Z</time>
      </trkpt>
      <trkpt lat="63.29457" lon="9.0776">
        <ele>61.205427</ele>
        <time>2020-08-05T09:12:37.333Z</time>
      </trkpt>
      <trkpt lat="63.29455" lon="9.07792">
        <ele>60.290783</ele>
        <time>2020-08-05T09:12:39.324Z</time>
      </trkpt>
      <trkpt lat="63.29452" lon="9.07822">
        <ele>59.415487</ele>
        <time>2020-08-05T09:12:41.346Z</time>
      </trkpt>
      <trkpt lat="63.29449" lon="9.07848">
        <ele>58.680572</ele>
        <time>2020-08-05T09:12:43.333Z</time>
      </trkpt>
      <trkpt lat="63.29446" lon="9.07871">
        <ele>57.989255</ele>
        <time>2020-08-05T09:12:45.336Z</time>
      </trkpt>
      <trkpt lat="63.29441" lon="9.07892">
        <ele>57.319562</ele>
        <time>2020-08-05T09:12:47.319Z</time>
      </trkpt>
      <trkpt lat="63.29436" lon="9.07913">
        <ele>56.665566</ele>
        <time>2020-08-05T09:12:49.315Z</time>
      </trkpt>
      <trkpt lat="63.29431" lon="9.07932">
        <ele>56.043273</ele>
        <time>2020-08-05T09:12:51.352Z</time>
      </trkpt>
      <trkpt lat="63.29426" lon="9.0795">
        <ele>55.431456</ele>
        <time>2020-08-05T09:12:53.361Z</time>
      </trkpt>
      <trkpt lat="63.29421" lon="9.07968">
        <ele>54.837245</ele>
        <time>2020-08-05T09:12:55.321Z</time>
      </trkpt>
      <trkpt lat="63.29416" lon="9.07985">
        <ele>54.26599</ele>
        <time>2020-08-05T09:12:57.327Z</time>
      </trkpt>
      <trkpt lat="63.29412" lon="9.08003">
        <ele>54.308346</ele>
        <time>2020-08-05T09:12:59.347Z</time>
      </trkpt>
      <trkpt lat="63.29407" lon="9.0802">
        <ele>54.45999</ele>
        <time>2020-08-05T09:13:01.378Z</time>
      </trkpt>
      <trkpt lat="63.29401" lon="9.08046">
        <ele>54.687365</ele>
        <time>2020-08-05T09:13:04.327Z</time>
      </trkpt>
      <trkpt lat="63.29396" lon="9.08065">
        <ele>54.850276</ele>
        <time>2020-08-05T09:13:06.315Z</time>
      </trkpt>
      <trkpt lat="63.2939" lon="9.08085">
        <ele>55.02776</ele>
        <time>2020-08-05T09:13:08.327Z</time>
      </trkpt>
      <trkpt lat="63.29385" lon="9.08105">
        <ele>55.204117</ele>
        <time>2020-08-05T09:13:10.359Z</time>
      </trkpt>
      <trkpt lat="63.29379" lon="9.08123">
        <ele>55.372483</ele>
        <time>2020-08-05T09:13:12.315Z</time>
      </trkpt>
      <trkpt lat="63.29374" lon="9.08141">
        <ele>55.536362</ele>
        <time>2020-08-05T09:13:14.340Z</time>
      </trkpt>
      <trkpt lat="63.29366" lon="9.08161">
        <ele>55.745707</ele>
        <time>2020-08-05T09:13:17.366Z</time>
      </trkpt>
      <trkpt lat="63.29358" lon="9.08173">
        <ele>55.908152</ele>
        <time>2020-08-05T09:13:20.351Z</time>
      </trkpt>
      <trkpt lat="63.29349" lon="9.08186">
        <ele>56.084637</ele>
        <time>2020-08-05T09:13:24.310Z</time>
      </trkpt>
      <trkpt lat="63.29341" lon="9.08201">
        <ele>56.262306</ele>
        <time>2020-08-05T09:13:29.354Z</time>
      </trkpt>
      <trkpt lat="63.29333" lon="9.08214">
        <ele>56.41996</ele>
        <time>2020-08-05T09:13:34.319Z</time>
      </trkpt>
      <trkpt lat="63.29324" lon="9.08224">
        <ele>56.592309</ele>
        <time>2020-08-05T09:13:39.351Z</time>
      </trkpt>
      <trkpt lat="63.29316" lon="9.08235">
        <ele>56.761228</ele>
        <time>2020-08-05T09:13:44.321Z</time>
      </trkpt>
      <trkpt lat="63.29305" lon="9.08237">
        <ele>56.937444</ele>
        <time>2020-08-05T09:13:49.331Z</time>
      </trkpt>
      <trkpt lat="63.29296" lon="9.08238">
        <ele>57.101364</ele>
        <time>2020-08-05T09:13:54.312Z</time>
      </trkpt>
      <trkpt lat="63.29286" lon="9.08237">
        <ele>57.358304</ele>
        <time>2020-08-05T09:14:00.356Z</time>
      </trkpt>
      <trkpt lat="63.29276" lon="9.08234">
        <ele>57.874232</ele>
        <time>2020-08-05T09:14:06.376Z</time>
      </trkpt>
      <trkpt lat="63.29266" lon="9.08237">
        <ele>58.397022</ele>
        <time>2020-08-05T09:14:11.326Z</time>
      </trkpt>
      <trkpt lat="63.29259" lon="9.08223">
        <ele>58.928729</ele>
        <time>2020-08-05T09:14:15.318Z</time>
      </trkpt>
      <trkpt lat="63.29251" lon="9.08235">
        <ele>59.399838</ele>
        <time>2020-08-05T09:14:19.334Z</time>
      </trkpt>
      <trkpt lat="63.2925" lon="9.08255">
        <ele>59.875525</ele>
        <time>2020-08-05T09:14:23.359Z</time>
      </trkpt>
      <trkpt lat="63.29257" lon="9.0827">
        <ele>60.391001</ele>
        <time>2020-08-05T09:14:28.350Z</time>
      </trkpt>
      <trkpt lat="63.29265" lon="9.08259">
        <ele>60.879692</ele>
        <time>2020-08-05T09:14:33.333Z</time>
      </trkpt>
      <trkpt lat="63.29266" lon="9.08238">
        <ele>61.392467</ele>
        <time>2020-08-05T09:14:39.318Z</time>
      </trkpt>
      <trkpt lat="63.29265" lon="9.08215">
        <ele>61.931505</ele>
        <time>2020-08-05T09:14:45.423Z</time>
      </trkpt>
      <trkpt lat="63.29264" lon="9.08193">
        <ele>62.462073</ele>
        <time>2020-08-05T09:14:51.323Z</time>
      </trkpt>
      <trkpt lat="63.29261" lon="9.0817">
        <ele>63.016584</ele>
        <time>2020-08-05T09:14:58.337Z</time>
      </trkpt>
      <trkpt lat="63.29258" lon="9.08148">
        <ele>63.55008</ele>
        <time>2020-08-05T09:15:04.324Z</time>
      </trkpt>
      <trkpt lat="63.29255" lon="9.08127">
        <ele>64.069617</ele>
        <time>2020-08-05T09:15:10.315Z</time>
      </trkpt>
      <trkpt lat="63.29252" lon="9.08108">
        <ele>64.54235</ele>
        <time>2020-08-05T09:15:16.313Z</time>
      </trkpt>
      <trkpt lat="63.29249" lon="9.08086">
        <ele>65.083626</ele>
        <time>2020-08-05T09:15:23.393Z</time>
      </trkpt>
      <trkpt lat="63.29244" lon="9.08067">
        <ele>65.598545</ele>
        <time>2020-08-05T09:15:30.312Z</time>
      </trkpt>
      <trkpt lat="63.2924" lon="9.08049">
        <ele>66.06893</ele>
        <time>2020-08-05T09:15:36.336Z</time>
      </trkpt>
      <trkpt lat="63.2925" lon="9.08058">
        <ele>66.628841</ele>
        <time>2020-08-05T09:15:49.329Z</time>
      </trkpt>
      <trkpt lat="63.29253" lon="9.08078">
        <ele>66.162952</ele>
        <time>2020-08-05T09:15:51.337Z</time>
      </trkpt>
      <trkpt lat="63.29257" lon="9.08099">
        <ele>65.636488</ele>
        <time>2020-08-05T09:15:53.379Z</time>
      </trkpt>
      <trkpt lat="63.29259" lon="9.08126">
        <ele>65.014214</ele>
        <time>2020-08-05T09:15:55.360Z</time>
      </trkpt>
      <trkpt lat="63.2926" lon="9.08154">
        <ele>64.383072</ele>
        <time>2020-08-05T09:15:57.311Z</time>
      </trkpt>
      <trkpt lat="63.29261" lon="9.08176">
        <ele>63.867532</ele>
        <time>2020-08-05T09:15:59.352Z</time>
      </trkpt>
      <trkpt lat="63.29262" lon="9.08198">
        <ele>63.38191</ele>
        <time>2020-08-05T09:16:01.325Z</time>
      </trkpt>
      <trkpt lat="63.29264" lon="9.08219">
        <ele>62.881764</ele>
        <time>2020-08-05T09:16:03.333Z</time>
      </trkpt>
      <trkpt lat="63.29264" lon="9.08241">
        <ele>62.402844</ele>
        <time>2020-08-05T09:16:05.335Z</time>
      </trkpt>
      <trkpt lat="63.29263" lon="9.08261">
        <ele>61.930651</ele>
        <time>2020-08-05T09:16:07.377Z</time>
      </trkpt>
      <trkpt lat="63.29263" lon="9.08282">
        <ele>61.451865</ele>
        <time>2020-08-05T09:16:09.377Z</time>
      </trkpt>
      <trkpt lat="63.2926" lon="9.0831">
        <ele>60.808962</ele>
        <time>2020-08-05T09:16:12.308Z</time>
      </trkpt>
      <trkpt lat="63.29256" lon="9.08337">
        <ele>60.167372</ele>
        <time>2020-08-05T09:16:15.375Z</time>
      </trkpt>
      <trkpt lat="63.29252" lon="9.08356">
        <ele>59.699481</ele>
        <time>2020-08-05T09:16:17.384Z</time>
      </trkpt>
      <trkpt lat="63.29246" lon="9.08381">
        <ele>59.049848</ele>
        <time>2020-08-05T09:16:20.351Z</time>
      </trkpt>
      <trkpt lat="63.29239" lon="9.08403">
        <ele>58.440092</ele>
        <time>2020-08-05T09:16:23.325Z</time>
      </trkpt>
      <trkpt lat="63.29231" lon="9.08426">
        <ele>57.783583</ele>
        <time>2020-08-05T09:16:26.363Z</time>
      </trkpt>
      <trkpt lat="63.29225" lon="9.08445">
        <ele>57.179551</ele>
        <time>2020-08-05T09:16:28.333Z</time>
      </trkpt>
      <trkpt lat="63.29218" lon="9.08466">
        <ele>56.46389</ele>
        <time>2020-08-05T09:16:30.364Z</time>
      </trkpt>
      <trkpt lat="63.29209" lon="9.08489">
        <ele>55.597148</ele>
        <time>2020-08-05T09:16:32.343Z</time>
      </trkpt>
      <trkpt lat="63.29198" lon="9.08516">
        <ele>54.603559</ele>
        <time>2020-08-05T09:16:34.314Z</time>
      </trkpt>
      <trkpt lat="63.29188" lon="9.0854">
        <ele>53.702234</ele>
        <time>2020-08-05T09:16:36.356Z</time>
      </trkpt>
      <trkpt lat="63.29179" lon="9.08557">
        <ele>52.992635</ele>
        <time>2020-08-05T09:16:38.326Z</time>
      </trkpt>
      <trkpt lat="63.29171" lon="9.08579">
        <ele>52.212114</ele>
        <time>2020-08-05T09:16:41.340Z</time>
      </trkpt>
      <trkpt lat="63.29166" lon="9.08597">
        <ele>51.626925</ele>
        <time>2020-08-05T09:16:44.322Z</time>
      </trkpt>
      <trkpt lat="63.2916" lon="9.08613">
        <ele>51.063995</ele>
        <time>2020-08-05T09:16:47.322Z</time>
      </trkpt>
      <trkpt lat="63.29153" lon="9.08632">
        <ele>50.359153</ele>
        <time>2020-08-05T09:16:50.335Z</time>
      </trkpt>
      <trkpt lat="63.29144" lon="9.08655">
        <ele>49.551665</ele>
        <time>2020-08-05T09:16:53.338Z</time>
      </trkpt>
      <trkpt lat="63.29137" lon="9.08676">
        <ele>48.816647</ele>
        <time>2020-08-05T09:16:56.327Z</time>
      </trkpt>
      <trkpt lat="63.2913" lon="9.08696">
        <ele>48.109118</ele>
        <time>2020-08-05T09:16:59.332Z</time>
      </trkpt>
      <trkpt lat="63.29123" lon="9.08715">
        <ele>47.451414</ele>
        <time>2020-08-05T09:17:02.366Z</time>
      </trkpt>
      <trkpt lat="63.29116" lon="9.08733">
        <ele>46.79054</ele>
        <time>2020-08-05T09:17:05.349Z</time>
      </trkpt>
      <trkpt lat="63.29109" lon="9.08753">
        <ele>46.666482</ele>
        <time>2020-08-05T09:17:08.330Z</time>
      </trkpt>
      <trkpt lat="63.29103" lon="9.08773">
        <ele>46.901493</ele>
        <time>2020-08-05T09:17:11.348Z</time>
      </trkpt>
      <trkpt lat="63.29096" lon="9.08792">
        <ele>47.133391</ele>
        <time>2020-08-05T09:17:14.347Z</time>
      </trkpt>
      <trkpt lat="63.29089" lon="9.08812">
        <ele>47.367661</ele>
        <time>2020-08-05T09:17:17.323Z</time>
      </trkpt>
      <trkpt lat="63.29082" lon="9.0883">
        <ele>47.58556</ele>
        <time>2020-08-05T09:17:20.336Z</time>
      </trkpt>
      <trkpt lat="63.29076" lon="9.08847">
        <ele>47.793107</ele>
        <time>2020-08-05T09:17:23.342Z</time>
      </trkpt>
      <trkpt lat="63.29069" lon="9.08865">
        <ele>48.014388</ele>
        <time>2020-08-05T09:17:26.362Z</time>
      </trkpt>
      <trkpt lat="63.29062" lon="9.08882">
        <ele>48.229944</ele>
        <time>2020-08-05T09:17:29.363Z</time>
      </trkpt>
      <trkpt lat="63.29055" lon="9.08899">
        <ele>48.44905</ele>
        <time>2020-08-05T09:17:32.334Z</time>
      </trkpt>
      <trkpt lat="63.29048" lon="9.08915">
        <ele>48.664399</ele>
        <time>2020-08-05T09:17:35.342Z</time>
      </trkpt>
      <trkpt lat="63.29041" lon="9.08932">
        <ele>48.879977</ele>
        <time>2020-08-05T09:17:38.360Z</time>
      </trkpt>
      <trkpt lat="63.29035" lon="9.0895">
        <ele>49.087185</ele>
        <time>2020-08-05T09:17:41.335Z</time>
      </trkpt>
      <trkpt lat="63.29029" lon="9.08966">
        <ele>49.279779</ele>
        <time>2020-08-05T09:17:44.330Z</time>
      </trkpt>
      <trkpt lat="63.29023" lon="9.0898">
        <ele>49.46814</ele>
        <time>2020-08-05T09:17:47.374Z</time>
      </trkpt>
      <trkpt lat="63.29016" lon="9.08994">
        <ele>49.659327</ele>
        <time>2020-08-05T09:17:50.370Z</time>
      </trkpt>
      <trkpt lat="63.29009" lon="9.09008">
        <ele>49.851088</ele>
        <time>2020-08-05T09:17:53.333Z</time>
      </trkpt>
      <trkpt lat="63.29002" lon="9.09019">
        <ele>50.040549</ele>
        <time>2020-08-05T09:17:56.351Z</time>
      </trkpt>
      <trkpt lat="63.28994" lon="9.0903">
        <ele>50.231016</ele>
        <time>2020-08-05T09:17:59.333Z</time>
      </trkpt>
      <trkpt lat="63.28983" lon="9.09042">
        <ele>50.459411</ele>
        <time>2020-08-05T09:18:03.325Z</time>
      </trkpt>
      <trkpt lat="63.28973" lon="9.09052">
        <ele>50.678442</ele>
        <time>2020-08-05T09:18:07.334Z</time>
      </trkpt>
      <trkpt lat="63.28963" lon="9.09063">
        <ele>50.895735</ele>
        <time>2020-08-05T09:18:11.346Z</time>
      </trkpt>
      <trkpt lat="63.28954" lon="9.09071">
        <ele>51.073128</ele>
        <time>2020-08-05T09:18:14.326Z</time>
      </trkpt>
      <trkpt lat="63.28943" lon="9.0908">
        <ele>51.29666</ele>
        <time>2020-08-05T09:18:18.340Z</time>
      </trkpt>
      <trkpt lat="63.28934" lon="9.09085">
        <ele>51.476555</ele>
        <time>2020-08-05T09:18:21.328Z</time>
      </trkpt>
      <trkpt lat="63.28924" lon="9.09088">
        <ele>51.662819</ele>
        <time>2020-08-05T09:18:24.341Z</time>
      </trkpt>
      <trkpt lat="63.28915" lon="9.09091">
        <ele>51.848319</ele>
        <time>2020-08-05T09:18:27.345Z</time>
      </trkpt>
      <trkpt lat="63.28905" lon="9.09093">
        <ele>52.029387</ele>
        <time>2020-08-05T09:18:30.334Z</time>
      </trkpt>
      <trkpt lat="63.28896" lon="9.09096">
        <ele>52.210552</ele>
        <time>2020-08-05T09:18:33.370Z</time>
      </trkpt>
      <trkpt lat="63.28887" lon="9.09098">
        <ele>52.381829</ele>
        <time>2020-08-05T09:18:36.327Z</time>
      </trkpt>
      <trkpt lat="63.28878" lon="9.09101">
        <ele>52.562286</ele>
        <time>2020-08-05T09:18:39.360Z</time>
      </trkpt>
      <trkpt lat="63.28867" lon="9.09103">
        <ele>52.765974</ele>
        <time>2020-08-05T09:18:42.358Z</time>
      </trkpt>
      <trkpt lat="63.28857" lon="9.09108">
        <ele>52.974165</ele>
        <time>2020-08-05T09:18:45.351Z</time>
      </trkpt>
      <trkpt lat="63.28846" lon="9.09112">
        <ele>53.18283</ele>
        <time>2020-08-05T09:18:48.348Z</time>
      </trkpt>
      <trkpt lat="63.28835" lon="9.09117">
        <ele>53.395752</ele>
        <time>2020-08-05T09:18:51.319Z</time>
      </trkpt>
      <trkpt lat="63.28824" lon="9.09122">
        <ele>53.603047</ele>
        <time>2020-08-05T09:18:54.333Z</time>
      </trkpt>
      <trkpt lat="63.28814" lon="9.09127">
        <ele>53.582429</ele>
        <time>2020-08-05T09:18:57.307Z</time>
      </trkpt>
      <trkpt lat="63.28804" lon="9.09132">
        <ele>53.235188</ele>
        <time>2020-08-05T09:19:00.332Z</time>
      </trkpt>
      <trkpt lat="63.28794" lon="9.09135">
        <ele>52.898146</ele>
        <time>2020-08-05T09:19:03.330Z</time>
      </trkpt>
      <trkpt lat="63.28785" lon="9.09138">
        <ele>52.584369</ele>
        <time>2020-08-05T09:19:06.335Z</time>
      </trkpt>
      <trkpt lat="63.28776" lon="9.09142">
        <ele>52.266454</ele>
        <time>2020-08-05T09:19:09.314Z</time>
      </trkpt>
      <trkpt lat="63.28767" lon="9.09144">
        <ele>51.958732</ele>
        <time>2020-08-05T09:19:12.332Z</time>
      </trkpt>
      <trkpt lat="63.28757" lon="9.09147">
        <ele>51.621915</ele>
        <time>2020-08-05T09:19:15.370Z</time>
      </trkpt>
      <trkpt lat="63.28746" lon="9.09153">
        <ele>51.212862</ele>
        <time>2020-08-05T09:19:18.344Z</time>
      </trkpt>
      <trkpt lat="63.28734" lon="9.09159">
        <ele>50.809757</ele>
        <time>2020-08-05T09:19:21.342Z</time>
      </trkpt>
      <trkpt lat="63.28725" lon="9.09166">
        <ele>50.483479</ele>
        <time>2020-08-05T09:19:23.315Z</time>
      </trkpt>
      <trkpt lat="63.28716" lon="9.09176">
        <ele>50.125438</ele>
        <time>2020-08-05T09:19:25.343Z</time>
      </trkpt>
      <trkpt lat="63.28706" lon="9.0919">
        <ele>49.740771</ele>
        <time>2020-08-05T09:19:27.334Z</time>
      </trkpt>
      <trkpt lat="63.28696" lon="9.09204">
        <ele>49.347584</ele>
        <time>2020-08-05T09:19:29.330Z</time>
      </trkpt>
      <trkpt lat="63.28687" lon="9.09221">
        <ele>48.937843</ele>
        <time>2020-08-05T09:19:31.339Z</time>
      </trkpt>
      <trkpt lat="63.28678" lon="9.0924">
        <ele>48.515926</ele>
        <time>2020-08-05T09:19:33.328Z</time>
      </trkpt>
      <trkpt lat="63.28671" lon="9.09259">
        <ele>48.130365</ele>
        <time>2020-08-05T09:19:35.322Z</time>
      </trkpt>
      <trkpt lat="63.28664" lon="9.09277">
        <ele>47.780886</ele>
        <time>2020-08-05T09:19:37.356Z</time>
      </trkpt>
      <trkpt lat="63.28659" lon="9.09295">
        <ele>47.632645</ele>
        <time>2020-08-05T09:19:39.336Z</time>
      </trkpt>
      <trkpt lat="63.28653" lon="9.09319">
        <ele>47.711982</ele>
        <time>2020-08-05T09:19:42.342Z</time>
      </trkpt>
      <trkpt lat="63.28647" lon="9.0934">
        <ele>47.780691</ele>
        <time>2020-08-05T09:19:45.320Z</time>
      </trkpt>
      <trkpt lat="63.28642" lon="9.09359">
        <ele>47.841929</ele>
        <time>2020-08-05T09:19:48.333Z</time>
      </trkpt>
      <trkpt lat="63.28639" lon="9.09379">
        <ele>47.902535</ele>
        <time>2020-08-05T09:19:51.326Z</time>
      </trkpt>
      <trkpt lat="63.28636" lon="9.09398">
        <ele>47.959382</ele>
        <time>2020-08-05T09:19:54.306Z</time>
      </trkpt>
      <trkpt lat="63.28633" lon="9.09417">
        <ele>48.015761</ele>
        <time>2020-08-05T09:19:57.348Z</time>
      </trkpt>
      <trkpt lat="63.2863" lon="9.09437">
        <ele>48.073561</ele>
        <time>2020-08-05T09:20:00.350Z</time>
      </trkpt>
      <trkpt lat="63.28626" lon="9.0946">
        <ele>48.143835</ele>
        <time>2020-08-05T09:20:04.349Z</time>
      </trkpt>
      <trkpt lat="63.28622" lon="9.09483">
        <ele>48.214702</ele>
        <time>2020-08-05T09:20:08.335Z</time>
      </trkpt>
      <trkpt lat="63.28619" lon="9.09506">
        <ele>48.279836</ele>
        <time>2020-08-05T09:20:12.353Z</time>
      </trkpt>
      <trkpt lat="63.28615" lon="9.09525">
        <ele>48.340108</ele>
        <time>2020-08-05T09:20:16.331Z</time>
      </trkpt>
      <trkpt lat="63.28612" lon="9.09545">
        <ele>48.398614</ele>
        <time>2020-08-05T09:20:20.337Z</time>
      </trkpt>
      <trkpt lat="63.28608" lon="9.09565">
        <ele>48.460716</ele>
        <time>2020-08-05T09:20:24.352Z</time>
      </trkpt>
      <trkpt lat="63.28605" lon="9.09587">
        <ele>48.524157</ele>
        <time>2020-08-05T09:20:28.328Z</time>
      </trkpt>
      <trkpt lat="63.28603" lon="9.09612">
        <ele>48.594743</ele>
        <time>2020-08-05T09:20:33.348Z</time>
      </trkpt>
      <trkpt lat="63.28602" lon="9.09632">
        <ele>48.651108</ele>
        <time>2020-08-05T09:20:37.314Z</time>
      </trkpt>
      <trkpt lat="63.28603" lon="9.09652">
        <ele>48.708794</ele>
        <time>2020-08-05T09:20:41.316Z</time>
      </trkpt>
      <trkpt lat="63.28605" lon="9.09672">
        <ele>48.795591</ele>
        <time>2020-08-05T09:20:45.316Z</time>
      </trkpt>
      <trkpt lat="63.28608" lon="9.09696">
        <ele>48.924671</ele>
        <time>2020-08-05T09:20:50.327Z</time>
      </trkpt>
      <trkpt lat="63.28613" lon="9.09718">
        <ele>49.050547</ele>
        <time>2020-08-05T09:20:54.361Z</time>
      </trkpt>
      <trkpt lat="63.28618" lon="9.09742">
        <ele>49.186797</ele>
        <time>2020-08-05T09:20:58.335Z</time>
      </trkpt>
      <trkpt lat="63.28623" lon="9.09762">
        <ele>49.310496</ele>
        <time>2020-08-05T09:21:01.336Z</time>
      </trkpt>
      <trkpt lat="63.28629" lon="9.09783">
        <ele>49.435003</ele>
        <time>2020-08-05T09:21:04.325Z</time>
      </trkpt>
      <trkpt lat="63.28635" lon="9.09805">
        <ele>49.568941</ele>
        <time>2020-08-05T09:21:07.338Z</time>
      </trkpt>
      <trkpt lat="63.2864" lon="9.09822">
        <ele>49.672447</ele>
        <time>2020-08-05T09:21:09.366Z</time>
      </trkpt>
      <trkpt lat="63.28644" lon="9.0984">
        <ele>49.778448</ele>
        <time>2020-08-05T09:21:11.346Z</time>
      </trkpt>
      <trkpt lat="63.2865" lon="9.09861">
        <ele>49.901124</ele>
        <time>2020-08-05T09:21:13.321Z</time>
      </trkpt>
      <trkpt lat="63.28656" lon="9.09884">
        <ele>50.041958</ele>
        <time>2020-08-05T09:21:15.361Z</time>
      </trkpt>
      <trkpt lat="63.28663" lon="9.09909">
        <ele>50.195413</ele>
        <time>2020-08-05T09:21:17.330Z</time>
      </trkpt>
      <trkpt lat="63.28669" lon="9.09936">
        <ele>50.3531</ele>
        <time>2020-08-05T09:21:19.330Z</time>
      </trkpt>
      <trkpt lat="63.28676" lon="9.09966">
        <ele>50.522398</ele>
        <time>2020-08-05T09:21:21.351Z</time>
      </trkpt>
      <trkpt lat="63.28681" lon="9.09996">
        <ele>50.691243</ele>
        <time>2020-08-05T09:21:23.333Z</time>
      </trkpt>
      <trkpt lat="63.28685" lon="9.10027">
        <ele>50.730797</ele>
        <time>2020-08-05T09:21:25.347Z</time>
      </trkpt>
      <trkpt lat="63.28689" lon="9.10058">
        <ele>50.545361</ele>
        <time>2020-08-05T09:21:27.327Z</time>
      </trkpt>
      <trkpt lat="63.28692" lon="9.10088">
        <ele>50.364464</ele>
        <time>2020-08-05T09:21:29.310Z</time>
      </trkpt>
      <trkpt lat="63.28695" lon="9.10116">
        <ele>50.196713</ele>
        <time>2020-08-05T09:21:31.336Z</time>
      </trkpt>
      <trkpt lat="63.287" lon="9.10141">
        <ele>50.043664</ele>
        <time>2020-08-05T09:21:33.355Z</time>
      </trkpt>
      <trkpt lat="63.28705" lon="9.10162">
        <ele>49.903618</ele>
        <time>2020-08-05T09:21:35.329Z</time>
      </trkpt>
      <trkpt lat="63.28711" lon="9.10182">
        <ele>49.768637</ele>
        <time>2020-08-05T09:21:37.328Z</time>
      </trkpt>
      <trkpt lat="63.28717" lon="9.10201">
        <ele>49.628044</ele>
        <time>2020-08-05T09:21:39.342Z</time>
      </trkpt>
      <trkpt lat="63.28725" lon="9.10216">
        <ele>49.496965</ele>
        <time>2020-08-05T09:21:41.351Z</time>
      </trkpt>
      <trkpt lat="63.28732" lon="9.10231">
        <ele>49.372149</ele>
        <time>2020-08-05T09:21:43.306Z</time>
      </trkpt>
      <trkpt lat="63.28741" lon="9.10251">
        <ele>49.204868</ele>
        <time>2020-08-05T09:21:46.355Z</time>
      </trkpt>
      <trkpt lat="63.2875" lon="9.10272">
        <ele>49.036074</ele>
        <time>2020-08-05T09:21:49.304Z</time>
      </trkpt>
      <trkpt lat="63.28756" lon="9.10287">
        <ele>48.916002</ele>
        <time>2020-08-05T09:21:51.326Z</time>
      </trkpt>
      <trkpt lat="63.28766" lon="9.10308">
        <ele>48.742481</ele>
        <time>2020-08-05T09:21:54.323Z</time>
      </trkpt>
      <trkpt lat="63.28775" lon="9.10328">
        <ele>48.574165</ele>
        <time>2020-08-05T09:21:57.318Z</time>
      </trkpt>
      <trkpt lat="63.28786" lon="9.10345">
        <ele>48.487192</ele>
        <time>2020-08-05T09:22:00.319Z</time>
      </trkpt>
      <trkpt lat="63.28794" lon="9.10367">
        <ele>48.513087</ele>
        <time>2020-08-05T09:22:03.325Z</time>
      </trkpt>
      <trkpt lat="63.28802" lon="9.10389">
        <ele>48.539011</ele>
        <time>2020-08-05T09:22:06.323Z</time>
      </trkpt>
      <trkpt lat="63.2881" lon="9.10411">
        <ele>48.565492</ele>
        <time>2020-08-05T09:22:09.344Z</time>
      </trkpt>
      <trkpt lat="63.28818" lon="9.10434">
        <ele>48.592513</ele>
        <time>2020-08-05T09:22:12.317Z</time>
      </trkpt>
      <trkpt lat="63.28824" lon="9.1045">
        <ele>48.611344</ele>
        <time>2020-08-05T09:22:14.332Z</time>
      </trkpt>
      <trkpt lat="63.2883" lon="9.10465">
        <ele>48.630216</ele>
        <time>2020-08-05T09:22:16.326Z</time>
      </trkpt>
      <trkpt lat="63.28836" lon="9.1048">
        <ele>48.648747</ele>
        <time>2020-08-05T09:22:18.306Z</time>
      </trkpt>
      <trkpt lat="63.28842" lon="9.10495">
        <ele>48.667142</ele>
        <time>2020-08-05T09:22:20.316Z</time>
      </trkpt>
      <trkpt lat="63.28852" lon="9.10517">
        <ele>48.694465</ele>
        <time>2020-08-05T09:22:23.325Z</time>
      </trkpt>
      <trkpt lat="63.28861" lon="9.10536">
        <ele>48.720959</ele>
        <time>2020-08-05T09:22:26.323Z</time>
      </trkpt>
      <trkpt lat="63.28871" lon="9.10554">
        <ele>48.747176</ele>
        <time>2020-08-05T09:22:29.341Z</time>
      </trkpt>
      <trkpt lat="63.28882" lon="9.1057">
        <ele>48.773249</ele>
        <time>2020-08-05T09:22:32.312Z</time>
      </trkpt>
      <trkpt lat="63.28893" lon="9.10584">
        <ele>48.799343</ele>
        <time>2020-08-05T09:22:35.317Z</time>
      </trkpt>
      <trkpt lat="63.28901" lon="9.10593">
        <ele>48.817646</ele>
        <time>2020-08-05T09:22:37.321Z</time>
      </trkpt>
      <trkpt lat="63.28909" lon="9.10604">
        <ele>48.836838</ele>
        <time>2020-08-05T09:22:39.325Z</time>
      </trkpt>
      <trkpt lat="63.28918" lon="9.10613">
        <ele>48.829914</ele>
        <time>2020-08-05T09:22:41.324Z</time>
      </trkpt>
      <trkpt lat="63.28927" lon="9.10624">
        <ele>48.810705</ele>
        <time>2020-08-05T09:22:43.326Z</time>
      </trkpt>
      <trkpt lat="63.28935" lon="9.10635">
        <ele>48.792093</ele>
        <time>2020-08-05T09:22:45.334Z</time>
      </trkpt>
      <trkpt lat="63.28942" lon="9.10646">
        <ele>48.774264</ele>
        <time>2020-08-05T09:22:47.330Z</time>
      </trkpt>
      <trkpt lat="63.28951" lon="9.10664">
        <ele>48.750218</ele>
        <time>2020-08-05T09:22:50.331Z</time>
      </trkpt>
      <trkpt lat="63.28961" lon="9.10682">
        <ele>48.724859</ele>
        <time>2020-08-05T09:22:53.329Z</time>
      </trkpt>
      <trkpt lat="63.28968" lon="9.10697">
        <ele>48.706267</ele>
        <time>2020-08-05T09:22:55.341Z</time>
      </trkpt>
      <trkpt lat="63.28975" lon="9.10712">
        <ele>48.686737</ele>
        <time>2020-08-05T09:22:57.335Z</time>
      </trkpt>
      <trkpt lat="63.28981" lon="9.10727">
        <ele>48.668306</ele>
        <time>2020-08-05T09:22:59.319Z</time>
      </trkpt>
      <trkpt lat="63.28987" lon="9.10744">
        <ele>48.649196</ele>
        <time>2020-08-05T09:23:01.327Z</time>
      </trkpt>
      <trkpt lat="63.28993" lon="9.10762">
        <ele>48.630013</ele>
        <time>2020-08-05T09:23:03.360Z</time>
      </trkpt>
      <trkpt lat="63.28998" lon="9.10781">
        <ele>48.609824</ele>
        <time>2020-08-05T09:23:05.328Z</time>
      </trkpt>
      <trkpt lat="63.29004" lon="9.10801">
        <ele>48.58905</ele>
        <time>2020-08-05T09:23:07.324Z</time>
      </trkpt>
      <trkpt lat="63.29009" lon="9.1082">
        <ele>48.569519</ele>
        <time>2020-08-05T09:23:09.365Z</time>
      </trkpt>
      <trkpt lat="63.29013" lon="9.10839">
        <ele>48.550588</ele>
        <time>2020-08-05T09:23:11.325Z</time>
      </trkpt>
      <trkpt lat="63.29017" lon="9.10858">
        <ele>48.532201</ele>
        <time>2020-08-05T09:23:13.335Z</time>
      </trkpt>
      <trkpt lat="63.29021" lon="9.10877">
        <ele>48.51389</ele>
        <time>2020-08-05T09:23:15.331Z</time>
      </trkpt>
      <trkpt lat="63.29024" lon="9.10896">
        <ele>48.495408</ele>
        <time>2020-08-05T09:23:17.324Z</time>
      </trkpt>
      <trkpt lat="63.29028" lon="9.10915">
        <ele>48.46755</ele>
        <time>2020-08-05T09:23:19.341Z</time>
      </trkpt>
      <trkpt lat="63.29031" lon="9.10933">
        <ele>48.432858</ele>
        <time>2020-08-05T09:23:21.328Z</time>
      </trkpt>
      <trkpt lat="63.29036" lon="9.10961">
        <ele>48.38191</ele>
        <time>2020-08-05T09:23:24.344Z</time>
      </trkpt>
      <trkpt lat="63.29039" lon="9.10979">
        <ele>48.347357</ele>
        <time>2020-08-05T09:23:26.326Z</time>
      </trkpt>
      <trkpt lat="63.29043" lon="9.11007">
        <ele>48.296434</ele>
        <time>2020-08-05T09:23:29.330Z</time>
      </trkpt>
      <trkpt lat="63.29048" lon="9.11034">
        <ele>48.245456</ele>
        <time>2020-08-05T09:23:32.343Z</time>
      </trkpt>
      <trkpt lat="63.29052" lon="9.1106">
        <ele>48.197102</ele>
        <time>2020-08-05T09:23:35.330Z</time>
      </trkpt>
      <trkpt lat="63.29058" lon="9.11086">
        <ele>48.148164</ele>
        <time>2020-08-05T09:23:38.354Z</time>
      </trkpt>
      <trkpt lat="63.29063" lon="9.11112">
        <ele>48.100001</ele>
        <time>2020-08-05T09:23:41.327Z</time>
      </trkpt>
      <trkpt lat="63.29067" lon="9.11137">
        <ele>48.052575</ele>
        <time>2020-08-05T09:23:44.317Z</time>
      </trkpt>
      <trkpt lat="63.29072" lon="9.11163">
        <ele>48.003632</ele>
        <time>2020-08-05T09:23:47.351Z</time>
      </trkpt>
      <trkpt lat="63.29077" lon="9.11188">
        <ele>47.955481</ele>
        <time>2020-08-05T09:23:50.331Z</time>
      </trkpt>
      <trkpt lat="63.29081" lon="9.11212">
        <ele>47.910439</ele>
        <time>2020-08-05T09:23:53.349Z</time>
      </trkpt>
      <trkpt lat="63.29087" lon="9.11235">
        <ele>47.866201</ele>
        <time>2020-08-05T09:23:56.334Z</time>
      </trkpt>
      <trkpt lat="63.29092" lon="9.11257">
        <ele>47.821809</ele>
        <time>2020-08-05T09:23:59.334Z</time>
      </trkpt>
      <trkpt lat="63.29098" lon="9.11279">
        <ele>47.866832</ele>
        <time>2020-08-05T09:24:02.352Z</time>
      </trkpt>
      <trkpt lat="63.29106" lon="9.113">
        <ele>48.092715</ele>
        <time>2020-08-05T09:24:05.342Z</time>
      </trkpt>
      <trkpt lat="63.29113" lon="9.1132">
        <ele>48.310417</ele>
        <time>2020-08-05T09:24:08.336Z</time>
      </trkpt>
      <trkpt lat="63.2912" lon="9.11338">
        <ele>48.515889</ele>
        <time>2020-08-05T09:24:11.325Z</time>
      </trkpt>
      <trkpt lat="63.29128" lon="9.11354">
        <ele>48.723864</ele>
        <time>2020-08-05T09:24:14.354Z</time>
      </trkpt>
      <trkpt lat="63.29137" lon="9.11368">
        <ele>48.932052</ele>
        <time>2020-08-05T09:24:17.318Z</time>
      </trkpt>
      <trkpt lat="63.29147" lon="9.11381">
        <ele>49.14961</ele>
        <time>2020-08-05T09:24:20.325Z</time>
      </trkpt>
      <trkpt lat="63.29157" lon="9.11394">
        <ele>49.364486</ele>
        <time>2020-08-05T09:24:23.320Z</time>
      </trkpt>
      <trkpt lat="63.29167" lon="9.11404">
        <ele>49.574624</ele>
        <time>2020-08-05T09:24:26.334Z</time>
      </trkpt>
      <trkpt lat="63.29178" lon="9.11413">
        <ele>49.78861</ele>
        <time>2020-08-05T09:24:29.339Z</time>
      </trkpt>
      <trkpt lat="63.29189" lon="9.11419">
        <ele>50.007107</ele>
        <time>2020-08-05T09:24:32.319Z</time>
      </trkpt>
      <trkpt lat="63.292" lon="9.11424">
        <ele>50.212047</ele>
        <time>2020-08-05T09:24:35.323Z</time>
      </trkpt>
      <trkpt lat="63.29211" lon="9.11428">
        <ele>50.43381</ele>
        <time>2020-08-05T09:24:38.319Z</time>
      </trkpt>
      <trkpt lat="63.29223" lon="9.11429">
        <ele>50.655335</ele>
        <time>2020-08-05T09:24:41.334Z</time>
      </trkpt>
      <trkpt lat="63.29233" lon="9.11429">
        <ele>50.855826</ele>
        <time>2020-08-05T09:24:44.328Z</time>
      </trkpt>
      <trkpt lat="63.29244" lon="9.11428">
        <ele>51.060237</ele>
        <time>2020-08-05T09:24:47.344Z</time>
      </trkpt>
      <trkpt lat="63.29256" lon="9.11426">
        <ele>51.207013</ele>
        <time>2020-08-05T09:24:50.346Z</time>
      </trkpt>
      <trkpt lat="63.29267" lon="9.11424">
        <ele>51.240057</ele>
        <time>2020-08-05T09:24:53.344Z</time>
      </trkpt>
      <trkpt lat="63.29278" lon="9.11422">
        <ele>51.270696</ele>
        <time>2020-08-05T09:24:56.316Z</time>
      </trkpt>
      <trkpt lat="63.29288" lon="9.11423">
        <ele>51.300731</ele>
        <time>2020-08-05T09:24:59.326Z</time>
      </trkpt>
      <trkpt lat="63.29298" lon="9.11426">
        <ele>51.330972</ele>
        <time>2020-08-05T09:25:02.329Z</time>
      </trkpt>
      <trkpt lat="63.29308" lon="9.11431">
        <ele>51.359621</ele>
        <time>2020-08-05T09:25:05.339Z</time>
      </trkpt>
      <trkpt lat="63.29318" lon="9.11441">
        <ele>51.391613</ele>
        <time>2020-08-05T09:25:08.338Z</time>
      </trkpt>
      <trkpt lat="63.29328" lon="9.11452">
        <ele>51.422832</ele>
        <time>2020-08-05T09:25:11.333Z</time>
      </trkpt>
      <trkpt lat="63.29336" lon="9.11466">
        <ele>51.451519</ele>
        <time>2020-08-05T09:25:14.355Z</time>
      </trkpt>
      <trkpt lat="63.29343" lon="9.11482">
        <ele>51.482708</ele>
        <time>2020-08-05T09:25:17.316Z</time>
      </trkpt>
      <trkpt lat="63.29351" lon="9.115">
        <ele>51.51428</ele>
        <time>2020-08-05T09:25:20.332Z</time>
      </trkpt>
      <trkpt lat="63.29358" lon="9.11519">
        <ele>51.545332</ele>
        <time>2020-08-05T09:25:23.314Z</time>
      </trkpt>
      <trkpt lat="63.29364" lon="9.1154">
        <ele>51.578357</ele>
        <time>2020-08-05T09:25:26.319Z</time>
      </trkpt>
      <trkpt lat="63.29369" lon="9.11561">
        <ele>51.609533</ele>
        <time>2020-08-05T09:25:29.324Z</time>
      </trkpt>
      <trkpt lat="63.29374" lon="9.11583">
        <ele>51.640538</ele>
        <time>2020-08-05T09:25:32.353Z</time>
      </trkpt>
      <trkpt lat="63.29377" lon="9.11606">
        <ele>51.672286</ele>
        <time>2020-08-05T09:25:35.319Z</time>
      </trkpt>
      <trkpt lat="63.29381" lon="9.11629">
        <ele>51.703834</ele>
        <time>2020-08-05T09:25:38.343Z</time>
      </trkpt>
      <trkpt lat="63.29385" lon="9.1165">
        <ele>51.741071</ele>
        <time>2020-08-05T09:25:41.331Z</time>
      </trkpt>
      <trkpt lat="63.29387" lon="9.11672">
        <ele>51.781196</ele>
        <time>2020-08-05T09:25:44.338Z</time>
      </trkpt>
      <trkpt lat="63.2939" lon="9.11694">
        <ele>51.820807</ele>
        <time>2020-08-05T09:25:47.347Z</time>
      </trkpt>
      <trkpt lat="63.29393" lon="9.11715">
        <ele>51.859201</ele>
        <time>2020-08-05T09:25:50.323Z</time>
      </trkpt>
      <trkpt lat="63.29397" lon="9.11736">
        <ele>51.899647</ele>
        <time>2020-08-05T09:25:53.321Z</time>
      </trkpt>
      <trkpt lat="63.29401" lon="9.11757">
        <ele>51.939656</ele>
        <time>2020-08-05T09:25:56.326Z</time>
      </trkpt>
      <trkpt lat="63.29405" lon="9.11778">
        <ele>51.977448</ele>
        <time>2020-08-05T09:25:59.331Z</time>
      </trkpt>
      <trkpt lat="63.29408" lon="9.11798">
        <ele>52.015054</ele>
        <time>2020-08-05T09:26:02.323Z</time>
      </trkpt>
      <trkpt lat="63.2941" lon="9.11818">
        <ele>52.052258</ele>
        <time>2020-08-05T09:26:05.319Z</time>
      </trkpt>
      <trkpt lat="63.29414" lon="9.11838">
        <ele>52.089886</ele>
        <time>2020-08-05T09:26:08.321Z</time>
      </trkpt>
      <trkpt lat="63.29417" lon="9.11859">
        <ele>52.127796</ele>
        <time>2020-08-05T09:26:11.322Z</time>
      </trkpt>
      <trkpt lat="63.29421" lon="9.1188">
        <ele>52.16793</ele>
        <time>2020-08-05T09:26:14.337Z</time>
      </trkpt>
      <trkpt lat="63.29425" lon="9.119">
        <ele>52.205651</ele>
        <time>2020-08-05T09:26:17.343Z</time>
      </trkpt>
      <trkpt lat="63.29429" lon="9.11918">
        <ele>52.241496</ele>
        <time>2020-08-05T09:26:20.356Z</time>
      </trkpt>
      <trkpt lat="63.29434" lon="9.11938">
        <ele>52.280025</ele>
        <time>2020-08-05T09:26:23.318Z</time>
      </trkpt>
      <trkpt lat="63.29439" lon="9.1196">
        <ele>52.32463</ele>
        <time>2020-08-05T09:26:26.324Z</time>
      </trkpt>
      <trkpt lat="63.29445" lon="9.11983">
        <ele>52.370519</ele>
        <time>2020-08-05T09:26:29.338Z</time>
      </trkpt>
      <trkpt lat="63.29452" lon="9.12004">
        <ele>52.431564</ele>
        <time>2020-08-05T09:26:32.337Z</time>
      </trkpt>
      <trkpt lat="63.29459" lon="9.12026">
        <ele>52.747556</ele>
        <time>2020-08-05T09:26:35.345Z</time>
      </trkpt>
      <trkpt lat="63.29466" lon="9.12048">
        <ele>53.067378</ele>
        <time>2020-08-05T09:26:38.334Z</time>
      </trkpt>
      <trkpt lat="63.29474" lon="9.12069">
        <ele>53.388562</ele>
        <time>2020-08-05T09:26:41.339Z</time>
      </trkpt>
      <trkpt lat="63.29481" lon="9.12089">
        <ele>53.700405</ele>
        <time>2020-08-05T09:26:44.342Z</time>
      </trkpt>
      <trkpt lat="63.29488" lon="9.12107">
        <ele>53.987736</ele>
        <time>2020-08-05T09:26:47.363Z</time>
      </trkpt>
      <trkpt lat="63.29496" lon="9.12126">
        <ele>54.289036</ele>
        <time>2020-08-05T09:26:50.323Z</time>
      </trkpt>
      <trkpt lat="63.29505" lon="9.12144">
        <ele>54.600185</ele>
        <time>2020-08-05T09:26:53.362Z</time>
      </trkpt>
      <trkpt lat="63.29515" lon="9.12162">
        <ele>54.937536</ele>
        <time>2020-08-05T09:26:56.321Z</time>
      </trkpt>
      <trkpt lat="63.29525" lon="9.12178">
        <ele>55.2594</ele>
        <time>2020-08-05T09:26:59.326Z</time>
      </trkpt>
      <trkpt lat="63.29534" lon="9.12195">
        <ele>55.575546</ele>
        <time>2020-08-05T09:27:02.337Z</time>
      </trkpt>
      <trkpt lat="63.29543" lon="9.1221">
        <ele>55.886003</ele>
        <time>2020-08-05T09:27:05.324Z</time>
      </trkpt>
      <trkpt lat="63.29553" lon="9.12227">
        <ele>56.199462</ele>
        <time>2020-08-05T09:27:08.310Z</time>
      </trkpt>
      <trkpt lat="63.29562" lon="9.12242">
        <ele>56.50779</ele>
        <time>2020-08-05T09:27:11.317Z</time>
      </trkpt>
      <trkpt lat="63.29572" lon="9.12258">
        <ele>56.819675</ele>
        <time>2020-08-05T09:27:14.326Z</time>
      </trkpt>
      <trkpt lat="63.29581" lon="9.12276">
        <ele>57.142954</ele>
        <time>2020-08-05T09:27:17.309Z</time>
      </trkpt>
      <trkpt lat="63.29591" lon="9.12293">
        <ele>57.281994</ele>
        <time>2020-08-05T09:27:20.338Z</time>
      </trkpt>
      <trkpt lat="63.296" lon="9.1231">
        <ele>57.411169</ele>
        <time>2020-08-05T09:27:23.348Z</time>
      </trkpt>
      <trkpt lat="63.29609" lon="9.12326">
        <ele>57.52876</ele>
        <time>2020-08-05T09:27:26.347Z</time>
      </trkpt>
      <trkpt lat="63.29617" lon="9.12342">
        <ele>57.644006</ele>
        <time>2020-08-05T09:27:29.357Z</time>
      </trkpt>
      <trkpt lat="63.29625" lon="9.12357">
        <ele>57.7547</ele>
        <time>2020-08-05T09:27:32.306Z</time>
      </trkpt>
      <trkpt lat="63.29633" lon="9.12372">
        <ele>57.858143</ele>
        <time>2020-08-05T09:27:35.330Z</time>
      </trkpt>
      <trkpt lat="63.2964" lon="9.12385">
        <ele>57.953183</ele>
        <time>2020-08-05T09:27:38.330Z</time>
      </trkpt>
      <trkpt lat="63.29648" lon="9.124">
        <ele>58.06771</ele>
        <time>2020-08-05T09:27:42.324Z</time>
      </trkpt>
      <trkpt lat="63.29657" lon="9.12414">
        <ele>58.182948</ele>
        <time>2020-08-05T09:27:46.319Z</time>
      </trkpt>
      <trkpt lat="63.29666" lon="9.12429">
        <ele>58.301841</ele>
        <time>2020-08-05T09:27:50.350Z</time>
      </trkpt>
      <trkpt lat="63.29674" lon="9.12444">
        <ele>58.414543</ele>
        <time>2020-08-05T09:27:54.309Z</time>
      </trkpt>
      <trkpt lat="63.29682" lon="9.12457">
        <ele>58.518227</ele>
        <time>2020-08-05T09:27:58.341Z</time>
      </trkpt>
      <trkpt lat="63.29691" lon="9.12469">
        <ele>58.6257</ele>
        <time>2020-08-05T09:28:02.319Z</time>
      </trkpt>
      <trkpt lat="63.297" lon="9.12482">
        <ele>58.739625</ele>
        <time>2020-08-05T09:28:06.312Z</time>
      </trkpt>
      <trkpt lat="63.29709" lon="9.12497">
        <ele>58.854899</ele>
        <time>2020-08-05T09:28:10.336Z</time>
      </trkpt>
      <trkpt lat="63.29719" lon="9.12511">
        <ele>58.979781</ele>
        <time>2020-08-05T09:28:14.321Z</time>
      </trkpt>
      <trkpt lat="63.29729" lon="9.12525">
        <ele>59.045341</ele>
        <time>2020-08-05T09:28:18.315Z</time>
      </trkpt>
      <trkpt lat="63.29737" lon="9.12535">
        <ele>59.040669</ele>
        <time>2020-08-05T09:28:21.301Z</time>
      </trkpt>
      <trkpt lat="63.29746" lon="9.12545">
        <ele>59.035614</ele>
        <time>2020-08-05T09:28:24.308Z</time>
      </trkpt>
      <trkpt lat="63.29757" lon="9.12556">
        <ele>59.029617</ele>
        <time>2020-08-05T09:28:27.313Z</time>
      </trkpt>
      <trkpt lat="63.29765" lon="9.12564">
        <ele>59.025022</ele>
        <time>2020-08-05T09:28:29.323Z</time>
      </trkpt>
      <trkpt lat="63.29775" lon="9.12572">
        <ele>59.020002</ele>
        <time>2020-08-05T09:28:31.348Z</time>
      </trkpt>
      <trkpt lat="63.29784" lon="9.12579">
        <ele>59.015165</ele>
        <time>2020-08-05T09:28:33.310Z</time>
      </trkpt>
      <trkpt lat="63.29793" lon="9.12586">
        <ele>59.010373</ele>
        <time>2020-08-05T09:28:35.353Z</time>
      </trkpt>
      <trkpt lat="63.29802" lon="9.12594">
        <ele>59.005417</ele>
        <time>2020-08-05T09:28:37.329Z</time>
      </trkpt>
      <trkpt lat="63.29811" lon="9.12601">
        <ele>59.000618</ele>
        <time>2020-08-05T09:28:39.337Z</time>
      </trkpt>
      <trkpt lat="63.2982" lon="9.12608">
        <ele>58.995944</ele>
        <time>2020-08-05T09:28:41.334Z</time>
      </trkpt>
      <trkpt lat="63.29832" lon="9.12618">
        <ele>58.989338</ele>
        <time>2020-08-05T09:28:44.308Z</time>
      </trkpt>
      <trkpt lat="63.29843" lon="9.12626">
        <ele>58.983337</ele>
        <time>2020-08-05T09:28:47.321Z</time>
      </trkpt>
      <trkpt lat="63.29854" lon="9.12635">
        <ele>58.977494</ele>
        <time>2020-08-05T09:28:50.333Z</time>
      </trkpt>
      <trkpt lat="63.29864" lon="9.12646">
        <ele>58.971843</ele>
        <time>2020-08-05T09:28:53.340Z</time>
      </trkpt>
      <trkpt lat="63.29874" lon="9.12657">
        <ele>58.966251</ele>
        <time>2020-08-05T09:28:56.362Z</time>
      </trkpt>
      <trkpt lat="63.29883" lon="9.1267">
        <ele>58.961004</ele>
        <time>2020-08-05T09:28:59.347Z</time>
      </trkpt>
      <trkpt lat="63.29893" lon="9.12683">
        <ele>58.930019</ele>
        <time>2020-08-05T09:29:02.381Z</time>
      </trkpt>
      <trkpt lat="63.29902" lon="9.12695">
        <ele>58.868727</ele>
        <time>2020-08-05T09:29:05.331Z</time>
      </trkpt>
      <trkpt lat="63.2991" lon="9.12707">
        <ele>58.809391</ele>
        <time>2020-08-05T09:29:08.318Z</time>
      </trkpt>
      <trkpt lat="63.29919" lon="9.12719">
        <ele>58.750485</ele>
        <time>2020-08-05T09:29:11.339Z</time>
      </trkpt>
      <trkpt lat="63.29927" lon="9.12732">
        <ele>58.694962</ele>
        <time>2020-08-05T09:29:14.355Z</time>
      </trkpt>
      <trkpt lat="63.29935" lon="9.12744">
        <ele>58.636954</ele>
        <time>2020-08-05T09:29:17.314Z</time>
      </trkpt>
      <trkpt lat="63.29943" lon="9.12757">
        <ele>58.578394</ele>
        <time>2020-08-05T09:29:20.322Z</time>
      </trkpt>
      <trkpt lat="63.29952" lon="9.12769">
        <ele>58.518573</ele>
        <time>2020-08-05T09:29:23.325Z</time>
      </trkpt>
      <trkpt lat="63.29961" lon="9.12784">
        <ele>58.453239</ele>
        <time>2020-08-05T09:29:26.347Z</time>
      </trkpt>
      <trkpt lat="63.2997" lon="9.12798">
        <ele>58.385816</ele>
        <time>2020-08-05T09:29:29.319Z</time>
      </trkpt>
      <trkpt lat="63.29979" lon="9.12812">
        <ele>58.325303</ele>
        <time>2020-08-05T09:29:32.346Z</time>
      </trkpt>
      <trkpt lat="63.29988" lon="9.12824">
        <ele>58.263934</ele>
        <time>2020-08-05T09:29:35.340Z</time>
      </trkpt>
      <trkpt lat="63.29996" lon="9.12838">
        <ele>58.201714</ele>
        <time>2020-08-05T09:29:38.343Z</time>
      </trkpt>
      <trkpt lat="63.30006" lon="9.12851">
        <ele>58.135995</ele>
        <time>2020-08-05T09:29:41.322Z</time>
      </trkpt>
      <trkpt lat="63.30016" lon="9.1287">
        <ele>58.061598</ele>
        <time>2020-08-05T09:29:44.316Z</time>
      </trkpt>
      <trkpt lat="63.30023" lon="9.12885">
        <ele>58.003047</ele>
        <time>2020-08-05T09:29:46.347Z</time>
      </trkpt>
      <trkpt lat="63.30032" lon="9.12902">
        <ele>57.936059</ele>
        <time>2020-08-05T09:29:48.328Z</time>
      </trkpt>
      <trkpt lat="63.30042" lon="9.12923">
        <ele>57.544836</ele>
        <time>2020-08-05T09:29:50.325Z</time>
      </trkpt>
      <trkpt lat="63.30052" lon="9.12946">
        <ele>56.974686</ele>
        <time>2020-08-05T09:29:52.343Z</time>
      </trkpt>
      <trkpt lat="63.30063" lon="9.12972">
        <ele>56.354906</ele>
        <time>2020-08-05T09:29:54.328Z</time>
      </trkpt>
      <trkpt lat="63.30074" lon="9.12998">
        <ele>55.715476</ele>
        <time>2020-08-05T09:29:56.322Z</time>
      </trkpt>
      <trkpt lat="63.30085" lon="9.13026">
        <ele>55.056462</ele>
        <time>2020-08-05T09:29:58.352Z</time>
      </trkpt>
      <trkpt lat="63.30097" lon="9.13055">
        <ele>54.360641</ele>
        <time>2020-08-05T09:30:00.314Z</time>
      </trkpt>
      <trkpt lat="63.30109" lon="9.13083">
        <ele>53.677931</ele>
        <time>2020-08-05T09:30:02.350Z</time>
      </trkpt>
      <trkpt lat="63.30121" lon="9.13111">
        <ele>52.982794</ele>
        <time>2020-08-05T09:30:04.323Z</time>
      </trkpt>
      <trkpt lat="63.30134" lon="9.13138">
        <ele>52.284509</ele>
        <time>2020-08-05T09:30:06.347Z</time>
      </trkpt>
      <trkpt lat="63.30142" lon="9.13151">
        <ele>51.927807</ele>
        <time>2020-08-05T09:30:07.343Z</time>
      </trkpt>
      <trkpt lat="63.30149" lon="9.13163">
        <ele>51.572203</ele>
        <time>2020-08-05T09:30:08.328Z</time>
      </trkpt>
      <trkpt lat="63.30156" lon="9.13176">
        <ele>51.207284</ele>
        <time>2020-08-05T09:30:09.337Z</time>
      </trkpt>
      <trkpt lat="63.30164" lon="9.13187">
        <ele>50.847514</ele>
        <time>2020-08-05T09:30:10.323Z</time>
      </trkpt>
      <trkpt lat="63.30178" lon="9.13207">
        <ele>50.913569</ele>
        <time>2020-08-05T09:30:12.318Z</time>
      </trkpt>
      <trkpt lat="63.30193" lon="9.13222">
        <ele>50.979653</ele>
        <time>2020-08-05T09:30:14.343Z</time>
      </trkpt>
      <trkpt lat="63.30208" lon="9.13235">
        <ele>51.042433</ele>
        <time>2020-08-05T09:30:16.350Z</time>
      </trkpt>
      <trkpt lat="63.30222" lon="9.13246">
        <ele>51.102471</ele>
        <time>2020-08-05T09:30:18.312Z</time>
      </trkpt>
      <trkpt lat="63.30235" lon="9.13253">
        <ele>51.156112</ele>
        <time>2020-08-05T09:30:20.328Z</time>
      </trkpt>
      <trkpt lat="63.30246" lon="9.13258">
        <ele>51.201614</ele>
        <time>2020-08-05T09:30:22.314Z</time>
      </trkpt>
      <trkpt lat="63.30256" lon="9.13259">
        <ele>51.238933</ele>
        <time>2020-08-05T09:30:24.339Z</time>
      </trkpt>
      <trkpt lat="63.30267" lon="9.13258">
        <ele>51.285793</ele>
        <time>2020-08-05T09:30:27.309Z</time>
      </trkpt>
      <trkpt lat="63.30277" lon="9.13253">
        <ele>51.32512</ele>
        <time>2020-08-05T09:30:30.340Z</time>
      </trkpt>
      <trkpt lat="63.30288" lon="9.13247">
        <ele>51.370314</ele>
        <time>2020-08-05T09:30:34.360Z</time>
      </trkpt>
      <trkpt lat="63.30296" lon="9.13237">
        <ele>51.408011</ele>
        <time>2020-08-05T09:30:38.339Z</time>
      </trkpt>
      <trkpt lat="63.30305" lon="9.13222">
        <ele>51.451013</ele>
        <time>2020-08-05T09:30:43.347Z</time>
      </trkpt>
      <trkpt lat="63.30312" lon="9.13207">
        <ele>51.490157</ele>
        <time>2020-08-05T09:30:48.315Z</time>
      </trkpt>
      <trkpt lat="63.30319" lon="9.13189">
        <ele>51.533085</ele>
        <time>2020-08-05T09:30:53.321Z</time>
      </trkpt>
      <trkpt lat="63.30324" lon="9.13173">
        <ele>51.585522</ele>
        <time>2020-08-05T09:30:58.321Z</time>
      </trkpt>
      <trkpt lat="63.3033" lon="9.13155">
        <ele>51.761901</ele>
        <time>2020-08-05T09:31:03.322Z</time>
      </trkpt>
      <trkpt lat="63.30338" lon="9.13139">
        <ele>51.954514</ele>
        <time>2020-08-05T09:31:08.328Z</time>
      </trkpt>
      <trkpt lat="63.30345" lon="9.13122">
        <ele>52.144544</ele>
        <time>2020-08-05T09:31:13.337Z</time>
      </trkpt>
      <trkpt lat="63.30353" lon="9.13108">
        <ele>52.327834</ele>
        <time>2020-08-05T09:31:18.354Z</time>
      </trkpt>
      <trkpt lat="63.30362" lon="9.131">
        <ele>52.489086</ele>
        <time>2020-08-05T09:31:22.332Z</time>
      </trkpt>
      <trkpt lat="63.30372" lon="9.13092">
        <ele>52.678112</ele>
        <time>2020-08-05T09:31:27.342Z</time>
      </trkpt>
      <trkpt lat="63.30382" lon="9.13086">
        <ele>52.875831</ele>
        <time>2020-08-05T09:31:32.373Z</time>
      </trkpt>
      <trkpt lat="63.30393" lon="9.13081">
        <ele>53.070356</ele>
        <time>2020-08-05T09:31:37.354Z</time>
      </trkpt>
      <trkpt lat="63.30402" lon="9.1308">
        <ele>53.231332</ele>
        <time>2020-08-05T09:31:41.354Z</time>
      </trkpt>
      <trkpt lat="63.30412" lon="9.13082">
        <ele>53.410324</ele>
        <time>2020-08-05T09:31:45.326Z</time>
      </trkpt>
      <trkpt lat="63.30422" lon="9.13086">
        <ele>53.594173</ele>
        <time>2020-08-05T09:31:49.387Z</time>
      </trkpt>
      <trkpt lat="63.30432" lon="9.13096">
        <ele>53.782244</ele>
        <time>2020-08-05T09:31:53.319Z</time>
      </trkpt>
      <trkpt lat="63.3044" lon="9.13109">
        <ele>53.962051</ele>
        <time>2020-08-05T09:31:56.330Z</time>
      </trkpt>
      <trkpt lat="63.30449" lon="9.13128">
        <ele>54.182458</ele>
        <time>2020-08-05T09:31:59.366Z</time>
      </trkpt>
      <trkpt lat="63.30456" lon="9.13143">
        <ele>54.356773</ele>
        <time>2020-08-05T09:32:01.334Z</time>
      </trkpt>
      <trkpt lat="63.30464" lon="9.13161">
        <ele>54.562373</ele>
        <time>2020-08-05T09:32:03.362Z</time>
      </trkpt>
      <trkpt lat="63.30473" lon="9.13182">
        <ele>54.762284</ele>
        <time>2020-08-05T09:32:05.351Z</time>
      </trkpt>
      <trkpt lat="63.30483" lon="9.13205">
        <ele>54.554068</ele>
        <time>2020-08-05T09:32:07.312Z</time>
      </trkpt>
      <trkpt lat="63.30496" lon="9.13228">
        <ele>54.321879</ele>
        <time>2020-08-05T09:32:09.372Z</time>
      </trkpt>
      <trkpt lat="63.3051" lon="9.13251">
        <ele>54.064563</ele>
        <time>2020-08-05T09:32:11.343Z</time>
      </trkpt>
      <trkpt lat="63.30527" lon="9.13267">
        <ele>53.809682</ele>
        <time>2020-08-05T09:32:13.378Z</time>
      </trkpt>
      <trkpt lat="63.30535" lon="9.13272">
        <ele>53.677978</ele>
        <time>2020-08-05T09:32:14.329Z</time>
      </trkpt>
      <trkpt lat="63.30545" lon="9.13274">
        <ele>53.546262</ele>
        <time>2020-08-05T09:32:15.350Z</time>
      </trkpt>
      <trkpt lat="63.30554" lon="9.13274">
        <ele>53.415497</ele>
        <time>2020-08-05T09:32:16.326Z</time>
      </trkpt>
      <trkpt lat="63.30571" lon="9.13269">
        <ele>53.168903</ele>
        <time>2020-08-05T09:32:18.341Z</time>
      </trkpt>
      <trkpt lat="63.30586" lon="9.13261">
        <ele>52.949455</ele>
        <time>2020-08-05T09:32:20.331Z</time>
      </trkpt>
      <trkpt lat="63.30599" lon="9.13254">
        <ele>52.748932</ele>
        <time>2020-08-05T09:32:22.335Z</time>
      </trkpt>
      <trkpt lat="63.30611" lon="9.13248">
        <ele>52.574072</ele>
        <time>2020-08-05T09:32:24.340Z</time>
      </trkpt>
      <trkpt lat="63.30622" lon="9.13243">
        <ele>52.414773</ele>
        <time>2020-08-05T09:32:26.346Z</time>
      </trkpt>
      <trkpt lat="63.30631" lon="9.13236">
        <ele>52.272383</ele>
        <time>2020-08-05T09:32:28.335Z</time>
      </trkpt>
      <trkpt lat="63.30644" lon="9.13229">
        <ele>52.08627</ele>
        <time>2020-08-05T09:32:31.323Z</time>
      </trkpt>
      <trkpt lat="63.30655" lon="9.13222">
        <ele>51.930375</ele>
        <time>2020-08-05T09:32:34.320Z</time>
      </trkpt>
      <trkpt lat="63.30664" lon="9.13216">
        <ele>51.796217</ele>
        <time>2020-08-05T09:32:37.328Z</time>
      </trkpt>
      <trkpt lat="63.30673" lon="9.13211">
        <ele>51.656273</ele>
        <time>2020-08-05T09:32:40.385Z</time>
      </trkpt>
      <trkpt lat="63.30683" lon="9.13206">
        <ele>51.513443</ele>
        <time>2020-08-05T09:32:43.342Z</time>
      </trkpt>
      <trkpt lat="63.30697" lon="9.13198">
        <ele>51.31925</ele>
        <time>2020-08-05T09:32:46.306Z</time>
      </trkpt>
      <trkpt lat="63.30707" lon="9.13193">
        <ele>51.17585</ele>
        <time>2020-08-05T09:32:48.325Z</time>
      </trkpt>
      <trkpt lat="63.30718" lon="9.13188">
        <ele>51.012212</ele>
        <time>2020-08-05T09:32:50.317Z</time>
      </trkpt>
      <trkpt lat="63.3073" lon="9.13184">
        <ele>50.843816</ele>
        <time>2020-08-05T09:32:52.350Z</time>
      </trkpt>
      <trkpt lat="63.30742" lon="9.13178">
        <ele>50.674284</ele>
        <time>2020-08-05T09:32:54.339Z</time>
      </trkpt>
      <trkpt lat="63.30753" lon="9.13171">
        <ele>50.502987</ele>
        <time>2020-08-05T09:32:56.332Z</time>
      </trkpt>
      <trkpt lat="63.30765" lon="9.13164">
        <ele>50.337095</ele>
        <time>2020-08-05T09:32:58.342Z</time>
      </trkpt>
      <trkpt lat="63.30775" lon="9.13159">
        <ele>50.189141</ele>
        <time>2020-08-05T09:33:00.331Z</time>
      </trkpt>
      <trkpt lat="63.30784" lon="9.13153">
        <ele>50.059391</ele>
        <time>2020-08-05T09:33:02.329Z</time>
      </trkpt>
      <trkpt lat="63.30794" lon="9.13147">
        <ele>49.903856</ele>
        <time>2020-08-05T09:33:05.369Z</time>
      </trkpt>
      <trkpt lat="63.30804" lon="9.1314">
        <ele>49.764072</ele>
        <time>2020-08-05T09:33:09.331Z</time>
      </trkpt>
      <trkpt lat="63.30815" lon="9.13136">
        <ele>49.865768</ele>
        <time>2020-08-05T09:33:14.315Z</time>
      </trkpt>
      <trkpt lat="63.30823" lon="9.13129">
        <ele>50.38059</ele>
        <time>2020-08-05T09:33:18.339Z</time>
      </trkpt>
      <trkpt lat="63.30833" lon="9.13126">
        <ele>50.936105</ele>
        <time>2020-08-05T09:33:22.323Z</time>
      </trkpt>
      <trkpt lat="63.30844" lon="9.1312">
        <ele>51.547291</ele>
        <time>2020-08-05T09:33:27.358Z</time>
      </trkpt>
      <trkpt lat="63.30854" lon="9.13119">
        <ele>52.112323</ele>
        <time>2020-08-05T09:33:32.343Z</time>
      </trkpt>
      <trkpt lat="63.30864" lon="9.13119">
        <ele>52.704216</ele>
        <time>2020-08-05T09:33:37.326Z</time>
      </trkpt>
      <trkpt lat="63.30874" lon="9.13119">
        <ele>53.279267</ele>
        <time>2020-08-05T09:33:42.326Z</time>
      </trkpt>
      <trkpt lat="63.30884" lon="9.13119">
        <ele>53.820326</ele>
        <time>2020-08-05T09:33:47.346Z</time>
      </trkpt>
      <trkpt lat="63.30894" lon="9.13119">
        <ele>54.378321</ele>
        <time>2020-08-05T09:33:52.330Z</time>
      </trkpt>
      <trkpt lat="63.30904" lon="9.13123">
        <ele>54.942863</ele>
        <time>2020-08-05T09:33:57.385Z</time>
      </trkpt>
      <trkpt lat="63.30913" lon="9.13126">
        <ele>55.48129</ele>
        <time>2020-08-05T09:34:02.361Z</time>
      </trkpt>
      <trkpt lat="63.30922" lon="9.13133">
        <ele>56.018371</ele>
        <time>2020-08-05T09:34:07.322Z</time>
      </trkpt>
      <trkpt lat="63.30931" lon="9.13138">
        <ele>56.52671</ele>
        <time>2020-08-05T09:34:12.355Z</time>
      </trkpt>
      <trkpt lat="63.3094" lon="9.13146">
        <ele>57.070524</ele>
        <time>2020-08-05T09:34:17.327Z</time>
      </trkpt>
      <trkpt lat="63.30948" lon="9.13154">
        <ele>57.575083</ele>
        <time>2020-08-05T09:34:23.343Z</time>
      </trkpt>
      <trkpt lat="63.30956" lon="9.13166">
        <ele>58.107682</ele>
        <time>2020-08-05T09:34:29.346Z</time>
      </trkpt>
      <trkpt lat="63.30964" lon="9.13175">
        <ele>58.632192</ele>
        <time>2020-08-05T09:34:35.309Z</time>
      </trkpt>
      <trkpt lat="63.30972" lon="9.13186">
        <ele>59.152556</ele>
        <time>2020-08-05T09:34:41.320Z</time>
      </trkpt>
      <trkpt lat="63.3098" lon="9.13198">
        <ele>59.682266</ele>
        <time>2020-08-05T09:34:48.346Z</time>
      </trkpt>
      <trkpt lat="63.30987" lon="9.13211">
        <ele>60.118545</ele>
        <time>2020-08-05T09:34:55.326Z</time>
      </trkpt>
      <trkpt lat="63.30995" lon="9.13225">
        <ele>60.530647</ele>
        <time>2020-08-05T09:35:02.328Z</time>
      </trkpt>
      <trkpt lat="63.31003" lon="9.13239">
        <ele>60.964187</ele>
        <time>2020-08-05T09:35:09.324Z</time>
      </trkpt>
      <trkpt lat="63.31009" lon="9.13255">
        <ele>61.358473</ele>
        <time>2020-08-05T09:35:16.379Z</time>
      </trkpt>
      <trkpt lat="63.31015" lon="9.1327">
        <ele>61.742891</ele>
        <time>2020-08-05T09:35:23.326Z</time>
      </trkpt>
      <trkpt lat="63.31021" lon="9.13286">
        <ele>62.133082</ele>
        <time>2020-08-05T09:35:30.345Z</time>
      </trkpt>
      <trkpt lat="63.31026" lon="9.13306">
        <ele>62.556136</ele>
        <time>2020-08-05T09:35:37.350Z</time>
      </trkpt>
      <trkpt lat="63.31031" lon="9.13323">
        <ele>62.951805</ele>
        <time>2020-08-05T09:35:43.319Z</time>
      </trkpt>
      <trkpt lat="63.31035" lon="9.13342">
        <ele>63.352829</ele>
        <time>2020-08-05T09:35:50.329Z</time>
      </trkpt>
      <trkpt lat="63.31039" lon="9.13361">
        <ele>63.74501</ele>
        <time>2020-08-05T09:35:56.328Z</time>
      </trkpt>
      <trkpt lat="63.31044" lon="9.13379">
        <ele>64.134942</ele>
        <time>2020-08-05T09:36:02.334Z</time>
      </trkpt>
      <trkpt lat="63.31048" lon="9.13397">
        <ele>64.519993</ele>
        <time>2020-08-05T09:36:08.326Z</time>
      </trkpt>
      <trkpt lat="63.31053" lon="9.13418">
        <ele>64.962802</ele>
        <time>2020-08-05T09:36:14.370Z</time>
      </trkpt>
      <trkpt lat="63.31056" lon="9.13437">
        <ele>65.359006</ele>
        <time>2020-08-05T09:36:19.340Z</time>
      </trkpt>
      <trkpt lat="63.31061" lon="9.13458">
        <ele>65.799338</ele>
        <time>2020-08-05T09:36:24.332Z</time>
      </trkpt>
      <trkpt lat="63.31064" lon="9.13477">
        <ele>66.189798</ele>
        <time>2020-08-05T09:36:28.337Z</time>
      </trkpt>
      <trkpt lat="63.31068" lon="9.13498">
        <ele>66.626648</ele>
        <time>2020-08-05T09:36:32.320Z</time>
      </trkpt>
      <trkpt lat="63.31072" lon="9.1352">
        <ele>67.074139</ele>
        <time>2020-08-05T09:36:36.319Z</time>
      </trkpt>
      <trkpt lat="63.31077" lon="9.13544">
        <ele>67.275583</ele>
        <time>2020-08-05T09:36:40.345Z</time>
      </trkpt>
      <trkpt lat="63.31081" lon="9.13567">
        <ele>66.996442</ele>
        <time>2020-08-05T09:36:44.323Z</time>
      </trkpt>
      <trkpt lat="63.31085" lon="9.13588">
        <ele>66.742406</ele>
        <time>2020-08-05T09:36:48.341Z</time>
      </trkpt>
      <trkpt lat="63.3109" lon="9.1361">
        <ele>66.483369</ele>
        <time>2020-08-05T09:36:52.321Z</time>
      </trkpt>
      <trkpt lat="63.31094" lon="9.13634">
        <ele>66.19823</ele>
        <time>2020-08-05T09:36:56.331Z</time>
      </trkpt>
      <trkpt lat="63.31099" lon="9.13658">
        <ele>65.914188</ele>
        <time>2020-08-05T09:37:00.326Z</time>
      </trkpt>
      <trkpt lat="63.31103" lon="9.1368">
        <ele>65.647109</ele>
        <time>2020-08-05T09:37:04.359Z</time>
      </trkpt>
      <trkpt lat="63.31107" lon="9.13703">
        <ele>65.377722</ele>
        <time>2020-08-05T09:37:08.357Z</time>
      </trkpt>
      <trkpt lat="63.31111" lon="9.13722">
        <ele>65.14749</ele>
        <time>2020-08-05T09:37:11.344Z</time>
      </trkpt>
      <trkpt lat="63.31115" lon="9.13743">
        <ele>64.891401</ele>
        <time>2020-08-05T09:37:14.345Z</time>
      </trkpt>
      <trkpt lat="63.31119" lon="9.13764">
        <ele>64.64237</ele>
        <time>2020-08-05T09:37:17.312Z</time>
      </trkpt>
      <trkpt lat="63.31124" lon="9.13785">
        <ele>64.387092</ele>
        <time>2020-08-05T09:37:20.353Z</time>
      </trkpt>
      <trkpt lat="63.31128" lon="9.13807">
        <ele>64.125743</ele>
        <time>2020-08-05T09:37:23.326Z</time>
      </trkpt>
      <trkpt lat="63.31132" lon="9.13829">
        <ele>63.859709</ele>
        <time>2020-08-05T09:37:26.335Z</time>
      </trkpt>
      <trkpt lat="63.31137" lon="9.13852">
        <ele>63.585469</ele>
        <time>2020-08-05T09:37:29.341Z</time>
      </trkpt>
      <trkpt lat="63.31142" lon="9.13877">
        <ele>63.286417</ele>
        <time>2020-08-05T09:37:32.340Z</time>
      </trkpt>
      <trkpt lat="63.31146" lon="9.13902">
        <ele>62.991355</ele>
        <time>2020-08-05T09:37:35.356Z</time>
      </trkpt>
      <trkpt lat="63.31151" lon="9.13928">
        <ele>63.575347</ele>
        <time>2020-08-05T09:37:38.318Z</time>
      </trkpt>
      <trkpt lat="63.31156" lon="9.13954">
        <ele>64.184351</ele>
        <time>2020-08-05T09:37:41.363Z</time>
      </trkpt>
      <trkpt lat="63.31162" lon="9.13979">
        <ele>64.785956</ele>
        <time>2020-08-05T09:37:44.319Z</time>
      </trkpt>
      <trkpt lat="63.31167" lon="9.14006">
        <ele>65.400883</ele>
        <time>2020-08-05T09:37:47.338Z</time>
      </trkpt>
      <trkpt lat="63.31172" lon="9.14029">
        <ele>65.961079</ele>
        <time>2020-08-05T09:37:50.316Z</time>
      </trkpt>
      <trkpt lat="63.31176" lon="9.14051">
        <ele>66.457451</ele>
        <time>2020-08-05T09:37:53.316Z</time>
      </trkpt>
      <trkpt lat="63.3118" lon="9.14075">
        <ele>67.006183</ele>
        <time>2020-08-05T09:37:57.327Z</time>
      </trkpt>
      <trkpt lat="63.31184" lon="9.14094">
        <ele>67.457165</ele>
        <time>2020-08-05T09:38:01.320Z</time>
      </trkpt>
      <trkpt lat="63.31187" lon="9.14113">
        <ele>67.887352</ele>
        <time>2020-08-05T09:38:06.348Z</time>
      </trkpt>
      <trkpt lat="63.31192" lon="9.14133">
        <ele>68.360543</ele>
        <time>2020-08-05T09:38:12.324Z</time>
      </trkpt>
      <trkpt lat="63.31195" lon="9.14153">
        <ele>68.834943</ele>
        <time>2020-08-05T09:38:19.341Z</time>
      </trkpt>
      <trkpt lat="63.31199" lon="9.14171">
        <ele>69.27029</ele>
        <time>2020-08-05T09:38:27.318Z</time>
      </trkpt>
      <trkpt lat="63.31203" lon="9.14192">
        <ele>69.737882</ele>
        <time>2020-08-05T09:38:35.334Z</time>
      </trkpt>
      <trkpt lat="63.31207" lon="9.14212">
        <ele>70.220579</ele>
        <time>2020-08-05T09:38:44.325Z</time>
      </trkpt>
      <trkpt lat="63.31211" lon="9.14231">
        <ele>70.656462</ele>
        <time>2020-08-05T09:38:51.333Z</time>
      </trkpt>
      <trkpt lat="63.31216" lon="9.14249">
        <ele>71.124977</ele>
        <time>2020-08-05T09:38:58.338Z</time>
      </trkpt>
      <trkpt lat="63.31218" lon="9.14269">
        <ele>71.568491</ele>
        <time>2020-08-05T09:39:07.328Z</time>
      </trkpt>
      <trkpt lat="63.31222" lon="9.14289">
        <ele>72.154593</ele>
        <time>2020-08-05T09:39:15.330Z</time>
      </trkpt>
      <trkpt lat="63.31226" lon="9.14308">
        <ele>72.74073</ele>
        <time>2020-08-05T09:39:24.367Z</time>
      </trkpt>
      <trkpt lat="63.3123" lon="9.14328">
        <ele>73.352305</ele>
        <time>2020-08-05T09:39:32.338Z</time>
      </trkpt>
      <trkpt lat="63.31234" lon="9.14347">
        <ele>73.933864</ele>
        <time>2020-08-05T09:39:41.336Z</time>
      </trkpt>
      <trkpt lat="63.31238" lon="9.14365">
        <ele>74.490705</ele>
        <time>2020-08-05T09:39:49.344Z</time>
      </trkpt>
      <trkpt lat="63.31244" lon="9.14383">
        <ele>75.097486</ele>
        <time>2020-08-05T09:39:57.327Z</time>
      </trkpt>
      <trkpt lat="63.31248" lon="9.14401">
        <ele>75.680136</ele>
        <time>2020-08-05T09:40:06.326Z</time>
      </trkpt>
      <trkpt lat="63.31254" lon="9.14418">
        <ele>76.26808</ele>
        <time>2020-08-05T09:40:15.362Z</time>
      </trkpt>
      <trkpt lat="63.31261" lon="9.14436">
        <ele>76.900059</ele>
        <time>2020-08-05T09:40:23.337Z</time>
      </trkpt>
      <trkpt lat="63.31267" lon="9.1445">
        <ele>77.471139</ele>
        <time>2020-08-05T09:40:30.329Z</time>
      </trkpt>
      <trkpt lat="63.31273" lon="9.14466">
        <ele>78.048744</ele>
        <time>2020-08-05T09:40:37.339Z</time>
      </trkpt>
      <trkpt lat="63.31271" lon="9.14487">
        <ele>78.650392</ele>
        <time>2020-08-05T09:40:45.364Z</time>
      </trkpt>
      <trkpt lat="63.3128" lon="9.14485">
        <ele>79.213724</ele>
        <time>2020-08-05T09:55:37.382Z</time>
      </trkpt>
      <trkpt lat="63.3129" lon="9.14493">
        <ele>79.905663</ele>
        <time>2020-08-05T09:55:41.321Z</time>
      </trkpt>
      <trkpt lat="63.313" lon="9.14507">
        <ele>80.594689</ele>
        <time>2020-08-05T09:55:45.322Z</time>
      </trkpt>
      <trkpt lat="63.31308" lon="9.14517">
        <ele>81.172522</ele>
        <time>2020-08-05T09:55:48.340Z</time>
      </trkpt>
      <trkpt lat="63.31317" lon="9.14527">
        <ele>81.759865</ele>
        <time>2020-08-05T09:55:51.340Z</time>
      </trkpt>
      <trkpt lat="63.31326" lon="9.14536">
        <ele>82.381971</ele>
        <time>2020-08-05T09:55:54.307Z</time>
      </trkpt>
      <trkpt lat="63.31335" lon="9.14544">
        <ele>82.387195</ele>
        <time>2020-08-05T09:55:57.314Z</time>
      </trkpt>
      <trkpt lat="63.31344" lon="9.14552">
        <ele>81.918002</ele>
        <time>2020-08-05T09:56:00.319Z</time>
      </trkpt>
      <trkpt lat="63.31354" lon="9.1456">
        <ele>81.376923</ele>
        <time>2020-08-05T09:56:03.316Z</time>
      </trkpt>
      <trkpt lat="63.31366" lon="9.14566">
        <ele>80.797208</ele>
        <time>2020-08-05T09:56:06.328Z</time>
      </trkpt>
      <trkpt lat="63.31378" lon="9.14571">
        <ele>80.197073</ele>
        <time>2020-08-05T09:56:09.323Z</time>
      </trkpt>
      <trkpt lat="63.3139" lon="9.14572">
        <ele>79.628098</ele>
        <time>2020-08-05T09:56:12.327Z</time>
      </trkpt>
      <trkpt lat="63.314" lon="9.14574">
        <ele>79.169834</ele>
        <time>2020-08-05T09:56:14.351Z</time>
      </trkpt>
      <trkpt lat="63.3141" lon="9.14576">
        <ele>78.653509</ele>
        <time>2020-08-05T09:56:16.350Z</time>
      </trkpt>
      <trkpt lat="63.31423" lon="9.14578">
        <ele>78.063994</ele>
        <time>2020-08-05T09:56:18.319Z</time>
      </trkpt>
      <trkpt lat="63.31437" lon="9.14584">
        <ele>77.375937</ele>
        <time>2020-08-05T09:56:20.320Z</time>
      </trkpt>
      <trkpt lat="63.31452" lon="9.14593">
        <ele>76.605851</ele>
        <time>2020-08-05T09:56:22.356Z</time>
      </trkpt>
      <trkpt lat="63.31467" lon="9.14612">
        <ele>75.790231</ele>
        <time>2020-08-05T09:56:24.313Z</time>
      </trkpt>
      <trkpt lat="63.31479" lon="9.14641">
        <ele>74.925116</ele>
        <time>2020-08-05T09:56:26.331Z</time>
      </trkpt>
      <trkpt lat="63.31484" lon="9.14658">
        <ele>74.478858</ele>
        <time>2020-08-05T09:56:27.325Z</time>
      </trkpt>
      <trkpt lat="63.31489" lon="9.14675">
        <ele>74.040686</ele>
        <time>2020-08-05T09:56:28.328Z</time>
      </trkpt>
      <trkpt lat="63.31494" lon="9.14693">
        <ele>73.570109</ele>
        <time>2020-08-05T09:56:29.349Z</time>
      </trkpt>
      <trkpt lat="63.31499" lon="9.14711">
        <ele>73.074265</ele>
        <time>2020-08-05T09:56:30.350Z</time>
      </trkpt>
      <trkpt lat="63.31506" lon="9.14729">
        <ele>72.561835</ele>
        <time>2020-08-05T09:56:31.339Z</time>
      </trkpt>
      <trkpt lat="63.31513" lon="9.14746">
        <ele>72.033073</ele>
        <time>2020-08-05T09:56:32.342Z</time>
      </trkpt>
      <trkpt lat="63.31522" lon="9.14762">
        <ele>71.459097</ele>
        <time>2020-08-05T09:56:33.371Z</time>
      </trkpt>
      <trkpt lat="63.31532" lon="9.14776">
        <ele>70.85441</ele>
        <time>2020-08-05T09:56:34.336Z</time>
      </trkpt>
      <trkpt lat="63.31543" lon="9.14789">
        <ele>70.227548</ele>
        <time>2020-08-05T09:56:35.327Z</time>
      </trkpt>
      <trkpt lat="63.31554" lon="9.14802">
        <ele>69.580464</ele>
        <time>2020-08-05T09:56:36.321Z</time>
      </trkpt>
      <trkpt lat="63.31566" lon="9.14817">
        <ele>68.918298</ele>
        <time>2020-08-05T09:56:37.326Z</time>
      </trkpt>
      <trkpt lat="63.31577" lon="9.14832">
        <ele>68.228157</ele>
        <time>2020-08-05T09:56:38.341Z</time>
      </trkpt>
      <trkpt lat="63.31589" lon="9.1485">
        <ele>67.516871</ele>
        <time>2020-08-05T09:56:39.326Z</time>
      </trkpt>
      <trkpt lat="63.31601" lon="9.14868">
        <ele>66.789077</ele>
        <time>2020-08-05T09:56:40.328Z</time>
      </trkpt>
      <trkpt lat="63.31612" lon="9.14888">
        <ele>66.058399</ele>
        <time>2020-08-05T09:56:41.345Z</time>
      </trkpt>
      <trkpt lat="63.31623" lon="9.14909">
        <ele>65.328721</ele>
        <time>2020-08-05T09:56:42.322Z</time>
      </trkpt>
      <trkpt lat="63.31633" lon="9.1493">
        <ele>64.73507</ele>
        <time>2020-08-05T09:56:43.344Z</time>
      </trkpt>
      <trkpt lat="63.31644" lon="9.14949">
        <ele>64.307454</ele>
        <time>2020-08-05T09:56:44.333Z</time>
      </trkpt>
      <trkpt lat="63.31656" lon="9.14965">
        <ele>63.900199</ele>
        <time>2020-08-05T09:56:45.354Z</time>
      </trkpt>
      <trkpt lat="63.31667" lon="9.14976">
        <ele>63.518009</ele>
        <time>2020-08-05T09:56:46.334Z</time>
      </trkpt>
      <trkpt lat="63.31679" lon="9.14982">
        <ele>63.138729</ele>
        <time>2020-08-05T09:56:47.350Z</time>
      </trkpt>
      <trkpt lat="63.31692" lon="9.14986">
        <ele>62.750064</ele>
        <time>2020-08-05T09:56:48.340Z</time>
      </trkpt>
      <trkpt lat="63.31704" lon="9.14989">
        <ele>62.378755</ele>
        <time>2020-08-05T09:56:49.342Z</time>
      </trkpt>
      <trkpt lat="63.31715" lon="9.14991">
        <ele>62.038229</ele>
        <time>2020-08-05T09:56:50.363Z</time>
      </trkpt>
      <trkpt lat="63.31726" lon="9.14997">
        <ele>61.707228</ele>
        <time>2020-08-05T09:56:51.322Z</time>
      </trkpt>
      <trkpt lat="63.31735" lon="9.15002">
        <ele>61.406201</ele>
        <time>2020-08-05T09:56:52.326Z</time>
      </trkpt>
      <trkpt lat="63.31744" lon="9.1501">
        <ele>61.129461</ele>
        <time>2020-08-05T09:56:53.328Z</time>
      </trkpt>
      <trkpt lat="63.31752" lon="9.1502">
        <ele>60.844624</ele>
        <time>2020-08-05T09:56:54.337Z</time>
      </trkpt>
      <trkpt lat="63.31765" lon="9.15044">
        <ele>60.317378</ele>
        <time>2020-08-05T09:56:56.337Z</time>
      </trkpt>
      <trkpt lat="63.31776" lon="9.15072">
        <ele>59.810435</ele>
        <time>2020-08-05T09:56:58.316Z</time>
      </trkpt>
      <trkpt lat="63.31785" lon="9.15102">
        <ele>59.32937</ele>
        <time>2020-08-05T09:57:00.344Z</time>
      </trkpt>
      <trkpt lat="63.31794" lon="9.15134">
        <ele>58.888692</ele>
        <time>2020-08-05T09:57:02.358Z</time>
      </trkpt>
      <trkpt lat="63.31802" lon="9.15164">
        <ele>58.476283</ele>
        <time>2020-08-05T09:57:04.321Z</time>
      </trkpt>
      <trkpt lat="63.31809" lon="9.15191">
        <ele>58.110702</ele>
        <time>2020-08-05T09:57:06.353Z</time>
      </trkpt>
      <trkpt lat="63.31815" lon="9.15214">
        <ele>57.794551</ele>
        <time>2020-08-05T09:57:08.329Z</time>
      </trkpt>
      <trkpt lat="63.3182" lon="9.15237">
        <ele>57.494905</ele>
        <time>2020-08-05T09:57:10.334Z</time>
      </trkpt>
      <trkpt lat="63.31825" lon="9.15258">
        <ele>57.218593</ele>
        <time>2020-08-05T09:57:12.330Z</time>
      </trkpt>
      <trkpt lat="63.31829" lon="9.15277">
        <ele>56.969054</ele>
        <time>2020-08-05T09:57:14.330Z</time>
      </trkpt>
      <trkpt lat="63.31835" lon="9.153">
        <ele>56.65194</ele>
        <time>2020-08-05T09:57:17.362Z</time>
      </trkpt>
      <trkpt lat="63.31841" lon="9.15321">
        <ele>56.364772</ele>
        <time>2020-08-05T09:57:20.351Z</time>
      </trkpt>
      <trkpt lat="63.31845" lon="9.1534">
        <ele>56.108951</ele>
        <time>2020-08-05T09:57:23.320Z</time>
      </trkpt>
      <trkpt lat="63.3185" lon="9.1536">
        <ele>55.849683</ele>
        <time>2020-08-05T09:57:26.337Z</time>
      </trkpt>
      <trkpt lat="63.31856" lon="9.1538">
        <ele>55.56657</ele>
        <time>2020-08-05T09:57:29.356Z</time>
      </trkpt>
      <trkpt lat="63.31861" lon="9.15401">
        <ele>55.285922</ele>
        <time>2020-08-05T09:57:32.301Z</time>
      </trkpt>
      <trkpt lat="63.31866" lon="9.15423">
        <ele>54.994502</ele>
        <time>2020-08-05T09:57:35.347Z</time>
      </trkpt>
      <trkpt lat="63.31872" lon="9.15445">
        <ele>54.698999</ele>
        <time>2020-08-05T09:57:38.327Z</time>
      </trkpt>
      <trkpt lat="63.31878" lon="9.15466">
        <ele>54.68335</ele>
        <time>2020-08-05T09:57:41.339Z</time>
      </trkpt>
      <trkpt lat="63.31885" lon="9.15488">
        <ele>54.666309</ele>
        <time>2020-08-05T09:57:44.331Z</time>
      </trkpt>
      <trkpt lat="63.31891" lon="9.15514">
        <ele>54.647356</ele>
        <time>2020-08-05T09:57:47.342Z</time>
      </trkpt>
      <trkpt lat="63.31896" lon="9.15533">
        <ele>54.633156</ele>
        <time>2020-08-05T09:57:49.334Z</time>
      </trkpt>
      <trkpt lat="63.31901" lon="9.15554">
        <ele>54.617767</ele>
        <time>2020-08-05T09:57:51.363Z</time>
      </trkpt>
      <trkpt lat="63.31905" lon="9.15578">
        <ele>54.601224</ele>
        <time>2020-08-05T09:57:53.332Z</time>
      </trkpt>
      <trkpt lat="63.3191" lon="9.15604">
        <ele>54.58339</ele>
        <time>2020-08-05T09:57:55.343Z</time>
      </trkpt>
      <trkpt lat="63.31915" lon="9.15632">
        <ele>54.564007</ele>
        <time>2020-08-05T09:57:57.373Z</time>
      </trkpt>
      <trkpt lat="63.3192" lon="9.1566">
        <ele>54.544632</ele>
        <time>2020-08-05T09:57:59.354Z</time>
      </trkpt>
      <trkpt lat="63.31925" lon="9.15688">
        <ele>54.525049</ele>
        <time>2020-08-05T09:58:01.356Z</time>
      </trkpt>
      <trkpt lat="63.3193" lon="9.15717">
        <ele>54.505527</ele>
        <time>2020-08-05T09:58:03.333Z</time>
      </trkpt>
      <trkpt lat="63.31933" lon="9.15745">
        <ele>54.486738</ele>
        <time>2020-08-05T09:58:05.317Z</time>
      </trkpt>
      <trkpt lat="63.31937" lon="9.15771">
        <ele>54.468771</ele>
        <time>2020-08-05T09:58:07.338Z</time>
      </trkpt>
      <trkpt lat="63.31941" lon="9.15796">
        <ele>54.452029</ele>
        <time>2020-08-05T09:58:09.341Z</time>
      </trkpt>
      <trkpt lat="63.31944" lon="9.15819">
        <ele>54.541137</ele>
        <time>2020-08-05T09:58:11.352Z</time>
      </trkpt>
      <trkpt lat="63.31948" lon="9.1584">
        <ele>54.780481</ele>
        <time>2020-08-05T09:58:13.352Z</time>
      </trkpt>
      <trkpt lat="63.31952" lon="9.15859">
        <ele>55.008658</ele>
        <time>2020-08-05T09:58:15.324Z</time>
      </trkpt>
      <trkpt lat="63.31957" lon="9.15884">
        <ele>55.313924</ele>
        <time>2020-08-05T09:58:18.324Z</time>
      </trkpt>
      <trkpt lat="63.31962" lon="9.15905">
        <ele>55.567137</ele>
        <time>2020-08-05T09:58:21.327Z</time>
      </trkpt>
      <trkpt lat="63.31966" lon="9.15923">
        <ele>55.784593</ele>
        <time>2020-08-05T09:58:24.343Z</time>
      </trkpt>
      <trkpt lat="63.3197" lon="9.15946">
        <ele>56.056222</ele>
        <time>2020-08-05T09:58:28.326Z</time>
      </trkpt>
      <trkpt lat="63.31975" lon="9.15965">
        <ele>56.282894</ele>
        <time>2020-08-05T09:58:32.328Z</time>
      </trkpt>
      <trkpt lat="63.3198" lon="9.15983">
        <ele>56.516115</ele>
        <time>2020-08-05T09:58:36.331Z</time>
      </trkpt>
      <trkpt lat="63.31984" lon="9.16008">
        <ele>56.806574</ele>
        <time>2020-08-05T09:58:40.313Z</time>
      </trkpt>
      <trkpt lat="63.31988" lon="9.16029">
        <ele>57.045225</ele>
        <time>2020-08-05T09:58:43.330Z</time>
      </trkpt>
      <trkpt lat="63.31991" lon="9.16052">
        <ele>57.307928</ele>
        <time>2020-08-05T09:58:46.327Z</time>
      </trkpt>
      <trkpt lat="63.31996" lon="9.16077">
        <ele>57.604583</ele>
        <time>2020-08-05T09:58:49.350Z</time>
      </trkpt>
      <trkpt lat="63.31999" lon="9.16096">
        <ele>57.824146</ele>
        <time>2020-08-05T09:58:51.332Z</time>
      </trkpt>
      <trkpt lat="63.32002" lon="9.16116">
        <ele>58.056147</ele>
        <time>2020-08-05T09:58:53.326Z</time>
      </trkpt>
      <trkpt lat="63.32005" lon="9.16137">
        <ele>58.287113</ele>
        <time>2020-08-05T09:58:55.351Z</time>
      </trkpt>
      <trkpt lat="63.32008" lon="9.16157">
        <ele>58.519827</ele>
        <time>2020-08-05T09:58:57.329Z</time>
      </trkpt>
      <trkpt lat="63.3201" lon="9.16178">
        <ele>58.750712</ele>
        <time>2020-08-05T09:58:59.324Z</time>
      </trkpt>
      <trkpt lat="63.32012" lon="9.16198">
        <ele>59.229706</ele>
        <time>2020-08-05T09:59:01.319Z</time>
      </trkpt>
      <trkpt lat="63.32016" lon="9.16226">
        <ele>59.990464</ele>
        <time>2020-08-05T09:59:04.328Z</time>
      </trkpt>
      <trkpt lat="63.32018" lon="9.16252">
        <ele>60.657583</ele>
        <time>2020-08-05T09:59:07.318Z</time>
      </trkpt>
      <trkpt lat="63.3202" lon="9.16274">
        <ele>61.229119</ele>
        <time>2020-08-05T09:59:10.325Z</time>
      </trkpt>
      <trkpt lat="63.32022" lon="9.16298">
        <ele>61.852987</ele>
        <time>2020-08-05T09:59:14.332Z</time>
      </trkpt>
      <trkpt lat="63.32024" lon="9.16321">
        <ele>62.441169</ele>
        <time>2020-08-05T09:59:18.332Z</time>
      </trkpt>
      <trkpt lat="63.32027" lon="9.16343">
        <ele>63.045132</ele>
        <time>2020-08-05T09:59:22.327Z</time>
      </trkpt>
      <trkpt lat="63.3203" lon="9.16364">
        <ele>63.614337</ele>
        <time>2020-08-05T09:59:26.342Z</time>
      </trkpt>
      <trkpt lat="63.32034" lon="9.16385">
        <ele>64.190432</ele>
        <time>2020-08-05T09:59:30.339Z</time>
      </trkpt>
      <trkpt lat="63.32039" lon="9.16406">
        <ele>64.788927</ele>
        <time>2020-08-05T09:59:34.375Z</time>
      </trkpt>
      <trkpt lat="63.32045" lon="9.16426">
        <ele>65.394362</ele>
        <time>2020-08-05T09:59:38.332Z</time>
      </trkpt>
      <trkpt lat="63.32049" lon="9.16445">
        <ele>65.933005</ele>
        <time>2020-08-05T09:59:42.339Z</time>
      </trkpt>
      <trkpt lat="63.32053" lon="9.16463">
        <ele>66.451137</ele>
        <time>2020-08-05T09:59:46.339Z</time>
      </trkpt>
      <trkpt lat="63.32058" lon="9.16483">
        <ele>67.044679</ele>
        <time>2020-08-05T09:59:51.319Z</time>
      </trkpt>
      <trkpt lat="63.32064" lon="9.16502">
        <ele>67.63022</ele>
        <time>2020-08-05T09:59:56.314Z</time>
      </trkpt>
      <trkpt lat="63.32069" lon="9.16521">
        <ele>68.190212</ele>
        <time>2020-08-05T10:00:00.332Z</time>
      </trkpt>
      <trkpt lat="63.32074" lon="9.16542">
        <ele>68.795068</ele>
        <time>2020-08-05T10:00:04.354Z</time>
      </trkpt>
      <trkpt lat="63.32078" lon="9.16563">
        <ele>68.870512</ele>
        <time>2020-08-05T10:00:08.329Z</time>
      </trkpt>
      <trkpt lat="63.32083" lon="9.16584">
        <ele>68.649314</ele>
        <time>2020-08-05T10:00:12.314Z</time>
      </trkpt>
      <trkpt lat="63.32088" lon="9.16603">
        <ele>68.427251</ele>
        <time>2020-08-05T10:00:16.336Z</time>
      </trkpt>
      <trkpt lat="63.32092" lon="9.16623">
        <ele>68.212398</ele>
        <time>2020-08-05T10:00:20.326Z</time>
      </trkpt>
      <trkpt lat="63.32095" lon="9.16645">
        <ele>67.989643</ele>
        <time>2020-08-05T10:00:24.377Z</time>
      </trkpt>
      <trkpt lat="63.32098" lon="9.16669">
        <ele>67.74585</ele>
        <time>2020-08-05T10:00:28.332Z</time>
      </trkpt>
      <trkpt lat="63.32103" lon="9.16692">
        <ele>67.48884</ele>
        <time>2020-08-05T10:00:32.325Z</time>
      </trkpt>
      <trkpt lat="63.32106" lon="9.16712">
        <ele>67.282024</ele>
        <time>2020-08-05T10:00:35.345Z</time>
      </trkpt>
      <trkpt lat="63.3211" lon="9.16734">
        <ele>67.053173</ele>
        <time>2020-08-05T10:00:38.336Z</time>
      </trkpt>
      <trkpt lat="63.32114" lon="9.16761">
        <ele>66.778518</ele>
        <time>2020-08-05T10:00:41.340Z</time>
      </trkpt>
      <trkpt lat="63.32117" lon="9.1678">
        <ele>66.57891</ele>
        <time>2020-08-05T10:00:43.335Z</time>
      </trkpt>
      <trkpt lat="63.3212" lon="9.16801">
        <ele>66.361057</ele>
        <time>2020-08-05T10:00:45.359Z</time>
      </trkpt>
      <trkpt lat="63.32123" lon="9.16824">
        <ele>66.120391</ele>
        <time>2020-08-05T10:00:47.350Z</time>
      </trkpt>
      <trkpt lat="63.32127" lon="9.16849">
        <ele>65.859219</ele>
        <time>2020-08-05T10:00:49.338Z</time>
      </trkpt>
      <trkpt lat="63.32131" lon="9.16876">
        <ele>65.581156</ele>
        <time>2020-08-05T10:00:51.338Z</time>
      </trkpt>
      <trkpt lat="63.32135" lon="9.16909">
        <ele>65.246962</ele>
        <time>2020-08-05T10:00:53.341Z</time>
      </trkpt>
      <trkpt lat="63.32138" lon="9.16945">
        <ele>64.568223</ele>
        <time>2020-08-05T10:00:55.325Z</time>
      </trkpt>
      <trkpt lat="63.32142" lon="9.16982">
        <ele>63.602604</ele>
        <time>2020-08-05T10:00:57.358Z</time>
      </trkpt>
      <trkpt lat="63.32147" lon="9.17018">
        <ele>62.628918</ele>
        <time>2020-08-05T10:00:59.331Z</time>
      </trkpt>
      <trkpt lat="63.32152" lon="9.17052">
        <ele>61.699843</ele>
        <time>2020-08-05T10:01:01.370Z</time>
      </trkpt>
      <trkpt lat="63.32158" lon="9.17089">
        <ele>60.690041</ele>
        <time>2020-08-05T10:01:03.332Z</time>
      </trkpt>
      <trkpt lat="63.32162" lon="9.17108">
        <ele>60.161875</ele>
        <time>2020-08-05T10:01:04.325Z</time>
      </trkpt>
      <trkpt lat="63.32166" lon="9.17126">
        <ele>59.615963</ele>
        <time>2020-08-05T10:01:05.326Z</time>
      </trkpt>
      <trkpt lat="63.32171" lon="9.17145">
        <ele>59.054405</ele>
        <time>2020-08-05T10:01:06.327Z</time>
      </trkpt>
      <trkpt lat="63.32177" lon="9.17164">
        <ele>58.473897</ele>
        <time>2020-08-05T10:01:07.345Z</time>
      </trkpt>
      <trkpt lat="63.32183" lon="9.17182">
        <ele>57.88154</ele>
        <time>2020-08-05T10:01:08.339Z</time>
      </trkpt>
      <trkpt lat="63.3219" lon="9.17199">
        <ele>57.303366</ele>
        <time>2020-08-05T10:01:09.327Z</time>
      </trkpt>
      <trkpt lat="63.32197" lon="9.17215">
        <ele>56.740217</ele>
        <time>2020-08-05T10:01:10.358Z</time>
      </trkpt>
      <trkpt lat="63.32204" lon="9.17229">
        <ele>56.205313</ele>
        <time>2020-08-05T10:01:11.365Z</time>
      </trkpt>
      <trkpt lat="63.32217" lon="9.17253">
        <ele>55.202894</ele>
        <time>2020-08-05T10:01:13.346Z</time>
      </trkpt>
      <trkpt lat="63.3223" lon="9.17275">
        <ele>54.897068</ele>
        <time>2020-08-05T10:01:15.337Z</time>
      </trkpt>
      <trkpt lat="63.32241" lon="9.17294">
        <ele>55.098762</ele>
        <time>2020-08-05T10:01:17.352Z</time>
      </trkpt>
      <trkpt lat="63.32251" lon="9.17314">
        <ele>55.284785</ele>
        <time>2020-08-05T10:01:19.342Z</time>
      </trkpt>
      <trkpt lat="63.32259" lon="9.17333">
        <ele>55.457656</ele>
        <time>2020-08-05T10:01:21.355Z</time>
      </trkpt>
      <trkpt lat="63.32266" lon="9.17352">
        <ele>55.615205</ele>
        <time>2020-08-05T10:01:23.335Z</time>
      </trkpt>
      <trkpt lat="63.32273" lon="9.17371">
        <ele>55.767366</ele>
        <time>2020-08-05T10:01:25.342Z</time>
      </trkpt>
      <trkpt lat="63.32279" lon="9.17391">
        <ele>55.920422</ele>
        <time>2020-08-05T10:01:27.347Z</time>
      </trkpt>
      <trkpt lat="63.32284" lon="9.17413">
        <ele>56.080569</ele>
        <time>2020-08-05T10:01:29.343Z</time>
      </trkpt>
      <trkpt lat="63.32291" lon="9.17434">
        <ele>56.250579</ele>
        <time>2020-08-05T10:01:31.350Z</time>
      </trkpt>
      <trkpt lat="63.323" lon="9.17455">
        <ele>56.428319</ele>
        <time>2020-08-05T10:01:33.325Z</time>
      </trkpt>
      <trkpt lat="63.32309" lon="9.17475">
        <ele>56.611005</ele>
        <time>2020-08-05T10:01:35.346Z</time>
      </trkpt>
      <trkpt lat="63.32319" lon="9.17492">
        <ele>56.78646</ele>
        <time>2020-08-05T10:01:37.327Z</time>
      </trkpt>
      <trkpt lat="63.32329" lon="9.17504">
        <ele>56.949475</ele>
        <time>2020-08-05T10:01:39.341Z</time>
      </trkpt>
      <trkpt lat="63.32339" lon="9.17515">
        <ele>57.103051</ele>
        <time>2020-08-05T10:01:41.337Z</time>
      </trkpt>
      <trkpt lat="63.32348" lon="9.17523">
        <ele>57.245108</ele>
        <time>2020-08-05T10:01:43.354Z</time>
      </trkpt>
      <trkpt lat="63.32356" lon="9.1753">
        <ele>57.376883</ele>
        <time>2020-08-05T10:01:45.357Z</time>
      </trkpt>
      <trkpt lat="63.32366" lon="9.1754">
        <ele>57.546903</ele>
        <time>2020-08-05T10:01:48.343Z</time>
      </trkpt>
      <trkpt lat="63.32375" lon="9.1755">
        <ele>57.69343</ele>
        <time>2020-08-05T10:01:51.353Z</time>
      </trkpt>
      <trkpt lat="63.32383" lon="9.1756">
        <ele>57.838883</ele>
        <time>2020-08-05T10:01:55.330Z</time>
      </trkpt>
      <trkpt lat="63.3239" lon="9.17573">
        <ele>57.981146</ele>
        <time>2020-08-05T10:01:59.322Z</time>
      </trkpt>
      <trkpt lat="63.32398" lon="9.17586">
        <ele>58.128087</ele>
        <time>2020-08-05T10:02:03.330Z</time>
      </trkpt>
      <trkpt lat="63.32404" lon="9.17603">
        <ele>58.275628</ele>
        <time>2020-08-05T10:02:07.322Z</time>
      </trkpt>
      <trkpt lat="63.32409" lon="9.1762">
        <ele>58.423393</ele>
        <time>2020-08-05T10:02:11.340Z</time>
      </trkpt>
      <trkpt lat="63.32414" lon="9.17639">
        <ele>58.572712</ele>
        <time>2020-08-05T10:02:15.328Z</time>
      </trkpt>
      <trkpt lat="63.32417" lon="9.1766">
        <ele>58.720377</ele>
        <time>2020-08-05T10:02:19.331Z</time>
      </trkpt>
      <trkpt lat="63.32419" lon="9.1768">
        <ele>58.868866</ele>
        <time>2020-08-05T10:02:23.338Z</time>
      </trkpt>
      <trkpt lat="63.32423" lon="9.17701">
        <ele>59.018738</ele>
        <time>2020-08-05T10:02:27.336Z</time>
      </trkpt>
      <trkpt lat="63.32426" lon="9.17723">
        <ele>59.180059</ele>
        <time>2020-08-05T10:02:31.322Z</time>
      </trkpt>
      <trkpt lat="63.32429" lon="9.17742">
        <ele>59.318572</ele>
        <time>2020-08-05T10:02:34.341Z</time>
      </trkpt>
      <trkpt lat="63.32434" lon="9.17765">
        <ele>59.497157</ele>
        <time>2020-08-05T10:02:38.332Z</time>
      </trkpt>
      <trkpt lat="63.32438" lon="9.17787">
        <ele>59.660597</ele>
        <time>2020-08-05T10:02:42.332Z</time>
      </trkpt>
      <trkpt lat="63.32442" lon="9.17809">
        <ele>59.826785</ele>
        <time>2020-08-05T10:02:47.326Z</time>
      </trkpt>
      <trkpt lat="63.32445" lon="9.1783">
        <ele>59.974448</ele>
        <time>2020-08-05T10:02:52.328Z</time>
      </trkpt>
      <trkpt lat="63.32448" lon="9.17849">
        <ele>60.154982</ele>
        <time>2020-08-05T10:02:57.345Z</time>
      </trkpt>
      <trkpt lat="63.32452" lon="9.17871">
        <ele>60.623948</ele>
        <time>2020-08-05T10:03:03.326Z</time>
      </trkpt>
      <trkpt lat="63.32456" lon="9.1789">
        <ele>61.046774</ele>
        <time>2020-08-05T10:03:08.373Z</time>
      </trkpt>
      <trkpt lat="63.32462" lon="9.17907">
        <ele>61.467223</ele>
        <time>2020-08-05T10:03:13.357Z</time>
      </trkpt>
      <trkpt lat="63.32465" lon="9.17925">
        <ele>61.871762</ele>
        <time>2020-08-05T10:03:18.340Z</time>
      </trkpt>
      <trkpt lat="63.3247" lon="9.17945">
        <ele>62.311943</ele>
        <time>2020-08-05T10:03:23.338Z</time>
      </trkpt>
      <trkpt lat="63.32475" lon="9.17961">
        <ele>62.716346</ele>
        <time>2020-08-05T10:03:27.313Z</time>
      </trkpt>
      <trkpt lat="63.32481" lon="9.17982">
        <ele>63.202951</ele>
        <time>2020-08-05T10:03:32.358Z</time>
      </trkpt>
      <trkpt lat="63.32489" lon="9.17998">
        <ele>63.691454</ele>
        <time>2020-08-05T10:03:37.330Z</time>
      </trkpt>
      <trkpt lat="63.32497" lon="9.18013">
        <ele>64.150204</ele>
        <time>2020-08-05T10:03:43.340Z</time>
      </trkpt>
      <trkpt lat="63.32502" lon="9.18044">
        <ele>64.80769</ele>
        <time>2020-08-05T10:06:00.327Z</time>
      </trkpt>
      <trkpt lat="63.32509" lon="9.18065">
        <ele>65.344796</ele>
        <time>2020-08-05T10:06:04.318Z</time>
      </trkpt>
      <trkpt lat="63.32516" lon="9.18083">
        <ele>65.818225</ele>
        <time>2020-08-05T10:06:07.360Z</time>
      </trkpt>
      <trkpt lat="63.32525" lon="9.18099">
        <ele>66.322866</ele>
        <time>2020-08-05T10:06:10.332Z</time>
      </trkpt>
      <trkpt lat="63.32532" lon="9.18116">
        <ele>66.799961</ele>
        <time>2020-08-05T10:06:13.314Z</time>
      </trkpt>
      <trkpt lat="63.32541" lon="9.18136">
        <ele>67.36131</ele>
        <time>2020-08-05T10:06:16.315Z</time>
      </trkpt>
      <trkpt lat="63.32548" lon="9.18157">
        <ele>67.900652</ele>
        <time>2020-08-05T10:06:19.323Z</time>
      </trkpt>
      <trkpt lat="63.32555" lon="9.18175">
        <ele>68.065275</ele>
        <time>2020-08-05T10:06:22.312Z</time>
      </trkpt>
      <trkpt lat="63.32566" lon="9.18193">
        <ele>67.883934</ele>
        <time>2020-08-05T10:06:25.322Z</time>
      </trkpt>
      <trkpt lat="63.32575" lon="9.18213">
        <ele>67.706286</ele>
        <time>2020-08-05T10:06:28.326Z</time>
      </trkpt>
      <trkpt lat="63.32583" lon="9.1823">
        <ele>67.544809</ele>
        <time>2020-08-05T10:06:31.321Z</time>
      </trkpt>
      <trkpt lat="63.32587" lon="9.1825">
        <ele>67.406951</ele>
        <time>2020-08-05T10:06:35.319Z</time>
      </trkpt>
      <trkpt lat="63.3259" lon="9.18271">
        <ele>67.2734</ele>
        <time>2020-08-05T10:06:39.309Z</time>
      </trkpt>
      <trkpt lat="63.32752" lon="9.18618">
        <ele>59.863947</ele>
        <time>2020-08-05T10:07:30.326Z</time>
      </trkpt>
      <trkpt lat="63.3276" lon="9.18633">
        <ele>59.287889</ele>
        <time>2020-08-05T10:07:33.418Z</time>
      </trkpt>
      <trkpt lat="63.32769" lon="9.18638">
        <ele>58.800827</ele>
        <time>2020-08-05T10:07:35.333Z</time>
      </trkpt>
      <trkpt lat="63.3278" lon="9.18646">
        <ele>58.147194</ele>
        <time>2020-08-05T10:07:38.323Z</time>
      </trkpt>
      <trkpt lat="63.32793" lon="9.18651">
        <ele>57.450749</ele>
        <time>2020-08-05T10:07:41.358Z</time>
      </trkpt>
      <trkpt lat="63.32805" lon="9.18655">
        <ele>56.764446</ele>
        <time>2020-08-05T10:07:44.326Z</time>
      </trkpt>
      <trkpt lat="63.32819" lon="9.18654">
        <ele>56.046223</ele>
        <time>2020-08-05T10:07:47.321Z</time>
      </trkpt>
      <trkpt lat="63.32829" lon="9.18655">
        <ele>55.858378</ele>
        <time>2020-08-05T10:07:49.339Z</time>
      </trkpt>
      <trkpt lat="63.32839" lon="9.18653">
        <ele>55.783224</ele>
        <time>2020-08-05T10:07:51.336Z</time>
      </trkpt>
      <trkpt lat="63.32849" lon="9.18651">
        <ele>55.715297</ele>
        <time>2020-08-05T10:07:53.351Z</time>
      </trkpt>
      <trkpt lat="63.32859" lon="9.18648">
        <ele>55.638268</ele>
        <time>2020-08-05T10:07:55.345Z</time>
      </trkpt>
      <trkpt lat="63.3287" lon="9.18645">
        <ele>55.556222</ele>
        <time>2020-08-05T10:07:57.343Z</time>
      </trkpt>
      <trkpt lat="63.32882" lon="9.18642">
        <ele>55.471169</ele>
        <time>2020-08-05T10:07:59.330Z</time>
      </trkpt>
      <trkpt lat="63.32893" lon="9.18641">
        <ele>55.387412</ele>
        <time>2020-08-05T10:08:01.341Z</time>
      </trkpt>
      <trkpt lat="63.32905" lon="9.18641">
        <ele>55.304454</ele>
        <time>2020-08-05T10:08:03.331Z</time>
      </trkpt>
      <trkpt lat="63.32916" lon="9.18645">
        <ele>55.220626</ele>
        <time>2020-08-05T10:08:05.343Z</time>
      </trkpt>
      <trkpt lat="63.32926" lon="9.18652">
        <ele>55.147712</ele>
        <time>2020-08-05T10:08:07.327Z</time>
      </trkpt>
      <trkpt lat="63.32934" lon="9.18663">
        <ele>55.077785</ele>
        <time>2020-08-05T10:08:09.323Z</time>
      </trkpt>
      <trkpt lat="63.32945" lon="9.18677">
        <ele>54.983487</ele>
        <time>2020-08-05T10:08:12.318Z</time>
      </trkpt>
      <trkpt lat="63.32955" lon="9.18694">
        <ele>54.891186</ele>
        <time>2020-08-05T10:08:15.337Z</time>
      </trkpt>
      <trkpt lat="63.32965" lon="9.18713">
        <ele>54.799486</ele>
        <time>2020-08-05T10:08:18.318Z</time>
      </trkpt>
      <trkpt lat="63.32973" lon="9.18732">
        <ele>54.715147</ele>
        <time>2020-08-05T10:08:21.343Z</time>
      </trkpt>
      <trkpt lat="63.3298" lon="9.18748">
        <ele>54.638876</ele>
        <time>2020-08-05T10:08:24.336Z</time>
      </trkpt>
      <trkpt lat="63.32988" lon="9.18765">
        <ele>55.249053</ele>
        <time>2020-08-05T10:08:28.334Z</time>
      </trkpt>
      <trkpt lat="63.32996" lon="9.18781">
        <ele>56.424491</ele>
        <time>2020-08-05T10:08:33.324Z</time>
      </trkpt>
      <trkpt lat="63.33003" lon="9.18794">
        <ele>57.434673</ele>
        <time>2020-08-05T10:08:38.329Z</time>
      </trkpt>
      <trkpt lat="63.33012" lon="9.18808">
        <ele>58.576136</ele>
        <time>2020-08-05T10:08:44.326Z</time>
      </trkpt>
      <trkpt lat="63.33019" lon="9.18821">
        <ele>59.539314</ele>
        <time>2020-08-05T10:08:51.325Z</time>
      </trkpt>
      <trkpt lat="63.33027" lon="9.18833">
        <ele>60.54679</ele>
        <time>2020-08-05T10:08:57.352Z</time>
      </trkpt>
      <trkpt lat="63.33036" lon="9.1884">
        <ele>61.621998</ele>
        <time>2020-08-05T10:09:03.322Z</time>
      </trkpt>
      <trkpt lat="63.33045" lon="9.1885">
        <ele>62.616658</ele>
        <time>2020-08-05T10:09:08.332Z</time>
      </trkpt>
      <trkpt lat="63.33054" lon="9.18859">
        <ele>63.68552</ele>
        <time>2020-08-05T10:09:14.343Z</time>
      </trkpt>
      <trkpt lat="63.33062" lon="9.18869">
        <ele>64.702269</ele>
        <time>2020-08-05T10:09:20.333Z</time>
      </trkpt>
      <trkpt lat="63.33071" lon="9.18879">
        <ele>65.72463</ele>
        <time>2020-08-05T10:09:25.350Z</time>
      </trkpt>
      <trkpt lat="63.3308" lon="9.18889">
        <ele>66.821889</ele>
        <time>2020-08-05T10:09:32.345Z</time>
      </trkpt>
      <trkpt lat="63.3309" lon="9.18896">
        <ele>67.941126</ele>
        <time>2020-08-05T10:09:39.335Z</time>
      </trkpt>
      <trkpt lat="63.33099" lon="9.18907">
        <ele>68.995782</ele>
        <time>2020-08-05T10:09:46.317Z</time>
      </trkpt>
      <trkpt lat="63.33107" lon="9.18917">
        <ele>69.987753</ele>
        <time>2020-08-05T10:09:53.323Z</time>
      </trkpt>
      <trkpt lat="63.33116" lon="9.18928">
        <ele>71.070436</ele>
        <time>2020-08-05T10:10:00.352Z</time>
      </trkpt>
      <trkpt lat="63.33124" lon="9.1894">
        <ele>72.090883</ele>
        <time>2020-08-05T10:10:06.326Z</time>
      </trkpt>
      <trkpt lat="63.33133" lon="9.18947">
        <ele>73.131934</ele>
        <time>2020-08-05T10:10:13.374Z</time>
      </trkpt>
      <trkpt lat="63.33141" lon="9.18963">
        <ele>74.020163</ele>
        <time>2020-08-05T10:10:19.328Z</time>
      </trkpt>
      <trkpt lat="63.33148" lon="9.18976">
        <ele>74.559929</ele>
        <time>2020-08-05T10:10:25.323Z</time>
      </trkpt>
      <trkpt lat="63.33154" lon="9.18992">
        <ele>75.126498</ele>
        <time>2020-08-05T10:10:32.318Z</time>
      </trkpt>
      <trkpt lat="63.33162" lon="9.19007">
        <ele>75.727717</ele>
        <time>2020-08-05T10:10:39.337Z</time>
      </trkpt>
      <trkpt lat="63.3317" lon="9.19021">
        <ele>76.303584</ele>
        <time>2020-08-05T10:10:46.311Z</time>
      </trkpt>
      <trkpt lat="63.33178" lon="9.19037">
        <ele>76.927455</ele>
        <time>2020-08-05T10:10:53.355Z</time>
      </trkpt>
      <trkpt lat="63.33185" lon="9.19051">
        <ele>77.496224</ele>
        <time>2020-08-05T10:10:59.334Z</time>
      </trkpt>
      <trkpt lat="63.33192" lon="9.19064">
        <ele>78.036757</ele>
        <time>2020-08-05T10:11:05.350Z</time>
      </trkpt>
      <trkpt lat="63.33199" lon="9.19079">
        <ele>78.606688</ele>
        <time>2020-08-05T10:11:11.355Z</time>
      </trkpt>
      <trkpt lat="63.33206" lon="9.19095">
        <ele>79.183031</ele>
        <time>2020-08-05T10:11:18.312Z</time>
      </trkpt>
      <trkpt lat="63.33213" lon="9.1911">
        <ele>79.76267</ele>
        <time>2020-08-05T10:11:24.314Z</time>
      </trkpt>
      <trkpt lat="63.33219" lon="9.19126">
        <ele>80.305587</ele>
        <time>2020-08-05T10:11:29.358Z</time>
      </trkpt>
      <trkpt lat="63.33224" lon="9.19143">
        <ele>80.86162</ele>
        <time>2020-08-05T10:11:34.318Z</time>
      </trkpt>
      <trkpt lat="63.33229" lon="9.19162">
        <ele>81.431759</ele>
        <time>2020-08-05T10:11:40.331Z</time>
      </trkpt>
      <trkpt lat="63.33231" lon="9.19184">
        <ele>82.01885</ele>
        <time>2020-08-05T10:11:46.352Z</time>
      </trkpt>
      <trkpt lat="63.33233" lon="9.19205">
        <ele>82.595441</ele>
        <time>2020-08-05T10:11:52.339Z</time>
      </trkpt>
      <trkpt lat="63.33234" lon="9.19227">
        <ele>83.171071</ele>
        <time>2020-08-05T10:11:57.332Z</time>
      </trkpt>
      <trkpt lat="63.33235" lon="9.19248">
        <ele>83.711142</ele>
        <time>2020-08-05T10:12:02.344Z</time>
      </trkpt>
      <trkpt lat="63.33238" lon="9.19271">
        <ele>84.350724</ele>
        <time>2020-08-05T10:12:07.331Z</time>
      </trkpt>
      <trkpt lat="63.33243" lon="9.19293">
        <ele>84.969593</ele>
        <time>2020-08-05T10:12:11.330Z</time>
      </trkpt>
      <trkpt lat="63.33249" lon="9.19314">
        <ele>85.591399</ele>
        <time>2020-08-05T10:12:15.348Z</time>
      </trkpt>
      <trkpt lat="63.33255" lon="9.19334">
        <ele>86.208606</ele>
        <time>2020-08-05T10:12:19.323Z</time>
      </trkpt>
      <trkpt lat="63.33261" lon="9.19349">
        <ele>86.721042</ele>
        <time>2020-08-05T10:12:22.324Z</time>
      </trkpt>
      <trkpt lat="63.33267" lon="9.19369">
        <ele>87.32993</ele>
        <time>2020-08-05T10:12:26.323Z</time>
      </trkpt>
      <trkpt lat="63.33272" lon="9.19389">
        <ele>87.906293</ele>
        <time>2020-08-05T10:12:30.316Z</time>
      </trkpt>
      <trkpt lat="63.33275" lon="9.19409">
        <ele>88.44784</ele>
        <time>2020-08-05T10:12:34.376Z</time>
      </trkpt>
      <trkpt lat="63.33278" lon="9.1943">
        <ele>89.008031</ele>
        <time>2020-08-05T10:12:38.375Z</time>
      </trkpt>
      <trkpt lat="63.33282" lon="9.1945">
        <ele>89.546343</ele>
        <time>2020-08-05T10:12:42.344Z</time>
      </trkpt>
      <trkpt lat="63.33283" lon="9.1947">
        <ele>90.079703</ele>
        <time>2020-08-05T10:12:46.327Z</time>
      </trkpt>
      <trkpt lat="63.33285" lon="9.19491">
        <ele>90.625578</ele>
        <time>2020-08-05T10:12:50.348Z</time>
      </trkpt>
      <trkpt lat="63.33286" lon="9.19512">
        <ele>91.149186</ele>
        <time>2020-08-05T10:12:54.347Z</time>
      </trkpt>
      <trkpt lat="63.33286" lon="9.19532">
        <ele>91.66465</ele>
        <time>2020-08-05T10:12:58.355Z</time>
      </trkpt>
      <trkpt lat="63.33286" lon="9.19555">
        <ele>92.236984</ele>
        <time>2020-08-05T10:13:03.332Z</time>
      </trkpt>
      <trkpt lat="63.33286" lon="9.19576">
        <ele>92.781439</ele>
        <time>2020-08-05T10:13:09.332Z</time>
      </trkpt>
      <trkpt lat="63.33286" lon="9.19596">
        <ele>93.291824</ele>
        <time>2020-08-05T10:13:15.334Z</time>
      </trkpt>
      <trkpt lat="63.3329" lon="9.19616">
        <ele>93.864734</ele>
        <time>2020-08-05T10:13:22.315Z</time>
      </trkpt>
      <trkpt lat="63.33296" lon="9.19632">
        <ele>94.3775</ele>
        <time>2020-08-05T10:13:28.328Z</time>
      </trkpt>
      <trkpt lat="63.33301" lon="9.1965">
        <ele>94.30193</ele>
        <time>2020-08-05T10:13:34.340Z</time>
      </trkpt>
      <trkpt lat="63.33304" lon="9.19669">
        <ele>94.104002</ele>
        <time>2020-08-05T10:13:40.339Z</time>
      </trkpt>
      <trkpt lat="63.33307" lon="9.19689">
        <ele>93.903715</ele>
        <time>2020-08-05T10:13:46.350Z</time>
      </trkpt>
      <trkpt lat="63.3331" lon="9.19709">
        <ele>93.701974</ele>
        <time>2020-08-05T10:13:52.330Z</time>
      </trkpt>
      <trkpt lat="63.33312" lon="9.19731">
        <ele>93.490043</ele>
        <time>2020-08-05T10:13:58.348Z</time>
      </trkpt>
      <trkpt lat="63.33314" lon="9.1975">
        <ele>93.293819</ele>
        <time>2020-08-05T10:14:04.328Z</time>
      </trkpt>
      <trkpt lat="63.33315" lon="9.19773">
        <ele>93.07785</ele>
        <time>2020-08-05T10:14:11.328Z</time>
      </trkpt>
      <trkpt lat="63.33315" lon="9.19796">
        <ele>92.858937</ele>
        <time>2020-08-05T10:14:18.333Z</time>
      </trkpt>
      <trkpt lat="63.33314" lon="9.19819">
        <ele>92.629946</ele>
        <time>2020-08-05T10:14:24.346Z</time>
      </trkpt>
      <trkpt lat="63.33311" lon="9.19838">
        <ele>92.437823</ele>
        <time>2020-08-05T10:14:28.349Z</time>
      </trkpt>
      <trkpt lat="63.33308" lon="9.19858">
        <ele>92.235439</ele>
        <time>2020-08-05T10:14:32.343Z</time>
      </trkpt>
      <trkpt lat="63.33303" lon="9.19878">
        <ele>92.017843</ele>
        <time>2020-08-05T10:14:36.342Z</time>
      </trkpt>
      <trkpt lat="63.33296" lon="9.19899">
        <ele>91.763006</ele>
        <time>2020-08-05T10:14:40.329Z</time>
      </trkpt>
      <trkpt lat="63.33289" lon="9.19919">
        <ele>91.525606</ele>
        <time>2020-08-05T10:14:43.303Z</time>
      </trkpt>
      <trkpt lat="63.3328" lon="9.19944">
        <ele>91.22543</ele>
        <time>2020-08-05T10:14:46.332Z</time>
      </trkpt>
      <trkpt lat="63.33273" lon="9.19962">
        <ele>90.990524</ele>
        <time>2020-08-05T10:14:48.342Z</time>
      </trkpt>
      <trkpt lat="63.33266" lon="9.19981">
        <ele>90.74552</ele>
        <time>2020-08-05T10:14:50.306Z</time>
      </trkpt>
      <trkpt lat="63.33259" lon="9.20005">
        <ele>90.462432</ele>
        <time>2020-08-05T10:14:52.322Z</time>
      </trkpt>
      <trkpt lat="63.33253" lon="9.20034">
        <ele>90.146348</ele>
        <time>2020-08-05T10:14:54.339Z</time>
      </trkpt>
      <trkpt lat="63.33253" lon="9.20065">
        <ele>89.828162</ele>
        <time>2020-08-05T10:14:56.346Z</time>
      </trkpt>
      <trkpt lat="63.33256" lon="9.20099">
        <ele>89.481737</ele>
        <time>2020-08-05T10:14:58.333Z</time>
      </trkpt>
      <trkpt lat="63.33264" lon="9.20132">
        <ele>89.107143</ele>
        <time>2020-08-05T10:15:00.355Z</time>
      </trkpt>
      <trkpt lat="63.33273" lon="9.20164">
        <ele>88.719371</ele>
        <time>2020-08-05T10:15:02.326Z</time>
      </trkpt>
      <trkpt lat="63.33282" lon="9.20195">
        <ele>88.338388</ele>
        <time>2020-08-05T10:15:04.352Z</time>
      </trkpt>
      <trkpt lat="63.33292" lon="9.20225">
        <ele>87.965082</ele>
        <time>2020-08-05T10:15:06.321Z</time>
      </trkpt>
      <trkpt lat="63.33302" lon="9.20255">
        <ele>87.591611</ele>
        <time>2020-08-05T10:15:08.347Z</time>
      </trkpt>
      <trkpt lat="63.33311" lon="9.20285">
        <ele>87.224494</ele>
        <time>2020-08-05T10:15:10.355Z</time>
      </trkpt>
      <trkpt lat="63.33319" lon="9.20314">
        <ele>86.874116</ele>
        <time>2020-08-05T10:15:12.347Z</time>
      </trkpt>
      <trkpt lat="63.33329" lon="9.2034">
        <ele>86.574802</ele>
        <time>2020-08-05T10:15:14.324Z</time>
      </trkpt>
      <trkpt lat="63.33338" lon="9.20364">
        <ele>86.682448</ele>
        <time>2020-08-05T10:15:16.335Z</time>
      </trkpt>
      <trkpt lat="63.33349" lon="9.20383">
        <ele>86.79078</ele>
        <time>2020-08-05T10:15:18.323Z</time>
      </trkpt>
      <trkpt lat="63.33363" lon="9.20392">
        <ele>86.900739</ele>
        <time>2020-08-05T10:15:20.340Z</time>
      </trkpt>
      <trkpt lat="63.33376" lon="9.20396">
        <ele>87.001311</ele>
        <time>2020-08-05T10:15:22.351Z</time>
      </trkpt>
      <trkpt lat="63.33387" lon="9.20391">
        <ele>87.088299</ele>
        <time>2020-08-05T10:15:24.353Z</time>
      </trkpt>
      <trkpt lat="63.33397" lon="9.20385">
        <ele>87.165728</ele>
        <time>2020-08-05T10:15:26.313Z</time>
      </trkpt>
      <trkpt lat="63.33409" lon="9.20374">
        <ele>87.26479</ele>
        <time>2020-08-05T10:15:29.331Z</time>
      </trkpt>
      <trkpt lat="63.33421" lon="9.20364">
        <ele>87.360381</ele>
        <time>2020-08-05T10:15:32.345Z</time>
      </trkpt>
      <trkpt lat="63.33434" lon="9.20363">
        <ele>87.455699</ele>
        <time>2020-08-05T10:15:35.320Z</time>
      </trkpt>
      <trkpt lat="63.33444" lon="9.20359">
        <ele>87.533533</ele>
        <time>2020-08-05T10:15:38.320Z</time>
      </trkpt>
      <trkpt lat="63.33455" lon="9.20354">
        <ele>87.621476</ele>
        <time>2020-08-05T10:15:42.322Z</time>
      </trkpt>
      <trkpt lat="63.33467" lon="9.20354">
        <ele>87.70904</ele>
        <time>2020-08-05T10:15:46.325Z</time>
      </trkpt>
      <trkpt lat="63.33477" lon="9.2036">
        <ele>87.788494</ele>
        <time>2020-08-05T10:15:50.313Z</time>
      </trkpt>
      <trkpt lat="63.33486" lon="9.20369">
        <ele>87.866269</ele>
        <time>2020-08-05T10:15:54.322Z</time>
      </trkpt>
      <trkpt lat="63.33495" lon="9.20381">
        <ele>88.017541</ele>
        <time>2020-08-05T10:15:58.323Z</time>
      </trkpt>
      <trkpt lat="63.33503" lon="9.20394">
        <ele>88.489481</ele>
        <time>2020-08-05T10:16:02.314Z</time>
      </trkpt>
      <trkpt lat="63.33511" lon="9.20408">
        <ele>88.966741</ele>
        <time>2020-08-05T10:16:07.318Z</time>
      </trkpt>
      <trkpt lat="63.33519" lon="9.20422">
        <ele>89.433964</ele>
        <time>2020-08-05T10:16:12.312Z</time>
      </trkpt>
      <trkpt lat="63.33526" lon="9.20436">
        <ele>89.871168</ele>
        <time>2020-08-05T10:16:17.330Z</time>
      </trkpt>
      <trkpt lat="63.33534" lon="9.20454">
        <ele>90.400206</ele>
        <time>2020-08-05T10:16:22.318Z</time>
      </trkpt>
      <trkpt lat="63.3354" lon="9.20468">
        <ele>90.838874</ele>
        <time>2020-08-05T10:16:26.322Z</time>
      </trkpt>
      <trkpt lat="63.33549" lon="9.20485">
        <ele>91.372562</ele>
        <time>2020-08-05T10:16:31.325Z</time>
      </trkpt>
      <trkpt lat="63.33557" lon="9.205">
        <ele>91.871902</ele>
        <time>2020-08-05T10:16:36.333Z</time>
      </trkpt>
      <trkpt lat="63.33564" lon="9.20514">
        <ele>92.33015</ele>
        <time>2020-08-05T10:16:41.313Z</time>
      </trkpt>
      <trkpt lat="63.33571" lon="9.20529">
        <ele>92.783492</ele>
        <time>2020-08-05T10:16:46.315Z</time>
      </trkpt>
      <trkpt lat="63.33578" lon="9.20545">
        <ele>93.270044</ele>
        <time>2020-08-05T10:16:51.313Z</time>
      </trkpt>
      <trkpt lat="63.33585" lon="9.20562">
        <ele>93.75206</ele>
        <time>2020-08-05T10:16:56.318Z</time>
      </trkpt>
      <trkpt lat="63.33591" lon="9.20581">
        <ele>94.222046</ele>
        <time>2020-08-05T10:17:01.316Z</time>
      </trkpt>
      <trkpt lat="63.33596" lon="9.20599">
        <ele>94.692916</ele>
        <time>2020-08-05T10:17:06.327Z</time>
      </trkpt>
      <trkpt lat="63.33602" lon="9.20618">
        <ele>95.189073</ele>
        <time>2020-08-05T10:17:11.352Z</time>
      </trkpt>
      <trkpt lat="63.33608" lon="9.20637">
        <ele>95.674183</ele>
        <time>2020-08-05T10:17:16.307Z</time>
      </trkpt>
      <trkpt lat="63.33614" lon="9.20656">
        <ele>96.150339</ele>
        <time>2020-08-05T10:17:21.320Z</time>
      </trkpt>
      <trkpt lat="63.33618" lon="9.20674">
        <ele>96.500054</ele>
        <time>2020-08-05T10:17:26.341Z</time>
      </trkpt>
      <trkpt lat="63.33623" lon="9.20693">
        <ele>96.689854</ele>
        <time>2020-08-05T10:17:31.313Z</time>
      </trkpt>
      <trkpt lat="63.33628" lon="9.20711">
        <ele>96.876938</ele>
        <time>2020-08-05T10:17:36.330Z</time>
      </trkpt>
      <trkpt lat="63.33632" lon="9.2073">
        <ele>97.05841</ele>
        <time>2020-08-05T10:17:41.332Z</time>
      </trkpt>
      <trkpt lat="63.33635" lon="9.20751">
        <ele>97.249512</ele>
        <time>2020-08-05T10:17:46.326Z</time>
      </trkpt>
      <trkpt lat="63.33638" lon="9.2077">
        <ele>97.431537</ele>
        <time>2020-08-05T10:17:51.311Z</time>
      </trkpt>
      <trkpt lat="63.33641" lon="9.2079">
        <ele>97.614214</ele>
        <time>2020-08-05T10:17:56.328Z</time>
      </trkpt>
      <trkpt lat="63.33642" lon="9.20811">
        <ele>97.798797</ele>
        <time>2020-08-05T10:18:01.322Z</time>
      </trkpt>
      <trkpt lat="63.33644" lon="9.20831">
        <ele>97.977893</ele>
        <time>2020-08-05T10:18:06.322Z</time>
      </trkpt>
      <trkpt lat="63.33647" lon="9.20855">
        <ele>98.191021</ele>
        <time>2020-08-05T10:18:11.311Z</time>
      </trkpt>
      <trkpt lat="63.33649" lon="9.20878">
        <ele>98.394821</ele>
        <time>2020-08-05T10:18:15.319Z</time>
      </trkpt>
      <trkpt lat="63.33652" lon="9.20897">
        <ele>98.573523</ele>
        <time>2020-08-05T10:18:18.317Z</time>
      </trkpt>
      <trkpt lat="63.33654" lon="9.20919">
        <ele>98.768189</ele>
        <time>2020-08-05T10:18:21.315Z</time>
      </trkpt>
      <trkpt lat="63.33658" lon="9.2094">
        <ele>98.96958</ele>
        <time>2020-08-05T10:18:24.329Z</time>
      </trkpt>
      <trkpt lat="63.33662" lon="9.20964">
        <ele>99.186283</ele>
        <time>2020-08-05T10:18:27.321Z</time>
      </trkpt>
      <trkpt lat="63.33666" lon="9.2099">
        <ele>99.424087</ele>
        <time>2020-08-05T10:18:30.314Z</time>
      </trkpt>
      <trkpt lat="63.3367" lon="9.21016">
        <ele>99.672644</ele>
        <time>2020-08-05T10:18:33.317Z</time>
      </trkpt>
      <trkpt lat="63.33674" lon="9.21045">
        <ele>99.92926</ele>
        <time>2020-08-05T10:18:36.313Z</time>
      </trkpt>
      <trkpt lat="63.33678" lon="9.21067">
        <ele>99.371576</ele>
        <time>2020-08-05T10:18:38.309Z</time>
      </trkpt>
      <trkpt lat="63.33681" lon="9.21089">
        <ele>98.784513</ele>
        <time>2020-08-05T10:18:40.324Z</time>
      </trkpt>
      <trkpt lat="63.33685" lon="9.21115">
        <ele>98.135007</ele>
        <time>2020-08-05T10:18:42.298Z</time>
      </trkpt>
      <trkpt lat="63.33688" lon="9.21143">
        <ele>97.416866</ele>
        <time>2020-08-05T10:18:44.323Z</time>
      </trkpt>
      <trkpt lat="63.33693" lon="9.21175">
        <ele>96.611693</ele>
        <time>2020-08-05T10:18:46.314Z</time>
      </trkpt>
      <trkpt lat="63.33698" lon="9.21209">
        <ele>95.720203</ele>
        <time>2020-08-05T10:18:48.338Z</time>
      </trkpt>
      <trkpt lat="63.33701" lon="9.21228">
        <ele>95.21929</ele>
        <time>2020-08-05T10:18:49.329Z</time>
      </trkpt>
      <trkpt lat="63.33704" lon="9.21249">
        <ele>94.688101</ele>
        <time>2020-08-05T10:18:50.324Z</time>
      </trkpt>
      <trkpt lat="63.33707" lon="9.21271">
        <ele>94.142096</ele>
        <time>2020-08-05T10:18:51.324Z</time>
      </trkpt>
      <trkpt lat="63.33709" lon="9.21294">
        <ele>93.560374</ele>
        <time>2020-08-05T10:18:52.325Z</time>
      </trkpt>
      <trkpt lat="63.33711" lon="9.21318">
        <ele>92.955571</ele>
        <time>2020-08-05T10:18:53.332Z</time>
      </trkpt>
      <trkpt lat="63.33714" lon="9.21343">
        <ele>92.338054</ele>
        <time>2020-08-05T10:18:54.347Z</time>
      </trkpt>
      <trkpt lat="63.33718" lon="9.21367">
        <ele>91.719234</ele>
        <time>2020-08-05T10:18:55.344Z</time>
      </trkpt>
      <trkpt lat="63.33723" lon="9.2139">
        <ele>91.091742</ele>
        <time>2020-08-05T10:18:56.323Z</time>
      </trkpt>
      <trkpt lat="63.33727" lon="9.21416">
        <ele>90.429629</ele>
        <time>2020-08-05T10:18:57.343Z</time>
      </trkpt>
      <trkpt lat="63.3373" lon="9.21442">
        <ele>89.641266</ele>
        <time>2020-08-05T10:18:58.315Z</time>
      </trkpt>
      <trkpt lat="63.33734" lon="9.21469">
        <ele>88.78491</ele>
        <time>2020-08-05T10:18:59.335Z</time>
      </trkpt>
      <trkpt lat="63.33738" lon="9.21495">
        <ele>87.903474</ele>
        <time>2020-08-05T10:19:00.327Z</time>
      </trkpt>
      <trkpt lat="63.33742" lon="9.21522">
        <ele>87.023456</ele>
        <time>2020-08-05T10:19:01.351Z</time>
      </trkpt>
      <trkpt lat="63.33746" lon="9.2155">
        <ele>86.111825</ele>
        <time>2020-08-05T10:19:02.346Z</time>
      </trkpt>
      <trkpt lat="63.3375" lon="9.21579">
        <ele>85.175151</ele>
        <time>2020-08-05T10:19:03.326Z</time>
      </trkpt>
      <trkpt lat="63.33753" lon="9.21609">
        <ele>84.23037</ele>
        <time>2020-08-05T10:19:04.341Z</time>
      </trkpt>
      <trkpt lat="63.33755" lon="9.21638">
        <ele>83.295807</ele>
        <time>2020-08-05T10:19:05.325Z</time>
      </trkpt>
      <trkpt lat="63.33757" lon="9.21667">
        <ele>82.384448</ele>
        <time>2020-08-05T10:19:06.330Z</time>
      </trkpt>
      <trkpt lat="63.33758" lon="9.21697">
        <ele>81.473317</ele>
        <time>2020-08-05T10:19:07.340Z</time>
      </trkpt>
      <trkpt lat="63.33758" lon="9.21726">
        <ele>80.542304</ele>
        <time>2020-08-05T10:19:08.334Z</time>
      </trkpt>
      <trkpt lat="63.33756" lon="9.21756">
        <ele>79.619558</ele>
        <time>2020-08-05T10:19:09.331Z</time>
      </trkpt>
      <trkpt lat="63.33755" lon="9.21785">
        <ele>78.71221</ele>
        <time>2020-08-05T10:19:10.347Z</time>
      </trkpt>
      <trkpt lat="63.33752" lon="9.21814">
        <ele>77.800759</ele>
        <time>2020-08-05T10:19:11.329Z</time>
      </trkpt>
      <trkpt lat="63.33749" lon="9.21842">
        <ele>77.153995</ele>
        <time>2020-08-05T10:19:12.334Z</time>
      </trkpt>
      <trkpt lat="63.33745" lon="9.2187">
        <ele>76.546462</ele>
        <time>2020-08-05T10:19:13.325Z</time>
      </trkpt>
      <trkpt lat="63.33741" lon="9.21898">
        <ele>75.950189</ele>
        <time>2020-08-05T10:19:14.340Z</time>
      </trkpt>
      <trkpt lat="63.33738" lon="9.21925">
        <ele>75.367113</ele>
        <time>2020-08-05T10:19:15.341Z</time>
      </trkpt>
      <trkpt lat="63.33734" lon="9.21951">
        <ele>74.803757</ele>
        <time>2020-08-05T10:19:16.353Z</time>
      </trkpt>
      <trkpt lat="63.33731" lon="9.21977">
        <ele>74.251649</ele>
        <time>2020-08-05T10:19:17.338Z</time>
      </trkpt>
      <trkpt lat="63.33728" lon="9.22003">
        <ele>73.700312</ele>
        <time>2020-08-05T10:19:18.326Z</time>
      </trkpt>
      <trkpt lat="63.33725" lon="9.22028">
        <ele>73.161383</ele>
        <time>2020-08-05T10:19:19.342Z</time>
      </trkpt>
      <trkpt lat="63.33721" lon="9.22052">
        <ele>72.640966</ele>
        <time>2020-08-05T10:19:20.352Z</time>
      </trkpt>
      <trkpt lat="63.33718" lon="9.22076">
        <ele>72.124409</ele>
        <time>2020-08-05T10:19:21.336Z</time>
      </trkpt>
      <trkpt lat="63.33715" lon="9.221">
        <ele>71.597893</ele>
        <time>2020-08-05T10:19:22.343Z</time>
      </trkpt>
      <trkpt lat="63.33712" lon="9.22125">
        <ele>71.076817</ele>
        <time>2020-08-05T10:19:23.331Z</time>
      </trkpt>
      <trkpt lat="63.33709" lon="9.22148">
        <ele>70.568238</ele>
        <time>2020-08-05T10:19:24.339Z</time>
      </trkpt>
      <trkpt lat="63.33706" lon="9.22171">
        <ele>70.07483</ele>
        <time>2020-08-05T10:19:25.328Z</time>
      </trkpt>
      <trkpt lat="63.33702" lon="9.22193">
        <ele>69.596201</ele>
        <time>2020-08-05T10:19:26.331Z</time>
      </trkpt>
      <trkpt lat="63.33698" lon="9.22213">
        <ele>69.173759</ele>
        <time>2020-08-05T10:19:27.341Z</time>
      </trkpt>
      <trkpt lat="63.33694" lon="9.22233">
        <ele>68.786567</ele>
        <time>2020-08-05T10:19:28.333Z</time>
      </trkpt>
      <trkpt lat="63.33688" lon="9.2225">
        <ele>68.411284</ele>
        <time>2020-08-05T10:19:29.325Z</time>
      </trkpt>
      <trkpt lat="63.33682" lon="9.22266">
        <ele>68.044971</ele>
        <time>2020-08-05T10:19:30.365Z</time>
      </trkpt>
      <trkpt lat="63.33676" lon="9.22281">
        <ele>67.686347</ele>
        <time>2020-08-05T10:19:31.339Z</time>
      </trkpt>
      <trkpt lat="63.33662" lon="9.22304">
        <ele>67.008859</ele>
        <time>2020-08-05T10:19:33.341Z</time>
      </trkpt>
      <trkpt lat="63.33648" lon="9.22323">
        <ele>66.3454</ele>
        <time>2020-08-05T10:19:35.333Z</time>
      </trkpt>
      <trkpt lat="63.33633" lon="9.22342">
        <ele>65.675182</ele>
        <time>2020-08-05T10:19:37.342Z</time>
      </trkpt>
      <trkpt lat="63.33618" lon="9.2236">
        <ele>65.025456</ele>
        <time>2020-08-05T10:19:39.325Z</time>
      </trkpt>
      <trkpt lat="63.33604" lon="9.22379">
        <ele>64.377338</ele>
        <time>2020-08-05T10:19:41.335Z</time>
      </trkpt>
      <trkpt lat="63.3359" lon="9.22398">
        <ele>63.709592</ele>
        <time>2020-08-05T10:19:43.354Z</time>
      </trkpt>
      <trkpt lat="63.33576" lon="9.22416">
        <ele>63.072713</ele>
        <time>2020-08-05T10:19:45.364Z</time>
      </trkpt>
      <trkpt lat="63.33562" lon="9.22434">
        <ele>62.455624</ele>
        <time>2020-08-05T10:19:47.332Z</time>
      </trkpt>
      <trkpt lat="63.33549" lon="9.22451">
        <ele>62.06042</ele>
        <time>2020-08-05T10:19:49.349Z</time>
      </trkpt>
      <trkpt lat="63.33536" lon="9.22467">
        <ele>61.725635</ele>
        <time>2020-08-05T10:19:51.332Z</time>
      </trkpt>
      <trkpt lat="63.33524" lon="9.22481">
        <ele>61.40964</ele>
        <time>2020-08-05T10:19:53.326Z</time>
      </trkpt>
      <trkpt lat="63.33512" lon="9.22496">
        <ele>61.094696</ele>
        <time>2020-08-05T10:19:55.341Z</time>
      </trkpt>
      <trkpt lat="63.33501" lon="9.22511">
        <ele>60.801929</ele>
        <time>2020-08-05T10:19:57.351Z</time>
      </trkpt>
      <trkpt lat="63.3349" lon="9.22525">
        <ele>60.524167</ele>
        <time>2020-08-05T10:19:59.327Z</time>
      </trkpt>
      <trkpt lat="63.3348" lon="9.22539">
        <ele>60.248881</ele>
        <time>2020-08-05T10:20:01.338Z</time>
      </trkpt>
      <trkpt lat="63.33469" lon="9.22552">
        <ele>59.969677</ele>
        <time>2020-08-05T10:20:03.371Z</time>
      </trkpt>
      <trkpt lat="63.33459" lon="9.22566">
        <ele>59.703379</ele>
        <time>2020-08-05T10:20:05.331Z</time>
      </trkpt>
      <trkpt lat="63.33449" lon="9.22581">
        <ele>59.431105</ele>
        <time>2020-08-05T10:20:07.330Z</time>
      </trkpt>
      <trkpt lat="63.33439" lon="9.22596">
        <ele>59.148437</ele>
        <time>2020-08-05T10:20:09.333Z</time>
      </trkpt>
      <trkpt lat="63.33429" lon="9.2261">
        <ele>58.876833</ele>
        <time>2020-08-05T10:20:11.426Z</time>
      </trkpt>
      <trkpt lat="63.33418" lon="9.22625">
        <ele>58.59307</ele>
        <time>2020-08-05T10:20:13.353Z</time>
      </trkpt>
      <trkpt lat="63.33406" lon="9.2264">
        <ele>58.289496</ele>
        <time>2020-08-05T10:20:15.311Z</time>
      </trkpt>
      <trkpt lat="63.33394" lon="9.22655">
        <ele>57.893043</ele>
        <time>2020-08-05T10:20:17.332Z</time>
      </trkpt>
      <trkpt lat="63.33381" lon="9.22672">
        <ele>57.442008</ele>
        <time>2020-08-05T10:20:19.326Z</time>
      </trkpt>
      <trkpt lat="63.33367" lon="9.2269">
        <ele>56.967765</ele>
        <time>2020-08-05T10:20:21.304Z</time>
      </trkpt>
      <trkpt lat="63.33353" lon="9.2271">
        <ele>56.456897</ele>
        <time>2020-08-05T10:20:23.300Z</time>
      </trkpt>
      <trkpt lat="63.33345" lon="9.2272">
        <ele>56.185846</ele>
        <time>2020-08-05T10:20:24.332Z</time>
      </trkpt>
      <trkpt lat="63.33337" lon="9.22731">
        <ele>55.909692</ele>
        <time>2020-08-05T10:20:25.342Z</time>
      </trkpt>
      <trkpt lat="63.33329" lon="9.22741">
        <ele>55.636094</ele>
        <time>2020-08-05T10:20:26.310Z</time>
      </trkpt>
      <trkpt lat="63.3332" lon="9.22752">
        <ele>55.359275</ele>
        <time>2020-08-05T10:20:27.352Z</time>
      </trkpt>
      <trkpt lat="63.33312" lon="9.22762">
        <ele>55.077987</ele>
        <time>2020-08-05T10:20:28.311Z</time>
      </trkpt>
      <trkpt lat="63.33304" lon="9.22773">
        <ele>54.801832</ele>
        <time>2020-08-05T10:20:29.294Z</time>
      </trkpt>
      <trkpt lat="63.33296" lon="9.22783">
        <ele>54.525678</ele>
        <time>2020-08-05T10:20:30.344Z</time>
      </trkpt>
      <trkpt lat="63.33288" lon="9.22793">
        <ele>54.250178</ele>
        <time>2020-08-05T10:20:31.324Z</time>
      </trkpt>
      <trkpt lat="63.3328" lon="9.22802">
        <ele>53.982393</ele>
        <time>2020-08-05T10:20:32.305Z</time>
      </trkpt>
      <trkpt lat="63.33265" lon="9.22823">
        <ele>53.467613</ele>
        <time>2020-08-05T10:20:34.329Z</time>
      </trkpt>
      <trkpt lat="63.33251" lon="9.22844">
        <ele>52.965341</ele>
        <time>2020-08-05T10:20:36.320Z</time>
      </trkpt>
      <trkpt lat="63.33238" lon="9.22868">
        <ele>52.4645</ele>
        <time>2020-08-05T10:20:38.331Z</time>
      </trkpt>
      <trkpt lat="63.33226" lon="9.22892">
        <ele>51.970486</ele>
        <time>2020-08-05T10:20:40.343Z</time>
      </trkpt>
      <trkpt lat="63.33214" lon="9.22917">
        <ele>51.481998</ele>
        <time>2020-08-05T10:20:42.314Z</time>
      </trkpt>
      <trkpt lat="63.33203" lon="9.22942">
        <ele>51.00094</ele>
        <time>2020-08-05T10:20:44.309Z</time>
      </trkpt>
      <trkpt lat="63.33191" lon="9.22968">
        <ele>50.507745</ele>
        <time>2020-08-05T10:20:46.334Z</time>
      </trkpt>
      <trkpt lat="63.33179" lon="9.22995">
        <ele>49.994795</ele>
        <time>2020-08-05T10:20:48.396Z</time>
      </trkpt>
      <trkpt lat="63.33167" lon="9.23022">
        <ele>49.464493</ele>
        <time>2020-08-05T10:20:50.348Z</time>
      </trkpt>
      <trkpt lat="63.33154" lon="9.2305">
        <ele>48.932993</ele>
        <time>2020-08-05T10:20:52.351Z</time>
      </trkpt>
      <trkpt lat="63.33147" lon="9.23064">
        <ele>48.655577</ele>
        <time>2020-08-05T10:20:53.321Z</time>
      </trkpt>
      <trkpt lat="63.33141" lon="9.2308">
        <ele>48.360317</ele>
        <time>2020-08-05T10:20:54.352Z</time>
      </trkpt>
      <trkpt lat="63.33134" lon="9.23096">
        <ele>48.067435</ele>
        <time>2020-08-05T10:20:55.338Z</time>
      </trkpt>
      <trkpt lat="63.33127" lon="9.23113">
        <ele>47.76343</ele>
        <time>2020-08-05T10:20:56.362Z</time>
      </trkpt>
      <trkpt lat="63.33122" lon="9.23132">
        <ele>47.465338</ele>
        <time>2020-08-05T10:20:57.375Z</time>
      </trkpt>
      <trkpt lat="63.33116" lon="9.23151">
        <ele>47.223905</ele>
        <time>2020-08-05T10:20:58.356Z</time>
      </trkpt>
      <trkpt lat="63.33112" lon="9.23171">
        <ele>46.987225</ele>
        <time>2020-08-05T10:20:59.362Z</time>
      </trkpt>
      <trkpt lat="63.33108" lon="9.23192">
        <ele>46.749509</ele>
        <time>2020-08-05T10:21:00.360Z</time>
      </trkpt>
      <trkpt lat="63.33105" lon="9.23212">
        <ele>46.523792</ele>
        <time>2020-08-05T10:21:01.339Z</time>
      </trkpt>
      <trkpt lat="63.33102" lon="9.23232">
        <ele>46.305031</ele>
        <time>2020-08-05T10:21:02.322Z</time>
      </trkpt>
      <trkpt lat="63.331" lon="9.23252">
        <ele>46.094226</ele>
        <time>2020-08-05T10:21:03.312Z</time>
      </trkpt>
      <trkpt lat="63.33099" lon="9.23289">
        <ele>45.700451</ele>
        <time>2020-08-05T10:21:05.380Z</time>
      </trkpt>
      <trkpt lat="63.331" lon="9.23324">
        <ele>45.329997</ele>
        <time>2020-08-05T10:21:07.326Z</time>
      </trkpt>
      <trkpt lat="63.33101" lon="9.23357">
        <ele>44.980937</ele>
        <time>2020-08-05T10:21:09.368Z</time>
      </trkpt>
      <trkpt lat="63.33104" lon="9.23388">
        <ele>44.65193</ele>
        <time>2020-08-05T10:21:11.350Z</time>
      </trkpt>
      <trkpt lat="63.33108" lon="9.23414">
        <ele>44.356332</ele>
        <time>2020-08-05T10:21:13.342Z</time>
      </trkpt>
      <trkpt lat="63.33112" lon="9.23438">
        <ele>44.087058</ele>
        <time>2020-08-05T10:21:15.292Z</time>
      </trkpt>
      <trkpt lat="63.33117" lon="9.2346">
        <ele>43.831315</ele>
        <time>2020-08-05T10:21:17.302Z</time>
      </trkpt>
      <trkpt lat="63.33121" lon="9.23483">
        <ele>43.572723</ele>
        <time>2020-08-05T10:21:19.387Z</time>
      </trkpt>
      <trkpt lat="63.33126" lon="9.23505">
        <ele>43.318916</ele>
        <time>2020-08-05T10:21:21.313Z</time>
      </trkpt>
      <trkpt lat="63.3313" lon="9.23527">
        <ele>43.518437</ele>
        <time>2020-08-05T10:21:23.333Z</time>
      </trkpt>
      <trkpt lat="63.33133" lon="9.23548">
        <ele>43.763155</ele>
        <time>2020-08-05T10:21:25.306Z</time>
      </trkpt>
      <trkpt lat="63.33137" lon="9.23569">
        <ele>44.00536</ele>
        <time>2020-08-05T10:21:27.368Z</time>
      </trkpt>
      <trkpt lat="63.33142" lon="9.23589">
        <ele>44.252534</ele>
        <time>2020-08-05T10:21:29.346Z</time>
      </trkpt>
      <trkpt lat="63.33146" lon="9.23609">
        <ele>44.486858</ele>
        <time>2020-08-05T10:21:31.323Z</time>
      </trkpt>
      <trkpt lat="63.33149" lon="9.23628">
        <ele>44.709846</ele>
        <time>2020-08-05T10:21:33.316Z</time>
      </trkpt>
      <trkpt lat="63.33154" lon="9.23654">
        <ele>45.017928</ele>
        <time>2020-08-05T10:21:36.347Z</time>
      </trkpt>
      <trkpt lat="63.33159" lon="9.2368">
        <ele>45.309529</ele>
        <time>2020-08-05T10:21:39.330Z</time>
      </trkpt>
      <trkpt lat="63.33164" lon="9.23704">
        <ele>45.594992</ele>
        <time>2020-08-05T10:21:42.339Z</time>
      </trkpt>
      <trkpt lat="63.3317" lon="9.23727">
        <ele>45.885496</ele>
        <time>2020-08-05T10:21:45.293Z</time>
      </trkpt>
      <trkpt lat="63.33175" lon="9.23753">
        <ele>46.18767</ele>
        <time>2020-08-05T10:21:48.316Z</time>
      </trkpt>
      <trkpt lat="63.3318" lon="9.23777">
        <ele>46.48012</ele>
        <time>2020-08-05T10:21:51.324Z</time>
      </trkpt>
      <trkpt lat="63.33185" lon="9.238">
        <ele>46.758698</ele>
        <time>2020-08-05T10:21:54.357Z</time>
      </trkpt>
      <trkpt lat="63.33191" lon="9.23821">
        <ele>47.023466</ele>
        <time>2020-08-05T10:21:57.340Z</time>
      </trkpt>
      <trkpt lat="63.33196" lon="9.2384">
        <ele>47.265998</ele>
        <time>2020-08-05T10:22:00.337Z</time>
      </trkpt>
      <trkpt lat="63.33202" lon="9.23857">
        <ele>47.500167</ele>
        <time>2020-08-05T10:22:03.332Z</time>
      </trkpt>
      <trkpt lat="63.33209" lon="9.23875">
        <ele>47.848917</ele>
        <time>2020-08-05T10:22:06.319Z</time>
      </trkpt>
      <trkpt lat="63.33215" lon="9.23892">
        <ele>48.267804</ele>
        <time>2020-08-05T10:22:09.349Z</time>
      </trkpt>
      <trkpt lat="63.33222" lon="9.23913">
        <ele>48.777005</ele>
        <time>2020-08-05T10:22:13.333Z</time>
      </trkpt>
      <trkpt lat="63.33228" lon="9.23933">
        <ele>49.256248</ele>
        <time>2020-08-05T10:22:17.354Z</time>
      </trkpt>
      <trkpt lat="63.33235" lon="9.23953">
        <ele>49.729814</ele>
        <time>2020-08-05T10:22:21.330Z</time>
      </trkpt>
      <trkpt lat="63.33241" lon="9.2397">
        <ele>50.15389</ele>
        <time>2020-08-05T10:22:25.375Z</time>
      </trkpt>
      <trkpt lat="63.33247" lon="9.23988">
        <ele>50.594681</ele>
        <time>2020-08-05T10:22:29.326Z</time>
      </trkpt>
      <trkpt lat="63.33254" lon="9.24007">
        <ele>51.063191</ele>
        <time>2020-08-05T10:22:33.368Z</time>
      </trkpt>
      <trkpt lat="63.33261" lon="9.24023">
        <ele>51.499194</ele>
        <time>2020-08-05T10:22:37.338Z</time>
      </trkpt>
      <trkpt lat="63.33268" lon="9.24043">
        <ele>51.969226</ele>
        <time>2020-08-05T10:22:41.313Z</time>
      </trkpt>
      <trkpt lat="63.33275" lon="9.24064">
        <ele>52.467179</ele>
        <time>2020-08-05T10:22:45.346Z</time>
      </trkpt>
      <trkpt lat="63.33282" lon="9.24084">
        <ele>52.968122</ele>
        <time>2020-08-05T10:22:49.365Z</time>
      </trkpt>
      <trkpt lat="63.33289" lon="9.24105">
        <ele>53.477159</ele>
        <time>2020-08-05T10:22:53.361Z</time>
      </trkpt>
      <trkpt lat="63.33295" lon="9.24125">
        <ele>53.939943</ele>
        <time>2020-08-05T10:22:57.348Z</time>
      </trkpt>
      <trkpt lat="63.33301" lon="9.2414">
        <ele>54.328263</ele>
        <time>2020-08-05T10:23:00.322Z</time>
      </trkpt>
      <trkpt lat="63.33308" lon="9.24155">
        <ele>54.739788</ele>
        <time>2020-08-05T10:23:03.307Z</time>
      </trkpt>
      <trkpt lat="63.33317" lon="9.2417">
        <ele>55.239926</ele>
        <time>2020-08-05T10:23:06.348Z</time>
      </trkpt>
      <trkpt lat="63.33328" lon="9.24186">
        <ele>55.522118</ele>
        <time>2020-08-05T10:23:09.359Z</time>
      </trkpt>
      <trkpt lat="63.33339" lon="9.24202">
        <ele>55.718236</ele>
        <time>2020-08-05T10:23:12.351Z</time>
      </trkpt>
      <trkpt lat="63.3335" lon="9.24216">
        <ele>55.916294</ele>
        <time>2020-08-05T10:23:15.375Z</time>
      </trkpt>
      <trkpt lat="63.33362" lon="9.24229">
        <ele>56.121153</ele>
        <time>2020-08-05T10:23:18.327Z</time>
      </trkpt>
      <trkpt lat="63.3337" lon="9.24239">
        <ele>56.261444</ele>
        <time>2020-08-05T10:23:20.329Z</time>
      </trkpt>
      <trkpt lat="63.33378" lon="9.24248">
        <ele>56.401736</ele>
        <time>2020-08-05T10:23:22.332Z</time>
      </trkpt>
      <trkpt lat="63.33389" lon="9.2426">
        <ele>56.588012</ele>
        <time>2020-08-05T10:23:25.338Z</time>
      </trkpt>
      <trkpt lat="63.334" lon="9.24264">
        <ele>56.761474</ele>
        <time>2020-08-05T10:23:28.340Z</time>
      </trkpt>
      <trkpt lat="63.33411" lon="9.24267">
        <ele>56.92719</ele>
        <time>2020-08-05T10:23:31.386Z</time>
      </trkpt>
      <trkpt lat="63.33421" lon="9.24264">
        <ele>57.079397</ele>
        <time>2020-08-05T10:23:35.336Z</time>
      </trkpt>
      <trkpt lat="63.3343" lon="9.24258">
        <ele>57.224565</ele>
        <time>2020-08-05T10:23:42.342Z</time>
      </trkpt>
      <trkpt lat="63.33439" lon="9.24251">
        <ele>57.378619</ele>
        <time>2020-08-05T10:23:49.340Z</time>
      </trkpt>
      <trkpt lat="63.33448" lon="9.24247">
        <ele>57.522677</ele>
        <time>2020-08-05T10:23:56.341Z</time>
      </trkpt>
      <trkpt lat="63.33458" lon="9.24244">
        <ele>57.669295</ele>
        <time>2020-08-05T10:24:04.374Z</time>
      </trkpt>
      <trkpt lat="63.33467" lon="9.24241">
        <ele>57.807986</ele>
        <time>2020-08-05T10:24:10.345Z</time>
      </trkpt>
      <trkpt lat="63.33476" lon="9.24239">
        <ele>57.95205</ele>
        <time>2020-08-05T10:24:16.341Z</time>
      </trkpt>
      <trkpt lat="63.33486" lon="9.24235">
        <ele>58.105083</ele>
        <time>2020-08-05T10:24:23.347Z</time>
      </trkpt>
      <trkpt lat="63.33496" lon="9.24232">
        <ele>58.958202</ele>
        <time>2020-08-05T10:24:30.312Z</time>
      </trkpt>
      <trkpt lat="63.33505" lon="9.24229">
        <ele>59.952823</ele>
        <time>2020-08-05T10:24:37.341Z</time>
      </trkpt>
      <trkpt lat="63.33515" lon="9.24231">
        <ele>60.903078</ele>
        <time>2020-08-05T10:24:44.333Z</time>
      </trkpt>
      <trkpt lat="63.33524" lon="9.24234">
        <ele>61.838405</ele>
        <time>2020-08-05T10:24:52.338Z</time>
      </trkpt>
      <trkpt lat="63.33534" lon="9.24238">
        <ele>62.814349</ele>
        <time>2020-08-05T10:24:59.417Z</time>
      </trkpt>
      <trkpt lat="63.33544" lon="9.24244">
        <ele>63.83808</ele>
        <time>2020-08-05T10:25:07.336Z</time>
      </trkpt>
      <trkpt lat="63.33553" lon="9.24253">
        <ele>64.857771</ele>
        <time>2020-08-05T10:25:13.340Z</time>
      </trkpt>
      <trkpt lat="63.33562" lon="9.24264">
        <ele>65.830776</ele>
        <time>2020-08-05T10:25:20.343Z</time>
      </trkpt>
      <trkpt lat="63.3357" lon="9.24274">
        <ele>66.812663</ele>
        <time>2020-08-05T10:25:29.343Z</time>
      </trkpt>
      <trkpt lat="63.33579" lon="9.24281">
        <ele>67.709667</ele>
        <time>2020-08-05T10:25:35.326Z</time>
      </trkpt>
      <trkpt lat="63.33587" lon="9.2429">
        <ele>68.623682</ele>
        <time>2020-08-05T10:25:44.322Z</time>
      </trkpt>
      <trkpt lat="63.33596" lon="9.24299">
        <ele>69.581558</ele>
        <time>2020-08-05T10:25:53.333Z</time>
      </trkpt>
      <trkpt lat="63.33605" lon="9.24302">
        <ele>70.52799</ele>
        <time>2020-08-05T10:26:05.319Z</time>
      </trkpt>
      <trkpt lat="63.33628" lon="9.24309">
        <ele>72.841616</ele>
        <time>2020-08-05T10:26:29.353Z</time>
      </trkpt>
      <trkpt lat="63.33638" lon="9.24313">
        <ele>73.79012</ele>
        <time>2020-08-05T10:26:34.353Z</time>
      </trkpt>
      <trkpt lat="63.33647" lon="9.24314">
        <ele>74.737813</ele>
        <time>2020-08-05T10:26:45.348Z</time>
      </trkpt>
      <trkpt lat="63.33657" lon="9.24316">
        <ele>75.737051</ele>
        <time>2020-08-05T10:26:53.340Z</time>
      </trkpt>
      <trkpt lat="63.33666" lon="9.24318">
        <ele>76.503662</ele>
        <time>2020-08-05T10:26:59.332Z</time>
      </trkpt>
      <trkpt lat="63.33676" lon="9.24322">
        <ele>77.219835</ele>
        <time>2020-08-05T10:27:08.329Z</time>
      </trkpt>
      <trkpt lat="63.33685" lon="9.2432">
        <ele>77.935074</ele>
        <time>2020-08-05T10:27:15.331Z</time>
      </trkpt>
      <trkpt lat="63.33695" lon="9.24324">
        <ele>78.699155</ele>
        <time>2020-08-05T10:27:22.346Z</time>
      </trkpt>
      <trkpt lat="63.33704" lon="9.24332">
        <ele>79.429437</ele>
        <time>2020-08-05T10:27:28.380Z</time>
      </trkpt>
      <trkpt lat="63.33714" lon="9.24338">
        <ele>80.230316</ele>
        <time>2020-08-05T10:27:33.341Z</time>
      </trkpt>
      <trkpt lat="63.33725" lon="9.24344">
        <ele>81.014942</ele>
        <time>2020-08-05T10:27:39.350Z</time>
      </trkpt>
      <trkpt lat="63.33733" lon="9.24355">
        <ele>81.748555</ele>
        <time>2020-08-05T10:27:44.340Z</time>
      </trkpt>
      <trkpt lat="63.33741" lon="9.24366">
        <ele>82.449515</ele>
        <time>2020-08-05T10:27:49.334Z</time>
      </trkpt>
      <trkpt lat="63.33749" lon="9.24379">
        <ele>83.22854</ele>
        <time>2020-08-05T10:27:54.322Z</time>
      </trkpt>
      <trkpt lat="63.33757" lon="9.24391">
        <ele>83.920769</ele>
        <time>2020-08-05T10:27:58.335Z</time>
      </trkpt>
      <trkpt lat="63.33765" lon="9.24404">
        <ele>84.654928</ele>
        <time>2020-08-05T10:28:03.389Z</time>
      </trkpt>
      <trkpt lat="63.33773" lon="9.24418">
        <ele>85.421397</ele>
        <time>2020-08-05T10:28:08.403Z</time>
      </trkpt>
      <trkpt lat="63.33779" lon="9.24433">
        <ele>86.135077</ele>
        <time>2020-08-05T10:28:13.327Z</time>
      </trkpt>
      <trkpt lat="63.33787" lon="9.24446">
        <ele>86.835185</ele>
        <time>2020-08-05T10:28:18.325Z</time>
      </trkpt>
      <trkpt lat="63.33794" lon="9.24459">
        <ele>87.52358</ele>
        <time>2020-08-05T10:28:23.322Z</time>
      </trkpt>
      <trkpt lat="63.33801" lon="9.24475">
        <ele>88.307327</ele>
        <time>2020-08-05T10:28:30.335Z</time>
      </trkpt>
      <trkpt lat="63.33807" lon="9.2449">
        <ele>88.992536</ele>
        <time>2020-08-05T10:28:36.326Z</time>
      </trkpt>
      <trkpt lat="63.33815" lon="9.24505">
        <ele>89.633412</ele>
        <time>2020-08-05T10:28:42.316Z</time>
      </trkpt>
      <trkpt lat="63.33823" lon="9.2452">
        <ele>89.890019</ele>
        <time>2020-08-05T10:28:49.343Z</time>
      </trkpt>
      <trkpt lat="63.33831" lon="9.24532">
        <ele>90.12083</ele>
        <time>2020-08-05T10:28:55.363Z</time>
      </trkpt>
      <trkpt lat="63.33838" lon="9.24544">
        <ele>90.345639</ele>
        <time>2020-08-05T10:29:00.360Z</time>
      </trkpt>
      <trkpt lat="63.33846" lon="9.24557">
        <ele>90.58557</ele>
        <time>2020-08-05T10:29:05.381Z</time>
      </trkpt>
      <trkpt lat="63.33854" lon="9.24571">
        <ele>90.834082</ele>
        <time>2020-08-05T10:29:10.378Z</time>
      </trkpt>
      <trkpt lat="63.33861" lon="9.24583">
        <ele>91.054939</ele>
        <time>2020-08-05T10:29:14.323Z</time>
      </trkpt>
      <trkpt lat="63.3387" lon="9.24596">
        <ele>91.320201</ele>
        <time>2020-08-05T10:29:19.365Z</time>
      </trkpt>
      <trkpt lat="63.33879" lon="9.24603">
        <ele>91.556236</ele>
        <time>2020-08-05T10:29:23.319Z</time>
      </trkpt>
      <trkpt lat="63.33888" lon="9.24612">
        <ele>91.789145</ele>
        <time>2020-08-05T10:29:26.315Z</time>
      </trkpt>
      <trkpt lat="63.33897" lon="9.24618">
        <ele>92.027288</ele>
        <time>2020-08-05T10:29:29.323Z</time>
      </trkpt>
      <trkpt lat="63.33907" lon="9.24623">
        <ele>92.270239</ele>
        <time>2020-08-05T10:29:32.368Z</time>
      </trkpt>
      <trkpt lat="63.33916" lon="9.24629">
        <ele>92.494952</ele>
        <time>2020-08-05T10:29:35.338Z</time>
      </trkpt>
      <trkpt lat="63.33926" lon="9.24633">
        <ele>92.739692</ele>
        <time>2020-08-05T10:29:39.352Z</time>
      </trkpt>
      <trkpt lat="63.33935" lon="9.24634">
        <ele>92.978178</ele>
        <time>2020-08-05T10:29:43.364Z</time>
      </trkpt>
      <trkpt lat="63.33955" lon="9.24624">
        <ele>93.466826</ele>
        <time>2020-08-05T10:31:03.362Z</time>
      </trkpt>
      <trkpt lat="63.33964" lon="9.24621">
        <ele>93.699087</ele>
        <time>2020-08-05T10:31:08.311Z</time>
      </trkpt>
      <trkpt lat="63.33973" lon="9.24614">
        <ele>93.939521</ele>
        <time>2020-08-05T10:31:13.371Z</time>
      </trkpt>
      <trkpt lat="63.33983" lon="9.24605">
        <ele>94.377069</ele>
        <time>2020-08-05T10:31:19.349Z</time>
      </trkpt>
      <trkpt lat="63.34106" lon="9.24546">
        <ele>100.471028</ele>
        <time>2020-08-05T10:32:20.328Z</time>
      </trkpt>
      <trkpt lat="63.34097" lon="9.24482">
        <ele>101.929872</ele>
        <time>2020-08-05T10:32:21.355Z</time>
      </trkpt>
      <trkpt lat="63.34098" lon="9.24516">
        <ele>102.667363</ele>
        <time>2020-08-05T10:32:22.330Z</time>
      </trkpt>
      <trkpt lat="63.34097" lon="9.24552">
        <ele>103.631198</ele>
        <time>2020-08-05T10:32:24.424Z</time>
      </trkpt>
      <trkpt lat="63.34105" lon="9.24542">
        <ele>104.218998</ele>
        <time>2020-08-05T10:32:30.318Z</time>
      </trkpt>
      <trkpt lat="63.34113" lon="9.24526">
        <ele>104.820818</ele>
        <time>2020-08-05T10:32:34.328Z</time>
      </trkpt>
      <trkpt lat="63.3412" lon="9.24512">
        <ele>105.407153</ele>
        <time>2020-08-05T10:32:38.315Z</time>
      </trkpt>
      <trkpt lat="63.34129" lon="9.24505">
        <ele>105.947539</ele>
        <time>2020-08-05T10:32:42.323Z</time>
      </trkpt>
      <trkpt lat="63.34138" lon="9.24495">
        <ele>106.540645</ele>
        <time>2020-08-05T10:32:47.354Z</time>
      </trkpt>
      <trkpt lat="63.34145" lon="9.24485">
        <ele>107.074151</ele>
        <time>2020-08-05T10:32:52.324Z</time>
      </trkpt>
      <trkpt lat="63.34153" lon="9.24473">
        <ele>107.649987</ele>
        <time>2020-08-05T10:32:57.314Z</time>
      </trkpt>
      <trkpt lat="63.3416" lon="9.24459">
        <ele>108.208157</ele>
        <time>2020-08-05T10:33:02.335Z</time>
      </trkpt>
      <trkpt lat="63.34167" lon="9.24444">
        <ele>108.791812</ele>
        <time>2020-08-05T10:33:07.336Z</time>
      </trkpt>
      <trkpt lat="63.34176" lon="9.24433">
        <ele>109.354566</ele>
        <time>2020-08-05T10:33:12.327Z</time>
      </trkpt>
      <trkpt lat="63.34185" lon="9.24423">
        <ele>109.973324</ele>
        <time>2020-08-05T10:33:17.336Z</time>
      </trkpt>
      <trkpt lat="63.34194" lon="9.24412">
        <ele>110.568568</ele>
        <time>2020-08-05T10:33:22.352Z</time>
      </trkpt>
      <trkpt lat="63.34201" lon="9.244">
        <ele>111.111571</ele>
        <time>2020-08-05T10:33:27.328Z</time>
      </trkpt>
      <trkpt lat="63.34209" lon="9.24387">
        <ele>111.713436</ele>
        <time>2020-08-05T10:33:33.383Z</time>
      </trkpt>
      <trkpt lat="63.34216" lon="9.2437">
        <ele>112.339538</ele>
        <time>2020-08-05T10:33:39.353Z</time>
      </trkpt>
      <trkpt lat="63.34223" lon="9.24354">
        <ele>112.935207</ele>
        <time>2020-08-05T10:33:45.334Z</time>
      </trkpt>
      <trkpt lat="63.34229" lon="9.24338">
        <ele>113.421852</ele>
        <time>2020-08-05T10:33:51.361Z</time>
      </trkpt>
      <trkpt lat="63.34237" lon="9.24324">
        <ele>113.679018</ele>
        <time>2020-08-05T10:33:57.405Z</time>
      </trkpt>
      <trkpt lat="63.34244" lon="9.24312">
        <ele>113.91868</ele>
        <time>2020-08-05T10:34:03.346Z</time>
      </trkpt>
      <trkpt lat="63.34252" lon="9.24301">
        <ele>114.161608</ele>
        <time>2020-08-05T10:34:09.334Z</time>
      </trkpt>
      <trkpt lat="63.3426" lon="9.24292">
        <ele>114.397952</ele>
        <time>2020-08-05T10:34:15.341Z</time>
      </trkpt>
      <trkpt lat="63.34268" lon="9.24281">
        <ele>114.643412</ele>
        <time>2020-08-05T10:34:21.348Z</time>
      </trkpt>
      <trkpt lat="63.34278" lon="9.24272">
        <ele>114.920194</ele>
        <time>2020-08-05T10:34:27.335Z</time>
      </trkpt>
      <trkpt lat="63.34287" lon="9.24261">
        <ele>115.176271</ele>
        <time>2020-08-05T10:34:32.325Z</time>
      </trkpt>
      <trkpt lat="63.34297" lon="9.24256">
        <ele>115.459203</ele>
        <time>2020-08-05T10:34:37.342Z</time>
      </trkpt>
      <trkpt lat="63.34307" lon="9.24252">
        <ele>115.714452</ele>
        <time>2020-08-05T10:34:41.345Z</time>
      </trkpt>
      <trkpt lat="63.34316" lon="9.24246">
        <ele>115.965435</ele>
        <time>2020-08-05T10:34:45.359Z</time>
      </trkpt>
      <trkpt lat="63.34325" lon="9.24245">
        <ele>116.203301</ele>
        <time>2020-08-05T10:34:49.328Z</time>
      </trkpt>
      <trkpt lat="63.34334" lon="9.24245">
        <ele>116.443683</ele>
        <time>2020-08-05T10:34:53.335Z</time>
      </trkpt>
      <trkpt lat="63.34345" lon="9.24246">
        <ele>116.723106</ele>
        <time>2020-08-05T10:34:58.348Z</time>
      </trkpt>
      <trkpt lat="63.34355" lon="9.24242">
        <ele>116.982662</ele>
        <time>2020-08-05T10:35:03.323Z</time>
      </trkpt>
      <trkpt lat="63.34365" lon="9.24241">
        <ele>117.244058</ele>
        <time>2020-08-05T10:35:08.344Z</time>
      </trkpt>
      <trkpt lat="63.34374" lon="9.24243">
        <ele>117.488672</ele>
        <time>2020-08-05T10:35:12.326Z</time>
      </trkpt>
      <trkpt lat="63.34385" lon="9.24247">
        <ele>117.773334</ele>
        <time>2020-08-05T10:35:17.372Z</time>
      </trkpt>
      <trkpt lat="63.34395" lon="9.24254">
        <ele>118.061258</ele>
        <time>2020-08-05T10:35:21.366Z</time>
      </trkpt>
      <trkpt lat="63.34403" lon="9.24267">
        <ele>118.553527</ele>
        <time>2020-08-05T10:35:25.338Z</time>
      </trkpt>
      <trkpt lat="63.34411" lon="9.24283">
        <ele>119.063142</ele>
        <time>2020-08-05T10:35:30.324Z</time>
      </trkpt>
      <trkpt lat="63.34417" lon="9.243">
        <ele>119.562023</ele>
        <time>2020-08-05T10:35:35.334Z</time>
      </trkpt>
      <trkpt lat="63.34422" lon="9.2432">
        <ele>120.065153</ele>
        <time>2020-08-05T10:35:41.343Z</time>
      </trkpt>
      <trkpt lat="63.34427" lon="9.24341">
        <ele>120.586525</ele>
        <time>2020-08-05T10:35:48.344Z</time>
      </trkpt>
      <trkpt lat="63.34432" lon="9.24357">
        <ele>121.033881</ele>
        <time>2020-08-05T10:35:53.329Z</time>
      </trkpt>
      <trkpt lat="63.34437" lon="9.24377">
        <ele>121.558069</ele>
        <time>2020-08-05T10:35:59.341Z</time>
      </trkpt>
      <trkpt lat="63.34445" lon="9.24389">
        <ele>122.020104</ele>
        <time>2020-08-05T10:36:05.315Z</time>
      </trkpt>
      <trkpt lat="63.34454" lon="9.24401">
        <ele>122.538875</ele>
        <time>2020-08-05T10:36:11.385Z</time>
      </trkpt>
      <trkpt lat="63.34462" lon="9.24411">
        <ele>123.0042</ele>
        <time>2020-08-05T10:36:16.340Z</time>
      </trkpt>
      <trkpt lat="63.34471" lon="9.24418">
        <ele>123.462941</ele>
        <time>2020-08-05T10:36:20.359Z</time>
      </trkpt>
      <trkpt lat="63.34481" lon="9.24427">
        <ele>124.012662</ele>
        <time>2020-08-05T10:36:25.374Z</time>
      </trkpt>
      <trkpt lat="63.3449" lon="9.24433">
        <ele>124.471262</ele>
        <time>2020-08-05T10:36:29.368Z</time>
      </trkpt>
      <trkpt lat="63.34499" lon="9.24439">
        <ele>124.944137</ele>
        <time>2020-08-05T10:36:33.363Z</time>
      </trkpt>
      <trkpt lat="63.34509" lon="9.24447">
        <ele>125.468472</ele>
        <time>2020-08-05T10:36:37.356Z</time>
      </trkpt>
      <trkpt lat="63.34518" lon="9.24452">
        <ele>125.951527</ele>
        <time>2020-08-05T10:36:41.334Z</time>
      </trkpt>
      <trkpt lat="63.34529" lon="9.24459">
        <ele>126.483626</ele>
        <time>2020-08-05T10:36:45.349Z</time>
      </trkpt>
      <trkpt lat="63.34539" lon="9.24467">
        <ele>126.986702</ele>
        <time>2020-08-05T10:36:49.318Z</time>
      </trkpt>
      <trkpt lat="63.3455" lon="9.24475">
        <ele>126.161644</ele>
        <time>2020-08-05T10:36:53.328Z</time>
      </trkpt>
      <trkpt lat="63.34558" lon="9.24484">
        <ele>125.470609</ele>
        <time>2020-08-05T10:36:57.323Z</time>
      </trkpt>
      <trkpt lat="63.34565" lon="9.24498">
        <ele>124.79033</ele>
        <time>2020-08-05T10:37:01.364Z</time>
      </trkpt>
      <trkpt lat="63.34574" lon="9.2451">
        <ele>124.059811</ele>
        <time>2020-08-05T10:37:05.362Z</time>
      </trkpt>
      <trkpt lat="63.34582" lon="9.2452">
        <ele>123.399569</ele>
        <time>2020-08-05T10:37:08.360Z</time>
      </trkpt>
      <trkpt lat="63.3459" lon="9.24537">
        <ele>122.586562</ele>
        <time>2020-08-05T10:37:11.319Z</time>
      </trkpt>
      <trkpt lat="63.34597" lon="9.24553">
        <ele>121.877921</ele>
        <time>2020-08-05T10:37:13.365Z</time>
      </trkpt>
      <trkpt lat="63.34604" lon="9.24571">
        <ele>121.059659</ele>
        <time>2020-08-05T10:37:15.325Z</time>
      </trkpt>
      <trkpt lat="63.34613" lon="9.24592">
        <ele>120.103061</ele>
        <time>2020-08-05T10:37:17.346Z</time>
      </trkpt>
      <trkpt lat="63.34623" lon="9.24614">
        <ele>119.110181</ele>
        <time>2020-08-05T10:37:19.319Z</time>
      </trkpt>
      <trkpt lat="63.34633" lon="9.24641">
        <ele>117.959828</ele>
        <time>2020-08-05T10:37:21.342Z</time>
      </trkpt>
      <trkpt lat="63.34645" lon="9.24672">
        <ele>116.652991</ele>
        <time>2020-08-05T10:37:23.365Z</time>
      </trkpt>
      <trkpt lat="63.34651" lon="9.24689">
        <ele>115.957408</ele>
        <time>2020-08-05T10:37:24.335Z</time>
      </trkpt>
      <trkpt lat="63.34657" lon="9.24707">
        <ele>115.225281</ele>
        <time>2020-08-05T10:37:25.336Z</time>
      </trkpt>
      <trkpt lat="63.34663" lon="9.24725">
        <ele>114.464302</ele>
        <time>2020-08-05T10:37:26.342Z</time>
      </trkpt>
      <trkpt lat="63.3467" lon="9.24744">
        <ele>113.674982</ele>
        <time>2020-08-05T10:37:27.329Z</time>
      </trkpt>
      <trkpt lat="63.34676" lon="9.24763">
        <ele>112.833684</ele>
        <time>2020-08-05T10:37:28.322Z</time>
      </trkpt>
      <trkpt lat="63.34683" lon="9.24782">
        <ele>111.972612</ele>
        <time>2020-08-05T10:37:29.381Z</time>
      </trkpt>
      <trkpt lat="63.34691" lon="9.24803">
        <ele>111.07279</ele>
        <time>2020-08-05T10:37:30.337Z</time>
      </trkpt>
      <trkpt lat="63.34698" lon="9.24823">
        <ele>110.175055</ele>
        <time>2020-08-05T10:37:31.334Z</time>
      </trkpt>
      <trkpt lat="63.34705" lon="9.24844">
        <ele>109.25479</ele>
        <time>2020-08-05T10:37:32.381Z</time>
      </trkpt>
      <trkpt lat="63.34714" lon="9.24865">
        <ele>108.294311</ele>
        <time>2020-08-05T10:37:33.335Z</time>
      </trkpt>
      <trkpt lat="63.34722" lon="9.24886">
        <ele>107.333833</ele>
        <time>2020-08-05T10:37:34.336Z</time>
      </trkpt>
      <trkpt lat="63.3473" lon="9.24906">
        <ele>106.391632</ele>
        <time>2020-08-05T10:37:35.331Z</time>
      </trkpt>
      <trkpt lat="63.34738" lon="9.24924">
        <ele>105.482973</ele>
        <time>2020-08-05T10:37:36.323Z</time>
      </trkpt>
      <trkpt lat="63.34747" lon="9.24941">
        <ele>104.583851</ele>
        <time>2020-08-05T10:37:37.314Z</time>
      </trkpt>
      <trkpt lat="63.34757" lon="9.24956">
        <ele>103.6966</ele>
        <time>2020-08-05T10:37:38.341Z</time>
      </trkpt>
      <trkpt lat="63.34767" lon="9.24969">
        <ele>102.780274</ele>
        <time>2020-08-05T10:37:39.365Z</time>
      </trkpt>
      <trkpt lat="63.34777" lon="9.24982">
        <ele>101.876118</ele>
        <time>2020-08-05T10:37:40.408Z</time>
      </trkpt>
      <trkpt lat="63.34787" lon="9.24993">
        <ele>100.995586</ele>
        <time>2020-08-05T10:37:41.335Z</time>
      </trkpt>
      <trkpt lat="63.34798" lon="9.25003">
        <ele>100.132174</ele>
        <time>2020-08-05T10:37:42.346Z</time>
      </trkpt>
      <trkpt lat="63.34808" lon="9.25012">
        <ele>99.019821</ele>
        <time>2020-08-05T10:37:43.339Z</time>
      </trkpt>
      <trkpt lat="63.34819" lon="9.25022">
        <ele>97.819708</ele>
        <time>2020-08-05T10:37:44.356Z</time>
      </trkpt>
      <trkpt lat="63.34829" lon="9.25031">
        <ele>96.658023</ele>
        <time>2020-08-05T10:37:45.341Z</time>
      </trkpt>
      <trkpt lat="63.34839" lon="9.25041">
        <ele>95.510512</ele>
        <time>2020-08-05T10:37:46.325Z</time>
      </trkpt>
      <trkpt lat="63.34848" lon="9.25053">
        <ele>94.439513</ele>
        <time>2020-08-05T10:37:47.343Z</time>
      </trkpt>
      <trkpt lat="63.34856" lon="9.25069">
        <ele>93.3451</ele>
        <time>2020-08-05T10:37:48.325Z</time>
      </trkpt>
      <trkpt lat="63.34863" lon="9.25087">
        <ele>92.284211</ele>
        <time>2020-08-05T10:37:49.326Z</time>
      </trkpt>
      <trkpt lat="63.34868" lon="9.25107">
        <ele>91.179538</ele>
        <time>2020-08-05T10:37:50.351Z</time>
      </trkpt>
      <trkpt lat="63.34872" lon="9.25129">
        <ele>90.082634</ele>
        <time>2020-08-05T10:37:51.366Z</time>
      </trkpt>
      <trkpt lat="63.34875" lon="9.25153">
        <ele>88.957146</ele>
        <time>2020-08-05T10:37:52.374Z</time>
      </trkpt>
      <trkpt lat="63.34877" lon="9.25177">
        <ele>87.82696</ele>
        <time>2020-08-05T10:37:53.357Z</time>
      </trkpt>
      <trkpt lat="63.34878" lon="9.25201">
        <ele>86.685381</ele>
        <time>2020-08-05T10:37:54.335Z</time>
      </trkpt>
      <trkpt lat="63.34877" lon="9.25227">
        <ele>85.519221</ele>
        <time>2020-08-05T10:37:55.386Z</time>
      </trkpt>
      <trkpt lat="63.34875" lon="9.25251">
        <ele>84.360468</ele>
        <time>2020-08-05T10:37:56.353Z</time>
      </trkpt>
      <trkpt lat="63.34873" lon="9.25276">
        <ele>83.193134</ele>
        <time>2020-08-05T10:37:57.331Z</time>
      </trkpt>
      <trkpt lat="63.34869" lon="9.25301">
        <ele>82.010102</ele>
        <time>2020-08-05T10:37:58.317Z</time>
      </trkpt>
      <trkpt lat="63.34866" lon="9.25325">
        <ele>80.835079</ele>
        <time>2020-08-05T10:37:59.328Z</time>
      </trkpt>
      <trkpt lat="63.34863" lon="9.25349">
        <ele>79.69187</ele>
        <time>2020-08-05T10:38:00.369Z</time>
      </trkpt>
      <trkpt lat="63.34861" lon="9.25372">
        <ele>78.59741</ele>
        <time>2020-08-05T10:38:01.335Z</time>
      </trkpt>
      <trkpt lat="63.34861" lon="9.25396">
        <ele>77.486815</ele>
        <time>2020-08-05T10:38:02.361Z</time>
      </trkpt>
      <trkpt lat="63.34862" lon="9.25419">
        <ele>76.402277</ele>
        <time>2020-08-05T10:38:03.397Z</time>
      </trkpt>
      <trkpt lat="63.34863" lon="9.25442">
        <ele>75.332084</ele>
        <time>2020-08-05T10:38:04.349Z</time>
      </trkpt>
      <trkpt lat="63.34865" lon="9.25465">
        <ele>74.275617</ele>
        <time>2020-08-05T10:38:05.322Z</time>
      </trkpt>
      <trkpt lat="63.34866" lon="9.25487">
        <ele>73.227825</ele>
        <time>2020-08-05T10:38:06.353Z</time>
      </trkpt>
      <trkpt lat="63.34867" lon="9.2551">
        <ele>72.184098</ele>
        <time>2020-08-05T10:38:07.332Z</time>
      </trkpt>
      <trkpt lat="63.34867" lon="9.25532">
        <ele>71.171329</ele>
        <time>2020-08-05T10:38:08.342Z</time>
      </trkpt>
      <trkpt lat="63.34866" lon="9.25552">
        <ele>70.215385</ele>
        <time>2020-08-05T10:38:09.331Z</time>
      </trkpt>
      <trkpt lat="63.34857" lon="9.25586">
        <ele>68.382997</ele>
        <time>2020-08-05T10:38:11.329Z</time>
      </trkpt>
      <trkpt lat="63.34849" lon="9.25599">
        <ele>67.406435</ele>
        <time>2020-08-05T10:38:12.331Z</time>
      </trkpt>
      <trkpt lat="63.3484" lon="9.25608">
        <ele>66.39514</ele>
        <time>2020-08-05T10:38:13.316Z</time>
      </trkpt>
      <trkpt lat="63.34829" lon="9.25612">
        <ele>65.227218</ele>
        <time>2020-08-05T10:38:14.382Z</time>
      </trkpt>
      <trkpt lat="63.34818" lon="9.25614">
        <ele>64.066818</ele>
        <time>2020-08-05T10:38:15.315Z</time>
      </trkpt>
      <trkpt lat="63.34807" lon="9.25615">
        <ele>62.93867</ele>
        <time>2020-08-05T10:38:16.314Z</time>
      </trkpt>
      <trkpt lat="63.34795" lon="9.25616">
        <ele>62.066575</ele>
        <time>2020-08-05T10:38:17.341Z</time>
      </trkpt>
      <trkpt lat="63.34783" lon="9.25616">
        <ele>61.186996</ele>
        <time>2020-08-05T10:38:18.322Z</time>
      </trkpt>
      <trkpt lat="63.34772" lon="9.25616">
        <ele>60.314768</ele>
        <time>2020-08-05T10:38:19.333Z</time>
      </trkpt>
      <trkpt lat="63.3476" lon="9.25618">
        <ele>59.426337</ele>
        <time>2020-08-05T10:38:20.327Z</time>
      </trkpt>
      <trkpt lat="63.34748" lon="9.2562">
        <ele>58.527568</ele>
        <time>2020-08-05T10:38:21.361Z</time>
      </trkpt>
      <trkpt lat="63.34736" lon="9.25623">
        <ele>57.610769</ele>
        <time>2020-08-05T10:38:22.333Z</time>
      </trkpt>
      <trkpt lat="63.34724" lon="9.25628">
        <ele>56.671405</ele>
        <time>2020-08-05T10:38:23.344Z</time>
      </trkpt>
      <trkpt lat="63.34712" lon="9.25635">
        <ele>55.717861</ele>
        <time>2020-08-05T10:38:24.338Z</time>
      </trkpt>
      <trkpt lat="63.347" lon="9.25644">
        <ele>54.75454</ele>
        <time>2020-08-05T10:38:25.325Z</time>
      </trkpt>
      <trkpt lat="63.34689" lon="9.25656">
        <ele>53.801598</ele>
        <time>2020-08-05T10:38:26.332Z</time>
      </trkpt>
      <trkpt lat="63.34678" lon="9.25669">
        <ele>52.856108</ele>
        <time>2020-08-05T10:38:27.324Z</time>
      </trkpt>
      <trkpt lat="63.34668" lon="9.25685">
        <ele>51.949264</ele>
        <time>2020-08-05T10:38:28.361Z</time>
      </trkpt>
      <trkpt lat="63.3466" lon="9.25703">
        <ele>51.07048</ele>
        <time>2020-08-05T10:38:29.336Z</time>
      </trkpt>
      <trkpt lat="63.34652" lon="9.25721">
        <ele>50.232405</ele>
        <time>2020-08-05T10:38:30.323Z</time>
      </trkpt>
      <trkpt lat="63.34646" lon="9.25741">
        <ele>49.404217</ele>
        <time>2020-08-05T10:38:31.314Z</time>
      </trkpt>
      <trkpt lat="63.3464" lon="9.25761">
        <ele>48.961718</ele>
        <time>2020-08-05T10:38:32.367Z</time>
      </trkpt>
      <trkpt lat="63.34634" lon="9.2578">
        <ele>48.541747</ele>
        <time>2020-08-05T10:38:33.341Z</time>
      </trkpt>
      <trkpt lat="63.34629" lon="9.25801">
        <ele>48.129628</ele>
        <time>2020-08-05T10:38:34.364Z</time>
      </trkpt>
      <trkpt lat="63.34625" lon="9.25821">
        <ele>47.729971</ele>
        <time>2020-08-05T10:38:35.330Z</time>
      </trkpt>
      <trkpt lat="63.34621" lon="9.25842">
        <ele>47.331607</ele>
        <time>2020-08-05T10:38:36.348Z</time>
      </trkpt>
      <trkpt lat="63.34618" lon="9.25862">
        <ele>46.946105</ele>
        <time>2020-08-05T10:38:37.333Z</time>
      </trkpt>
      <trkpt lat="63.34616" lon="9.25883">
        <ele>46.564585</ele>
        <time>2020-08-05T10:38:38.362Z</time>
      </trkpt>
      <trkpt lat="63.34614" lon="9.25904">
        <ele>46.177308</ele>
        <time>2020-08-05T10:38:39.363Z</time>
      </trkpt>
      <trkpt lat="63.34612" lon="9.25925">
        <ele>45.78701</ele>
        <time>2020-08-05T10:38:40.326Z</time>
      </trkpt>
      <trkpt lat="63.34611" lon="9.25947">
        <ele>45.404996</ele>
        <time>2020-08-05T10:38:41.346Z</time>
      </trkpt>
      <trkpt lat="63.3461" lon="9.25968">
        <ele>45.015076</ele>
        <time>2020-08-05T10:38:42.346Z</time>
      </trkpt>
      <trkpt lat="63.34611" lon="9.25991">
        <ele>44.618108</ele>
        <time>2020-08-05T10:38:43.355Z</time>
      </trkpt>
      <trkpt lat="63.34611" lon="9.26013">
        <ele>44.223506</ele>
        <time>2020-08-05T10:38:44.354Z</time>
      </trkpt>
      <trkpt lat="63.34613" lon="9.26034">
        <ele>43.833209</ele>
        <time>2020-08-05T10:38:45.325Z</time>
      </trkpt>
      <trkpt lat="63.34616" lon="9.26056">
        <ele>43.428206</ele>
        <time>2020-08-05T10:38:46.344Z</time>
      </trkpt>
      <trkpt lat="63.34619" lon="9.26077">
        <ele>43.027387</ele>
        <time>2020-08-05T10:38:47.324Z</time>
      </trkpt>
      <trkpt lat="63.34623" lon="9.26097">
        <ele>42.630888</ele>
        <time>2020-08-05T10:38:48.348Z</time>
      </trkpt>
      <trkpt lat="63.34628" lon="9.26115">
        <ele>42.25087</ele>
        <time>2020-08-05T10:38:49.360Z</time>
      </trkpt>
      <trkpt lat="63.34634" lon="9.26132">
        <ele>42.43561</ele>
        <time>2020-08-05T10:38:50.362Z</time>
      </trkpt>
      <trkpt lat="63.3464" lon="9.26148">
        <ele>42.679862</ele>
        <time>2020-08-05T10:38:51.395Z</time>
      </trkpt>
      <trkpt lat="63.34652" lon="9.26175">
        <ele>43.147488</ele>
        <time>2020-08-05T10:38:53.340Z</time>
      </trkpt>
      <trkpt lat="63.34663" lon="9.26199">
        <ele>43.571316</ele>
        <time>2020-08-05T10:38:55.352Z</time>
      </trkpt>
      <trkpt lat="63.34674" lon="9.2622">
        <ele>43.955083</ele>
        <time>2020-08-05T10:38:57.368Z</time>
      </trkpt>
      <trkpt lat="63.34683" lon="9.2624">
        <ele>44.304333</ele>
        <time>2020-08-05T10:38:59.333Z</time>
      </trkpt>
      <trkpt lat="63.34692" lon="9.26259">
        <ele>44.626662</ele>
        <time>2020-08-05T10:39:01.344Z</time>
      </trkpt>
      <trkpt lat="63.34699" lon="9.26276">
        <ele>44.913226</ele>
        <time>2020-08-05T10:39:03.356Z</time>
      </trkpt>
      <trkpt lat="63.34705" lon="9.26293">
        <ele>45.18014</ele>
        <time>2020-08-05T10:39:05.366Z</time>
      </trkpt>
      <trkpt lat="63.34711" lon="9.26309">
        <ele>45.428771</ele>
        <time>2020-08-05T10:39:07.314Z</time>
      </trkpt>
      <trkpt lat="63.34717" lon="9.26324">
        <ele>45.677272</ele>
        <time>2020-08-05T10:39:09.331Z</time>
      </trkpt>
      <trkpt lat="63.34724" lon="9.26345">
        <ele>45.993078</ele>
        <time>2020-08-05T10:39:12.335Z</time>
      </trkpt>
      <trkpt lat="63.3473" lon="9.26363">
        <ele>46.266934</ele>
        <time>2020-08-05T10:39:15.326Z</time>
      </trkpt>
      <trkpt lat="63.34735" lon="9.26381">
        <ele>46.523782</ele>
        <time>2020-08-05T10:39:18.358Z</time>
      </trkpt>
      <trkpt lat="63.34741" lon="9.26398">
        <ele>46.775663</ele>
        <time>2020-08-05T10:39:21.348Z</time>
      </trkpt>
      <trkpt lat="63.34746" lon="9.26417">
        <ele>47.048965</ele>
        <time>2020-08-05T10:39:25.369Z</time>
      </trkpt>
      <trkpt lat="63.34752" lon="9.26437">
        <ele>47.453538</ele>
        <time>2020-08-05T10:39:29.327Z</time>
      </trkpt>
      <trkpt lat="63.34758" lon="9.26454">
        <ele>47.78972</ele>
        <time>2020-08-05T10:39:32.320Z</time>
      </trkpt>
      <trkpt lat="63.34764" lon="9.26473">
        <ele>48.186482</ele>
        <time>2020-08-05T10:39:36.326Z</time>
      </trkpt>
      <trkpt lat="63.34769" lon="9.2649">
        <ele>48.531317</ele>
        <time>2020-08-05T10:39:40.326Z</time>
      </trkpt>
      <trkpt lat="63.34775" lon="9.26507">
        <ele>48.896879</ele>
        <time>2020-08-05T10:39:44.356Z</time>
      </trkpt>
      <trkpt lat="63.34781" lon="9.26523">
        <ele>49.235655</ele>
        <time>2020-08-05T10:39:48.364Z</time>
      </trkpt>
      <trkpt lat="63.34787" lon="9.2654">
        <ele>49.608992</ele>
        <time>2020-08-05T10:39:53.319Z</time>
      </trkpt>
      <trkpt lat="63.34794" lon="9.26556">
        <ele>49.957447</ele>
        <time>2020-08-05T10:39:58.325Z</time>
      </trkpt>
      <trkpt lat="63.34801" lon="9.2657">
        <ele>50.316828</ele>
        <time>2020-08-05T10:40:03.344Z</time>
      </trkpt>
      <trkpt lat="63.34808" lon="9.26587">
        <ele>50.687718</ele>
        <time>2020-08-05T10:40:08.380Z</time>
      </trkpt>
      <trkpt lat="63.34815" lon="9.26602">
        <ele>51.050266</ele>
        <time>2020-08-05T10:40:13.334Z</time>
      </trkpt>
      <trkpt lat="63.34821" lon="9.26617">
        <ele>51.393717</ele>
        <time>2020-08-05T10:40:18.332Z</time>
      </trkpt>
      <trkpt lat="63.34827" lon="9.26633">
        <ele>51.741077</ele>
        <time>2020-08-05T10:40:23.321Z</time>
      </trkpt>
      <trkpt lat="63.34833" lon="9.2665">
        <ele>52.092541</ele>
        <time>2020-08-05T10:40:28.348Z</time>
      </trkpt>
      <trkpt lat="63.34839" lon="9.26666">
        <ele>52.462087</ele>
        <time>2020-08-05T10:40:33.354Z</time>
      </trkpt>
      <trkpt lat="63.34845" lon="9.26684">
        <ele>52.830289</ele>
        <time>2020-08-05T10:40:38.371Z</time>
      </trkpt>
      <trkpt lat="63.34853" lon="9.26701">
        <ele>53.228274</ele>
        <time>2020-08-05T10:40:43.351Z</time>
      </trkpt>
      <trkpt lat="63.34859" lon="9.26722">
        <ele>53.634579</ele>
        <time>2020-08-05T10:40:47.323Z</time>
      </trkpt>
      <trkpt lat="63.34866" lon="9.26743">
        <ele>53.59269</ele>
        <time>2020-08-05T10:40:51.360Z</time>
      </trkpt>
      <trkpt lat="63.34871" lon="9.2676">
        <ele>53.41988</ele>
        <time>2020-08-05T10:40:54.326Z</time>
      </trkpt>
      <trkpt lat="63.34877" lon="9.26779">
        <ele>53.232921</ele>
        <time>2020-08-05T10:40:57.391Z</time>
      </trkpt>
      <trkpt lat="63.34884" lon="9.26799">
        <ele>53.024508</ele>
        <time>2020-08-05T10:41:00.366Z</time>
      </trkpt>
      <trkpt lat="63.34891" lon="9.26821">
        <ele>52.799672</ele>
        <time>2020-08-05T10:41:03.331Z</time>
      </trkpt>
      <trkpt lat="63.34898" lon="9.26844">
        <ele>52.567677</ele>
        <time>2020-08-05T10:41:06.323Z</time>
      </trkpt>
      <trkpt lat="63.34905" lon="9.26867">
        <ele>52.337101</ele>
        <time>2020-08-05T10:41:09.324Z</time>
      </trkpt>
      <trkpt lat="63.34911" lon="9.2689">
        <ele>52.119658</ele>
        <time>2020-08-05T10:41:12.335Z</time>
      </trkpt>
      <trkpt lat="63.34915" lon="9.26912">
        <ele>51.919726</ele>
        <time>2020-08-05T10:41:15.353Z</time>
      </trkpt>
      <trkpt lat="63.3492" lon="9.26936">
        <ele>51.698667</ele>
        <time>2020-08-05T10:41:18.324Z</time>
      </trkpt>
      <trkpt lat="63.34924" lon="9.26964">
        <ele>51.453936</ele>
        <time>2020-08-05T10:41:21.371Z</time>
      </trkpt>
      <trkpt lat="63.34927" lon="9.26986">
        <ele>51.266894</ele>
        <time>2020-08-05T10:41:23.345Z</time>
      </trkpt>
      <trkpt lat="63.34931" lon="9.2701">
        <ele>51.054599</ele>
        <time>2020-08-05T10:41:25.367Z</time>
      </trkpt>
      <trkpt lat="63.34935" lon="9.27036">
        <ele>50.82316</ele>
        <time>2020-08-05T10:41:27.316Z</time>
      </trkpt>
      <trkpt lat="63.34939" lon="9.27066">
        <ele>50.560866</ele>
        <time>2020-08-05T10:41:29.388Z</time>
      </trkpt>
      <trkpt lat="63.34943" lon="9.27099">
        <ele>50.258574</ele>
        <time>2020-08-05T10:41:31.346Z</time>
      </trkpt>
      <trkpt lat="63.34947" lon="9.27134">
        <ele>49.919801</ele>
        <time>2020-08-05T10:41:33.341Z</time>
      </trkpt>
      <trkpt lat="63.34954" lon="9.2717">
        <ele>49.562627</ele>
        <time>2020-08-05T10:41:35.334Z</time>
      </trkpt>
      <trkpt lat="63.34965" lon="9.27202">
        <ele>49.179003</ele>
        <time>2020-08-05T10:41:37.312Z</time>
      </trkpt>
      <trkpt lat="63.34972" lon="9.27216">
        <ele>48.990819</ele>
        <time>2020-08-05T10:41:38.423Z</time>
      </trkpt>
      <trkpt lat="63.34979" lon="9.27228">
        <ele>48.799871</ele>
        <time>2020-08-05T10:41:39.356Z</time>
      </trkpt>
      <trkpt lat="63.34994" lon="9.27249">
        <ele>48.438043</ele>
        <time>2020-08-05T10:41:41.370Z</time>
      </trkpt>
      <trkpt lat="63.35008" lon="9.27266">
        <ele>48.097631</ele>
        <time>2020-08-05T10:41:43.321Z</time>
      </trkpt>
      <trkpt lat="63.35021" lon="9.27284">
        <ele>47.778462</ele>
        <time>2020-08-05T10:41:45.346Z</time>
      </trkpt>
      <trkpt lat="63.35033" lon="9.27301">
        <ele>47.475732</ele>
        <time>2020-08-05T10:41:47.333Z</time>
      </trkpt>
      <trkpt lat="63.35044" lon="9.27317">
        <ele>47.207192</ele>
        <time>2020-08-05T10:41:49.351Z</time>
      </trkpt>
      <trkpt lat="63.35054" lon="9.2733">
        <ele>46.958334</ele>
        <time>2020-08-05T10:41:51.346Z</time>
      </trkpt>
      <trkpt lat="63.35064" lon="9.27342">
        <ele>46.723958</ele>
        <time>2020-08-05T10:41:53.339Z</time>
      </trkpt>
      <trkpt lat="63.35073" lon="9.27351">
        <ele>46.723442</ele>
        <time>2020-08-05T10:41:55.336Z</time>
      </trkpt>
      <trkpt lat="63.35081" lon="9.2736">
        <ele>46.783467</ele>
        <time>2020-08-05T10:41:57.320Z</time>
      </trkpt>
      <trkpt lat="63.35089" lon="9.27369">
        <ele>46.846897</ele>
        <time>2020-08-05T10:41:59.334Z</time>
      </trkpt>
      <trkpt lat="63.35097" lon="9.2738">
        <ele>46.908126</ele>
        <time>2020-08-05T10:42:01.329Z</time>
      </trkpt>
      <trkpt lat="63.35105" lon="9.2739">
        <ele>46.97095</ele>
        <time>2020-08-05T10:42:03.357Z</time>
      </trkpt>
      <trkpt lat="63.35114" lon="9.274">
        <ele>47.035983</ele>
        <time>2020-08-05T10:42:05.346Z</time>
      </trkpt>
      <trkpt lat="63.35124" lon="9.2741">
        <ele>47.109434</ele>
        <time>2020-08-05T10:42:07.334Z</time>
      </trkpt>
      <trkpt lat="63.35134" lon="9.2742">
        <ele>47.179342</ele>
        <time>2020-08-05T10:42:09.324Z</time>
      </trkpt>
      <trkpt lat="63.35144" lon="9.27429">
        <ele>47.252517</ele>
        <time>2020-08-05T10:42:11.371Z</time>
      </trkpt>
      <trkpt lat="63.35155" lon="9.27438">
        <ele>47.330284</ele>
        <time>2020-08-05T10:42:13.331Z</time>
      </trkpt>
      <trkpt lat="63.35166" lon="9.27448">
        <ele>47.409144</ele>
        <time>2020-08-05T10:42:15.332Z</time>
      </trkpt>
      <trkpt lat="63.35176" lon="9.27458">
        <ele>47.483327</ele>
        <time>2020-08-05T10:42:17.338Z</time>
      </trkpt>
      <trkpt lat="63.35185" lon="9.27465">
        <ele>47.549729</ele>
        <time>2020-08-05T10:42:19.331Z</time>
      </trkpt>
      <trkpt lat="63.35194" lon="9.27472">
        <ele>47.612342</ele>
        <time>2020-08-05T10:42:21.373Z</time>
      </trkpt>
      <trkpt lat="63.35203" lon="9.2748">
        <ele>47.675374</ele>
        <time>2020-08-05T10:42:23.402Z</time>
      </trkpt>
      <trkpt lat="63.35211" lon="9.27487">
        <ele>47.735913</ele>
        <time>2020-08-05T10:42:25.333Z</time>
      </trkpt>
      <trkpt lat="63.35223" lon="9.27498">
        <ele>47.821955</ele>
        <time>2020-08-05T10:42:28.326Z</time>
      </trkpt>
      <trkpt lat="63.35234" lon="9.27509">
        <ele>47.954147</ele>
        <time>2020-08-05T10:42:31.319Z</time>
      </trkpt>
      <trkpt lat="63.35244" lon="9.27519">
        <ele>48.213824</ele>
        <time>2020-08-05T10:42:34.319Z</time>
      </trkpt>
      <trkpt lat="63.35253" lon="9.27529">
        <ele>48.448344</ele>
        <time>2020-08-05T10:42:37.348Z</time>
      </trkpt>
      <trkpt lat="63.35261" lon="9.2754">
        <ele>48.67103</ele>
        <time>2020-08-05T10:42:40.325Z</time>
      </trkpt>
      <trkpt lat="63.3527" lon="9.27552">
        <ele>48.903333</ele>
        <time>2020-08-05T10:42:43.334Z</time>
      </trkpt>
      <trkpt lat="63.35278" lon="9.27568">
        <ele>49.165811</ele>
        <time>2020-08-05T10:42:47.333Z</time>
      </trkpt>
      <trkpt lat="63.35284" lon="9.27586">
        <ele>49.390003</ele>
        <time>2020-08-05T10:42:51.335Z</time>
      </trkpt>
      <trkpt lat="63.35289" lon="9.27604">
        <ele>49.616284</ele>
        <time>2020-08-05T10:42:55.326Z</time>
      </trkpt>
      <trkpt lat="63.35294" lon="9.27627">
        <ele>49.878928</ele>
        <time>2020-08-05T10:43:00.319Z</time>
      </trkpt>
      <trkpt lat="63.35297" lon="9.2765">
        <ele>50.1315</ele>
        <time>2020-08-05T10:43:05.347Z</time>
      </trkpt>
      <trkpt lat="63.353" lon="9.27672">
        <ele>50.370394</ele>
        <time>2020-08-05T10:43:10.343Z</time>
      </trkpt>
      <trkpt lat="63.35302" lon="9.27692">
        <ele>50.580823</ele>
        <time>2020-08-05T10:43:14.373Z</time>
      </trkpt>
      <trkpt lat="63.35306" lon="9.27711">
        <ele>50.799461</ele>
        <time>2020-08-05T10:43:18.339Z</time>
      </trkpt>
      <trkpt lat="63.35309" lon="9.27736">
        <ele>51.066901</ele>
        <time>2020-08-05T10:43:22.322Z</time>
      </trkpt>
      <trkpt lat="63.35312" lon="9.27759">
        <ele>51.324408</ele>
        <time>2020-08-05T10:43:25.374Z</time>
      </trkpt>
      <trkpt lat="63.35316" lon="9.27784">
        <ele>51.59427</ele>
        <time>2020-08-05T10:43:28.344Z</time>
      </trkpt>
      <trkpt lat="63.3532" lon="9.27809">
        <ele>51.873966</ele>
        <time>2020-08-05T10:43:31.344Z</time>
      </trkpt>
      <trkpt lat="63.35323" lon="9.27838">
        <ele>51.922867</ele>
        <time>2020-08-05T10:43:34.328Z</time>
      </trkpt>
      <trkpt lat="63.35326" lon="9.27859">
        <ele>51.671624</ele>
        <time>2020-08-05T10:43:36.351Z</time>
      </trkpt>
      <trkpt lat="63.35328" lon="9.27882">
        <ele>51.41013</ele>
        <time>2020-08-05T10:43:38.346Z</time>
      </trkpt>
      <trkpt lat="63.3533" lon="9.27905">
        <ele>51.15024</ele>
        <time>2020-08-05T10:43:40.320Z</time>
      </trkpt>
      <trkpt lat="63.35332" lon="9.27925">
        <ele>50.91942</ele>
        <time>2020-08-05T10:43:42.326Z</time>
      </trkpt>
      <trkpt lat="63.35331" lon="9.27953">
        <ele>50.607263</ele>
        <time>2020-08-05T10:43:45.372Z</time>
      </trkpt>
      <trkpt lat="63.35329" lon="9.27981">
        <ele>50.295361</ele>
        <time>2020-08-05T10:43:48.314Z</time>
      </trkpt>
      <trkpt lat="63.35324" lon="9.28008">
        <ele>49.972503</ele>
        <time>2020-08-05T10:43:51.349Z</time>
      </trkpt>
      <trkpt lat="63.35319" lon="9.28035">
        <ele>49.645463</ele>
        <time>2020-08-05T10:43:54.402Z</time>
      </trkpt>
      <trkpt lat="63.35314" lon="9.2806">
        <ele>49.332689</ele>
        <time>2020-08-05T10:43:57.360Z</time>
      </trkpt>
      <trkpt lat="63.35309" lon="9.28088">
        <ele>49.004539</ele>
        <time>2020-08-05T10:44:00.338Z</time>
      </trkpt>
      <trkpt lat="63.35305" lon="9.28115">
        <ele>48.68143</ele>
        <time>2020-08-05T10:44:03.347Z</time>
      </trkpt>
      <trkpt lat="63.35301" lon="9.28143">
        <ele>48.354789</ele>
        <time>2020-08-05T10:44:06.325Z</time>
      </trkpt>
      <trkpt lat="63.35298" lon="9.28163">
        <ele>48.127233</ele>
        <time>2020-08-05T10:44:08.348Z</time>
      </trkpt>
      <trkpt lat="63.35296" lon="9.28183">
        <ele>47.892981</ele>
        <time>2020-08-05T10:44:10.344Z</time>
      </trkpt>
      <trkpt lat="63.35295" lon="9.28204">
        <ele>47.657383</ele>
        <time>2020-08-05T10:44:12.320Z</time>
      </trkpt>
      <trkpt lat="63.35294" lon="9.28225">
        <ele>47.58027</ele>
        <time>2020-08-05T10:44:14.371Z</time>
      </trkpt>
      <trkpt lat="63.35295" lon="9.28246">
        <ele>47.582969</ele>
        <time>2020-08-05T10:44:16.339Z</time>
      </trkpt>
      <trkpt lat="63.35298" lon="9.28266">
        <ele>47.585726</ele>
        <time>2020-08-05T10:44:18.389Z</time>
      </trkpt>
      <trkpt lat="63.35302" lon="9.28286">
        <ele>47.588635</ele>
        <time>2020-08-05T10:44:20.323Z</time>
      </trkpt>
      <trkpt lat="63.35308" lon="9.28305">
        <ele>47.591512</ele>
        <time>2020-08-05T10:44:22.350Z</time>
      </trkpt>
      <trkpt lat="63.35313" lon="9.28323">
        <ele>47.594351</ele>
        <time>2020-08-05T10:44:24.353Z</time>
      </trkpt>
      <trkpt lat="63.35319" lon="9.28339">
        <ele>47.596966</ele>
        <time>2020-08-05T10:44:26.362Z</time>
      </trkpt>
      <trkpt lat="63.35326" lon="9.2836">
        <ele>47.600359</ele>
        <time>2020-08-05T10:44:29.367Z</time>
      </trkpt>
      <trkpt lat="63.35334" lon="9.28378">
        <ele>47.603703</ele>
        <time>2020-08-05T10:44:32.344Z</time>
      </trkpt>
      <trkpt lat="63.35342" lon="9.28396">
        <ele>47.606962</ele>
        <time>2020-08-05T10:44:35.319Z</time>
      </trkpt>
      <trkpt lat="63.35352" lon="9.28418">
        <ele>47.610845</ele>
        <time>2020-08-05T10:44:38.352Z</time>
      </trkpt>
      <trkpt lat="63.35361" lon="9.28437">
        <ele>47.614462</ele>
        <time>2020-08-05T10:44:41.364Z</time>
      </trkpt>
      <trkpt lat="63.35369" lon="9.28456">
        <ele>47.617925</ele>
        <time>2020-08-05T10:44:44.331Z</time>
      </trkpt>
      <trkpt lat="63.35377" lon="9.28473">
        <ele>47.621101</ele>
        <time>2020-08-05T10:44:47.321Z</time>
      </trkpt>
      <trkpt lat="63.35385" lon="9.28488">
        <ele>47.624023</ele>
        <time>2020-08-05T10:44:50.333Z</time>
      </trkpt>
      <trkpt lat="63.35392" lon="9.28502">
        <ele>47.626707</ele>
        <time>2020-08-05T10:44:53.334Z</time>
      </trkpt>
      <trkpt lat="63.354" lon="9.28519">
        <ele>47.629881</ele>
        <time>2020-08-05T10:44:57.379Z</time>
      </trkpt>
      <trkpt lat="63.35408" lon="9.28533">
        <ele>48.015583</ele>
        <time>2020-08-05T10:45:01.354Z</time>
      </trkpt>
      <trkpt lat="63.35415" lon="9.28545">
        <ele>48.417273</ele>
        <time>2020-08-05T10:45:05.346Z</time>
      </trkpt>
      <trkpt lat="63.35424" lon="9.28559">
        <ele>48.911679</ele>
        <time>2020-08-05T10:45:10.315Z</time>
      </trkpt>
      <trkpt lat="63.35433" lon="9.2857">
        <ele>49.356376</ele>
        <time>2020-08-05T10:45:15.310Z</time>
      </trkpt>
      <trkpt lat="63.35443" lon="9.28579">
        <ele>49.839791</ele>
        <time>2020-08-05T10:45:20.345Z</time>
      </trkpt>
      <trkpt lat="63.35453" lon="9.28589">
        <ele>50.318397</ele>
        <time>2020-08-05T10:45:25.324Z</time>
      </trkpt>
      <trkpt lat="63.35462" lon="9.28595">
        <ele>50.727033</ele>
        <time>2020-08-05T10:45:29.367Z</time>
      </trkpt>
      <trkpt lat="63.35471" lon="9.286">
        <ele>51.126576</ele>
        <time>2020-08-05T10:45:33.406Z</time>
      </trkpt>
      <trkpt lat="63.35482" lon="9.28606">
        <ele>51.61032</ele>
        <time>2020-08-05T10:45:38.379Z</time>
      </trkpt>
      <trkpt lat="63.35492" lon="9.28611">
        <ele>52.07766</ele>
        <time>2020-08-05T10:45:43.343Z</time>
      </trkpt>
      <trkpt lat="63.35502" lon="9.28613">
        <ele>52.496448</ele>
        <time>2020-08-05T10:45:47.341Z</time>
      </trkpt>
      <trkpt lat="63.35511" lon="9.28614">
        <ele>52.922709</ele>
        <time>2020-08-05T10:45:51.322Z</time>
      </trkpt>
      <trkpt lat="63.3552" lon="9.28611">
        <ele>53.322383</ele>
        <time>2020-08-05T10:45:55.343Z</time>
      </trkpt>
      <trkpt lat="63.3553" lon="9.28609">
        <ele>53.724781</ele>
        <time>2020-08-05T10:45:59.334Z</time>
      </trkpt>
      <trkpt lat="63.35538" lon="9.28604">
        <ele>54.128073</ele>
        <time>2020-08-05T10:46:03.332Z</time>
      </trkpt>
      <trkpt lat="63.35549" lon="9.28598">
        <ele>54.615156</ele>
        <time>2020-08-05T10:46:08.349Z</time>
      </trkpt>
      <trkpt lat="63.3556" lon="9.28593">
        <ele>55.092794</ele>
        <time>2020-08-05T10:46:13.332Z</time>
      </trkpt>
      <trkpt lat="63.3557" lon="9.28586">
        <ele>55.551884</ele>
        <time>2020-08-05T10:46:18.354Z</time>
      </trkpt>
      <trkpt lat="63.3558" lon="9.28581">
        <ele>55.908161</ele>
        <time>2020-08-05T10:46:23.327Z</time>
      </trkpt>
      <trkpt lat="63.35589" lon="9.28575">
        <ele>56.240124</ele>
        <time>2020-08-05T10:46:28.313Z</time>
      </trkpt>
      <trkpt lat="63.35598" lon="9.2857">
        <ele>56.576898</ele>
        <time>2020-08-05T10:46:33.370Z</time>
      </trkpt>
      <trkpt lat="63.35607" lon="9.28566">
        <ele>56.894241</ele>
        <time>2020-08-05T10:46:37.365Z</time>
      </trkpt>
      <trkpt lat="63.35618" lon="9.2856">
        <ele>57.266364</ele>
        <time>2020-08-05T10:46:42.340Z</time>
      </trkpt>
      <trkpt lat="63.35628" lon="9.28552">
        <ele>57.64161</ele>
        <time>2020-08-05T10:46:47.408Z</time>
      </trkpt>
      <trkpt lat="63.35637" lon="9.28549">
        <ele>57.984862</ele>
        <time>2020-08-05T10:46:52.342Z</time>
      </trkpt>
      <trkpt lat="63.35647" lon="9.28546">
        <ele>58.340201</ele>
        <time>2020-08-05T10:46:57.338Z</time>
      </trkpt>
      <trkpt lat="63.35658" lon="9.28544">
        <ele>58.719246</ele>
        <time>2020-08-05T10:47:02.359Z</time>
      </trkpt>
      <trkpt lat="63.35668" lon="9.28546">
        <ele>59.053976</ele>
        <time>2020-08-05T10:47:06.324Z</time>
      </trkpt>
      <trkpt lat="63.35677" lon="9.28551">
        <ele>59.384244</ele>
        <time>2020-08-05T10:47:10.334Z</time>
      </trkpt>
      <trkpt lat="63.35686" lon="9.28561">
        <ele>59.750429</ele>
        <time>2020-08-05T10:47:15.311Z</time>
      </trkpt>
      <trkpt lat="63.35692" lon="9.28579">
        <ele>60.095214</ele>
        <time>2020-08-05T10:47:20.326Z</time>
      </trkpt>
      <trkpt lat="63.35695" lon="9.28599">
        <ele>60.431728</ele>
        <time>2020-08-05T10:47:26.367Z</time>
      </trkpt>
      <trkpt lat="63.35692" lon="9.28634">
        <ele>60.981847</ele>
        <time>2020-08-05T10:48:56.358Z</time>
      </trkpt>
      <trkpt lat="63.35688" lon="9.28656">
        <ele>61.357438</ele>
        <time>2020-08-05T10:49:01.356Z</time>
      </trkpt>
      <trkpt lat="63.35682" lon="9.28677">
        <ele>61.747616</ele>
        <time>2020-08-05T10:49:06.339Z</time>
      </trkpt>
      <trkpt lat="63.35676" lon="9.28693">
        <ele>61.903338</ele>
        <time>2020-08-05T10:49:10.315Z</time>
      </trkpt>
      <trkpt lat="63.35669" lon="9.28712">
        <ele>62.022865</ele>
        <time>2020-08-05T10:49:15.354Z</time>
      </trkpt>
      <trkpt lat="63.35661" lon="9.28725">
        <ele>62.128197</ele>
        <time>2020-08-05T10:49:19.374Z</time>
      </trkpt>
      <trkpt lat="63.35653" lon="9.28738">
        <ele>62.234999</ele>
        <time>2020-08-05T10:49:23.328Z</time>
      </trkpt>
      <trkpt lat="63.35645" lon="9.28753">
        <ele>62.345594</ele>
        <time>2020-08-05T10:49:27.353Z</time>
      </trkpt>
      <trkpt lat="63.35638" lon="9.28767">
        <ele>62.451844</ele>
        <time>2020-08-05T10:49:31.330Z</time>
      </trkpt>
      <trkpt lat="63.3563" lon="9.28781">
        <ele>62.560351</ele>
        <time>2020-08-05T10:49:35.343Z</time>
      </trkpt>
      <trkpt lat="63.35623" lon="9.28796">
        <ele>62.665617</ele>
        <time>2020-08-05T10:49:39.329Z</time>
      </trkpt>
      <trkpt lat="63.35616" lon="9.28811">
        <ele>62.770293</ele>
        <time>2020-08-05T10:49:43.382Z</time>
      </trkpt>
      <trkpt lat="63.35608" lon="9.28826">
        <ele>62.879919</ele>
        <time>2020-08-05T10:49:47.362Z</time>
      </trkpt>
      <trkpt lat="63.35601" lon="9.28842">
        <ele>62.992864</ele>
        <time>2020-08-05T10:49:51.353Z</time>
      </trkpt>
      <trkpt lat="63.35593" lon="9.2886">
        <ele>63.112973</ele>
        <time>2020-08-05T10:49:55.333Z</time>
      </trkpt>
      <trkpt lat="63.35586" lon="9.28878">
        <ele>63.229974</ele>
        <time>2020-08-05T10:49:59.323Z</time>
      </trkpt>
      <trkpt lat="63.3558" lon="9.28893">
        <ele>63.327155</ele>
        <time>2020-08-05T10:50:02.350Z</time>
      </trkpt>
      <trkpt lat="63.35573" lon="9.28909">
        <ele>63.437382</ele>
        <time>2020-08-05T10:50:05.332Z</time>
      </trkpt>
      <trkpt lat="63.35566" lon="9.28929">
        <ele>63.559305</ele>
        <time>2020-08-05T10:50:08.336Z</time>
      </trkpt>
      <trkpt lat="63.35558" lon="9.28949">
        <ele>63.685905</ele>
        <time>2020-08-05T10:50:11.330Z</time>
      </trkpt>
      <trkpt lat="63.35552" lon="9.2897">
        <ele>63.803954</ele>
        <time>2020-08-05T10:50:14.361Z</time>
      </trkpt>
      <trkpt lat="63.35545" lon="9.2899">
        <ele>63.897904</ele>
        <time>2020-08-05T10:50:17.345Z</time>
      </trkpt>
      <trkpt lat="63.35537" lon="9.29009">
        <ele>63.994364</ele>
        <time>2020-08-05T10:50:20.367Z</time>
      </trkpt>
      <trkpt lat="63.3553" lon="9.2903">
        <ele>64.094936</ele>
        <time>2020-08-05T10:50:23.322Z</time>
      </trkpt>
      <trkpt lat="63.35523" lon="9.2905">
        <ele>64.194908</ele>
        <time>2020-08-05T10:50:26.343Z</time>
      </trkpt>
      <trkpt lat="63.35516" lon="9.2907">
        <ele>64.290135</ele>
        <time>2020-08-05T10:50:29.359Z</time>
      </trkpt>
      <trkpt lat="63.3551" lon="9.29087">
        <ele>64.375126</ele>
        <time>2020-08-05T10:50:32.321Z</time>
      </trkpt>
      <trkpt lat="63.35504" lon="9.29105">
        <ele>64.458598</ele>
        <time>2020-08-05T10:50:35.353Z</time>
      </trkpt>
      <trkpt lat="63.35499" lon="9.29122">
        <ele>64.536967</ele>
        <time>2020-08-05T10:50:38.333Z</time>
      </trkpt>
      <trkpt lat="63.35493" lon="9.29138">
        <ele>64.616567</ele>
        <time>2020-08-05T10:50:41.330Z</time>
      </trkpt>
      <trkpt lat="63.35487" lon="9.29154">
        <ele>64.696444</ele>
        <time>2020-08-05T10:50:44.372Z</time>
      </trkpt>
      <trkpt lat="63.35481" lon="9.29171">
        <ele>64.781998</ele>
        <time>2020-08-05T10:50:47.379Z</time>
      </trkpt>
      <trkpt lat="63.35475" lon="9.29189">
        <ele>64.868526</ele>
        <time>2020-08-05T10:50:50.326Z</time>
      </trkpt>
      <trkpt lat="63.35469" lon="9.2921">
        <ele>64.960034</ele>
        <time>2020-08-05T10:50:53.345Z</time>
      </trkpt>
      <trkpt lat="63.35464" lon="9.29231">
        <ele>65.054185</ele>
        <time>2020-08-05T10:50:56.328Z</time>
      </trkpt>
      <trkpt lat="63.35458" lon="9.29255">
        <ele>65.157865</ele>
        <time>2020-08-05T10:50:59.341Z</time>
      </trkpt>
      <trkpt lat="63.35453" lon="9.29279">
        <ele>65.261333</ele>
        <time>2020-08-05T10:51:02.382Z</time>
      </trkpt>
      <trkpt lat="63.35448" lon="9.29305">
        <ele>65.129566</ele>
        <time>2020-08-05T10:51:05.335Z</time>
      </trkpt>
      <trkpt lat="63.35446" lon="9.29325">
        <ele>64.915363</ele>
        <time>2020-08-05T10:51:07.355Z</time>
      </trkpt>
      <trkpt lat="63.35443" lon="9.29345">
        <ele>64.686696</ele>
        <time>2020-08-05T10:51:09.346Z</time>
      </trkpt>
      <trkpt lat="63.35442" lon="9.29367">
        <ele>64.452929</ele>
        <time>2020-08-05T10:51:11.336Z</time>
      </trkpt>
      <trkpt lat="63.35441" lon="9.29389">
        <ele>64.219179</ele>
        <time>2020-08-05T10:51:13.374Z</time>
      </trkpt>
      <trkpt lat="63.3544" lon="9.29411">
        <ele>63.983452</ele>
        <time>2020-08-05T10:51:15.363Z</time>
      </trkpt>
      <trkpt lat="63.35441" lon="9.29433">
        <ele>63.741554</ele>
        <time>2020-08-05T10:51:17.393Z</time>
      </trkpt>
      <trkpt lat="63.35442" lon="9.29457">
        <ele>63.488239</ele>
        <time>2020-08-05T10:51:19.323Z</time>
      </trkpt>
      <trkpt lat="63.35443" lon="9.29481">
        <ele>63.224381</ele>
        <time>2020-08-05T10:51:21.364Z</time>
      </trkpt>
      <trkpt lat="63.35445" lon="9.29506">
        <ele>62.951482</ele>
        <time>2020-08-05T10:51:23.343Z</time>
      </trkpt>
      <trkpt lat="63.35448" lon="9.29532">
        <ele>62.669181</ele>
        <time>2020-08-05T10:51:25.364Z</time>
      </trkpt>
      <trkpt lat="63.35451" lon="9.29558">
        <ele>62.379158</ele>
        <time>2020-08-05T10:51:27.342Z</time>
      </trkpt>
      <trkpt lat="63.35456" lon="9.29584">
        <ele>62.081225</ele>
        <time>2020-08-05T10:51:29.335Z</time>
      </trkpt>
      <trkpt lat="63.35461" lon="9.29612">
        <ele>61.760154</ele>
        <time>2020-08-05T10:51:31.366Z</time>
      </trkpt>
      <trkpt lat="63.35467" lon="9.2964">
        <ele>61.430292</ele>
        <time>2020-08-05T10:51:33.340Z</time>
      </trkpt>
      <trkpt lat="63.35474" lon="9.29668">
        <ele>61.086145</ele>
        <time>2020-08-05T10:51:35.337Z</time>
      </trkpt>
      <trkpt lat="63.35481" lon="9.29697">
        <ele>60.766962</ele>
        <time>2020-08-05T10:51:37.365Z</time>
      </trkpt>
      <trkpt lat="63.35488" lon="9.29727">
        <ele>60.447846</ele>
        <time>2020-08-05T10:51:39.361Z</time>
      </trkpt>
      <trkpt lat="63.35496" lon="9.29756">
        <ele>60.12137</ele>
        <time>2020-08-05T10:51:41.334Z</time>
      </trkpt>
      <trkpt lat="63.35504" lon="9.29786">
        <ele>59.797598</ele>
        <time>2020-08-05T10:51:43.341Z</time>
      </trkpt>
      <trkpt lat="63.35512" lon="9.29814">
        <ele>59.479311</ele>
        <time>2020-08-05T10:51:45.364Z</time>
      </trkpt>
      <trkpt lat="63.3552" lon="9.29841">
        <ele>59.170084</ele>
        <time>2020-08-05T10:51:47.323Z</time>
      </trkpt>
      <trkpt lat="63.35528" lon="9.29867">
        <ele>58.880307</ele>
        <time>2020-08-05T10:51:49.355Z</time>
      </trkpt>
      <trkpt lat="63.35534" lon="9.29893">
        <ele>58.604261</ele>
        <time>2020-08-05T10:51:51.369Z</time>
      </trkpt>
      <trkpt lat="63.3554" lon="9.29918">
        <ele>58.332735</ele>
        <time>2020-08-05T10:51:53.358Z</time>
      </trkpt>
      <trkpt lat="63.35546" lon="9.29942">
        <ele>58.077284</ele>
        <time>2020-08-05T10:51:55.367Z</time>
      </trkpt>
      <trkpt lat="63.35552" lon="9.29963">
        <ele>57.845672</ele>
        <time>2020-08-05T10:51:57.354Z</time>
      </trkpt>
      <trkpt lat="63.35557" lon="9.29982">
        <ele>57.628657</ele>
        <time>2020-08-05T10:51:59.375Z</time>
      </trkpt>
      <trkpt lat="63.35562" lon="9.3">
        <ele>57.427526</ele>
        <time>2020-08-05T10:52:01.369Z</time>
      </trkpt>
      <trkpt lat="63.35567" lon="9.30017">
        <ele>57.235478</ele>
        <time>2020-08-05T10:52:03.338Z</time>
      </trkpt>
      <trkpt lat="63.35573" lon="9.3004">
        <ele>57.87927</ele>
        <time>2020-08-05T10:52:06.344Z</time>
      </trkpt>
      <trkpt lat="63.35578" lon="9.30059">
        <ele>58.416676</ele>
        <time>2020-08-05T10:52:09.332Z</time>
      </trkpt>
      <trkpt lat="63.35585" lon="9.3008">
        <ele>59.057244</ele>
        <time>2020-08-05T10:52:13.335Z</time>
      </trkpt>
      <trkpt lat="63.35591" lon="9.30098">
        <ele>59.608653</ele>
        <time>2020-08-05T10:52:17.328Z</time>
      </trkpt>
      <trkpt lat="63.35598" lon="9.30114">
        <ele>60.170995</ele>
        <time>2020-08-05T10:52:21.372Z</time>
      </trkpt>
      <trkpt lat="63.35604" lon="9.30128">
        <ele>60.675341</ele>
        <time>2020-08-05T10:52:25.335Z</time>
      </trkpt>
      <trkpt lat="63.35611" lon="9.30143">
        <ele>61.189743</ele>
        <time>2020-08-05T10:52:29.343Z</time>
      </trkpt>
      <trkpt lat="63.35617" lon="9.30161">
        <ele>61.786345</ele>
        <time>2020-08-05T10:52:34.338Z</time>
      </trkpt>
      <trkpt lat="63.35623" lon="9.30179">
        <ele>62.329083</ele>
        <time>2020-08-05T10:52:39.346Z</time>
      </trkpt>
      <trkpt lat="63.35628" lon="9.30197">
        <ele>62.837749</ele>
        <time>2020-08-05T10:52:44.315Z</time>
      </trkpt>
      <trkpt lat="63.35633" lon="9.30215">
        <ele>63.391347</ele>
        <time>2020-08-05T10:52:49.330Z</time>
      </trkpt>
      <trkpt lat="63.35638" lon="9.30232">
        <ele>63.903655</ele>
        <time>2020-08-05T10:52:53.389Z</time>
      </trkpt>
      <trkpt lat="63.35643" lon="9.3025">
        <ele>64.419343</ele>
        <time>2020-08-05T10:52:57.349Z</time>
      </trkpt>
      <trkpt lat="63.35646" lon="9.30271">
        <ele>64.971504</ele>
        <time>2020-08-05T10:53:02.336Z</time>
      </trkpt>
      <trkpt lat="63.3565" lon="9.3029">
        <ele>65.486113</ele>
        <time>2020-08-05T10:53:07.343Z</time>
      </trkpt>
      <trkpt lat="63.35653" lon="9.30312">
        <ele>66.063643</ele>
        <time>2020-08-05T10:53:12.380Z</time>
      </trkpt>
      <trkpt lat="63.35655" lon="9.30332">
        <ele>66.563775</ele>
        <time>2020-08-05T10:53:16.331Z</time>
      </trkpt>
      <trkpt lat="63.35657" lon="9.30355">
        <ele>67.148554</ele>
        <time>2020-08-05T10:53:21.341Z</time>
      </trkpt>
      <trkpt lat="63.35661" lon="9.30378">
        <ele>67.714047</ele>
        <time>2020-08-05T10:53:26.353Z</time>
      </trkpt>
      <trkpt lat="63.35664" lon="9.30399">
        <ele>68.240251</ele>
        <time>2020-08-05T10:53:31.343Z</time>
      </trkpt>
      <trkpt lat="63.35667" lon="9.3042">
        <ele>68.763093</ele>
        <time>2020-08-05T10:53:36.340Z</time>
      </trkpt>
      <trkpt lat="63.35671" lon="9.30443">
        <ele>69.329787</ele>
        <time>2020-08-05T10:53:42.357Z</time>
      </trkpt>
      <trkpt lat="63.35674" lon="9.30466">
        <ele>69.873732</ele>
        <time>2020-08-05T10:53:47.341Z</time>
      </trkpt>
      <trkpt lat="63.35678" lon="9.30486">
        <ele>70.370675</ele>
        <time>2020-08-05T10:53:52.347Z</time>
      </trkpt>
      <trkpt lat="63.35682" lon="9.30505">
        <ele>70.874749</ele>
        <time>2020-08-05T10:53:57.341Z</time>
      </trkpt>
      <trkpt lat="63.35688" lon="9.30524">
        <ele>71.392099</ele>
        <time>2020-08-05T10:54:02.334Z</time>
      </trkpt>
      <trkpt lat="63.35693" lon="9.30546">
        <ele>71.95924</ele>
        <time>2020-08-05T10:54:07.332Z</time>
      </trkpt>
      <trkpt lat="63.35697" lon="9.30567">
        <ele>72.498425</ele>
        <time>2020-08-05T10:54:12.327Z</time>
      </trkpt>
      <trkpt lat="63.35702" lon="9.30587">
        <ele>73.038154</ele>
        <time>2020-08-05T10:54:17.343Z</time>
      </trkpt>
      <trkpt lat="63.35708" lon="9.30605">
        <ele>73.553656</ele>
        <time>2020-08-05T10:54:22.350Z</time>
      </trkpt>
      <trkpt lat="63.35712" lon="9.30624">
        <ele>74.034154</ele>
        <time>2020-08-05T10:54:27.365Z</time>
      </trkpt>
      <trkpt lat="63.35715" lon="9.30644">
        <ele>74.531955</ele>
        <time>2020-08-05T10:54:33.342Z</time>
      </trkpt>
      <trkpt lat="63.35719" lon="9.30666">
        <ele>75.082585</ele>
        <time>2020-08-05T10:54:39.330Z</time>
      </trkpt>
      <trkpt lat="63.35722" lon="9.30687">
        <ele>75.58741</ele>
        <time>2020-08-05T10:54:45.332Z</time>
      </trkpt>
      <trkpt lat="63.35725" lon="9.30706">
        <ele>76.058553</ele>
        <time>2020-08-05T10:54:50.366Z</time>
      </trkpt>
      <trkpt lat="63.35728" lon="9.30727">
        <ele>76.567931</ele>
        <time>2020-08-05T10:54:56.346Z</time>
      </trkpt>
      <trkpt lat="63.35732" lon="9.30749">
        <ele>77.028802</ele>
        <time>2020-08-05T10:55:02.338Z</time>
      </trkpt>
      <trkpt lat="63.35734" lon="9.30773">
        <ele>77.504683</ele>
        <time>2020-08-05T10:55:08.389Z</time>
      </trkpt>
      <trkpt lat="63.35735" lon="9.30798">
        <ele>78.001122</ele>
        <time>2020-08-05T10:55:13.376Z</time>
      </trkpt>
      <trkpt lat="63.35738" lon="9.30822">
        <ele>78.489602</ele>
        <time>2020-08-05T10:55:18.341Z</time>
      </trkpt>
      <trkpt lat="63.35739" lon="9.30847">
        <ele>78.980742</ele>
        <time>2020-08-05T10:55:23.329Z</time>
      </trkpt>
      <trkpt lat="63.3574" lon="9.3087">
        <ele>79.440045</ele>
        <time>2020-08-05T10:55:28.367Z</time>
      </trkpt>
      <trkpt lat="63.35739" lon="9.30894">
        <ele>79.913461</ele>
        <time>2020-08-05T10:55:33.349Z</time>
      </trkpt>
      <trkpt lat="63.35739" lon="9.30914">
        <ele>80.313558</ele>
        <time>2020-08-05T10:55:37.375Z</time>
      </trkpt>
      <trkpt lat="63.35738" lon="9.30937">
        <ele>80.760264</ele>
        <time>2020-08-05T10:55:41.346Z</time>
      </trkpt>
      <trkpt lat="63.35736" lon="9.3096">
        <ele>81.234356</ele>
        <time>2020-08-05T10:55:45.386Z</time>
      </trkpt>
      <trkpt lat="63.35732" lon="9.30984">
        <ele>81.736155</ele>
        <time>2020-08-05T10:55:49.329Z</time>
      </trkpt>
      <trkpt lat="63.35726" lon="9.31004">
        <ele>82.202425</ele>
        <time>2020-08-05T10:55:53.335Z</time>
      </trkpt>
      <trkpt lat="63.35721" lon="9.31025">
        <ele>82.663583</ele>
        <time>2020-08-05T10:55:57.363Z</time>
      </trkpt>
      <trkpt lat="63.35714" lon="9.31044">
        <ele>83.153958</ele>
        <time>2020-08-05T10:56:01.355Z</time>
      </trkpt>
      <trkpt lat="63.35705" lon="9.3106">
        <ele>83.65383</ele>
        <time>2020-08-05T10:56:05.366Z</time>
      </trkpt>
      <trkpt lat="63.35696" lon="9.31074">
        <ele>84.124112</ele>
        <time>2020-08-05T10:56:09.359Z</time>
      </trkpt>
      <trkpt lat="63.35688" lon="9.31086">
        <ele>84.5049</ele>
        <time>2020-08-05T10:56:14.344Z</time>
      </trkpt>
      <trkpt lat="63.3568" lon="9.31098">
        <ele>84.710776</ele>
        <time>2020-08-05T10:56:17.359Z</time>
      </trkpt>
      <trkpt lat="63.35671" lon="9.31112">
        <ele>84.936244</ele>
        <time>2020-08-05T10:56:20.347Z</time>
      </trkpt>
      <trkpt lat="63.35661" lon="9.31125">
        <ele>85.17815</ele>
        <time>2020-08-05T10:56:23.319Z</time>
      </trkpt>
      <trkpt lat="63.35651" lon="9.31137">
        <ele>85.432572</ele>
        <time>2020-08-05T10:56:26.319Z</time>
      </trkpt>
      <trkpt lat="63.35641" lon="9.3115">
        <ele>85.676312</ele>
        <time>2020-08-05T10:56:29.341Z</time>
      </trkpt>
      <trkpt lat="63.35632" lon="9.31167">
        <ele>85.922491</ele>
        <time>2020-08-05T10:56:32.345Z</time>
      </trkpt>
      <trkpt lat="63.35623" lon="9.3118">
        <ele>86.162528</ele>
        <time>2020-08-05T10:56:35.333Z</time>
      </trkpt>
      <trkpt lat="63.35614" lon="9.31196">
        <ele>86.40856</ele>
        <time>2020-08-05T10:56:38.350Z</time>
      </trkpt>
      <trkpt lat="63.35606" lon="9.31213">
        <ele>86.643067</ele>
        <time>2020-08-05T10:56:41.349Z</time>
      </trkpt>
      <trkpt lat="63.35598" lon="9.3123">
        <ele>86.87433</ele>
        <time>2020-08-05T10:56:44.340Z</time>
      </trkpt>
      <trkpt lat="63.35592" lon="9.31248">
        <ele>87.085734</ele>
        <time>2020-08-05T10:56:47.346Z</time>
      </trkpt>
      <trkpt lat="63.35588" lon="9.31266">
        <ele>87.285995</ele>
        <time>2020-08-05T10:56:50.382Z</time>
      </trkpt>
      <trkpt lat="63.35584" lon="9.31287">
        <ele>87.504702</ele>
        <time>2020-08-05T10:56:54.329Z</time>
      </trkpt>
      <trkpt lat="63.35581" lon="9.31308">
        <ele>87.715382</ele>
        <time>2020-08-05T10:56:58.333Z</time>
      </trkpt>
      <trkpt lat="63.35579" lon="9.3133">
        <ele>87.929763</ele>
        <time>2020-08-05T10:57:03.322Z</time>
      </trkpt>
      <trkpt lat="63.35579" lon="9.31351">
        <ele>88.131076</ele>
        <time>2020-08-05T10:57:08.370Z</time>
      </trkpt>
      <trkpt lat="63.35579" lon="9.31371">
        <ele>88.245195</ele>
        <time>2020-08-05T10:57:12.347Z</time>
      </trkpt>
      <trkpt lat="63.3558" lon="9.31394">
        <ele>88.115594</ele>
        <time>2020-08-05T10:57:16.350Z</time>
      </trkpt>
      <trkpt lat="63.35581" lon="9.31418">
        <ele>87.979193</ele>
        <time>2020-08-05T10:57:20.321Z</time>
      </trkpt>
      <trkpt lat="63.35583" lon="9.31442">
        <ele>87.84225</ele>
        <time>2020-08-05T10:57:24.382Z</time>
      </trkpt>
      <trkpt lat="63.35584" lon="9.31466">
        <ele>87.700412</ele>
        <time>2020-08-05T10:57:28.391Z</time>
      </trkpt>
      <trkpt lat="63.35585" lon="9.31488">
        <ele>87.578183</ele>
        <time>2020-08-05T10:57:32.352Z</time>
      </trkpt>
      <trkpt lat="63.35586" lon="9.31513">
        <ele>87.433345</ele>
        <time>2020-08-05T10:57:36.366Z</time>
      </trkpt>
      <trkpt lat="63.35587" lon="9.31533">
        <ele>87.319716</ele>
        <time>2020-08-05T10:57:39.318Z</time>
      </trkpt>
      <trkpt lat="63.35589" lon="9.31559">
        <ele>87.172303</ele>
        <time>2020-08-05T10:57:43.339Z</time>
      </trkpt>
      <trkpt lat="63.35589" lon="9.31581">
        <ele>87.049108</ele>
        <time>2020-08-05T10:57:46.343Z</time>
      </trkpt>
      <trkpt lat="63.3559" lon="9.31604">
        <ele>86.917638</ele>
        <time>2020-08-05T10:57:49.371Z</time>
      </trkpt>
      <trkpt lat="63.35591" lon="9.31626">
        <ele>86.79103</ele>
        <time>2020-08-05T10:57:52.324Z</time>
      </trkpt>
      <trkpt lat="63.35591" lon="9.31648">
        <ele>86.666913</ele>
        <time>2020-08-05T10:57:55.354Z</time>
      </trkpt>
      <trkpt lat="63.35594" lon="9.31671">
        <ele>86.528156</ele>
        <time>2020-08-05T10:57:58.334Z</time>
      </trkpt>
      <trkpt lat="63.35596" lon="9.31696">
        <ele>86.38804</ele>
        <time>2020-08-05T10:58:01.354Z</time>
      </trkpt>
      <trkpt lat="63.35598" lon="9.31721">
        <ele>86.241932</ele>
        <time>2020-08-05T10:58:04.332Z</time>
      </trkpt>
      <trkpt lat="63.35599" lon="9.31746">
        <ele>86.100247</ele>
        <time>2020-08-05T10:58:07.334Z</time>
      </trkpt>
      <trkpt lat="63.35601" lon="9.31771">
        <ele>86.063</ele>
        <time>2020-08-05T10:58:10.362Z</time>
      </trkpt>
      <trkpt lat="63.35604" lon="9.31794">
        <ele>86.270935</ele>
        <time>2020-08-05T10:58:13.343Z</time>
      </trkpt>
      <trkpt lat="63.35607" lon="9.31816">
        <ele>86.463589</ele>
        <time>2020-08-05T10:58:16.360Z</time>
      </trkpt>
      <trkpt lat="63.3561" lon="9.31837">
        <ele>86.653788</ele>
        <time>2020-08-05T10:58:19.366Z</time>
      </trkpt>
      <trkpt lat="63.35613" lon="9.31856">
        <ele>86.831066</ele>
        <time>2020-08-05T10:58:22.374Z</time>
      </trkpt>
      <trkpt lat="63.35616" lon="9.31876">
        <ele>87.011462</ele>
        <time>2020-08-05T10:58:25.342Z</time>
      </trkpt>
      <trkpt lat="63.3562" lon="9.31895">
        <ele>87.191793</ele>
        <time>2020-08-05T10:58:28.334Z</time>
      </trkpt>
      <trkpt lat="63.35623" lon="9.3192">
        <ele>87.408877</ele>
        <time>2020-08-05T10:58:32.346Z</time>
      </trkpt>
      <trkpt lat="63.35626" lon="9.31942">
        <ele>87.614147</ele>
        <time>2020-08-05T10:58:36.332Z</time>
      </trkpt>
      <trkpt lat="63.35631" lon="9.31967">
        <ele>87.841579</ele>
        <time>2020-08-05T10:58:40.323Z</time>
      </trkpt>
      <trkpt lat="63.35635" lon="9.31986">
        <ele>88.023683</ele>
        <time>2020-08-05T10:58:43.336Z</time>
      </trkpt>
      <trkpt lat="63.3564" lon="9.32009">
        <ele>88.247313</ele>
        <time>2020-08-05T10:58:47.361Z</time>
      </trkpt>
      <trkpt lat="63.35646" lon="9.32032">
        <ele>88.475544</ele>
        <time>2020-08-05T10:58:51.332Z</time>
      </trkpt>
      <trkpt lat="63.35651" lon="9.32054">
        <ele>88.686057</ele>
        <time>2020-08-05T10:58:55.340Z</time>
      </trkpt>
      <trkpt lat="63.35656" lon="9.32074">
        <ele>88.880632</ele>
        <time>2020-08-05T10:58:59.342Z</time>
      </trkpt>
      <trkpt lat="63.35661" lon="9.32093">
        <ele>89.070165</ele>
        <time>2020-08-05T10:59:03.365Z</time>
      </trkpt>
      <trkpt lat="63.35667" lon="9.32112">
        <ele>89.267737</ele>
        <time>2020-08-05T10:59:07.366Z</time>
      </trkpt>
      <trkpt lat="63.35673" lon="9.32133">
        <ele>89.41091</ele>
        <time>2020-08-05T10:59:11.371Z</time>
      </trkpt>
      <trkpt lat="63.3568" lon="9.32149">
        <ele>89.257566</ele>
        <time>2020-08-05T10:59:14.375Z</time>
      </trkpt>
      <trkpt lat="63.35684" lon="9.32167">
        <ele>89.111668</ele>
        <time>2020-08-05T10:59:17.402Z</time>
      </trkpt>
      <trkpt lat="63.35689" lon="9.32186">
        <ele>88.957073</ele>
        <time>2020-08-05T10:59:20.362Z</time>
      </trkpt>
      <trkpt lat="63.35695" lon="9.32209">
        <ele>88.773095</ele>
        <time>2020-08-05T10:59:23.332Z</time>
      </trkpt>
      <trkpt lat="63.35701" lon="9.32233">
        <ele>88.574823</ele>
        <time>2020-08-05T10:59:26.367Z</time>
      </trkpt>
      <trkpt lat="63.35707" lon="9.32259">
        <ele>88.373225</ele>
        <time>2020-08-05T10:59:29.342Z</time>
      </trkpt>
      <trkpt lat="63.35711" lon="9.32284">
        <ele>88.182279</ele>
        <time>2020-08-05T10:59:32.338Z</time>
      </trkpt>
      <trkpt lat="63.35715" lon="9.32306">
        <ele>88.015422</ele>
        <time>2020-08-05T10:59:35.349Z</time>
      </trkpt>
      <trkpt lat="63.35719" lon="9.32327">
        <ele>87.855701</ele>
        <time>2020-08-05T10:59:38.349Z</time>
      </trkpt>
      <trkpt lat="63.35723" lon="9.32346">
        <ele>87.711227</ele>
        <time>2020-08-05T10:59:41.353Z</time>
      </trkpt>
      <trkpt lat="63.35725" lon="9.32366">
        <ele>87.560963</ele>
        <time>2020-08-05T10:59:44.342Z</time>
      </trkpt>
      <trkpt lat="63.35728" lon="9.32388">
        <ele>87.398311</ele>
        <time>2020-08-05T10:59:47.346Z</time>
      </trkpt>
      <trkpt lat="63.35732" lon="9.32412">
        <ele>87.224326</ele>
        <time>2020-08-05T10:59:50.365Z</time>
      </trkpt>
      <trkpt lat="63.35735" lon="9.32436">
        <ele>87.045875</ele>
        <time>2020-08-05T10:59:53.323Z</time>
      </trkpt>
      <trkpt lat="63.35737" lon="9.32461">
        <ele>86.867863</ele>
        <time>2020-08-05T10:59:56.323Z</time>
      </trkpt>
      <trkpt lat="63.35738" lon="9.32485">
        <ele>86.695599</ele>
        <time>2020-08-05T10:59:59.360Z</time>
      </trkpt>
      <trkpt lat="63.35739" lon="9.32511">
        <ele>86.507223</ele>
        <time>2020-08-05T11:00:02.350Z</time>
      </trkpt>
      <trkpt lat="63.35738" lon="9.32536">
        <ele>86.316225</ele>
        <time>2020-08-05T11:00:05.344Z</time>
      </trkpt>
      <trkpt lat="63.35737" lon="9.32564">
        <ele>86.108576</ele>
        <time>2020-08-05T11:00:08.362Z</time>
      </trkpt>
      <trkpt lat="63.35735" lon="9.32592">
        <ele>85.891527</ele>
        <time>2020-08-05T11:00:11.371Z</time>
      </trkpt>
      <trkpt lat="63.35734" lon="9.32613">
        <ele>85.734319</ele>
        <time>2020-08-05T11:00:13.333Z</time>
      </trkpt>
      <trkpt lat="63.35732" lon="9.32635">
        <ele>85.564603</ele>
        <time>2020-08-05T11:00:15.358Z</time>
      </trkpt>
      <trkpt lat="63.35731" lon="9.32658">
        <ele>85.391102</ele>
        <time>2020-08-05T11:00:17.353Z</time>
      </trkpt>
      <trkpt lat="63.3573" lon="9.32682">
        <ele>85.213108</ele>
        <time>2020-08-05T11:00:19.382Z</time>
      </trkpt>
      <trkpt lat="63.3573" lon="9.32705">
        <ele>85.03788</ele>
        <time>2020-08-05T11:00:21.376Z</time>
      </trkpt>
      <trkpt lat="63.3573" lon="9.32726">
        <ele>84.879234</ele>
        <time>2020-08-05T11:00:23.320Z</time>
      </trkpt>
      <trkpt lat="63.3573" lon="9.32752">
        <ele>84.685231</ele>
        <time>2020-08-05T11:00:26.310Z</time>
      </trkpt>
      <trkpt lat="63.3573" lon="9.32776">
        <ele>84.504677</ele>
        <time>2020-08-05T11:00:29.353Z</time>
      </trkpt>
      <trkpt lat="63.35732" lon="9.328">
        <ele>84.326398</ele>
        <time>2020-08-05T11:00:33.389Z</time>
      </trkpt>
      <trkpt lat="63.35733" lon="9.32824">
        <ele>84.143017</ele>
        <time>2020-08-05T11:00:38.330Z</time>
      </trkpt>
      <trkpt lat="63.35734" lon="9.32847">
        <ele>83.965157</ele>
        <time>2020-08-05T11:00:43.331Z</time>
      </trkpt>
      <trkpt lat="63.35733" lon="9.32867">
        <ele>83.814673</ele>
        <time>2020-08-05T11:00:47.314Z</time>
      </trkpt>
      <trkpt lat="63.35732" lon="9.32891">
        <ele>83.636363</ele>
        <time>2020-08-05T11:00:51.326Z</time>
      </trkpt>
      <trkpt lat="63.35729" lon="9.32916">
        <ele>83.699804</ele>
        <time>2020-08-05T11:00:55.340Z</time>
      </trkpt>
      <trkpt lat="63.35726" lon="9.32939">
        <ele>83.811777</ele>
        <time>2020-08-05T11:00:59.342Z</time>
      </trkpt>
      <trkpt lat="63.3572" lon="9.3296">
        <ele>83.929544</ele>
        <time>2020-08-05T11:01:03.324Z</time>
      </trkpt>
      <trkpt lat="63.35713" lon="9.32979">
        <ele>84.041869</ele>
        <time>2020-08-05T11:01:07.342Z</time>
      </trkpt>
      <trkpt lat="63.35705" lon="9.32997">
        <ele>84.15647</ele>
        <time>2020-08-05T11:01:11.365Z</time>
      </trkpt>
      <trkpt lat="63.35698" lon="9.33014">
        <ele>84.267044</ele>
        <time>2020-08-05T11:01:15.334Z</time>
      </trkpt>
      <trkpt lat="63.35691" lon="9.3303">
        <ele>84.371153</ele>
        <time>2020-08-05T11:01:19.348Z</time>
      </trkpt>
      <trkpt lat="63.35683" lon="9.33044">
        <ele>84.473979</ele>
        <time>2020-08-05T11:01:24.345Z</time>
      </trkpt>
      <trkpt lat="63.35673" lon="9.33079">
        <ele>84.666031</ele>
        <time>2020-08-05T11:22:20.361Z</time>
      </trkpt>
      <trkpt lat="63.35665" lon="9.33091">
        <ele>84.769237</ele>
        <time>2020-08-05T11:22:26.332Z</time>
      </trkpt>
      <trkpt lat="63.35658" lon="9.33111">
        <ele>84.885094</ele>
        <time>2020-08-05T11:22:32.352Z</time>
      </trkpt>
      <trkpt lat="63.35653" lon="9.33133">
        <ele>85.003145</ele>
        <time>2020-08-05T11:22:36.361Z</time>
      </trkpt>
      <trkpt lat="63.35647" lon="9.33154">
        <ele>85.113313</ele>
        <time>2020-08-05T11:22:39.339Z</time>
      </trkpt>
      <trkpt lat="63.35643" lon="9.33177">
        <ele>85.233464</ele>
        <time>2020-08-05T11:22:42.326Z</time>
      </trkpt>
      <trkpt lat="63.35639" lon="9.33204">
        <ele>85.361048</ele>
        <time>2020-08-05T11:22:45.340Z</time>
      </trkpt>
      <trkpt lat="63.35637" lon="9.3323">
        <ele>85.44481</ele>
        <time>2020-08-05T11:22:48.341Z</time>
      </trkpt>
      <trkpt lat="63.35634" lon="9.33259">
        <ele>85.290733</ele>
        <time>2020-08-05T11:22:51.395Z</time>
      </trkpt>
      <trkpt lat="63.35632" lon="9.33278">
        <ele>85.183242</ele>
        <time>2020-08-05T11:22:53.334Z</time>
      </trkpt>
      <trkpt lat="63.35629" lon="9.33307">
        <ele>85.026232</ele>
        <time>2020-08-05T11:22:56.354Z</time>
      </trkpt>
      <trkpt lat="63.35627" lon="9.33328">
        <ele>84.915078</ele>
        <time>2020-08-05T11:22:58.325Z</time>
      </trkpt>
      <trkpt lat="63.35627" lon="9.33349">
        <ele>84.805366</ele>
        <time>2020-08-05T11:23:00.329Z</time>
      </trkpt>
      <trkpt lat="63.35627" lon="9.3337">
        <ele>84.697386</ele>
        <time>2020-08-05T11:23:02.339Z</time>
      </trkpt>
      <trkpt lat="63.35628" lon="9.33391">
        <ele>84.585562</ele>
        <time>2020-08-05T11:23:04.370Z</time>
      </trkpt>
      <trkpt lat="63.3563" lon="9.33412">
        <ele>84.472697</ele>
        <time>2020-08-05T11:23:06.337Z</time>
      </trkpt>
      <trkpt lat="63.35631" lon="9.33433">
        <ele>84.358953</ele>
        <time>2020-08-05T11:23:08.321Z</time>
      </trkpt>
      <trkpt lat="63.35632" lon="9.33454">
        <ele>84.248511</ele>
        <time>2020-08-05T11:23:10.341Z</time>
      </trkpt>
      <trkpt lat="63.35634" lon="9.33474">
        <ele>84.14026</ele>
        <time>2020-08-05T11:23:12.339Z</time>
      </trkpt>
      <trkpt lat="63.35636" lon="9.33495">
        <ele>84.028958</ele>
        <time>2020-08-05T11:23:14.347Z</time>
      </trkpt>
      <trkpt lat="63.35636" lon="9.33515">
        <ele>83.921516</ele>
        <time>2020-08-05T11:23:16.342Z</time>
      </trkpt>
      <trkpt lat="63.35639" lon="9.33536">
        <ele>83.806634</ele>
        <time>2020-08-05T11:23:18.351Z</time>
      </trkpt>
      <trkpt lat="63.35642" lon="9.33556">
        <ele>83.697927</ele>
        <time>2020-08-05T11:23:20.325Z</time>
      </trkpt>
      <trkpt lat="63.35644" lon="9.33575">
        <ele>83.591612</ele>
        <time>2020-08-05T11:23:22.333Z</time>
      </trkpt>
      <trkpt lat="63.35648" lon="9.33604">
        <ele>83.434326</ele>
        <time>2020-08-05T11:23:25.316Z</time>
      </trkpt>
      <trkpt lat="63.3565" lon="9.33624">
        <ele>83.347477</ele>
        <time>2020-08-05T11:23:27.349Z</time>
      </trkpt>
      <trkpt lat="63.35653" lon="9.33643">
        <ele>83.318969</ele>
        <time>2020-08-05T11:23:29.316Z</time>
      </trkpt>
      <trkpt lat="63.35657" lon="9.33664">
        <ele>83.288952</ele>
        <time>2020-08-05T11:23:31.327Z</time>
      </trkpt>
      <trkpt lat="63.3566" lon="9.33687">
        <ele>83.256524</ele>
        <time>2020-08-05T11:23:33.339Z</time>
      </trkpt>
      <trkpt lat="63.35665" lon="9.33711">
        <ele>83.220447</ele>
        <time>2020-08-05T11:23:35.319Z</time>
      </trkpt>
      <trkpt lat="63.35669" lon="9.33738">
        <ele>83.181644</ele>
        <time>2020-08-05T11:23:37.316Z</time>
      </trkpt>
      <trkpt lat="63.35674" lon="9.33766">
        <ele>83.140252</ele>
        <time>2020-08-05T11:23:39.338Z</time>
      </trkpt>
      <trkpt lat="63.35679" lon="9.33795">
        <ele>83.098265</ele>
        <time>2020-08-05T11:23:41.331Z</time>
      </trkpt>
      <trkpt lat="63.35683" lon="9.33824">
        <ele>83.057079</ele>
        <time>2020-08-05T11:23:43.331Z</time>
      </trkpt>
      <trkpt lat="63.35685" lon="9.33852">
        <ele>83.018587</ele>
        <time>2020-08-05T11:23:45.326Z</time>
      </trkpt>
      <trkpt lat="63.35685" lon="9.33879">
        <ele>82.982084</ele>
        <time>2020-08-05T11:23:47.344Z</time>
      </trkpt>
      <trkpt lat="63.35683" lon="9.33904">
        <ele>82.947452</ele>
        <time>2020-08-05T11:23:49.324Z</time>
      </trkpt>
      <trkpt lat="63.35681" lon="9.33925">
        <ele>82.916788</ele>
        <time>2020-08-05T11:23:51.331Z</time>
      </trkpt>
      <trkpt lat="63.35677" lon="9.33944">
        <ele>82.889328</ele>
        <time>2020-08-05T11:23:53.342Z</time>
      </trkpt>
      <trkpt lat="63.35672" lon="9.33968">
        <ele>82.852387</ele>
        <time>2020-08-05T11:23:56.348Z</time>
      </trkpt>
      <trkpt lat="63.35667" lon="9.33989">
        <ele>82.820063</ele>
        <time>2020-08-05T11:23:59.334Z</time>
      </trkpt>
      <trkpt lat="63.35663" lon="9.34008">
        <ele>83.321461</ele>
        <time>2020-08-05T11:24:02.358Z</time>
      </trkpt>
      <trkpt lat="63.35658" lon="9.34031">
        <ele>84.382174</ele>
        <time>2020-08-05T11:24:06.337Z</time>
      </trkpt>
      <trkpt lat="63.35652" lon="9.34047">
        <ele>85.269693</ele>
        <time>2020-08-05T11:24:10.328Z</time>
      </trkpt>
      <trkpt lat="63.35646" lon="9.34064">
        <ele>86.17238</ele>
        <time>2020-08-05T11:24:15.339Z</time>
      </trkpt>
      <trkpt lat="63.35641" lon="9.34081">
        <ele>87.024097</ele>
        <time>2020-08-05T11:24:20.364Z</time>
      </trkpt>
      <trkpt lat="63.35635" lon="9.34097">
        <ele>87.91162</ele>
        <time>2020-08-05T11:24:27.362Z</time>
      </trkpt>
      <trkpt lat="63.35627" lon="9.34112">
        <ele>88.924696</ele>
        <time>2020-08-05T11:24:34.354Z</time>
      </trkpt>
      <trkpt lat="63.35621" lon="9.34128">
        <ele>89.802978</ele>
        <time>2020-08-05T11:24:40.325Z</time>
      </trkpt>
      <trkpt lat="63.35615" lon="9.34148">
        <ele>90.808449</ele>
        <time>2020-08-05T11:24:47.343Z</time>
      </trkpt>
      <trkpt lat="63.3561" lon="9.34166">
        <ele>91.725118</ele>
        <time>2020-08-05T11:24:53.340Z</time>
      </trkpt>
      <trkpt lat="63.35607" lon="9.34186">
        <ele>92.608435</ele>
        <time>2020-08-05T11:24:59.336Z</time>
      </trkpt>
      <trkpt lat="63.35604" lon="9.34206">
        <ele>93.486518</ele>
        <time>2020-08-05T11:25:05.342Z</time>
      </trkpt>
      <trkpt lat="63.35601" lon="9.34227">
        <ele>94.429635</ele>
        <time>2020-08-05T11:25:11.351Z</time>
      </trkpt>
      <trkpt lat="63.35596" lon="9.34246">
        <ele>95.356625</ele>
        <time>2020-08-05T11:25:17.337Z</time>
      </trkpt>
      <trkpt lat="63.3559" lon="9.34265">
        <ele>96.358182</ele>
        <time>2020-08-05T11:25:23.339Z</time>
      </trkpt>
      <trkpt lat="63.35587" lon="9.34284">
        <ele>97.207609</ele>
        <time>2020-08-05T11:25:29.415Z</time>
      </trkpt>
      <trkpt lat="63.35583" lon="9.34304">
        <ele>98.128861</ele>
        <time>2020-08-05T11:25:35.331Z</time>
      </trkpt>
      <trkpt lat="63.35579" lon="9.34325">
        <ele>99.06731</ele>
        <time>2020-08-05T11:25:41.346Z</time>
      </trkpt>
      <trkpt lat="63.35577" lon="9.34346">
        <ele>99.975548</ele>
        <time>2020-08-05T11:25:47.348Z</time>
      </trkpt>
      <trkpt lat="63.35574" lon="9.34365">
        <ele>100.793119</ele>
        <time>2020-08-05T11:25:53.342Z</time>
      </trkpt>
      <trkpt lat="63.35568" lon="9.34383">
        <ele>101.662106</ele>
        <time>2020-08-05T11:26:00.343Z</time>
      </trkpt>
      <trkpt lat="63.35563" lon="9.34402">
        <ele>102.576246</ele>
        <time>2020-08-05T11:26:07.351Z</time>
      </trkpt>
      <trkpt lat="63.3556" lon="9.34421">
        <ele>103.390993</ele>
        <time>2020-08-05T11:26:14.356Z</time>
      </trkpt>
      <trkpt lat="63.35558" lon="9.34441">
        <ele>104.216384</ele>
        <time>2020-08-05T11:26:21.337Z</time>
      </trkpt>
      <trkpt lat="63.35557" lon="9.34463">
        <ele>105.117911</ele>
        <time>2020-08-05T11:26:29.365Z</time>
      </trkpt>
      <trkpt lat="63.35557" lon="9.34486">
        <ele>106.034668</ele>
        <time>2020-08-05T11:26:37.346Z</time>
      </trkpt>
      <trkpt lat="63.35559" lon="9.34508">
        <ele>106.950674</ele>
        <time>2020-08-05T11:26:44.338Z</time>
      </trkpt>
      <trkpt lat="63.35562" lon="9.34528">
        <ele>107.810434</ele>
        <time>2020-08-05T11:26:51.344Z</time>
      </trkpt>
      <trkpt lat="63.35567" lon="9.34549">
        <ele>108.755005</ele>
        <time>2020-08-05T11:26:58.346Z</time>
      </trkpt>
      <trkpt lat="63.3557" lon="9.3457">
        <ele>109.642981</ele>
        <time>2020-08-05T11:27:05.342Z</time>
      </trkpt>
      <trkpt lat="63.35574" lon="9.34588">
        <ele>110.476699</ele>
        <time>2020-08-05T11:27:12.346Z</time>
      </trkpt>
      <trkpt lat="63.35577" lon="9.34608">
        <ele>111.317015</ele>
        <time>2020-08-05T11:27:19.342Z</time>
      </trkpt>
      <trkpt lat="63.35581" lon="9.34628">
        <ele>112.205138</ele>
        <time>2020-08-05T11:27:26.342Z</time>
      </trkpt>
      <trkpt lat="63.35586" lon="9.34646">
        <ele>113.058323</ele>
        <time>2020-08-05T11:27:33.353Z</time>
      </trkpt>
      <trkpt lat="63.35591" lon="9.34664">
        <ele>113.895372</ele>
        <time>2020-08-05T11:27:40.333Z</time>
      </trkpt>
      <trkpt lat="63.35596" lon="9.34681">
        <ele>114.720745</ele>
        <time>2020-08-05T11:27:47.335Z</time>
      </trkpt>
      <trkpt lat="63.35601" lon="9.34699">
        <ele>115.596373</ele>
        <time>2020-08-05T11:27:55.328Z</time>
      </trkpt>
      <trkpt lat="63.35608" lon="9.34715">
        <ele>116.50489</ele>
        <time>2020-08-05T11:28:02.329Z</time>
      </trkpt>
      <trkpt lat="63.35614" lon="9.34731">
        <ele>117.382617</ele>
        <time>2020-08-05T11:28:09.331Z</time>
      </trkpt>
      <trkpt lat="63.35619" lon="9.34749">
        <ele>118.288269</ele>
        <time>2020-08-05T11:28:16.345Z</time>
      </trkpt>
      <trkpt lat="63.35624" lon="9.34768">
        <ele>119.212631</ele>
        <time>2020-08-05T11:28:23.361Z</time>
      </trkpt>
      <trkpt lat="63.3563" lon="9.34784">
        <ele>120.117183</ele>
        <time>2020-08-05T11:28:30.340Z</time>
      </trkpt>
      <trkpt lat="63.35636" lon="9.348">
        <ele>120.979037</ele>
        <time>2020-08-05T11:28:37.346Z</time>
      </trkpt>
      <trkpt lat="63.35639" lon="9.34819">
        <ele>121.858814</ele>
        <time>2020-08-05T11:28:44.346Z</time>
      </trkpt>
      <trkpt lat="63.35644" lon="9.34837">
        <ele>122.743282</ele>
        <time>2020-08-05T11:28:51.322Z</time>
      </trkpt>
      <trkpt lat="63.35651" lon="9.34855">
        <ele>123.758537</ele>
        <time>2020-08-05T11:28:58.342Z</time>
      </trkpt>
      <trkpt lat="63.35657" lon="9.34871">
        <ele>124.631607</ele>
        <time>2020-08-05T11:29:05.349Z</time>
      </trkpt>
      <trkpt lat="63.35661" lon="9.34892">
        <ele>125.588631</ele>
        <time>2020-08-05T11:29:13.347Z</time>
      </trkpt>
      <trkpt lat="63.35664" lon="9.34911">
        <ele>126.454029</ele>
        <time>2020-08-05T11:29:20.340Z</time>
      </trkpt>
      <trkpt lat="63.35668" lon="9.34931">
        <ele>127.392367</ele>
        <time>2020-08-05T11:29:27.349Z</time>
      </trkpt>
      <trkpt lat="63.35671" lon="9.34952">
        <ele>128.350262</ele>
        <time>2020-08-05T11:29:34.328Z</time>
      </trkpt>
      <trkpt lat="63.3567" lon="9.34972">
        <ele>129.20801</ele>
        <time>2020-08-05T11:29:41.332Z</time>
      </trkpt>
      <trkpt lat="63.35669" lon="9.34993">
        <ele>130.082956</ele>
        <time>2020-08-05T11:29:47.338Z</time>
      </trkpt>
      <trkpt lat="63.35668" lon="9.35013">
        <ele>130.967024</ele>
        <time>2020-08-05T11:29:53.321Z</time>
      </trkpt>
      <trkpt lat="63.35669" lon="9.35034">
        <ele>131.861957</ele>
        <time>2020-08-05T11:29:59.340Z</time>
      </trkpt>
      <trkpt lat="63.35669" lon="9.35057">
        <ele>132.826609</ele>
        <time>2020-08-05T11:30:06.330Z</time>
      </trkpt>
      <trkpt lat="63.35668" lon="9.35077">
        <ele>133.696594</ele>
        <time>2020-08-05T11:30:12.301Z</time>
      </trkpt>
      <trkpt lat="63.35668" lon="9.351">
        <ele>134.664914</ele>
        <time>2020-08-05T11:30:19.363Z</time>
      </trkpt>
      <trkpt lat="63.35666" lon="9.35121">
        <ele>135.581999</ele>
        <time>2020-08-05T11:30:25.353Z</time>
      </trkpt>
      <trkpt lat="63.35665" lon="9.35142">
        <ele>136.52296</ele>
        <time>2020-08-05T11:30:31.378Z</time>
      </trkpt>
      <trkpt lat="63.35661" lon="9.35162">
        <ele>137.43659</ele>
        <time>2020-08-05T11:30:36.358Z</time>
      </trkpt>
      <trkpt lat="63.35659" lon="9.35185">
        <ele>138.442213</ele>
        <time>2020-08-05T11:30:42.337Z</time>
      </trkpt>
      <trkpt lat="63.35657" lon="9.35205">
        <ele>139.354316</ele>
        <time>2020-08-05T11:30:48.346Z</time>
      </trkpt>
      <trkpt lat="63.35654" lon="9.35226">
        <ele>140.289229</ele>
        <time>2020-08-05T11:30:55.367Z</time>
      </trkpt>
      <trkpt lat="63.35653" lon="9.35248">
        <ele>141.232862</ele>
        <time>2020-08-05T11:31:02.374Z</time>
      </trkpt>
      <trkpt lat="63.35651" lon="9.35267">
        <ele>142.102917</ele>
        <time>2020-08-05T11:31:09.379Z</time>
      </trkpt>
      <trkpt lat="63.35652" lon="9.35289">
        <ele>143.042243</ele>
        <time>2020-08-05T11:31:16.342Z</time>
      </trkpt>
      <trkpt lat="63.35653" lon="9.35311">
        <ele>143.999522</ele>
        <time>2020-08-05T11:31:23.397Z</time>
      </trkpt>
      <trkpt lat="63.35651" lon="9.35333">
        <ele>144.958896</ele>
        <time>2020-08-05T11:31:30.357Z</time>
      </trkpt>
      <trkpt lat="63.3565" lon="9.35353">
        <ele>145.839974</ele>
        <time>2020-08-05T11:31:36.331Z</time>
      </trkpt>
      <trkpt lat="63.3565" lon="9.35375">
        <ele>146.756102</ele>
        <time>2020-08-05T11:31:42.367Z</time>
      </trkpt>
      <trkpt lat="63.35649" lon="9.35396">
        <ele>147.688409</ele>
        <time>2020-08-05T11:31:48.337Z</time>
      </trkpt>
      <trkpt lat="63.35648" lon="9.35416">
        <ele>148.566857</ele>
        <time>2020-08-05T11:31:54.357Z</time>
      </trkpt>
      <trkpt lat="63.35645" lon="9.35438">
        <ele>149.544262</ele>
        <time>2020-08-05T11:32:00.381Z</time>
      </trkpt>
      <trkpt lat="63.35641" lon="9.35456">
        <ele>150.315364</ele>
        <time>2020-08-05T11:32:07.355Z</time>
      </trkpt>
      <trkpt lat="63.35639" lon="9.35478">
        <ele>150.510705</ele>
        <time>2020-08-05T11:32:14.321Z</time>
      </trkpt>
      <trkpt lat="63.35637" lon="9.355">
        <ele>150.70188</ele>
        <time>2020-08-05T11:32:21.345Z</time>
      </trkpt>
      <trkpt lat="63.35633" lon="9.35518">
        <ele>150.87711</ele>
        <time>2020-08-05T11:32:27.319Z</time>
      </trkpt>
      <trkpt lat="63.35629" lon="9.35539">
        <ele>151.074422</ele>
        <time>2020-08-05T11:32:33.337Z</time>
      </trkpt>
      <trkpt lat="63.35623" lon="9.35558">
        <ele>151.274192</ele>
        <time>2020-08-05T11:32:39.331Z</time>
      </trkpt>
      <trkpt lat="63.35617" lon="9.35575">
        <ele>151.46455</ele>
        <time>2020-08-05T11:32:44.346Z</time>
      </trkpt>
      <trkpt lat="63.35611" lon="9.35594">
        <ele>151.661219</ele>
        <time>2020-08-05T11:32:49.357Z</time>
      </trkpt>
      <trkpt lat="63.35605" lon="9.35614">
        <ele>151.871151</ele>
        <time>2020-08-05T11:32:54.334Z</time>
      </trkpt>
      <trkpt lat="63.35599" lon="9.3563">
        <ele>152.052145</ele>
        <time>2020-08-05T11:32:59.366Z</time>
      </trkpt>
      <trkpt lat="63.35592" lon="9.35645">
        <ele>152.243034</ele>
        <time>2020-08-05T11:33:05.339Z</time>
      </trkpt>
      <trkpt lat="63.35583" lon="9.3566">
        <ele>152.450066</ele>
        <time>2020-08-05T11:33:11.334Z</time>
      </trkpt>
      <trkpt lat="63.35577" lon="9.35675">
        <ele>152.631221</ele>
        <time>2020-08-05T11:33:17.319Z</time>
      </trkpt>
      <trkpt lat="63.35569" lon="9.3569">
        <ele>152.833386</ele>
        <time>2020-08-05T11:33:24.342Z</time>
      </trkpt>
      <trkpt lat="63.35561" lon="9.35703">
        <ele>153.020185</ele>
        <time>2020-08-05T11:33:30.364Z</time>
      </trkpt>
      <trkpt lat="63.35554" lon="9.35717">
        <ele>153.198965</ele>
        <time>2020-08-05T11:33:36.344Z</time>
      </trkpt>
      <trkpt lat="63.35546" lon="9.3573">
        <ele>153.386383</ele>
        <time>2020-08-05T11:33:43.334Z</time>
      </trkpt>
      <trkpt lat="63.35538" lon="9.35742">
        <ele>153.571136</ele>
        <time>2020-08-05T11:33:50.374Z</time>
      </trkpt>
      <trkpt lat="63.3553" lon="9.35753">
        <ele>153.771465</ele>
        <time>2020-08-05T11:33:58.336Z</time>
      </trkpt>
      <trkpt lat="63.35522" lon="9.35761">
        <ele>154.857679</ele>
        <time>2020-08-05T11:34:04.348Z</time>
      </trkpt>
      <trkpt lat="63.35514" lon="9.3577">
        <ele>155.918801</ele>
        <time>2020-08-05T11:34:10.334Z</time>
      </trkpt>
      <trkpt lat="63.35505" lon="9.35779">
        <ele>157.105232</ele>
        <time>2020-08-05T11:34:17.393Z</time>
      </trkpt>
      <trkpt lat="63.35496" lon="9.35788">
        <ele>158.25879</ele>
        <time>2020-08-05T11:34:25.327Z</time>
      </trkpt>
      <trkpt lat="63.35487" lon="9.35797">
        <ele>159.425719</ele>
        <time>2020-08-05T11:34:34.358Z</time>
      </trkpt>
      <trkpt lat="63.35478" lon="9.35805">
        <ele>160.607677</ele>
        <time>2020-08-05T11:34:43.329Z</time>
      </trkpt>
      <trkpt lat="63.35468" lon="9.35813">
        <ele>161.818561</ele>
        <time>2020-08-05T11:34:51.348Z</time>
      </trkpt>
      <trkpt lat="63.35459" lon="9.35819">
        <ele>162.952691</ele>
        <time>2020-08-05T11:35:00.346Z</time>
      </trkpt>
      <trkpt lat="63.3545" lon="9.35828">
        <ele>164.051976</ele>
        <time>2020-08-05T11:35:08.325Z</time>
      </trkpt>
      <trkpt lat="63.35441" lon="9.35835">
        <ele>165.241224</ele>
        <time>2020-08-05T11:35:17.329Z</time>
      </trkpt>
      <trkpt lat="63.35431" lon="9.3584">
        <ele>166.407502</ele>
        <time>2020-08-05T11:35:24.338Z</time>
      </trkpt>
      <trkpt lat="63.35423" lon="9.35849">
        <ele>167.466266</ele>
        <time>2020-08-05T11:35:32.338Z</time>
      </trkpt>
      <trkpt lat="63.35416" lon="9.35862">
        <ele>168.590492</ele>
        <time>2020-08-05T11:35:42.360Z</time>
      </trkpt>
      <trkpt lat="63.35409" lon="9.35877">
        <ele>169.731771</ele>
        <time>2020-08-05T11:35:52.320Z</time>
      </trkpt>
      <trkpt lat="63.35404" lon="9.35893">
        <ele>170.816417</ele>
        <time>2020-08-05T11:35:59.338Z</time>
      </trkpt>
      <trkpt lat="63.35401" lon="9.35914">
        <ele>171.983233</ele>
        <time>2020-08-05T11:36:07.378Z</time>
      </trkpt>
      <trkpt lat="63.35403" lon="9.35934">
        <ele>173.066797</ele>
        <time>2020-08-05T11:36:16.368Z</time>
      </trkpt>
      <trkpt lat="63.3541" lon="9.35951">
        <ele>174.245565</ele>
        <time>2020-08-05T11:36:24.329Z</time>
      </trkpt>
      <trkpt lat="63.35417" lon="9.35965">
        <ele>175.203595</ele>
        <time>2020-08-05T11:36:33.358Z</time>
      </trkpt>
      <trkpt lat="63.35427" lon="9.35971">
        <ele>175.6357</ele>
        <time>2020-08-05T11:36:41.333Z</time>
      </trkpt>
      <trkpt lat="63.35437" lon="9.35976">
        <ele>176.061264</ele>
        <time>2020-08-05T11:36:50.362Z</time>
      </trkpt>
      <trkpt lat="63.35446" lon="9.35981">
        <ele>176.449502</ele>
        <time>2020-08-05T11:36:56.364Z</time>
      </trkpt>
      <trkpt lat="63.35456" lon="9.35986">
        <ele>176.869478</ele>
        <time>2020-08-05T11:37:03.336Z</time>
      </trkpt>
      <trkpt lat="63.35465" lon="9.35991">
        <ele>177.279754</ele>
        <time>2020-08-05T11:37:11.366Z</time>
      </trkpt>
      <trkpt lat="63.35474" lon="9.35995">
        <ele>177.661189</ele>
        <time>2020-08-05T11:37:18.336Z</time>
      </trkpt>
      <trkpt lat="63.35483" lon="9.36">
        <ele>178.044514</ele>
        <time>2020-08-05T11:37:23.350Z</time>
      </trkpt>
      <trkpt lat="63.35492" lon="9.36005">
        <ele>178.425461</ele>
        <time>2020-08-05T11:37:29.333Z</time>
      </trkpt>
      <trkpt lat="63.35502" lon="9.3601">
        <ele>178.83427</ele>
        <time>2020-08-05T11:37:35.337Z</time>
      </trkpt>
      <trkpt lat="63.35512" lon="9.36014">
        <ele>179.259508</ele>
        <time>2020-08-05T11:37:42.353Z</time>
      </trkpt>
      <trkpt lat="63.35522" lon="9.36019">
        <ele>179.677318</ele>
        <time>2020-08-05T11:37:49.337Z</time>
      </trkpt>
      <trkpt lat="63.35531" lon="9.3603">
        <ele>180.101048</ele>
        <time>2020-08-05T11:37:55.361Z</time>
      </trkpt>
      <trkpt lat="63.35539" lon="9.36039">
        <ele>180.505399</ele>
        <time>2020-08-05T11:38:01.332Z</time>
      </trkpt>
      <trkpt lat="63.35549" lon="9.36048">
        <ele>180.931735</ele>
        <time>2020-08-05T11:38:07.326Z</time>
      </trkpt>
      <trkpt lat="63.35558" lon="9.36057">
        <ele>181.355772</ele>
        <time>2020-08-05T11:38:13.384Z</time>
      </trkpt>
      <trkpt lat="63.35566" lon="9.36067">
        <ele>181.746499</ele>
        <time>2020-08-05T11:38:18.363Z</time>
      </trkpt>
      <trkpt lat="63.35575" lon="9.36079">
        <ele>182.177275</ele>
        <time>2020-08-05T11:38:24.349Z</time>
      </trkpt>
      <trkpt lat="63.35584" lon="9.36091">
        <ele>182.595685</ele>
        <time>2020-08-05T11:38:30.344Z</time>
      </trkpt>
      <trkpt lat="63.35591" lon="9.36105">
        <ele>182.774923</ele>
        <time>2020-08-05T11:38:35.324Z</time>
      </trkpt>
      <trkpt lat="63.35597" lon="9.36124">
        <ele>182.966428</ele>
        <time>2020-08-05T11:38:40.374Z</time>
      </trkpt>
      <trkpt lat="63.35602" lon="9.36144">
        <ele>183.171366</ele>
        <time>2020-08-05T11:38:45.320Z</time>
      </trkpt>
      <trkpt lat="63.35607" lon="9.36164">
        <ele>183.365299</ele>
        <time>2020-08-05T11:38:49.325Z</time>
      </trkpt>
      <trkpt lat="63.35613" lon="9.36188">
        <ele>183.59619</ele>
        <time>2020-08-05T11:38:53.347Z</time>
      </trkpt>
      <trkpt lat="63.35616" lon="9.36213">
        <ele>183.813785</ele>
        <time>2020-08-05T11:38:56.322Z</time>
      </trkpt>
      <trkpt lat="63.3562" lon="9.3624">
        <ele>184.057888</ele>
        <time>2020-08-05T11:38:59.377Z</time>
      </trkpt>
      <trkpt lat="63.35624" lon="9.36269">
        <ele>184.314798</ele>
        <time>2020-08-05T11:39:02.343Z</time>
      </trkpt>
      <trkpt lat="63.35625" lon="9.3629">
        <ele>184.502116</ele>
        <time>2020-08-05T11:39:04.420Z</time>
      </trkpt>
      <trkpt lat="63.35627" lon="9.36313">
        <ele>184.702219</ele>
        <time>2020-08-05T11:39:06.361Z</time>
      </trkpt>
      <trkpt lat="63.35628" lon="9.36337">
        <ele>184.910472</ele>
        <time>2020-08-05T11:39:08.345Z</time>
      </trkpt>
      <trkpt lat="63.35629" lon="9.36363">
        <ele>185.132852</ele>
        <time>2020-08-05T11:39:10.322Z</time>
      </trkpt>
      <trkpt lat="63.35629" lon="9.3639">
        <ele>185.356884</ele>
        <time>2020-08-05T11:39:12.333Z</time>
      </trkpt>
      <trkpt lat="63.3563" lon="9.36415">
        <ele>185.576776</ele>
        <time>2020-08-05T11:39:14.325Z</time>
      </trkpt>
      <trkpt lat="63.3563" lon="9.36441">
        <ele>185.797521</ele>
        <time>2020-08-05T11:39:16.362Z</time>
      </trkpt>
      <trkpt lat="63.3563" lon="9.36468">
        <ele>185.998036</ele>
        <time>2020-08-05T11:39:18.355Z</time>
      </trkpt>
      <trkpt lat="63.35631" lon="9.36496">
        <ele>185.64449</ele>
        <time>2020-08-05T11:39:20.339Z</time>
      </trkpt>
      <trkpt lat="63.3563" lon="9.36526">
        <ele>185.272337</ele>
        <time>2020-08-05T11:39:22.359Z</time>
      </trkpt>
      <trkpt lat="63.3563" lon="9.36557">
        <ele>184.886509</ele>
        <time>2020-08-05T11:39:24.315Z</time>
      </trkpt>
      <trkpt lat="63.3563" lon="9.36591">
        <ele>184.470941</ele>
        <time>2020-08-05T11:39:26.340Z</time>
      </trkpt>
      <trkpt lat="63.3563" lon="9.36627">
        <ele>184.024335</ele>
        <time>2020-08-05T11:39:28.374Z</time>
      </trkpt>
      <trkpt lat="63.35631" lon="9.36664">
        <ele>183.5601</ele>
        <time>2020-08-05T11:39:30.361Z</time>
      </trkpt>
      <trkpt lat="63.35631" lon="9.36703">
        <ele>183.079837</ele>
        <time>2020-08-05T11:39:32.329Z</time>
      </trkpt>
      <trkpt lat="63.35632" lon="9.36742">
        <ele>182.590589</ele>
        <time>2020-08-05T11:39:34.346Z</time>
      </trkpt>
      <trkpt lat="63.35633" lon="9.36763">
        <ele>182.336594</ele>
        <time>2020-08-05T11:39:35.355Z</time>
      </trkpt>
      <trkpt lat="63.35634" lon="9.36784">
        <ele>182.071166</ele>
        <time>2020-08-05T11:39:36.359Z</time>
      </trkpt>
      <trkpt lat="63.35636" lon="9.36806">
        <ele>181.793788</ele>
        <time>2020-08-05T11:39:37.332Z</time>
      </trkpt>
      <trkpt lat="63.35637" lon="9.36829">
        <ele>181.501723</ele>
        <time>2020-08-05T11:39:38.333Z</time>
      </trkpt>
      <trkpt lat="63.3564" lon="9.36853">
        <ele>181.201471</ele>
        <time>2020-08-05T11:39:39.357Z</time>
      </trkpt>
      <trkpt lat="63.35643" lon="9.36876">
        <ele>180.8048</ele>
        <time>2020-08-05T11:39:40.356Z</time>
      </trkpt>
      <trkpt lat="63.35646" lon="9.36901">
        <ele>180.289427</ele>
        <time>2020-08-05T11:39:41.331Z</time>
      </trkpt>
      <trkpt lat="63.35649" lon="9.36926">
        <ele>179.774552</ele>
        <time>2020-08-05T11:39:42.341Z</time>
      </trkpt>
      <trkpt lat="63.35652" lon="9.3695">
        <ele>179.260009</ele>
        <time>2020-08-05T11:39:43.363Z</time>
      </trkpt>
      <trkpt lat="63.35655" lon="9.36975">
        <ele>178.746298</ele>
        <time>2020-08-05T11:39:44.328Z</time>
      </trkpt>
      <trkpt lat="63.35658" lon="9.36999">
        <ele>178.239215</ele>
        <time>2020-08-05T11:39:45.370Z</time>
      </trkpt>
      <trkpt lat="63.35661" lon="9.37023">
        <ele>177.733357</ele>
        <time>2020-08-05T11:39:46.359Z</time>
      </trkpt>
      <trkpt lat="63.35665" lon="9.37047">
        <ele>177.226372</ele>
        <time>2020-08-05T11:39:47.366Z</time>
      </trkpt>
      <trkpt lat="63.35668" lon="9.37071">
        <ele>176.712663</ele>
        <time>2020-08-05T11:39:48.354Z</time>
      </trkpt>
      <trkpt lat="63.3567" lon="9.37097">
        <ele>176.181099</ele>
        <time>2020-08-05T11:39:49.350Z</time>
      </trkpt>
      <trkpt lat="63.35672" lon="9.37123">
        <ele>175.647547</ele>
        <time>2020-08-05T11:39:50.359Z</time>
      </trkpt>
      <trkpt lat="63.35673" lon="9.37149">
        <ele>175.115523</ele>
        <time>2020-08-05T11:39:51.334Z</time>
      </trkpt>
      <trkpt lat="63.35675" lon="9.37176">
        <ele>174.575593</ele>
        <time>2020-08-05T11:39:52.361Z</time>
      </trkpt>
      <trkpt lat="63.35676" lon="9.37203">
        <ele>174.034477</ele>
        <time>2020-08-05T11:39:53.334Z</time>
      </trkpt>
      <trkpt lat="63.35677" lon="9.37229">
        <ele>173.505033</ele>
        <time>2020-08-05T11:39:54.343Z</time>
      </trkpt>
      <trkpt lat="63.35678" lon="9.37254">
        <ele>172.985642</ele>
        <time>2020-08-05T11:39:55.364Z</time>
      </trkpt>
      <trkpt lat="63.35678" lon="9.37279">
        <ele>172.379151</ele>
        <time>2020-08-05T11:39:56.356Z</time>
      </trkpt>
      <trkpt lat="63.35678" lon="9.37303">
        <ele>171.794944</ele>
        <time>2020-08-05T11:39:57.329Z</time>
      </trkpt>
      <trkpt lat="63.35678" lon="9.37325">
        <ele>171.245024</ele>
        <time>2020-08-05T11:39:58.367Z</time>
      </trkpt>
      <trkpt lat="63.35677" lon="9.37346">
        <ele>170.73122</ele>
        <time>2020-08-05T11:39:59.346Z</time>
      </trkpt>
      <trkpt lat="63.35674" lon="9.37366">
        <ele>170.211662</ele>
        <time>2020-08-05T11:40:00.336Z</time>
      </trkpt>
      <trkpt lat="63.3567" lon="9.37387">
        <ele>169.656116</ele>
        <time>2020-08-05T11:40:01.317Z</time>
      </trkpt>
      <trkpt lat="63.35664" lon="9.37407">
        <ele>169.062807</ele>
        <time>2020-08-05T11:40:02.344Z</time>
      </trkpt>
      <trkpt lat="63.35658" lon="9.37428">
        <ele>168.449125</ele>
        <time>2020-08-05T11:40:03.327Z</time>
      </trkpt>
      <trkpt lat="63.35651" lon="9.37447">
        <ele>167.82764</ele>
        <time>2020-08-05T11:40:04.351Z</time>
      </trkpt>
      <trkpt lat="63.35644" lon="9.37467">
        <ele>167.205642</ele>
        <time>2020-08-05T11:40:05.349Z</time>
      </trkpt>
      <trkpt lat="63.35638" lon="9.37488">
        <ele>166.592802</ele>
        <time>2020-08-05T11:40:06.378Z</time>
      </trkpt>
      <trkpt lat="63.35631" lon="9.37507">
        <ele>165.989931</ele>
        <time>2020-08-05T11:40:07.357Z</time>
      </trkpt>
      <trkpt lat="63.35624" lon="9.37527">
        <ele>165.387728</ele>
        <time>2020-08-05T11:40:08.334Z</time>
      </trkpt>
      <trkpt lat="63.35618" lon="9.37546">
        <ele>164.792769</ele>
        <time>2020-08-05T11:40:09.334Z</time>
      </trkpt>
      <trkpt lat="63.35612" lon="9.37565">
        <ele>164.201093</ele>
        <time>2020-08-05T11:40:10.323Z</time>
      </trkpt>
      <trkpt lat="63.35606" lon="9.37585">
        <ele>163.622219</ele>
        <time>2020-08-05T11:40:11.336Z</time>
      </trkpt>
      <trkpt lat="63.356" lon="9.37604">
        <ele>163.05142</ele>
        <time>2020-08-05T11:40:12.390Z</time>
      </trkpt>
      <trkpt lat="63.35593" lon="9.37621">
        <ele>162.496552</ele>
        <time>2020-08-05T11:40:13.360Z</time>
      </trkpt>
      <trkpt lat="63.35587" lon="9.37638">
        <ele>161.962229</ele>
        <time>2020-08-05T11:40:14.323Z</time>
      </trkpt>
      <trkpt lat="63.35581" lon="9.37655">
        <ele>161.438046</ele>
        <time>2020-08-05T11:40:15.357Z</time>
      </trkpt>
      <trkpt lat="63.35576" lon="9.37672">
        <ele>160.937338</ele>
        <time>2020-08-05T11:40:16.334Z</time>
      </trkpt>
      <trkpt lat="63.35565" lon="9.37703">
        <ele>159.975678</ele>
        <time>2020-08-05T11:40:18.375Z</time>
      </trkpt>
      <trkpt lat="63.35555" lon="9.37734">
        <ele>159.055919</ele>
        <time>2020-08-05T11:40:20.330Z</time>
      </trkpt>
      <trkpt lat="63.35548" lon="9.37765">
        <ele>158.203862</ele>
        <time>2020-08-05T11:40:22.335Z</time>
      </trkpt>
      <trkpt lat="63.35543" lon="9.37793">
        <ele>157.46655</ele>
        <time>2020-08-05T11:40:24.342Z</time>
      </trkpt>
      <trkpt lat="63.35542" lon="9.37821">
        <ele>156.803012</ele>
        <time>2020-08-05T11:40:26.392Z</time>
      </trkpt>
      <trkpt lat="63.35542" lon="9.37845">
        <ele>156.212792</ele>
        <time>2020-08-05T11:40:28.333Z</time>
      </trkpt>
      <trkpt lat="63.35543" lon="9.37869">
        <ele>155.625507</ele>
        <time>2020-08-05T11:40:30.348Z</time>
      </trkpt>
      <trkpt lat="63.35545" lon="9.37893">
        <ele>155.040169</ele>
        <time>2020-08-05T11:40:32.351Z</time>
      </trkpt>
      <trkpt lat="63.35547" lon="9.37916">
        <ele>154.455481</ele>
        <time>2020-08-05T11:40:34.363Z</time>
      </trkpt>
      <trkpt lat="63.35549" lon="9.37939">
        <ele>153.89506</ele>
        <time>2020-08-05T11:40:36.366Z</time>
      </trkpt>
      <trkpt lat="63.35551" lon="9.3796">
        <ele>153.369168</ele>
        <time>2020-08-05T11:40:38.356Z</time>
      </trkpt>
      <trkpt lat="63.35552" lon="9.3798">
        <ele>153.308793</ele>
        <time>2020-08-05T11:40:40.336Z</time>
      </trkpt>
      <trkpt lat="63.35555" lon="9.38009">
        <ele>153.377715</ele>
        <time>2020-08-05T11:40:43.329Z</time>
      </trkpt>
      <trkpt lat="63.35558" lon="9.38038">
        <ele>153.445804</ele>
        <time>2020-08-05T11:40:46.333Z</time>
      </trkpt>
      <trkpt lat="63.35561" lon="9.38067">
        <ele>153.5145</ele>
        <time>2020-08-05T11:40:49.338Z</time>
      </trkpt>
      <trkpt lat="63.35562" lon="9.38089">
        <ele>153.564888</ele>
        <time>2020-08-05T11:40:51.353Z</time>
      </trkpt>
      <trkpt lat="63.35564" lon="9.38112">
        <ele>153.619469</ele>
        <time>2020-08-05T11:40:53.392Z</time>
      </trkpt>
      <trkpt lat="63.35564" lon="9.38137">
        <ele>153.676689</ele>
        <time>2020-08-05T11:40:55.333Z</time>
      </trkpt>
      <trkpt lat="63.35565" lon="9.38161">
        <ele>153.733293</ele>
        <time>2020-08-05T11:40:57.353Z</time>
      </trkpt>
      <trkpt lat="63.35567" lon="9.38184">
        <ele>153.787644</ele>
        <time>2020-08-05T11:40:59.366Z</time>
      </trkpt>
      <trkpt lat="63.35568" lon="9.38206">
        <ele>153.837215</ele>
        <time>2020-08-05T11:41:01.319Z</time>
      </trkpt>
      <trkpt lat="63.35569" lon="9.38226">
        <ele>153.885409</ele>
        <time>2020-08-05T11:41:03.332Z</time>
      </trkpt>
      <trkpt lat="63.35571" lon="9.38255">
        <ele>153.952103</ele>
        <time>2020-08-05T11:41:06.353Z</time>
      </trkpt>
      <trkpt lat="63.35572" lon="9.38275">
        <ele>153.999055</ele>
        <time>2020-08-05T11:41:08.395Z</time>
      </trkpt>
      <trkpt lat="63.35573" lon="9.38299">
        <ele>154.053889</ele>
        <time>2020-08-05T11:41:10.334Z</time>
      </trkpt>
      <trkpt lat="63.35573" lon="9.38326">
        <ele>154.117703</ele>
        <time>2020-08-05T11:41:12.340Z</time>
      </trkpt>
      <trkpt lat="63.35572" lon="9.38357">
        <ele>154.18898</ele>
        <time>2020-08-05T11:41:14.338Z</time>
      </trkpt>
      <trkpt lat="63.35572" lon="9.38392">
        <ele>153.588472</ele>
        <time>2020-08-05T11:41:16.404Z</time>
      </trkpt>
      <trkpt lat="63.3557" lon="9.38431">
        <ele>152.836946</ele>
        <time>2020-08-05T11:41:18.344Z</time>
      </trkpt>
      <trkpt lat="63.35569" lon="9.38451">
        <ele>152.446498</ele>
        <time>2020-08-05T11:41:19.331Z</time>
      </trkpt>
      <trkpt lat="63.35568" lon="9.38472">
        <ele>152.044858</ele>
        <time>2020-08-05T11:41:20.327Z</time>
      </trkpt>
      <trkpt lat="63.35566" lon="9.38493">
        <ele>151.623497</ele>
        <time>2020-08-05T11:41:21.375Z</time>
      </trkpt>
      <trkpt lat="63.35565" lon="9.38516">
        <ele>151.185572</ele>
        <time>2020-08-05T11:41:22.319Z</time>
      </trkpt>
      <trkpt lat="63.35563" lon="9.38539">
        <ele>150.729452</ele>
        <time>2020-08-05T11:41:23.323Z</time>
      </trkpt>
      <trkpt lat="63.3556" lon="9.38562">
        <ele>150.267758</ele>
        <time>2020-08-05T11:41:24.347Z</time>
      </trkpt>
      <trkpt lat="63.35557" lon="9.38586">
        <ele>149.792971</ele>
        <time>2020-08-05T11:41:25.335Z</time>
      </trkpt>
      <trkpt lat="63.35554" lon="9.38609">
        <ele>149.31489</ele>
        <time>2020-08-05T11:41:26.352Z</time>
      </trkpt>
      <trkpt lat="63.3555" lon="9.38633">
        <ele>148.839453</ele>
        <time>2020-08-05T11:41:27.354Z</time>
      </trkpt>
      <trkpt lat="63.35547" lon="9.38656">
        <ele>148.376357</ele>
        <time>2020-08-05T11:41:28.366Z</time>
      </trkpt>
      <trkpt lat="63.35544" lon="9.38679">
        <ele>147.902187</ele>
        <time>2020-08-05T11:41:29.351Z</time>
      </trkpt>
      <trkpt lat="63.35541" lon="9.38704">
        <ele>147.407658</ele>
        <time>2020-08-05T11:41:30.326Z</time>
      </trkpt>
      <trkpt lat="63.35537" lon="9.38729">
        <ele>146.894029</ele>
        <time>2020-08-05T11:41:31.343Z</time>
      </trkpt>
      <trkpt lat="63.35534" lon="9.38756">
        <ele>146.414777</ele>
        <time>2020-08-05T11:41:32.377Z</time>
      </trkpt>
      <trkpt lat="63.35532" lon="9.38782">
        <ele>146.190483</ele>
        <time>2020-08-05T11:41:33.323Z</time>
      </trkpt>
      <trkpt lat="63.3553" lon="9.38809">
        <ele>145.967546</ele>
        <time>2020-08-05T11:41:34.341Z</time>
      </trkpt>
      <trkpt lat="63.35528" lon="9.38835">
        <ele>145.745725</ele>
        <time>2020-08-05T11:41:35.340Z</time>
      </trkpt>
      <trkpt lat="63.35527" lon="9.38861">
        <ele>145.526779</ele>
        <time>2020-08-05T11:41:36.322Z</time>
      </trkpt>
      <trkpt lat="63.35527" lon="9.38887">
        <ele>145.309778</ele>
        <time>2020-08-05T11:41:37.334Z</time>
      </trkpt>
      <trkpt lat="63.35526" lon="9.38914">
        <ele>145.091336</ele>
        <time>2020-08-05T11:41:38.336Z</time>
      </trkpt>
      <trkpt lat="63.35526" lon="9.38939">
        <ele>144.876381</ele>
        <time>2020-08-05T11:41:39.350Z</time>
      </trkpt>
      <trkpt lat="63.35526" lon="9.38965">
        <ele>144.659881</ele>
        <time>2020-08-05T11:41:40.363Z</time>
      </trkpt>
      <trkpt lat="63.35527" lon="9.3899">
        <ele>144.458069</ele>
        <time>2020-08-05T11:41:41.337Z</time>
      </trkpt>
      <trkpt lat="63.35529" lon="9.39011">
        <ele>144.276285</ele>
        <time>2020-08-05T11:41:42.382Z</time>
      </trkpt>
      <trkpt lat="63.3553" lon="9.39031">
        <ele>144.108424</ele>
        <time>2020-08-05T11:41:43.354Z</time>
      </trkpt>
      <trkpt lat="63.35531" lon="9.39065">
        <ele>143.822333</ele>
        <time>2020-08-05T11:41:45.333Z</time>
      </trkpt>
      <trkpt lat="63.35529" lon="9.39092">
        <ele>143.591858</ele>
        <time>2020-08-05T11:41:47.330Z</time>
      </trkpt>
      <trkpt lat="63.35525" lon="9.39113">
        <ele>143.399564</ele>
        <time>2020-08-05T11:41:49.330Z</time>
      </trkpt>
      <trkpt lat="63.35519" lon="9.39137">
        <ele>143.176762</ele>
        <time>2020-08-05T11:41:52.347Z</time>
      </trkpt>
      <trkpt lat="63.35513" lon="9.39156">
        <ele>143.940114</ele>
        <time>2020-08-05T11:41:55.354Z</time>
      </trkpt>
      <trkpt lat="63.35509" lon="9.39175">
        <ele>145.041162</ele>
        <time>2020-08-05T11:41:58.352Z</time>
      </trkpt>
      <trkpt lat="63.35504" lon="9.39192">
        <ele>146.107787</ele>
        <time>2020-08-05T11:42:01.349Z</time>
      </trkpt>
      <trkpt lat="63.35499" lon="9.39212">
        <ele>147.320512</ele>
        <time>2020-08-05T11:42:05.335Z</time>
      </trkpt>
      <trkpt lat="63.35493" lon="9.39234">
        <ele>148.607132</ele>
        <time>2020-08-05T11:42:10.341Z</time>
      </trkpt>
      <trkpt lat="63.35488" lon="9.39253">
        <ele>149.771169</ele>
        <time>2020-08-05T11:42:14.380Z</time>
      </trkpt>
      <trkpt lat="63.35483" lon="9.39271">
        <ele>150.891932</ele>
        <time>2020-08-05T11:42:18.349Z</time>
      </trkpt>
      <trkpt lat="63.35479" lon="9.3929">
        <ele>151.981795</ele>
        <time>2020-08-05T11:42:23.341Z</time>
      </trkpt>
      <trkpt lat="63.35474" lon="9.3931">
        <ele>153.217342</ele>
        <time>2020-08-05T11:42:29.330Z</time>
      </trkpt>
      <trkpt lat="63.35468" lon="9.39327">
        <ele>154.315726</ele>
        <time>2020-08-05T11:42:35.400Z</time>
      </trkpt>
      <trkpt lat="63.3546" lon="9.39343">
        <ele>155.511729</ele>
        <time>2020-08-05T11:42:41.356Z</time>
      </trkpt>
      <trkpt lat="63.35452" lon="9.39357">
        <ele>156.756056</ele>
        <time>2020-08-05T11:42:47.323Z</time>
      </trkpt>
      <trkpt lat="63.35444" lon="9.3937">
        <ele>157.876676</ele>
        <time>2020-08-05T11:42:53.379Z</time>
      </trkpt>
      <trkpt lat="63.35436" lon="9.39383">
        <ele>158.9904</ele>
        <time>2020-08-05T11:43:00.334Z</time>
      </trkpt>
      <trkpt lat="63.35428" lon="9.39397">
        <ele>160.157157</ele>
        <time>2020-08-05T11:43:07.382Z</time>
      </trkpt>
      <trkpt lat="63.35421" lon="9.3941">
        <ele>161.231904</ele>
        <time>2020-08-05T11:43:14.371Z</time>
      </trkpt>
      <trkpt lat="63.35412" lon="9.3942">
        <ele>162.395314</ele>
        <time>2020-08-05T11:43:21.323Z</time>
      </trkpt>
      <trkpt lat="63.35405" lon="9.39432">
        <ele>163.487121</ele>
        <time>2020-08-05T11:43:27.313Z</time>
      </trkpt>
      <trkpt lat="63.35397" lon="9.39446">
        <ele>164.324684</ele>
        <time>2020-08-05T11:43:33.335Z</time>
      </trkpt>
      <trkpt lat="63.35389" lon="9.39457">
        <ele>164.909878</ele>
        <time>2020-08-05T11:43:40.338Z</time>
      </trkpt>
      <trkpt lat="63.35381" lon="9.3947">
        <ele>165.506064</ele>
        <time>2020-08-05T11:43:48.356Z</time>
      </trkpt>
      <trkpt lat="63.35373" lon="9.3948">
        <ele>166.051518</ele>
        <time>2020-08-05T11:43:56.322Z</time>
      </trkpt>
      <trkpt lat="63.35364" lon="9.39489">
        <ele>166.639727</ele>
        <time>2020-08-05T11:44:02.360Z</time>
      </trkpt>
      <trkpt lat="63.35355" lon="9.39502">
        <ele>167.249068</ele>
        <time>2020-08-05T11:44:08.338Z</time>
      </trkpt>
      <trkpt lat="63.35347" lon="9.39513">
        <ele>167.838344</ele>
        <time>2020-08-05T11:44:14.335Z</time>
      </trkpt>
      <trkpt lat="63.35338" lon="9.39525">
        <ele>168.436018</ele>
        <time>2020-08-05T11:44:20.323Z</time>
      </trkpt>
      <trkpt lat="63.3533" lon="9.39536">
        <ele>168.979292</ele>
        <time>2020-08-05T11:44:25.330Z</time>
      </trkpt>
      <trkpt lat="63.35323" lon="9.39551">
        <ele>169.586022</ele>
        <time>2020-08-05T11:44:31.341Z</time>
      </trkpt>
      <trkpt lat="63.35315" lon="9.39564">
        <ele>170.14901</ele>
        <time>2020-08-05T11:44:37.361Z</time>
      </trkpt>
      <trkpt lat="63.35308" lon="9.39575">
        <ele>170.685267</ele>
        <time>2020-08-05T11:44:43.360Z</time>
      </trkpt>
      <trkpt lat="63.353" lon="9.39589">
        <ele>171.284455</ele>
        <time>2020-08-05T11:44:49.349Z</time>
      </trkpt>
      <trkpt lat="63.35292" lon="9.39604">
        <ele>171.891289</ele>
        <time>2020-08-05T11:44:54.327Z</time>
      </trkpt>
      <trkpt lat="63.35285" lon="9.39618">
        <ele>172.456426</ele>
        <time>2020-08-05T11:44:59.375Z</time>
      </trkpt>
      <trkpt lat="63.35277" lon="9.39629">
        <ele>173.025474</ele>
        <time>2020-08-05T11:45:04.341Z</time>
      </trkpt>
      <trkpt lat="63.35269" lon="9.39641">
        <ele>173.587425</ele>
        <time>2020-08-05T11:45:08.330Z</time>
      </trkpt>
      <trkpt lat="63.3526" lon="9.39656">
        <ele>174.258279</ele>
        <time>2020-08-05T11:45:12.342Z</time>
      </trkpt>
      <trkpt lat="63.35251" lon="9.39667">
        <ele>174.661914</ele>
        <time>2020-08-05T11:45:15.333Z</time>
      </trkpt>
      <trkpt lat="63.35242" lon="9.39677">
        <ele>174.494704</ele>
        <time>2020-08-05T11:45:18.364Z</time>
      </trkpt>
      <trkpt lat="63.35232" lon="9.39687">
        <ele>174.316641</ele>
        <time>2020-08-05T11:45:21.334Z</time>
      </trkpt>
      <trkpt lat="63.35221" lon="9.39696">
        <ele>174.132538</ele>
        <time>2020-08-05T11:45:24.343Z</time>
      </trkpt>
      <trkpt lat="63.35211" lon="9.39703">
        <ele>173.957567</ele>
        <time>2020-08-05T11:45:27.363Z</time>
      </trkpt>
      <trkpt lat="63.35202" lon="9.39709">
        <ele>173.803152</ele>
        <time>2020-08-05T11:45:30.342Z</time>
      </trkpt>
      <trkpt lat="63.35191" lon="9.39713">
        <ele>173.607614</ele>
        <time>2020-08-05T11:45:34.334Z</time>
      </trkpt>
      <trkpt lat="63.3518" lon="9.39719">
        <ele>173.424328</ele>
        <time>2020-08-05T11:45:37.356Z</time>
      </trkpt>
      <trkpt lat="63.35168" lon="9.39725">
        <ele>173.22239</ele>
        <time>2020-08-05T11:45:40.374Z</time>
      </trkpt>
      <trkpt lat="63.35157" lon="9.39732">
        <ele>173.020451</ele>
        <time>2020-08-05T11:45:43.340Z</time>
      </trkpt>
      <trkpt lat="63.35146" lon="9.39739">
        <ele>172.837998</ele>
        <time>2020-08-05T11:45:46.358Z</time>
      </trkpt>
      <trkpt lat="63.35135" lon="9.3975">
        <ele>172.634781</ele>
        <time>2020-08-05T11:45:49.321Z</time>
      </trkpt>
      <trkpt lat="63.35127" lon="9.39761">
        <ele>172.484301</ele>
        <time>2020-08-05T11:45:51.357Z</time>
      </trkpt>
      <trkpt lat="63.35119" lon="9.39772">
        <ele>172.326594</ele>
        <time>2020-08-05T11:45:53.345Z</time>
      </trkpt>
      <trkpt lat="63.35111" lon="9.39786">
        <ele>172.152128</ele>
        <time>2020-08-05T11:45:55.332Z</time>
      </trkpt>
      <trkpt lat="63.35101" lon="9.39803">
        <ele>171.942111</ele>
        <time>2020-08-05T11:45:57.322Z</time>
      </trkpt>
      <trkpt lat="63.35092" lon="9.3982">
        <ele>171.745172</ele>
        <time>2020-08-05T11:45:59.368Z</time>
      </trkpt>
      <trkpt lat="63.35083" lon="9.39835">
        <ele>171.203765</ele>
        <time>2020-08-05T11:46:01.323Z</time>
      </trkpt>
      <trkpt lat="63.35075" lon="9.39851">
        <ele>170.6062</ele>
        <time>2020-08-05T11:46:03.354Z</time>
      </trkpt>
      <trkpt lat="63.35068" lon="9.39867">
        <ele>170.049913</ele>
        <time>2020-08-05T11:46:05.397Z</time>
      </trkpt>
      <trkpt lat="63.35061" lon="9.39884">
        <ele>169.471506</ele>
        <time>2020-08-05T11:46:07.321Z</time>
      </trkpt>
      <trkpt lat="63.35055" lon="9.399">
        <ele>168.92841</ele>
        <time>2020-08-05T11:46:09.337Z</time>
      </trkpt>
      <trkpt lat="63.35046" lon="9.39922">
        <ele>168.212904</ele>
        <time>2020-08-05T11:46:12.354Z</time>
      </trkpt>
      <trkpt lat="63.35038" lon="9.39944">
        <ele>167.482295</ele>
        <time>2020-08-05T11:46:15.363Z</time>
      </trkpt>
      <trkpt lat="63.3503" lon="9.39967">
        <ele>166.765638</ele>
        <time>2020-08-05T11:46:18.323Z</time>
      </trkpt>
      <trkpt lat="63.35023" lon="9.39991">
        <ele>166.064155</ele>
        <time>2020-08-05T11:46:21.385Z</time>
      </trkpt>
      <trkpt lat="63.35016" lon="9.40015">
        <ele>165.350373</ele>
        <time>2020-08-05T11:46:24.350Z</time>
      </trkpt>
      <trkpt lat="63.35011" lon="9.4004">
        <ele>164.677802</ele>
        <time>2020-08-05T11:46:27.328Z</time>
      </trkpt>
      <trkpt lat="63.35006" lon="9.40063">
        <ele>164.034448</ele>
        <time>2020-08-05T11:46:30.341Z</time>
      </trkpt>
      <trkpt lat="63.35002" lon="9.40085">
        <ele>163.445991</ele>
        <time>2020-08-05T11:46:33.342Z</time>
      </trkpt>
      <trkpt lat="63.34997" lon="9.40105">
        <ele>162.87743</ele>
        <time>2020-08-05T11:46:36.331Z</time>
      </trkpt>
      <trkpt lat="63.34993" lon="9.40125">
        <ele>162.326595</ele>
        <time>2020-08-05T11:46:39.341Z</time>
      </trkpt>
      <trkpt lat="63.34988" lon="9.40145">
        <ele>161.743344</ele>
        <time>2020-08-05T11:46:42.343Z</time>
      </trkpt>
      <trkpt lat="63.34983" lon="9.40166">
        <ele>161.990905</ele>
        <time>2020-08-05T11:46:45.332Z</time>
      </trkpt>
      <trkpt lat="63.34977" lon="9.40185">
        <ele>162.25197</ele>
        <time>2020-08-05T11:46:48.375Z</time>
      </trkpt>
      <trkpt lat="63.34971" lon="9.40204">
        <ele>162.504564</ele>
        <time>2020-08-05T11:46:51.356Z</time>
      </trkpt>
      <trkpt lat="63.34964" lon="9.40221">
        <ele>162.766834</ele>
        <time>2020-08-05T11:46:54.328Z</time>
      </trkpt>
      <trkpt lat="63.34956" lon="9.40236">
        <ele>163.023853</ele>
        <time>2020-08-05T11:46:57.326Z</time>
      </trkpt>
      <trkpt lat="63.34947" lon="9.40251">
        <ele>163.296824</ele>
        <time>2020-08-05T11:47:00.344Z</time>
      </trkpt>
      <trkpt lat="63.34938" lon="9.40263">
        <ele>163.561995</ele>
        <time>2020-08-05T11:47:03.360Z</time>
      </trkpt>
      <trkpt lat="63.3493" lon="9.40275">
        <ele>163.786067</ele>
        <time>2020-08-05T11:47:06.343Z</time>
      </trkpt>
      <trkpt lat="63.3492" lon="9.4029">
        <ele>164.081311</ele>
        <time>2020-08-05T11:47:10.416Z</time>
      </trkpt>
      <trkpt lat="63.34912" lon="9.40299">
        <ele>164.305711</ele>
        <time>2020-08-05T11:47:13.334Z</time>
      </trkpt>
      <trkpt lat="63.34901" lon="9.40306">
        <ele>164.597475</ele>
        <time>2020-08-05T11:47:17.344Z</time>
      </trkpt>
      <trkpt lat="63.34891" lon="9.40308">
        <ele>164.833498</ele>
        <time>2020-08-05T11:47:20.333Z</time>
      </trkpt>
      <trkpt lat="63.34882" lon="9.40311">
        <ele>165.074432</ele>
        <time>2020-08-05T11:47:23.342Z</time>
      </trkpt>
      <trkpt lat="63.34871" lon="9.40315">
        <ele>165.329047</ele>
        <time>2020-08-05T11:47:26.336Z</time>
      </trkpt>
      <trkpt lat="63.34862" lon="9.40318">
        <ele>165.556589</ele>
        <time>2020-08-05T11:47:29.366Z</time>
      </trkpt>
      <trkpt lat="63.34851" lon="9.40325">
        <ele>165.85122</ele>
        <time>2020-08-05T11:47:33.353Z</time>
      </trkpt>
      <trkpt lat="63.34841" lon="9.40332">
        <ele>166.104085</ele>
        <time>2020-08-05T11:47:36.373Z</time>
      </trkpt>
      <trkpt lat="63.34831" lon="9.40341">
        <ele>166.874027</ele>
        <time>2020-08-05T11:47:40.347Z</time>
      </trkpt>
      <trkpt lat="63.34822" lon="9.40353">
        <ele>167.724946</ele>
        <time>2020-08-05T11:47:44.344Z</time>
      </trkpt>
      <trkpt lat="63.34815" lon="9.40368">
        <ele>168.536864</ele>
        <time>2020-08-05T11:47:48.335Z</time>
      </trkpt>
      <trkpt lat="63.34808" lon="9.40382">
        <ele>169.315162</ele>
        <time>2020-08-05T11:47:52.324Z</time>
      </trkpt>
      <trkpt lat="63.34801" lon="9.40397">
        <ele>170.104077</ele>
        <time>2020-08-05T11:47:56.319Z</time>
      </trkpt>
      <trkpt lat="63.34793" lon="9.40413">
        <ele>170.978657</ele>
        <time>2020-08-05T11:48:02.361Z</time>
      </trkpt>
      <trkpt lat="63.34788" lon="9.4043">
        <ele>171.761375</ele>
        <time>2020-08-05T11:48:08.394Z</time>
      </trkpt>
      <trkpt lat="63.34784" lon="9.40448">
        <ele>172.520665</ele>
        <time>2020-08-05T11:48:13.350Z</time>
      </trkpt>
      <trkpt lat="63.34776" lon="9.40466">
        <ele>173.450985</ele>
        <time>2020-08-05T11:48:18.327Z</time>
      </trkpt>
      <trkpt lat="63.34769" lon="9.40485">
        <ele>174.377432</ele>
        <time>2020-08-05T11:48:23.337Z</time>
      </trkpt>
      <trkpt lat="63.34764" lon="9.40504">
        <ele>175.183648</ele>
        <time>2020-08-05T11:48:28.322Z</time>
      </trkpt>
      <trkpt lat="63.3476" lon="9.40525">
        <ele>176.052291</ele>
        <time>2020-08-05T11:48:33.370Z</time>
      </trkpt>
      <trkpt lat="63.34753" lon="9.40544">
        <ele>176.985422</ele>
        <time>2020-08-05T11:48:38.336Z</time>
      </trkpt>
      <trkpt lat="63.34747" lon="9.40563">
        <ele>177.83665</ele>
        <time>2020-08-05T11:48:43.405Z</time>
      </trkpt>
      <trkpt lat="63.34741" lon="9.40581">
        <ele>178.677</ele>
        <time>2020-08-05T11:48:48.339Z</time>
      </trkpt>
      <trkpt lat="63.34733" lon="9.40598">
        <ele>179.57967</ele>
        <time>2020-08-05T11:48:53.379Z</time>
      </trkpt>
      <trkpt lat="63.34726" lon="9.40617">
        <ele>180.52393</ele>
        <time>2020-08-05T11:48:58.365Z</time>
      </trkpt>
      <trkpt lat="63.3472" lon="9.40633">
        <ele>181.365543</ele>
        <time>2020-08-05T11:49:02.321Z</time>
      </trkpt>
      <trkpt lat="63.34712" lon="9.4065">
        <ele>182.673792</ele>
        <time>2020-08-05T11:49:07.365Z</time>
      </trkpt>
      <trkpt lat="63.34706" lon="9.40666">
        <ele>183.833973</ele>
        <time>2020-08-05T11:49:11.372Z</time>
      </trkpt>
      <trkpt lat="63.34698" lon="9.40683">
        <ele>185.177878</ele>
        <time>2020-08-05T11:49:16.355Z</time>
      </trkpt>
      <trkpt lat="63.34691" lon="9.40698">
        <ele>186.373778</ele>
        <time>2020-08-05T11:49:20.347Z</time>
      </trkpt>
      <trkpt lat="63.34685" lon="9.40714">
        <ele>187.489991</ele>
        <time>2020-08-05T11:49:24.355Z</time>
      </trkpt>
      <trkpt lat="63.3468" lon="9.40732">
        <ele>188.650884</ele>
        <time>2020-08-05T11:49:28.343Z</time>
      </trkpt>
      <trkpt lat="63.34674" lon="9.40748">
        <ele>189.787303</ele>
        <time>2020-08-05T11:49:32.321Z</time>
      </trkpt>
      <trkpt lat="63.34669" lon="9.40769">
        <ele>191.096414</ele>
        <time>2020-08-05T11:49:37.338Z</time>
      </trkpt>
      <trkpt lat="63.34664" lon="9.40792">
        <ele>192.518907</ele>
        <time>2020-08-05T11:49:41.347Z</time>
      </trkpt>
      <trkpt lat="63.34659" lon="9.40815">
        <ele>193.875592</ele>
        <time>2020-08-05T11:49:45.352Z</time>
      </trkpt>
      <trkpt lat="63.34655" lon="9.40835">
        <ele>195.123456</ele>
        <time>2020-08-05T11:49:49.360Z</time>
      </trkpt>
      <trkpt lat="63.34651" lon="9.40854">
        <ele>196.270311</ele>
        <time>2020-08-05T11:49:53.383Z</time>
      </trkpt>
      <trkpt lat="63.3465" lon="9.40876">
        <ele>197.487842</ele>
        <time>2020-08-05T11:49:57.344Z</time>
      </trkpt>
      <trkpt lat="63.34648" lon="9.40902">
        <ele>198.902352</ele>
        <time>2020-08-05T11:50:01.323Z</time>
      </trkpt>
      <trkpt lat="63.34645" lon="9.40925">
        <ele>200.253512</ele>
        <time>2020-08-05T11:50:05.342Z</time>
      </trkpt>
      <trkpt lat="63.3464" lon="9.40943">
        <ele>201.43948</ele>
        <time>2020-08-05T11:50:09.340Z</time>
      </trkpt>
      <trkpt lat="63.34633" lon="9.40961">
        <ele>202.698138</ele>
        <time>2020-08-05T11:50:13.320Z</time>
      </trkpt>
      <trkpt lat="63.34625" lon="9.40975">
        <ele>202.677784</ele>
        <time>2020-08-05T11:50:17.407Z</time>
      </trkpt>
      <trkpt lat="63.34615" lon="9.40986">
        <ele>201.822877</ele>
        <time>2020-08-05T11:50:21.351Z</time>
      </trkpt>
      <trkpt lat="63.34605" lon="9.40991">
        <ele>201.062669</ele>
        <time>2020-08-05T11:50:24.336Z</time>
      </trkpt>
      <trkpt lat="63.34596" lon="9.40996">
        <ele>200.353125</ele>
        <time>2020-08-05T11:50:27.346Z</time>
      </trkpt>
      <trkpt lat="63.34586" lon="9.41006">
        <ele>199.550958</ele>
        <time>2020-08-05T11:50:31.347Z</time>
      </trkpt>
      <trkpt lat="63.34578" lon="9.41018">
        <ele>198.836072</ele>
        <time>2020-08-05T11:50:35.325Z</time>
      </trkpt>
      <trkpt lat="63.34569" lon="9.41031">
        <ele>198.015423</ele>
        <time>2020-08-05T11:50:39.346Z</time>
      </trkpt>
      <trkpt lat="63.34559" lon="9.41046">
        <ele>197.089343</ele>
        <time>2020-08-05T11:50:43.328Z</time>
      </trkpt>
      <trkpt lat="63.3455" lon="9.41057">
        <ele>196.325731</ele>
        <time>2020-08-05T11:50:46.332Z</time>
      </trkpt>
      <trkpt lat="63.34542" lon="9.41068">
        <ele>195.596414</ele>
        <time>2020-08-05T11:50:49.335Z</time>
      </trkpt>
      <trkpt lat="63.34533" lon="9.41084">
        <ele>194.699456</ele>
        <time>2020-08-05T11:50:52.329Z</time>
      </trkpt>
      <trkpt lat="63.34523" lon="9.41097">
        <ele>193.819329</ele>
        <time>2020-08-05T11:50:55.351Z</time>
      </trkpt>
      <trkpt lat="63.34513" lon="9.41112">
        <ele>192.942626</ele>
        <time>2020-08-05T11:50:58.346Z</time>
      </trkpt>
      <trkpt lat="63.34504" lon="9.41128">
        <ele>192.049622</ele>
        <time>2020-08-05T11:51:01.340Z</time>
      </trkpt>
      <trkpt lat="63.34495" lon="9.41144">
        <ele>191.173911</ele>
        <time>2020-08-05T11:51:04.386Z</time>
      </trkpt>
      <trkpt lat="63.34486" lon="9.4116">
        <ele>190.294948</ele>
        <time>2020-08-05T11:51:07.342Z</time>
      </trkpt>
      <trkpt lat="63.34478" lon="9.41176">
        <ele>189.472888</ele>
        <time>2020-08-05T11:51:10.347Z</time>
      </trkpt>
      <trkpt lat="63.34469" lon="9.41193">
        <ele>188.68261</ele>
        <time>2020-08-05T11:51:13.368Z</time>
      </trkpt>
      <trkpt lat="63.34462" lon="9.41212">
        <ele>187.862504</ele>
        <time>2020-08-05T11:51:16.369Z</time>
      </trkpt>
      <trkpt lat="63.34454" lon="9.4123">
        <ele>187.045256</ele>
        <time>2020-08-05T11:51:19.375Z</time>
      </trkpt>
      <trkpt lat="63.34446" lon="9.41248">
        <ele>186.249289</ele>
        <time>2020-08-05T11:51:22.349Z</time>
      </trkpt>
      <trkpt lat="63.34439" lon="9.41267">
        <ele>185.470046</ele>
        <time>2020-08-05T11:51:25.327Z</time>
      </trkpt>
      <trkpt lat="63.34432" lon="9.41286">
        <ele>184.711676</ele>
        <time>2020-08-05T11:51:28.334Z</time>
      </trkpt>
      <trkpt lat="63.34427" lon="9.41304">
        <ele>183.98477</ele>
        <time>2020-08-05T11:51:31.365Z</time>
      </trkpt>
      <trkpt lat="63.34422" lon="9.41324">
        <ele>183.272583</ele>
        <time>2020-08-05T11:51:34.326Z</time>
      </trkpt>
      <trkpt lat="63.34417" lon="9.41344">
        <ele>182.567306</ele>
        <time>2020-08-05T11:51:37.367Z</time>
      </trkpt>
      <trkpt lat="63.34414" lon="9.41365">
        <ele>181.860804</ele>
        <time>2020-08-05T11:51:40.326Z</time>
      </trkpt>
      <trkpt lat="63.34411" lon="9.41387">
        <ele>181.11464</ele>
        <time>2020-08-05T11:51:43.363Z</time>
      </trkpt>
      <trkpt lat="63.34409" lon="9.41411">
        <ele>180.342837</ele>
        <time>2020-08-05T11:51:46.360Z</time>
      </trkpt>
      <trkpt lat="63.34405" lon="9.41433">
        <ele>179.597655</ele>
        <time>2020-08-05T11:51:49.334Z</time>
      </trkpt>
      <trkpt lat="63.34403" lon="9.41455">
        <ele>178.887373</ele>
        <time>2020-08-05T11:51:52.323Z</time>
      </trkpt>
      <trkpt lat="63.34401" lon="9.41476">
        <ele>178.18339</ele>
        <time>2020-08-05T11:51:55.401Z</time>
      </trkpt>
      <trkpt lat="63.34399" lon="9.41498">
        <ele>177.457605</ele>
        <time>2020-08-05T11:51:58.330Z</time>
      </trkpt>
      <trkpt lat="63.34396" lon="9.4152">
        <ele>176.747322</ele>
        <time>2020-08-05T11:52:01.348Z</time>
      </trkpt>
      <trkpt lat="63.34394" lon="9.41539">
        <ele>176.90955</ele>
        <time>2020-08-05T11:52:04.363Z</time>
      </trkpt>
      <trkpt lat="63.34391" lon="9.41559">
        <ele>177.082032</ele>
        <time>2020-08-05T11:52:07.350Z</time>
      </trkpt>
      <trkpt lat="63.34388" lon="9.41581">
        <ele>177.269578</ele>
        <time>2020-08-05T11:52:10.352Z</time>
      </trkpt>
      <trkpt lat="63.34384" lon="9.41602">
        <ele>177.45152</ele>
        <time>2020-08-05T11:52:13.358Z</time>
      </trkpt>
      <trkpt lat="63.34379" lon="9.41621">
        <ele>177.63286</ele>
        <time>2020-08-05T11:52:16.315Z</time>
      </trkpt>
      <trkpt lat="63.34375" lon="9.4164">
        <ele>177.803309</ele>
        <time>2020-08-05T11:52:19.338Z</time>
      </trkpt>
      <trkpt lat="63.3437" lon="9.41662">
        <ele>178.017099</ele>
        <time>2020-08-05T11:52:23.345Z</time>
      </trkpt>
      <trkpt lat="63.34364" lon="9.41685">
        <ele>178.230888</ele>
        <time>2020-08-05T11:52:27.338Z</time>
      </trkpt>
      <trkpt lat="63.34359" lon="9.41703">
        <ele>178.400764</ele>
        <time>2020-08-05T11:52:30.346Z</time>
      </trkpt>
      <trkpt lat="63.34353" lon="9.41722">
        <ele>178.59226</ele>
        <time>2020-08-05T11:52:33.368Z</time>
      </trkpt>
      <trkpt lat="63.34346" lon="9.41741">
        <ele>178.801648</ele>
        <time>2020-08-05T11:52:37.376Z</time>
      </trkpt>
      <trkpt lat="63.34339" lon="9.41756">
        <ele>178.971408</ele>
        <time>2020-08-05T11:52:40.347Z</time>
      </trkpt>
      <trkpt lat="63.34333" lon="9.41772">
        <ele>179.149572</ele>
        <time>2020-08-05T11:52:43.337Z</time>
      </trkpt>
      <trkpt lat="63.34326" lon="9.41788">
        <ele>179.332703</ele>
        <time>2020-08-05T11:52:46.335Z</time>
      </trkpt>
      <trkpt lat="63.3432" lon="9.41805">
        <ele>179.511106</ele>
        <time>2020-08-05T11:52:49.331Z</time>
      </trkpt>
      <trkpt lat="63.34313" lon="9.41821">
        <ele>179.68803</ele>
        <time>2020-08-05T11:52:52.362Z</time>
      </trkpt>
      <trkpt lat="63.34307" lon="9.41835">
        <ele>179.852781</ele>
        <time>2020-08-05T11:52:55.331Z</time>
      </trkpt>
      <trkpt lat="63.343" lon="9.4185">
        <ele>180.028173</ele>
        <time>2020-08-05T11:52:58.341Z</time>
      </trkpt>
      <trkpt lat="63.34294" lon="9.41865">
        <ele>180.545265</ele>
        <time>2020-08-05T11:53:01.334Z</time>
      </trkpt>
      <trkpt lat="63.34287" lon="9.41879">
        <ele>181.106399</ele>
        <time>2020-08-05T11:53:04.350Z</time>
      </trkpt>
      <trkpt lat="63.3428" lon="9.41893">
        <ele>181.675874</ele>
        <time>2020-08-05T11:53:07.329Z</time>
      </trkpt>
      <trkpt lat="63.34273" lon="9.41907">
        <ele>182.247167</ele>
        <time>2020-08-05T11:53:10.378Z</time>
      </trkpt>
      <trkpt lat="63.34267" lon="9.41921">
        <ele>182.8014</ele>
        <time>2020-08-05T11:53:13.331Z</time>
      </trkpt>
      <trkpt lat="63.34259" lon="9.41939">
        <ele>183.46769</ele>
        <time>2020-08-05T11:53:17.333Z</time>
      </trkpt>
      <trkpt lat="63.34252" lon="9.41954">
        <ele>184.054684</ele>
        <time>2020-08-05T11:53:21.339Z</time>
      </trkpt>
      <trkpt lat="63.34245" lon="9.41969">
        <ele>184.645941</ele>
        <time>2020-08-05T11:53:26.361Z</time>
      </trkpt>
      <trkpt lat="63.34238" lon="9.41983">
        <ele>185.206465</ele>
        <time>2020-08-05T11:53:31.319Z</time>
      </trkpt>
      <trkpt lat="63.34232" lon="9.41997">
        <ele>185.762556</ele>
        <time>2020-08-05T11:53:37.318Z</time>
      </trkpt>
      <trkpt lat="63.34225" lon="9.42015">
        <ele>186.375904</ele>
        <time>2020-08-05T11:53:45.351Z</time>
      </trkpt>
      <trkpt lat="63.34218" lon="9.42031">
        <ele>186.99966</ele>
        <time>2020-08-05T11:53:52.348Z</time>
      </trkpt>
      <trkpt lat="63.34212" lon="9.42046">
        <ele>187.549747</ele>
        <time>2020-08-05T11:53:58.339Z</time>
      </trkpt>
      <trkpt lat="63.34205" lon="9.42063">
        <ele>188.154714</ele>
        <time>2020-08-05T11:54:05.345Z</time>
      </trkpt>
      <trkpt lat="63.34199" lon="9.42078">
        <ele>188.712906</ele>
        <time>2020-08-05T11:54:11.357Z</time>
      </trkpt>
      <trkpt lat="63.34192" lon="9.42093">
        <ele>189.299683</ele>
        <time>2020-08-05T11:54:17.319Z</time>
      </trkpt>
      <trkpt lat="63.34185" lon="9.42106">
        <ele>189.868875</ele>
        <time>2020-08-05T11:54:22.335Z</time>
      </trkpt>
      <trkpt lat="63.34177" lon="9.42121">
        <ele>190.480056</ele>
        <time>2020-08-05T11:54:27.341Z</time>
      </trkpt>
      <trkpt lat="63.3417" lon="9.42137">
        <ele>191.015292</ele>
        <time>2020-08-05T11:54:32.378Z</time>
      </trkpt>
      <trkpt lat="63.34162" lon="9.42151">
        <ele>191.274062</ele>
        <time>2020-08-05T11:54:36.333Z</time>
      </trkpt>
      <trkpt lat="63.34156" lon="9.42166">
        <ele>191.529198</ele>
        <time>2020-08-05T11:54:40.346Z</time>
      </trkpt>
      <trkpt lat="63.34149" lon="9.42182">
        <ele>191.795744</ele>
        <time>2020-08-05T11:54:44.339Z</time>
      </trkpt>
      <trkpt lat="63.34142" lon="9.42198">
        <ele>192.067269</ele>
        <time>2020-08-05T11:54:48.326Z</time>
      </trkpt>
      <trkpt lat="63.34134" lon="9.42216">
        <ele>192.371808</ele>
        <time>2020-08-05T11:54:52.355Z</time>
      </trkpt>
      <trkpt lat="63.34127" lon="9.42232">
        <ele>192.648648</ele>
        <time>2020-08-05T11:54:56.320Z</time>
      </trkpt>
      <trkpt lat="63.34119" lon="9.42248">
        <ele>192.928508</ele>
        <time>2020-08-05T11:55:00.359Z</time>
      </trkpt>
      <trkpt lat="63.34112" lon="9.42265">
        <ele>193.216864</ele>
        <time>2020-08-05T11:55:04.360Z</time>
      </trkpt>
      <trkpt lat="63.34103" lon="9.42282">
        <ele>193.531157</ele>
        <time>2020-08-05T11:55:08.357Z</time>
      </trkpt>
      <trkpt lat="63.34096" lon="9.42296">
        <ele>193.778252</ele>
        <time>2020-08-05T11:55:11.356Z</time>
      </trkpt>
      <trkpt lat="63.34089" lon="9.42309">
        <ele>194.025946</ele>
        <time>2020-08-05T11:55:14.334Z</time>
      </trkpt>
      <trkpt lat="63.34081" lon="9.42325">
        <ele>194.31813</ele>
        <time>2020-08-05T11:55:18.347Z</time>
      </trkpt>
      <trkpt lat="63.34074" lon="9.4234">
        <ele>194.584148</ele>
        <time>2020-08-05T11:55:22.316Z</time>
      </trkpt>
      <trkpt lat="63.34066" lon="9.42354">
        <ele>194.852495</ele>
        <time>2020-08-05T11:55:26.370Z</time>
      </trkpt>
      <trkpt lat="63.34058" lon="9.42366">
        <ele>195.109366</ele>
        <time>2020-08-05T11:55:30.364Z</time>
      </trkpt>
      <trkpt lat="63.3405" lon="9.42377">
        <ele>195.355258</ele>
        <time>2020-08-05T11:55:35.331Z</time>
      </trkpt>
      <trkpt lat="63.34043" lon="9.42388">
        <ele>195.600863</ele>
        <time>2020-08-05T11:55:40.355Z</time>
      </trkpt>
      <trkpt lat="63.34034" lon="9.424">
        <ele>196.088981</ele>
        <time>2020-08-05T11:55:46.367Z</time>
      </trkpt>
      <trkpt lat="63.34025" lon="9.42411">
        <ele>196.950376</ele>
        <time>2020-08-05T11:55:52.322Z</time>
      </trkpt>
      <trkpt lat="63.34016" lon="9.42419">
        <ele>197.807437</ele>
        <time>2020-08-05T11:55:57.377Z</time>
      </trkpt>
      <trkpt lat="63.34006" lon="9.42425">
        <ele>198.689679</ele>
        <time>2020-08-05T11:56:03.371Z</time>
      </trkpt>
      <trkpt lat="63.33997" lon="9.42432">
        <ele>199.542547</ele>
        <time>2020-08-05T11:56:09.330Z</time>
      </trkpt>
      <trkpt lat="63.33988" lon="9.42439">
        <ele>200.33449</ele>
        <time>2020-08-05T11:56:15.329Z</time>
      </trkpt>
      <trkpt lat="63.33979" lon="9.42443">
        <ele>201.118324</ele>
        <time>2020-08-05T11:56:21.366Z</time>
      </trkpt>
      <trkpt lat="63.33969" lon="9.42447">
        <ele>201.986614</ele>
        <time>2020-08-05T11:56:27.345Z</time>
      </trkpt>
      <trkpt lat="63.33959" lon="9.42448">
        <ele>202.922856</ele>
        <time>2020-08-05T11:56:33.358Z</time>
      </trkpt>
      <trkpt lat="63.33949" lon="9.42449">
        <ele>203.753683</ele>
        <time>2020-08-05T11:56:39.375Z</time>
      </trkpt>
      <trkpt lat="63.33939" lon="9.42454">
        <ele>204.609918</ele>
        <time>2020-08-05T11:56:45.377Z</time>
      </trkpt>
      <trkpt lat="63.3393" lon="9.42456">
        <ele>205.456466</ele>
        <time>2020-08-05T11:56:51.382Z</time>
      </trkpt>
      <trkpt lat="63.3392" lon="9.42461">
        <ele>206.316782</ele>
        <time>2020-08-05T11:56:57.341Z</time>
      </trkpt>
      <trkpt lat="63.33911" lon="9.42465">
        <ele>207.102115</ele>
        <time>2020-08-05T11:57:03.381Z</time>
      </trkpt>
      <trkpt lat="63.33901" lon="9.42468">
        <ele>207.947194</ele>
        <time>2020-08-05T11:57:09.354Z</time>
      </trkpt>
      <trkpt lat="63.33892" lon="9.42474">
        <ele>208.759763</ele>
        <time>2020-08-05T11:57:15.341Z</time>
      </trkpt>
      <trkpt lat="63.33883" lon="9.42481">
        <ele>209.63817</ele>
        <time>2020-08-05T11:57:21.337Z</time>
      </trkpt>
      <trkpt lat="63.33874" lon="9.42489">
        <ele>210.450774</ele>
        <time>2020-08-05T11:57:27.371Z</time>
      </trkpt>
      <trkpt lat="63.33866" lon="9.42499">
        <ele>211.253621</ele>
        <time>2020-08-05T11:57:33.371Z</time>
      </trkpt>
      <trkpt lat="63.33856" lon="9.42507">
        <ele>211.684437</ele>
        <time>2020-08-05T11:57:39.353Z</time>
      </trkpt>
      <trkpt lat="63.33847" lon="9.42516">
        <ele>212.03461</ele>
        <time>2020-08-05T11:57:45.334Z</time>
      </trkpt>
      <trkpt lat="63.33838" lon="9.42527">
        <ele>212.399911</ele>
        <time>2020-08-05T11:57:52.341Z</time>
      </trkpt>
      <trkpt lat="63.33829" lon="9.4254">
        <ele>212.770969</ele>
        <time>2020-08-05T11:57:58.322Z</time>
      </trkpt>
      <trkpt lat="63.3382" lon="9.4255">
        <ele>213.127775</ele>
        <time>2020-08-05T11:58:04.378Z</time>
      </trkpt>
      <trkpt lat="63.33811" lon="9.42562">
        <ele>213.496343</ele>
        <time>2020-08-05T11:58:10.357Z</time>
      </trkpt>
      <trkpt lat="63.33802" lon="9.42572">
        <ele>213.85628</ele>
        <time>2020-08-05T11:58:16.355Z</time>
      </trkpt>
      <trkpt lat="63.33794" lon="9.42583">
        <ele>214.180349</ele>
        <time>2020-08-05T11:58:21.371Z</time>
      </trkpt>
      <trkpt lat="63.33786" lon="9.42595">
        <ele>214.527934</ele>
        <time>2020-08-05T11:58:27.336Z</time>
      </trkpt>
      <trkpt lat="63.33776" lon="9.42605">
        <ele>214.91117</ele>
        <time>2020-08-05T11:58:32.337Z</time>
      </trkpt>
      <trkpt lat="63.33768" lon="9.42615">
        <ele>215.243908</ele>
        <time>2020-08-05T11:58:37.345Z</time>
      </trkpt>
      <trkpt lat="63.3376" lon="9.42627">
        <ele>215.590198</ele>
        <time>2020-08-05T11:58:43.315Z</time>
      </trkpt>
      <trkpt lat="63.33751" lon="9.42637">
        <ele>215.93223</ele>
        <time>2020-08-05T11:58:49.317Z</time>
      </trkpt>
      <trkpt lat="63.33743" lon="9.42648">
        <ele>216.275206</ele>
        <time>2020-08-05T11:58:55.340Z</time>
      </trkpt>
      <trkpt lat="63.33734" lon="9.42659">
        <ele>216.648479</ele>
        <time>2020-08-05T11:59:01.366Z</time>
      </trkpt>
      <trkpt lat="63.33725" lon="9.42667">
        <ele>216.979913</ele>
        <time>2020-08-05T11:59:06.347Z</time>
      </trkpt>
      <trkpt lat="63.33716" lon="9.42674">
        <ele>217.312616</ele>
        <time>2020-08-05T11:59:11.356Z</time>
      </trkpt>
      <trkpt lat="63.33707" lon="9.42681">
        <ele>217.654236</ele>
        <time>2020-08-05T11:59:16.335Z</time>
      </trkpt>
      <trkpt lat="63.33697" lon="9.42688">
        <ele>217.812644</ele>
        <time>2020-08-05T11:59:21.338Z</time>
      </trkpt>
      <trkpt lat="63.33688" lon="9.42693">
        <ele>217.917348</ele>
        <time>2020-08-05T11:59:26.333Z</time>
      </trkpt>
      <trkpt lat="63.33678" lon="9.42697">
        <ele>218.029606</ele>
        <time>2020-08-05T11:59:31.323Z</time>
      </trkpt>
      <trkpt lat="63.33669" lon="9.427">
        <ele>218.130974</ele>
        <time>2020-08-05T11:59:35.335Z</time>
      </trkpt>
      <trkpt lat="63.3366" lon="9.42703">
        <ele>218.233201</ele>
        <time>2020-08-05T11:59:39.387Z</time>
      </trkpt>
      <trkpt lat="63.3365" lon="9.42704">
        <ele>218.335408</ele>
        <time>2020-08-05T11:59:43.344Z</time>
      </trkpt>
      <trkpt lat="63.33641" lon="9.42703">
        <ele>218.438802</ele>
        <time>2020-08-05T11:59:47.351Z</time>
      </trkpt>
      <trkpt lat="63.33632" lon="9.42701">
        <ele>218.542509</ele>
        <time>2020-08-05T11:59:51.334Z</time>
      </trkpt>
      <trkpt lat="63.33622" lon="9.42697">
        <ele>218.65542</ele>
        <time>2020-08-05T11:59:55.397Z</time>
      </trkpt>
      <trkpt lat="63.33612" lon="9.4269">
        <ele>218.774086</ele>
        <time>2020-08-05T11:59:59.347Z</time>
      </trkpt>
      <trkpt lat="63.33601" lon="9.42682">
        <ele>218.891843</ele>
        <time>2020-08-05T12:00:03.356Z</time>
      </trkpt>
      <trkpt lat="63.33592" lon="9.42675">
        <ele>219.006123</ele>
        <time>2020-08-05T12:00:07.358Z</time>
      </trkpt>
      <trkpt lat="63.33583" lon="9.42671">
        <ele>219.109634</ele>
        <time>2020-08-05T12:00:10.332Z</time>
      </trkpt>
      <trkpt lat="63.33574" lon="9.42666">
        <ele>219.210978</ele>
        <time>2020-08-05T12:00:13.325Z</time>
      </trkpt>
      <trkpt lat="63.33563" lon="9.42662">
        <ele>219.335355</ele>
        <time>2020-08-05T12:00:17.367Z</time>
      </trkpt>
      <trkpt lat="63.33553" lon="9.4266">
        <ele>219.4477</ele>
        <time>2020-08-05T12:00:21.383Z</time>
      </trkpt>
      <trkpt lat="63.33543" lon="9.42664">
        <ele>219.559091</ele>
        <time>2020-08-05T12:00:25.327Z</time>
      </trkpt>
      <trkpt lat="63.33531" lon="9.42669">
        <ele>219.689109</ele>
        <time>2020-08-05T12:00:29.324Z</time>
      </trkpt>
      <trkpt lat="63.33522" lon="9.42678">
        <ele>219.857372</ele>
        <time>2020-08-05T12:00:32.328Z</time>
      </trkpt>
      <trkpt lat="63.33513" lon="9.42684">
        <ele>220.029397</ele>
        <time>2020-08-05T12:00:35.319Z</time>
      </trkpt>
      <trkpt lat="63.33503" lon="9.42696">
        <ele>220.251133</ele>
        <time>2020-08-05T12:00:39.322Z</time>
      </trkpt>
      <trkpt lat="63.33492" lon="9.42709">
        <ele>220.463471</ele>
        <time>2020-08-05T12:00:43.342Z</time>
      </trkpt>
      <trkpt lat="63.33483" lon="9.42722">
        <ele>220.672229</ele>
        <time>2020-08-05T12:00:47.333Z</time>
      </trkpt>
      <trkpt lat="63.33473" lon="9.42737">
        <ele>220.891433</ele>
        <time>2020-08-05T12:00:51.326Z</time>
      </trkpt>
      <trkpt lat="63.33465" lon="9.42748">
        <ele>221.058454</ele>
        <time>2020-08-05T12:00:54.399Z</time>
      </trkpt>
      <trkpt lat="63.33457" lon="9.42757">
        <ele>221.226555</ele>
        <time>2020-08-05T12:00:57.342Z</time>
      </trkpt>
      <trkpt lat="63.33447" lon="9.4277">
        <ele>221.441733</ele>
        <time>2020-08-05T12:01:01.353Z</time>
      </trkpt>
      <trkpt lat="63.33438" lon="9.4278">
        <ele>221.62581</ele>
        <time>2020-08-05T12:01:04.362Z</time>
      </trkpt>
      <trkpt lat="63.33429" lon="9.4279">
        <ele>221.819288</ele>
        <time>2020-08-05T12:01:07.338Z</time>
      </trkpt>
      <trkpt lat="63.33417" lon="9.42799">
        <ele>222.041232</ele>
        <time>2020-08-05T12:01:10.346Z</time>
      </trkpt>
      <trkpt lat="63.33405" lon="9.42809">
        <ele>222.278765</ele>
        <time>2020-08-05T12:01:13.376Z</time>
      </trkpt>
      <trkpt lat="63.33394" lon="9.4282">
        <ele>222.51581</ele>
        <time>2020-08-05T12:01:16.394Z</time>
      </trkpt>
      <trkpt lat="63.33382" lon="9.4283">
        <ele>222.737489</ele>
        <time>2020-08-05T12:01:19.346Z</time>
      </trkpt>
      <trkpt lat="63.33371" lon="9.42842">
        <ele>222.972107</ele>
        <time>2020-08-05T12:01:22.325Z</time>
      </trkpt>
      <trkpt lat="63.33359" lon="9.42853">
        <ele>223.443912</ele>
        <time>2020-08-05T12:01:25.340Z</time>
      </trkpt>
      <trkpt lat="63.3335" lon="9.42863">
        <ele>223.917154</ele>
        <time>2020-08-05T12:01:28.366Z</time>
      </trkpt>
      <trkpt lat="63.33342" lon="9.42873">
        <ele>224.331947</ele>
        <time>2020-08-05T12:01:31.341Z</time>
      </trkpt>
      <trkpt lat="63.33333" lon="9.42884">
        <ele>224.787924</ele>
        <time>2020-08-05T12:01:34.364Z</time>
      </trkpt>
      <trkpt lat="63.33323" lon="9.42897">
        <ele>225.305718</ele>
        <time>2020-08-05T12:01:37.376Z</time>
      </trkpt>
      <trkpt lat="63.33313" lon="9.4291">
        <ele>225.811806</ele>
        <time>2020-08-05T12:01:40.353Z</time>
      </trkpt>
      <trkpt lat="63.33303" lon="9.42923">
        <ele>226.303781</ele>
        <time>2020-08-05T12:01:43.326Z</time>
      </trkpt>
      <trkpt lat="63.33294" lon="9.42937">
        <ele>226.782653</ele>
        <time>2020-08-05T12:01:46.345Z</time>
      </trkpt>
      <trkpt lat="63.33286" lon="9.4295">
        <ele>227.242395</ele>
        <time>2020-08-05T12:01:49.358Z</time>
      </trkpt>
      <trkpt lat="63.33278" lon="9.42962">
        <ele>227.679277</ele>
        <time>2020-08-05T12:01:52.358Z</time>
      </trkpt>
      <trkpt lat="63.33268" lon="9.42977">
        <ele>228.195937</ele>
        <time>2020-08-05T12:01:56.372Z</time>
      </trkpt>
      <trkpt lat="63.33259" lon="9.42993">
        <ele>228.713805</ele>
        <time>2020-08-05T12:02:00.368Z</time>
      </trkpt>
      <trkpt lat="63.3325" lon="9.43009">
        <ele>229.214369</ele>
        <time>2020-08-05T12:02:04.383Z</time>
      </trkpt>
      <trkpt lat="63.33242" lon="9.43024">
        <ele>229.687334</ele>
        <time>2020-08-05T12:02:08.376Z</time>
      </trkpt>
      <trkpt lat="63.33234" lon="9.43038">
        <ele>230.137732</ele>
        <time>2020-08-05T12:02:12.343Z</time>
      </trkpt>
      <trkpt lat="63.33227" lon="9.43051">
        <ele>230.565562</ele>
        <time>2020-08-05T12:02:16.350Z</time>
      </trkpt>
      <trkpt lat="63.3322" lon="9.43066">
        <ele>230.975455</ele>
        <time>2020-08-05T12:02:20.340Z</time>
      </trkpt>
      <trkpt lat="63.33213" lon="9.43081">
        <ele>231.032247</ele>
        <time>2020-08-05T12:02:24.318Z</time>
      </trkpt>
      <trkpt lat="63.33203" lon="9.43096">
        <ele>231.063074</ele>
        <time>2020-08-05T12:02:28.348Z</time>
      </trkpt>
      <trkpt lat="63.33196" lon="9.43106">
        <ele>231.087515</ele>
        <time>2020-08-05T12:02:31.353Z</time>
      </trkpt>
      <trkpt lat="63.33185" lon="9.43117">
        <ele>231.119358</ele>
        <time>2020-08-05T12:02:35.334Z</time>
      </trkpt>
      <trkpt lat="63.33175" lon="9.43126">
        <ele>231.146801</ele>
        <time>2020-08-05T12:02:38.374Z</time>
      </trkpt>
      <trkpt lat="63.33165" lon="9.43135">
        <ele>231.17422</ele>
        <time>2020-08-05T12:02:41.335Z</time>
      </trkpt>
      <trkpt lat="63.33154" lon="9.43144">
        <ele>231.204915</ele>
        <time>2020-08-05T12:02:44.341Z</time>
      </trkpt>
      <trkpt lat="63.33144" lon="9.4315">
        <ele>231.233112</ele>
        <time>2020-08-05T12:02:47.324Z</time>
      </trkpt>
      <trkpt lat="63.33133" lon="9.43157">
        <ele>231.262582</ele>
        <time>2020-08-05T12:02:50.334Z</time>
      </trkpt>
      <trkpt lat="63.33122" lon="9.43164">
        <ele>231.294247</ele>
        <time>2020-08-05T12:02:53.325Z</time>
      </trkpt>
      <trkpt lat="63.33111" lon="9.43172">
        <ele>231.32336</ele>
        <time>2020-08-05T12:02:56.343Z</time>
      </trkpt>
      <trkpt lat="63.331" lon="9.43181">
        <ele>231.353892</ele>
        <time>2020-08-05T12:02:59.336Z</time>
      </trkpt>
      <trkpt lat="63.3309" lon="9.4319">
        <ele>231.384298</ele>
        <time>2020-08-05T12:03:02.379Z</time>
      </trkpt>
      <trkpt lat="63.33078" lon="9.43199">
        <ele>231.416105</ele>
        <time>2020-08-05T12:03:05.340Z</time>
      </trkpt>
      <trkpt lat="63.33068" lon="9.43208">
        <ele>231.44619</ele>
        <time>2020-08-05T12:03:08.322Z</time>
      </trkpt>
      <trkpt lat="63.33056" lon="9.43217">
        <ele>231.478067</ele>
        <time>2020-08-05T12:03:11.332Z</time>
      </trkpt>
      <trkpt lat="63.33045" lon="9.43226">
        <ele>231.627747</ele>
        <time>2020-08-05T12:03:14.322Z</time>
      </trkpt>
      <trkpt lat="63.33035" lon="9.43233">
        <ele>231.786583</ele>
        <time>2020-08-05T12:03:17.319Z</time>
      </trkpt>
      <trkpt lat="63.33025" lon="9.43241">
        <ele>231.943786</ele>
        <time>2020-08-05T12:03:20.365Z</time>
      </trkpt>
      <trkpt lat="63.33015" lon="9.43248">
        <ele>232.097026</ele>
        <time>2020-08-05T12:03:23.338Z</time>
      </trkpt>
      <trkpt lat="63.33004" lon="9.43254">
        <ele>232.266308</ele>
        <time>2020-08-05T12:03:26.332Z</time>
      </trkpt>
      <trkpt lat="63.32993" lon="9.4326">
        <ele>232.430691</ele>
        <time>2020-08-05T12:03:29.332Z</time>
      </trkpt>
      <trkpt lat="63.32981" lon="9.43267">
        <ele>232.608512</ele>
        <time>2020-08-05T12:03:32.331Z</time>
      </trkpt>
      <trkpt lat="63.3297" lon="9.43269">
        <ele>232.772146</ele>
        <time>2020-08-05T12:03:35.343Z</time>
      </trkpt>
      <trkpt lat="63.32958" lon="9.43275">
        <ele>232.94351</ele>
        <time>2020-08-05T12:03:38.366Z</time>
      </trkpt>
      <trkpt lat="63.32947" lon="9.43281">
        <ele>233.118745</ele>
        <time>2020-08-05T12:03:41.360Z</time>
      </trkpt>
      <trkpt lat="63.32935" lon="9.43285">
        <ele>233.296559</ele>
        <time>2020-08-05T12:03:44.325Z</time>
      </trkpt>
      <trkpt lat="63.32923" lon="9.43285">
        <ele>233.46517</ele>
        <time>2020-08-05T12:03:47.337Z</time>
      </trkpt>
      <trkpt lat="63.32911" lon="9.43286">
        <ele>233.648471</ele>
        <time>2020-08-05T12:03:50.360Z</time>
      </trkpt>
      <trkpt lat="63.32899" lon="9.43287">
        <ele>233.820012</ele>
        <time>2020-08-05T12:03:53.331Z</time>
      </trkpt>
      <trkpt lat="63.32887" lon="9.43289">
        <ele>233.997645</ele>
        <time>2020-08-05T12:03:56.334Z</time>
      </trkpt>
      <trkpt lat="63.32875" lon="9.43291">
        <ele>234.002928</ele>
        <time>2020-08-05T12:03:59.345Z</time>
      </trkpt>
      <trkpt lat="63.32863" lon="9.43294">
        <ele>233.578</ele>
        <time>2020-08-05T12:04:02.370Z</time>
      </trkpt>
      <trkpt lat="63.32851" lon="9.43299">
        <ele>233.148175</ele>
        <time>2020-08-05T12:04:05.391Z</time>
      </trkpt>
      <trkpt lat="63.32838" lon="9.43304">
        <ele>232.700897</ele>
        <time>2020-08-05T12:04:08.334Z</time>
      </trkpt>
      <trkpt lat="63.32829" lon="9.43309">
        <ele>232.37258</ele>
        <time>2020-08-05T12:04:10.318Z</time>
      </trkpt>
      <trkpt lat="63.32816" lon="9.43317">
        <ele>231.939829</ele>
        <time>2020-08-05T12:04:13.320Z</time>
      </trkpt>
      <trkpt lat="63.32807" lon="9.43322">
        <ele>231.59337</ele>
        <time>2020-08-05T12:04:16.362Z</time>
      </trkpt>
      <trkpt lat="63.32797" lon="9.43328">
        <ele>231.253583</ele>
        <time>2020-08-05T12:04:19.335Z</time>
      </trkpt>
      <trkpt lat="63.32787" lon="9.43335">
        <ele>230.893471</ele>
        <time>2020-08-05T12:04:22.337Z</time>
      </trkpt>
      <trkpt lat="63.32776" lon="9.43344">
        <ele>230.496234</ele>
        <time>2020-08-05T12:04:25.374Z</time>
      </trkpt>
      <trkpt lat="63.32765" lon="9.43354">
        <ele>230.084308</ele>
        <time>2020-08-05T12:04:28.327Z</time>
      </trkpt>
      <trkpt lat="63.32755" lon="9.43365">
        <ele>229.696318</ele>
        <time>2020-08-05T12:04:31.350Z</time>
      </trkpt>
      <trkpt lat="63.32745" lon="9.43377">
        <ele>229.307631</ele>
        <time>2020-08-05T12:04:34.348Z</time>
      </trkpt>
      <trkpt lat="63.32736" lon="9.43392">
        <ele>228.911127</ele>
        <time>2020-08-05T12:04:37.366Z</time>
      </trkpt>
      <trkpt lat="63.32727" lon="9.43407">
        <ele>228.529513</ele>
        <time>2020-08-05T12:04:40.324Z</time>
      </trkpt>
      <trkpt lat="63.3272" lon="9.43423">
        <ele>228.180513</ele>
        <time>2020-08-05T12:04:43.338Z</time>
      </trkpt>
      <trkpt lat="63.32714" lon="9.43438">
        <ele>228.073338</ele>
        <time>2020-08-05T12:04:46.355Z</time>
      </trkpt>
      <trkpt lat="63.32705" lon="9.43456">
        <ele>228.801967</ele>
        <time>2020-08-05T12:04:50.404Z</time>
      </trkpt>
      <trkpt lat="63.32697" lon="9.43474">
        <ele>229.513339</ele>
        <time>2020-08-05T12:04:54.386Z</time>
      </trkpt>
      <trkpt lat="63.3269" lon="9.43489">
        <ele>230.133918</ele>
        <time>2020-08-05T12:04:58.370Z</time>
      </trkpt>
      <trkpt lat="63.32682" lon="9.43501">
        <ele>230.728303</ele>
        <time>2020-08-05T12:05:03.340Z</time>
      </trkpt>
      <trkpt lat="63.32673" lon="9.43513">
        <ele>231.35978</ele>
        <time>2020-08-05T12:05:08.341Z</time>
      </trkpt>
      <trkpt lat="63.32665" lon="9.43523">
        <ele>231.940524</ele>
        <time>2020-08-05T12:05:13.315Z</time>
      </trkpt>
      <trkpt lat="63.32655" lon="9.4353">
        <ele>232.606628</ele>
        <time>2020-08-05T12:05:19.394Z</time>
      </trkpt>
      <trkpt lat="63.32645" lon="9.43534">
        <ele>233.225387</ele>
        <time>2020-08-05T12:05:25.351Z</time>
      </trkpt>
      <trkpt lat="63.32635" lon="9.43538">
        <ele>233.86622</ele>
        <time>2020-08-05T12:05:31.322Z</time>
      </trkpt>
      <trkpt lat="63.32625" lon="9.43539">
        <ele>234.486667</ele>
        <time>2020-08-05T12:05:37.369Z</time>
      </trkpt>
      <trkpt lat="63.32615" lon="9.43542">
        <ele>235.166279</ele>
        <time>2020-08-05T12:05:43.344Z</time>
      </trkpt>
      <trkpt lat="63.32606" lon="9.43542">
        <ele>235.729687</ele>
        <time>2020-08-05T12:05:48.349Z</time>
      </trkpt>
      <trkpt lat="63.32595" lon="9.43543">
        <ele>236.386651</ele>
        <time>2020-08-05T12:05:54.343Z</time>
      </trkpt>
      <trkpt lat="63.32586" lon="9.43539">
        <ele>236.947452</ele>
        <time>2020-08-05T12:06:00.330Z</time>
      </trkpt>
      <trkpt lat="63.32577" lon="9.43537">
        <ele>237.519013</ele>
        <time>2020-08-05T12:06:06.342Z</time>
      </trkpt>
      <trkpt lat="63.32568" lon="9.43533">
        <ele>238.130032</ele>
        <time>2020-08-05T12:06:12.331Z</time>
      </trkpt>
      <trkpt lat="63.32558" lon="9.43532">
        <ele>238.731167</ele>
        <time>2020-08-05T12:06:19.349Z</time>
      </trkpt>
      <trkpt lat="63.32548" lon="9.4353">
        <ele>239.150977</ele>
        <time>2020-08-05T12:06:25.339Z</time>
      </trkpt>
      <trkpt lat="63.32539" lon="9.43528">
        <ele>239.01004</ele>
        <time>2020-08-05T12:06:30.343Z</time>
      </trkpt>
      <trkpt lat="63.3253" lon="9.43527">
        <ele>238.871055</ele>
        <time>2020-08-05T12:06:35.355Z</time>
      </trkpt>
      <trkpt lat="63.32521" lon="9.43526">
        <ele>238.729995</ele>
        <time>2020-08-05T12:06:40.331Z</time>
      </trkpt>
      <trkpt lat="63.32511" lon="9.43523">
        <ele>238.582189</ele>
        <time>2020-08-05T12:06:45.355Z</time>
      </trkpt>
      <trkpt lat="63.32501" lon="9.43523">
        <ele>238.426312</ele>
        <time>2020-08-05T12:06:50.334Z</time>
      </trkpt>
      <trkpt lat="63.32492" lon="9.43522">
        <ele>238.285825</ele>
        <time>2020-08-05T12:06:55.338Z</time>
      </trkpt>
      <trkpt lat="63.32483" lon="9.43527">
        <ele>238.145274</ele>
        <time>2020-08-05T12:07:00.351Z</time>
      </trkpt>
      <trkpt lat="63.32474" lon="9.43528">
        <ele>238.003043</ele>
        <time>2020-08-05T12:07:05.343Z</time>
      </trkpt>
      <trkpt lat="63.32465" lon="9.4353">
        <ele>237.858387</ele>
        <time>2020-08-05T12:07:11.341Z</time>
      </trkpt>
      <trkpt lat="63.32452" lon="9.43519">
        <ele>237.640304</ele>
        <time>2020-08-05T12:10:28.348Z</time>
      </trkpt>
      <trkpt lat="63.32441" lon="9.43517">
        <ele>237.471874</ele>
        <time>2020-08-05T12:10:33.333Z</time>
      </trkpt>
      <trkpt lat="63.3243" lon="9.43516">
        <ele>237.311074</ele>
        <time>2020-08-05T12:10:38.350Z</time>
      </trkpt>
      <trkpt lat="63.32421" lon="9.43515">
        <ele>237.164293</ele>
        <time>2020-08-05T12:10:42.328Z</time>
      </trkpt>
      <trkpt lat="63.32411" lon="9.43515">
        <ele>237.006872</ele>
        <time>2020-08-05T12:10:46.346Z</time>
      </trkpt>
      <trkpt lat="63.32401" lon="9.43512">
        <ele>236.850853</ele>
        <time>2020-08-05T12:10:50.332Z</time>
      </trkpt>
      <trkpt lat="63.3239" lon="9.4351">
        <ele>236.68194</ele>
        <time>2020-08-05T12:10:54.378Z</time>
      </trkpt>
      <trkpt lat="63.32378" lon="9.43507">
        <ele>236.502205</ele>
        <time>2020-08-05T12:10:58.366Z</time>
      </trkpt>
      <trkpt lat="63.32369" lon="9.43506">
        <ele>236.443375</ele>
        <time>2020-08-05T12:11:01.364Z</time>
      </trkpt>
      <trkpt lat="63.32359" lon="9.43504">
        <ele>236.506084</ele>
        <time>2020-08-05T12:11:04.350Z</time>
      </trkpt>
      <trkpt lat="63.3235" lon="9.43502">
        <ele>236.569498</ele>
        <time>2020-08-05T12:11:07.335Z</time>
      </trkpt>
      <trkpt lat="63.32341" lon="9.43501">
        <ele>236.630602</ele>
        <time>2020-08-05T12:11:10.328Z</time>
      </trkpt>
      <trkpt lat="63.32329" lon="9.43499">
        <ele>236.710908</ele>
        <time>2020-08-05T12:11:14.338Z</time>
      </trkpt>
      <trkpt lat="63.32317" lon="9.43497">
        <ele>236.791866</ele>
        <time>2020-08-05T12:11:18.339Z</time>
      </trkpt>
      <trkpt lat="63.32306" lon="9.43495">
        <ele>236.870772</ele>
        <time>2020-08-05T12:11:22.333Z</time>
      </trkpt>
      <trkpt lat="63.32294" lon="9.43492">
        <ele>236.950453</ele>
        <time>2020-08-05T12:11:26.392Z</time>
      </trkpt>
      <trkpt lat="63.32285" lon="9.43492">
        <ele>237.014281</ele>
        <time>2020-08-05T12:11:29.343Z</time>
      </trkpt>
      <trkpt lat="63.32276" lon="9.4349">
        <ele>237.0768</ele>
        <time>2020-08-05T12:11:32.340Z</time>
      </trkpt>
      <trkpt lat="63.32266" lon="9.43489">
        <ele>237.138777</ele>
        <time>2020-08-05T12:11:35.362Z</time>
      </trkpt>
      <trkpt lat="63.32257" lon="9.43487">
        <ele>237.200004</ele>
        <time>2020-08-05T12:11:38.333Z</time>
      </trkpt>
      <trkpt lat="63.32246" lon="9.43485">
        <ele>237.278868</ele>
        <time>2020-08-05T12:11:42.378Z</time>
      </trkpt>
      <trkpt lat="63.32234" lon="9.43483">
        <ele>237.357284</ele>
        <time>2020-08-05T12:11:46.373Z</time>
      </trkpt>
      <trkpt lat="63.32223" lon="9.43482">
        <ele>237.43674</ele>
        <time>2020-08-05T12:11:50.348Z</time>
      </trkpt>
      <trkpt lat="63.32211" lon="9.43479">
        <ele>237.515097</ele>
        <time>2020-08-05T12:11:54.361Z</time>
      </trkpt>
      <trkpt lat="63.32202" lon="9.43478">
        <ele>237.576939</ele>
        <time>2020-08-05T12:11:57.335Z</time>
      </trkpt>
      <trkpt lat="63.32191" lon="9.43476">
        <ele>237.721674</ele>
        <time>2020-08-05T12:12:01.337Z</time>
      </trkpt>
      <trkpt lat="63.3218" lon="9.43474">
        <ele>238.136553</ele>
        <time>2020-08-05T12:12:05.338Z</time>
      </trkpt>
      <trkpt lat="63.32169" lon="9.43472">
        <ele>238.525997</ele>
        <time>2020-08-05T12:12:09.343Z</time>
      </trkpt>
      <trkpt lat="63.32157" lon="9.43471">
        <ele>238.94673</ele>
        <time>2020-08-05T12:12:13.356Z</time>
      </trkpt>
      <trkpt lat="63.32146" lon="9.43469">
        <ele>239.358588</ele>
        <time>2020-08-05T12:12:17.392Z</time>
      </trkpt>
      <trkpt lat="63.32135" lon="9.43467">
        <ele>239.755397</ele>
        <time>2020-08-05T12:12:21.394Z</time>
      </trkpt>
      <trkpt lat="63.32124" lon="9.43464">
        <ele>240.160037</ele>
        <time>2020-08-05T12:12:25.353Z</time>
      </trkpt>
      <trkpt lat="63.32112" lon="9.43462">
        <ele>240.578667</ele>
        <time>2020-08-05T12:12:29.327Z</time>
      </trkpt>
      <trkpt lat="63.32101" lon="9.4346">
        <ele>240.989799</ele>
        <time>2020-08-05T12:12:33.331Z</time>
      </trkpt>
      <trkpt lat="63.3209" lon="9.43459">
        <ele>241.396652</ele>
        <time>2020-08-05T12:12:37.329Z</time>
      </trkpt>
      <trkpt lat="63.32079" lon="9.43456">
        <ele>241.805066</ele>
        <time>2020-08-05T12:12:41.335Z</time>
      </trkpt>
      <trkpt lat="63.32068" lon="9.43454">
        <ele>242.20249</ele>
        <time>2020-08-05T12:12:45.322Z</time>
      </trkpt>
      <trkpt lat="63.32057" lon="9.43452">
        <ele>242.594957</ele>
        <time>2020-08-05T12:12:49.347Z</time>
      </trkpt>
      <trkpt lat="63.32047" lon="9.4345">
        <ele>242.955351</ele>
        <time>2020-08-05T12:12:53.352Z</time>
      </trkpt>
      <trkpt lat="63.32036" lon="9.43449">
        <ele>243.34772</ele>
        <time>2020-08-05T12:12:57.363Z</time>
      </trkpt>
      <trkpt lat="63.32026" lon="9.43447">
        <ele>243.737603</ele>
        <time>2020-08-05T12:13:01.362Z</time>
      </trkpt>
      <trkpt lat="63.32015" lon="9.43446">
        <ele>244.1259</ele>
        <time>2020-08-05T12:13:05.332Z</time>
      </trkpt>
      <trkpt lat="63.32004" lon="9.43443">
        <ele>244.617231</ele>
        <time>2020-08-05T12:13:09.332Z</time>
      </trkpt>
      <trkpt lat="63.31993" lon="9.4344">
        <ele>245.11609</ele>
        <time>2020-08-05T12:13:13.364Z</time>
      </trkpt>
      <trkpt lat="63.31981" lon="9.43437">
        <ele>245.640514</ele>
        <time>2020-08-05T12:13:17.344Z</time>
      </trkpt>
      <trkpt lat="63.31969" lon="9.43436">
        <ele>246.150563</ele>
        <time>2020-08-05T12:13:21.341Z</time>
      </trkpt>
      <trkpt lat="63.31958" lon="9.43432">
        <ele>246.658923</ele>
        <time>2020-08-05T12:13:25.381Z</time>
      </trkpt>
      <trkpt lat="63.31947" lon="9.43429">
        <ele>247.163681</ele>
        <time>2020-08-05T12:13:29.377Z</time>
      </trkpt>
      <trkpt lat="63.31935" lon="9.43425">
        <ele>247.665222</ele>
        <time>2020-08-05T12:13:33.322Z</time>
      </trkpt>
      <trkpt lat="63.31924" lon="9.43423">
        <ele>248.154225</ele>
        <time>2020-08-05T12:13:37.358Z</time>
      </trkpt>
      <trkpt lat="63.31914" lon="9.43419">
        <ele>248.623661</ele>
        <time>2020-08-05T12:13:41.342Z</time>
      </trkpt>
      <trkpt lat="63.31904" lon="9.43414">
        <ele>249.079863</ele>
        <time>2020-08-05T12:13:45.353Z</time>
      </trkpt>
      <trkpt lat="63.31893" lon="9.43409">
        <ele>249.547853</ele>
        <time>2020-08-05T12:13:49.359Z</time>
      </trkpt>
      <trkpt lat="63.31883" lon="9.43406">
        <ele>250.005078</ele>
        <time>2020-08-05T12:13:53.358Z</time>
      </trkpt>
      <trkpt lat="63.31874" lon="9.43401">
        <ele>250.443047</ele>
        <time>2020-08-05T12:13:57.340Z</time>
      </trkpt>
      <trkpt lat="63.31864" lon="9.43397">
        <ele>250.892209</ele>
        <time>2020-08-05T12:14:01.390Z</time>
      </trkpt>
      <trkpt lat="63.31853" lon="9.43392">
        <ele>251.362521</ele>
        <time>2020-08-05T12:14:05.353Z</time>
      </trkpt>
      <trkpt lat="63.31842" lon="9.43388">
        <ele>251.847238</ele>
        <time>2020-08-05T12:14:09.325Z</time>
      </trkpt>
      <trkpt lat="63.31832" lon="9.43384">
        <ele>252.126201</ele>
        <time>2020-08-05T12:14:13.375Z</time>
      </trkpt>
      <trkpt lat="63.31822" lon="9.43378">
        <ele>252.144539</ele>
        <time>2020-08-05T12:14:17.357Z</time>
      </trkpt>
      <trkpt lat="63.31812" lon="9.43373">
        <ele>252.162815</ele>
        <time>2020-08-05T12:14:21.338Z</time>
      </trkpt>
      <trkpt lat="63.31802" lon="9.43367">
        <ele>252.182313</ele>
        <time>2020-08-05T12:14:25.379Z</time>
      </trkpt>
      <trkpt lat="63.31792" lon="9.43362">
        <ele>252.200651</ele>
        <time>2020-08-05T12:14:29.345Z</time>
      </trkpt>
      <trkpt lat="63.31782" lon="9.43358">
        <ele>252.219329</ele>
        <time>2020-08-05T12:14:33.322Z</time>
      </trkpt>
      <trkpt lat="63.31772" lon="9.43353">
        <ele>252.238951</ele>
        <time>2020-08-05T12:14:37.330Z</time>
      </trkpt>
      <trkpt lat="63.31762" lon="9.43349">
        <ele>252.257086</ele>
        <time>2020-08-05T12:14:41.342Z</time>
      </trkpt>
      <trkpt lat="63.31752" lon="9.43345">
        <ele>252.275997</ele>
        <time>2020-08-05T12:14:45.363Z</time>
      </trkpt>
      <trkpt lat="63.31742" lon="9.4334">
        <ele>252.294036</ele>
        <time>2020-08-05T12:14:49.340Z</time>
      </trkpt>
      <trkpt lat="63.31732" lon="9.43334">
        <ele>252.312469</ele>
        <time>2020-08-05T12:14:53.351Z</time>
      </trkpt>
      <trkpt lat="63.31722" lon="9.4333">
        <ele>252.331199</ele>
        <time>2020-08-05T12:14:57.322Z</time>
      </trkpt>
      <trkpt lat="63.31712" lon="9.43327">
        <ele>252.350983</ele>
        <time>2020-08-05T12:15:01.343Z</time>
      </trkpt>
      <trkpt lat="63.31701" lon="9.43321">
        <ele>252.370481</ele>
        <time>2020-08-05T12:15:05.343Z</time>
      </trkpt>
      <trkpt lat="63.31691" lon="9.43317">
        <ele>252.389585</ele>
        <time>2020-08-05T12:15:09.359Z</time>
      </trkpt>
      <trkpt lat="63.31681" lon="9.43312">
        <ele>252.408459</ele>
        <time>2020-08-05T12:15:13.355Z</time>
      </trkpt>
      <trkpt lat="63.31671" lon="9.43307">
        <ele>252.425908</ele>
        <time>2020-08-05T12:15:17.371Z</time>
      </trkpt>
      <trkpt lat="63.31662" lon="9.43302">
        <ele>252.444499</ele>
        <time>2020-08-05T12:15:21.333Z</time>
      </trkpt>
      <trkpt lat="63.31651" lon="9.43295">
        <ele>252.693893</ele>
        <time>2020-08-05T12:15:26.338Z</time>
      </trkpt>
      <trkpt lat="63.3164" lon="9.4329">
        <ele>252.96681</ele>
        <time>2020-08-05T12:15:31.342Z</time>
      </trkpt>
      <trkpt lat="63.3163" lon="9.43286">
        <ele>253.230818</ele>
        <time>2020-08-05T12:15:36.356Z</time>
      </trkpt>
      <trkpt lat="63.31621" lon="9.43285">
        <ele>253.456781</ele>
        <time>2020-08-05T12:15:40.339Z</time>
      </trkpt>
      <trkpt lat="63.31611" lon="9.43286">
        <ele>253.705041</ele>
        <time>2020-08-05T12:15:44.333Z</time>
      </trkpt>
      <trkpt lat="63.316" lon="9.43289">
        <ele>253.959538</ele>
        <time>2020-08-05T12:15:48.339Z</time>
      </trkpt>
      <trkpt lat="63.3159" lon="9.43294">
        <ele>254.213723</ele>
        <time>2020-08-05T12:15:52.332Z</time>
      </trkpt>
      <trkpt lat="63.31581" lon="9.43301">
        <ele>254.470011</ele>
        <time>2020-08-05T12:15:56.403Z</time>
      </trkpt>
      <trkpt lat="63.3157" lon="9.43309">
        <ele>254.738961</ele>
        <time>2020-08-05T12:16:00.334Z</time>
      </trkpt>
      <trkpt lat="63.3156" lon="9.43319">
        <ele>255.018805</ele>
        <time>2020-08-05T12:16:04.322Z</time>
      </trkpt>
      <trkpt lat="63.31551" lon="9.43332">
        <ele>255.292488</ele>
        <time>2020-08-05T12:16:08.365Z</time>
      </trkpt>
      <trkpt lat="63.31542" lon="9.43345">
        <ele>255.551359</ele>
        <time>2020-08-05T12:16:11.372Z</time>
      </trkpt>
      <trkpt lat="63.31534" lon="9.43358">
        <ele>255.807733</ele>
        <time>2020-08-05T12:16:14.349Z</time>
      </trkpt>
      <trkpt lat="63.31524" lon="9.43375">
        <ele>256.101406</ele>
        <time>2020-08-05T12:16:18.360Z</time>
      </trkpt>
      <trkpt lat="63.31517" lon="9.43387">
        <ele>256.329792</ele>
        <time>2020-08-05T12:16:21.352Z</time>
      </trkpt>
      <trkpt lat="63.31511" lon="9.43401">
        <ele>256.554649</ele>
        <time>2020-08-05T12:16:25.343Z</time>
      </trkpt>
      <trkpt lat="63.31504" lon="9.43415">
        <ele>256.784667</ele>
        <time>2020-08-05T12:16:30.332Z</time>
      </trkpt>
      <trkpt lat="63.31496" lon="9.43431">
        <ele>257.521732</ele>
        <time>2020-08-05T12:16:37.323Z</time>
      </trkpt>
      <trkpt lat="63.3149" lon="9.43446">
        <ele>258.544512</ele>
        <time>2020-08-05T12:16:42.350Z</time>
      </trkpt>
      <trkpt lat="63.31486" lon="9.43466">
        <ele>259.637833</ele>
        <time>2020-08-05T12:16:48.338Z</time>
      </trkpt>
      <trkpt lat="63.31482" lon="9.43486">
        <ele>260.759001</ele>
        <time>2020-08-05T12:16:55.337Z</time>
      </trkpt>
      <trkpt lat="63.31478" lon="9.43506">
        <ele>261.87071</ele>
        <time>2020-08-05T12:17:02.363Z</time>
      </trkpt>
      <trkpt lat="63.31474" lon="9.43527">
        <ele>262.996845</ele>
        <time>2020-08-05T12:17:09.339Z</time>
      </trkpt>
      <trkpt lat="63.3147" lon="9.43545">
        <ele>264.017227</ele>
        <time>2020-08-05T12:17:15.345Z</time>
      </trkpt>
      <trkpt lat="63.31466" lon="9.43563">
        <ele>265.033089</ele>
        <time>2020-08-05T12:17:22.320Z</time>
      </trkpt>
      <trkpt lat="63.31463" lon="9.43584">
        <ele>266.109284</ele>
        <time>2020-08-05T12:17:30.359Z</time>
      </trkpt>
      <trkpt lat="63.31459" lon="9.43605">
        <ele>267.240592</ele>
        <time>2020-08-05T12:17:39.353Z</time>
      </trkpt>
      <trkpt lat="63.31457" lon="9.43624">
        <ele>268.260115</ele>
        <time>2020-08-05T12:17:46.329Z</time>
      </trkpt>
      <trkpt lat="63.31453" lon="9.43643">
        <ele>269.330731</ele>
        <time>2020-08-05T12:17:54.371Z</time>
      </trkpt>
      <trkpt lat="63.31448" lon="9.43661">
        <ele>270.378045</ele>
        <time>2020-08-05T12:18:02.345Z</time>
      </trkpt>
      <trkpt lat="63.31443" lon="9.4368">
        <ele>271.477104</ele>
        <time>2020-08-05T12:18:11.376Z</time>
      </trkpt>
      <trkpt lat="63.31434" lon="9.43691">
        <ele>272.552538</ele>
        <time>2020-08-05T12:18:20.342Z</time>
      </trkpt>
      <trkpt lat="63.31427" lon="9.437">
        <ele>273.569046</ele>
        <time>2020-08-05T12:18:28.344Z</time>
      </trkpt>
      <trkpt lat="63.31418" lon="9.43709">
        <ele>274.597717</ele>
        <time>2020-08-05T12:18:35.336Z</time>
      </trkpt>
      <trkpt lat="63.3141" lon="9.43715">
        <ele>275.603878</ele>
        <time>2020-08-05T12:18:42.363Z</time>
      </trkpt>
      <trkpt lat="63.314" lon="9.43717">
        <ele>276.717294</ele>
        <time>2020-08-05T12:18:50.346Z</time>
      </trkpt>
      <trkpt lat="63.3139" lon="9.43718">
        <ele>277.837199</ele>
        <time>2020-08-05T12:18:57.339Z</time>
      </trkpt>
      <trkpt lat="63.3138" lon="9.43718">
        <ele>278.907794</ele>
        <time>2020-08-05T12:19:05.336Z</time>
      </trkpt>
      <trkpt lat="63.3137" lon="9.43712">
        <ele>280.061281</ele>
        <time>2020-08-05T12:19:12.337Z</time>
      </trkpt>
      <trkpt lat="63.31361" lon="9.43707">
        <ele>281.108818</ele>
        <time>2020-08-05T12:19:19.326Z</time>
      </trkpt>
      <trkpt lat="63.31352" lon="9.43698">
        <ele>282.180372</ele>
        <time>2020-08-05T12:19:27.350Z</time>
      </trkpt>
      <trkpt lat="63.31344" lon="9.43684">
        <ele>283.335575</ele>
        <time>2020-08-05T12:19:35.334Z</time>
      </trkpt>
      <trkpt lat="63.31337" lon="9.43671">
        <ele>284.356656</ele>
        <time>2020-08-05T12:19:42.334Z</time>
      </trkpt>
      <trkpt lat="63.31331" lon="9.43654">
        <ele>285.442388</ele>
        <time>2020-08-05T12:19:50.325Z</time>
      </trkpt>
      <trkpt lat="63.31328" lon="9.43635">
        <ele>286.474581</ele>
        <time>2020-08-05T12:19:58.332Z</time>
      </trkpt>
      <trkpt lat="63.31324" lon="9.43616">
        <ele>287.480705</ele>
        <time>2020-08-05T12:20:04.325Z</time>
      </trkpt>
      <trkpt lat="63.3132" lon="9.43596">
        <ele>288.609855</ele>
        <time>2020-08-05T12:20:12.361Z</time>
      </trkpt>
      <trkpt lat="63.31315" lon="9.43576">
        <ele>289.778441</ele>
        <time>2020-08-05T12:20:19.320Z</time>
      </trkpt>
      <trkpt lat="63.31311" lon="9.43555">
        <ele>290.871137</ele>
        <time>2020-08-05T12:20:25.359Z</time>
      </trkpt>
      <trkpt lat="63.31308" lon="9.43534">
        <ele>291.987615</ele>
        <time>2020-08-05T12:20:32.322Z</time>
      </trkpt>
      <trkpt lat="63.31306" lon="9.43515">
        <ele>293.009465</ele>
        <time>2020-08-05T12:20:39.326Z</time>
      </trkpt>
      <trkpt lat="63.31301" lon="9.43495">
        <ele>294.110544</ele>
        <time>2020-08-05T12:20:48.344Z</time>
      </trkpt>
      <trkpt lat="63.31298" lon="9.43475">
        <ele>295.154066</ele>
        <time>2020-08-05T12:20:57.352Z</time>
      </trkpt>
      <trkpt lat="63.31292" lon="9.43458">
        <ele>296.251273</ele>
        <time>2020-08-05T12:21:05.337Z</time>
      </trkpt>
      <trkpt lat="63.31286" lon="9.43442">
        <ele>297.245289</ele>
        <time>2020-08-05T12:21:13.352Z</time>
      </trkpt>
      <trkpt lat="63.31279" lon="9.43431">
        <ele>298.045829</ele>
        <time>2020-08-05T12:21:21.359Z</time>
      </trkpt>
      <trkpt lat="63.3127" lon="9.43425">
        <ele>298.857803</ele>
        <time>2020-08-05T12:21:28.333Z</time>
      </trkpt>
      <trkpt lat="63.31261" lon="9.43421">
        <ele>299.699112</ele>
        <time>2020-08-05T12:21:35.389Z</time>
      </trkpt>
      <trkpt lat="63.31251" lon="9.43419">
        <ele>300.573744</ele>
        <time>2020-08-05T12:21:43.362Z</time>
      </trkpt>
      <trkpt lat="63.31241" lon="9.4342">
        <ele>301.462511</ele>
        <time>2020-08-05T12:21:51.351Z</time>
      </trkpt>
      <trkpt lat="63.31231" lon="9.4342">
        <ele>302.324064</ele>
        <time>2020-08-05T12:21:59.381Z</time>
      </trkpt>
      <trkpt lat="63.31221" lon="9.4342">
        <ele>303.141779</ele>
        <time>2020-08-05T12:22:06.352Z</time>
      </trkpt>
      <trkpt lat="63.31212" lon="9.4342">
        <ele>303.968217</ele>
        <time>2020-08-05T12:22:13.349Z</time>
      </trkpt>
      <trkpt lat="63.31203" lon="9.43418">
        <ele>304.772899</ele>
        <time>2020-08-05T12:22:19.339Z</time>
      </trkpt>
      <trkpt lat="63.31193" lon="9.43415">
        <ele>305.613856</ele>
        <time>2020-08-05T12:22:26.339Z</time>
      </trkpt>
      <trkpt lat="63.31184" lon="9.43412">
        <ele>306.443015</ele>
        <time>2020-08-05T12:22:33.336Z</time>
      </trkpt>
      <trkpt lat="63.31175" lon="9.43406">
        <ele>307.26891</ele>
        <time>2020-08-05T12:22:41.375Z</time>
      </trkpt>
      <trkpt lat="63.31166" lon="9.43398">
        <ele>308.152172</ele>
        <time>2020-08-05T12:22:49.349Z</time>
      </trkpt>
      <trkpt lat="63.31157" lon="9.43395">
        <ele>308.967433</ele>
        <time>2020-08-05T12:22:56.334Z</time>
      </trkpt>
      <trkpt lat="63.31148" lon="9.43388">
        <ele>309.780657</ele>
        <time>2020-08-05T12:23:04.339Z</time>
      </trkpt>
      <trkpt lat="63.31139" lon="9.43382">
        <ele>310.566395</ele>
        <time>2020-08-05T12:23:12.360Z</time>
      </trkpt>
      <trkpt lat="63.31129" lon="9.43375">
        <ele>311.478943</ele>
        <time>2020-08-05T12:23:20.349Z</time>
      </trkpt>
      <trkpt lat="63.3112" lon="9.43369">
        <ele>312.338584</ele>
        <time>2020-08-05T12:23:27.336Z</time>
      </trkpt>
      <trkpt lat="63.31111" lon="9.43365">
        <ele>313.119147</ele>
        <time>2020-08-05T12:23:34.333Z</time>
      </trkpt>
      <trkpt lat="63.31101" lon="9.4336">
        <ele>313.712938</ele>
        <time>2020-08-05T12:23:42.359Z</time>
      </trkpt>
      <trkpt lat="63.31091" lon="9.43358">
        <ele>314.313705</ele>
        <time>2020-08-05T12:23:50.350Z</time>
      </trkpt>
      <trkpt lat="63.31083" lon="9.43347">
        <ele>314.932639</ele>
        <time>2020-08-05T12:23:58.334Z</time>
      </trkpt>
      <trkpt lat="63.31075" lon="9.43337">
        <ele>315.507164</ele>
        <time>2020-08-05T12:24:05.352Z</time>
      </trkpt>
      <trkpt lat="63.31066" lon="9.43327">
        <ele>316.082671</ele>
        <time>2020-08-05T12:24:11.337Z</time>
      </trkpt>
      <trkpt lat="63.31058" lon="9.43318">
        <ele>316.656613</ele>
        <time>2020-08-05T12:24:18.341Z</time>
      </trkpt>
      <trkpt lat="63.31049" lon="9.4331">
        <ele>317.232728</ele>
        <time>2020-08-05T12:24:25.342Z</time>
      </trkpt>
      <trkpt lat="63.31041" lon="9.43303">
        <ele>317.813093</ele>
        <time>2020-08-05T12:24:32.346Z</time>
      </trkpt>
      <trkpt lat="63.31032" lon="9.43294">
        <ele>318.386853</ele>
        <time>2020-08-05T12:24:40.325Z</time>
      </trkpt>
      <trkpt lat="63.31023" lon="9.4329">
        <ele>318.960797</ele>
        <time>2020-08-05T12:24:47.398Z</time>
      </trkpt>
      <trkpt lat="63.31013" lon="9.43286">
        <ele>319.571</ele>
        <time>2020-08-05T12:24:55.352Z</time>
      </trkpt>
      <trkpt lat="63.31004" lon="9.43283">
        <ele>320.143518</ele>
        <time>2020-08-05T12:25:03.334Z</time>
      </trkpt>
      <trkpt lat="63.30995" lon="9.43284">
        <ele>320.705202</ele>
        <time>2020-08-05T12:25:10.327Z</time>
      </trkpt>
      <trkpt lat="63.30985" lon="9.43288">
        <ele>321.335199</ele>
        <time>2020-08-05T12:25:18.362Z</time>
      </trkpt>
      <trkpt lat="63.30976" lon="9.43295">
        <ele>321.923376</ele>
        <time>2020-08-05T12:25:26.337Z</time>
      </trkpt>
      <trkpt lat="63.30968" lon="9.43308">
        <ele>322.55772</ele>
        <time>2020-08-05T12:25:34.383Z</time>
      </trkpt>
      <trkpt lat="63.30961" lon="9.43323">
        <ele>323.125423</ele>
        <time>2020-08-05T12:25:40.330Z</time>
      </trkpt>
      <trkpt lat="63.30954" lon="9.4334">
        <ele>323.752129</ele>
        <time>2020-08-05T12:25:48.358Z</time>
      </trkpt>
      <trkpt lat="63.30947" lon="9.43355">
        <ele>324.454429</ele>
        <time>2020-08-05T12:25:55.341Z</time>
      </trkpt>
      <trkpt lat="63.30942" lon="9.43374">
        <ele>325.249998</ele>
        <time>2020-08-05T12:26:01.350Z</time>
      </trkpt>
      <trkpt lat="63.30939" lon="9.43396">
        <ele>326.045287</ele>
        <time>2020-08-05T12:26:08.361Z</time>
      </trkpt>
      <trkpt lat="63.30936" lon="9.43415">
        <ele>326.763477</ele>
        <time>2020-08-05T12:26:15.349Z</time>
      </trkpt>
      <trkpt lat="63.30931" lon="9.43433">
        <ele>327.484373</ele>
        <time>2020-08-05T12:26:22.351Z</time>
      </trkpt>
      <trkpt lat="63.30927" lon="9.43453">
        <ele>328.274111</ele>
        <time>2020-08-05T12:26:29.361Z</time>
      </trkpt>
      <trkpt lat="63.30923" lon="9.43473">
        <ele>329.054036</ele>
        <time>2020-08-05T12:26:36.374Z</time>
      </trkpt>
      <trkpt lat="63.30919" lon="9.43492">
        <ele>329.782425</ele>
        <time>2020-08-05T12:26:42.346Z</time>
      </trkpt>
      <trkpt lat="63.30914" lon="9.43509">
        <ele>330.534738</ele>
        <time>2020-08-05T12:26:49.327Z</time>
      </trkpt>
      <trkpt lat="63.30908" lon="9.43525">
        <ele>331.270803</ele>
        <time>2020-08-05T12:26:56.367Z</time>
      </trkpt>
      <trkpt lat="63.30902" lon="9.43542">
        <ele>331.993217</ele>
        <time>2020-08-05T12:27:03.334Z</time>
      </trkpt>
      <trkpt lat="63.30898" lon="9.4356">
        <ele>332.747194</ele>
        <time>2020-08-05T12:27:11.343Z</time>
      </trkpt>
      <trkpt lat="63.30891" lon="9.43575">
        <ele>333.4753</ele>
        <time>2020-08-05T12:27:20.347Z</time>
      </trkpt>
      <trkpt lat="63.30886" lon="9.43592">
        <ele>334.2035</ele>
        <time>2020-08-05T12:27:28.394Z</time>
      </trkpt>
      <trkpt lat="63.3088" lon="9.43607">
        <ele>334.936983</ele>
        <time>2020-08-05T12:27:35.328Z</time>
      </trkpt>
      <trkpt lat="63.30873" lon="9.43622">
        <ele>335.696287</ele>
        <time>2020-08-05T12:27:43.321Z</time>
      </trkpt>
      <trkpt lat="63.30867" lon="9.43639">
        <ele>336.461807</ele>
        <time>2020-08-05T12:27:52.353Z</time>
      </trkpt>
      <trkpt lat="63.3086" lon="9.43656">
        <ele>337.216187</ele>
        <time>2020-08-05T12:28:00.360Z</time>
      </trkpt>
      <trkpt lat="63.30854" lon="9.43671">
        <ele>337.95483</ele>
        <time>2020-08-05T12:28:07.327Z</time>
      </trkpt>
      <trkpt lat="63.30849" lon="9.4369">
        <ele>338.567525</ele>
        <time>2020-08-05T12:28:14.383Z</time>
      </trkpt>
      <trkpt lat="63.30844" lon="9.43709">
        <ele>339.125417</ele>
        <time>2020-08-05T12:28:21.344Z</time>
      </trkpt>
      <trkpt lat="63.30839" lon="9.43727">
        <ele>339.648794</ele>
        <time>2020-08-05T12:28:27.322Z</time>
      </trkpt>
      <trkpt lat="63.30836" lon="9.43747">
        <ele>340.174761</ele>
        <time>2020-08-05T12:28:33.359Z</time>
      </trkpt>
      <trkpt lat="63.3083" lon="9.43765">
        <ele>340.705915</ele>
        <time>2020-08-05T12:28:39.393Z</time>
      </trkpt>
      <trkpt lat="63.30827" lon="9.43784">
        <ele>341.221811</ele>
        <time>2020-08-05T12:28:45.339Z</time>
      </trkpt>
      <trkpt lat="63.30825" lon="9.43804">
        <ele>341.731835</ele>
        <time>2020-08-05T12:28:51.357Z</time>
      </trkpt>
      <trkpt lat="63.30824" lon="9.43827">
        <ele>342.299926</ele>
        <time>2020-08-05T12:28:58.373Z</time>
      </trkpt>
      <trkpt lat="63.30823" lon="9.43848">
        <ele>342.814638</ele>
        <time>2020-08-05T12:29:04.323Z</time>
      </trkpt>
      <trkpt lat="63.30822" lon="9.43871">
        <ele>343.386594</ele>
        <time>2020-08-05T12:29:10.324Z</time>
      </trkpt>
      <trkpt lat="63.30821" lon="9.43894">
        <ele>343.963184</ele>
        <time>2020-08-05T12:29:16.336Z</time>
      </trkpt>
      <trkpt lat="63.3082" lon="9.43915">
        <ele>344.481222</ele>
        <time>2020-08-05T12:29:21.348Z</time>
      </trkpt>
      <trkpt lat="63.3082" lon="9.43939">
        <ele>345.074573</ele>
        <time>2020-08-05T12:29:27.336Z</time>
      </trkpt>
      <trkpt lat="63.30819" lon="9.4396">
        <ele>345.609519</ele>
        <time>2020-08-05T12:29:32.326Z</time>
      </trkpt>
      <trkpt lat="63.30818" lon="9.43983">
        <ele>346.189378</ele>
        <time>2020-08-05T12:29:38.358Z</time>
      </trkpt>
      <trkpt lat="63.30816" lon="9.44005">
        <ele>346.739055</ele>
        <time>2020-08-05T12:29:44.331Z</time>
      </trkpt>
      <trkpt lat="63.30814" lon="9.44027">
        <ele>347.295485</ele>
        <time>2020-08-05T12:29:50.366Z</time>
      </trkpt>
      <trkpt lat="63.30811" lon="9.44047">
        <ele>347.816003</ele>
        <time>2020-08-05T12:29:56.387Z</time>
      </trkpt>
      <trkpt lat="63.30808" lon="9.44066">
        <ele>348.33936</ele>
        <time>2020-08-05T12:30:02.326Z</time>
      </trkpt>
      <trkpt lat="63.30806" lon="9.44087">
        <ele>348.954983</ele>
        <time>2020-08-05T12:30:09.334Z</time>
      </trkpt>
      <trkpt lat="63.30802" lon="9.44107">
        <ele>349.557132</ele>
        <time>2020-08-05T12:30:16.335Z</time>
      </trkpt>
      <trkpt lat="63.30798" lon="9.44126">
        <ele>350.159951</ele>
        <time>2020-08-05T12:30:24.347Z</time>
      </trkpt>
      <trkpt lat="63.30793" lon="9.44147">
        <ele>350.809815</ele>
        <time>2020-08-05T12:30:32.384Z</time>
      </trkpt>
      <trkpt lat="63.30789" lon="9.44166">
        <ele>351.399262</ele>
        <time>2020-08-05T12:30:39.366Z</time>
      </trkpt>
      <trkpt lat="63.30785" lon="9.44186">
        <ele>352.011196</ele>
        <time>2020-08-05T12:30:47.331Z</time>
      </trkpt>
      <trkpt lat="63.3078" lon="9.44205">
        <ele>352.647547</ele>
        <time>2020-08-05T12:30:56.325Z</time>
      </trkpt>
      <trkpt lat="63.30775" lon="9.44223">
        <ele>353.240212</ele>
        <time>2020-08-05T12:31:04.344Z</time>
      </trkpt>
      <trkpt lat="63.30771" lon="9.44243">
        <ele>353.864569</ele>
        <time>2020-08-05T12:31:12.334Z</time>
      </trkpt>
      <trkpt lat="63.30767" lon="9.44262">
        <ele>354.463442</ele>
        <time>2020-08-05T12:31:19.363Z</time>
      </trkpt>
      <trkpt lat="63.30764" lon="9.44284">
        <ele>355.100955</ele>
        <time>2020-08-05T12:31:27.337Z</time>
      </trkpt>
      <trkpt lat="63.3076" lon="9.44302">
        <ele>355.683485</ele>
        <time>2020-08-05T12:31:34.346Z</time>
      </trkpt>
      <trkpt lat="63.30756" lon="9.4432">
        <ele>356.246147</ele>
        <time>2020-08-05T12:31:40.336Z</time>
      </trkpt>
      <trkpt lat="63.30753" lon="9.44339">
        <ele>356.806394</ele>
        <time>2020-08-05T12:31:47.355Z</time>
      </trkpt>
      <trkpt lat="63.30748" lon="9.44358">
        <ele>357.405824</ele>
        <time>2020-08-05T12:31:54.319Z</time>
      </trkpt>
      <trkpt lat="63.30744" lon="9.44378">
        <ele>358.033525</ele>
        <time>2020-08-05T12:32:01.354Z</time>
      </trkpt>
      <trkpt lat="63.3074" lon="9.44398">
        <ele>358.650201</ele>
        <time>2020-08-05T12:32:08.341Z</time>
      </trkpt>
      <trkpt lat="63.30734" lon="9.44415">
        <ele>359.261176</ele>
        <time>2020-08-05T12:32:15.360Z</time>
      </trkpt>
      <trkpt lat="63.30732" lon="9.44436">
        <ele>359.801994</ele>
        <time>2020-08-05T12:32:22.343Z</time>
      </trkpt>
      <trkpt lat="63.30728" lon="9.44456">
        <ele>360.368643</ele>
        <time>2020-08-05T12:32:30.365Z</time>
      </trkpt>
      <trkpt lat="63.30724" lon="9.44475">
        <ele>360.914589</ele>
        <time>2020-08-05T12:32:37.354Z</time>
      </trkpt>
      <trkpt lat="63.30722" lon="9.44496">
        <ele>361.466675</ele>
        <time>2020-08-05T12:32:43.333Z</time>
      </trkpt>
      <trkpt lat="63.30718" lon="9.44517">
        <ele>362.029102</ele>
        <time>2020-08-05T12:32:50.376Z</time>
      </trkpt>
      <trkpt lat="63.30713" lon="9.44537">
        <ele>362.618475</ele>
        <time>2020-08-05T12:32:57.339Z</time>
      </trkpt>
      <trkpt lat="63.30708" lon="9.44557">
        <ele>363.198692</ele>
        <time>2020-08-05T12:33:04.381Z</time>
      </trkpt>
      <trkpt lat="63.30703" lon="9.44575">
        <ele>363.730324</ele>
        <time>2020-08-05T12:33:11.348Z</time>
      </trkpt>
      <trkpt lat="63.30699" lon="9.44596">
        <ele>364.302539</ele>
        <time>2020-08-05T12:33:18.324Z</time>
      </trkpt>
      <trkpt lat="63.30694" lon="9.44612">
        <ele>364.81452</ele>
        <time>2020-08-05T12:33:26.361Z</time>
      </trkpt>
      <trkpt lat="63.30688" lon="9.44629">
        <ele>365.360503</ele>
        <time>2020-08-05T12:33:34.425Z</time>
      </trkpt>
      <trkpt lat="63.30682" lon="9.44646">
        <ele>365.931047</ele>
        <time>2020-08-05T12:33:41.372Z</time>
      </trkpt>
      <trkpt lat="63.30676" lon="9.44666">
        <ele>366.524389</ele>
        <time>2020-08-05T12:33:49.363Z</time>
      </trkpt>
      <trkpt lat="63.30671" lon="9.44685">
        <ele>367.083892</ele>
        <time>2020-08-05T12:33:56.341Z</time>
      </trkpt>
      <trkpt lat="63.30667" lon="9.44704">
        <ele>367.627681</ele>
        <time>2020-08-05T12:34:03.335Z</time>
      </trkpt>
      <trkpt lat="63.30665" lon="9.44724">
        <ele>368.15128</ele>
        <time>2020-08-05T12:34:10.334Z</time>
      </trkpt>
      <trkpt lat="63.30662" lon="9.44746">
        <ele>368.718112</ele>
        <time>2020-08-05T12:34:18.324Z</time>
      </trkpt>
      <trkpt lat="63.30662" lon="9.44766">
        <ele>369.230319</ele>
        <time>2020-08-05T12:34:25.354Z</time>
      </trkpt>
      <trkpt lat="63.3066" lon="9.44789">
        <ele>369.782562</ele>
        <time>2020-08-05T12:34:33.370Z</time>
      </trkpt>
      <trkpt lat="63.30661" lon="9.44812">
        <ele>370.294691</ele>
        <time>2020-08-05T12:34:39.363Z</time>
      </trkpt>
      <trkpt lat="63.30662" lon="9.44833">
        <ele>370.743639</ele>
        <time>2020-08-05T12:34:43.325Z</time>
      </trkpt>
      <trkpt lat="63.30663" lon="9.44856">
        <ele>371.242022</ele>
        <time>2020-08-05T12:34:48.360Z</time>
      </trkpt>
      <trkpt lat="63.30665" lon="9.44876">
        <ele>371.696207</ele>
        <time>2020-08-05T12:34:55.400Z</time>
      </trkpt>
      <trkpt lat="63.30666" lon="9.44899">
        <ele>372.187544</ele>
        <time>2020-08-05T12:35:01.340Z</time>
      </trkpt>
      <trkpt lat="63.30667" lon="9.44919">
        <ele>372.622208</ele>
        <time>2020-08-05T12:35:06.353Z</time>
      </trkpt>
      <trkpt lat="63.30668" lon="9.4494">
        <ele>373.086232</ele>
        <time>2020-08-05T12:35:11.385Z</time>
      </trkpt>
      <trkpt lat="63.3067" lon="9.44961">
        <ele>373.553038</ele>
        <time>2020-08-05T12:35:16.369Z</time>
      </trkpt>
      <trkpt lat="63.30672" lon="9.44984">
        <ele>374.059302</ele>
        <time>2020-08-05T12:35:21.374Z</time>
      </trkpt>
      <trkpt lat="63.30673" lon="9.45007">
        <ele>374.567869</ele>
        <time>2020-08-05T12:35:26.342Z</time>
      </trkpt>
      <trkpt lat="63.30674" lon="9.45028">
        <ele>375.026336</ele>
        <time>2020-08-05T12:35:31.362Z</time>
      </trkpt>
      <trkpt lat="63.30676" lon="9.45048">
        <ele>375.468651</ele>
        <time>2020-08-05T12:35:36.376Z</time>
      </trkpt>
      <trkpt lat="63.30678" lon="9.45069">
        <ele>375.933177</ele>
        <time>2020-08-05T12:35:41.340Z</time>
      </trkpt>
      <trkpt lat="63.30679" lon="9.4509">
        <ele>376.385714</ele>
        <time>2020-08-05T12:35:47.343Z</time>
      </trkpt>
      <trkpt lat="63.30682" lon="9.45113">
        <ele>376.901969</ele>
        <time>2020-08-05T12:35:54.380Z</time>
      </trkpt>
      <trkpt lat="63.30683" lon="9.45134">
        <ele>377.362057</ele>
        <time>2020-08-05T12:36:00.345Z</time>
      </trkpt>
      <trkpt lat="63.30683" lon="9.45155">
        <ele>377.811865</ele>
        <time>2020-08-05T12:36:07.343Z</time>
      </trkpt>
      <trkpt lat="63.30685" lon="9.45177">
        <ele>378.319854</ele>
        <time>2020-08-05T12:36:14.363Z</time>
      </trkpt>
      <trkpt lat="63.30686" lon="9.45199">
        <ele>379.018258</ele>
        <time>2020-08-05T12:36:21.346Z</time>
      </trkpt>
      <trkpt lat="63.30687" lon="9.45221">
        <ele>379.710371</ele>
        <time>2020-08-05T12:36:28.372Z</time>
      </trkpt>
      <trkpt lat="63.30688" lon="9.45242">
        <ele>380.374465</ele>
        <time>2020-08-05T12:36:36.352Z</time>
      </trkpt>
      <trkpt lat="63.30691" lon="9.45264">
        <ele>381.100525</ele>
        <time>2020-08-05T12:36:43.334Z</time>
      </trkpt>
      <trkpt lat="63.30694" lon="9.45283">
        <ele>381.742791</ele>
        <time>2020-08-05T12:36:49.352Z</time>
      </trkpt>
      <trkpt lat="63.30696" lon="9.45303">
        <ele>382.394103</ele>
        <time>2020-08-05T12:36:56.382Z</time>
      </trkpt>
      <trkpt lat="63.30698" lon="9.45325">
        <ele>383.095088</ele>
        <time>2020-08-05T12:37:03.333Z</time>
      </trkpt>
      <trkpt lat="63.30699" lon="9.45346">
        <ele>383.761464</ele>
        <time>2020-08-05T12:37:09.356Z</time>
      </trkpt>
      <trkpt lat="63.307" lon="9.45369">
        <ele>384.503717</ele>
        <time>2020-08-05T12:37:16.342Z</time>
      </trkpt>
      <trkpt lat="63.30702" lon="9.4539">
        <ele>385.202006</ele>
        <time>2020-08-05T12:37:23.383Z</time>
      </trkpt>
      <trkpt lat="63.30704" lon="9.45413">
        <ele>385.922125</ele>
        <time>2020-08-05T12:37:30.361Z</time>
      </trkpt>
      <trkpt lat="63.30705" lon="9.45435">
        <ele>386.649496</ele>
        <time>2020-08-05T12:37:37.329Z</time>
      </trkpt>
      <trkpt lat="63.30708" lon="9.45457">
        <ele>387.36142</ele>
        <time>2020-08-05T12:37:44.322Z</time>
      </trkpt>
      <trkpt lat="63.3071" lon="9.45479">
        <ele>388.067469</ele>
        <time>2020-08-05T12:37:51.344Z</time>
      </trkpt>
      <trkpt lat="63.30713" lon="9.45499">
        <ele>388.743976</ele>
        <time>2020-08-05T12:37:58.378Z</time>
      </trkpt>
      <trkpt lat="63.30714" lon="9.45521">
        <ele>389.44134</ele>
        <time>2020-08-05T12:38:05.368Z</time>
      </trkpt>
      <trkpt lat="63.30716" lon="9.45541">
        <ele>390.088692</ele>
        <time>2020-08-05T12:38:11.333Z</time>
      </trkpt>
      <trkpt lat="63.30718" lon="9.45563">
        <ele>390.799493</ele>
        <time>2020-08-05T12:38:17.343Z</time>
      </trkpt>
      <trkpt lat="63.30721" lon="9.45584">
        <ele>391.63404</ele>
        <time>2020-08-05T12:38:23.328Z</time>
      </trkpt>
      <trkpt lat="63.30722" lon="9.45608">
        <ele>392.566182</ele>
        <time>2020-08-05T12:38:29.339Z</time>
      </trkpt>
      <trkpt lat="63.30724" lon="9.45631">
        <ele>393.532796</ele>
        <time>2020-08-05T12:38:35.336Z</time>
      </trkpt>
      <trkpt lat="63.30726" lon="9.45655">
        <ele>394.485836</ele>
        <time>2020-08-05T12:38:40.358Z</time>
      </trkpt>
      <trkpt lat="63.30729" lon="9.45675">
        <ele>395.330166</ele>
        <time>2020-08-05T12:38:45.334Z</time>
      </trkpt>
      <trkpt lat="63.3073" lon="9.45696">
        <ele>396.146259</ele>
        <time>2020-08-05T12:38:50.322Z</time>
      </trkpt>
      <trkpt lat="63.30731" lon="9.45718">
        <ele>397.030237</ele>
        <time>2020-08-05T12:38:56.332Z</time>
      </trkpt>
      <trkpt lat="63.30733" lon="9.45739">
        <ele>397.928523</ele>
        <time>2020-08-05T12:39:02.379Z</time>
      </trkpt>
      <trkpt lat="63.30734" lon="9.45761">
        <ele>398.781112</ele>
        <time>2020-08-05T12:39:08.325Z</time>
      </trkpt>
      <trkpt lat="63.30735" lon="9.45782">
        <ele>399.628567</ele>
        <time>2020-08-05T12:39:13.337Z</time>
      </trkpt>
      <trkpt lat="63.30737" lon="9.45804">
        <ele>400.508676</ele>
        <time>2020-08-05T12:39:19.341Z</time>
      </trkpt>
      <trkpt lat="63.30738" lon="9.45824">
        <ele>401.311522</ele>
        <time>2020-08-05T12:39:25.333Z</time>
      </trkpt>
      <trkpt lat="63.3074" lon="9.45845">
        <ele>402.169508</ele>
        <time>2020-08-05T12:39:31.384Z</time>
      </trkpt>
      <trkpt lat="63.30741" lon="9.45867">
        <ele>403.048437</ele>
        <time>2020-08-05T12:39:36.326Z</time>
      </trkpt>
      <trkpt lat="63.30742" lon="9.45888">
        <ele>403.895124</ele>
        <time>2020-08-05T12:39:41.385Z</time>
      </trkpt>
      <trkpt lat="63.30744" lon="9.45908">
        <ele>404.728446</ele>
        <time>2020-08-05T12:39:46.364Z</time>
      </trkpt>
      <trkpt lat="63.30746" lon="9.45928">
        <ele>405.533995</ele>
        <time>2020-08-05T12:39:52.374Z</time>
      </trkpt>
      <trkpt lat="63.3075" lon="9.45949">
        <ele>406.435728</ele>
        <time>2020-08-05T12:39:59.339Z</time>
      </trkpt>
      <trkpt lat="63.30754" lon="9.45967">
        <ele>407.055509</ele>
        <time>2020-08-05T12:40:05.379Z</time>
      </trkpt>
      <trkpt lat="63.30758" lon="9.45987">
        <ele>407.506395</ele>
        <time>2020-08-05T12:40:12.358Z</time>
      </trkpt>
      <trkpt lat="63.30762" lon="9.46005">
        <ele>407.919981</ele>
        <time>2020-08-05T12:40:19.340Z</time>
      </trkpt>
      <trkpt lat="63.30767" lon="9.46023">
        <ele>408.371872</ele>
        <time>2020-08-05T12:40:25.348Z</time>
      </trkpt>
      <trkpt lat="63.30773" lon="9.46041">
        <ele>408.828802</ele>
        <time>2020-08-05T12:40:31.335Z</time>
      </trkpt>
      <trkpt lat="63.30777" lon="9.46062">
        <ele>409.285325</ele>
        <time>2020-08-05T12:40:37.350Z</time>
      </trkpt>
      <trkpt lat="63.30781" lon="9.4608">
        <ele>409.710983</ele>
        <time>2020-08-05T12:40:43.377Z</time>
      </trkpt>
      <trkpt lat="63.30785" lon="9.46101">
        <ele>410.170137</ele>
        <time>2020-08-05T12:40:50.327Z</time>
      </trkpt>
      <trkpt lat="63.30786" lon="9.46123">
        <ele>410.635216</ele>
        <time>2020-08-05T12:40:58.329Z</time>
      </trkpt>
      <trkpt lat="63.30789" lon="9.46145">
        <ele>411.091773</ele>
        <time>2020-08-05T12:41:05.331Z</time>
      </trkpt>
      <trkpt lat="63.30791" lon="9.46166">
        <ele>411.550319</ele>
        <time>2020-08-05T12:41:12.342Z</time>
      </trkpt>
      <trkpt lat="63.30794" lon="9.46186">
        <ele>411.981749</ele>
        <time>2020-08-05T12:41:19.352Z</time>
      </trkpt>
      <trkpt lat="63.30799" lon="9.46207">
        <ele>412.459418</ele>
        <time>2020-08-05T12:41:26.337Z</time>
      </trkpt>
      <trkpt lat="63.30803" lon="9.46228">
        <ele>412.916319</ele>
        <time>2020-08-05T12:41:33.350Z</time>
      </trkpt>
      <trkpt lat="63.30806" lon="9.46248">
        <ele>413.367232</ele>
        <time>2020-08-05T12:41:41.347Z</time>
      </trkpt>
      <trkpt lat="63.30809" lon="9.46269">
        <ele>413.817721</ele>
        <time>2020-08-05T12:41:49.332Z</time>
      </trkpt>
      <trkpt lat="63.30814" lon="9.4629">
        <ele>414.301138</ele>
        <time>2020-08-05T12:41:57.355Z</time>
      </trkpt>
      <trkpt lat="63.30819" lon="9.46311">
        <ele>414.784326</ele>
        <time>2020-08-05T12:42:04.365Z</time>
      </trkpt>
      <trkpt lat="63.30822" lon="9.4633">
        <ele>415.294998</ele>
        <time>2020-08-05T12:42:11.363Z</time>
      </trkpt>
      <trkpt lat="63.30825" lon="9.4635">
        <ele>416.179022</ele>
        <time>2020-08-05T12:42:18.349Z</time>
      </trkpt>
      <trkpt lat="63.30829" lon="9.46369">
        <ele>417.044881</ele>
        <time>2020-08-05T12:42:25.356Z</time>
      </trkpt>
      <trkpt lat="63.30833" lon="9.4639">
        <ele>417.98067</ele>
        <time>2020-08-05T12:42:32.314Z</time>
      </trkpt>
      <trkpt lat="63.30838" lon="9.46409">
        <ele>418.83478</ele>
        <time>2020-08-05T12:42:39.344Z</time>
      </trkpt>
      <trkpt lat="63.30842" lon="9.46427">
        <ele>419.66286</ele>
        <time>2020-08-05T12:42:45.351Z</time>
      </trkpt>
      <trkpt lat="63.30846" lon="9.46446">
        <ele>420.514163</ele>
        <time>2020-08-05T12:42:51.357Z</time>
      </trkpt>
      <trkpt lat="63.3085" lon="9.46465">
        <ele>421.397798</ele>
        <time>2020-08-05T12:42:58.353Z</time>
      </trkpt>
      <trkpt lat="63.30854" lon="9.46484">
        <ele>422.259578</ele>
        <time>2020-08-05T12:43:05.374Z</time>
      </trkpt>
      <trkpt lat="63.30857" lon="9.46505">
        <ele>423.153092</ele>
        <time>2020-08-05T12:43:12.334Z</time>
      </trkpt>
      <trkpt lat="63.3086" lon="9.46526">
        <ele>424.038133</ele>
        <time>2020-08-05T12:43:20.355Z</time>
      </trkpt>
      <trkpt lat="63.30862" lon="9.46548">
        <ele>424.951283</ele>
        <time>2020-08-05T12:43:27.333Z</time>
      </trkpt>
      <trkpt lat="63.30861" lon="9.46569">
        <ele>425.818132</ele>
        <time>2020-08-05T12:43:34.340Z</time>
      </trkpt>
      <trkpt lat="63.30861" lon="9.46589">
        <ele>426.652303</ele>
        <time>2020-08-05T12:43:43.354Z</time>
      </trkpt>
      <trkpt lat="63.30862" lon="9.4661">
        <ele>427.516984</ele>
        <time>2020-08-05T12:43:51.340Z</time>
      </trkpt>
      <trkpt lat="63.30859" lon="9.4663">
        <ele>428.365341</ele>
        <time>2020-08-05T12:43:59.343Z</time>
      </trkpt>
      <trkpt lat="63.3086" lon="9.46652">
        <ele>429.266709</ele>
        <time>2020-08-05T12:44:07.358Z</time>
      </trkpt>
      <trkpt lat="63.30859" lon="9.46674">
        <ele>430.137976</ele>
        <time>2020-08-05T12:44:15.336Z</time>
      </trkpt>
      <trkpt lat="63.30859" lon="9.46694">
        <ele>430.992572</ele>
        <time>2020-08-05T12:44:23.367Z</time>
      </trkpt>
      <trkpt lat="63.30858" lon="9.46716">
        <ele>431.713961</ele>
        <time>2020-08-05T12:44:31.373Z</time>
      </trkpt>
      <trkpt lat="63.30856" lon="9.46738">
        <ele>432.256392</ele>
        <time>2020-08-05T12:44:40.350Z</time>
      </trkpt>
      <trkpt lat="63.30856" lon="9.46758">
        <ele>432.766182</ele>
        <time>2020-08-05T12:44:46.343Z</time>
      </trkpt>
      <trkpt lat="63.30855" lon="9.46779">
        <ele>433.276592</ele>
        <time>2020-08-05T12:44:54.384Z</time>
      </trkpt>
      <trkpt lat="63.30854" lon="9.46799">
        <ele>433.773792</ele>
        <time>2020-08-05T12:45:01.343Z</time>
      </trkpt>
      <trkpt lat="63.30854" lon="9.46821">
        <ele>434.312527</ele>
        <time>2020-08-05T12:45:08.340Z</time>
      </trkpt>
      <trkpt lat="63.30855" lon="9.46842">
        <ele>434.818394</ele>
        <time>2020-08-05T12:45:15.359Z</time>
      </trkpt>
      <trkpt lat="63.30855" lon="9.46863">
        <ele>435.34531</ele>
        <time>2020-08-05T12:45:23.366Z</time>
      </trkpt>
      <trkpt lat="63.30858" lon="9.46885">
        <ele>435.906735</ele>
        <time>2020-08-05T12:45:31.391Z</time>
      </trkpt>
      <trkpt lat="63.30859" lon="9.46908">
        <ele>436.453766</ele>
        <time>2020-08-05T12:45:39.342Z</time>
      </trkpt>
      <trkpt lat="63.30861" lon="9.46928">
        <ele>436.959086</ele>
        <time>2020-08-05T12:45:46.342Z</time>
      </trkpt>
      <trkpt lat="63.30863" lon="9.4695">
        <ele>437.510981</ele>
        <time>2020-08-05T12:45:53.348Z</time>
      </trkpt>
      <trkpt lat="63.30865" lon="9.46972">
        <ele>438.055707</ele>
        <time>2020-08-05T12:46:00.332Z</time>
      </trkpt>
      <trkpt lat="63.30868" lon="9.46992">
        <ele>438.572959</ele>
        <time>2020-08-05T12:46:06.361Z</time>
      </trkpt>
      <trkpt lat="63.30869" lon="9.47015">
        <ele>439.135072</ele>
        <time>2020-08-05T12:46:13.337Z</time>
      </trkpt>
      <trkpt lat="63.30872" lon="9.47036">
        <ele>439.678513</ele>
        <time>2020-08-05T12:46:19.341Z</time>
      </trkpt>
      <trkpt lat="63.30875" lon="9.47055">
        <ele>440.173498</ele>
        <time>2020-08-05T12:46:24.342Z</time>
      </trkpt>
      <trkpt lat="63.30876" lon="9.47077">
        <ele>440.720115</ele>
        <time>2020-08-05T12:46:30.350Z</time>
      </trkpt>
      <trkpt lat="63.30879" lon="9.47097">
        <ele>441.2324</ele>
        <time>2020-08-05T12:46:36.339Z</time>
      </trkpt>
      <trkpt lat="63.30882" lon="9.47118">
        <ele>441.864439</ele>
        <time>2020-08-05T12:46:42.362Z</time>
      </trkpt>
      <trkpt lat="63.30885" lon="9.47138">
        <ele>442.485029</ele>
        <time>2020-08-05T12:46:48.333Z</time>
      </trkpt>
      <trkpt lat="63.30887" lon="9.47158">
        <ele>443.117529</ele>
        <time>2020-08-05T12:46:54.345Z</time>
      </trkpt>
      <trkpt lat="63.3089" lon="9.47181">
        <ele>443.808635</ele>
        <time>2020-08-05T12:47:01.358Z</time>
      </trkpt>
      <trkpt lat="63.30893" lon="9.472">
        <ele>444.413301</ele>
        <time>2020-08-05T12:47:07.338Z</time>
      </trkpt>
      <trkpt lat="63.30897" lon="9.47218">
        <ele>445.04284</ele>
        <time>2020-08-05T12:47:13.344Z</time>
      </trkpt>
      <trkpt lat="63.30901" lon="9.47237">
        <ele>445.665324</ele>
        <time>2020-08-05T12:47:19.377Z</time>
      </trkpt>
      <trkpt lat="63.30907" lon="9.47256">
        <ele>446.315293</ele>
        <time>2020-08-05T12:47:26.375Z</time>
      </trkpt>
      <trkpt lat="63.30913" lon="9.47273">
        <ele>446.996563</ele>
        <time>2020-08-05T12:47:33.352Z</time>
      </trkpt>
      <trkpt lat="63.30919" lon="9.47294">
        <ele>447.742938</ele>
        <time>2020-08-05T12:47:40.353Z</time>
      </trkpt>
      <trkpt lat="63.30925" lon="9.47309">
        <ele>448.345919</ele>
        <time>2020-08-05T12:47:46.344Z</time>
      </trkpt>
      <trkpt lat="63.30932" lon="9.47325">
        <ele>448.979979</ele>
        <time>2020-08-05T12:47:53.336Z</time>
      </trkpt>
      <trkpt lat="63.30939" lon="9.47338">
        <ele>449.576587</ele>
        <time>2020-08-05T12:47:59.331Z</time>
      </trkpt>
      <trkpt lat="63.30946" lon="9.47353">
        <ele>450.225925</ele>
        <time>2020-08-05T12:48:06.334Z</time>
      </trkpt>
      <trkpt lat="63.30953" lon="9.47368">
        <ele>450.871174</ele>
        <time>2020-08-05T12:48:13.326Z</time>
      </trkpt>
      <trkpt lat="63.3096" lon="9.47383">
        <ele>451.539115</ele>
        <time>2020-08-05T12:48:19.357Z</time>
      </trkpt>
      <trkpt lat="63.30968" lon="9.47399">
        <ele>452.220027</ele>
        <time>2020-08-05T12:48:26.343Z</time>
      </trkpt>
      <trkpt lat="63.30975" lon="9.47413">
        <ele>452.86012</ele>
        <time>2020-08-05T12:48:32.357Z</time>
      </trkpt>
      <trkpt lat="63.30982" lon="9.4743">
        <ele>453.446017</ele>
        <time>2020-08-05T12:48:38.427Z</time>
      </trkpt>
      <trkpt lat="63.30988" lon="9.47446">
        <ele>453.85649</ele>
        <time>2020-08-05T12:48:43.395Z</time>
      </trkpt>
      <trkpt lat="63.30995" lon="9.47461">
        <ele>454.326467</ele>
        <time>2020-08-05T12:48:49.370Z</time>
      </trkpt>
      <trkpt lat="63.31002" lon="9.47479">
        <ele>454.783858</ele>
        <time>2020-08-05T12:48:55.373Z</time>
      </trkpt>
      <trkpt lat="63.31007" lon="9.47495">
        <ele>455.196866</ele>
        <time>2020-08-05T12:49:01.349Z</time>
      </trkpt>
      <trkpt lat="63.31013" lon="9.47511">
        <ele>455.617011</ele>
        <time>2020-08-05T12:49:06.356Z</time>
      </trkpt>
      <trkpt lat="63.31018" lon="9.47529">
        <ele>456.042784</ele>
        <time>2020-08-05T12:49:11.348Z</time>
      </trkpt>
      <trkpt lat="63.31022" lon="9.47547">
        <ele>456.452353</ele>
        <time>2020-08-05T12:49:16.353Z</time>
      </trkpt>
      <trkpt lat="63.31025" lon="9.47565">
        <ele>456.865513</ele>
        <time>2020-08-05T12:49:21.363Z</time>
      </trkpt>
      <trkpt lat="63.31031" lon="9.47586">
        <ele>457.347435</ele>
        <time>2020-08-05T12:49:27.348Z</time>
      </trkpt>
      <trkpt lat="63.31034" lon="9.47605">
        <ele>457.768598</ele>
        <time>2020-08-05T12:49:33.326Z</time>
      </trkpt>
      <trkpt lat="63.31037" lon="9.47625">
        <ele>458.189999</ele>
        <time>2020-08-05T12:49:38.340Z</time>
      </trkpt>
      <trkpt lat="63.3104" lon="9.47645">
        <ele>458.628028</ele>
        <time>2020-08-05T12:49:43.344Z</time>
      </trkpt>
      <trkpt lat="63.31043" lon="9.47665">
        <ele>459.048396</ele>
        <time>2020-08-05T12:49:48.324Z</time>
      </trkpt>
      <trkpt lat="63.31048" lon="9.47684">
        <ele>459.493986</ele>
        <time>2020-08-05T12:49:54.347Z</time>
      </trkpt>
      <trkpt lat="63.3105" lon="9.47707">
        <ele>459.979656</ele>
        <time>2020-08-05T12:50:00.335Z</time>
      </trkpt>
      <trkpt lat="63.31053" lon="9.47727">
        <ele>460.395935</ele>
        <time>2020-08-05T12:50:05.355Z</time>
      </trkpt>
      <trkpt lat="63.31056" lon="9.47748">
        <ele>460.84735</ele>
        <time>2020-08-05T12:50:11.354Z</time>
      </trkpt>
      <trkpt lat="63.3106" lon="9.47769">
        <ele>461.331055</ele>
        <time>2020-08-05T12:50:17.367Z</time>
      </trkpt>
      <trkpt lat="63.31063" lon="9.47789">
        <ele>461.315613</ele>
        <time>2020-08-05T12:50:22.359Z</time>
      </trkpt>
      <trkpt lat="63.31067" lon="9.4781">
        <ele>461.228884</ele>
        <time>2020-08-05T12:50:27.391Z</time>
      </trkpt>
      <trkpt lat="63.31071" lon="9.47833">
        <ele>461.139405</ele>
        <time>2020-08-05T12:50:32.366Z</time>
      </trkpt>
      <trkpt lat="63.31074" lon="9.47853">
        <ele>461.058817</ele>
        <time>2020-08-05T12:50:36.344Z</time>
      </trkpt>
      <trkpt lat="63.31077" lon="9.47878">
        <ele>460.96227</ele>
        <time>2020-08-05T12:50:40.357Z</time>
      </trkpt>
      <trkpt lat="63.3108" lon="9.47898">
        <ele>460.884063</ele>
        <time>2020-08-05T12:50:43.351Z</time>
      </trkpt>
      <trkpt lat="63.31084" lon="9.47919">
        <ele>460.800148</ele>
        <time>2020-08-05T12:50:46.353Z</time>
      </trkpt>
      <trkpt lat="63.31088" lon="9.47942">
        <ele>460.706294</ele>
        <time>2020-08-05T12:50:49.341Z</time>
      </trkpt>
      <trkpt lat="63.31092" lon="9.47968">
        <ele>460.605746</ele>
        <time>2020-08-05T12:50:52.332Z</time>
      </trkpt>
      <trkpt lat="63.31096" lon="9.47994">
        <ele>460.503255</ele>
        <time>2020-08-05T12:50:55.347Z</time>
      </trkpt>
      <trkpt lat="63.311" lon="9.4802">
        <ele>460.400321</ele>
        <time>2020-08-05T12:50:58.341Z</time>
      </trkpt>
      <trkpt lat="63.31105" lon="9.48047">
        <ele>460.293953</ele>
        <time>2020-08-05T12:51:01.356Z</time>
      </trkpt>
      <trkpt lat="63.31109" lon="9.48074">
        <ele>460.184849</ele>
        <time>2020-08-05T12:51:04.397Z</time>
      </trkpt>
      <trkpt lat="63.31112" lon="9.48093">
        <ele>460.109692</ele>
        <time>2020-08-05T12:51:06.381Z</time>
      </trkpt>
      <trkpt lat="63.31115" lon="9.48113">
        <ele>460.033351</ele>
        <time>2020-08-05T12:51:08.379Z</time>
      </trkpt>
      <trkpt lat="63.31119" lon="9.48131">
        <ele>459.958176</ele>
        <time>2020-08-05T12:51:10.322Z</time>
      </trkpt>
      <trkpt lat="63.31123" lon="9.48159">
        <ele>459.7423</ele>
        <time>2020-08-05T12:51:13.341Z</time>
      </trkpt>
      <trkpt lat="63.31127" lon="9.48178">
        <ele>459.483541</ele>
        <time>2020-08-05T12:51:15.347Z</time>
      </trkpt>
      <trkpt lat="63.3113" lon="9.48196">
        <ele>459.225757</ele>
        <time>2020-08-05T12:51:17.392Z</time>
      </trkpt>
      <trkpt lat="63.31133" lon="9.48216">
        <ele>458.954254</ele>
        <time>2020-08-05T12:51:19.345Z</time>
      </trkpt>
      <trkpt lat="63.31136" lon="9.48237">
        <ele>458.67112</ele>
        <time>2020-08-05T12:51:21.357Z</time>
      </trkpt>
      <trkpt lat="63.3114" lon="9.48259">
        <ele>458.365667</ele>
        <time>2020-08-05T12:51:23.395Z</time>
      </trkpt>
      <trkpt lat="63.31144" lon="9.48283">
        <ele>458.03951</ele>
        <time>2020-08-05T12:51:25.361Z</time>
      </trkpt>
      <trkpt lat="63.31147" lon="9.48307">
        <ele>457.715134</ele>
        <time>2020-08-05T12:51:27.385Z</time>
      </trkpt>
      <trkpt lat="63.31152" lon="9.4833">
        <ele>457.388965</ele>
        <time>2020-08-05T12:51:29.357Z</time>
      </trkpt>
      <trkpt lat="63.31155" lon="9.48354">
        <ele>457.070409</ele>
        <time>2020-08-05T12:51:31.354Z</time>
      </trkpt>
      <trkpt lat="63.31159" lon="9.48377">
        <ele>456.750885</ele>
        <time>2020-08-05T12:51:33.338Z</time>
      </trkpt>
      <trkpt lat="63.31163" lon="9.484">
        <ele>456.430371</ele>
        <time>2020-08-05T12:51:35.377Z</time>
      </trkpt>
      <trkpt lat="63.31167" lon="9.48424">
        <ele>456.109857</ele>
        <time>2020-08-05T12:51:37.361Z</time>
      </trkpt>
      <trkpt lat="63.3117" lon="9.48446">
        <ele>455.801414</ele>
        <time>2020-08-05T12:51:39.373Z</time>
      </trkpt>
      <trkpt lat="63.31174" lon="9.48469">
        <ele>455.495706</ele>
        <time>2020-08-05T12:51:41.359Z</time>
      </trkpt>
      <trkpt lat="63.31177" lon="9.48491">
        <ele>455.184433</ele>
        <time>2020-08-05T12:51:43.386Z</time>
      </trkpt>
      <trkpt lat="63.31181" lon="9.48513">
        <ele>454.88141</ele>
        <time>2020-08-05T12:51:45.345Z</time>
      </trkpt>
      <trkpt lat="63.31185" lon="9.48536">
        <ele>454.580062</ele>
        <time>2020-08-05T12:51:47.321Z</time>
      </trkpt>
      <trkpt lat="63.31189" lon="9.4856">
        <ele>454.273373</ele>
        <time>2020-08-05T12:51:49.339Z</time>
      </trkpt>
      <trkpt lat="63.31193" lon="9.48586">
        <ele>453.948568</ele>
        <time>2020-08-05T12:51:51.370Z</time>
      </trkpt>
      <trkpt lat="63.31197" lon="9.48612">
        <ele>453.607077</ele>
        <time>2020-08-05T12:51:53.344Z</time>
      </trkpt>
      <trkpt lat="63.31202" lon="9.48642">
        <ele>453.230337</ele>
        <time>2020-08-05T12:51:55.339Z</time>
      </trkpt>
      <trkpt lat="63.31207" lon="9.48674">
        <ele>452.823766</ele>
        <time>2020-08-05T12:51:57.346Z</time>
      </trkpt>
      <trkpt lat="63.31213" lon="9.48707">
        <ele>452.394367</ele>
        <time>2020-08-05T12:51:59.321Z</time>
      </trkpt>
      <trkpt lat="63.31218" lon="9.48741">
        <ele>451.960453</ele>
        <time>2020-08-05T12:52:01.353Z</time>
      </trkpt>
      <trkpt lat="63.31223" lon="9.48775">
        <ele>451.531464</ele>
        <time>2020-08-05T12:52:03.333Z</time>
      </trkpt>
      <trkpt lat="63.31229" lon="9.48808">
        <ele>451.113565</ele>
        <time>2020-08-05T12:52:05.355Z</time>
      </trkpt>
      <trkpt lat="63.31234" lon="9.4884">
        <ele>450.700665</ele>
        <time>2020-08-05T12:52:07.342Z</time>
      </trkpt>
      <trkpt lat="63.31239" lon="9.48872">
        <ele>450.298131</ele>
        <time>2020-08-05T12:52:09.353Z</time>
      </trkpt>
      <trkpt lat="63.31244" lon="9.48903">
        <ele>449.903233</ele>
        <time>2020-08-05T12:52:11.327Z</time>
      </trkpt>
      <trkpt lat="63.31248" lon="9.48934">
        <ele>449.619286</ele>
        <time>2020-08-05T12:52:13.326Z</time>
      </trkpt>
      <trkpt lat="63.31252" lon="9.48965">
        <ele>449.343434</ele>
        <time>2020-08-05T12:52:15.342Z</time>
      </trkpt>
      <trkpt lat="63.31255" lon="9.48994">
        <ele>449.081694</ele>
        <time>2020-08-05T12:52:17.320Z</time>
      </trkpt>
      <trkpt lat="63.31258" lon="9.49022">
        <ele>448.828495</ele>
        <time>2020-08-05T12:52:19.386Z</time>
      </trkpt>
      <trkpt lat="63.3126" lon="9.49051">
        <ele>448.57594</ele>
        <time>2020-08-05T12:52:21.385Z</time>
      </trkpt>
      <trkpt lat="63.31262" lon="9.49079">
        <ele>448.326637</ele>
        <time>2020-08-05T12:52:23.337Z</time>
      </trkpt>
      <trkpt lat="63.31265" lon="9.49107">
        <ele>448.076795</ele>
        <time>2020-08-05T12:52:25.355Z</time>
      </trkpt>
      <trkpt lat="63.31267" lon="9.49135">
        <ele>447.820564</ele>
        <time>2020-08-05T12:52:27.329Z</time>
      </trkpt>
      <trkpt lat="63.3127" lon="9.49165">
        <ele>447.554744</ele>
        <time>2020-08-05T12:52:29.339Z</time>
      </trkpt>
      <trkpt lat="63.31272" lon="9.49196">
        <ele>447.281688</ele>
        <time>2020-08-05T12:52:31.339Z</time>
      </trkpt>
      <trkpt lat="63.31275" lon="9.49227">
        <ele>447.008111</ele>
        <time>2020-08-05T12:52:33.357Z</time>
      </trkpt>
      <trkpt lat="63.31277" lon="9.49258">
        <ele>446.731757</ele>
        <time>2020-08-05T12:52:35.343Z</time>
      </trkpt>
      <trkpt lat="63.31279" lon="9.49289">
        <ele>446.456704</ele>
        <time>2020-08-05T12:52:37.356Z</time>
      </trkpt>
      <trkpt lat="63.3128" lon="9.4932">
        <ele>446.150497</ele>
        <time>2020-08-05T12:52:39.336Z</time>
      </trkpt>
      <trkpt lat="63.31282" lon="9.49352">
        <ele>445.829889</ele>
        <time>2020-08-05T12:52:41.368Z</time>
      </trkpt>
      <trkpt lat="63.31284" lon="9.49383">
        <ele>445.515123</ele>
        <time>2020-08-05T12:52:43.335Z</time>
      </trkpt>
      <trkpt lat="63.31286" lon="9.49413">
        <ele>445.203237</ele>
        <time>2020-08-05T12:52:45.344Z</time>
      </trkpt>
      <trkpt lat="63.31287" lon="9.49444">
        <ele>444.897335</ele>
        <time>2020-08-05T12:52:47.343Z</time>
      </trkpt>
      <trkpt lat="63.31289" lon="9.49474">
        <ele>444.591147</ele>
        <time>2020-08-05T12:52:49.347Z</time>
      </trkpt>
      <trkpt lat="63.31291" lon="9.49505">
        <ele>444.278981</ele>
        <time>2020-08-05T12:52:51.343Z</time>
      </trkpt>
      <trkpt lat="63.31293" lon="9.49534">
        <ele>443.978065</ele>
        <time>2020-08-05T12:52:53.358Z</time>
      </trkpt>
      <trkpt lat="63.31295" lon="9.49564">
        <ele>443.678216</ele>
        <time>2020-08-05T12:52:55.369Z</time>
      </trkpt>
      <trkpt lat="63.31297" lon="9.49594">
        <ele>443.375385</ele>
        <time>2020-08-05T12:52:57.359Z</time>
      </trkpt>
      <trkpt lat="63.31299" lon="9.49624">
        <ele>443.067526</ele>
        <time>2020-08-05T12:52:59.376Z</time>
      </trkpt>
      <trkpt lat="63.313" lon="9.49654">
        <ele>442.760813</ele>
        <time>2020-08-05T12:53:01.337Z</time>
      </trkpt>
      <trkpt lat="63.31302" lon="9.49685">
        <ele>442.449676</ele>
        <time>2020-08-05T12:53:03.371Z</time>
      </trkpt>
      <trkpt lat="63.31304" lon="9.49717">
        <ele>442.261844</ele>
        <time>2020-08-05T12:53:05.361Z</time>
      </trkpt>
      <trkpt lat="63.31306" lon="9.49749">
        <ele>442.102444</ele>
        <time>2020-08-05T12:53:07.352Z</time>
      </trkpt>
      <trkpt lat="63.31308" lon="9.49781">
        <ele>441.943933</ele>
        <time>2020-08-05T12:53:09.325Z</time>
      </trkpt>
      <trkpt lat="63.3131" lon="9.49813">
        <ele>441.791096</ele>
        <time>2020-08-05T12:53:11.338Z</time>
      </trkpt>
      <trkpt lat="63.31311" lon="9.49841">
        <ele>441.651103</ele>
        <time>2020-08-05T12:53:13.352Z</time>
      </trkpt>
      <trkpt lat="63.31313" lon="9.49867">
        <ele>441.522501</ele>
        <time>2020-08-05T12:53:15.363Z</time>
      </trkpt>
      <trkpt lat="63.31314" lon="9.4989">
        <ele>441.407927</ele>
        <time>2020-08-05T12:53:17.339Z</time>
      </trkpt>
      <trkpt lat="63.31316" lon="9.49911">
        <ele>441.303296</ele>
        <time>2020-08-05T12:53:19.331Z</time>
      </trkpt>
      <trkpt lat="63.31318" lon="9.49937">
        <ele>441.17973</ele>
        <time>2020-08-05T12:53:22.343Z</time>
      </trkpt>
      <trkpt lat="63.31319" lon="9.49958">
        <ele>441.076316</ele>
        <time>2020-08-05T12:53:27.358Z</time>
      </trkpt>
      <trkpt lat="63.31322" lon="9.49981">
        <ele>440.959273</ele>
        <time>2020-08-05T12:57:28.361Z</time>
      </trkpt>
      <trkpt lat="63.31323" lon="9.50002">
        <ele>440.854997</ele>
        <time>2020-08-05T12:57:33.340Z</time>
      </trkpt>
      <trkpt lat="63.31325" lon="9.50027">
        <ele>440.73159</ele>
        <time>2020-08-05T12:57:37.371Z</time>
      </trkpt>
      <trkpt lat="63.31327" lon="9.50053">
        <ele>440.602634</ele>
        <time>2020-08-05T12:57:41.365Z</time>
      </trkpt>
      <trkpt lat="63.31329" lon="9.50074">
        <ele>440.496789</ele>
        <time>2020-08-05T12:57:44.361Z</time>
      </trkpt>
      <trkpt lat="63.31332" lon="9.50093">
        <ele>440.365374</ele>
        <time>2020-08-05T12:57:47.338Z</time>
      </trkpt>
      <trkpt lat="63.31336" lon="9.50111">
        <ele>440.186697</ele>
        <time>2020-08-05T12:57:50.339Z</time>
      </trkpt>
      <trkpt lat="63.31339" lon="9.50131">
        <ele>440.001579</ele>
        <time>2020-08-05T12:57:53.362Z</time>
      </trkpt>
      <trkpt lat="63.31341" lon="9.50151">
        <ele>439.814293</ele>
        <time>2020-08-05T12:57:56.362Z</time>
      </trkpt>
      <trkpt lat="63.31344" lon="9.50172">
        <ele>439.618313</ele>
        <time>2020-08-05T12:57:59.360Z</time>
      </trkpt>
      <trkpt lat="63.31346" lon="9.50195">
        <ele>439.406662</ele>
        <time>2020-08-05T12:58:02.335Z</time>
      </trkpt>
      <trkpt lat="63.3135" lon="9.5022">
        <ele>439.170881</ele>
        <time>2020-08-05T12:58:05.370Z</time>
      </trkpt>
      <trkpt lat="63.31355" lon="9.50247">
        <ele>438.909145</ele>
        <time>2020-08-05T12:58:08.360Z</time>
      </trkpt>
      <trkpt lat="63.31358" lon="9.50267">
        <ele>438.71612</ele>
        <time>2020-08-05T12:58:10.331Z</time>
      </trkpt>
      <trkpt lat="63.31361" lon="9.50288">
        <ele>438.517091</ele>
        <time>2020-08-05T12:58:12.379Z</time>
      </trkpt>
      <trkpt lat="63.31364" lon="9.50311">
        <ele>438.302187</ele>
        <time>2020-08-05T12:58:14.365Z</time>
      </trkpt>
      <trkpt lat="63.31368" lon="9.50334">
        <ele>438.083443</ele>
        <time>2020-08-05T12:58:16.346Z</time>
      </trkpt>
      <trkpt lat="63.31371" lon="9.50357">
        <ele>437.864878</ele>
        <time>2020-08-05T12:58:18.336Z</time>
      </trkpt>
      <trkpt lat="63.31375" lon="9.5038">
        <ele>437.647312</ele>
        <time>2020-08-05T12:58:20.337Z</time>
      </trkpt>
      <trkpt lat="63.31379" lon="9.50404">
        <ele>437.416408</ele>
        <time>2020-08-05T12:58:22.335Z</time>
      </trkpt>
      <trkpt lat="63.31383" lon="9.50429">
        <ele>437.173831</ele>
        <time>2020-08-05T12:58:24.358Z</time>
      </trkpt>
      <trkpt lat="63.31387" lon="9.50458">
        <ele>436.909696</ele>
        <time>2020-08-05T12:58:26.343Z</time>
      </trkpt>
      <trkpt lat="63.3139" lon="9.50487">
        <ele>436.632997</ele>
        <time>2020-08-05T12:58:28.342Z</time>
      </trkpt>
      <trkpt lat="63.31395" lon="9.50517">
        <ele>436.354799</ele>
        <time>2020-08-05T12:58:30.357Z</time>
      </trkpt>
      <trkpt lat="63.31398" lon="9.50544">
        <ele>436.096774</ele>
        <time>2020-08-05T12:58:32.351Z</time>
      </trkpt>
      <trkpt lat="63.31402" lon="9.50569">
        <ele>435.853492</ele>
        <time>2020-08-05T12:58:34.399Z</time>
      </trkpt>
      <trkpt lat="63.31405" lon="9.50594">
        <ele>435.62909</ele>
        <time>2020-08-05T12:58:36.363Z</time>
      </trkpt>
      <trkpt lat="63.31407" lon="9.50617">
        <ele>435.407982</ele>
        <time>2020-08-05T12:58:38.378Z</time>
      </trkpt>
      <trkpt lat="63.31411" lon="9.5064">
        <ele>435.190882</ele>
        <time>2020-08-05T12:58:40.346Z</time>
      </trkpt>
      <trkpt lat="63.31414" lon="9.50664">
        <ele>434.967144</ele>
        <time>2020-08-05T12:58:42.333Z</time>
      </trkpt>
      <trkpt lat="63.31418" lon="9.50689">
        <ele>434.729273</ele>
        <time>2020-08-05T12:58:44.350Z</time>
      </trkpt>
      <trkpt lat="63.31422" lon="9.50715">
        <ele>434.47958</ele>
        <time>2020-08-05T12:58:46.339Z</time>
      </trkpt>
      <trkpt lat="63.31427" lon="9.50742">
        <ele>434.214917</ele>
        <time>2020-08-05T12:58:48.383Z</time>
      </trkpt>
      <trkpt lat="63.31431" lon="9.50775">
        <ele>433.907581</ele>
        <time>2020-08-05T12:58:50.344Z</time>
      </trkpt>
      <trkpt lat="63.31437" lon="9.50812">
        <ele>433.547887</ele>
        <time>2020-08-05T12:58:52.357Z</time>
      </trkpt>
      <trkpt lat="63.3144" lon="9.50833">
        <ele>433.351558</ele>
        <time>2020-08-05T12:58:53.337Z</time>
      </trkpt>
      <trkpt lat="63.31443" lon="9.50854">
        <ele>433.065427</ele>
        <time>2020-08-05T12:58:54.342Z</time>
      </trkpt>
      <trkpt lat="63.31446" lon="9.50876">
        <ele>432.614512</ele>
        <time>2020-08-05T12:58:55.356Z</time>
      </trkpt>
      <trkpt lat="63.31449" lon="9.50898">
        <ele>432.151024</ele>
        <time>2020-08-05T12:58:56.344Z</time>
      </trkpt>
      <trkpt lat="63.31453" lon="9.50921">
        <ele>431.677628</ele>
        <time>2020-08-05T12:58:57.356Z</time>
      </trkpt>
      <trkpt lat="63.31456" lon="9.50945">
        <ele>431.198595</ele>
        <time>2020-08-05T12:58:58.354Z</time>
      </trkpt>
      <trkpt lat="63.31459" lon="9.50968">
        <ele>430.710758</ele>
        <time>2020-08-05T12:58:59.354Z</time>
      </trkpt>
      <trkpt lat="63.31463" lon="9.50993">
        <ele>430.203419</ele>
        <time>2020-08-05T12:59:00.405Z</time>
      </trkpt>
      <trkpt lat="63.31466" lon="9.51018">
        <ele>429.680299</ele>
        <time>2020-08-05T12:59:01.378Z</time>
      </trkpt>
      <trkpt lat="63.3147" lon="9.51044">
        <ele>429.145095</ele>
        <time>2020-08-05T12:59:02.380Z</time>
      </trkpt>
      <trkpt lat="63.31474" lon="9.5107">
        <ele>428.603248</ele>
        <time>2020-08-05T12:59:03.365Z</time>
      </trkpt>
      <trkpt lat="63.31478" lon="9.51097">
        <ele>428.055167</ele>
        <time>2020-08-05T12:59:04.341Z</time>
      </trkpt>
      <trkpt lat="63.31481" lon="9.51124">
        <ele>427.506379</ele>
        <time>2020-08-05T12:59:05.337Z</time>
      </trkpt>
      <trkpt lat="63.31485" lon="9.5115">
        <ele>426.973907</ele>
        <time>2020-08-05T12:59:06.331Z</time>
      </trkpt>
      <trkpt lat="63.31489" lon="9.51175">
        <ele>426.448921</ele>
        <time>2020-08-05T12:59:07.392Z</time>
      </trkpt>
      <trkpt lat="63.31492" lon="9.512">
        <ele>425.934084</ele>
        <time>2020-08-05T12:59:08.343Z</time>
      </trkpt>
      <trkpt lat="63.31496" lon="9.51224">
        <ele>425.434747</ele>
        <time>2020-08-05T12:59:09.339Z</time>
      </trkpt>
      <trkpt lat="63.31499" lon="9.51248">
        <ele>424.872482</ele>
        <time>2020-08-05T12:59:10.368Z</time>
      </trkpt>
      <trkpt lat="63.31502" lon="9.51271">
        <ele>424.305614</ele>
        <time>2020-08-05T12:59:11.339Z</time>
      </trkpt>
      <trkpt lat="63.31505" lon="9.51294">
        <ele>423.741713</ele>
        <time>2020-08-05T12:59:12.352Z</time>
      </trkpt>
      <trkpt lat="63.31508" lon="9.51317">
        <ele>423.171809</ele>
        <time>2020-08-05T12:59:13.377Z</time>
      </trkpt>
      <trkpt lat="63.31512" lon="9.51341">
        <ele>422.594472</ele>
        <time>2020-08-05T12:59:14.353Z</time>
      </trkpt>
      <trkpt lat="63.31515" lon="9.51365">
        <ele>422.006656</ele>
        <time>2020-08-05T12:59:15.363Z</time>
      </trkpt>
      <trkpt lat="63.31518" lon="9.51389">
        <ele>421.414361</ele>
        <time>2020-08-05T12:59:16.355Z</time>
      </trkpt>
      <trkpt lat="63.31522" lon="9.51414">
        <ele>420.803978</ele>
        <time>2020-08-05T12:59:17.355Z</time>
      </trkpt>
      <trkpt lat="63.31525" lon="9.51438">
        <ele>420.199646</ele>
        <time>2020-08-05T12:59:18.335Z</time>
      </trkpt>
      <trkpt lat="63.31529" lon="9.51463">
        <ele>419.595946</ele>
        <time>2020-08-05T12:59:19.336Z</time>
      </trkpt>
      <trkpt lat="63.31532" lon="9.51488">
        <ele>418.984914</ele>
        <time>2020-08-05T12:59:20.386Z</time>
      </trkpt>
      <trkpt lat="63.31536" lon="9.51513">
        <ele>418.367845</ele>
        <time>2020-08-05T12:59:21.332Z</time>
      </trkpt>
      <trkpt lat="63.3154" lon="9.51538">
        <ele>417.74408</ele>
        <time>2020-08-05T12:59:22.362Z</time>
      </trkpt>
      <trkpt lat="63.31543" lon="9.51564">
        <ele>417.107578</ele>
        <time>2020-08-05T12:59:23.335Z</time>
      </trkpt>
      <trkpt lat="63.31547" lon="9.5159">
        <ele>416.471703</ele>
        <time>2020-08-05T12:59:24.364Z</time>
      </trkpt>
      <trkpt lat="63.31551" lon="9.51616">
        <ele>415.794315</ele>
        <time>2020-08-05T12:59:25.367Z</time>
      </trkpt>
      <trkpt lat="63.31555" lon="9.51641">
        <ele>414.962639</ele>
        <time>2020-08-05T12:59:26.329Z</time>
      </trkpt>
      <trkpt lat="63.31559" lon="9.51666">
        <ele>414.141275</ele>
        <time>2020-08-05T12:59:27.363Z</time>
      </trkpt>
      <trkpt lat="63.31563" lon="9.51691">
        <ele>413.332287</ele>
        <time>2020-08-05T12:59:28.354Z</time>
      </trkpt>
      <trkpt lat="63.31567" lon="9.51714">
        <ele>412.562256</ele>
        <time>2020-08-05T12:59:29.343Z</time>
      </trkpt>
      <trkpt lat="63.31572" lon="9.51736">
        <ele>411.81484</ele>
        <time>2020-08-05T12:59:30.342Z</time>
      </trkpt>
      <trkpt lat="63.31577" lon="9.51757">
        <ele>411.07322</ele>
        <time>2020-08-05T12:59:31.348Z</time>
      </trkpt>
      <trkpt lat="63.31583" lon="9.51777">
        <ele>410.333471</ele>
        <time>2020-08-05T12:59:32.365Z</time>
      </trkpt>
      <trkpt lat="63.31589" lon="9.51796">
        <ele>409.595463</ele>
        <time>2020-08-05T12:59:33.341Z</time>
      </trkpt>
      <trkpt lat="63.31596" lon="9.51814">
        <ele>408.843714</ele>
        <time>2020-08-05T12:59:34.345Z</time>
      </trkpt>
      <trkpt lat="63.31604" lon="9.51832">
        <ele>408.086254</ele>
        <time>2020-08-05T12:59:35.399Z</time>
      </trkpt>
      <trkpt lat="63.31613" lon="9.51848">
        <ele>407.319651</ele>
        <time>2020-08-05T12:59:36.372Z</time>
      </trkpt>
      <trkpt lat="63.31622" lon="9.51863">
        <ele>406.527756</ele>
        <time>2020-08-05T12:59:37.350Z</time>
      </trkpt>
      <trkpt lat="63.31632" lon="9.51878">
        <ele>405.689334</ele>
        <time>2020-08-05T12:59:38.369Z</time>
      </trkpt>
      <trkpt lat="63.31643" lon="9.51892">
        <ele>404.822014</ele>
        <time>2020-08-05T12:59:39.385Z</time>
      </trkpt>
      <trkpt lat="63.31654" lon="9.51905">
        <ele>403.94576</ele>
        <time>2020-08-05T12:59:40.374Z</time>
      </trkpt>
      <trkpt lat="63.31665" lon="9.51919">
        <ele>402.927697</ele>
        <time>2020-08-05T12:59:41.362Z</time>
      </trkpt>
      <trkpt lat="63.31676" lon="9.51932">
        <ele>401.814958</ele>
        <time>2020-08-05T12:59:42.384Z</time>
      </trkpt>
      <trkpt lat="63.31686" lon="9.51945">
        <ele>400.708144</ele>
        <time>2020-08-05T12:59:43.347Z</time>
      </trkpt>
      <trkpt lat="63.31697" lon="9.51957">
        <ele>399.609059</ele>
        <time>2020-08-05T12:59:44.356Z</time>
      </trkpt>
      <trkpt lat="63.31708" lon="9.51969">
        <ele>398.505577</ele>
        <time>2020-08-05T12:59:45.372Z</time>
      </trkpt>
      <trkpt lat="63.31718" lon="9.51981">
        <ele>397.412163</ele>
        <time>2020-08-05T12:59:46.392Z</time>
      </trkpt>
      <trkpt lat="63.31729" lon="9.51993">
        <ele>396.331288</ele>
        <time>2020-08-05T12:59:47.325Z</time>
      </trkpt>
      <trkpt lat="63.31739" lon="9.52005">
        <ele>395.239741</ele>
        <time>2020-08-05T12:59:48.342Z</time>
      </trkpt>
      <trkpt lat="63.3175" lon="9.52017">
        <ele>394.098659</ele>
        <time>2020-08-05T12:59:49.358Z</time>
      </trkpt>
      <trkpt lat="63.31762" lon="9.52029">
        <ele>392.952189</ele>
        <time>2020-08-05T12:59:50.351Z</time>
      </trkpt>
      <trkpt lat="63.31773" lon="9.52042">
        <ele>391.802067</ele>
        <time>2020-08-05T12:59:51.358Z</time>
      </trkpt>
      <trkpt lat="63.31784" lon="9.52055">
        <ele>390.624367</ele>
        <time>2020-08-05T12:59:52.390Z</time>
      </trkpt>
      <trkpt lat="63.31796" lon="9.52068">
        <ele>389.430909</ele>
        <time>2020-08-05T12:59:53.364Z</time>
      </trkpt>
      <trkpt lat="63.31807" lon="9.52081">
        <ele>388.228591</ele>
        <time>2020-08-05T12:59:54.385Z</time>
      </trkpt>
      <trkpt lat="63.31819" lon="9.52094">
        <ele>386.998063</ele>
        <time>2020-08-05T12:59:55.357Z</time>
      </trkpt>
      <trkpt lat="63.31832" lon="9.52107">
        <ele>385.710817</ele>
        <time>2020-08-05T12:59:56.359Z</time>
      </trkpt>
      <trkpt lat="63.31844" lon="9.52121">
        <ele>384.399827</ele>
        <time>2020-08-05T12:59:57.332Z</time>
      </trkpt>
      <trkpt lat="63.31856" lon="9.52136">
        <ele>383.070595</ele>
        <time>2020-08-05T12:59:58.358Z</time>
      </trkpt>
      <trkpt lat="63.31868" lon="9.52151">
        <ele>381.760099</ele>
        <time>2020-08-05T12:59:59.356Z</time>
      </trkpt>
      <trkpt lat="63.31881" lon="9.52165">
        <ele>380.449806</ele>
        <time>2020-08-05T13:00:00.370Z</time>
      </trkpt>
      <trkpt lat="63.31892" lon="9.52181">
        <ele>379.157976</ele>
        <time>2020-08-05T13:00:01.361Z</time>
      </trkpt>
      <trkpt lat="63.31904" lon="9.52197">
        <ele>377.868441</ele>
        <time>2020-08-05T13:00:02.361Z</time>
      </trkpt>
      <trkpt lat="63.31915" lon="9.52214">
        <ele>376.5996</ele>
        <time>2020-08-05T13:00:03.344Z</time>
      </trkpt>
      <trkpt lat="63.31926" lon="9.52232">
        <ele>375.321215</ele>
        <time>2020-08-05T13:00:04.353Z</time>
      </trkpt>
      <trkpt lat="63.31936" lon="9.52249">
        <ele>374.058098</ele>
        <time>2020-08-05T13:00:05.343Z</time>
      </trkpt>
      <trkpt lat="63.31947" lon="9.52267">
        <ele>372.810146</ele>
        <time>2020-08-05T13:00:06.392Z</time>
      </trkpt>
      <trkpt lat="63.31957" lon="9.52285">
        <ele>371.609703</ele>
        <time>2020-08-05T13:00:07.362Z</time>
      </trkpt>
      <trkpt lat="63.31966" lon="9.52303">
        <ele>370.434893</ele>
        <time>2020-08-05T13:00:08.364Z</time>
      </trkpt>
      <trkpt lat="63.31975" lon="9.52321">
        <ele>369.207397</ele>
        <time>2020-08-05T13:00:09.337Z</time>
      </trkpt>
      <trkpt lat="63.31984" lon="9.52339">
        <ele>367.966358</ele>
        <time>2020-08-05T13:00:10.333Z</time>
      </trkpt>
      <trkpt lat="63.31991" lon="9.52357">
        <ele>366.756866</ele>
        <time>2020-08-05T13:00:11.361Z</time>
      </trkpt>
      <trkpt lat="63.31999" lon="9.52376">
        <ele>365.565514</ele>
        <time>2020-08-05T13:00:12.399Z</time>
      </trkpt>
      <trkpt lat="63.32006" lon="9.52396">
        <ele>364.393441</ele>
        <time>2020-08-05T13:00:13.347Z</time>
      </trkpt>
      <trkpt lat="63.32012" lon="9.52415">
        <ele>363.263665</ele>
        <time>2020-08-05T13:00:14.337Z</time>
      </trkpt>
      <trkpt lat="63.32018" lon="9.52434">
        <ele>362.145367</ele>
        <time>2020-08-05T13:00:15.356Z</time>
      </trkpt>
      <trkpt lat="63.32025" lon="9.52453">
        <ele>361.010203</ele>
        <time>2020-08-05T13:00:16.334Z</time>
      </trkpt>
      <trkpt lat="63.3203" lon="9.52473">
        <ele>359.90875</ele>
        <time>2020-08-05T13:00:17.344Z</time>
      </trkpt>
      <trkpt lat="63.32036" lon="9.52492">
        <ele>358.823149</ele>
        <time>2020-08-05T13:00:18.332Z</time>
      </trkpt>
      <trkpt lat="63.32042" lon="9.52511">
        <ele>357.723766</ele>
        <time>2020-08-05T13:00:19.337Z</time>
      </trkpt>
      <trkpt lat="63.32048" lon="9.52531">
        <ele>356.600621</ele>
        <time>2020-08-05T13:00:20.352Z</time>
      </trkpt>
      <trkpt lat="63.32053" lon="9.52551">
        <ele>355.453498</ele>
        <time>2020-08-05T13:00:21.340Z</time>
      </trkpt>
      <trkpt lat="63.32059" lon="9.52572">
        <ele>354.286959</ele>
        <time>2020-08-05T13:00:22.380Z</time>
      </trkpt>
      <trkpt lat="63.32065" lon="9.52592">
        <ele>353.106686</ele>
        <time>2020-08-05T13:00:23.372Z</time>
      </trkpt>
      <trkpt lat="63.32072" lon="9.52613">
        <ele>351.938321</ele>
        <time>2020-08-05T13:00:24.356Z</time>
      </trkpt>
      <trkpt lat="63.32077" lon="9.52633">
        <ele>350.931424</ele>
        <time>2020-08-05T13:00:25.330Z</time>
      </trkpt>
      <trkpt lat="63.32083" lon="9.52652">
        <ele>350.623829</ele>
        <time>2020-08-05T13:00:26.356Z</time>
      </trkpt>
      <trkpt lat="63.32089" lon="9.52671">
        <ele>350.320606</ele>
        <time>2020-08-05T13:00:27.342Z</time>
      </trkpt>
      <trkpt lat="63.32095" lon="9.5269">
        <ele>350.019559</ele>
        <time>2020-08-05T13:00:28.379Z</time>
      </trkpt>
      <trkpt lat="63.32101" lon="9.52709">
        <ele>349.718381</ele>
        <time>2020-08-05T13:00:29.348Z</time>
      </trkpt>
      <trkpt lat="63.32106" lon="9.52727">
        <ele>349.426574</ele>
        <time>2020-08-05T13:00:30.394Z</time>
      </trkpt>
      <trkpt lat="63.32112" lon="9.52745">
        <ele>349.132008</ele>
        <time>2020-08-05T13:00:31.355Z</time>
      </trkpt>
      <trkpt lat="63.32118" lon="9.52763">
        <ele>348.8445</ele>
        <time>2020-08-05T13:00:32.347Z</time>
      </trkpt>
      <trkpt lat="63.32123" lon="9.5278">
        <ele>348.570657</ele>
        <time>2020-08-05T13:00:33.341Z</time>
      </trkpt>
      <trkpt lat="63.32129" lon="9.52797">
        <ele>348.298495</ele>
        <time>2020-08-05T13:00:34.346Z</time>
      </trkpt>
      <trkpt lat="63.32137" lon="9.52828">
        <ele>347.817309</ele>
        <time>2020-08-05T13:00:36.376Z</time>
      </trkpt>
      <trkpt lat="63.32141" lon="9.52854">
        <ele>347.46203</ele>
        <time>2020-08-05T13:00:38.370Z</time>
      </trkpt>
      <trkpt lat="63.32138" lon="9.52875">
        <ele>347.16556</ele>
        <time>2020-08-05T13:00:40.342Z</time>
      </trkpt>
      <trkpt lat="63.32131" lon="9.52892">
        <ele>346.867044</ele>
        <time>2020-08-05T13:00:42.337Z</time>
      </trkpt>
      <trkpt lat="63.32121" lon="9.52905">
        <ele>346.523395</ele>
        <time>2020-08-05T13:00:44.333Z</time>
      </trkpt>
      <trkpt lat="63.32111" lon="9.52919">
        <ele>346.18272</ele>
        <time>2020-08-05T13:00:46.379Z</time>
      </trkpt>
      <trkpt lat="63.32103" lon="9.52931">
        <ele>345.899491</ele>
        <time>2020-08-05T13:00:48.362Z</time>
      </trkpt>
      <trkpt lat="63.32096" lon="9.52943">
        <ele>345.839612</ele>
        <time>2020-08-05T13:00:50.365Z</time>
      </trkpt>
      <trkpt lat="63.32086" lon="9.52959">
        <ele>346.429577</ele>
        <time>2020-08-05T13:00:53.346Z</time>
      </trkpt>
      <trkpt lat="63.32077" lon="9.52977">
        <ele>347.026518</ele>
        <time>2020-08-05T13:00:56.335Z</time>
      </trkpt>
      <trkpt lat="63.32068" lon="9.52995">
        <ele>347.615467</ele>
        <time>2020-08-05T13:00:59.361Z</time>
      </trkpt>
      <trkpt lat="63.32059" lon="9.53012">
        <ele>348.168744</ele>
        <time>2020-08-05T13:01:02.361Z</time>
      </trkpt>
      <trkpt lat="63.32051" lon="9.53029">
        <ele>348.7143</ele>
        <time>2020-08-05T13:01:05.362Z</time>
      </trkpt>
      <trkpt lat="63.32043" lon="9.53047">
        <ele>349.283044</ele>
        <time>2020-08-05T13:01:08.359Z</time>
      </trkpt>
      <trkpt lat="63.32034" lon="9.53066">
        <ele>349.867411</ele>
        <time>2020-08-05T13:01:11.361Z</time>
      </trkpt>
      <trkpt lat="63.32026" lon="9.53084">
        <ele>350.444208</ele>
        <time>2020-08-05T13:01:14.356Z</time>
      </trkpt>
      <trkpt lat="63.32017" lon="9.53101">
        <ele>350.993891</ele>
        <time>2020-08-05T13:01:17.384Z</time>
      </trkpt>
      <trkpt lat="63.32009" lon="9.53117">
        <ele>351.537687</ele>
        <time>2020-08-05T13:01:20.353Z</time>
      </trkpt>
      <trkpt lat="63.32001" lon="9.53134">
        <ele>352.078736</ele>
        <time>2020-08-05T13:01:23.338Z</time>
      </trkpt>
      <trkpt lat="63.31993" lon="9.53152">
        <ele>352.627327</ele>
        <time>2020-08-05T13:01:26.348Z</time>
      </trkpt>
      <trkpt lat="63.31985" lon="9.53168">
        <ele>353.150808</ele>
        <time>2020-08-05T13:01:29.339Z</time>
      </trkpt>
      <trkpt lat="63.31978" lon="9.53183">
        <ele>353.636994</ele>
        <time>2020-08-05T13:01:32.332Z</time>
      </trkpt>
      <trkpt lat="63.3197" lon="9.53199">
        <ele>354.129206</ele>
        <time>2020-08-05T13:01:35.346Z</time>
      </trkpt>
      <trkpt lat="63.31963" lon="9.53215">
        <ele>354.550196</ele>
        <time>2020-08-05T13:01:38.354Z</time>
      </trkpt>
      <trkpt lat="63.31956" lon="9.53232">
        <ele>354.777766</ele>
        <time>2020-08-05T13:01:41.399Z</time>
      </trkpt>
      <trkpt lat="63.31949" lon="9.53247">
        <ele>354.982869</ele>
        <time>2020-08-05T13:01:44.365Z</time>
      </trkpt>
      <trkpt lat="63.31943" lon="9.53263">
        <ele>355.195256</ele>
        <time>2020-08-05T13:01:47.346Z</time>
      </trkpt>
      <trkpt lat="63.31936" lon="9.53279">
        <ele>355.410548</ele>
        <time>2020-08-05T13:01:50.345Z</time>
      </trkpt>
      <trkpt lat="63.31929" lon="9.53296">
        <ele>355.632315</ele>
        <time>2020-08-05T13:01:53.350Z</time>
      </trkpt>
      <trkpt lat="63.31922" lon="9.53314">
        <ele>355.85632</ele>
        <time>2020-08-05T13:01:56.360Z</time>
      </trkpt>
      <trkpt lat="63.31915" lon="9.53331">
        <ele>356.085331</ele>
        <time>2020-08-05T13:01:59.345Z</time>
      </trkpt>
      <trkpt lat="63.31908" lon="9.5335">
        <ele>356.322754</ele>
        <time>2020-08-05T13:02:02.342Z</time>
      </trkpt>
      <trkpt lat="63.31902" lon="9.53371">
        <ele>356.569247</ele>
        <time>2020-08-05T13:02:05.363Z</time>
      </trkpt>
      <trkpt lat="63.31895" lon="9.5339">
        <ele>356.80424</ele>
        <time>2020-08-05T13:02:08.338Z</time>
      </trkpt>
      <trkpt lat="63.31888" lon="9.53412">
        <ele>357.062443</ele>
        <time>2020-08-05T13:02:11.335Z</time>
      </trkpt>
      <trkpt lat="63.31881" lon="9.53436">
        <ele>357.347629</ele>
        <time>2020-08-05T13:02:14.392Z</time>
      </trkpt>
      <trkpt lat="63.31873" lon="9.53457">
        <ele>357.619508</ele>
        <time>2020-08-05T13:02:17.342Z</time>
      </trkpt>
      <trkpt lat="63.31864" lon="9.5348">
        <ele>357.909468</ele>
        <time>2020-08-05T13:02:20.336Z</time>
      </trkpt>
      <trkpt lat="63.31858" lon="9.53496">
        <ele>358.107646</ele>
        <time>2020-08-05T13:02:22.396Z</time>
      </trkpt>
      <trkpt lat="63.31853" lon="9.53513">
        <ele>358.314118</ele>
        <time>2020-08-05T13:02:24.333Z</time>
      </trkpt>
      <trkpt lat="63.31847" lon="9.53532">
        <ele>358.027683</ele>
        <time>2020-08-05T13:02:26.340Z</time>
      </trkpt>
      <trkpt lat="63.31842" lon="9.5355">
        <ele>357.54072</ele>
        <time>2020-08-05T13:02:28.419Z</time>
      </trkpt>
      <trkpt lat="63.31837" lon="9.53569">
        <ele>357.059449</ele>
        <time>2020-08-05T13:02:30.355Z</time>
      </trkpt>
      <trkpt lat="63.31832" lon="9.53589">
        <ele>356.547583</ele>
        <time>2020-08-05T13:02:32.394Z</time>
      </trkpt>
      <trkpt lat="63.31828" lon="9.5361">
        <ele>356.025222</ele>
        <time>2020-08-05T13:02:34.337Z</time>
      </trkpt>
      <trkpt lat="63.31823" lon="9.53632">
        <ele>355.492542</ele>
        <time>2020-08-05T13:02:36.376Z</time>
      </trkpt>
      <trkpt lat="63.31819" lon="9.53653">
        <ele>354.966207</ele>
        <time>2020-08-05T13:02:38.333Z</time>
      </trkpt>
      <trkpt lat="63.31815" lon="9.53676">
        <ele>354.429418</ele>
        <time>2020-08-05T13:02:40.362Z</time>
      </trkpt>
      <trkpt lat="63.31811" lon="9.53697">
        <ele>353.906877</ele>
        <time>2020-08-05T13:02:42.332Z</time>
      </trkpt>
      <trkpt lat="63.31807" lon="9.5372">
        <ele>353.371947</ele>
        <time>2020-08-05T13:02:44.362Z</time>
      </trkpt>
      <trkpt lat="63.31803" lon="9.53743">
        <ele>352.830969</ele>
        <time>2020-08-05T13:02:46.354Z</time>
      </trkpt>
      <trkpt lat="63.31799" lon="9.53766">
        <ele>352.269916</ele>
        <time>2020-08-05T13:02:48.393Z</time>
      </trkpt>
      <trkpt lat="63.31796" lon="9.53789">
        <ele>351.731046</ele>
        <time>2020-08-05T13:02:50.333Z</time>
      </trkpt>
      <trkpt lat="63.31792" lon="9.53813">
        <ele>351.178403</ele>
        <time>2020-08-05T13:02:52.390Z</time>
      </trkpt>
      <trkpt lat="63.31789" lon="9.53836">
        <ele>350.624747</ele>
        <time>2020-08-05T13:02:54.357Z</time>
      </trkpt>
      <trkpt lat="63.31785" lon="9.5386">
        <ele>350.061586</ele>
        <time>2020-08-05T13:02:56.374Z</time>
      </trkpt>
      <trkpt lat="63.31781" lon="9.53885">
        <ele>349.470784</ele>
        <time>2020-08-05T13:02:58.346Z</time>
      </trkpt>
      <trkpt lat="63.31777" lon="9.5391">
        <ele>349.473315</ele>
        <time>2020-08-05T13:03:00.396Z</time>
      </trkpt>
      <trkpt lat="63.31772" lon="9.53934">
        <ele>349.490662</ele>
        <time>2020-08-05T13:03:02.372Z</time>
      </trkpt>
      <trkpt lat="63.31768" lon="9.53958">
        <ele>349.507529</ele>
        <time>2020-08-05T13:03:04.345Z</time>
      </trkpt>
      <trkpt lat="63.31764" lon="9.53981">
        <ele>349.524388</ele>
        <time>2020-08-05T13:03:06.351Z</time>
      </trkpt>
      <trkpt lat="63.31759" lon="9.54005">
        <ele>349.541262</ele>
        <time>2020-08-05T13:03:08.346Z</time>
      </trkpt>
      <trkpt lat="63.31755" lon="9.54028">
        <ele>349.558119</ele>
        <time>2020-08-05T13:03:10.393Z</time>
      </trkpt>
      <trkpt lat="63.3175" lon="9.54051">
        <ele>349.574554</ele>
        <time>2020-08-05T13:03:12.355Z</time>
      </trkpt>
      <trkpt lat="63.31746" lon="9.54072">
        <ele>349.589721</ele>
        <time>2020-08-05T13:03:14.341Z</time>
      </trkpt>
      <trkpt lat="63.31742" lon="9.54091">
        <ele>349.604162</ele>
        <time>2020-08-05T13:03:16.363Z</time>
      </trkpt>
      <trkpt lat="63.31738" lon="9.5411">
        <ele>349.617695</ele>
        <time>2020-08-05T13:03:18.383Z</time>
      </trkpt>
      <trkpt lat="63.31734" lon="9.54128">
        <ele>349.631108</ele>
        <time>2020-08-05T13:03:20.355Z</time>
      </trkpt>
      <trkpt lat="63.31728" lon="9.54154">
        <ele>349.650442</ele>
        <time>2020-08-05T13:03:23.358Z</time>
      </trkpt>
      <trkpt lat="63.31722" lon="9.54179">
        <ele>349.669004</ele>
        <time>2020-08-05T13:03:26.388Z</time>
      </trkpt>
      <trkpt lat="63.31717" lon="9.54203">
        <ele>349.686646</ele>
        <time>2020-08-05T13:03:29.351Z</time>
      </trkpt>
      <trkpt lat="63.31713" lon="9.54227">
        <ele>349.703442</ele>
        <time>2020-08-05T13:03:32.344Z</time>
      </trkpt>
      <trkpt lat="63.31708" lon="9.54249">
        <ele>349.719761</ele>
        <time>2020-08-05T13:03:35.367Z</time>
      </trkpt>
      <trkpt lat="63.31704" lon="9.5427">
        <ele>349.824029</ele>
        <time>2020-08-05T13:03:38.343Z</time>
      </trkpt>
      <trkpt lat="63.31699" lon="9.54292">
        <ele>349.940465</ele>
        <time>2020-08-05T13:03:41.340Z</time>
      </trkpt>
      <trkpt lat="63.31695" lon="9.54314">
        <ele>350.057801</ele>
        <time>2020-08-05T13:03:44.371Z</time>
      </trkpt>
      <trkpt lat="63.31691" lon="9.54336">
        <ele>350.175157</ele>
        <time>2020-08-05T13:03:47.336Z</time>
      </trkpt>
      <trkpt lat="63.31686" lon="9.54361">
        <ele>350.307222</ele>
        <time>2020-08-05T13:03:50.340Z</time>
      </trkpt>
      <trkpt lat="63.31681" lon="9.54389">
        <ele>350.452946</ele>
        <time>2020-08-05T13:03:53.378Z</time>
      </trkpt>
      <trkpt lat="63.31677" lon="9.54417">
        <ele>350.595705</ele>
        <time>2020-08-05T13:03:56.358Z</time>
      </trkpt>
      <trkpt lat="63.31675" lon="9.54436">
        <ele>350.693776</ele>
        <time>2020-08-05T13:03:58.354Z</time>
      </trkpt>
      <trkpt lat="63.31672" lon="9.54461">
        <ele>350.823364</ele>
        <time>2020-08-05T13:04:01.347Z</time>
      </trkpt>
      <trkpt lat="63.31669" lon="9.54486">
        <ele>350.944562</ele>
        <time>2020-08-05T13:04:04.332Z</time>
      </trkpt>
      <trkpt lat="63.31668" lon="9.54509">
        <ele>351.059518</ele>
        <time>2020-08-05T13:04:07.343Z</time>
      </trkpt>
      <trkpt lat="63.31666" lon="9.5453">
        <ele>351.165439</ele>
        <time>2020-08-05T13:04:10.367Z</time>
      </trkpt>
      <trkpt lat="63.31664" lon="9.54551">
        <ele>351.270568</ele>
        <time>2020-08-05T13:04:13.354Z</time>
      </trkpt>
      <trkpt lat="63.31663" lon="9.54573">
        <ele>351.377294</ele>
        <time>2020-08-05T13:04:16.358Z</time>
      </trkpt>
      <trkpt lat="63.31661" lon="9.54599">
        <ele>351.506965</ele>
        <time>2020-08-05T13:04:20.334Z</time>
      </trkpt>
      <trkpt lat="63.31658" lon="9.54625">
        <ele>351.636041</ele>
        <time>2020-08-05T13:04:24.344Z</time>
      </trkpt>
      <trkpt lat="63.31656" lon="9.54648">
        <ele>351.596558</ele>
        <time>2020-08-05T13:04:28.356Z</time>
      </trkpt>
      <trkpt lat="63.31654" lon="9.54672">
        <ele>351.461065</ele>
        <time>2020-08-05T13:04:32.369Z</time>
      </trkpt>
      <trkpt lat="63.31651" lon="9.54691">
        <ele>351.345881</ele>
        <time>2020-08-05T13:04:35.382Z</time>
      </trkpt>
      <trkpt lat="63.31648" lon="9.54712">
        <ele>351.223014</ele>
        <time>2020-08-05T13:04:38.343Z</time>
      </trkpt>
      <trkpt lat="63.31645" lon="9.54734">
        <ele>351.09399</ele>
        <time>2020-08-05T13:04:41.352Z</time>
      </trkpt>
      <trkpt lat="63.31642" lon="9.54758">
        <ele>350.95493</ele>
        <time>2020-08-05T13:04:44.333Z</time>
      </trkpt>
      <trkpt lat="63.31639" lon="9.54783">
        <ele>350.805773</ele>
        <time>2020-08-05T13:04:47.369Z</time>
      </trkpt>
      <trkpt lat="63.31635" lon="9.54811">
        <ele>350.64351</ele>
        <time>2020-08-05T13:04:50.359Z</time>
      </trkpt>
      <trkpt lat="63.31633" lon="9.54831">
        <ele>350.5271</ele>
        <time>2020-08-05T13:04:52.361Z</time>
      </trkpt>
      <trkpt lat="63.3163" lon="9.54852">
        <ele>350.402612</ele>
        <time>2020-08-05T13:04:54.334Z</time>
      </trkpt>
      <trkpt lat="63.31627" lon="9.54874">
        <ele>350.270028</ele>
        <time>2020-08-05T13:04:56.331Z</time>
      </trkpt>
      <trkpt lat="63.31624" lon="9.54896">
        <ele>350.141546</ele>
        <time>2020-08-05T13:04:58.343Z</time>
      </trkpt>
      <trkpt lat="63.31621" lon="9.54917">
        <ele>350.021196</ele>
        <time>2020-08-05T13:05:00.354Z</time>
      </trkpt>
      <trkpt lat="63.31619" lon="9.54936">
        <ele>349.907495</ele>
        <time>2020-08-05T13:05:02.374Z</time>
      </trkpt>
      <trkpt lat="63.31616" lon="9.54964">
        <ele>349.747139</ele>
        <time>2020-08-05T13:05:05.361Z</time>
      </trkpt>
      <trkpt lat="63.31612" lon="9.54989">
        <ele>349.597097</ele>
        <time>2020-08-05T13:05:08.370Z</time>
      </trkpt>
      <trkpt lat="63.31609" lon="9.55015">
        <ele>349.445266</ele>
        <time>2020-08-05T13:05:11.372Z</time>
      </trkpt>
      <trkpt lat="63.31606" lon="9.55042">
        <ele>349.595631</ele>
        <time>2020-08-05T13:05:14.363Z</time>
      </trkpt>
      <trkpt lat="63.31602" lon="9.55066">
        <ele>349.786509</ele>
        <time>2020-08-05T13:05:17.340Z</time>
      </trkpt>
      <trkpt lat="63.31599" lon="9.55091">
        <ele>349.972711</ele>
        <time>2020-08-05T13:05:20.384Z</time>
      </trkpt>
      <trkpt lat="63.31595" lon="9.55114">
        <ele>350.150748</ele>
        <time>2020-08-05T13:05:23.342Z</time>
      </trkpt>
      <trkpt lat="63.31592" lon="9.55137">
        <ele>350.327199</ele>
        <time>2020-08-05T13:05:26.345Z</time>
      </trkpt>
      <trkpt lat="63.31589" lon="9.55159">
        <ele>350.49728</ele>
        <time>2020-08-05T13:05:29.338Z</time>
      </trkpt>
      <trkpt lat="63.31586" lon="9.55182">
        <ele>350.670641</ele>
        <time>2020-08-05T13:05:32.388Z</time>
      </trkpt>
      <trkpt lat="63.31582" lon="9.55205">
        <ele>350.853369</ele>
        <time>2020-08-05T13:05:35.358Z</time>
      </trkpt>
      <trkpt lat="63.31578" lon="9.55231">
        <ele>351.051315</ele>
        <time>2020-08-05T13:05:38.343Z</time>
      </trkpt>
      <trkpt lat="63.31574" lon="9.55259">
        <ele>351.270253</ele>
        <time>2020-08-05T13:05:41.339Z</time>
      </trkpt>
      <trkpt lat="63.31571" lon="9.55279">
        <ele>351.42504</ele>
        <time>2020-08-05T13:05:43.363Z</time>
      </trkpt>
      <trkpt lat="63.31568" lon="9.553">
        <ele>351.581387</ele>
        <time>2020-08-05T13:05:45.385Z</time>
      </trkpt>
      <trkpt lat="63.31565" lon="9.5532">
        <ele>351.737734</ele>
        <time>2020-08-05T13:05:47.334Z</time>
      </trkpt>
      <trkpt lat="63.31561" lon="9.5534">
        <ele>351.894185</ele>
        <time>2020-08-05T13:05:49.379Z</time>
      </trkpt>
      <trkpt lat="63.31558" lon="9.55359">
        <ele>352.046364</ele>
        <time>2020-08-05T13:05:51.344Z</time>
      </trkpt>
      <trkpt lat="63.31554" lon="9.55378">
        <ele>352.196526</ele>
        <time>2020-08-05T13:05:53.353Z</time>
      </trkpt>
      <trkpt lat="63.3155" lon="9.55396">
        <ele>352.344766</ele>
        <time>2020-08-05T13:05:55.337Z</time>
      </trkpt>
      <trkpt lat="63.31546" lon="9.55414">
        <ele>352.359732</ele>
        <time>2020-08-05T13:05:57.340Z</time>
      </trkpt>
      <trkpt lat="63.31539" lon="9.55439">
        <ele>352.368754</ele>
        <time>2020-08-05T13:06:00.363Z</time>
      </trkpt>
      <trkpt lat="63.31532" lon="9.55463">
        <ele>352.377479</ele>
        <time>2020-08-05T13:06:03.326Z</time>
      </trkpt>
      <trkpt lat="63.31525" lon="9.55485">
        <ele>352.385812</ele>
        <time>2020-08-05T13:06:06.344Z</time>
      </trkpt>
      <trkpt lat="63.31517" lon="9.55506">
        <ele>352.394132</ele>
        <time>2020-08-05T13:06:09.335Z</time>
      </trkpt>
      <trkpt lat="63.31508" lon="9.55526">
        <ele>352.402796</ele>
        <time>2020-08-05T13:06:12.364Z</time>
      </trkpt>
      <trkpt lat="63.31499" lon="9.55545">
        <ele>352.411444</ele>
        <time>2020-08-05T13:06:15.339Z</time>
      </trkpt>
      <trkpt lat="63.31488" lon="9.55563">
        <ele>352.420518</ele>
        <time>2020-08-05T13:06:18.338Z</time>
      </trkpt>
      <trkpt lat="63.31477" lon="9.5558">
        <ele>352.429638</ele>
        <time>2020-08-05T13:06:21.369Z</time>
      </trkpt>
      <trkpt lat="63.31467" lon="9.55594">
        <ele>352.437968</ele>
        <time>2020-08-05T13:06:24.366Z</time>
      </trkpt>
      <trkpt lat="63.31456" lon="9.55606">
        <ele>352.446438</ele>
        <time>2020-08-05T13:06:27.336Z</time>
      </trkpt>
      <trkpt lat="63.31444" lon="9.55618">
        <ele>352.455136</ele>
        <time>2020-08-05T13:06:30.374Z</time>
      </trkpt>
      <trkpt lat="63.31432" lon="9.55627">
        <ele>352.463981</ele>
        <time>2020-08-05T13:06:33.373Z</time>
      </trkpt>
      <trkpt lat="63.31419" lon="9.55637">
        <ele>352.473164</ele>
        <time>2020-08-05T13:06:36.381Z</time>
      </trkpt>
      <trkpt lat="63.3141" lon="9.55642">
        <ele>352.415077</ele>
        <time>2020-08-05T13:06:38.377Z</time>
      </trkpt>
      <trkpt lat="63.31401" lon="9.55648">
        <ele>352.284737</ele>
        <time>2020-08-05T13:06:40.392Z</time>
      </trkpt>
      <trkpt lat="63.31391" lon="9.55653">
        <ele>352.153862</ele>
        <time>2020-08-05T13:06:42.330Z</time>
      </trkpt>
      <trkpt lat="63.31382" lon="9.55659">
        <ele>352.018865</ele>
        <time>2020-08-05T13:06:44.366Z</time>
      </trkpt>
      <trkpt lat="63.31372" lon="9.55663">
        <ele>351.882766</ele>
        <time>2020-08-05T13:06:46.374Z</time>
      </trkpt>
      <trkpt lat="63.31361" lon="9.55668">
        <ele>351.735951</ele>
        <time>2020-08-05T13:06:48.383Z</time>
      </trkpt>
      <trkpt lat="63.31351" lon="9.55673">
        <ele>351.586974</ele>
        <time>2020-08-05T13:06:50.335Z</time>
      </trkpt>
      <trkpt lat="63.31339" lon="9.55677">
        <ele>351.427278</ele>
        <time>2020-08-05T13:06:52.341Z</time>
      </trkpt>
      <trkpt lat="63.31327" lon="9.55682">
        <ele>351.256838</ele>
        <time>2020-08-05T13:06:54.363Z</time>
      </trkpt>
      <trkpt lat="63.31314" lon="9.55688">
        <ele>351.074887</ele>
        <time>2020-08-05T13:06:56.383Z</time>
      </trkpt>
      <trkpt lat="63.31301" lon="9.55692">
        <ele>350.901861</ele>
        <time>2020-08-05T13:06:58.354Z</time>
      </trkpt>
      <trkpt lat="63.3129" lon="9.55697">
        <ele>350.746632</ele>
        <time>2020-08-05T13:07:00.343Z</time>
      </trkpt>
      <trkpt lat="63.3128" lon="9.55702">
        <ele>350.6078</ele>
        <time>2020-08-05T13:07:02.342Z</time>
      </trkpt>
      <trkpt lat="63.31271" lon="9.55706">
        <ele>350.483627</ele>
        <time>2020-08-05T13:07:04.380Z</time>
      </trkpt>
      <trkpt lat="63.31259" lon="9.55714">
        <ele>350.31351</ele>
        <time>2020-08-05T13:07:07.346Z</time>
      </trkpt>
      <trkpt lat="63.31247" lon="9.55722">
        <ele>350.142003</ele>
        <time>2020-08-05T13:07:10.422Z</time>
      </trkpt>
      <trkpt lat="63.31235" lon="9.55731">
        <ele>350.095596</ele>
        <time>2020-08-05T13:07:13.361Z</time>
      </trkpt>
      <trkpt lat="63.31225" lon="9.55741">
        <ele>350.317218</ele>
        <time>2020-08-05T13:07:16.335Z</time>
      </trkpt>
      <trkpt lat="63.31216" lon="9.55751">
        <ele>350.523382</ele>
        <time>2020-08-05T13:07:19.349Z</time>
      </trkpt>
      <trkpt lat="63.31207" lon="9.55762">
        <ele>350.730282</ele>
        <time>2020-08-05T13:07:22.341Z</time>
      </trkpt>
      <trkpt lat="63.31199" lon="9.55773">
        <ele>350.920586</ele>
        <time>2020-08-05T13:07:25.338Z</time>
      </trkpt>
      <trkpt lat="63.31191" lon="9.55784">
        <ele>351.111106</ele>
        <time>2020-08-05T13:07:28.338Z</time>
      </trkpt>
      <trkpt lat="63.31182" lon="9.55796">
        <ele>351.30306</ele>
        <time>2020-08-05T13:07:31.354Z</time>
      </trkpt>
      <trkpt lat="63.31174" lon="9.55808">
        <ele>351.497464</ele>
        <time>2020-08-05T13:07:34.359Z</time>
      </trkpt>
      <trkpt lat="63.31166" lon="9.55821">
        <ele>351.700175</ele>
        <time>2020-08-05T13:07:37.363Z</time>
      </trkpt>
      <trkpt lat="63.31159" lon="9.55836">
        <ele>351.903428</ele>
        <time>2020-08-05T13:07:40.340Z</time>
      </trkpt>
      <trkpt lat="63.31151" lon="9.55851">
        <ele>352.100704</ele>
        <time>2020-08-05T13:07:43.360Z</time>
      </trkpt>
      <trkpt lat="63.31144" lon="9.55867">
        <ele>352.300517</ele>
        <time>2020-08-05T13:07:46.339Z</time>
      </trkpt>
      <trkpt lat="63.31138" lon="9.55883">
        <ele>352.489459</ele>
        <time>2020-08-05T13:07:49.331Z</time>
      </trkpt>
      <trkpt lat="63.3113" lon="9.55902">
        <ele>352.722465</ele>
        <time>2020-08-05T13:07:53.368Z</time>
      </trkpt>
      <trkpt lat="63.31123" lon="9.55922">
        <ele>352.956981</ele>
        <time>2020-08-05T13:07:57.333Z</time>
      </trkpt>
      <trkpt lat="63.31116" lon="9.55942">
        <ele>353.183533</ele>
        <time>2020-08-05T13:08:01.346Z</time>
      </trkpt>
      <trkpt lat="63.3111" lon="9.55962">
        <ele>353.392335</ele>
        <time>2020-08-05T13:08:05.354Z</time>
      </trkpt>
      <trkpt lat="63.31105" lon="9.55982">
        <ele>353.600507</ele>
        <time>2020-08-05T13:08:09.353Z</time>
      </trkpt>
      <trkpt lat="63.311" lon="9.56001">
        <ele>353.668431</ele>
        <time>2020-08-05T13:08:13.361Z</time>
      </trkpt>
      <trkpt lat="63.31095" lon="9.56022">
        <ele>353.730456</ele>
        <time>2020-08-05T13:08:17.345Z</time>
      </trkpt>
      <trkpt lat="63.31091" lon="9.56044">
        <ele>353.792503</ele>
        <time>2020-08-05T13:08:21.354Z</time>
      </trkpt>
      <trkpt lat="63.31087" lon="9.56067">
        <ele>353.855274</ele>
        <time>2020-08-05T13:08:25.358Z</time>
      </trkpt>
      <trkpt lat="63.31084" lon="9.56089">
        <ele>353.916607</ele>
        <time>2020-08-05T13:08:29.340Z</time>
      </trkpt>
      <trkpt lat="63.3108" lon="9.5611">
        <ele>353.975642</ele>
        <time>2020-08-05T13:08:33.360Z</time>
      </trkpt>
      <trkpt lat="63.31077" lon="9.56133">
        <ele>354.03711</ele>
        <time>2020-08-05T13:08:37.362Z</time>
      </trkpt>
      <trkpt lat="63.31074" lon="9.56158">
        <ele>354.103544</ele>
        <time>2020-08-05T13:08:41.335Z</time>
      </trkpt>
      <trkpt lat="63.3107" lon="9.56177">
        <ele>354.158714</ele>
        <time>2020-08-05T13:08:44.331Z</time>
      </trkpt>
      <trkpt lat="63.31066" lon="9.56198">
        <ele>354.217874</ele>
        <time>2020-08-05T13:08:47.393Z</time>
      </trkpt>
      <trkpt lat="63.31063" lon="9.56217">
        <ele>354.269928</ele>
        <time>2020-08-05T13:08:50.339Z</time>
      </trkpt>
      <trkpt lat="63.31059" lon="9.56242">
        <ele>354.338038</ele>
        <time>2020-08-05T13:08:54.375Z</time>
      </trkpt>
      <trkpt lat="63.31056" lon="9.56261">
        <ele>354.39077</ele>
        <time>2020-08-05T13:08:57.344Z</time>
      </trkpt>
      <trkpt lat="63.31053" lon="9.56283">
        <ele>354.449337</ele>
        <time>2020-08-05T13:09:01.343Z</time>
      </trkpt>
      <trkpt lat="63.31049" lon="9.56307">
        <ele>354.516633</ele>
        <time>2020-08-05T13:09:05.354Z</time>
      </trkpt>
      <trkpt lat="63.31047" lon="9.56327">
        <ele>354.569813</ele>
        <time>2020-08-05T13:09:08.350Z</time>
      </trkpt>
      <trkpt lat="63.31044" lon="9.56352">
        <ele>354.638341</ele>
        <time>2020-08-05T13:09:12.363Z</time>
      </trkpt>
      <trkpt lat="63.3104" lon="9.56372">
        <ele>354.638593</ele>
        <time>2020-08-05T13:09:15.350Z</time>
      </trkpt>
      <trkpt lat="63.31037" lon="9.56391">
        <ele>354.616134</ele>
        <time>2020-08-05T13:09:18.331Z</time>
      </trkpt>
      <trkpt lat="63.31034" lon="9.56416">
        <ele>354.588072</ele>
        <time>2020-08-05T13:09:22.334Z</time>
      </trkpt>
      <trkpt lat="63.3103" lon="9.5644">
        <ele>354.560368</ele>
        <time>2020-08-05T13:09:26.332Z</time>
      </trkpt>
      <trkpt lat="63.31027" lon="9.56459">
        <ele>354.53846</ele>
        <time>2020-08-05T13:09:29.364Z</time>
      </trkpt>
      <trkpt lat="63.31023" lon="9.56478">
        <ele>354.516654</ele>
        <time>2020-08-05T13:09:32.327Z</time>
      </trkpt>
      <trkpt lat="63.31019" lon="9.56501">
        <ele>354.489533</ele>
        <time>2020-08-05T13:09:36.374Z</time>
      </trkpt>
      <trkpt lat="63.31015" lon="9.56523">
        <ele>354.46331</ele>
        <time>2020-08-05T13:09:40.385Z</time>
      </trkpt>
      <trkpt lat="63.31011" lon="9.56542">
        <ele>354.44085</ele>
        <time>2020-08-05T13:09:43.400Z</time>
      </trkpt>
      <trkpt lat="63.31006" lon="9.56565">
        <ele>354.41324</ele>
        <time>2020-08-05T13:09:47.335Z</time>
      </trkpt>
      <trkpt lat="63.31002" lon="9.56587">
        <ele>354.38702</ele>
        <time>2020-08-05T13:09:51.361Z</time>
      </trkpt>
      <trkpt lat="63.30997" lon="9.56607">
        <ele>354.362581</ele>
        <time>2020-08-05T13:09:55.361Z</time>
      </trkpt>
      <trkpt lat="63.30993" lon="9.56629">
        <ele>354.337153</ele>
        <time>2020-08-05T13:09:59.322Z</time>
      </trkpt>
      <trkpt lat="63.30988" lon="9.56651">
        <ele>354.310712</ele>
        <time>2020-08-05T13:10:03.352Z</time>
      </trkpt>
      <trkpt lat="63.30983" lon="9.56671">
        <ele>354.284987</ele>
        <time>2020-08-05T13:10:07.351Z</time>
      </trkpt>
      <trkpt lat="63.30978" lon="9.56692">
        <ele>354.259415</ele>
        <time>2020-08-05T13:10:11.347Z</time>
      </trkpt>
      <trkpt lat="63.30973" lon="9.56711">
        <ele>354.235676</ele>
        <time>2020-08-05T13:10:15.345Z</time>
      </trkpt>
      <trkpt lat="63.30968" lon="9.56732">
        <ele>354.23784</ele>
        <time>2020-08-05T13:10:19.358Z</time>
      </trkpt>
      <trkpt lat="63.30963" lon="9.56753">
        <ele>354.285354</ele>
        <time>2020-08-05T13:10:23.377Z</time>
      </trkpt>
      <trkpt lat="63.30958" lon="9.56773">
        <ele>354.331791</ele>
        <time>2020-08-05T13:10:27.347Z</time>
      </trkpt>
      <trkpt lat="63.30951" lon="9.56795">
        <ele>354.384245</ele>
        <time>2020-08-05T13:10:31.331Z</time>
      </trkpt>
      <trkpt lat="63.30946" lon="9.56812">
        <ele>354.424866</ele>
        <time>2020-08-05T13:10:34.354Z</time>
      </trkpt>
      <trkpt lat="63.30941" lon="9.56829">
        <ele>354.465894</ele>
        <time>2020-08-05T13:10:37.378Z</time>
      </trkpt>
      <trkpt lat="63.30936" lon="9.56847">
        <ele>354.508426</ele>
        <time>2020-08-05T13:10:40.378Z</time>
      </trkpt>
      <trkpt lat="63.30931" lon="9.56865">
        <ele>354.550287</ele>
        <time>2020-08-05T13:10:43.363Z</time>
      </trkpt>
      <trkpt lat="63.30925" lon="9.56883">
        <ele>354.59296</ele>
        <time>2020-08-05T13:10:46.352Z</time>
      </trkpt>
      <trkpt lat="63.3092" lon="9.56902">
        <ele>354.636871</ele>
        <time>2020-08-05T13:10:49.394Z</time>
      </trkpt>
      <trkpt lat="63.30914" lon="9.56921">
        <ele>354.683574</ele>
        <time>2020-08-05T13:10:52.378Z</time>
      </trkpt>
      <trkpt lat="63.30907" lon="9.56941">
        <ele>354.732199</ele>
        <time>2020-08-05T13:10:55.345Z</time>
      </trkpt>
      <trkpt lat="63.30901" lon="9.56962">
        <ele>354.782269</ele>
        <time>2020-08-05T13:10:58.371Z</time>
      </trkpt>
      <trkpt lat="63.30895" lon="9.56983">
        <ele>354.831765</ele>
        <time>2020-08-05T13:11:01.355Z</time>
      </trkpt>
      <trkpt lat="63.30888" lon="9.57005">
        <ele>354.884226</ele>
        <time>2020-08-05T13:11:04.358Z</time>
      </trkpt>
      <trkpt lat="63.30881" lon="9.57027">
        <ele>354.937091</ele>
        <time>2020-08-05T13:11:07.355Z</time>
      </trkpt>
      <trkpt lat="63.30874" lon="9.57049">
        <ele>354.990385</ele>
        <time>2020-08-05T13:11:10.351Z</time>
      </trkpt>
      <trkpt lat="63.30867" lon="9.57072">
        <ele>354.862374</ele>
        <time>2020-08-05T13:11:13.354Z</time>
      </trkpt>
      <trkpt lat="63.3086" lon="9.57095">
        <ele>354.604435</ele>
        <time>2020-08-05T13:11:16.367Z</time>
      </trkpt>
      <trkpt lat="63.30853" lon="9.57118">
        <ele>354.354791</ele>
        <time>2020-08-05T13:11:19.354Z</time>
      </trkpt>
      <trkpt lat="63.30846" lon="9.57141">
        <ele>354.103853</ele>
        <time>2020-08-05T13:11:22.351Z</time>
      </trkpt>
      <trkpt lat="63.30839" lon="9.57164">
        <ele>353.852875</ele>
        <time>2020-08-05T13:11:25.345Z</time>
      </trkpt>
      <trkpt lat="63.30832" lon="9.57187">
        <ele>353.603558</ele>
        <time>2020-08-05T13:11:28.366Z</time>
      </trkpt>
      <trkpt lat="63.30825" lon="9.5721">
        <ele>353.33874</ele>
        <time>2020-08-05T13:11:31.335Z</time>
      </trkpt>
      <trkpt lat="63.3082" lon="9.57227">
        <ele>353.155844</ele>
        <time>2020-08-05T13:11:33.371Z</time>
      </trkpt>
      <trkpt lat="63.30815" lon="9.57244">
        <ele>352.967537</ele>
        <time>2020-08-05T13:11:35.359Z</time>
      </trkpt>
      <trkpt lat="63.30809" lon="9.57262">
        <ele>352.774084</ele>
        <time>2020-08-05T13:11:37.390Z</time>
      </trkpt>
      <trkpt lat="63.30804" lon="9.57279">
        <ele>352.580668</ele>
        <time>2020-08-05T13:11:39.345Z</time>
      </trkpt>
      <trkpt lat="63.30799" lon="9.57297">
        <ele>352.392054</ele>
        <time>2020-08-05T13:11:41.336Z</time>
      </trkpt>
      <trkpt lat="63.30793" lon="9.57314">
        <ele>352.200865</ele>
        <time>2020-08-05T13:11:43.334Z</time>
      </trkpt>
      <trkpt lat="63.30788" lon="9.57332">
        <ele>352.004018</ele>
        <time>2020-08-05T13:11:45.333Z</time>
      </trkpt>
      <trkpt lat="63.30782" lon="9.57351">
        <ele>351.797354</ele>
        <time>2020-08-05T13:11:47.374Z</time>
      </trkpt>
      <trkpt lat="63.30776" lon="9.57368">
        <ele>351.592511</ele>
        <time>2020-08-05T13:11:49.374Z</time>
      </trkpt>
      <trkpt lat="63.3077" lon="9.57388">
        <ele>351.381569</ele>
        <time>2020-08-05T13:11:51.362Z</time>
      </trkpt>
      <trkpt lat="63.30765" lon="9.57407">
        <ele>351.139494</ele>
        <time>2020-08-05T13:11:53.342Z</time>
      </trkpt>
      <trkpt lat="63.30759" lon="9.57426">
        <ele>350.89169</ele>
        <time>2020-08-05T13:11:55.387Z</time>
      </trkpt>
      <trkpt lat="63.30753" lon="9.57444">
        <ele>350.646506</ele>
        <time>2020-08-05T13:11:57.340Z</time>
      </trkpt>
      <trkpt lat="63.30747" lon="9.57463">
        <ele>350.40633</ele>
        <time>2020-08-05T13:11:59.336Z</time>
      </trkpt>
      <trkpt lat="63.30741" lon="9.57481">
        <ele>350.17144</ele>
        <time>2020-08-05T13:12:01.336Z</time>
      </trkpt>
      <trkpt lat="63.30736" lon="9.57499">
        <ele>349.933037</ele>
        <time>2020-08-05T13:12:03.378Z</time>
      </trkpt>
      <trkpt lat="63.3073" lon="9.57517">
        <ele>349.689244</ele>
        <time>2020-08-05T13:12:05.378Z</time>
      </trkpt>
      <trkpt lat="63.30724" lon="9.57537">
        <ele>349.437039</ele>
        <time>2020-08-05T13:12:07.389Z</time>
      </trkpt>
      <trkpt lat="63.30718" lon="9.57557">
        <ele>349.171029</ele>
        <time>2020-08-05T13:12:09.389Z</time>
      </trkpt>
      <trkpt lat="63.30711" lon="9.57578">
        <ele>348.893867</ele>
        <time>2020-08-05T13:12:11.373Z</time>
      </trkpt>
      <trkpt lat="63.30704" lon="9.576">
        <ele>348.611382</ele>
        <time>2020-08-05T13:12:13.357Z</time>
      </trkpt>
      <trkpt lat="63.30698" lon="9.57623">
        <ele>348.315393</ele>
        <time>2020-08-05T13:12:15.375Z</time>
      </trkpt>
      <trkpt lat="63.30691" lon="9.57647">
        <ele>348.011507</ele>
        <time>2020-08-05T13:12:17.315Z</time>
      </trkpt>
      <trkpt lat="63.30683" lon="9.57674">
        <ele>347.676217</ele>
        <time>2020-08-05T13:12:19.324Z</time>
      </trkpt>
      <trkpt lat="63.30676" lon="9.57702">
        <ele>347.320631</ele>
        <time>2020-08-05T13:12:21.320Z</time>
      </trkpt>
      <trkpt lat="63.30668" lon="9.57732">
        <ele>346.866128</ele>
        <time>2020-08-05T13:12:23.322Z</time>
      </trkpt>
      <trkpt lat="63.3066" lon="9.57764">
        <ele>346.228473</ele>
        <time>2020-08-05T13:12:25.327Z</time>
      </trkpt>
      <trkpt lat="63.30652" lon="9.57797">
        <ele>345.574565</ele>
        <time>2020-08-05T13:12:27.362Z</time>
      </trkpt>
      <trkpt lat="63.30648" lon="9.57816">
        <ele>345.218297</ele>
        <time>2020-08-05T13:12:28.474Z</time>
      </trkpt>
      <trkpt lat="63.3064" lon="9.5785">
        <ele>344.551537</ele>
        <time>2020-08-05T13:12:30.343Z</time>
      </trkpt>
      <trkpt lat="63.30636" lon="9.57869">
        <ele>344.182823</ele>
        <time>2020-08-05T13:12:31.460Z</time>
      </trkpt>
      <trkpt lat="63.30627" lon="9.57904">
        <ele>343.472569</ele>
        <time>2020-08-05T13:12:33.341Z</time>
      </trkpt>
      <trkpt lat="63.30623" lon="9.57923">
        <ele>343.113583</ele>
        <time>2020-08-05T13:12:34.334Z</time>
      </trkpt>
      <trkpt lat="63.30619" lon="9.57942">
        <ele>342.749546</ele>
        <time>2020-08-05T13:12:35.326Z</time>
      </trkpt>
      <trkpt lat="63.30615" lon="9.5796">
        <ele>342.393619</ele>
        <time>2020-08-05T13:12:36.336Z</time>
      </trkpt>
      <trkpt lat="63.30611" lon="9.57979">
        <ele>342.035797</ele>
        <time>2020-08-05T13:12:37.321Z</time>
      </trkpt>
      <trkpt lat="63.30607" lon="9.57997">
        <ele>341.686125</ele>
        <time>2020-08-05T13:12:38.322Z</time>
      </trkpt>
      <trkpt lat="63.30599" lon="9.58032">
        <ele>340.994572</ele>
        <time>2020-08-05T13:12:40.340Z</time>
      </trkpt>
      <trkpt lat="63.30591" lon="9.58067">
        <ele>340.324067</ele>
        <time>2020-08-05T13:12:42.374Z</time>
      </trkpt>
      <trkpt lat="63.30584" lon="9.581">
        <ele>339.666913</ele>
        <time>2020-08-05T13:12:44.333Z</time>
      </trkpt>
      <trkpt lat="63.30577" lon="9.58131">
        <ele>339.033736</ele>
        <time>2020-08-05T13:12:46.360Z</time>
      </trkpt>
      <trkpt lat="63.30571" lon="9.58161">
        <ele>338.438438</ele>
        <time>2020-08-05T13:12:48.347Z</time>
      </trkpt>
      <trkpt lat="63.30564" lon="9.58191">
        <ele>337.833068</ele>
        <time>2020-08-05T13:12:50.326Z</time>
      </trkpt>
      <trkpt lat="63.30557" lon="9.58221">
        <ele>337.216444</ele>
        <time>2020-08-05T13:12:52.366Z</time>
      </trkpt>
      <trkpt lat="63.3055" lon="9.58254">
        <ele>336.563532</ele>
        <time>2020-08-05T13:12:54.342Z</time>
      </trkpt>
      <trkpt lat="63.30543" lon="9.58289">
        <ele>335.862478</ele>
        <time>2020-08-05T13:12:56.340Z</time>
      </trkpt>
      <trkpt lat="63.30539" lon="9.58307">
        <ele>335.492228</ele>
        <time>2020-08-05T13:12:57.384Z</time>
      </trkpt>
      <trkpt lat="63.30535" lon="9.58326">
        <ele>335.120246</ele>
        <time>2020-08-05T13:12:58.375Z</time>
      </trkpt>
      <trkpt lat="63.30531" lon="9.58345">
        <ele>334.736824</ele>
        <time>2020-08-05T13:12:59.355Z</time>
      </trkpt>
      <trkpt lat="63.30527" lon="9.58365">
        <ele>334.34346</ele>
        <time>2020-08-05T13:13:00.370Z</time>
      </trkpt>
      <trkpt lat="63.30523" lon="9.58384">
        <ele>333.953142</ele>
        <time>2020-08-05T13:13:01.361Z</time>
      </trkpt>
      <trkpt lat="63.30518" lon="9.58404">
        <ele>333.558064</ele>
        <time>2020-08-05T13:13:02.352Z</time>
      </trkpt>
      <trkpt lat="63.30514" lon="9.58424">
        <ele>333.154709</ele>
        <time>2020-08-05T13:13:03.332Z</time>
      </trkpt>
      <trkpt lat="63.3051" lon="9.58444">
        <ele>332.730033</ele>
        <time>2020-08-05T13:13:04.352Z</time>
      </trkpt>
      <trkpt lat="63.30506" lon="9.58464">
        <ele>332.226794</ele>
        <time>2020-08-05T13:13:05.352Z</time>
      </trkpt>
      <trkpt lat="63.30501" lon="9.58483">
        <ele>331.731794</ele>
        <time>2020-08-05T13:13:06.359Z</time>
      </trkpt>
      <trkpt lat="63.30497" lon="9.58502">
        <ele>331.253568</ele>
        <time>2020-08-05T13:13:07.379Z</time>
      </trkpt>
      <trkpt lat="63.30493" lon="9.5852">
        <ele>330.777412</ele>
        <time>2020-08-05T13:13:08.340Z</time>
      </trkpt>
      <trkpt lat="63.30489" lon="9.58538">
        <ele>330.305586</ele>
        <time>2020-08-05T13:13:09.369Z</time>
      </trkpt>
      <trkpt lat="63.30485" lon="9.58557">
        <ele>329.837692</ele>
        <time>2020-08-05T13:13:10.348Z</time>
      </trkpt>
      <trkpt lat="63.30481" lon="9.58575">
        <ele>329.357178</ele>
        <time>2020-08-05T13:13:11.374Z</time>
      </trkpt>
      <trkpt lat="63.30477" lon="9.58594">
        <ele>328.880785</ele>
        <time>2020-08-05T13:13:12.328Z</time>
      </trkpt>
      <trkpt lat="63.30472" lon="9.58612">
        <ele>328.40575</ele>
        <time>2020-08-05T13:13:13.355Z</time>
      </trkpt>
      <trkpt lat="63.30467" lon="9.58629">
        <ele>327.923882</ele>
        <time>2020-08-05T13:13:14.364Z</time>
      </trkpt>
      <trkpt lat="63.30462" lon="9.58647">
        <ele>327.444349</ele>
        <time>2020-08-05T13:13:15.336Z</time>
      </trkpt>
      <trkpt lat="63.30457" lon="9.58664">
        <ele>326.954031</ele>
        <time>2020-08-05T13:13:16.337Z</time>
      </trkpt>
      <trkpt lat="63.30451" lon="9.58681">
        <ele>326.458636</ele>
        <time>2020-08-05T13:13:17.380Z</time>
      </trkpt>
      <trkpt lat="63.30444" lon="9.58697">
        <ele>325.960557</ele>
        <time>2020-08-05T13:13:18.333Z</time>
      </trkpt>
      <trkpt lat="63.30438" lon="9.58714">
        <ele>325.440286</ele>
        <time>2020-08-05T13:13:19.342Z</time>
      </trkpt>
      <trkpt lat="63.30431" lon="9.58731">
        <ele>324.911384</ele>
        <time>2020-08-05T13:13:20.406Z</time>
      </trkpt>
      <trkpt lat="63.30423" lon="9.58747">
        <ele>324.387321</ele>
        <time>2020-08-05T13:13:21.346Z</time>
      </trkpt>
      <trkpt lat="63.30416" lon="9.58763">
        <ele>323.851963</ele>
        <time>2020-08-05T13:13:22.338Z</time>
      </trkpt>
      <trkpt lat="63.30408" lon="9.58779">
        <ele>323.302194</ele>
        <time>2020-08-05T13:13:23.332Z</time>
      </trkpt>
      <trkpt lat="63.30401" lon="9.58796">
        <ele>322.752997</ele>
        <time>2020-08-05T13:13:24.350Z</time>
      </trkpt>
      <trkpt lat="63.30393" lon="9.58811">
        <ele>322.213439</ele>
        <time>2020-08-05T13:13:25.345Z</time>
      </trkpt>
      <trkpt lat="63.30386" lon="9.58827">
        <ele>321.676077</ele>
        <time>2020-08-05T13:13:26.336Z</time>
      </trkpt>
      <trkpt lat="63.30378" lon="9.58843">
        <ele>321.137106</ele>
        <time>2020-08-05T13:13:27.371Z</time>
      </trkpt>
      <trkpt lat="63.30371" lon="9.58858">
        <ele>320.617494</ele>
        <time>2020-08-05T13:13:28.361Z</time>
      </trkpt>
      <trkpt lat="63.30364" lon="9.58875">
        <ele>320.090071</ele>
        <time>2020-08-05T13:13:29.333Z</time>
      </trkpt>
      <trkpt lat="63.30357" lon="9.5889">
        <ele>319.562292</ele>
        <time>2020-08-05T13:13:30.374Z</time>
      </trkpt>
      <trkpt lat="63.30349" lon="9.58906">
        <ele>319.037795</ele>
        <time>2020-08-05T13:13:31.355Z</time>
      </trkpt>
      <trkpt lat="63.30342" lon="9.58922">
        <ele>318.513696</ele>
        <time>2020-08-05T13:13:32.341Z</time>
      </trkpt>
      <trkpt lat="63.30335" lon="9.58938">
        <ele>317.994547</ele>
        <time>2020-08-05T13:13:33.350Z</time>
      </trkpt>
      <trkpt lat="63.30328" lon="9.58954">
        <ele>317.46712</ele>
        <time>2020-08-05T13:13:34.366Z</time>
      </trkpt>
      <trkpt lat="63.30321" lon="9.5897">
        <ele>316.939692</ele>
        <time>2020-08-05T13:13:35.356Z</time>
      </trkpt>
      <trkpt lat="63.30314" lon="9.58986">
        <ele>316.410593</ele>
        <time>2020-08-05T13:13:36.361Z</time>
      </trkpt>
      <trkpt lat="63.30307" lon="9.59002">
        <ele>315.883426</ele>
        <time>2020-08-05T13:13:37.328Z</time>
      </trkpt>
      <trkpt lat="63.303" lon="9.59019">
        <ele>315.356504</ele>
        <time>2020-08-05T13:13:38.359Z</time>
      </trkpt>
      <trkpt lat="63.30294" lon="9.59036">
        <ele>314.843328</ele>
        <time>2020-08-05T13:13:39.384Z</time>
      </trkpt>
      <trkpt lat="63.30287" lon="9.59053">
        <ele>314.315395</ele>
        <time>2020-08-05T13:13:40.354Z</time>
      </trkpt>
      <trkpt lat="63.30281" lon="9.59071">
        <ele>313.860784</ele>
        <time>2020-08-05T13:13:41.356Z</time>
      </trkpt>
      <trkpt lat="63.30275" lon="9.59089">
        <ele>313.415827</ele>
        <time>2020-08-05T13:13:42.335Z</time>
      </trkpt>
      <trkpt lat="63.30269" lon="9.59108">
        <ele>312.960422</ele>
        <time>2020-08-05T13:13:43.354Z</time>
      </trkpt>
      <trkpt lat="63.30263" lon="9.59126">
        <ele>312.521725</ele>
        <time>2020-08-05T13:13:44.392Z</time>
      </trkpt>
      <trkpt lat="63.30257" lon="9.59144">
        <ele>312.085577</ele>
        <time>2020-08-05T13:13:45.355Z</time>
      </trkpt>
      <trkpt lat="63.30251" lon="9.59161">
        <ele>311.657917</ele>
        <time>2020-08-05T13:13:46.359Z</time>
      </trkpt>
      <trkpt lat="63.30245" lon="9.59179">
        <ele>311.236422</ele>
        <time>2020-08-05T13:13:47.376Z</time>
      </trkpt>
      <trkpt lat="63.30239" lon="9.59195">
        <ele>310.824251</ele>
        <time>2020-08-05T13:13:48.365Z</time>
      </trkpt>
      <trkpt lat="63.30233" lon="9.59212">
        <ele>310.407813</ele>
        <time>2020-08-05T13:13:49.359Z</time>
      </trkpt>
      <trkpt lat="63.30227" lon="9.59228">
        <ele>309.993302</ele>
        <time>2020-08-05T13:13:50.348Z</time>
      </trkpt>
      <trkpt lat="63.30221" lon="9.59243">
        <ele>309.575907</ele>
        <time>2020-08-05T13:13:51.362Z</time>
      </trkpt>
      <trkpt lat="63.30214" lon="9.59258">
        <ele>309.158841</ele>
        <time>2020-08-05T13:13:52.357Z</time>
      </trkpt>
      <trkpt lat="63.30207" lon="9.59272">
        <ele>308.747246</ele>
        <time>2020-08-05T13:13:53.345Z</time>
      </trkpt>
      <trkpt lat="63.302" lon="9.59285">
        <ele>308.340768</ele>
        <time>2020-08-05T13:13:54.363Z</time>
      </trkpt>
      <trkpt lat="63.30192" lon="9.59297">
        <ele>307.942156</ele>
        <time>2020-08-05T13:13:55.363Z</time>
      </trkpt>
      <trkpt lat="63.30178" lon="9.59319">
        <ele>307.172281</ele>
        <time>2020-08-05T13:13:57.338Z</time>
      </trkpt>
      <trkpt lat="63.3017" lon="9.59329">
        <ele>306.778246</ele>
        <time>2020-08-05T13:13:58.373Z</time>
      </trkpt>
      <trkpt lat="63.30155" lon="9.59349">
        <ele>306.088591</ele>
        <time>2020-08-05T13:14:00.339Z</time>
      </trkpt>
      <trkpt lat="63.3014" lon="9.59367">
        <ele>305.479051</ele>
        <time>2020-08-05T13:14:02.342Z</time>
      </trkpt>
      <trkpt lat="63.30126" lon="9.59386">
        <ele>304.878022</ele>
        <time>2020-08-05T13:14:04.355Z</time>
      </trkpt>
      <trkpt lat="63.30111" lon="9.59405">
        <ele>304.286418</ele>
        <time>2020-08-05T13:14:06.369Z</time>
      </trkpt>
      <trkpt lat="63.30097" lon="9.59424">
        <ele>303.689923</ele>
        <time>2020-08-05T13:14:08.345Z</time>
      </trkpt>
      <trkpt lat="63.30083" lon="9.59444">
        <ele>303.091074</ele>
        <time>2020-08-05T13:14:10.334Z</time>
      </trkpt>
      <trkpt lat="63.30069" lon="9.59467">
        <ele>302.453427</ele>
        <time>2020-08-05T13:14:12.393Z</time>
      </trkpt>
      <trkpt lat="63.30055" lon="9.5949">
        <ele>301.830102</ele>
        <time>2020-08-05T13:14:14.367Z</time>
      </trkpt>
      <trkpt lat="63.30041" lon="9.59515">
        <ele>301.194825</ele>
        <time>2020-08-05T13:14:16.364Z</time>
      </trkpt>
      <trkpt lat="63.30027" lon="9.59539">
        <ele>300.575179</ele>
        <time>2020-08-05T13:14:18.349Z</time>
      </trkpt>
      <trkpt lat="63.30014" lon="9.59562">
        <ele>299.965141</ele>
        <time>2020-08-05T13:14:20.383Z</time>
      </trkpt>
      <trkpt lat="63.30001" lon="9.59586">
        <ele>299.815293</ele>
        <time>2020-08-05T13:14:22.325Z</time>
      </trkpt>
      <trkpt lat="63.29989" lon="9.59608">
        <ele>299.684768</ele>
        <time>2020-08-05T13:14:24.373Z</time>
      </trkpt>
      <trkpt lat="63.29977" lon="9.59629">
        <ele>299.559304</ele>
        <time>2020-08-05T13:14:26.337Z</time>
      </trkpt>
      <trkpt lat="63.29965" lon="9.5965">
        <ele>299.434988</ele>
        <time>2020-08-05T13:14:28.355Z</time>
      </trkpt>
      <trkpt lat="63.29953" lon="9.59669">
        <ele>299.312426</ele>
        <time>2020-08-05T13:14:30.388Z</time>
      </trkpt>
      <trkpt lat="63.29941" lon="9.59686">
        <ele>299.196036</ele>
        <time>2020-08-05T13:14:32.328Z</time>
      </trkpt>
      <trkpt lat="63.29928" lon="9.59702">
        <ele>299.07753</ele>
        <time>2020-08-05T13:14:34.345Z</time>
      </trkpt>
      <trkpt lat="63.29916" lon="9.59716">
        <ele>298.96438</ele>
        <time>2020-08-05T13:14:36.332Z</time>
      </trkpt>
      <trkpt lat="63.29904" lon="9.59728">
        <ele>298.854266</ele>
        <time>2020-08-05T13:14:38.334Z</time>
      </trkpt>
      <trkpt lat="63.29892" lon="9.5974">
        <ele>298.747635</ele>
        <time>2020-08-05T13:14:40.341Z</time>
      </trkpt>
      <trkpt lat="63.29881" lon="9.59752">
        <ele>298.644164</ele>
        <time>2020-08-05T13:14:42.368Z</time>
      </trkpt>
      <trkpt lat="63.2987" lon="9.59763">
        <ele>298.545135</ele>
        <time>2020-08-05T13:14:44.340Z</time>
      </trkpt>
      <trkpt lat="63.2986" lon="9.59774">
        <ele>298.44202</ele>
        <time>2020-08-05T13:14:46.360Z</time>
      </trkpt>
      <trkpt lat="63.2985" lon="9.59784">
        <ele>298.294716</ele>
        <time>2020-08-05T13:14:48.374Z</time>
      </trkpt>
      <trkpt lat="63.29841" lon="9.59794">
        <ele>298.15884</ele>
        <time>2020-08-05T13:14:50.348Z</time>
      </trkpt>
      <trkpt lat="63.29832" lon="9.59805">
        <ele>298.020699</ele>
        <time>2020-08-05T13:14:52.337Z</time>
      </trkpt>
      <trkpt lat="63.29823" lon="9.59816">
        <ele>297.877786</ele>
        <time>2020-08-05T13:14:54.370Z</time>
      </trkpt>
      <trkpt lat="63.29814" lon="9.59828">
        <ele>297.7313</ele>
        <time>2020-08-05T13:14:56.352Z</time>
      </trkpt>
      <trkpt lat="63.29804" lon="9.59838">
        <ele>297.590172</ele>
        <time>2020-08-05T13:14:58.371Z</time>
      </trkpt>
      <trkpt lat="63.29796" lon="9.5985">
        <ele>297.456762</ele>
        <time>2020-08-05T13:15:00.372Z</time>
      </trkpt>
      <trkpt lat="63.29787" lon="9.59861">
        <ele>297.316528</ele>
        <time>2020-08-05T13:15:02.373Z</time>
      </trkpt>
      <trkpt lat="63.29778" lon="9.59873">
        <ele>297.176425</ele>
        <time>2020-08-05T13:15:04.350Z</time>
      </trkpt>
      <trkpt lat="63.2977" lon="9.59886">
        <ele>297.033858</ele>
        <time>2020-08-05T13:15:06.385Z</time>
      </trkpt>
      <trkpt lat="63.2976" lon="9.59898">
        <ele>296.885362</ele>
        <time>2020-08-05T13:15:08.371Z</time>
      </trkpt>
      <trkpt lat="63.29751" lon="9.59912">
        <ele>296.732741</ele>
        <time>2020-08-05T13:15:10.355Z</time>
      </trkpt>
      <trkpt lat="63.29741" lon="9.59927">
        <ele>296.568054</ele>
        <time>2020-08-05T13:15:12.351Z</time>
      </trkpt>
      <trkpt lat="63.29731" lon="9.59941">
        <ele>296.405972</ele>
        <time>2020-08-05T13:15:14.336Z</time>
      </trkpt>
      <trkpt lat="63.29721" lon="9.59955">
        <ele>296.24727</ele>
        <time>2020-08-05T13:15:16.355Z</time>
      </trkpt>
      <trkpt lat="63.29712" lon="9.59969">
        <ele>296.093671</ele>
        <time>2020-08-05T13:15:18.365Z</time>
      </trkpt>
      <trkpt lat="63.29701" lon="9.59983">
        <ele>295.815818</ele>
        <time>2020-08-05T13:15:20.392Z</time>
      </trkpt>
      <trkpt lat="63.2969" lon="9.59997">
        <ele>295.399521</ele>
        <time>2020-08-05T13:15:22.337Z</time>
      </trkpt>
      <trkpt lat="63.2968" lon="9.60012">
        <ele>294.987496</ele>
        <time>2020-08-05T13:15:24.342Z</time>
      </trkpt>
      <trkpt lat="63.29669" lon="9.60026">
        <ele>294.592291</ele>
        <time>2020-08-05T13:15:26.361Z</time>
      </trkpt>
      <trkpt lat="63.29659" lon="9.6004">
        <ele>294.207894</ele>
        <time>2020-08-05T13:15:28.381Z</time>
      </trkpt>
      <trkpt lat="63.29649" lon="9.60054">
        <ele>293.829029</ele>
        <time>2020-08-05T13:15:30.371Z</time>
      </trkpt>
      <trkpt lat="63.29639" lon="9.60066">
        <ele>293.456092</ele>
        <time>2020-08-05T13:15:32.357Z</time>
      </trkpt>
      <trkpt lat="63.29629" lon="9.6008">
        <ele>293.07318</ele>
        <time>2020-08-05T13:15:34.374Z</time>
      </trkpt>
      <trkpt lat="63.29619" lon="9.60094">
        <ele>292.69476</ele>
        <time>2020-08-05T13:15:36.326Z</time>
      </trkpt>
      <trkpt lat="63.29609" lon="9.60108">
        <ele>292.318864</ele>
        <time>2020-08-05T13:15:38.357Z</time>
      </trkpt>
      <trkpt lat="63.296" lon="9.60123">
        <ele>291.956913</ele>
        <time>2020-08-05T13:15:40.362Z</time>
      </trkpt>
      <trkpt lat="63.29591" lon="9.60136">
        <ele>291.607071</ele>
        <time>2020-08-05T13:15:42.358Z</time>
      </trkpt>
      <trkpt lat="63.29583" lon="9.6015">
        <ele>291.278955</ele>
        <time>2020-08-05T13:15:44.363Z</time>
      </trkpt>
      <trkpt lat="63.29576" lon="9.60165">
        <ele>290.955328</ele>
        <time>2020-08-05T13:15:46.345Z</time>
      </trkpt>
      <trkpt lat="63.29568" lon="9.6018">
        <ele>290.630146</ele>
        <time>2020-08-05T13:15:48.331Z</time>
      </trkpt>
      <trkpt lat="63.29561" lon="9.60196">
        <ele>290.302446</ele>
        <time>2020-08-05T13:15:50.370Z</time>
      </trkpt>
      <trkpt lat="63.29554" lon="9.60214">
        <ele>290.079823</ele>
        <time>2020-08-05T13:15:52.342Z</time>
      </trkpt>
      <trkpt lat="63.29547" lon="9.60236">
        <ele>289.883857</ele>
        <time>2020-08-05T13:15:54.407Z</time>
      </trkpt>
      <trkpt lat="63.29539" lon="9.60263">
        <ele>289.650075</ele>
        <time>2020-08-05T13:15:56.345Z</time>
      </trkpt>
      <trkpt lat="63.2953" lon="9.60293">
        <ele>289.396498</ele>
        <time>2020-08-05T13:15:58.358Z</time>
      </trkpt>
      <trkpt lat="63.29521" lon="9.60323">
        <ele>289.138487</ele>
        <time>2020-08-05T13:16:00.356Z</time>
      </trkpt>
      <trkpt lat="63.2951" lon="9.60354">
        <ele>288.862459</ele>
        <time>2020-08-05T13:16:02.358Z</time>
      </trkpt>
      <trkpt lat="63.29499" lon="9.60384">
        <ele>288.584155</ele>
        <time>2020-08-05T13:16:04.341Z</time>
      </trkpt>
      <trkpt lat="63.29487" lon="9.60411">
        <ele>288.314969</ele>
        <time>2020-08-05T13:16:06.345Z</time>
      </trkpt>
      <trkpt lat="63.29474" lon="9.60435">
        <ele>288.043622</ele>
        <time>2020-08-05T13:16:08.356Z</time>
      </trkpt>
      <trkpt lat="63.2946" lon="9.60456">
        <ele>287.771952</ele>
        <time>2020-08-05T13:16:10.370Z</time>
      </trkpt>
      <trkpt lat="63.29446" lon="9.60476">
        <ele>287.501693</ele>
        <time>2020-08-05T13:16:12.375Z</time>
      </trkpt>
      <trkpt lat="63.29432" lon="9.60496">
        <ele>287.161914</ele>
        <time>2020-08-05T13:16:14.342Z</time>
      </trkpt>
      <trkpt lat="63.29417" lon="9.60516">
        <ele>286.69577</ele>
        <time>2020-08-05T13:16:16.361Z</time>
      </trkpt>
      <trkpt lat="63.29402" lon="9.60537">
        <ele>286.22007</ele>
        <time>2020-08-05T13:16:18.357Z</time>
      </trkpt>
      <trkpt lat="63.29387" lon="9.60557">
        <ele>285.743721</ele>
        <time>2020-08-05T13:16:20.376Z</time>
      </trkpt>
      <trkpt lat="63.29373" lon="9.60578">
        <ele>285.267372</ele>
        <time>2020-08-05T13:16:22.342Z</time>
      </trkpt>
      <trkpt lat="63.29358" lon="9.60598">
        <ele>284.7919</ele>
        <time>2020-08-05T13:16:24.345Z</time>
      </trkpt>
      <trkpt lat="63.29343" lon="9.60618">
        <ele>284.313227</ele>
        <time>2020-08-05T13:16:26.347Z</time>
      </trkpt>
      <trkpt lat="63.29328" lon="9.60638">
        <ele>283.84578</ele>
        <time>2020-08-05T13:16:28.355Z</time>
      </trkpt>
      <trkpt lat="63.29313" lon="9.60656">
        <ele>283.380113</ele>
        <time>2020-08-05T13:16:30.341Z</time>
      </trkpt>
      <trkpt lat="63.29297" lon="9.60672">
        <ele>282.904801</ele>
        <time>2020-08-05T13:16:32.337Z</time>
      </trkpt>
      <trkpt lat="63.29281" lon="9.60685">
        <ele>282.426342</ele>
        <time>2020-08-05T13:16:34.334Z</time>
      </trkpt>
      <trkpt lat="63.29264" lon="9.60693">
        <ele>281.835595</ele>
        <time>2020-08-05T13:16:36.346Z</time>
      </trkpt>
      <trkpt lat="63.29249" lon="9.607">
        <ele>281.270077</ele>
        <time>2020-08-05T13:16:38.344Z</time>
      </trkpt>
      <trkpt lat="63.29233" lon="9.60707">
        <ele>280.717753</ele>
        <time>2020-08-05T13:16:40.343Z</time>
      </trkpt>
      <trkpt lat="63.29218" lon="9.60713">
        <ele>280.186415</ele>
        <time>2020-08-05T13:16:42.402Z</time>
      </trkpt>
      <trkpt lat="63.29204" lon="9.60723">
        <ele>279.666856</ele>
        <time>2020-08-05T13:16:44.345Z</time>
      </trkpt>
      <trkpt lat="63.29191" lon="9.60734">
        <ele>279.15532</ele>
        <time>2020-08-05T13:16:46.344Z</time>
      </trkpt>
      <trkpt lat="63.29177" lon="9.60747">
        <ele>278.630254</ele>
        <time>2020-08-05T13:16:48.375Z</time>
      </trkpt>
      <trkpt lat="63.29163" lon="9.60762">
        <ele>278.100411</ele>
        <time>2020-08-05T13:16:50.357Z</time>
      </trkpt>
      <trkpt lat="63.2915" lon="9.60779">
        <ele>277.569436</ele>
        <time>2020-08-05T13:16:52.340Z</time>
      </trkpt>
      <trkpt lat="63.29137" lon="9.60796">
        <ele>277.027872</ele>
        <time>2020-08-05T13:16:54.345Z</time>
      </trkpt>
      <trkpt lat="63.29123" lon="9.60815">
        <ele>276.458116</ele>
        <time>2020-08-05T13:16:56.333Z</time>
      </trkpt>
      <trkpt lat="63.29109" lon="9.60833">
        <ele>275.800263</ele>
        <time>2020-08-05T13:16:58.374Z</time>
      </trkpt>
      <trkpt lat="63.29094" lon="9.60853">
        <ele>274.953799</ele>
        <time>2020-08-05T13:17:00.382Z</time>
      </trkpt>
      <trkpt lat="63.29086" lon="9.60863">
        <ele>274.51096</ele>
        <time>2020-08-05T13:17:01.363Z</time>
      </trkpt>
      <trkpt lat="63.29078" lon="9.60873">
        <ele>274.058792</ele>
        <time>2020-08-05T13:17:02.365Z</time>
      </trkpt>
      <trkpt lat="63.29069" lon="9.60883">
        <ele>273.589647</ele>
        <time>2020-08-05T13:17:03.354Z</time>
      </trkpt>
      <trkpt lat="63.2906" lon="9.60893">
        <ele>273.115862</ele>
        <time>2020-08-05T13:17:04.351Z</time>
      </trkpt>
      <trkpt lat="63.29051" lon="9.60902">
        <ele>272.637129</ele>
        <time>2020-08-05T13:17:05.332Z</time>
      </trkpt>
      <trkpt lat="63.29042" lon="9.60912">
        <ele>272.159306</ele>
        <time>2020-08-05T13:17:06.358Z</time>
      </trkpt>
      <trkpt lat="63.29033" lon="9.60921">
        <ele>271.67446</ele>
        <time>2020-08-05T13:17:07.390Z</time>
      </trkpt>
      <trkpt lat="63.29023" lon="9.6093">
        <ele>271.167439</ele>
        <time>2020-08-05T13:17:08.387Z</time>
      </trkpt>
      <trkpt lat="63.29014" lon="9.60938">
        <ele>270.675058</ele>
        <time>2020-08-05T13:17:09.359Z</time>
      </trkpt>
      <trkpt lat="63.29004" lon="9.60946">
        <ele>270.172901</ele>
        <time>2020-08-05T13:17:10.360Z</time>
      </trkpt>
      <trkpt lat="63.28994" lon="9.60955">
        <ele>269.663063</ele>
        <time>2020-08-05T13:17:11.340Z</time>
      </trkpt>
      <trkpt lat="63.28985" lon="9.60964">
        <ele>269.161471</ele>
        <time>2020-08-05T13:17:12.350Z</time>
      </trkpt>
      <trkpt lat="63.28976" lon="9.60976">
        <ele>268.660806</ele>
        <time>2020-08-05T13:17:13.361Z</time>
      </trkpt>
      <trkpt lat="63.28968" lon="9.60988">
        <ele>268.190122</ele>
        <time>2020-08-05T13:17:14.410Z</time>
      </trkpt>
      <trkpt lat="63.28961" lon="9.61001">
        <ele>267.740349</ele>
        <time>2020-08-05T13:17:15.355Z</time>
      </trkpt>
      <trkpt lat="63.28955" lon="9.61017">
        <ele>267.276251</ele>
        <time>2020-08-05T13:17:16.341Z</time>
      </trkpt>
      <trkpt lat="63.2895" lon="9.61034">
        <ele>266.79973</ele>
        <time>2020-08-05T13:17:17.351Z</time>
      </trkpt>
      <trkpt lat="63.28943" lon="9.6107">
        <ele>265.8784</ele>
        <time>2020-08-05T13:17:19.340Z</time>
      </trkpt>
      <trkpt lat="63.28941" lon="9.6109">
        <ele>265.388337</ele>
        <time>2020-08-05T13:17:20.394Z</time>
      </trkpt>
      <trkpt lat="63.2894" lon="9.61111">
        <ele>264.878543</ele>
        <time>2020-08-05T13:17:21.360Z</time>
      </trkpt>
      <trkpt lat="63.28939" lon="9.61133">
        <ele>264.363383</ele>
        <time>2020-08-05T13:17:22.353Z</time>
      </trkpt>
      <trkpt lat="63.28938" lon="9.61155">
        <ele>263.837247</ele>
        <time>2020-08-05T13:17:23.360Z</time>
      </trkpt>
      <trkpt lat="63.28938" lon="9.61177">
        <ele>263.309376</ele>
        <time>2020-08-05T13:17:24.331Z</time>
      </trkpt>
      <trkpt lat="63.28937" lon="9.612">
        <ele>262.77225</ele>
        <time>2020-08-05T13:17:25.342Z</time>
      </trkpt>
      <trkpt lat="63.28937" lon="9.61222">
        <ele>262.244934</ele>
        <time>2020-08-05T13:17:26.348Z</time>
      </trkpt>
      <trkpt lat="63.28937" lon="9.61244">
        <ele>261.715323</ele>
        <time>2020-08-05T13:17:27.367Z</time>
      </trkpt>
      <trkpt lat="63.28937" lon="9.61266">
        <ele>261.185738</ele>
        <time>2020-08-05T13:17:28.338Z</time>
      </trkpt>
      <trkpt lat="63.28937" lon="9.61289">
        <ele>260.657576</ele>
        <time>2020-08-05T13:17:29.382Z</time>
      </trkpt>
      <trkpt lat="63.28936" lon="9.6131">
        <ele>260.14051</ele>
        <time>2020-08-05T13:17:30.340Z</time>
      </trkpt>
      <trkpt lat="63.28934" lon="9.61332">
        <ele>259.629293</ele>
        <time>2020-08-05T13:17:31.368Z</time>
      </trkpt>
      <trkpt lat="63.28932" lon="9.61353">
        <ele>259.114901</ele>
        <time>2020-08-05T13:17:32.372Z</time>
      </trkpt>
      <trkpt lat="63.28929" lon="9.61373">
        <ele>258.603808</ele>
        <time>2020-08-05T13:17:33.345Z</time>
      </trkpt>
      <trkpt lat="63.28926" lon="9.61394">
        <ele>258.088925</ele>
        <time>2020-08-05T13:17:34.382Z</time>
      </trkpt>
      <trkpt lat="63.28922" lon="9.61415">
        <ele>257.678187</ele>
        <time>2020-08-05T13:17:35.342Z</time>
      </trkpt>
      <trkpt lat="63.28917" lon="9.61433">
        <ele>257.352187</ele>
        <time>2020-08-05T13:17:36.333Z</time>
      </trkpt>
      <trkpt lat="63.28912" lon="9.61451">
        <ele>257.02677</ele>
        <time>2020-08-05T13:17:37.343Z</time>
      </trkpt>
      <trkpt lat="63.28906" lon="9.61468">
        <ele>256.703105</ele>
        <time>2020-08-05T13:17:38.357Z</time>
      </trkpt>
      <trkpt lat="63.289" lon="9.61485">
        <ele>256.380293</ele>
        <time>2020-08-05T13:17:39.370Z</time>
      </trkpt>
      <trkpt lat="63.28894" lon="9.61502">
        <ele>256.056617</ele>
        <time>2020-08-05T13:17:40.379Z</time>
      </trkpt>
      <trkpt lat="63.28888" lon="9.61519">
        <ele>255.737413</ele>
        <time>2020-08-05T13:17:41.342Z</time>
      </trkpt>
      <trkpt lat="63.28882" lon="9.61535">
        <ele>255.414018</ele>
        <time>2020-08-05T13:17:42.387Z</time>
      </trkpt>
      <trkpt lat="63.28877" lon="9.61552">
        <ele>255.094812</ele>
        <time>2020-08-05T13:17:43.334Z</time>
      </trkpt>
      <trkpt lat="63.28871" lon="9.61569">
        <ele>254.773204</ele>
        <time>2020-08-05T13:17:44.344Z</time>
      </trkpt>
      <trkpt lat="63.28865" lon="9.61585">
        <ele>254.456059</ele>
        <time>2020-08-05T13:17:45.375Z</time>
      </trkpt>
      <trkpt lat="63.28859" lon="9.61602">
        <ele>254.133245</ele>
        <time>2020-08-05T13:17:46.347Z</time>
      </trkpt>
      <trkpt lat="63.28854" lon="9.6162">
        <ele>253.802672</ele>
        <time>2020-08-05T13:17:47.388Z</time>
      </trkpt>
      <trkpt lat="63.28848" lon="9.61638">
        <ele>253.470974</ele>
        <time>2020-08-05T13:17:48.352Z</time>
      </trkpt>
      <trkpt lat="63.28843" lon="9.61657">
        <ele>253.135839</ele>
        <time>2020-08-05T13:17:49.326Z</time>
      </trkpt>
      <trkpt lat="63.28838" lon="9.61676">
        <ele>252.803271</ele>
        <time>2020-08-05T13:17:50.337Z</time>
      </trkpt>
      <trkpt lat="63.28833" lon="9.61695">
        <ele>252.471609</ele>
        <time>2020-08-05T13:17:51.352Z</time>
      </trkpt>
      <trkpt lat="63.28829" lon="9.61715">
        <ele>252.138989</ele>
        <time>2020-08-05T13:17:52.362Z</time>
      </trkpt>
      <trkpt lat="63.28825" lon="9.61735">
        <ele>251.802408</ele>
        <time>2020-08-05T13:17:53.336Z</time>
      </trkpt>
      <trkpt lat="63.28821" lon="9.61756">
        <ele>251.449943</ele>
        <time>2020-08-05T13:17:54.377Z</time>
      </trkpt>
      <trkpt lat="63.28817" lon="9.61778">
        <ele>251.097057</ele>
        <time>2020-08-05T13:17:55.360Z</time>
      </trkpt>
      <trkpt lat="63.28813" lon="9.61801">
        <ele>250.720784</ele>
        <time>2020-08-05T13:17:56.411Z</time>
      </trkpt>
      <trkpt lat="63.2881" lon="9.61824">
        <ele>250.353476</ele>
        <time>2020-08-05T13:17:57.338Z</time>
      </trkpt>
      <trkpt lat="63.28807" lon="9.61848">
        <ele>249.975959</ele>
        <time>2020-08-05T13:17:58.384Z</time>
      </trkpt>
      <trkpt lat="63.28804" lon="9.61872">
        <ele>249.595139</ele>
        <time>2020-08-05T13:17:59.342Z</time>
      </trkpt>
      <trkpt lat="63.28802" lon="9.61897">
        <ele>249.209708</ele>
        <time>2020-08-05T13:18:00.351Z</time>
      </trkpt>
      <trkpt lat="63.288" lon="9.61921">
        <ele>248.844339</ele>
        <time>2020-08-05T13:18:01.338Z</time>
      </trkpt>
      <trkpt lat="63.28799" lon="9.61945">
        <ele>248.477203</ele>
        <time>2020-08-05T13:18:02.340Z</time>
      </trkpt>
      <trkpt lat="63.28797" lon="9.61969">
        <ele>248.10339</ele>
        <time>2020-08-05T13:18:03.352Z</time>
      </trkpt>
      <trkpt lat="63.28797" lon="9.61993">
        <ele>247.74154</ele>
        <time>2020-08-05T13:18:04.377Z</time>
      </trkpt>
      <trkpt lat="63.28796" lon="9.62016">
        <ele>247.379689</ele>
        <time>2020-08-05T13:18:05.337Z</time>
      </trkpt>
      <trkpt lat="63.28795" lon="9.6204">
        <ele>247.020246</ele>
        <time>2020-08-05T13:18:06.330Z</time>
      </trkpt>
      <trkpt lat="63.28795" lon="9.62064">
        <ele>246.656244</ele>
        <time>2020-08-05T13:18:07.382Z</time>
      </trkpt>
      <trkpt lat="63.28794" lon="9.62088">
        <ele>246.290972</ele>
        <time>2020-08-05T13:18:08.360Z</time>
      </trkpt>
      <trkpt lat="63.28794" lon="9.62112">
        <ele>245.921278</ele>
        <time>2020-08-05T13:18:09.352Z</time>
      </trkpt>
      <trkpt lat="63.28794" lon="9.62137">
        <ele>245.289115</ele>
        <time>2020-08-05T13:18:10.332Z</time>
      </trkpt>
      <trkpt lat="63.28794" lon="9.62162">
        <ele>244.46412</ele>
        <time>2020-08-05T13:18:11.364Z</time>
      </trkpt>
      <trkpt lat="63.28795" lon="9.62188">
        <ele>243.632038</ele>
        <time>2020-08-05T13:18:12.384Z</time>
      </trkpt>
      <trkpt lat="63.28795" lon="9.62213">
        <ele>242.797151</ele>
        <time>2020-08-05T13:18:13.358Z</time>
      </trkpt>
      <trkpt lat="63.28796" lon="9.62239">
        <ele>241.946599</ele>
        <time>2020-08-05T13:18:14.394Z</time>
      </trkpt>
      <trkpt lat="63.28796" lon="9.62264">
        <ele>241.104027</ele>
        <time>2020-08-05T13:18:15.345Z</time>
      </trkpt>
      <trkpt lat="63.28798" lon="9.62291">
        <ele>240.240079</ele>
        <time>2020-08-05T13:18:16.376Z</time>
      </trkpt>
      <trkpt lat="63.288" lon="9.62321">
        <ele>239.238899</ele>
        <time>2020-08-05T13:18:17.364Z</time>
      </trkpt>
      <trkpt lat="63.28801" lon="9.62347">
        <ele>238.351502</ele>
        <time>2020-08-05T13:18:18.342Z</time>
      </trkpt>
      <trkpt lat="63.28803" lon="9.62374">
        <ele>237.469484</ele>
        <time>2020-08-05T13:18:19.355Z</time>
      </trkpt>
      <trkpt lat="63.28806" lon="9.62399">
        <ele>236.622818</ele>
        <time>2020-08-05T13:18:20.361Z</time>
      </trkpt>
      <trkpt lat="63.28808" lon="9.62424">
        <ele>235.793738</ele>
        <time>2020-08-05T13:18:21.351Z</time>
      </trkpt>
      <trkpt lat="63.2881" lon="9.62448">
        <ele>234.977187</ele>
        <time>2020-08-05T13:18:22.336Z</time>
      </trkpt>
      <trkpt lat="63.28812" lon="9.62473">
        <ele>234.149043</ele>
        <time>2020-08-05T13:18:23.341Z</time>
      </trkpt>
      <trkpt lat="63.28814" lon="9.62498">
        <ele>233.309885</ele>
        <time>2020-08-05T13:18:24.401Z</time>
      </trkpt>
      <trkpt lat="63.28816" lon="9.62524">
        <ele>232.511026</ele>
        <time>2020-08-05T13:18:25.357Z</time>
      </trkpt>
      <trkpt lat="63.28817" lon="9.6255">
        <ele>231.95283</ele>
        <time>2020-08-05T13:18:26.325Z</time>
      </trkpt>
      <trkpt lat="63.28819" lon="9.62577">
        <ele>231.37318</ele>
        <time>2020-08-05T13:18:27.338Z</time>
      </trkpt>
      <trkpt lat="63.28819" lon="9.62603">
        <ele>230.835268</ele>
        <time>2020-08-05T13:18:28.336Z</time>
      </trkpt>
      <trkpt lat="63.28819" lon="9.62628">
        <ele>230.315179</ele>
        <time>2020-08-05T13:18:29.346Z</time>
      </trkpt>
      <trkpt lat="63.28819" lon="9.62653">
        <ele>229.78617</ele>
        <time>2020-08-05T13:18:30.382Z</time>
      </trkpt>
      <trkpt lat="63.28818" lon="9.62678">
        <ele>229.259803</ele>
        <time>2020-08-05T13:18:31.359Z</time>
      </trkpt>
      <trkpt lat="63.28816" lon="9.62702">
        <ele>228.749612</ele>
        <time>2020-08-05T13:18:32.335Z</time>
      </trkpt>
      <trkpt lat="63.28814" lon="9.62726">
        <ele>228.232731</ele>
        <time>2020-08-05T13:18:33.360Z</time>
      </trkpt>
      <trkpt lat="63.28812" lon="9.62749">
        <ele>227.723265</ele>
        <time>2020-08-05T13:18:34.339Z</time>
      </trkpt>
      <trkpt lat="63.28809" lon="9.62773">
        <ele>227.214214</ele>
        <time>2020-08-05T13:18:35.359Z</time>
      </trkpt>
      <trkpt lat="63.28805" lon="9.62794">
        <ele>226.727512</ele>
        <time>2020-08-05T13:18:36.337Z</time>
      </trkpt>
      <trkpt lat="63.28801" lon="9.62816">
        <ele>226.218436</ele>
        <time>2020-08-05T13:18:37.334Z</time>
      </trkpt>
      <trkpt lat="63.28795" lon="9.62836">
        <ele>225.712684</ele>
        <time>2020-08-05T13:18:38.329Z</time>
      </trkpt>
      <trkpt lat="63.28788" lon="9.62856">
        <ele>225.199835</ele>
        <time>2020-08-05T13:18:39.336Z</time>
      </trkpt>
      <trkpt lat="63.28782" lon="9.62874">
        <ele>224.706371</ele>
        <time>2020-08-05T13:18:40.337Z</time>
      </trkpt>
      <trkpt lat="63.28775" lon="9.6289">
        <ele>224.230185</ele>
        <time>2020-08-05T13:18:41.359Z</time>
      </trkpt>
      <trkpt lat="63.28768" lon="9.62906">
        <ele>224.0404</ele>
        <time>2020-08-05T13:18:42.362Z</time>
      </trkpt>
      <trkpt lat="63.28761" lon="9.6292">
        <ele>223.8948</ele>
        <time>2020-08-05T13:18:43.337Z</time>
      </trkpt>
      <trkpt lat="63.28755" lon="9.62935">
        <ele>223.752811</ele>
        <time>2020-08-05T13:18:44.340Z</time>
      </trkpt>
      <trkpt lat="63.28743" lon="9.6296">
        <ele>223.496841</ele>
        <time>2020-08-05T13:18:46.379Z</time>
      </trkpt>
      <trkpt lat="63.28733" lon="9.62983">
        <ele>223.265725</ele>
        <time>2020-08-05T13:18:48.365Z</time>
      </trkpt>
      <trkpt lat="63.28724" lon="9.63004">
        <ele>223.064394</ele>
        <time>2020-08-05T13:18:50.342Z</time>
      </trkpt>
      <trkpt lat="63.28715" lon="9.63023">
        <ele>222.869155</ele>
        <time>2020-08-05T13:18:52.348Z</time>
      </trkpt>
      <trkpt lat="63.2871" lon="9.63049">
        <ele>222.670766</ele>
        <time>2020-08-05T13:18:54.364Z</time>
      </trkpt>
      <trkpt lat="63.28711" lon="9.63073">
        <ele>222.498309</ele>
        <time>2020-08-05T13:18:56.359Z</time>
      </trkpt>
      <trkpt lat="63.2871" lon="9.631">
        <ele>222.309355</ele>
        <time>2020-08-05T13:18:59.338Z</time>
      </trkpt>
      <trkpt lat="63.28702" lon="9.63111">
        <ele>222.160873</ele>
        <time>2020-08-05T13:19:02.331Z</time>
      </trkpt>
      <trkpt lat="63.28693" lon="9.63109">
        <ele>222.007711</ele>
        <time>2020-08-05T13:19:05.350Z</time>
      </trkpt>
      <trkpt lat="63.28682" lon="9.63106">
        <ele>221.837144</ele>
        <time>2020-08-05T13:19:09.361Z</time>
      </trkpt>
      <trkpt lat="63.28672" lon="9.63115">
        <ele>221.67205</ele>
        <time>2020-08-05T13:19:12.374Z</time>
      </trkpt>
      <trkpt lat="63.28664" lon="9.63133">
        <ele>221.489473</ele>
        <time>2020-08-05T13:19:15.328Z</time>
      </trkpt>
      <trkpt lat="63.28658" lon="9.63153">
        <ele>221.269037</ele>
        <time>2020-08-05T13:19:18.368Z</time>
      </trkpt>
      <trkpt lat="63.28653" lon="9.63176">
        <ele>220.787908</ele>
        <time>2020-08-05T13:19:21.350Z</time>
      </trkpt>
      <trkpt lat="63.28649" lon="9.63204">
        <ele>220.212169</ele>
        <time>2020-08-05T13:19:24.357Z</time>
      </trkpt>
      <trkpt lat="63.28646" lon="9.63227">
        <ele>219.759108</ele>
        <time>2020-08-05T13:19:26.334Z</time>
      </trkpt>
      <trkpt lat="63.28642" lon="9.63254">
        <ele>219.218093</ele>
        <time>2020-08-05T13:19:28.375Z</time>
      </trkpt>
      <trkpt lat="63.28637" lon="9.63285">
        <ele>218.570457</ele>
        <time>2020-08-05T13:19:30.331Z</time>
      </trkpt>
      <trkpt lat="63.28632" lon="9.6332">
        <ele>217.869435</ele>
        <time>2020-08-05T13:19:32.379Z</time>
      </trkpt>
      <trkpt lat="63.28626" lon="9.63358">
        <ele>217.106361</ele>
        <time>2020-08-05T13:19:34.358Z</time>
      </trkpt>
      <trkpt lat="63.28623" lon="9.63378">
        <ele>216.694024</ele>
        <time>2020-08-05T13:19:35.368Z</time>
      </trkpt>
      <trkpt lat="63.2862" lon="9.63398">
        <ele>216.276235</ele>
        <time>2020-08-05T13:19:36.344Z</time>
      </trkpt>
      <trkpt lat="63.28617" lon="9.6342">
        <ele>215.835467</ele>
        <time>2020-08-05T13:19:37.400Z</time>
      </trkpt>
      <trkpt lat="63.28614" lon="9.63442">
        <ele>215.395268</ele>
        <time>2020-08-05T13:19:38.363Z</time>
      </trkpt>
      <trkpt lat="63.28612" lon="9.63466">
        <ele>214.933888</ele>
        <time>2020-08-05T13:19:39.362Z</time>
      </trkpt>
      <trkpt lat="63.28609" lon="9.6349">
        <ele>214.460537</ele>
        <time>2020-08-05T13:19:40.361Z</time>
      </trkpt>
      <trkpt lat="63.28607" lon="9.63514">
        <ele>213.982247</ele>
        <time>2020-08-05T13:19:41.368Z</time>
      </trkpt>
      <trkpt lat="63.28605" lon="9.63539">
        <ele>213.604527</ele>
        <time>2020-08-05T13:19:42.355Z</time>
      </trkpt>
      <trkpt lat="63.28602" lon="9.63565">
        <ele>213.46412</ele>
        <time>2020-08-05T13:19:43.338Z</time>
      </trkpt>
      <trkpt lat="63.28599" lon="9.63591">
        <ele>213.31998</ele>
        <time>2020-08-05T13:19:44.332Z</time>
      </trkpt>
      <trkpt lat="63.28596" lon="9.63615">
        <ele>213.180913</ele>
        <time>2020-08-05T13:19:45.341Z</time>
      </trkpt>
      <trkpt lat="63.28592" lon="9.63639">
        <ele>213.042962</ele>
        <time>2020-08-05T13:19:46.367Z</time>
      </trkpt>
      <trkpt lat="63.28587" lon="9.63663">
        <ele>212.90775</ele>
        <time>2020-08-05T13:19:47.358Z</time>
      </trkpt>
      <trkpt lat="63.28582" lon="9.63685">
        <ele>212.772531</ele>
        <time>2020-08-05T13:19:48.395Z</time>
      </trkpt>
      <trkpt lat="63.28578" lon="9.63706">
        <ele>212.649839</ele>
        <time>2020-08-05T13:19:49.379Z</time>
      </trkpt>
      <trkpt lat="63.28573" lon="9.63726">
        <ele>212.52572</ele>
        <time>2020-08-05T13:19:50.366Z</time>
      </trkpt>
      <trkpt lat="63.28569" lon="9.63746">
        <ele>212.407684</ele>
        <time>2020-08-05T13:19:51.338Z</time>
      </trkpt>
      <trkpt lat="63.28565" lon="9.63765">
        <ele>212.296926</ele>
        <time>2020-08-05T13:19:52.334Z</time>
      </trkpt>
      <trkpt lat="63.28559" lon="9.63799">
        <ele>212.101648</ele>
        <time>2020-08-05T13:19:54.369Z</time>
      </trkpt>
      <trkpt lat="63.28555" lon="9.63827">
        <ele>211.942478</ele>
        <time>2020-08-05T13:19:56.385Z</time>
      </trkpt>
      <trkpt lat="63.28551" lon="9.63848">
        <ele>211.822714</ele>
        <time>2020-08-05T13:19:58.363Z</time>
      </trkpt>
      <trkpt lat="63.28548" lon="9.6387">
        <ele>211.698173</ele>
        <time>2020-08-05T13:20:01.366Z</time>
      </trkpt>
      <trkpt lat="63.28545" lon="9.63891">
        <ele>211.579337</ele>
        <time>2020-08-05T13:20:06.361Z</time>
      </trkpt>
      <trkpt lat="63.28543" lon="9.63914">
        <ele>211.475294</ele>
        <time>2020-08-05T13:20:13.376Z</time>
      </trkpt>
      <trkpt lat="63.2854" lon="9.63934">
        <ele>211.419859</ele>
        <time>2020-08-05T13:20:18.371Z</time>
      </trkpt>
      <trkpt lat="63.28538" lon="9.63954">
        <ele>211.363446</ele>
        <time>2020-08-05T13:20:23.358Z</time>
      </trkpt>
      <trkpt lat="63.28536" lon="9.63977">
        <ele>211.301464</ele>
        <time>2020-08-05T13:20:28.361Z</time>
      </trkpt>
      <trkpt lat="63.28535" lon="9.64001">
        <ele>211.235149</ele>
        <time>2020-08-05T13:20:33.391Z</time>
      </trkpt>
      <trkpt lat="63.28534" lon="9.64023">
        <ele>211.175411</ele>
        <time>2020-08-05T13:20:37.400Z</time>
      </trkpt>
      <trkpt lat="63.28531" lon="9.64048">
        <ele>211.10453</ele>
        <time>2020-08-05T13:20:41.351Z</time>
      </trkpt>
      <trkpt lat="63.28525" lon="9.64066">
        <ele>211.0423</ele>
        <time>2020-08-05T13:20:44.400Z</time>
      </trkpt>
      <trkpt lat="63.28513" lon="9.64068">
        <ele>210.972503</ele>
        <time>2020-08-05T13:20:47.335Z</time>
      </trkpt>
      <trkpt lat="63.28504" lon="9.64059">
        <ele>210.909342</ele>
        <time>2020-08-05T13:20:49.355Z</time>
      </trkpt>
      <trkpt lat="63.28494" lon="9.64049">
        <ele>210.848029</ele>
        <time>2020-08-05T13:20:51.343Z</time>
      </trkpt>
      <trkpt lat="63.28484" lon="9.64045">
        <ele>210.783597</ele>
        <time>2020-08-05T13:20:53.333Z</time>
      </trkpt>
      <trkpt lat="63.28476" lon="9.64056">
        <ele>210.725534</ele>
        <time>2020-08-05T13:20:55.354Z</time>
      </trkpt>
      <trkpt lat="63.2847" lon="9.64077">
        <ele>210.658384</ele>
        <time>2020-08-05T13:20:57.354Z</time>
      </trkpt>
      <trkpt lat="63.28464" lon="9.64107">
        <ele>210.567504</ele>
        <time>2020-08-05T13:20:59.326Z</time>
      </trkpt>
      <trkpt lat="63.28457" lon="9.64138">
        <ele>210.474624</ele>
        <time>2020-08-05T13:21:01.350Z</time>
      </trkpt>
      <trkpt lat="63.2845" lon="9.64171">
        <ele>210.199494</ele>
        <time>2020-08-05T13:21:03.354Z</time>
      </trkpt>
      <trkpt lat="63.28442" lon="9.64206">
        <ele>209.607842</ele>
        <time>2020-08-05T13:21:05.363Z</time>
      </trkpt>
      <trkpt lat="63.28434" lon="9.64238">
        <ele>209.052413</ele>
        <time>2020-08-05T13:21:07.339Z</time>
      </trkpt>
      <trkpt lat="63.28427" lon="9.64268">
        <ele>208.53512</ele>
        <time>2020-08-05T13:21:09.323Z</time>
      </trkpt>
      <trkpt lat="63.28421" lon="9.64299">
        <ele>208.025777</ele>
        <time>2020-08-05T13:21:11.372Z</time>
      </trkpt>
      <trkpt lat="63.28416" lon="9.64332">
        <ele>207.507138</ele>
        <time>2020-08-05T13:21:13.343Z</time>
      </trkpt>
      <trkpt lat="63.28411" lon="9.64367">
        <ele>206.94968</ele>
        <time>2020-08-05T13:21:15.361Z</time>
      </trkpt>
      <trkpt lat="63.28405" lon="9.64402">
        <ele>206.36903</ele>
        <time>2020-08-05T13:21:17.372Z</time>
      </trkpt>
      <trkpt lat="63.28398" lon="9.64436">
        <ele>205.814126</ele>
        <time>2020-08-05T13:21:19.340Z</time>
      </trkpt>
      <trkpt lat="63.2839" lon="9.64468">
        <ele>205.259434</ele>
        <time>2020-08-05T13:21:21.398Z</time>
      </trkpt>
      <trkpt lat="63.28383" lon="9.64496">
        <ele>204.769261</ele>
        <time>2020-08-05T13:21:23.349Z</time>
      </trkpt>
      <trkpt lat="63.28376" lon="9.64521">
        <ele>204.341519</ele>
        <time>2020-08-05T13:21:25.372Z</time>
      </trkpt>
      <trkpt lat="63.2837" lon="9.64542">
        <ele>204.317435</ele>
        <time>2020-08-05T13:21:28.379Z</time>
      </trkpt>
      <trkpt lat="63.28362" lon="9.64569">
        <ele>204.286489</ele>
        <time>2020-08-05T13:21:32.330Z</time>
      </trkpt>
      <trkpt lat="63.28355" lon="9.64591">
        <ele>204.261465</ele>
        <time>2020-08-05T13:21:35.366Z</time>
      </trkpt>
      <trkpt lat="63.28349" lon="9.64614">
        <ele>204.236519</ele>
        <time>2020-08-05T13:21:38.339Z</time>
      </trkpt>
      <trkpt lat="63.28343" lon="9.64639">
        <ele>204.209421</ele>
        <time>2020-08-05T13:21:41.377Z</time>
      </trkpt>
      <trkpt lat="63.28337" lon="9.64664">
        <ele>204.182908</ele>
        <time>2020-08-05T13:21:44.340Z</time>
      </trkpt>
      <trkpt lat="63.28331" lon="9.64688">
        <ele>204.156175</ele>
        <time>2020-08-05T13:21:47.354Z</time>
      </trkpt>
      <trkpt lat="63.28324" lon="9.64712">
        <ele>204.129875</ele>
        <time>2020-08-05T13:21:50.338Z</time>
      </trkpt>
      <trkpt lat="63.28318" lon="9.64736">
        <ele>204.103353</ele>
        <time>2020-08-05T13:21:53.357Z</time>
      </trkpt>
      <trkpt lat="63.2831" lon="9.64758">
        <ele>204.075954</ele>
        <time>2020-08-05T13:21:56.361Z</time>
      </trkpt>
      <trkpt lat="63.283" lon="9.64778">
        <ele>204.048715</ele>
        <time>2020-08-05T13:21:59.345Z</time>
      </trkpt>
      <trkpt lat="63.28291" lon="9.64793">
        <ele>204.024904</ele>
        <time>2020-08-05T13:22:02.375Z</time>
      </trkpt>
      <trkpt lat="63.28283" lon="9.64801">
        <ele>204.005761</ele>
        <time>2020-08-05T13:22:05.343Z</time>
      </trkpt>
      <trkpt lat="63.28272" lon="9.64807">
        <ele>203.98332</ele>
        <time>2020-08-05T13:22:09.389Z</time>
      </trkpt>
      <trkpt lat="63.28263" lon="9.64808">
        <ele>203.964295</ele>
        <time>2020-08-05T13:22:14.347Z</time>
      </trkpt>
      <trkpt lat="63.28254" lon="9.64805">
        <ele>204.780017</ele>
        <time>2020-08-05T13:22:21.348Z</time>
      </trkpt>
      <trkpt lat="63.28245" lon="9.64793">
        <ele>205.681378</ele>
        <time>2020-08-05T13:22:27.333Z</time>
      </trkpt>
      <trkpt lat="63.28237" lon="9.64778">
        <ele>206.639052</ele>
        <time>2020-08-05T13:22:33.359Z</time>
      </trkpt>
      <trkpt lat="63.28231" lon="9.64762">
        <ele>207.501973</ele>
        <time>2020-08-05T13:22:39.375Z</time>
      </trkpt>
      <trkpt lat="63.28225" lon="9.64742">
        <ele>208.402233</ele>
        <time>2020-08-05T13:22:45.335Z</time>
      </trkpt>
      <trkpt lat="63.2822" lon="9.64722">
        <ele>209.347116</ele>
        <time>2020-08-05T13:22:51.353Z</time>
      </trkpt>
      <trkpt lat="63.28215" lon="9.64701">
        <ele>210.300418</ele>
        <time>2020-08-05T13:22:57.351Z</time>
      </trkpt>
      <trkpt lat="63.28211" lon="9.64683">
        <ele>211.11457</ele>
        <time>2020-08-05T13:23:02.372Z</time>
      </trkpt>
      <trkpt lat="63.28207" lon="9.64665">
        <ele>211.916821</ele>
        <time>2020-08-05T13:23:08.366Z</time>
      </trkpt>
      <trkpt lat="63.28202" lon="9.64646">
        <ele>212.81501</ele>
        <time>2020-08-05T13:23:14.353Z</time>
      </trkpt>
      <trkpt lat="63.28197" lon="9.64627">
        <ele>213.693545</ele>
        <time>2020-08-05T13:23:20.377Z</time>
      </trkpt>
      <trkpt lat="63.28191" lon="9.6461">
        <ele>214.517932</ele>
        <time>2020-08-05T13:23:25.335Z</time>
      </trkpt>
      <trkpt lat="63.28186" lon="9.6459">
        <ele>215.426571</ele>
        <time>2020-08-05T13:23:31.361Z</time>
      </trkpt>
      <trkpt lat="63.2818" lon="9.64572">
        <ele>216.329169</ele>
        <time>2020-08-05T13:23:36.334Z</time>
      </trkpt>
      <trkpt lat="63.28174" lon="9.64556">
        <ele>217.184506</ele>
        <time>2020-08-05T13:23:41.332Z</time>
      </trkpt>
      <trkpt lat="63.28167" lon="9.64537">
        <ele>218.126317</ele>
        <time>2020-08-05T13:23:47.358Z</time>
      </trkpt>
      <trkpt lat="63.28161" lon="9.64521">
        <ele>218.995129</ele>
        <time>2020-08-05T13:23:52.326Z</time>
      </trkpt>
      <trkpt lat="63.28154" lon="9.64505">
        <ele>219.867059</ele>
        <time>2020-08-05T13:23:57.378Z</time>
      </trkpt>
      <trkpt lat="63.28147" lon="9.64489">
        <ele>220.520917</ele>
        <time>2020-08-05T13:24:03.398Z</time>
      </trkpt>
      <trkpt lat="63.2814" lon="9.64474">
        <ele>221.045138</ele>
        <time>2020-08-05T13:24:08.350Z</time>
      </trkpt>
      <trkpt lat="63.28133" lon="9.6446">
        <ele>221.621456</ele>
        <time>2020-08-05T13:24:14.349Z</time>
      </trkpt>
      <trkpt lat="63.28126" lon="9.64445">
        <ele>222.163265</ele>
        <time>2020-08-05T13:24:19.385Z</time>
      </trkpt>
      <trkpt lat="63.28119" lon="9.64431">
        <ele>222.705196</ele>
        <time>2020-08-05T13:24:25.404Z</time>
      </trkpt>
      <trkpt lat="63.28113" lon="9.64416">
        <ele>223.245748</ele>
        <time>2020-08-05T13:24:30.374Z</time>
      </trkpt>
      <trkpt lat="63.28105" lon="9.64402">
        <ele>223.795333</ele>
        <time>2020-08-05T13:24:36.342Z</time>
      </trkpt>
      <trkpt lat="63.28099" lon="9.64389">
        <ele>224.323356</ele>
        <time>2020-08-05T13:24:41.338Z</time>
      </trkpt>
      <trkpt lat="63.28091" lon="9.64374">
        <ele>224.900081</ele>
        <time>2020-08-05T13:24:47.352Z</time>
      </trkpt>
      <trkpt lat="63.28083" lon="9.64362">
        <ele>225.45904</ele>
        <time>2020-08-05T13:24:52.345Z</time>
      </trkpt>
      <trkpt lat="63.28076" lon="9.64351">
        <ele>225.975673</ele>
        <time>2020-08-05T13:24:57.346Z</time>
      </trkpt>
      <trkpt lat="63.28068" lon="9.64339">
        <ele>226.513434</ele>
        <time>2020-08-05T13:25:03.396Z</time>
      </trkpt>
      <trkpt lat="63.2806" lon="9.64328">
        <ele>227.050281</ele>
        <time>2020-08-05T13:25:09.376Z</time>
      </trkpt>
      <trkpt lat="63.28052" lon="9.64318">
        <ele>227.608729</ele>
        <time>2020-08-05T13:25:15.377Z</time>
      </trkpt>
      <trkpt lat="63.28043" lon="9.64307">
        <ele>228.16608</ele>
        <time>2020-08-05T13:25:21.380Z</time>
      </trkpt>
      <trkpt lat="63.28035" lon="9.64299">
        <ele>228.716406</ele>
        <time>2020-08-05T13:25:26.345Z</time>
      </trkpt>
      <trkpt lat="63.28027" lon="9.64287">
        <ele>229.265219</ele>
        <time>2020-08-05T13:25:32.416Z</time>
      </trkpt>
      <trkpt lat="63.28013" lon="9.64283">
        <ele>230.037397</ele>
        <time>2020-08-05T13:29:56.354Z</time>
      </trkpt>
      <trkpt lat="63.28004" lon="9.64273">
        <ele>230.477988</ele>
        <time>2020-08-05T13:30:02.362Z</time>
      </trkpt>
      <trkpt lat="63.27996" lon="9.64265">
        <ele>230.691852</ele>
        <time>2020-08-05T13:30:07.338Z</time>
      </trkpt>
      <trkpt lat="63.27986" lon="9.64255">
        <ele>230.944249</ele>
        <time>2020-08-05T13:30:13.334Z</time>
      </trkpt>
      <trkpt lat="63.27978" lon="9.64248">
        <ele>231.161663</ele>
        <time>2020-08-05T13:30:18.343Z</time>
      </trkpt>
      <trkpt lat="63.27969" lon="9.64236">
        <ele>231.394769</ele>
        <time>2020-08-05T13:30:23.417Z</time>
      </trkpt>
      <trkpt lat="63.27961" lon="9.64225">
        <ele>231.629351</ele>
        <time>2020-08-05T13:30:28.352Z</time>
      </trkpt>
      <trkpt lat="63.27952" lon="9.64212">
        <ele>231.872309</ele>
        <time>2020-08-05T13:30:35.374Z</time>
      </trkpt>
      <trkpt lat="63.27944" lon="9.64196">
        <ele>232.126131</ele>
        <time>2020-08-05T13:30:42.343Z</time>
      </trkpt>
      <trkpt lat="63.27937" lon="9.64182">
        <ele>232.3548</ele>
        <time>2020-08-05T13:30:49.367Z</time>
      </trkpt>
      <trkpt lat="63.2793" lon="9.64167">
        <ele>232.578218</ele>
        <time>2020-08-05T13:30:55.378Z</time>
      </trkpt>
      <trkpt lat="63.27923" lon="9.64152">
        <ele>232.810713</ele>
        <time>2020-08-05T13:31:01.357Z</time>
      </trkpt>
      <trkpt lat="63.27918" lon="9.64134">
        <ele>233.037576</ele>
        <time>2020-08-05T13:31:07.374Z</time>
      </trkpt>
      <trkpt lat="63.27912" lon="9.64116">
        <ele>233.284967</ele>
        <time>2020-08-05T13:31:13.357Z</time>
      </trkpt>
      <trkpt lat="63.27906" lon="9.641">
        <ele>233.505248</ele>
        <time>2020-08-05T13:31:18.374Z</time>
      </trkpt>
      <trkpt lat="63.279" lon="9.64081">
        <ele>233.753831</ele>
        <time>2020-08-05T13:31:23.325Z</time>
      </trkpt>
      <trkpt lat="63.27892" lon="9.64062">
        <ele>234.020742</ele>
        <time>2020-08-05T13:31:28.356Z</time>
      </trkpt>
      <trkpt lat="63.27883" lon="9.64051">
        <ele>234.27696</ele>
        <time>2020-08-05T13:31:32.338Z</time>
      </trkpt>
      <trkpt lat="63.27873" lon="9.64041">
        <ele>234.534973</ele>
        <time>2020-08-05T13:31:35.329Z</time>
      </trkpt>
      <trkpt lat="63.27861" lon="9.64032">
        <ele>234.728636</ele>
        <time>2020-08-05T13:31:38.355Z</time>
      </trkpt>
      <trkpt lat="63.27853" lon="9.64025">
        <ele>234.836199</ele>
        <time>2020-08-05T13:31:40.351Z</time>
      </trkpt>
      <trkpt lat="63.27844" lon="9.64017">
        <ele>234.945653</ele>
        <time>2020-08-05T13:31:42.381Z</time>
      </trkpt>
      <trkpt lat="63.27833" lon="9.64008">
        <ele>235.089218</ele>
        <time>2020-08-05T13:31:45.358Z</time>
      </trkpt>
      <trkpt lat="63.27823" lon="9.64001">
        <ele>235.21509</ele>
        <time>2020-08-05T13:31:48.363Z</time>
      </trkpt>
      <trkpt lat="63.27814" lon="9.63995">
        <ele>235.331508</ele>
        <time>2020-08-05T13:31:51.371Z</time>
      </trkpt>
      <trkpt lat="63.27805" lon="9.63988">
        <ele>235.444705</ele>
        <time>2020-08-05T13:31:54.392Z</time>
      </trkpt>
      <trkpt lat="63.27796" lon="9.63981">
        <ele>235.558451</ele>
        <time>2020-08-05T13:31:57.342Z</time>
      </trkpt>
      <trkpt lat="63.27787" lon="9.63974">
        <ele>235.667193</ele>
        <time>2020-08-05T13:32:00.360Z</time>
      </trkpt>
      <trkpt lat="63.27777" lon="9.63967">
        <ele>235.803024</ele>
        <time>2020-08-05T13:32:04.334Z</time>
      </trkpt>
      <trkpt lat="63.27766" lon="9.6396">
        <ele>235.931345</ele>
        <time>2020-08-05T13:32:08.345Z</time>
      </trkpt>
      <trkpt lat="63.27756" lon="9.63953">
        <ele>236.063631</ele>
        <time>2020-08-05T13:32:12.392Z</time>
      </trkpt>
      <trkpt lat="63.27746" lon="9.63948">
        <ele>236.19028</ele>
        <time>2020-08-05T13:32:16.396Z</time>
      </trkpt>
      <trkpt lat="63.27735" lon="9.63945">
        <ele>236.321978</ele>
        <time>2020-08-05T13:32:21.354Z</time>
      </trkpt>
      <trkpt lat="63.27725" lon="9.6394">
        <ele>236.439733</ele>
        <time>2020-08-05T13:32:25.382Z</time>
      </trkpt>
      <trkpt lat="63.27714" lon="9.63942">
        <ele>236.573186</ele>
        <time>2020-08-05T13:32:30.341Z</time>
      </trkpt>
      <trkpt lat="63.27705" lon="9.63949">
        <ele>236.690574</ele>
        <time>2020-08-05T13:32:34.378Z</time>
      </trkpt>
      <trkpt lat="63.27696" lon="9.63957">
        <ele>236.782324</ele>
        <time>2020-08-05T13:32:38.375Z</time>
      </trkpt>
      <trkpt lat="63.27688" lon="9.63975">
        <ele>236.740046</ele>
        <time>2020-08-05T13:32:42.367Z</time>
      </trkpt>
      <trkpt lat="63.27682" lon="9.63992">
        <ele>236.705297</ele>
        <time>2020-08-05T13:32:45.401Z</time>
      </trkpt>
      <trkpt lat="63.27678" lon="9.64012">
        <ele>236.668425</ele>
        <time>2020-08-05T13:32:48.358Z</time>
      </trkpt>
      <trkpt lat="63.27675" lon="9.64038">
        <ele>236.624641</ele>
        <time>2020-08-05T13:32:51.340Z</time>
      </trkpt>
      <trkpt lat="63.27673" lon="9.64067">
        <ele>236.575612</ele>
        <time>2020-08-05T13:32:54.345Z</time>
      </trkpt>
      <trkpt lat="63.27673" lon="9.64096">
        <ele>236.528089</ele>
        <time>2020-08-05T13:32:57.379Z</time>
      </trkpt>
      <trkpt lat="63.27673" lon="9.64117">
        <ele>236.493106</ele>
        <time>2020-08-05T13:32:59.362Z</time>
      </trkpt>
      <trkpt lat="63.27672" lon="9.6414">
        <ele>236.454926</ele>
        <time>2020-08-05T13:33:01.330Z</time>
      </trkpt>
      <trkpt lat="63.27671" lon="9.64164">
        <ele>236.415484</ele>
        <time>2020-08-05T13:33:03.374Z</time>
      </trkpt>
      <trkpt lat="63.27669" lon="9.64187">
        <ele>236.377315</ele>
        <time>2020-08-05T13:33:05.362Z</time>
      </trkpt>
      <trkpt lat="63.27666" lon="9.64209">
        <ele>236.340193</ele>
        <time>2020-08-05T13:33:07.365Z</time>
      </trkpt>
      <trkpt lat="63.27662" lon="9.64236">
        <ele>236.292525</ele>
        <time>2020-08-05T13:33:10.338Z</time>
      </trkpt>
      <trkpt lat="63.27657" lon="9.6426">
        <ele>236.249923</ele>
        <time>2020-08-05T13:33:13.336Z</time>
      </trkpt>
      <trkpt lat="63.27653" lon="9.64278">
        <ele>236.215827</ele>
        <time>2020-08-05T13:33:16.351Z</time>
      </trkpt>
      <trkpt lat="63.27648" lon="9.64296">
        <ele>236.181266</ele>
        <time>2020-08-05T13:33:20.385Z</time>
      </trkpt>
      <trkpt lat="63.27644" lon="9.64315">
        <ele>236.147382</ele>
        <time>2020-08-05T13:33:25.351Z</time>
      </trkpt>
      <trkpt lat="63.27641" lon="9.64336">
        <ele>236.049582</ele>
        <time>2020-08-05T13:33:30.334Z</time>
      </trkpt>
      <trkpt lat="63.27638" lon="9.64358">
        <ele>235.894955</ele>
        <time>2020-08-05T13:33:34.410Z</time>
      </trkpt>
      <trkpt lat="63.27636" lon="9.64381">
        <ele>235.727495</ele>
        <time>2020-08-05T13:33:38.345Z</time>
      </trkpt>
      <trkpt lat="63.27635" lon="9.64402">
        <ele>235.585605</ele>
        <time>2020-08-05T13:33:41.353Z</time>
      </trkpt>
      <trkpt lat="63.27635" lon="9.64429">
        <ele>235.396212</ele>
        <time>2020-08-05T13:33:44.367Z</time>
      </trkpt>
      <trkpt lat="63.27636" lon="9.64449">
        <ele>235.252792</ele>
        <time>2020-08-05T13:33:46.347Z</time>
      </trkpt>
      <trkpt lat="63.27638" lon="9.6447">
        <ele>235.108039</ele>
        <time>2020-08-05T13:33:48.354Z</time>
      </trkpt>
      <trkpt lat="63.2764" lon="9.6449">
        <ele>234.965336</ele>
        <time>2020-08-05T13:33:50.332Z</time>
      </trkpt>
      <trkpt lat="63.27641" lon="9.64513">
        <ele>234.803321</ele>
        <time>2020-08-05T13:33:52.356Z</time>
      </trkpt>
      <trkpt lat="63.27642" lon="9.64533">
        <ele>234.663073</ele>
        <time>2020-08-05T13:33:54.370Z</time>
      </trkpt>
      <trkpt lat="63.27644" lon="9.64553">
        <ele>234.51665</ele>
        <time>2020-08-05T13:33:56.344Z</time>
      </trkpt>
      <trkpt lat="63.27646" lon="9.64576">
        <ele>234.358008</ele>
        <time>2020-08-05T13:33:58.343Z</time>
      </trkpt>
      <trkpt lat="63.27649" lon="9.64598">
        <ele>234.196532</ele>
        <time>2020-08-05T13:34:00.364Z</time>
      </trkpt>
      <trkpt lat="63.27651" lon="9.64622">
        <ele>234.030077</ele>
        <time>2020-08-05T13:34:02.348Z</time>
      </trkpt>
      <trkpt lat="63.27653" lon="9.64645">
        <ele>233.866279</ele>
        <time>2020-08-05T13:34:04.360Z</time>
      </trkpt>
      <trkpt lat="63.27656" lon="9.64667">
        <ele>233.705476</ele>
        <time>2020-08-05T13:34:06.335Z</time>
      </trkpt>
      <trkpt lat="63.27658" lon="9.6469">
        <ele>233.542776</ele>
        <time>2020-08-05T13:34:08.352Z</time>
      </trkpt>
      <trkpt lat="63.2766" lon="9.64713">
        <ele>233.379793</ele>
        <time>2020-08-05T13:34:10.355Z</time>
      </trkpt>
      <trkpt lat="63.27662" lon="9.64737">
        <ele>233.208289</ele>
        <time>2020-08-05T13:34:12.335Z</time>
      </trkpt>
      <trkpt lat="63.27665" lon="9.64761">
        <ele>233.033372</ele>
        <time>2020-08-05T13:34:14.343Z</time>
      </trkpt>
      <trkpt lat="63.27667" lon="9.64785">
        <ele>232.862581</ele>
        <time>2020-08-05T13:34:16.352Z</time>
      </trkpt>
      <trkpt lat="63.27669" lon="9.64811">
        <ele>232.68304</ele>
        <time>2020-08-05T13:34:18.396Z</time>
      </trkpt>
      <trkpt lat="63.27672" lon="9.64835">
        <ele>232.503769</ele>
        <time>2020-08-05T13:34:20.346Z</time>
      </trkpt>
      <trkpt lat="63.27675" lon="9.64861">
        <ele>232.324554</ele>
        <time>2020-08-05T13:34:22.395Z</time>
      </trkpt>
      <trkpt lat="63.27678" lon="9.64885">
        <ele>232.149639</ele>
        <time>2020-08-05T13:34:24.344Z</time>
      </trkpt>
      <trkpt lat="63.2768" lon="9.64908">
        <ele>231.980215</ele>
        <time>2020-08-05T13:34:26.344Z</time>
      </trkpt>
      <trkpt lat="63.27683" lon="9.64931">
        <ele>231.816567</ele>
        <time>2020-08-05T13:34:28.416Z</time>
      </trkpt>
      <trkpt lat="63.27685" lon="9.64953">
        <ele>231.658408</ele>
        <time>2020-08-05T13:34:30.355Z</time>
      </trkpt>
      <trkpt lat="63.27687" lon="9.64974">
        <ele>231.509747</ele>
        <time>2020-08-05T13:34:32.354Z</time>
      </trkpt>
      <trkpt lat="63.2769" lon="9.64994">
        <ele>231.36747</ele>
        <time>2020-08-05T13:34:34.358Z</time>
      </trkpt>
      <trkpt lat="63.27692" lon="9.65014">
        <ele>231.225867</ele>
        <time>2020-08-05T13:34:36.345Z</time>
      </trkpt>
      <trkpt lat="63.27695" lon="9.65034">
        <ele>231.078029</ele>
        <time>2020-08-05T13:34:38.344Z</time>
      </trkpt>
      <trkpt lat="63.27699" lon="9.65055">
        <ele>230.924053</ele>
        <time>2020-08-05T13:34:40.362Z</time>
      </trkpt>
      <trkpt lat="63.27702" lon="9.65075">
        <ele>230.775388</ele>
        <time>2020-08-05T13:34:42.329Z</time>
      </trkpt>
      <trkpt lat="63.27706" lon="9.65095">
        <ele>230.623101</ele>
        <time>2020-08-05T13:34:44.377Z</time>
      </trkpt>
      <trkpt lat="63.27709" lon="9.65116">
        <ele>230.486657</ele>
        <time>2020-08-05T13:34:46.339Z</time>
      </trkpt>
      <trkpt lat="63.27712" lon="9.65138">
        <ele>230.3689</ele>
        <time>2020-08-05T13:34:48.334Z</time>
      </trkpt>
      <trkpt lat="63.27717" lon="9.65158">
        <ele>230.250635</ele>
        <time>2020-08-05T13:34:50.366Z</time>
      </trkpt>
      <trkpt lat="63.27722" lon="9.65177">
        <ele>230.133762</ele>
        <time>2020-08-05T13:34:52.361Z</time>
      </trkpt>
      <trkpt lat="63.27727" lon="9.65197">
        <ele>230.008721</ele>
        <time>2020-08-05T13:34:54.383Z</time>
      </trkpt>
      <trkpt lat="63.27733" lon="9.65217">
        <ele>229.88202</ele>
        <time>2020-08-05T13:34:56.343Z</time>
      </trkpt>
      <trkpt lat="63.27739" lon="9.65237">
        <ele>229.75528</ele>
        <time>2020-08-05T13:34:58.355Z</time>
      </trkpt>
      <trkpt lat="63.27746" lon="9.65257">
        <ele>229.62441</ele>
        <time>2020-08-05T13:35:00.367Z</time>
      </trkpt>
      <trkpt lat="63.27753" lon="9.65278">
        <ele>229.481938</ele>
        <time>2020-08-05T13:35:02.359Z</time>
      </trkpt>
      <trkpt lat="63.27762" lon="9.65298">
        <ele>229.336364</ele>
        <time>2020-08-05T13:35:04.371Z</time>
      </trkpt>
      <trkpt lat="63.27771" lon="9.65317">
        <ele>229.188483</ele>
        <time>2020-08-05T13:35:06.335Z</time>
      </trkpt>
      <trkpt lat="63.2778" lon="9.65336">
        <ele>229.044492</ele>
        <time>2020-08-05T13:35:08.391Z</time>
      </trkpt>
      <trkpt lat="63.27789" lon="9.65358">
        <ele>228.881695</ele>
        <time>2020-08-05T13:35:10.333Z</time>
      </trkpt>
      <trkpt lat="63.27799" lon="9.65384">
        <ele>228.703185</ele>
        <time>2020-08-05T13:35:12.411Z</time>
      </trkpt>
      <trkpt lat="63.27809" lon="9.65408">
        <ele>228.53134</ele>
        <time>2020-08-05T13:35:14.413Z</time>
      </trkpt>
      <trkpt lat="63.27818" lon="9.65434">
        <ele>228.335609</ele>
        <time>2020-08-05T13:35:16.357Z</time>
      </trkpt>
      <trkpt lat="63.27827" lon="9.6546">
        <ele>228.126002</ele>
        <time>2020-08-05T13:35:18.352Z</time>
      </trkpt>
      <trkpt lat="63.27835" lon="9.65485">
        <ele>227.92184</ele>
        <time>2020-08-05T13:35:20.354Z</time>
      </trkpt>
      <trkpt lat="63.27843" lon="9.6551">
        <ele>227.718523</ele>
        <time>2020-08-05T13:35:22.381Z</time>
      </trkpt>
      <trkpt lat="63.2785" lon="9.65534">
        <ele>227.52832</ele>
        <time>2020-08-05T13:35:24.335Z</time>
      </trkpt>
      <trkpt lat="63.27857" lon="9.65557">
        <ele>227.347922</ele>
        <time>2020-08-05T13:35:26.375Z</time>
      </trkpt>
      <trkpt lat="63.27864" lon="9.6558">
        <ele>227.168621</ele>
        <time>2020-08-05T13:35:28.354Z</time>
      </trkpt>
      <trkpt lat="63.2787" lon="9.65603">
        <ele>226.986321</ele>
        <time>2020-08-05T13:35:30.352Z</time>
      </trkpt>
      <trkpt lat="63.27878" lon="9.65627">
        <ele>226.789934</ele>
        <time>2020-08-05T13:35:32.362Z</time>
      </trkpt>
      <trkpt lat="63.27886" lon="9.65653">
        <ele>226.581752</ele>
        <time>2020-08-05T13:35:34.361Z</time>
      </trkpt>
      <trkpt lat="63.27894" lon="9.6568">
        <ele>226.372747</ele>
        <time>2020-08-05T13:35:36.334Z</time>
      </trkpt>
      <trkpt lat="63.27903" lon="9.65708">
        <ele>226.149032</ele>
        <time>2020-08-05T13:35:38.338Z</time>
      </trkpt>
      <trkpt lat="63.27912" lon="9.65737">
        <ele>225.920399</ele>
        <time>2020-08-05T13:35:40.366Z</time>
      </trkpt>
      <trkpt lat="63.27921" lon="9.65767">
        <ele>225.58124</ele>
        <time>2020-08-05T13:35:42.371Z</time>
      </trkpt>
      <trkpt lat="63.27928" lon="9.6579">
        <ele>225.256667</ele>
        <time>2020-08-05T13:35:44.363Z</time>
      </trkpt>
      <trkpt lat="63.27935" lon="9.65813">
        <ele>224.940153</ele>
        <time>2020-08-05T13:35:46.355Z</time>
      </trkpt>
      <trkpt lat="63.27942" lon="9.65835">
        <ele>224.636721</ele>
        <time>2020-08-05T13:35:48.353Z</time>
      </trkpt>
      <trkpt lat="63.27949" lon="9.65856">
        <ele>224.346178</ele>
        <time>2020-08-05T13:35:50.339Z</time>
      </trkpt>
      <trkpt lat="63.27955" lon="9.65876">
        <ele>224.075916</ele>
        <time>2020-08-05T13:35:52.358Z</time>
      </trkpt>
      <trkpt lat="63.2796" lon="9.65893">
        <ele>223.837819</ele>
        <time>2020-08-05T13:35:54.342Z</time>
      </trkpt>
      <trkpt lat="63.27967" lon="9.65918">
        <ele>223.494276</ele>
        <time>2020-08-05T13:35:57.340Z</time>
      </trkpt>
      <trkpt lat="63.27973" lon="9.65939">
        <ele>223.214565</ele>
        <time>2020-08-05T13:35:59.343Z</time>
      </trkpt>
      <trkpt lat="63.27979" lon="9.6596">
        <ele>222.932939</ele>
        <time>2020-08-05T13:36:01.367Z</time>
      </trkpt>
      <trkpt lat="63.27984" lon="9.65981">
        <ele>222.661724</ele>
        <time>2020-08-05T13:36:03.381Z</time>
      </trkpt>
      <trkpt lat="63.2799" lon="9.66004">
        <ele>222.363133</ele>
        <time>2020-08-05T13:36:05.359Z</time>
      </trkpt>
      <trkpt lat="63.27995" lon="9.66027">
        <ele>222.063394</ele>
        <time>2020-08-05T13:36:07.345Z</time>
      </trkpt>
      <trkpt lat="63.27999" lon="9.66048">
        <ele>221.807668</ele>
        <time>2020-08-05T13:36:09.353Z</time>
      </trkpt>
      <trkpt lat="63.28005" lon="9.66074">
        <ele>221.475014</ele>
        <time>2020-08-05T13:36:12.354Z</time>
      </trkpt>
      <trkpt lat="63.2801" lon="9.66095">
        <ele>221.234812</ele>
        <time>2020-08-05T13:36:14.341Z</time>
      </trkpt>
      <trkpt lat="63.28016" lon="9.66121">
        <ele>221.073333</ele>
        <time>2020-08-05T13:36:16.381Z</time>
      </trkpt>
      <trkpt lat="63.28024" lon="9.66146">
        <ele>220.90759</ele>
        <time>2020-08-05T13:36:18.343Z</time>
      </trkpt>
      <trkpt lat="63.28033" lon="9.6617">
        <ele>220.736653</ele>
        <time>2020-08-05T13:36:20.341Z</time>
      </trkpt>
      <trkpt lat="63.28042" lon="9.66198">
        <ele>220.552428</ele>
        <time>2020-08-05T13:36:22.365Z</time>
      </trkpt>
      <trkpt lat="63.28051" lon="9.66224">
        <ele>220.371369</ele>
        <time>2020-08-05T13:36:24.353Z</time>
      </trkpt>
      <trkpt lat="63.28062" lon="9.66251">
        <ele>220.177357</ele>
        <time>2020-08-05T13:36:26.358Z</time>
      </trkpt>
      <trkpt lat="63.28073" lon="9.66279">
        <ele>219.976019</ele>
        <time>2020-08-05T13:36:28.390Z</time>
      </trkpt>
      <trkpt lat="63.28082" lon="9.66307">
        <ele>219.785782</ele>
        <time>2020-08-05T13:36:30.346Z</time>
      </trkpt>
      <trkpt lat="63.28092" lon="9.66332">
        <ele>219.603882</ele>
        <time>2020-08-05T13:36:32.377Z</time>
      </trkpt>
      <trkpt lat="63.28102" lon="9.66357">
        <ele>219.420761</ele>
        <time>2020-08-05T13:36:34.364Z</time>
      </trkpt>
      <trkpt lat="63.28112" lon="9.66381">
        <ele>219.250965</ele>
        <time>2020-08-05T13:36:36.348Z</time>
      </trkpt>
      <trkpt lat="63.2812" lon="9.66402">
        <ele>219.094475</ele>
        <time>2020-08-05T13:36:38.343Z</time>
      </trkpt>
      <trkpt lat="63.28128" lon="9.66421">
        <ele>219.442839</ele>
        <time>2020-08-05T13:36:40.395Z</time>
      </trkpt>
      <trkpt lat="63.28134" lon="9.66437">
        <ele>219.77286</ele>
        <time>2020-08-05T13:36:42.342Z</time>
      </trkpt>
      <trkpt lat="63.2814" lon="9.66452">
        <ele>220.080173</ele>
        <time>2020-08-05T13:36:44.348Z</time>
      </trkpt>
      <trkpt lat="63.28148" lon="9.6647">
        <ele>220.460877</ele>
        <time>2020-08-05T13:36:47.383Z</time>
      </trkpt>
      <trkpt lat="63.28155" lon="9.66488">
        <ele>220.820105</ele>
        <time>2020-08-05T13:36:50.403Z</time>
      </trkpt>
      <trkpt lat="63.28161" lon="9.66503">
        <ele>221.126437</ele>
        <time>2020-08-05T13:36:53.362Z</time>
      </trkpt>
      <trkpt lat="63.28169" lon="9.66522">
        <ele>221.527471</ele>
        <time>2020-08-05T13:36:57.353Z</time>
      </trkpt>
      <trkpt lat="63.28176" lon="9.66542">
        <ele>221.904454</ele>
        <time>2020-08-05T13:37:01.336Z</time>
      </trkpt>
      <trkpt lat="63.28183" lon="9.66558">
        <ele>222.231134</ele>
        <time>2020-08-05T13:37:04.340Z</time>
      </trkpt>
      <trkpt lat="63.28189" lon="9.66575">
        <ele>222.573417</ele>
        <time>2020-08-05T13:37:07.383Z</time>
      </trkpt>
      <trkpt lat="63.28195" lon="9.66593">
        <ele>222.919956</ele>
        <time>2020-08-05T13:37:10.345Z</time>
      </trkpt>
      <trkpt lat="63.28202" lon="9.66609">
        <ele>223.245296</ele>
        <time>2020-08-05T13:37:13.374Z</time>
      </trkpt>
      <trkpt lat="63.28208" lon="9.66627">
        <ele>223.59631</ele>
        <time>2020-08-05T13:37:16.350Z</time>
      </trkpt>
      <trkpt lat="63.28215" lon="9.6665">
        <ele>223.995662</ele>
        <time>2020-08-05T13:37:19.363Z</time>
      </trkpt>
      <trkpt lat="63.2822" lon="9.66672">
        <ele>224.388496</ele>
        <time>2020-08-05T13:37:22.395Z</time>
      </trkpt>
      <trkpt lat="63.28226" lon="9.66697">
        <ele>224.817428</ele>
        <time>2020-08-05T13:37:25.366Z</time>
      </trkpt>
      <trkpt lat="63.2823" lon="9.66716">
        <ele>225.130586</ele>
        <time>2020-08-05T13:37:27.429Z</time>
      </trkpt>
      <trkpt lat="63.28234" lon="9.66737">
        <ele>224.754727</ele>
        <time>2020-08-05T13:37:29.367Z</time>
      </trkpt>
      <trkpt lat="63.28237" lon="9.66759">
        <ele>224.294432</ele>
        <time>2020-08-05T13:37:31.336Z</time>
      </trkpt>
      <trkpt lat="63.28241" lon="9.66781">
        <ele>223.821044</ele>
        <time>2020-08-05T13:37:33.354Z</time>
      </trkpt>
      <trkpt lat="63.28244" lon="9.66802">
        <ele>223.394405</ele>
        <time>2020-08-05T13:37:35.330Z</time>
      </trkpt>
      <trkpt lat="63.28248" lon="9.6683">
        <ele>222.801167</ele>
        <time>2020-08-05T13:37:38.401Z</time>
      </trkpt>
      <trkpt lat="63.28252" lon="9.66849">
        <ele>222.402676</ele>
        <time>2020-08-05T13:37:40.347Z</time>
      </trkpt>
      <trkpt lat="63.28256" lon="9.66875">
        <ele>221.834306</ele>
        <time>2020-08-05T13:37:43.335Z</time>
      </trkpt>
      <trkpt lat="63.2826" lon="9.66901">
        <ele>221.288868</ele>
        <time>2020-08-05T13:37:46.351Z</time>
      </trkpt>
      <trkpt lat="63.28263" lon="9.66921">
        <ele>220.87496</ele>
        <time>2020-08-05T13:37:48.391Z</time>
      </trkpt>
      <trkpt lat="63.28267" lon="9.66942">
        <ele>220.419537</ele>
        <time>2020-08-05T13:37:50.352Z</time>
      </trkpt>
      <trkpt lat="63.2827" lon="9.66964">
        <ele>219.951383</ele>
        <time>2020-08-05T13:37:52.337Z</time>
      </trkpt>
      <trkpt lat="63.28274" lon="9.66988">
        <ele>219.46201</ele>
        <time>2020-08-05T13:37:54.333Z</time>
      </trkpt>
      <trkpt lat="63.28276" lon="9.67012">
        <ele>218.959127</ele>
        <time>2020-08-05T13:37:56.362Z</time>
      </trkpt>
      <trkpt lat="63.28277" lon="9.67037">
        <ele>218.465988</ele>
        <time>2020-08-05T13:37:58.403Z</time>
      </trkpt>
      <trkpt lat="63.28278" lon="9.67063">
        <ele>217.950106</ele>
        <time>2020-08-05T13:38:00.396Z</time>
      </trkpt>
      <trkpt lat="63.28279" lon="9.67091">
        <ele>217.396871</ele>
        <time>2020-08-05T13:38:02.354Z</time>
      </trkpt>
      <trkpt lat="63.28282" lon="9.67119">
        <ele>216.844661</ele>
        <time>2020-08-05T13:38:04.355Z</time>
      </trkpt>
      <trkpt lat="63.28285" lon="9.67146">
        <ele>216.3269</ele>
        <time>2020-08-05T13:38:06.390Z</time>
      </trkpt>
      <trkpt lat="63.28288" lon="9.67171">
        <ele>215.844578</ele>
        <time>2020-08-05T13:38:08.346Z</time>
      </trkpt>
      <trkpt lat="63.28294" lon="9.67192">
        <ele>215.401652</ele>
        <time>2020-08-05T13:38:10.383Z</time>
      </trkpt>
      <trkpt lat="63.28302" lon="9.67202">
        <ele>215.023392</ele>
        <time>2020-08-05T13:38:12.366Z</time>
      </trkpt>
      <trkpt lat="63.28314" lon="9.67208">
        <ele>214.484321</ele>
        <time>2020-08-05T13:38:15.377Z</time>
      </trkpt>
      <trkpt lat="63.28322" lon="9.67221">
        <ele>214.095596</ele>
        <time>2020-08-05T13:38:17.359Z</time>
      </trkpt>
      <trkpt lat="63.28327" lon="9.67244">
        <ele>213.630219</ele>
        <time>2020-08-05T13:38:19.350Z</time>
      </trkpt>
      <trkpt lat="63.28332" lon="9.67271">
        <ele>213.080483</ele>
        <time>2020-08-05T13:38:21.363Z</time>
      </trkpt>
      <trkpt lat="63.28337" lon="9.67301">
        <ele>212.486316</ele>
        <time>2020-08-05T13:38:23.358Z</time>
      </trkpt>
      <trkpt lat="63.28343" lon="9.67334">
        <ele>211.834932</ele>
        <time>2020-08-05T13:38:25.352Z</time>
      </trkpt>
      <trkpt lat="63.28349" lon="9.67369">
        <ele>211.145639</ele>
        <time>2020-08-05T13:38:27.356Z</time>
      </trkpt>
      <trkpt lat="63.28355" lon="9.67404">
        <ele>210.44306</ele>
        <time>2020-08-05T13:38:29.354Z</time>
      </trkpt>
      <trkpt lat="63.28361" lon="9.67439">
        <ele>209.768129</ele>
        <time>2020-08-05T13:38:31.362Z</time>
      </trkpt>
      <trkpt lat="63.28367" lon="9.67475">
        <ele>209.178277</ele>
        <time>2020-08-05T13:38:33.355Z</time>
      </trkpt>
      <trkpt lat="63.28372" lon="9.67509">
        <ele>208.613971</ele>
        <time>2020-08-05T13:38:35.363Z</time>
      </trkpt>
      <trkpt lat="63.28378" lon="9.67544">
        <ele>208.05373</ele>
        <time>2020-08-05T13:38:37.361Z</time>
      </trkpt>
      <trkpt lat="63.28383" lon="9.67577">
        <ele>207.504504</ele>
        <time>2020-08-05T13:38:39.342Z</time>
      </trkpt>
      <trkpt lat="63.28388" lon="9.6761">
        <ele>206.965148</ele>
        <time>2020-08-05T13:38:41.336Z</time>
      </trkpt>
      <trkpt lat="63.28394" lon="9.67643">
        <ele>206.429003</ele>
        <time>2020-08-05T13:38:43.388Z</time>
      </trkpt>
      <trkpt lat="63.28399" lon="9.67678">
        <ele>205.8618</ele>
        <time>2020-08-05T13:38:45.355Z</time>
      </trkpt>
      <trkpt lat="63.28405" lon="9.67715">
        <ele>205.2545</ele>
        <time>2020-08-05T13:38:47.331Z</time>
      </trkpt>
      <trkpt lat="63.28408" lon="9.67734">
        <ele>204.935148</ele>
        <time>2020-08-05T13:38:48.383Z</time>
      </trkpt>
      <trkpt lat="63.28411" lon="9.67754">
        <ele>204.617583</ele>
        <time>2020-08-05T13:38:49.334Z</time>
      </trkpt>
      <trkpt lat="63.28414" lon="9.67773">
        <ele>204.295655</ele>
        <time>2020-08-05T13:38:50.329Z</time>
      </trkpt>
      <trkpt lat="63.28417" lon="9.67793">
        <ele>203.969355</ele>
        <time>2020-08-05T13:38:51.364Z</time>
      </trkpt>
      <trkpt lat="63.2842" lon="9.67814">
        <ele>203.641231</ele>
        <time>2020-08-05T13:38:52.354Z</time>
      </trkpt>
      <trkpt lat="63.28423" lon="9.67834">
        <ele>203.452944</ele>
        <time>2020-08-05T13:38:53.377Z</time>
      </trkpt>
      <trkpt lat="63.28427" lon="9.67854">
        <ele>203.263877</ele>
        <time>2020-08-05T13:38:54.369Z</time>
      </trkpt>
      <trkpt lat="63.2843" lon="9.67874">
        <ele>203.072328</ele>
        <time>2020-08-05T13:38:55.367Z</time>
      </trkpt>
      <trkpt lat="63.28433" lon="9.67895">
        <ele>202.879951</ele>
        <time>2020-08-05T13:38:56.371Z</time>
      </trkpt>
      <trkpt lat="63.28437" lon="9.67915">
        <ele>202.68923</ele>
        <time>2020-08-05T13:38:57.343Z</time>
      </trkpt>
      <trkpt lat="63.2844" lon="9.67936">
        <ele>202.49851</ele>
        <time>2020-08-05T13:38:58.363Z</time>
      </trkpt>
      <trkpt lat="63.28443" lon="9.67956">
        <ele>202.310532</ele>
        <time>2020-08-05T13:38:59.338Z</time>
      </trkpt>
      <trkpt lat="63.28446" lon="9.67976">
        <ele>202.12064</ele>
        <time>2020-08-05T13:39:00.380Z</time>
      </trkpt>
      <trkpt lat="63.28449" lon="9.67996">
        <ele>201.933892</ele>
        <time>2020-08-05T13:39:01.370Z</time>
      </trkpt>
      <trkpt lat="63.28453" lon="9.68016">
        <ele>201.749629</ele>
        <time>2020-08-05T13:39:02.332Z</time>
      </trkpt>
      <trkpt lat="63.28456" lon="9.68036">
        <ele>201.565191</ele>
        <time>2020-08-05T13:39:03.338Z</time>
      </trkpt>
      <trkpt lat="63.28459" lon="9.68056">
        <ele>201.378605</ele>
        <time>2020-08-05T13:39:04.373Z</time>
      </trkpt>
      <trkpt lat="63.28462" lon="9.68075">
        <ele>201.196657</ele>
        <time>2020-08-05T13:39:05.385Z</time>
      </trkpt>
      <trkpt lat="63.28465" lon="9.68095">
        <ele>201.01471</ele>
        <time>2020-08-05T13:39:06.349Z</time>
      </trkpt>
      <trkpt lat="63.28468" lon="9.68114">
        <ele>200.836077</ele>
        <time>2020-08-05T13:39:07.354Z</time>
      </trkpt>
      <trkpt lat="63.28471" lon="9.68133">
        <ele>200.659923</ele>
        <time>2020-08-05T13:39:08.344Z</time>
      </trkpt>
      <trkpt lat="63.28477" lon="9.68167">
        <ele>200.338239</ele>
        <time>2020-08-05T13:39:10.354Z</time>
      </trkpt>
      <trkpt lat="63.28482" lon="9.68198">
        <ele>200.134384</ele>
        <time>2020-08-05T13:39:12.381Z</time>
      </trkpt>
      <trkpt lat="63.28487" lon="9.68226">
        <ele>200.197944</ele>
        <time>2020-08-05T13:39:14.369Z</time>
      </trkpt>
      <trkpt lat="63.28492" lon="9.68251">
        <ele>200.25889</ele>
        <time>2020-08-05T13:39:16.355Z</time>
      </trkpt>
      <trkpt lat="63.28498" lon="9.68275">
        <ele>200.314766</ele>
        <time>2020-08-05T13:39:18.340Z</time>
      </trkpt>
      <trkpt lat="63.28503" lon="9.68296">
        <ele>200.36846</ele>
        <time>2020-08-05T13:39:20.384Z</time>
      </trkpt>
      <trkpt lat="63.28509" lon="9.68317">
        <ele>200.422019</ele>
        <time>2020-08-05T13:39:22.354Z</time>
      </trkpt>
      <trkpt lat="63.28515" lon="9.68338">
        <ele>200.476347</ele>
        <time>2020-08-05T13:39:24.338Z</time>
      </trkpt>
      <trkpt lat="63.28522" lon="9.68358">
        <ele>200.530686</ele>
        <time>2020-08-05T13:39:26.343Z</time>
      </trkpt>
      <trkpt lat="63.28529" lon="9.68379">
        <ele>200.586015</ele>
        <time>2020-08-05T13:39:28.345Z</time>
      </trkpt>
      <trkpt lat="63.28536" lon="9.68401">
        <ele>200.645238</ele>
        <time>2020-08-05T13:39:30.358Z</time>
      </trkpt>
      <trkpt lat="63.28545" lon="9.68424">
        <ele>200.708212</ele>
        <time>2020-08-05T13:39:32.379Z</time>
      </trkpt>
      <trkpt lat="63.28552" lon="9.68447">
        <ele>200.7706</ele>
        <time>2020-08-05T13:39:34.333Z</time>
      </trkpt>
      <trkpt lat="63.2856" lon="9.68472">
        <ele>200.834309</ele>
        <time>2020-08-05T13:39:36.361Z</time>
      </trkpt>
      <trkpt lat="63.28567" lon="9.68496">
        <ele>200.897392</ele>
        <time>2020-08-05T13:39:38.392Z</time>
      </trkpt>
      <trkpt lat="63.28574" lon="9.68521">
        <ele>200.960765</ele>
        <time>2020-08-05T13:39:40.352Z</time>
      </trkpt>
      <trkpt lat="63.28581" lon="9.68545">
        <ele>200.969433</ele>
        <time>2020-08-05T13:39:42.353Z</time>
      </trkpt>
      <trkpt lat="63.28586" lon="9.68569">
        <ele>200.955605</ele>
        <time>2020-08-05T13:39:44.400Z</time>
      </trkpt>
      <trkpt lat="63.28592" lon="9.68594">
        <ele>200.942079</ele>
        <time>2020-08-05T13:39:46.339Z</time>
      </trkpt>
      <trkpt lat="63.28596" lon="9.68619">
        <ele>200.928861</ele>
        <time>2020-08-05T13:39:48.343Z</time>
      </trkpt>
      <trkpt lat="63.286" lon="9.68644">
        <ele>200.915738</ele>
        <time>2020-08-05T13:39:50.342Z</time>
      </trkpt>
      <trkpt lat="63.28603" lon="9.68669">
        <ele>200.902942</ele>
        <time>2020-08-05T13:39:52.355Z</time>
      </trkpt>
      <trkpt lat="63.28606" lon="9.68694">
        <ele>200.890068</ele>
        <time>2020-08-05T13:39:54.334Z</time>
      </trkpt>
      <trkpt lat="63.28609" lon="9.6872">
        <ele>200.876641</ele>
        <time>2020-08-05T13:39:56.339Z</time>
      </trkpt>
      <trkpt lat="63.28611" lon="9.68746">
        <ele>200.863492</ele>
        <time>2020-08-05T13:39:58.335Z</time>
      </trkpt>
      <trkpt lat="63.28613" lon="9.68771">
        <ele>200.85082</ele>
        <time>2020-08-05T13:40:00.329Z</time>
      </trkpt>
      <trkpt lat="63.28615" lon="9.68796">
        <ele>200.838441</ele>
        <time>2020-08-05T13:40:02.342Z</time>
      </trkpt>
      <trkpt lat="63.28616" lon="9.68818">
        <ele>200.827205</ele>
        <time>2020-08-05T13:40:04.355Z</time>
      </trkpt>
      <trkpt lat="63.28618" lon="9.68839">
        <ele>200.816775</ele>
        <time>2020-08-05T13:40:06.352Z</time>
      </trkpt>
      <trkpt lat="63.28619" lon="9.68859">
        <ele>200.806621</ele>
        <time>2020-08-05T13:40:08.347Z</time>
      </trkpt>
      <trkpt lat="63.28621" lon="9.68879">
        <ele>200.796663</ele>
        <time>2020-08-05T13:40:10.384Z</time>
      </trkpt>
      <trkpt lat="63.28623" lon="9.68908">
        <ele>200.782326</ele>
        <time>2020-08-05T13:40:13.350Z</time>
      </trkpt>
      <trkpt lat="63.28625" lon="9.68937">
        <ele>200.673971</ele>
        <time>2020-08-05T13:40:16.327Z</time>
      </trkpt>
      <trkpt lat="63.28627" lon="9.68965">
        <ele>200.556334</ele>
        <time>2020-08-05T13:40:19.369Z</time>
      </trkpt>
      <trkpt lat="63.28629" lon="9.68994">
        <ele>200.433507</ele>
        <time>2020-08-05T13:40:22.371Z</time>
      </trkpt>
      <trkpt lat="63.28631" lon="9.69024">
        <ele>200.308336</ele>
        <time>2020-08-05T13:40:25.376Z</time>
      </trkpt>
      <trkpt lat="63.28633" lon="9.69045">
        <ele>200.219187</ele>
        <time>2020-08-05T13:40:27.364Z</time>
      </trkpt>
      <trkpt lat="63.28635" lon="9.69068">
        <ele>200.123192</ele>
        <time>2020-08-05T13:40:29.331Z</time>
      </trkpt>
      <trkpt lat="63.28637" lon="9.69093">
        <ele>200.016741</ele>
        <time>2020-08-05T13:40:31.395Z</time>
      </trkpt>
      <trkpt lat="63.2864" lon="9.69119">
        <ele>199.906676</ele>
        <time>2020-08-05T13:40:33.341Z</time>
      </trkpt>
      <trkpt lat="63.28643" lon="9.69146">
        <ele>199.793772</ele>
        <time>2020-08-05T13:40:35.343Z</time>
      </trkpt>
      <trkpt lat="63.28646" lon="9.69172">
        <ele>199.681446</ele>
        <time>2020-08-05T13:40:37.350Z</time>
      </trkpt>
      <trkpt lat="63.28649" lon="9.69196">
        <ele>199.576479</ele>
        <time>2020-08-05T13:40:39.353Z</time>
      </trkpt>
      <trkpt lat="63.28651" lon="9.69219">
        <ele>199.479325</ele>
        <time>2020-08-05T13:40:41.360Z</time>
      </trkpt>
      <trkpt lat="63.28654" lon="9.69241">
        <ele>199.38666</ele>
        <time>2020-08-05T13:40:43.382Z</time>
      </trkpt>
      <trkpt lat="63.28657" lon="9.6926">
        <ele>199.301005</ele>
        <time>2020-08-05T13:40:45.335Z</time>
      </trkpt>
      <trkpt lat="63.28659" lon="9.6928">
        <ele>199.216663</ele>
        <time>2020-08-05T13:40:47.412Z</time>
      </trkpt>
      <trkpt lat="63.28662" lon="9.69301">
        <ele>199.127021</ele>
        <time>2020-08-05T13:40:49.333Z</time>
      </trkpt>
      <trkpt lat="63.28665" lon="9.69323">
        <ele>199.104596</ele>
        <time>2020-08-05T13:40:51.385Z</time>
      </trkpt>
      <trkpt lat="63.28668" lon="9.69345">
        <ele>199.083972</ele>
        <time>2020-08-05T13:40:53.384Z</time>
      </trkpt>
      <trkpt lat="63.28671" lon="9.69369">
        <ele>199.062903</ele>
        <time>2020-08-05T13:40:55.367Z</time>
      </trkpt>
      <trkpt lat="63.28675" lon="9.69392">
        <ele>199.041915</ele>
        <time>2020-08-05T13:40:57.363Z</time>
      </trkpt>
      <trkpt lat="63.28678" lon="9.69415">
        <ele>199.020725</ele>
        <time>2020-08-05T13:40:59.350Z</time>
      </trkpt>
      <trkpt lat="63.28681" lon="9.69437">
        <ele>199.000294</ele>
        <time>2020-08-05T13:41:01.369Z</time>
      </trkpt>
      <trkpt lat="63.28684" lon="9.69458">
        <ele>198.98139</ele>
        <time>2020-08-05T13:41:03.331Z</time>
      </trkpt>
      <trkpt lat="63.28687" lon="9.69478">
        <ele>198.962979</ele>
        <time>2020-08-05T13:41:05.356Z</time>
      </trkpt>
      <trkpt lat="63.2869" lon="9.69498">
        <ele>198.944716</ele>
        <time>2020-08-05T13:41:07.334Z</time>
      </trkpt>
      <trkpt lat="63.28693" lon="9.69517">
        <ele>198.927322</ele>
        <time>2020-08-05T13:41:09.403Z</time>
      </trkpt>
      <trkpt lat="63.28697" lon="9.69544">
        <ele>198.902785</ele>
        <time>2020-08-05T13:41:12.343Z</time>
      </trkpt>
      <trkpt lat="63.28695" lon="9.69571">
        <ele>198.878857</ele>
        <time>2020-08-05T13:41:15.352Z</time>
      </trkpt>
      <trkpt lat="63.28686" lon="9.69583">
        <ele>198.858686</ele>
        <time>2020-08-05T13:41:17.346Z</time>
      </trkpt>
      <trkpt lat="63.28673" lon="9.69596">
        <ele>198.830522</ele>
        <time>2020-08-05T13:41:19.399Z</time>
      </trkpt>
      <trkpt lat="63.2866" lon="9.69609">
        <ele>198.802499</ele>
        <time>2020-08-05T13:41:21.347Z</time>
      </trkpt>
      <trkpt lat="63.28647" lon="9.69621">
        <ele>198.79118</ele>
        <time>2020-08-05T13:41:23.354Z</time>
      </trkpt>
      <trkpt lat="63.28636" lon="9.69631">
        <ele>199.967995</ele>
        <time>2020-08-05T13:41:25.348Z</time>
      </trkpt>
      <trkpt lat="63.28625" lon="9.69641">
        <ele>201.105876</ele>
        <time>2020-08-05T13:41:27.380Z</time>
      </trkpt>
      <trkpt lat="63.28614" lon="9.69651">
        <ele>202.218839</ele>
        <time>2020-08-05T13:41:29.333Z</time>
      </trkpt>
      <trkpt lat="63.28605" lon="9.69661">
        <ele>203.25427</ele>
        <time>2020-08-05T13:41:31.337Z</time>
      </trkpt>
      <trkpt lat="63.28596" lon="9.69674">
        <ele>204.212215</ele>
        <time>2020-08-05T13:41:33.367Z</time>
      </trkpt>
      <trkpt lat="63.28591" lon="9.69692">
        <ele>205.153744</ele>
        <time>2020-08-05T13:41:36.362Z</time>
      </trkpt>
      <trkpt lat="63.2859" lon="9.69715">
        <ele>206.148778</ele>
        <time>2020-08-05T13:41:46.360Z</time>
      </trkpt>
      <trkpt lat="63.28592" lon="9.69736">
        <ele>207.061369</ele>
        <time>2020-08-05T13:41:54.352Z</time>
      </trkpt>
      <trkpt lat="63.28594" lon="9.69755">
        <ele>207.946649</ele>
        <time>2020-08-05T13:42:02.404Z</time>
      </trkpt>
      <trkpt lat="63.28598" lon="9.69775">
        <ele>208.86958</ele>
        <time>2020-08-05T13:42:10.353Z</time>
      </trkpt>
      <trkpt lat="63.286" lon="9.69795">
        <ele>209.757634</ele>
        <time>2020-08-05T13:42:17.395Z</time>
      </trkpt>
      <trkpt lat="63.28604" lon="9.69814">
        <ele>210.656909</ele>
        <time>2020-08-05T13:42:25.361Z</time>
      </trkpt>
      <trkpt lat="63.28606" lon="9.69836">
        <ele>211.60167</ele>
        <time>2020-08-05T13:42:33.365Z</time>
      </trkpt>
      <trkpt lat="63.28607" lon="9.69858">
        <ele>212.57847</ele>
        <time>2020-08-05T13:42:41.353Z</time>
      </trkpt>
      <trkpt lat="63.28608" lon="9.69879">
        <ele>213.476031</ele>
        <time>2020-08-05T13:42:49.354Z</time>
      </trkpt>
      <trkpt lat="63.28609" lon="9.69899">
        <ele>214.345061</ele>
        <time>2020-08-05T13:42:56.338Z</time>
      </trkpt>
      <trkpt lat="63.28606" lon="9.69921">
        <ele>215.319359</ele>
        <time>2020-08-05T13:43:04.338Z</time>
      </trkpt>
      <trkpt lat="63.28605" lon="9.69943">
        <ele>216.275228</ele>
        <time>2020-08-05T13:43:11.357Z</time>
      </trkpt>
      <trkpt lat="63.28604" lon="9.69964">
        <ele>217.081937</ele>
        <time>2020-08-05T13:43:18.374Z</time>
      </trkpt>
      <trkpt lat="63.28602" lon="9.69985">
        <ele>217.905685</ele>
        <time>2020-08-05T13:43:26.377Z</time>
      </trkpt>
      <trkpt lat="63.28602" lon="9.70006">
        <ele>218.68912</ele>
        <time>2020-08-05T13:43:33.352Z</time>
      </trkpt>
      <trkpt lat="63.28602" lon="9.70029">
        <ele>219.575031</ele>
        <time>2020-08-05T13:43:42.400Z</time>
      </trkpt>
      <trkpt lat="63.28603" lon="9.7005">
        <ele>220.371892</ele>
        <time>2020-08-05T13:43:49.384Z</time>
      </trkpt>
      <trkpt lat="63.28605" lon="9.70071">
        <ele>221.186159</ele>
        <time>2020-08-05T13:43:56.365Z</time>
      </trkpt>
      <trkpt lat="63.28607" lon="9.70091">
        <ele>221.972875</ele>
        <time>2020-08-05T13:44:04.343Z</time>
      </trkpt>
      <trkpt lat="63.2861" lon="9.70112">
        <ele>222.802607</ele>
        <time>2020-08-05T13:44:13.376Z</time>
      </trkpt>
      <trkpt lat="63.28614" lon="9.7013">
        <ele>223.569052</ele>
        <time>2020-08-05T13:44:20.356Z</time>
      </trkpt>
      <trkpt lat="63.28619" lon="9.70148">
        <ele>224.378927</ele>
        <time>2020-08-05T13:44:28.336Z</time>
      </trkpt>
      <trkpt lat="63.28622" lon="9.70169">
        <ele>225.193886</ele>
        <time>2020-08-05T13:44:35.359Z</time>
      </trkpt>
      <trkpt lat="63.28625" lon="9.70188">
        <ele>225.9679</ele>
        <time>2020-08-05T13:44:42.331Z</time>
      </trkpt>
      <trkpt lat="63.28627" lon="9.70209">
        <ele>226.791946</ele>
        <time>2020-08-05T13:44:50.366Z</time>
      </trkpt>
      <trkpt lat="63.28628" lon="9.70231">
        <ele>227.635545</ele>
        <time>2020-08-05T13:44:57.373Z</time>
      </trkpt>
      <trkpt lat="63.28629" lon="9.70253">
        <ele>228.48448</ele>
        <time>2020-08-05T13:45:04.351Z</time>
      </trkpt>
      <trkpt lat="63.28628" lon="9.70276">
        <ele>229.33464</ele>
        <time>2020-08-05T13:45:10.366Z</time>
      </trkpt>
      <trkpt lat="63.28626" lon="9.70296">
        <ele>230.130477</ele>
        <time>2020-08-05T13:45:16.338Z</time>
      </trkpt>
      <trkpt lat="63.28624" lon="9.70317">
        <ele>230.927685</ele>
        <time>2020-08-05T13:45:23.375Z</time>
      </trkpt>
      <trkpt lat="63.28622" lon="9.70337">
        <ele>231.734715</ele>
        <time>2020-08-05T13:45:29.346Z</time>
      </trkpt>
      <trkpt lat="63.2862" lon="9.7036">
        <ele>232.697245</ele>
        <time>2020-08-05T13:45:36.350Z</time>
      </trkpt>
      <trkpt lat="63.28617" lon="9.70383">
        <ele>233.611452</ele>
        <time>2020-08-05T13:45:43.333Z</time>
      </trkpt>
      <trkpt lat="63.28614" lon="9.70401">
        <ele>234.419683</ele>
        <time>2020-08-05T13:45:49.372Z</time>
      </trkpt>
      <trkpt lat="63.28611" lon="9.70423">
        <ele>235.302957</ele>
        <time>2020-08-05T13:45:57.343Z</time>
      </trkpt>
      <trkpt lat="63.28609" lon="9.70444">
        <ele>236.185617</ele>
        <time>2020-08-05T13:46:04.349Z</time>
      </trkpt>
      <trkpt lat="63.28607" lon="9.70466">
        <ele>237.093434</ele>
        <time>2020-08-05T13:46:11.333Z</time>
      </trkpt>
      <trkpt lat="63.28604" lon="9.70487">
        <ele>237.96619</ele>
        <time>2020-08-05T13:46:17.360Z</time>
      </trkpt>
      <trkpt lat="63.28602" lon="9.70508">
        <ele>238.799955</ele>
        <time>2020-08-05T13:46:23.358Z</time>
      </trkpt>
      <trkpt lat="63.28599" lon="9.70528">
        <ele>239.672186</ele>
        <time>2020-08-05T13:46:31.358Z</time>
      </trkpt>
      <trkpt lat="63.28595" lon="9.70549">
        <ele>240.603023</ele>
        <time>2020-08-05T13:46:38.339Z</time>
      </trkpt>
      <trkpt lat="63.2859" lon="9.70567">
        <ele>241.42816</ele>
        <time>2020-08-05T13:46:45.377Z</time>
      </trkpt>
      <trkpt lat="63.28585" lon="9.70588">
        <ele>242.353174</ele>
        <time>2020-08-05T13:46:51.375Z</time>
      </trkpt>
      <trkpt lat="63.28581" lon="9.70606">
        <ele>243.183091</ele>
        <time>2020-08-05T13:46:57.343Z</time>
      </trkpt>
      <trkpt lat="63.28576" lon="9.70623">
        <ele>244.026529</ele>
        <time>2020-08-05T13:47:04.342Z</time>
      </trkpt>
      <trkpt lat="63.28571" lon="9.70643">
        <ele>244.920556</ele>
        <time>2020-08-05T13:47:11.375Z</time>
      </trkpt>
      <trkpt lat="63.28565" lon="9.7066">
        <ele>245.7864</ele>
        <time>2020-08-05T13:47:18.368Z</time>
      </trkpt>
      <trkpt lat="63.28558" lon="9.70677">
        <ele>246.670734</ele>
        <time>2020-08-05T13:47:25.355Z</time>
      </trkpt>
      <trkpt lat="63.28551" lon="9.70694">
        <ele>247.344969</ele>
        <time>2020-08-05T13:47:31.333Z</time>
      </trkpt>
      <trkpt lat="63.28545" lon="9.7071">
        <ele>247.378837</ele>
        <time>2020-08-05T13:47:37.339Z</time>
      </trkpt>
      <trkpt lat="63.28538" lon="9.70727">
        <ele>247.415663</ele>
        <time>2020-08-05T13:47:43.334Z</time>
      </trkpt>
      <trkpt lat="63.28531" lon="9.70744">
        <ele>247.451917</ele>
        <time>2020-08-05T13:47:49.360Z</time>
      </trkpt>
      <trkpt lat="63.28524" lon="9.7076">
        <ele>247.487205</ele>
        <time>2020-08-05T13:47:55.360Z</time>
      </trkpt>
      <trkpt lat="63.28517" lon="9.70773">
        <ele>247.5191</ele>
        <time>2020-08-05T13:48:00.365Z</time>
      </trkpt>
      <trkpt lat="63.28511" lon="9.70787">
        <ele>247.550868</ele>
        <time>2020-08-05T13:48:05.357Z</time>
      </trkpt>
      <trkpt lat="63.28505" lon="9.70802">
        <ele>247.583587</ele>
        <time>2020-08-05T13:48:10.353Z</time>
      </trkpt>
      <trkpt lat="63.28498" lon="9.70818">
        <ele>247.619705</ele>
        <time>2020-08-05T13:48:16.351Z</time>
      </trkpt>
      <trkpt lat="63.2849" lon="9.70834">
        <ele>247.656226</ele>
        <time>2020-08-05T13:48:21.409Z</time>
      </trkpt>
      <trkpt lat="63.28483" lon="9.70849">
        <ele>247.692488</ele>
        <time>2020-08-05T13:48:24.338Z</time>
      </trkpt>
      <trkpt lat="63.28476" lon="9.70864">
        <ele>247.724256</ele>
        <time>2020-08-05T13:48:26.410Z</time>
      </trkpt>
      <trkpt lat="63.2847" lon="9.7088">
        <ele>247.759779</ele>
        <time>2020-08-05T13:48:28.364Z</time>
      </trkpt>
      <trkpt lat="63.28462" lon="9.70899">
        <ele>247.80005</ele>
        <time>2020-08-05T13:48:30.351Z</time>
      </trkpt>
      <trkpt lat="63.28454" lon="9.70921">
        <ele>247.844475</ele>
        <time>2020-08-05T13:48:32.373Z</time>
      </trkpt>
      <trkpt lat="63.28445" lon="9.70944">
        <ele>247.893616</ele>
        <time>2020-08-05T13:48:34.378Z</time>
      </trkpt>
      <trkpt lat="63.28435" lon="9.70966">
        <ele>247.944835</ele>
        <time>2020-08-05T13:48:36.388Z</time>
      </trkpt>
      <trkpt lat="63.28423" lon="9.70989">
        <ele>247.928924</ele>
        <time>2020-08-05T13:48:38.333Z</time>
      </trkpt>
      <trkpt lat="63.2841" lon="9.7101">
        <ele>247.83907</ele>
        <time>2020-08-05T13:48:40.374Z</time>
      </trkpt>
      <trkpt lat="63.28396" lon="9.71028">
        <ele>247.751268</ele>
        <time>2020-08-05T13:48:42.358Z</time>
      </trkpt>
      <trkpt lat="63.28382" lon="9.7104">
        <ele>247.672599</ele>
        <time>2020-08-05T13:48:44.373Z</time>
      </trkpt>
      <trkpt lat="63.2837" lon="9.7105">
        <ele>247.603357</ele>
        <time>2020-08-05T13:48:46.346Z</time>
      </trkpt>
      <trkpt lat="63.28358" lon="9.71059">
        <ele>247.53665</ele>
        <time>2020-08-05T13:48:48.354Z</time>
      </trkpt>
      <trkpt lat="63.28347" lon="9.71067">
        <ele>247.470928</ele>
        <time>2020-08-05T13:48:50.335Z</time>
      </trkpt>
      <trkpt lat="63.28337" lon="9.71075">
        <ele>247.412795</ele>
        <time>2020-08-05T13:48:52.381Z</time>
      </trkpt>
      <trkpt lat="63.28326" lon="9.71083">
        <ele>247.35016</ele>
        <time>2020-08-05T13:48:54.358Z</time>
      </trkpt>
      <trkpt lat="63.28316" lon="9.7109">
        <ele>247.291822</ele>
        <time>2020-08-05T13:48:56.342Z</time>
      </trkpt>
      <trkpt lat="63.28306" lon="9.71098">
        <ele>247.237087</ele>
        <time>2020-08-05T13:48:59.352Z</time>
      </trkpt>
      <trkpt lat="63.28298" lon="9.71104">
        <ele>247.18761</ele>
        <time>2020-08-05T13:49:02.369Z</time>
      </trkpt>
      <trkpt lat="63.28287" lon="9.71111">
        <ele>247.129722</ele>
        <time>2020-08-05T13:49:05.378Z</time>
      </trkpt>
      <trkpt lat="63.28276" lon="9.71117">
        <ele>247.063998</ele>
        <time>2020-08-05T13:49:08.339Z</time>
      </trkpt>
      <trkpt lat="63.28263" lon="9.71127">
        <ele>246.989919</ele>
        <time>2020-08-05T13:49:11.376Z</time>
      </trkpt>
      <trkpt lat="63.28254" lon="9.71132">
        <ele>246.818429</ele>
        <time>2020-08-05T13:49:13.377Z</time>
      </trkpt>
      <trkpt lat="63.28244" lon="9.71139">
        <ele>246.624088</ele>
        <time>2020-08-05T13:49:15.355Z</time>
      </trkpt>
      <trkpt lat="63.28232" lon="9.71148">
        <ele>246.408312</ele>
        <time>2020-08-05T13:49:17.346Z</time>
      </trkpt>
      <trkpt lat="63.28222" lon="9.71155">
        <ele>246.203642</ele>
        <time>2020-08-05T13:49:19.359Z</time>
      </trkpt>
      <trkpt lat="63.2821" lon="9.71163">
        <ele>245.989422</ele>
        <time>2020-08-05T13:49:21.360Z</time>
      </trkpt>
      <trkpt lat="63.28198" lon="9.7117">
        <ele>245.768296</ele>
        <time>2020-08-05T13:49:23.355Z</time>
      </trkpt>
      <trkpt lat="63.28186" lon="9.71178">
        <ele>245.536119</ele>
        <time>2020-08-05T13:49:25.356Z</time>
      </trkpt>
      <trkpt lat="63.28174" lon="9.71187">
        <ele>245.307714</ele>
        <time>2020-08-05T13:49:27.362Z</time>
      </trkpt>
      <trkpt lat="63.28163" lon="9.71193">
        <ele>245.098737</ele>
        <time>2020-08-05T13:49:29.343Z</time>
      </trkpt>
      <trkpt lat="63.28154" lon="9.71199">
        <ele>244.931154</ele>
        <time>2020-08-05T13:49:31.369Z</time>
      </trkpt>
      <trkpt lat="63.28142" lon="9.71205">
        <ele>244.718159</ele>
        <time>2020-08-05T13:49:34.350Z</time>
      </trkpt>
      <trkpt lat="63.28131" lon="9.71209">
        <ele>244.518896</ele>
        <time>2020-08-05T13:49:37.343Z</time>
      </trkpt>
      <trkpt lat="63.28122" lon="9.71216">
        <ele>244.337788</ele>
        <time>2020-08-05T13:49:40.350Z</time>
      </trkpt>
      <trkpt lat="63.28111" lon="9.7122">
        <ele>244.140006</ele>
        <time>2020-08-05T13:49:43.387Z</time>
      </trkpt>
      <trkpt lat="63.28101" lon="9.71225">
        <ele>243.95762</ele>
        <time>2020-08-05T13:49:46.360Z</time>
      </trkpt>
      <trkpt lat="63.28091" lon="9.71232">
        <ele>243.77331</ele>
        <time>2020-08-05T13:49:49.370Z</time>
      </trkpt>
      <trkpt lat="63.28082" lon="9.71239">
        <ele>243.537158</ele>
        <time>2020-08-05T13:49:52.366Z</time>
      </trkpt>
      <trkpt lat="63.28073" lon="9.71244">
        <ele>243.296293</ele>
        <time>2020-08-05T13:49:55.392Z</time>
      </trkpt>
      <trkpt lat="63.28063" lon="9.7125">
        <ele>243.038768</ele>
        <time>2020-08-05T13:49:58.395Z</time>
      </trkpt>
      <trkpt lat="63.28052" lon="9.71256">
        <ele>242.768299</ele>
        <time>2020-08-05T13:50:01.362Z</time>
      </trkpt>
      <trkpt lat="63.28041" lon="9.71262">
        <ele>242.483179</ele>
        <time>2020-08-05T13:50:04.366Z</time>
      </trkpt>
      <trkpt lat="63.28028" lon="9.71272">
        <ele>242.145618</ele>
        <time>2020-08-05T13:50:07.330Z</time>
      </trkpt>
      <trkpt lat="63.28018" lon="9.71283">
        <ele>241.867375</ele>
        <time>2020-08-05T13:50:09.343Z</time>
      </trkpt>
      <trkpt lat="63.28008" lon="9.71297">
        <ele>241.570771</ele>
        <time>2020-08-05T13:50:11.373Z</time>
      </trkpt>
      <trkpt lat="63.27999" lon="9.71314">
        <ele>241.273361</ele>
        <time>2020-08-05T13:50:13.340Z</time>
      </trkpt>
      <trkpt lat="63.2799" lon="9.71332">
        <ele>240.97477</ele>
        <time>2020-08-05T13:50:15.340Z</time>
      </trkpt>
      <trkpt lat="63.27981" lon="9.7135">
        <ele>240.67479</ele>
        <time>2020-08-05T13:50:17.378Z</time>
      </trkpt>
      <trkpt lat="63.27973" lon="9.71369">
        <ele>240.362461</ele>
        <time>2020-08-05T13:50:19.345Z</time>
      </trkpt>
      <trkpt lat="63.27964" lon="9.71387">
        <ele>240.073655</ele>
        <time>2020-08-05T13:50:21.343Z</time>
      </trkpt>
      <trkpt lat="63.27956" lon="9.71404">
        <ele>239.782555</ele>
        <time>2020-08-05T13:50:23.364Z</time>
      </trkpt>
      <trkpt lat="63.27948" lon="9.71421">
        <ele>239.51344</ele>
        <time>2020-08-05T13:50:25.345Z</time>
      </trkpt>
      <trkpt lat="63.27939" lon="9.7144">
        <ele>239.188065</ele>
        <time>2020-08-05T13:50:27.397Z</time>
      </trkpt>
      <trkpt lat="63.27926" lon="9.71466">
        <ele>238.611814</ele>
        <time>2020-08-05T13:50:29.359Z</time>
      </trkpt>
      <trkpt lat="63.27918" lon="9.71478">
        <ele>238.304665</ele>
        <time>2020-08-05T13:50:30.363Z</time>
      </trkpt>
      <trkpt lat="63.2791" lon="9.71487">
        <ele>238.012437</ele>
        <time>2020-08-05T13:50:31.363Z</time>
      </trkpt>
      <trkpt lat="63.27901" lon="9.71496">
        <ele>237.6901</ele>
        <time>2020-08-05T13:50:32.362Z</time>
      </trkpt>
      <trkpt lat="63.27892" lon="9.71503">
        <ele>237.358981</ele>
        <time>2020-08-05T13:50:33.346Z</time>
      </trkpt>
      <trkpt lat="63.27882" lon="9.71509">
        <ele>237.034083</ele>
        <time>2020-08-05T13:50:34.379Z</time>
      </trkpt>
      <trkpt lat="63.27873" lon="9.71514">
        <ele>236.710884</ele>
        <time>2020-08-05T13:50:35.347Z</time>
      </trkpt>
      <trkpt lat="63.27863" lon="9.7152">
        <ele>236.386503</ele>
        <time>2020-08-05T13:50:36.363Z</time>
      </trkpt>
      <trkpt lat="63.27854" lon="9.71527">
        <ele>236.065853</ele>
        <time>2020-08-05T13:50:37.343Z</time>
      </trkpt>
      <trkpt lat="63.27845" lon="9.71535">
        <ele>235.743491</ele>
        <time>2020-08-05T13:50:38.381Z</time>
      </trkpt>
      <trkpt lat="63.27836" lon="9.71543">
        <ele>235.427625</ele>
        <time>2020-08-05T13:50:39.379Z</time>
      </trkpt>
      <trkpt lat="63.27826" lon="9.71551">
        <ele>235.089307</ele>
        <time>2020-08-05T13:50:40.362Z</time>
      </trkpt>
      <trkpt lat="63.27817" lon="9.71558">
        <ele>234.758817</ele>
        <time>2020-08-05T13:50:41.350Z</time>
      </trkpt>
      <trkpt lat="63.27807" lon="9.71564">
        <ele>234.435478</ele>
        <time>2020-08-05T13:50:42.360Z</time>
      </trkpt>
      <trkpt lat="63.27798" lon="9.7157">
        <ele>234.130007</ele>
        <time>2020-08-05T13:50:43.372Z</time>
      </trkpt>
      <trkpt lat="63.27781" lon="9.71582">
        <ele>233.537453</ele>
        <time>2020-08-05T13:50:45.393Z</time>
      </trkpt>
      <trkpt lat="63.27765" lon="9.71591">
        <ele>232.65093</ele>
        <time>2020-08-05T13:50:47.364Z</time>
      </trkpt>
      <trkpt lat="63.27749" lon="9.716">
        <ele>231.555769</ele>
        <time>2020-08-05T13:50:49.417Z</time>
      </trkpt>
      <trkpt lat="63.27733" lon="9.7161">
        <ele>230.470365</ele>
        <time>2020-08-05T13:50:51.350Z</time>
      </trkpt>
      <trkpt lat="63.2772" lon="9.71627">
        <ele>229.424548</ele>
        <time>2020-08-05T13:50:53.379Z</time>
      </trkpt>
      <trkpt lat="63.27714" lon="9.71651">
        <ele>228.623897</ele>
        <time>2020-08-05T13:50:55.358Z</time>
      </trkpt>
      <trkpt lat="63.27709" lon="9.71686">
        <ele>227.519787</ele>
        <time>2020-08-05T13:50:57.351Z</time>
      </trkpt>
      <trkpt lat="63.27705" lon="9.71707">
        <ele>226.866951</ele>
        <time>2020-08-05T13:50:58.359Z</time>
      </trkpt>
      <trkpt lat="63.27701" lon="9.71727">
        <ele>226.196129</ele>
        <time>2020-08-05T13:50:59.362Z</time>
      </trkpt>
      <trkpt lat="63.27697" lon="9.71749">
        <ele>225.498549</ele>
        <time>2020-08-05T13:51:00.413Z</time>
      </trkpt>
      <trkpt lat="63.27692" lon="9.71774">
        <ele>224.690025</ele>
        <time>2020-08-05T13:51:01.364Z</time>
      </trkpt>
      <trkpt lat="63.27686" lon="9.71796">
        <ele>223.926309</ele>
        <time>2020-08-05T13:51:02.363Z</time>
      </trkpt>
      <trkpt lat="63.27681" lon="9.71815">
        <ele>223.247391</ele>
        <time>2020-08-05T13:51:03.350Z</time>
      </trkpt>
      <trkpt lat="63.27675" lon="9.71834">
        <ele>222.580108</ele>
        <time>2020-08-05T13:51:04.371Z</time>
      </trkpt>
      <trkpt lat="63.27669" lon="9.71852">
        <ele>221.910277</ele>
        <time>2020-08-05T13:51:05.401Z</time>
      </trkpt>
      <trkpt lat="63.27662" lon="9.71869">
        <ele>221.317841</ele>
        <time>2020-08-05T13:51:06.375Z</time>
      </trkpt>
      <trkpt lat="63.27656" lon="9.71885">
        <ele>220.821405</ele>
        <time>2020-08-05T13:51:07.364Z</time>
      </trkpt>
      <trkpt lat="63.2765" lon="9.71902">
        <ele>220.323387</ele>
        <time>2020-08-05T13:51:08.379Z</time>
      </trkpt>
      <trkpt lat="63.27644" lon="9.71917">
        <ele>219.850982</ele>
        <time>2020-08-05T13:51:09.351Z</time>
      </trkpt>
      <trkpt lat="63.27637" lon="9.71933">
        <ele>219.354745</ele>
        <time>2020-08-05T13:51:10.367Z</time>
      </trkpt>
      <trkpt lat="63.27631" lon="9.71948">
        <ele>218.885678</ele>
        <time>2020-08-05T13:51:11.349Z</time>
      </trkpt>
      <trkpt lat="63.27618" lon="9.71976">
        <ele>217.977179</ele>
        <time>2020-08-05T13:51:13.344Z</time>
      </trkpt>
      <trkpt lat="63.27605" lon="9.72002">
        <ele>217.072488</ele>
        <time>2020-08-05T13:51:15.361Z</time>
      </trkpt>
      <trkpt lat="63.27593" lon="9.72027">
        <ele>216.239662</ele>
        <time>2020-08-05T13:51:17.347Z</time>
      </trkpt>
      <trkpt lat="63.27582" lon="9.72052">
        <ele>215.445621</ele>
        <time>2020-08-05T13:51:19.362Z</time>
      </trkpt>
      <trkpt lat="63.27573" lon="9.72076">
        <ele>214.71726</ele>
        <time>2020-08-05T13:51:21.361Z</time>
      </trkpt>
      <trkpt lat="63.27565" lon="9.72101">
        <ele>214.006022</ele>
        <time>2020-08-05T13:51:23.395Z</time>
      </trkpt>
      <trkpt lat="63.27558" lon="9.72129">
        <ele>213.289412</ele>
        <time>2020-08-05T13:51:25.364Z</time>
      </trkpt>
      <trkpt lat="63.27554" lon="9.72162">
        <ele>212.485193</ele>
        <time>2020-08-05T13:51:27.357Z</time>
      </trkpt>
      <trkpt lat="63.2755" lon="9.72201">
        <ele>211.750618</ele>
        <time>2020-08-05T13:51:29.363Z</time>
      </trkpt>
      <trkpt lat="63.27549" lon="9.72222">
        <ele>211.382578</ele>
        <time>2020-08-05T13:51:30.384Z</time>
      </trkpt>
      <trkpt lat="63.27549" lon="9.72244">
        <ele>211.003317</ele>
        <time>2020-08-05T13:51:31.375Z</time>
      </trkpt>
      <trkpt lat="63.27548" lon="9.72265">
        <ele>210.618791</ele>
        <time>2020-08-05T13:51:32.387Z</time>
      </trkpt>
      <trkpt lat="63.27547" lon="9.72289">
        <ele>210.211899</ele>
        <time>2020-08-05T13:51:33.381Z</time>
      </trkpt>
      <trkpt lat="63.27547" lon="9.72311">
        <ele>209.81045</ele>
        <time>2020-08-05T13:51:34.362Z</time>
      </trkpt>
      <trkpt lat="63.27547" lon="9.72334">
        <ele>209.407243</ele>
        <time>2020-08-05T13:51:35.349Z</time>
      </trkpt>
      <trkpt lat="63.27546" lon="9.72358">
        <ele>208.987848</ele>
        <time>2020-08-05T13:51:36.356Z</time>
      </trkpt>
      <trkpt lat="63.27545" lon="9.72382">
        <ele>208.571966</ele>
        <time>2020-08-05T13:51:37.377Z</time>
      </trkpt>
      <trkpt lat="63.27545" lon="9.72405">
        <ele>208.164623</ele>
        <time>2020-08-05T13:51:38.354Z</time>
      </trkpt>
      <trkpt lat="63.27544" lon="9.72429">
        <ele>207.734687</ele>
        <time>2020-08-05T13:51:39.355Z</time>
      </trkpt>
      <trkpt lat="63.27544" lon="9.72454">
        <ele>207.293077</ele>
        <time>2020-08-05T13:51:40.382Z</time>
      </trkpt>
      <trkpt lat="63.27544" lon="9.72479">
        <ele>206.85307</ele>
        <time>2020-08-05T13:51:41.378Z</time>
      </trkpt>
      <trkpt lat="63.27543" lon="9.72505">
        <ele>206.405343</ele>
        <time>2020-08-05T13:51:42.391Z</time>
      </trkpt>
      <trkpt lat="63.27542" lon="9.72532">
        <ele>205.924452</ele>
        <time>2020-08-05T13:51:43.357Z</time>
      </trkpt>
      <trkpt lat="63.27542" lon="9.7256">
        <ele>205.436956</ele>
        <time>2020-08-05T13:51:44.340Z</time>
      </trkpt>
      <trkpt lat="63.27542" lon="9.72588">
        <ele>204.814238</ele>
        <time>2020-08-05T13:51:45.388Z</time>
      </trkpt>
      <trkpt lat="63.27542" lon="9.72617">
        <ele>204.124553</ele>
        <time>2020-08-05T13:51:46.366Z</time>
      </trkpt>
      <trkpt lat="63.27543" lon="9.72645">
        <ele>203.450304</ele>
        <time>2020-08-05T13:51:47.374Z</time>
      </trkpt>
      <trkpt lat="63.27545" lon="9.72672">
        <ele>202.78795</ele>
        <time>2020-08-05T13:51:48.408Z</time>
      </trkpt>
      <trkpt lat="63.27547" lon="9.72697">
        <ele>202.181575</ele>
        <time>2020-08-05T13:51:49.363Z</time>
      </trkpt>
      <trkpt lat="63.2755" lon="9.72721">
        <ele>201.581317</ele>
        <time>2020-08-05T13:51:50.336Z</time>
      </trkpt>
      <trkpt lat="63.27554" lon="9.72744">
        <ele>201.000872</ele>
        <time>2020-08-05T13:51:51.378Z</time>
      </trkpt>
      <trkpt lat="63.27561" lon="9.72783">
        <ele>199.976186</ele>
        <time>2020-08-05T13:51:53.363Z</time>
      </trkpt>
      <trkpt lat="63.27565" lon="9.72805">
        <ele>199.420449</ele>
        <time>2020-08-05T13:51:54.344Z</time>
      </trkpt>
      <trkpt lat="63.27569" lon="9.72827">
        <ele>198.8546</ele>
        <time>2020-08-05T13:51:55.349Z</time>
      </trkpt>
      <trkpt lat="63.27573" lon="9.7285">
        <ele>198.273003</ele>
        <time>2020-08-05T13:51:56.346Z</time>
      </trkpt>
      <trkpt lat="63.27577" lon="9.72873">
        <ele>197.678013</ele>
        <time>2020-08-05T13:51:57.358Z</time>
      </trkpt>
      <trkpt lat="63.27581" lon="9.72897">
        <ele>197.065099</ele>
        <time>2020-08-05T13:51:58.357Z</time>
      </trkpt>
      <trkpt lat="63.27585" lon="9.72921">
        <ele>196.443943</ele>
        <time>2020-08-05T13:51:59.355Z</time>
      </trkpt>
      <trkpt lat="63.27588" lon="9.72945">
        <ele>195.839164</ele>
        <time>2020-08-05T13:52:00.352Z</time>
      </trkpt>
      <trkpt lat="63.27592" lon="9.72969">
        <ele>195.598451</ele>
        <time>2020-08-05T13:52:01.354Z</time>
      </trkpt>
      <trkpt lat="63.27596" lon="9.72992">
        <ele>195.464933</ele>
        <time>2020-08-05T13:52:02.368Z</time>
      </trkpt>
      <trkpt lat="63.27599" lon="9.73014">
        <ele>195.337419</ele>
        <time>2020-08-05T13:52:03.356Z</time>
      </trkpt>
      <trkpt lat="63.27602" lon="9.73035">
        <ele>195.21422</ele>
        <time>2020-08-05T13:52:04.431Z</time>
      </trkpt>
      <trkpt lat="63.27607" lon="9.73073">
        <ele>194.99761</ele>
        <time>2020-08-05T13:52:06.356Z</time>
      </trkpt>
      <trkpt lat="63.27611" lon="9.73106">
        <ele>194.810819</ele>
        <time>2020-08-05T13:52:08.380Z</time>
      </trkpt>
      <trkpt lat="63.27614" lon="9.73135">
        <ele>194.642249</ele>
        <time>2020-08-05T13:52:10.358Z</time>
      </trkpt>
      <trkpt lat="63.27617" lon="9.73163">
        <ele>194.483198</ele>
        <time>2020-08-05T13:52:12.354Z</time>
      </trkpt>
      <trkpt lat="63.27619" lon="9.73189">
        <ele>194.341743</ele>
        <time>2020-08-05T13:52:14.348Z</time>
      </trkpt>
      <trkpt lat="63.27621" lon="9.73215">
        <ele>194.19591</ele>
        <time>2020-08-05T13:52:16.342Z</time>
      </trkpt>
      <trkpt lat="63.27623" lon="9.7324">
        <ele>194.052822</ele>
        <time>2020-08-05T13:52:18.341Z</time>
      </trkpt>
      <trkpt lat="63.27625" lon="9.73266">
        <ele>193.91116</ele>
        <time>2020-08-05T13:52:20.394Z</time>
      </trkpt>
      <trkpt lat="63.27627" lon="9.73292">
        <ele>193.763173</ele>
        <time>2020-08-05T13:52:22.357Z</time>
      </trkpt>
      <trkpt lat="63.27628" lon="9.73319">
        <ele>193.614321</ele>
        <time>2020-08-05T13:52:24.371Z</time>
      </trkpt>
      <trkpt lat="63.2763" lon="9.73347">
        <ele>193.496898</ele>
        <time>2020-08-05T13:52:26.340Z</time>
      </trkpt>
      <trkpt lat="63.27632" lon="9.73376">
        <ele>193.480529</ele>
        <time>2020-08-05T13:52:28.338Z</time>
      </trkpt>
      <trkpt lat="63.27634" lon="9.73406">
        <ele>193.46369</ele>
        <time>2020-08-05T13:52:30.350Z</time>
      </trkpt>
      <trkpt lat="63.27636" lon="9.73438">
        <ele>193.44585</ele>
        <time>2020-08-05T13:52:32.357Z</time>
      </trkpt>
      <trkpt lat="63.27637" lon="9.73471">
        <ele>193.427652</ele>
        <time>2020-08-05T13:52:34.341Z</time>
      </trkpt>
      <trkpt lat="63.27636" lon="9.73505">
        <ele>193.408628</ele>
        <time>2020-08-05T13:52:36.359Z</time>
      </trkpt>
      <trkpt lat="63.27633" lon="9.7354">
        <ele>193.388595</ele>
        <time>2020-08-05T13:52:38.334Z</time>
      </trkpt>
      <trkpt lat="63.2763" lon="9.73574">
        <ele>193.369991</ele>
        <time>2020-08-05T13:52:40.351Z</time>
      </trkpt>
      <trkpt lat="63.27632" lon="9.73601">
        <ele>193.354378</ele>
        <time>2020-08-05T13:52:42.420Z</time>
      </trkpt>
      <trkpt lat="63.27639" lon="9.73624">
        <ele>193.339054</ele>
        <time>2020-08-05T13:52:44.388Z</time>
      </trkpt>
      <trkpt lat="63.27647" lon="9.73642">
        <ele>193.325679</ele>
        <time>2020-08-05T13:52:46.370Z</time>
      </trkpt>
      <trkpt lat="63.27655" lon="9.73662">
        <ele>193.310416</ele>
        <time>2020-08-05T13:52:49.359Z</time>
      </trkpt>
      <trkpt lat="63.27661" lon="9.73676">
        <ele>193.299321</ele>
        <time>2020-08-05T13:52:52.355Z</time>
      </trkpt>
      <trkpt lat="63.27669" lon="9.73692">
        <ele>193.286534</ele>
        <time>2020-08-05T13:52:57.346Z</time>
      </trkpt>
      <trkpt lat="63.27677" lon="9.73709">
        <ele>193.339379</ele>
        <time>2020-08-05T13:53:02.336Z</time>
      </trkpt>
      <trkpt lat="63.27684" lon="9.73724">
        <ele>193.450805</ele>
        <time>2020-08-05T13:53:06.340Z</time>
      </trkpt>
      <trkpt lat="63.27692" lon="9.73739">
        <ele>193.572926</ele>
        <time>2020-08-05T13:53:10.340Z</time>
      </trkpt>
      <trkpt lat="63.27699" lon="9.73756">
        <ele>193.691197</ele>
        <time>2020-08-05T13:53:14.364Z</time>
      </trkpt>
      <trkpt lat="63.27706" lon="9.7377">
        <ele>193.794025</ele>
        <time>2020-08-05T13:53:17.353Z</time>
      </trkpt>
      <trkpt lat="63.27715" lon="9.73787">
        <ele>193.930435</ele>
        <time>2020-08-05T13:53:21.336Z</time>
      </trkpt>
      <trkpt lat="63.27723" lon="9.73804">
        <ele>194.050665</ele>
        <time>2020-08-05T13:53:24.380Z</time>
      </trkpt>
      <trkpt lat="63.27733" lon="9.73824">
        <ele>194.202609</ele>
        <time>2020-08-05T13:53:27.341Z</time>
      </trkpt>
      <trkpt lat="63.27741" lon="9.73839">
        <ele>194.319946</ele>
        <time>2020-08-05T13:53:29.343Z</time>
      </trkpt>
      <trkpt lat="63.27748" lon="9.73855">
        <ele>194.439349</ele>
        <time>2020-08-05T13:53:31.351Z</time>
      </trkpt>
      <trkpt lat="63.27756" lon="9.73872">
        <ele>194.56062</ele>
        <time>2020-08-05T13:53:33.376Z</time>
      </trkpt>
      <trkpt lat="63.27764" lon="9.73887">
        <ele>194.676869</ele>
        <time>2020-08-05T13:53:35.354Z</time>
      </trkpt>
      <trkpt lat="63.2777" lon="9.73904">
        <ele>194.789058</ele>
        <time>2020-08-05T13:53:37.401Z</time>
      </trkpt>
      <trkpt lat="63.27777" lon="9.73919">
        <ele>194.89259</ele>
        <time>2020-08-05T13:53:39.398Z</time>
      </trkpt>
      <trkpt lat="63.27784" lon="9.73938">
        <ele>195.026684</ele>
        <time>2020-08-05T13:53:42.337Z</time>
      </trkpt>
      <trkpt lat="63.27792" lon="9.73958">
        <ele>195.158591</ele>
        <time>2020-08-05T13:53:45.353Z</time>
      </trkpt>
      <trkpt lat="63.27798" lon="9.73977">
        <ele>195.276729</ele>
        <time>2020-08-05T13:53:48.355Z</time>
      </trkpt>
      <trkpt lat="63.27803" lon="9.73998">
        <ele>195.377892</ele>
        <time>2020-08-05T13:53:51.344Z</time>
      </trkpt>
      <trkpt lat="63.27808" lon="9.7402">
        <ele>195.470867</ele>
        <time>2020-08-05T13:53:54.346Z</time>
      </trkpt>
      <trkpt lat="63.27812" lon="9.74044">
        <ele>195.568107</ele>
        <time>2020-08-05T13:53:57.381Z</time>
      </trkpt>
      <trkpt lat="63.27815" lon="9.74072">
        <ele>195.6776</ele>
        <time>2020-08-05T13:54:00.342Z</time>
      </trkpt>
      <trkpt lat="63.27816" lon="9.74092">
        <ele>195.755464</ele>
        <time>2020-08-05T13:54:02.355Z</time>
      </trkpt>
      <trkpt lat="63.27816" lon="9.74113">
        <ele>195.836007</ele>
        <time>2020-08-05T13:54:04.398Z</time>
      </trkpt>
      <trkpt lat="63.27815" lon="9.74135">
        <ele>195.917043</ele>
        <time>2020-08-05T13:54:06.376Z</time>
      </trkpt>
      <trkpt lat="63.27815" lon="9.74157">
        <ele>196.003578</ele>
        <time>2020-08-05T13:54:08.359Z</time>
      </trkpt>
      <trkpt lat="63.27814" lon="9.74179">
        <ele>196.085928</ele>
        <time>2020-08-05T13:54:10.395Z</time>
      </trkpt>
      <trkpt lat="63.27813" lon="9.74199">
        <ele>196.164728</ele>
        <time>2020-08-05T13:54:12.363Z</time>
      </trkpt>
      <trkpt lat="63.27812" lon="9.74229">
        <ele>196.276832</ele>
        <time>2020-08-05T13:54:15.348Z</time>
      </trkpt>
      <trkpt lat="63.27812" lon="9.74255">
        <ele>196.377835</ele>
        <time>2020-08-05T13:54:18.354Z</time>
      </trkpt>
      <trkpt lat="63.2781" lon="9.74277">
        <ele>196.461671</ele>
        <time>2020-08-05T13:54:21.343Z</time>
      </trkpt>
      <trkpt lat="63.2781" lon="9.74302">
        <ele>196.557516</ele>
        <time>2020-08-05T13:54:25.406Z</time>
      </trkpt>
      <trkpt lat="63.2781" lon="9.74326">
        <ele>196.649609</ele>
        <time>2020-08-05T13:54:29.402Z</time>
      </trkpt>
      <trkpt lat="63.27809" lon="9.74352">
        <ele>196.749469</ele>
        <time>2020-08-05T13:54:33.397Z</time>
      </trkpt>
      <trkpt lat="63.27809" lon="9.74377">
        <ele>196.827585</ele>
        <time>2020-08-05T13:54:37.355Z</time>
      </trkpt>
      <trkpt lat="63.27808" lon="9.74397">
        <ele>196.653768</ele>
        <time>2020-08-05T13:54:40.400Z</time>
      </trkpt>
      <trkpt lat="63.27807" lon="9.74419">
        <ele>196.475961</ele>
        <time>2020-08-05T13:54:43.356Z</time>
      </trkpt>
      <trkpt lat="63.27807" lon="9.74439">
        <ele>196.301106</ele>
        <time>2020-08-05T13:54:46.379Z</time>
      </trkpt>
      <trkpt lat="63.27806" lon="9.74459">
        <ele>196.132659</ele>
        <time>2020-08-05T13:54:49.368Z</time>
      </trkpt>
      <trkpt lat="63.27805" lon="9.74486">
        <ele>195.911384</ele>
        <time>2020-08-05T13:54:53.358Z</time>
      </trkpt>
      <trkpt lat="63.27804" lon="9.74511">
        <ele>195.69629</ele>
        <time>2020-08-05T13:54:57.358Z</time>
      </trkpt>
      <trkpt lat="63.27802" lon="9.74535">
        <ele>195.496589</ele>
        <time>2020-08-05T13:55:01.365Z</time>
      </trkpt>
      <trkpt lat="63.27801" lon="9.74559">
        <ele>195.291878</ele>
        <time>2020-08-05T13:55:05.391Z</time>
      </trkpt>
      <trkpt lat="63.278" lon="9.7458">
        <ele>195.113885</ele>
        <time>2020-08-05T13:55:08.339Z</time>
      </trkpt>
      <trkpt lat="63.27799" lon="9.74609">
        <ele>194.869952</ele>
        <time>2020-08-05T13:55:11.372Z</time>
      </trkpt>
      <trkpt lat="63.27797" lon="9.74635">
        <ele>194.651939</ele>
        <time>2020-08-05T13:55:13.377Z</time>
      </trkpt>
      <trkpt lat="63.27795" lon="9.74665">
        <ele>194.393623</ele>
        <time>2020-08-05T13:55:15.339Z</time>
      </trkpt>
      <trkpt lat="63.27794" lon="9.74699">
        <ele>194.106359</ele>
        <time>2020-08-05T13:55:17.347Z</time>
      </trkpt>
      <trkpt lat="63.27792" lon="9.74735">
        <ele>193.808708</ele>
        <time>2020-08-05T13:55:19.346Z</time>
      </trkpt>
      <trkpt lat="63.2779" lon="9.74771">
        <ele>193.503999</ele>
        <time>2020-08-05T13:55:21.373Z</time>
      </trkpt>
      <trkpt lat="63.27788" lon="9.74805">
        <ele>193.216651</ele>
        <time>2020-08-05T13:55:23.379Z</time>
      </trkpt>
      <trkpt lat="63.27786" lon="9.74839">
        <ele>192.932624</ele>
        <time>2020-08-05T13:55:25.345Z</time>
      </trkpt>
      <trkpt lat="63.27784" lon="9.74873">
        <ele>192.650001</ele>
        <time>2020-08-05T13:55:27.354Z</time>
      </trkpt>
      <trkpt lat="63.27781" lon="9.74905">
        <ele>192.379499</ele>
        <time>2020-08-05T13:55:29.364Z</time>
      </trkpt>
      <trkpt lat="63.27778" lon="9.74934">
        <ele>192.130134</ele>
        <time>2020-08-05T13:55:31.345Z</time>
      </trkpt>
      <trkpt lat="63.27776" lon="9.74961">
        <ele>191.907472</ele>
        <time>2020-08-05T13:55:33.375Z</time>
      </trkpt>
      <trkpt lat="63.27774" lon="9.74983">
        <ele>191.717938</ele>
        <time>2020-08-05T13:55:35.339Z</time>
      </trkpt>
      <trkpt lat="63.27772" lon="9.75004">
        <ele>191.539321</ele>
        <time>2020-08-05T13:55:37.359Z</time>
      </trkpt>
      <trkpt lat="63.2777" lon="9.75025">
        <ele>191.359908</ele>
        <time>2020-08-05T13:55:39.398Z</time>
      </trkpt>
      <trkpt lat="63.27768" lon="9.75048">
        <ele>191.165051</ele>
        <time>2020-08-05T13:55:41.338Z</time>
      </trkpt>
      <trkpt lat="63.27765" lon="9.75074">
        <ele>190.947997</ele>
        <time>2020-08-05T13:55:43.347Z</time>
      </trkpt>
      <trkpt lat="63.27762" lon="9.75103">
        <ele>190.705546</ele>
        <time>2020-08-05T13:55:45.340Z</time>
      </trkpt>
      <trkpt lat="63.2776" lon="9.75134">
        <ele>190.444806</ele>
        <time>2020-08-05T13:55:47.366Z</time>
      </trkpt>
      <trkpt lat="63.27757" lon="9.75163">
        <ele>190.197915</ele>
        <time>2020-08-05T13:55:49.346Z</time>
      </trkpt>
      <trkpt lat="63.27754" lon="9.7519">
        <ele>190.006225</ele>
        <time>2020-08-05T13:55:51.341Z</time>
      </trkpt>
      <trkpt lat="63.27752" lon="9.75213">
        <ele>189.847014</ele>
        <time>2020-08-05T13:55:53.382Z</time>
      </trkpt>
      <trkpt lat="63.2775" lon="9.75234">
        <ele>189.708633</ele>
        <time>2020-08-05T13:55:55.375Z</time>
      </trkpt>
      <trkpt lat="63.27747" lon="9.75256">
        <ele>189.55099</ele>
        <time>2020-08-05T13:55:58.374Z</time>
      </trkpt>
      <trkpt lat="63.27746" lon="9.75278">
        <ele>189.408516</ele>
        <time>2020-08-05T13:56:01.372Z</time>
      </trkpt>
      <trkpt lat="63.27743" lon="9.75302">
        <ele>189.241856</ele>
        <time>2020-08-05T13:56:05.341Z</time>
      </trkpt>
      <trkpt lat="63.27741" lon="9.75324">
        <ele>189.090482</ele>
        <time>2020-08-05T13:56:08.375Z</time>
      </trkpt>
      <trkpt lat="63.27738" lon="9.75354">
        <ele>188.888104</ele>
        <time>2020-08-05T13:56:11.334Z</time>
      </trkpt>
      <trkpt lat="63.27736" lon="9.7538">
        <ele>188.711714</ele>
        <time>2020-08-05T13:56:13.343Z</time>
      </trkpt>
      <trkpt lat="63.27733" lon="9.75408">
        <ele>188.520693</ele>
        <time>2020-08-05T13:56:15.368Z</time>
      </trkpt>
      <trkpt lat="63.2773" lon="9.75436">
        <ele>188.328676</ele>
        <time>2020-08-05T13:56:17.351Z</time>
      </trkpt>
      <trkpt lat="63.27727" lon="9.75462">
        <ele>188.146708</ele>
        <time>2020-08-05T13:56:19.340Z</time>
      </trkpt>
      <trkpt lat="63.27723" lon="9.75486">
        <ele>187.978869</ele>
        <time>2020-08-05T13:56:21.374Z</time>
      </trkpt>
      <trkpt lat="63.2772" lon="9.75511">
        <ele>187.808001</ele>
        <time>2020-08-05T13:56:23.383Z</time>
      </trkpt>
      <trkpt lat="63.27717" lon="9.75536">
        <ele>187.634915</ele>
        <time>2020-08-05T13:56:25.354Z</time>
      </trkpt>
      <trkpt lat="63.27715" lon="9.75563">
        <ele>187.528118</ele>
        <time>2020-08-05T13:56:27.349Z</time>
      </trkpt>
      <trkpt lat="63.27713" lon="9.75587">
        <ele>187.598596</ele>
        <time>2020-08-05T13:56:29.333Z</time>
      </trkpt>
      <trkpt lat="63.27712" lon="9.75612">
        <ele>187.669423</ele>
        <time>2020-08-05T13:56:31.350Z</time>
      </trkpt>
      <trkpt lat="63.27712" lon="9.75636">
        <ele>187.739268</ele>
        <time>2020-08-05T13:56:33.405Z</time>
      </trkpt>
      <trkpt lat="63.27712" lon="9.7566">
        <ele>187.806823</ele>
        <time>2020-08-05T13:56:35.338Z</time>
      </trkpt>
      <trkpt lat="63.27712" lon="9.75683">
        <ele>187.871823</ele>
        <time>2020-08-05T13:56:37.408Z</time>
      </trkpt>
      <trkpt lat="63.27713" lon="9.75706">
        <ele>187.938312</ele>
        <time>2020-08-05T13:56:39.354Z</time>
      </trkpt>
      <trkpt lat="63.27714" lon="9.75728">
        <ele>188.000323</ele>
        <time>2020-08-05T13:56:41.357Z</time>
      </trkpt>
      <trkpt lat="63.27715" lon="9.75749">
        <ele>188.062075</ele>
        <time>2020-08-05T13:56:43.354Z</time>
      </trkpt>
      <trkpt lat="63.27716" lon="9.75779">
        <ele>188.146597</ele>
        <time>2020-08-05T13:56:46.367Z</time>
      </trkpt>
      <trkpt lat="63.27717" lon="9.75807">
        <ele>188.22733</ele>
        <time>2020-08-05T13:56:49.366Z</time>
      </trkpt>
      <trkpt lat="63.27718" lon="9.75834">
        <ele>188.30353</ele>
        <time>2020-08-05T13:56:52.354Z</time>
      </trkpt>
      <trkpt lat="63.2772" lon="9.75859">
        <ele>188.378046</ele>
        <time>2020-08-05T13:56:55.359Z</time>
      </trkpt>
      <trkpt lat="63.27722" lon="9.75884">
        <ele>188.448987</ele>
        <time>2020-08-05T13:56:58.398Z</time>
      </trkpt>
      <trkpt lat="63.27724" lon="9.75908">
        <ele>188.518902</ele>
        <time>2020-08-05T13:57:01.364Z</time>
      </trkpt>
      <trkpt lat="63.27725" lon="9.75931">
        <ele>188.58571</ele>
        <time>2020-08-05T13:57:04.372Z</time>
      </trkpt>
      <trkpt lat="63.27727" lon="9.75955">
        <ele>188.670923</ele>
        <time>2020-08-05T13:57:07.347Z</time>
      </trkpt>
      <trkpt lat="63.27728" lon="9.75978">
        <ele>188.934293</ele>
        <time>2020-08-05T13:57:10.410Z</time>
      </trkpt>
      <trkpt lat="63.2773" lon="9.76001">
        <ele>189.196694</ele>
        <time>2020-08-05T13:57:13.353Z</time>
      </trkpt>
      <trkpt lat="63.27731" lon="9.76022">
        <ele>189.433445</ele>
        <time>2020-08-05T13:57:16.355Z</time>
      </trkpt>
      <trkpt lat="63.27733" lon="9.76047">
        <ele>189.720297</ele>
        <time>2020-08-05T13:57:20.355Z</time>
      </trkpt>
      <trkpt lat="63.27734" lon="9.7607">
        <ele>189.977602</ele>
        <time>2020-08-05T13:57:24.340Z</time>
      </trkpt>
      <trkpt lat="63.27735" lon="9.76091">
        <ele>190.212769</ele>
        <time>2020-08-05T13:57:28.327Z</time>
      </trkpt>
      <trkpt lat="63.27736" lon="9.76113">
        <ele>190.46509</ele>
        <time>2020-08-05T13:57:32.343Z</time>
      </trkpt>
      <trkpt lat="63.27737" lon="9.76135">
        <ele>190.7181</ele>
        <time>2020-08-05T13:57:36.406Z</time>
      </trkpt>
      <trkpt lat="63.27739" lon="9.7616">
        <ele>190.994195</ele>
        <time>2020-08-05T13:57:40.358Z</time>
      </trkpt>
      <trkpt lat="63.27741" lon="9.7618">
        <ele>191.224095</ele>
        <time>2020-08-05T13:57:43.353Z</time>
      </trkpt>
      <trkpt lat="63.27746" lon="9.76204">
        <ele>191.517872</ele>
        <time>2020-08-05T13:57:47.349Z</time>
      </trkpt>
      <trkpt lat="63.27752" lon="9.76225">
        <ele>191.800286</ele>
        <time>2020-08-05T13:57:51.365Z</time>
      </trkpt>
      <trkpt lat="63.27758" lon="9.76245">
        <ele>192.072385</ele>
        <time>2020-08-05T13:57:55.395Z</time>
      </trkpt>
      <trkpt lat="63.27764" lon="9.76264">
        <ele>192.330154</ele>
        <time>2020-08-05T13:57:59.358Z</time>
      </trkpt>
      <trkpt lat="63.27769" lon="9.7628">
        <ele>192.554045</ele>
        <time>2020-08-05T13:58:02.332Z</time>
      </trkpt>
      <trkpt lat="63.27775" lon="9.76296">
        <ele>192.79128</ele>
        <time>2020-08-05T13:58:05.395Z</time>
      </trkpt>
      <trkpt lat="63.27781" lon="9.76314">
        <ele>193.036706</ele>
        <time>2020-08-05T13:58:08.344Z</time>
      </trkpt>
      <trkpt lat="63.27788" lon="9.76332">
        <ele>193.259244</ele>
        <time>2020-08-05T13:58:11.388Z</time>
      </trkpt>
      <trkpt lat="63.27793" lon="9.7635">
        <ele>193.453605</ele>
        <time>2020-08-05T13:58:14.389Z</time>
      </trkpt>
      <trkpt lat="63.27797" lon="9.76373">
        <ele>193.673042</ele>
        <time>2020-08-05T13:58:17.347Z</time>
      </trkpt>
      <trkpt lat="63.27799" lon="9.76403">
        <ele>193.942032</ele>
        <time>2020-08-05T13:58:20.342Z</time>
      </trkpt>
      <trkpt lat="63.27799" lon="9.76426">
        <ele>194.142255</ele>
        <time>2020-08-05T13:58:22.414Z</time>
      </trkpt>
      <trkpt lat="63.27797" lon="9.76448">
        <ele>194.338209</ele>
        <time>2020-08-05T13:58:24.401Z</time>
      </trkpt>
      <trkpt lat="63.27795" lon="9.76475">
        <ele>194.586757</ele>
        <time>2020-08-05T13:58:27.343Z</time>
      </trkpt>
      <trkpt lat="63.27793" lon="9.76496">
        <ele>194.776496</ele>
        <time>2020-08-05T13:58:30.395Z</time>
      </trkpt>
      <trkpt lat="63.27792" lon="9.7652">
        <ele>194.991395</ele>
        <time>2020-08-05T13:58:34.361Z</time>
      </trkpt>
      <trkpt lat="63.27792" lon="9.76543">
        <ele>195.196297</ele>
        <time>2020-08-05T13:58:39.390Z</time>
      </trkpt>
      <trkpt lat="63.27791" lon="9.76565">
        <ele>195.392614</ele>
        <time>2020-08-05T13:58:44.354Z</time>
      </trkpt>
      <trkpt lat="63.2779" lon="9.7659">
        <ele>195.614405</ele>
        <time>2020-08-05T13:58:48.363Z</time>
      </trkpt>
      <trkpt lat="63.2779" lon="9.7661">
        <ele>195.796919</ele>
        <time>2020-08-05T13:58:51.380Z</time>
      </trkpt>
      <trkpt lat="63.27791" lon="9.76635">
        <ele>196.013594</ele>
        <time>2020-08-05T13:58:54.377Z</time>
      </trkpt>
      <trkpt lat="63.27794" lon="9.76665">
        <ele>196.287717</ele>
        <time>2020-08-05T13:58:57.337Z</time>
      </trkpt>
      <trkpt lat="63.27796" lon="9.76688">
        <ele>196.500005</ele>
        <time>2020-08-05T13:58:59.337Z</time>
      </trkpt>
      <trkpt lat="63.27799" lon="9.76711">
        <ele>196.666274</ele>
        <time>2020-08-05T13:59:01.349Z</time>
      </trkpt>
      <trkpt lat="63.27803" lon="9.76733">
        <ele>196.353952</ele>
        <time>2020-08-05T13:59:03.342Z</time>
      </trkpt>
      <trkpt lat="63.27807" lon="9.76756">
        <ele>196.030269</ele>
        <time>2020-08-05T13:59:05.397Z</time>
      </trkpt>
      <trkpt lat="63.27811" lon="9.76781">
        <ele>195.677685</ele>
        <time>2020-08-05T13:59:07.339Z</time>
      </trkpt>
      <trkpt lat="63.27816" lon="9.76805">
        <ele>195.322752</ele>
        <time>2020-08-05T13:59:09.378Z</time>
      </trkpt>
      <trkpt lat="63.27821" lon="9.7683">
        <ele>194.960514</ele>
        <time>2020-08-05T13:59:11.372Z</time>
      </trkpt>
      <trkpt lat="63.27826" lon="9.76854">
        <ele>194.6093</ele>
        <time>2020-08-05T13:59:13.338Z</time>
      </trkpt>
      <trkpt lat="63.27832" lon="9.76875">
        <ele>194.279751</ele>
        <time>2020-08-05T13:59:15.355Z</time>
      </trkpt>
      <trkpt lat="63.27838" lon="9.76895">
        <ele>193.968086</ele>
        <time>2020-08-05T13:59:17.360Z</time>
      </trkpt>
      <trkpt lat="63.27843" lon="9.76914">
        <ele>193.679567</ele>
        <time>2020-08-05T13:59:19.360Z</time>
      </trkpt>
      <trkpt lat="63.27849" lon="9.76934">
        <ele>193.353199</ele>
        <time>2020-08-05T13:59:21.350Z</time>
      </trkpt>
      <trkpt lat="63.27856" lon="9.76957">
        <ele>192.977737</ele>
        <time>2020-08-05T13:59:23.365Z</time>
      </trkpt>
      <trkpt lat="63.27865" lon="9.76979">
        <ele>192.594267</ele>
        <time>2020-08-05T13:59:25.380Z</time>
      </trkpt>
      <trkpt lat="63.27872" lon="9.77001">
        <ele>192.226239</ele>
        <time>2020-08-05T13:59:27.409Z</time>
      </trkpt>
      <trkpt lat="63.27879" lon="9.7702">
        <ele>191.89519</ele>
        <time>2020-08-05T13:59:29.390Z</time>
      </trkpt>
      <trkpt lat="63.27886" lon="9.7704">
        <ele>191.573611</ele>
        <time>2020-08-05T13:59:31.354Z</time>
      </trkpt>
      <trkpt lat="63.27892" lon="9.77059">
        <ele>191.337238</ele>
        <time>2020-08-05T13:59:33.390Z</time>
      </trkpt>
      <trkpt lat="63.27897" lon="9.7708">
        <ele>191.222408</ele>
        <time>2020-08-05T13:59:35.354Z</time>
      </trkpt>
      <trkpt lat="63.27902" lon="9.77104">
        <ele>191.099405</ele>
        <time>2020-08-05T13:59:37.342Z</time>
      </trkpt>
      <trkpt lat="63.27904" lon="9.77126">
        <ele>190.989222</ele>
        <time>2020-08-05T13:59:39.397Z</time>
      </trkpt>
      <trkpt lat="63.27905" lon="9.77154">
        <ele>190.853804</ele>
        <time>2020-08-05T13:59:42.342Z</time>
      </trkpt>
      <trkpt lat="63.27907" lon="9.77175">
        <ele>190.751398</ele>
        <time>2020-08-05T13:59:45.370Z</time>
      </trkpt>
      <trkpt lat="63.27909" lon="9.77196">
        <ele>190.64946</ele>
        <time>2020-08-05T13:59:48.363Z</time>
      </trkpt>
      <trkpt lat="63.27911" lon="9.77218">
        <ele>190.541676</ele>
        <time>2020-08-05T13:59:51.374Z</time>
      </trkpt>
      <trkpt lat="63.27912" lon="9.77243">
        <ele>190.420383</ele>
        <time>2020-08-05T13:59:54.370Z</time>
      </trkpt>
      <trkpt lat="63.27915" lon="9.77268">
        <ele>190.293788</ele>
        <time>2020-08-05T13:59:57.343Z</time>
      </trkpt>
      <trkpt lat="63.27918" lon="9.77298">
        <ele>190.148622</ele>
        <time>2020-08-05T14:00:00.394Z</time>
      </trkpt>
      <trkpt lat="63.27921" lon="9.77326">
        <ele>190.006383</ele>
        <time>2020-08-05T14:00:03.357Z</time>
      </trkpt>
      <trkpt lat="63.27924" lon="9.77346">
        <ele>189.904925</ele>
        <time>2020-08-05T14:00:05.380Z</time>
      </trkpt>
      <trkpt lat="63.27927" lon="9.77367">
        <ele>189.802835</ele>
        <time>2020-08-05T14:00:07.386Z</time>
      </trkpt>
      <trkpt lat="63.2793" lon="9.77386">
        <ele>189.703424</ele>
        <time>2020-08-05T14:00:09.356Z</time>
      </trkpt>
      <trkpt lat="63.27934" lon="9.77405">
        <ele>189.603739</ele>
        <time>2020-08-05T14:00:11.376Z</time>
      </trkpt>
      <trkpt lat="63.27938" lon="9.77423">
        <ele>189.507571</ele>
        <time>2020-08-05T14:00:13.341Z</time>
      </trkpt>
      <trkpt lat="63.27943" lon="9.7745">
        <ele>189.736151</ele>
        <time>2020-08-05T14:00:16.363Z</time>
      </trkpt>
      <trkpt lat="63.27949" lon="9.77474">
        <ele>190.144508</ele>
        <time>2020-08-05T14:00:19.351Z</time>
      </trkpt>
      <trkpt lat="63.27954" lon="9.77497">
        <ele>190.53186</ele>
        <time>2020-08-05T14:00:22.343Z</time>
      </trkpt>
      <trkpt lat="63.27959" lon="9.7752">
        <ele>190.907012</ele>
        <time>2020-08-05T14:00:25.358Z</time>
      </trkpt>
      <trkpt lat="63.27963" lon="9.7754">
        <ele>191.238315</ele>
        <time>2020-08-05T14:00:28.344Z</time>
      </trkpt>
      <trkpt lat="63.27968" lon="9.77561">
        <ele>191.58748</ele>
        <time>2020-08-05T14:00:32.385Z</time>
      </trkpt>
      <trkpt lat="63.27972" lon="9.77581">
        <ele>191.932618</ele>
        <time>2020-08-05T14:00:37.360Z</time>
      </trkpt>
      <trkpt lat="63.27977" lon="9.77604">
        <ele>192.29934</ele>
        <time>2020-08-05T14:00:42.369Z</time>
      </trkpt>
      <trkpt lat="63.2798" lon="9.77624">
        <ele>192.62088</ele>
        <time>2020-08-05T14:00:47.356Z</time>
      </trkpt>
      <trkpt lat="63.27983" lon="9.77647">
        <ele>192.978491</ele>
        <time>2020-08-05T14:00:51.371Z</time>
      </trkpt>
      <trkpt lat="63.27985" lon="9.77668">
        <ele>193.302974</ele>
        <time>2020-08-05T14:00:54.334Z</time>
      </trkpt>
      <trkpt lat="63.27985" lon="9.77693">
        <ele>193.667827</ele>
        <time>2020-08-05T14:00:57.353Z</time>
      </trkpt>
      <trkpt lat="63.27985" lon="9.7772">
        <ele>194.080428</ele>
        <time>2020-08-05T14:01:00.362Z</time>
      </trkpt>
      <trkpt lat="63.27985" lon="9.77742">
        <ele>194.400733</ele>
        <time>2020-08-05T14:01:02.339Z</time>
      </trkpt>
      <trkpt lat="63.27986" lon="9.77764">
        <ele>194.727957</ele>
        <time>2020-08-05T14:01:04.345Z</time>
      </trkpt>
      <trkpt lat="63.27988" lon="9.77785">
        <ele>195.06266</ele>
        <time>2020-08-05T14:01:06.366Z</time>
      </trkpt>
      <trkpt lat="63.27992" lon="9.77806">
        <ele>195.396673</ele>
        <time>2020-08-05T14:01:08.353Z</time>
      </trkpt>
      <trkpt lat="63.27997" lon="9.77824">
        <ele>195.173787</ele>
        <time>2020-08-05T14:01:10.346Z</time>
      </trkpt>
      <trkpt lat="63.28004" lon="9.7784">
        <ele>194.881289</ele>
        <time>2020-08-05T14:01:12.402Z</time>
      </trkpt>
      <trkpt lat="63.28013" lon="9.77859">
        <ele>194.487834</ele>
        <time>2020-08-05T14:01:15.350Z</time>
      </trkpt>
      <trkpt lat="63.2802" lon="9.77872">
        <ele>194.205298</ele>
        <time>2020-08-05T14:01:17.366Z</time>
      </trkpt>
      <trkpt lat="63.28029" lon="9.77888">
        <ele>193.855606</ele>
        <time>2020-08-05T14:01:19.410Z</time>
      </trkpt>
      <trkpt lat="63.28039" lon="9.77903">
        <ele>193.498066</ele>
        <time>2020-08-05T14:01:21.347Z</time>
      </trkpt>
      <trkpt lat="63.28049" lon="9.77915">
        <ele>193.144591</ele>
        <time>2020-08-05T14:01:23.351Z</time>
      </trkpt>
      <trkpt lat="63.28059" lon="9.77921">
        <ele>192.819517</ele>
        <time>2020-08-05T14:01:25.378Z</time>
      </trkpt>
      <trkpt lat="63.2807" lon="9.77923">
        <ele>192.495296</ele>
        <time>2020-08-05T14:01:27.331Z</time>
      </trkpt>
      <trkpt lat="63.2808" lon="9.77924">
        <ele>192.179057</ele>
        <time>2020-08-05T14:01:29.398Z</time>
      </trkpt>
      <trkpt lat="63.2809" lon="9.77923">
        <ele>191.87202</ele>
        <time>2020-08-05T14:01:31.353Z</time>
      </trkpt>
      <trkpt lat="63.28099" lon="9.77923">
        <ele>191.58045</ele>
        <time>2020-08-05T14:01:33.362Z</time>
      </trkpt>
      <trkpt lat="63.28109" lon="9.77923">
        <ele>191.298061</ele>
        <time>2020-08-05T14:01:35.373Z</time>
      </trkpt>
      <trkpt lat="63.28118" lon="9.77926">
        <ele>191.015327</ele>
        <time>2020-08-05T14:01:37.343Z</time>
      </trkpt>
      <trkpt lat="63.2813" lon="9.77934">
        <ele>190.625915</ele>
        <time>2020-08-05T14:01:40.385Z</time>
      </trkpt>
      <trkpt lat="63.28138" lon="9.77946">
        <ele>190.318675</ele>
        <time>2020-08-05T14:01:42.399Z</time>
      </trkpt>
      <trkpt lat="63.28145" lon="9.77962">
        <ele>190.00984</ele>
        <time>2020-08-05T14:01:44.340Z</time>
      </trkpt>
      <trkpt lat="63.28151" lon="9.77983">
        <ele>189.637667</ele>
        <time>2020-08-05T14:01:46.395Z</time>
      </trkpt>
      <trkpt lat="63.28155" lon="9.78004">
        <ele>189.257276</ele>
        <time>2020-08-05T14:01:48.351Z</time>
      </trkpt>
      <trkpt lat="63.28159" lon="9.78024">
        <ele>188.879924</ele>
        <time>2020-08-05T14:01:50.345Z</time>
      </trkpt>
      <trkpt lat="63.28163" lon="9.78045">
        <ele>188.523296</ele>
        <time>2020-08-05T14:01:52.336Z</time>
      </trkpt>
      <trkpt lat="63.28166" lon="9.78065">
        <ele>188.162838</ele>
        <time>2020-08-05T14:01:54.355Z</time>
      </trkpt>
      <trkpt lat="63.2817" lon="9.78086">
        <ele>187.792769</ele>
        <time>2020-08-05T14:01:56.367Z</time>
      </trkpt>
      <trkpt lat="63.28174" lon="9.78108">
        <ele>187.409102</ele>
        <time>2020-08-05T14:01:58.345Z</time>
      </trkpt>
      <trkpt lat="63.28177" lon="9.78129">
        <ele>187.024756</ele>
        <time>2020-08-05T14:02:00.335Z</time>
      </trkpt>
      <trkpt lat="63.28181" lon="9.78151">
        <ele>186.64598</ele>
        <time>2020-08-05T14:02:02.364Z</time>
      </trkpt>
      <trkpt lat="63.28185" lon="9.78172">
        <ele>186.27744</ele>
        <time>2020-08-05T14:02:04.335Z</time>
      </trkpt>
      <trkpt lat="63.28188" lon="9.78193">
        <ele>185.913121</ele>
        <time>2020-08-05T14:02:06.346Z</time>
      </trkpt>
      <trkpt lat="63.28191" lon="9.78213">
        <ele>185.560686</ele>
        <time>2020-08-05T14:02:08.339Z</time>
      </trkpt>
      <trkpt lat="63.28194" lon="9.78233">
        <ele>185.203002</ele>
        <time>2020-08-05T14:02:10.396Z</time>
      </trkpt>
      <trkpt lat="63.28198" lon="9.78255">
        <ele>184.822295</ele>
        <time>2020-08-05T14:02:12.356Z</time>
      </trkpt>
      <trkpt lat="63.28201" lon="9.78279">
        <ele>184.40439</ele>
        <time>2020-08-05T14:02:14.379Z</time>
      </trkpt>
      <trkpt lat="63.28204" lon="9.78307">
        <ele>183.942766</ele>
        <time>2020-08-05T14:02:16.363Z</time>
      </trkpt>
      <trkpt lat="63.28207" lon="9.78334">
        <ele>183.485248</ele>
        <time>2020-08-05T14:02:18.375Z</time>
      </trkpt>
      <trkpt lat="63.28209" lon="9.78359">
        <ele>183.08202</ele>
        <time>2020-08-05T14:02:20.353Z</time>
      </trkpt>
      <trkpt lat="63.28212" lon="9.78385">
        <ele>182.687697</ele>
        <time>2020-08-05T14:02:22.347Z</time>
      </trkpt>
      <trkpt lat="63.28216" lon="9.7841">
        <ele>182.293339</ele>
        <time>2020-08-05T14:02:24.342Z</time>
      </trkpt>
      <trkpt lat="63.28221" lon="9.78434">
        <ele>181.897312</ele>
        <time>2020-08-05T14:02:26.389Z</time>
      </trkpt>
      <trkpt lat="63.28227" lon="9.78457">
        <ele>181.49863</ele>
        <time>2020-08-05T14:02:28.406Z</time>
      </trkpt>
      <trkpt lat="63.28234" lon="9.7848">
        <ele>181.101052</ele>
        <time>2020-08-05T14:02:30.368Z</time>
      </trkpt>
      <trkpt lat="63.28241" lon="9.78505">
        <ele>180.655013</ele>
        <time>2020-08-05T14:02:32.391Z</time>
      </trkpt>
      <trkpt lat="63.2825" lon="9.78532">
        <ele>180.172164</ele>
        <time>2020-08-05T14:02:34.343Z</time>
      </trkpt>
      <trkpt lat="63.28257" lon="9.78559">
        <ele>179.709877</ele>
        <time>2020-08-05T14:02:36.338Z</time>
      </trkpt>
      <trkpt lat="63.28264" lon="9.78584">
        <ele>179.2701</ele>
        <time>2020-08-05T14:02:38.352Z</time>
      </trkpt>
      <trkpt lat="63.2827" lon="9.78609">
        <ele>178.839199</ele>
        <time>2020-08-05T14:02:40.381Z</time>
      </trkpt>
      <trkpt lat="63.28276" lon="9.78634">
        <ele>178.428263</ele>
        <time>2020-08-05T14:02:42.365Z</time>
      </trkpt>
      <trkpt lat="63.2828" lon="9.78661">
        <ele>178.010421</ele>
        <time>2020-08-05T14:02:44.357Z</time>
      </trkpt>
      <trkpt lat="63.28281" lon="9.78689">
        <ele>177.600297</ele>
        <time>2020-08-05T14:02:46.374Z</time>
      </trkpt>
      <trkpt lat="63.28279" lon="9.78717">
        <ele>176.891079</ele>
        <time>2020-08-05T14:02:48.332Z</time>
      </trkpt>
      <trkpt lat="63.28276" lon="9.78742">
        <ele>175.992124</ele>
        <time>2020-08-05T14:02:50.361Z</time>
      </trkpt>
      <trkpt lat="63.28271" lon="9.78766">
        <ele>175.122518</ele>
        <time>2020-08-05T14:02:52.333Z</time>
      </trkpt>
      <trkpt lat="63.28267" lon="9.78791">
        <ele>174.188452</ele>
        <time>2020-08-05T14:02:54.392Z</time>
      </trkpt>
      <trkpt lat="63.28261" lon="9.78819">
        <ele>173.148251</ele>
        <time>2020-08-05T14:02:56.364Z</time>
      </trkpt>
      <trkpt lat="63.28256" lon="9.78848">
        <ele>172.067016</ele>
        <time>2020-08-05T14:02:58.366Z</time>
      </trkpt>
      <trkpt lat="63.2825" lon="9.78881">
        <ele>170.826655</ele>
        <time>2020-08-05T14:03:00.339Z</time>
      </trkpt>
      <trkpt lat="63.28243" lon="9.78917">
        <ele>169.520353</ele>
        <time>2020-08-05T14:03:02.356Z</time>
      </trkpt>
      <trkpt lat="63.28236" lon="9.78951">
        <ele>168.245841</ele>
        <time>2020-08-05T14:03:04.434Z</time>
      </trkpt>
      <trkpt lat="63.2823" lon="9.78984">
        <ele>167.018094</ele>
        <time>2020-08-05T14:03:06.378Z</time>
      </trkpt>
      <trkpt lat="63.28224" lon="9.79013">
        <ele>165.91867</ele>
        <time>2020-08-05T14:03:08.362Z</time>
      </trkpt>
      <trkpt lat="63.28218" lon="9.79043">
        <ele>164.768477</ele>
        <time>2020-08-05T14:03:10.349Z</time>
      </trkpt>
      <trkpt lat="63.2821" lon="9.79077">
        <ele>163.371634</ele>
        <time>2020-08-05T14:03:12.340Z</time>
      </trkpt>
      <trkpt lat="63.28205" lon="9.79094">
        <ele>162.341312</ele>
        <time>2020-08-05T14:03:13.357Z</time>
      </trkpt>
      <trkpt lat="63.28196" lon="9.79128">
        <ele>160.305753</ele>
        <time>2020-08-05T14:03:15.346Z</time>
      </trkpt>
      <trkpt lat="63.28187" lon="9.7916">
        <ele>158.368999</ele>
        <time>2020-08-05T14:03:17.368Z</time>
      </trkpt>
      <trkpt lat="63.28179" lon="9.79189">
        <ele>156.588327</ele>
        <time>2020-08-05T14:03:19.370Z</time>
      </trkpt>
      <trkpt lat="63.28171" lon="9.79216">
        <ele>154.94006</ele>
        <time>2020-08-05T14:03:21.350Z</time>
      </trkpt>
      <trkpt lat="63.28163" lon="9.7924">
        <ele>153.384073</ele>
        <time>2020-08-05T14:03:23.344Z</time>
      </trkpt>
      <trkpt lat="63.28155" lon="9.79263">
        <ele>151.921398</ele>
        <time>2020-08-05T14:03:25.365Z</time>
      </trkpt>
      <trkpt lat="63.28147" lon="9.79284">
        <ele>150.504351</ele>
        <time>2020-08-05T14:03:27.342Z</time>
      </trkpt>
      <trkpt lat="63.28139" lon="9.79304">
        <ele>149.119682</ele>
        <time>2020-08-05T14:03:29.351Z</time>
      </trkpt>
      <trkpt lat="63.28131" lon="9.79324">
        <ele>147.758017</ele>
        <time>2020-08-05T14:03:31.370Z</time>
      </trkpt>
      <trkpt lat="63.28124" lon="9.79343">
        <ele>146.442191</ele>
        <time>2020-08-05T14:03:33.376Z</time>
      </trkpt>
      <trkpt lat="63.28117" lon="9.79361">
        <ele>145.275824</ele>
        <time>2020-08-05T14:03:35.349Z</time>
      </trkpt>
      <trkpt lat="63.28112" lon="9.79378">
        <ele>144.19673</ele>
        <time>2020-08-05T14:03:37.390Z</time>
      </trkpt>
      <trkpt lat="63.28107" lon="9.79399">
        <ele>143.011001</ele>
        <time>2020-08-05T14:03:39.380Z</time>
      </trkpt>
      <trkpt lat="63.28103" lon="9.79426">
        <ele>141.786918</ele>
        <time>2020-08-05T14:03:41.357Z</time>
      </trkpt>
      <trkpt lat="63.28103" lon="9.79455">
        <ele>140.489751</ele>
        <time>2020-08-05T14:03:43.390Z</time>
      </trkpt>
      <trkpt lat="63.28105" lon="9.79482">
        <ele>139.307737</ele>
        <time>2020-08-05T14:03:45.341Z</time>
      </trkpt>
      <trkpt lat="63.28109" lon="9.79508">
        <ele>138.125016</ele>
        <time>2020-08-05T14:03:47.364Z</time>
      </trkpt>
      <trkpt lat="63.28112" lon="9.79534">
        <ele>136.907619</ele>
        <time>2020-08-05T14:03:49.386Z</time>
      </trkpt>
      <trkpt lat="63.28114" lon="9.7956">
        <ele>135.765197</ele>
        <time>2020-08-05T14:03:51.375Z</time>
      </trkpt>
      <trkpt lat="63.28113" lon="9.79585">
        <ele>134.673192</ele>
        <time>2020-08-05T14:03:53.359Z</time>
      </trkpt>
      <trkpt lat="63.2811" lon="9.79611">
        <ele>133.521161</ele>
        <time>2020-08-05T14:03:55.345Z</time>
      </trkpt>
      <trkpt lat="63.28105" lon="9.79636">
        <ele>132.330327</ele>
        <time>2020-08-05T14:03:57.365Z</time>
      </trkpt>
      <trkpt lat="63.28099" lon="9.79658">
        <ele>131.165308</ele>
        <time>2020-08-05T14:03:59.383Z</time>
      </trkpt>
      <trkpt lat="63.28092" lon="9.7968">
        <ele>129.991909</ele>
        <time>2020-08-05T14:04:01.386Z</time>
      </trkpt>
      <trkpt lat="63.28085" lon="9.79703">
        <ele>128.785889</ele>
        <time>2020-08-05T14:04:03.346Z</time>
      </trkpt>
      <trkpt lat="63.28082" lon="9.79727">
        <ele>127.663904</ele>
        <time>2020-08-05T14:04:05.355Z</time>
      </trkpt>
      <trkpt lat="63.28083" lon="9.79755">
        <ele>126.43718</ele>
        <time>2020-08-05T14:04:08.382Z</time>
      </trkpt>
      <trkpt lat="63.28086" lon="9.79775">
        <ele>125.510261</ele>
        <time>2020-08-05T14:04:10.355Z</time>
      </trkpt>
      <trkpt lat="63.28089" lon="9.798">
        <ele>124.401835</ele>
        <time>2020-08-05T14:04:12.362Z</time>
      </trkpt>
      <trkpt lat="63.2809" lon="9.79831">
        <ele>123.038938</ele>
        <time>2020-08-05T14:04:14.340Z</time>
      </trkpt>
      <trkpt lat="63.28089" lon="9.79865">
        <ele>121.507502</ele>
        <time>2020-08-05T14:04:16.367Z</time>
      </trkpt>
      <trkpt lat="63.28087" lon="9.79902">
        <ele>119.870255</ele>
        <time>2020-08-05T14:04:18.365Z</time>
      </trkpt>
      <trkpt lat="63.28084" lon="9.7994">
        <ele>118.183107</ele>
        <time>2020-08-05T14:04:20.375Z</time>
      </trkpt>
      <trkpt lat="63.28081" lon="9.79975">
        <ele>116.605355</ele>
        <time>2020-08-05T14:04:22.360Z</time>
      </trkpt>
      <trkpt lat="63.28076" lon="9.80009">
        <ele>115.040449</ele>
        <time>2020-08-05T14:04:24.360Z</time>
      </trkpt>
      <trkpt lat="63.2807" lon="9.80043">
        <ele>113.427398</ele>
        <time>2020-08-05T14:04:26.365Z</time>
      </trkpt>
      <trkpt lat="63.28063" lon="9.80077">
        <ele>111.753436</ele>
        <time>2020-08-05T14:04:28.372Z</time>
      </trkpt>
      <trkpt lat="63.28057" lon="9.80114">
        <ele>110.021159</ele>
        <time>2020-08-05T14:04:30.394Z</time>
      </trkpt>
      <trkpt lat="63.28053" lon="9.80148">
        <ele>108.474299</ele>
        <time>2020-08-05T14:04:32.351Z</time>
      </trkpt>
      <trkpt lat="63.2805" lon="9.80177">
        <ele>107.102058</ele>
        <time>2020-08-05T14:04:34.353Z</time>
      </trkpt>
      <trkpt lat="63.2805" lon="9.80205">
        <ele>105.795812</ele>
        <time>2020-08-05T14:04:36.343Z</time>
      </trkpt>
      <trkpt lat="63.28054" lon="9.80229">
        <ele>104.601611</ele>
        <time>2020-08-05T14:04:38.393Z</time>
      </trkpt>
      <trkpt lat="63.2806" lon="9.80253">
        <ele>103.283314</ele>
        <time>2020-08-05T14:04:40.359Z</time>
      </trkpt>
      <trkpt lat="63.28068" lon="9.80273">
        <ele>101.996523</ele>
        <time>2020-08-05T14:04:42.350Z</time>
      </trkpt>
      <trkpt lat="63.28079" lon="9.80282">
        <ele>100.785598</ele>
        <time>2020-08-05T14:04:44.354Z</time>
      </trkpt>
      <trkpt lat="63.2809" lon="9.80282">
        <ele>99.694898</ele>
        <time>2020-08-05T14:04:46.393Z</time>
      </trkpt>
      <trkpt lat="63.28101" lon="9.80286">
        <ele>98.520705</ele>
        <time>2020-08-05T14:04:48.383Z</time>
      </trkpt>
      <trkpt lat="63.2811" lon="9.80294">
        <ele>97.430196</ele>
        <time>2020-08-05T14:04:50.356Z</time>
      </trkpt>
      <trkpt lat="63.2812" lon="9.80313">
        <ele>96.128238</ele>
        <time>2020-08-05T14:04:52.381Z</time>
      </trkpt>
      <trkpt lat="63.28123" lon="9.80338">
        <ele>94.905686</ele>
        <time>2020-08-05T14:04:54.355Z</time>
      </trkpt>
      <trkpt lat="63.2812" lon="9.80373">
        <ele>93.216735</ele>
        <time>2020-08-05T14:04:56.342Z</time>
      </trkpt>
      <trkpt lat="63.28114" lon="9.80409">
        <ele>91.435433</ele>
        <time>2020-08-05T14:04:58.344Z</time>
      </trkpt>
      <trkpt lat="63.28108" lon="9.80441">
        <ele>89.771445</ele>
        <time>2020-08-05T14:05:00.394Z</time>
      </trkpt>
      <trkpt lat="63.28101" lon="9.80469">
        <ele>88.042843</ele>
        <time>2020-08-05T14:05:02.356Z</time>
      </trkpt>
      <trkpt lat="63.28094" lon="9.80499">
        <ele>85.922416</ele>
        <time>2020-08-05T14:05:04.342Z</time>
      </trkpt>
      <trkpt lat="63.28086" lon="9.80533">
        <ele>83.569811</ele>
        <time>2020-08-05T14:05:06.356Z</time>
      </trkpt>
      <trkpt lat="63.28077" lon="9.80566">
        <ele>81.21912</ele>
        <time>2020-08-05T14:05:08.380Z</time>
      </trkpt>
      <trkpt lat="63.2807" lon="9.80595">
        <ele>79.177658</ele>
        <time>2020-08-05T14:05:10.387Z</time>
      </trkpt>
      <trkpt lat="63.28064" lon="9.80621">
        <ele>77.358073</ele>
        <time>2020-08-05T14:05:12.350Z</time>
      </trkpt>
      <trkpt lat="63.28058" lon="9.80645">
        <ele>75.690867</ele>
        <time>2020-08-05T14:05:14.348Z</time>
      </trkpt>
      <trkpt lat="63.28054" lon="9.80669">
        <ele>74.156884</ele>
        <time>2020-08-05T14:05:16.370Z</time>
      </trkpt>
      <trkpt lat="63.28053" lon="9.8069">
        <ele>72.843988</ele>
        <time>2020-08-05T14:05:18.395Z</time>
      </trkpt>
      <trkpt lat="63.28056" lon="9.80711">
        <ele>71.51306</ele>
        <time>2020-08-05T14:05:20.340Z</time>
      </trkpt>
      <trkpt lat="63.28058" lon="9.80734">
        <ele>70.037571</ele>
        <time>2020-08-05T14:05:22.359Z</time>
      </trkpt>
      <trkpt lat="63.2806" lon="9.8076">
        <ele>68.455951</ele>
        <time>2020-08-05T14:05:24.381Z</time>
      </trkpt>
      <trkpt lat="63.28061" lon="9.80783">
        <ele>67.009318</ele>
        <time>2020-08-05T14:05:26.374Z</time>
      </trkpt>
      <trkpt lat="63.28062" lon="9.80806">
        <ele>65.614425</ele>
        <time>2020-08-05T14:05:28.367Z</time>
      </trkpt>
      <trkpt lat="63.28063" lon="9.80826">
        <ele>64.464875</ele>
        <time>2020-08-05T14:05:30.378Z</time>
      </trkpt>
      <trkpt lat="63.28063" lon="9.80854">
        <ele>63.917307</ele>
        <time>2020-08-05T14:05:33.355Z</time>
      </trkpt>
      <trkpt lat="63.28057" lon="9.80879">
        <ele>63.36982</ele>
        <time>2020-08-05T14:05:36.361Z</time>
      </trkpt>
      <trkpt lat="63.28051" lon="9.80893">
        <ele>62.979214</ele>
        <time>2020-08-05T14:05:38.339Z</time>
      </trkpt>
      <trkpt lat="63.28044" lon="9.80909">
        <ele>62.553004</ele>
        <time>2020-08-05T14:05:42.358Z</time>
      </trkpt>
      <trkpt lat="63.28053" lon="9.80943">
        <ele>61.784555</ele>
        <time>2020-08-05T14:06:06.349Z</time>
      </trkpt>
      <trkpt lat="63.28064" lon="9.8096">
        <ele>61.207628</ele>
        <time>2020-08-05T14:06:09.351Z</time>
      </trkpt>
      <trkpt lat="63.28074" lon="9.80978">
        <ele>60.626474</ele>
        <time>2020-08-05T14:06:12.358Z</time>
      </trkpt>
      <trkpt lat="63.28082" lon="9.8099">
        <ele>60.221656</ele>
        <time>2020-08-05T14:06:14.395Z</time>
      </trkpt>
      <trkpt lat="63.2809" lon="9.81003">
        <ele>59.802913</ele>
        <time>2020-08-05T14:06:16.389Z</time>
      </trkpt>
      <trkpt lat="63.28098" lon="9.81016">
        <ele>59.362135</ele>
        <time>2020-08-05T14:06:18.343Z</time>
      </trkpt>
      <trkpt lat="63.28106" lon="9.8103">
        <ele>58.910916</ele>
        <time>2020-08-05T14:06:20.331Z</time>
      </trkpt>
      <trkpt lat="63.28115" lon="9.81043">
        <ele>58.445612</ele>
        <time>2020-08-05T14:06:22.358Z</time>
      </trkpt>
      <trkpt lat="63.28124" lon="9.81057">
        <ele>57.988308</ele>
        <time>2020-08-05T14:06:24.390Z</time>
      </trkpt>
      <trkpt lat="63.28133" lon="9.8107">
        <ele>57.526</ele>
        <time>2020-08-05T14:06:26.367Z</time>
      </trkpt>
      <trkpt lat="63.28142" lon="9.81084">
        <ele>57.046399</ele>
        <time>2020-08-05T14:06:28.388Z</time>
      </trkpt>
      <trkpt lat="63.28152" lon="9.81098">
        <ele>56.649918</ele>
        <time>2020-08-05T14:06:30.348Z</time>
      </trkpt>
      <trkpt lat="63.28162" lon="9.81111">
        <ele>56.450527</ele>
        <time>2020-08-05T14:06:32.410Z</time>
      </trkpt>
      <trkpt lat="63.28173" lon="9.81124">
        <ele>56.254395</ele>
        <time>2020-08-05T14:06:34.336Z</time>
      </trkpt>
      <trkpt lat="63.28183" lon="9.81138">
        <ele>56.053585</ele>
        <time>2020-08-05T14:06:36.354Z</time>
      </trkpt>
      <trkpt lat="63.28194" lon="9.81151">
        <ele>55.853511</ele>
        <time>2020-08-05T14:06:38.363Z</time>
      </trkpt>
      <trkpt lat="63.28205" lon="9.81164">
        <ele>55.644744</ele>
        <time>2020-08-05T14:06:40.348Z</time>
      </trkpt>
      <trkpt lat="63.28217" lon="9.81177">
        <ele>55.434853</ele>
        <time>2020-08-05T14:06:42.344Z</time>
      </trkpt>
      <trkpt lat="63.28228" lon="9.81189">
        <ele>55.229553</ele>
        <time>2020-08-05T14:06:44.339Z</time>
      </trkpt>
      <trkpt lat="63.28239" lon="9.81202">
        <ele>55.020984</ele>
        <time>2020-08-05T14:06:46.374Z</time>
      </trkpt>
      <trkpt lat="63.28251" lon="9.81214">
        <ele>54.814539</ele>
        <time>2020-08-05T14:06:48.349Z</time>
      </trkpt>
      <trkpt lat="63.28262" lon="9.81225">
        <ele>54.612126</ele>
        <time>2020-08-05T14:06:50.359Z</time>
      </trkpt>
      <trkpt lat="63.28273" lon="9.81234">
        <ele>54.425408</ele>
        <time>2020-08-05T14:06:52.341Z</time>
      </trkpt>
      <trkpt lat="63.28283" lon="9.81241">
        <ele>54.247525</ele>
        <time>2020-08-05T14:06:54.354Z</time>
      </trkpt>
      <trkpt lat="63.28294" lon="9.81247">
        <ele>54.066974</ele>
        <time>2020-08-05T14:06:56.379Z</time>
      </trkpt>
      <trkpt lat="63.28305" lon="9.8125">
        <ele>53.872835</ele>
        <time>2020-08-05T14:06:58.351Z</time>
      </trkpt>
      <trkpt lat="63.28318" lon="9.81253">
        <ele>53.753485</ele>
        <time>2020-08-05T14:07:00.390Z</time>
      </trkpt>
      <trkpt lat="63.28331" lon="9.81253">
        <ele>53.71639</ele>
        <time>2020-08-05T14:07:02.359Z</time>
      </trkpt>
      <trkpt lat="63.28345" lon="9.81254">
        <ele>53.677336</ele>
        <time>2020-08-05T14:07:04.354Z</time>
      </trkpt>
      <trkpt lat="63.28359" lon="9.81255">
        <ele>53.638287</ele>
        <time>2020-08-05T14:07:06.371Z</time>
      </trkpt>
      <trkpt lat="63.28372" lon="9.81254">
        <ele>53.600084</ele>
        <time>2020-08-05T14:07:08.347Z</time>
      </trkpt>
      <trkpt lat="63.28386" lon="9.81255">
        <ele>53.562156</ele>
        <time>2020-08-05T14:07:10.353Z</time>
      </trkpt>
      <trkpt lat="63.28399" lon="9.81255">
        <ele>53.525357</ele>
        <time>2020-08-05T14:07:12.368Z</time>
      </trkpt>
      <trkpt lat="63.28412" lon="9.81255">
        <ele>53.488559</ele>
        <time>2020-08-05T14:07:14.344Z</time>
      </trkpt>
      <trkpt lat="63.28425" lon="9.81254">
        <ele>53.452274</ele>
        <time>2020-08-05T14:07:16.398Z</time>
      </trkpt>
      <trkpt lat="63.28437" lon="9.81253">
        <ele>53.417997</ele>
        <time>2020-08-05T14:07:18.395Z</time>
      </trkpt>
      <trkpt lat="63.2845" lon="9.81252">
        <ele>53.382315</ele>
        <time>2020-08-05T14:07:20.354Z</time>
      </trkpt>
      <trkpt lat="63.28462" lon="9.81252">
        <ele>53.348599</ele>
        <time>2020-08-05T14:07:22.337Z</time>
      </trkpt>
      <trkpt lat="63.28474" lon="9.81251">
        <ele>53.31489</ele>
        <time>2020-08-05T14:07:24.373Z</time>
      </trkpt>
      <trkpt lat="63.28485" lon="9.81251">
        <ele>53.282585</ele>
        <time>2020-08-05T14:07:26.359Z</time>
      </trkpt>
      <trkpt lat="63.28496" lon="9.81252">
        <ele>53.228804</ele>
        <time>2020-08-05T14:07:28.371Z</time>
      </trkpt>
      <trkpt lat="63.28507" lon="9.81254">
        <ele>53.143587</ele>
        <time>2020-08-05T14:07:30.365Z</time>
      </trkpt>
      <trkpt lat="63.28519" lon="9.81257">
        <ele>53.057395</ele>
        <time>2020-08-05T14:07:32.361Z</time>
      </trkpt>
      <trkpt lat="63.2853" lon="9.81261">
        <ele>52.96928</ele>
        <time>2020-08-05T14:07:34.334Z</time>
      </trkpt>
      <trkpt lat="63.28541" lon="9.81266">
        <ele>52.881209</ele>
        <time>2020-08-05T14:07:36.349Z</time>
      </trkpt>
      <trkpt lat="63.28552" lon="9.81271">
        <ele>52.796361</ele>
        <time>2020-08-05T14:07:38.409Z</time>
      </trkpt>
      <trkpt lat="63.28563" lon="9.81279">
        <ele>52.706752</ele>
        <time>2020-08-05T14:07:40.355Z</time>
      </trkpt>
      <trkpt lat="63.28574" lon="9.81288">
        <ele>52.620981</ele>
        <time>2020-08-05T14:07:42.356Z</time>
      </trkpt>
      <trkpt lat="63.28585" lon="9.81297">
        <ele>52.530781</ele>
        <time>2020-08-05T14:07:44.345Z</time>
      </trkpt>
      <trkpt lat="63.28595" lon="9.81308">
        <ele>52.441659</ele>
        <time>2020-08-05T14:07:46.402Z</time>
      </trkpt>
      <trkpt lat="63.28606" lon="9.81319">
        <ele>52.351556</ele>
        <time>2020-08-05T14:07:48.340Z</time>
      </trkpt>
      <trkpt lat="63.28616" lon="9.81331">
        <ele>52.264876</ele>
        <time>2020-08-05T14:07:50.335Z</time>
      </trkpt>
      <trkpt lat="63.28626" lon="9.81345">
        <ele>52.174011</ele>
        <time>2020-08-05T14:07:52.384Z</time>
      </trkpt>
      <trkpt lat="63.28636" lon="9.81358">
        <ele>52.08394</ele>
        <time>2020-08-05T14:07:54.341Z</time>
      </trkpt>
      <trkpt lat="63.28646" lon="9.81373">
        <ele>51.996305</ele>
        <time>2020-08-05T14:07:56.356Z</time>
      </trkpt>
      <trkpt lat="63.28655" lon="9.81389">
        <ele>51.904816</ele>
        <time>2020-08-05T14:07:58.342Z</time>
      </trkpt>
      <trkpt lat="63.28665" lon="9.81404">
        <ele>51.692038</ele>
        <time>2020-08-05T14:08:00.356Z</time>
      </trkpt>
      <trkpt lat="63.28674" lon="9.8142">
        <ele>51.453606</ele>
        <time>2020-08-05T14:08:02.378Z</time>
      </trkpt>
      <trkpt lat="63.28684" lon="9.81437">
        <ele>51.212979</ele>
        <time>2020-08-05T14:08:04.402Z</time>
      </trkpt>
      <trkpt lat="63.28693" lon="9.81454">
        <ele>50.979134</ele>
        <time>2020-08-05T14:08:06.365Z</time>
      </trkpt>
      <trkpt lat="63.28702" lon="9.8147">
        <ele>50.748934</ele>
        <time>2020-08-05T14:08:08.354Z</time>
      </trkpt>
      <trkpt lat="63.28712" lon="9.81486">
        <ele>50.506267</ele>
        <time>2020-08-05T14:08:10.344Z</time>
      </trkpt>
      <trkpt lat="63.28721" lon="9.81502">
        <ele>50.277207</ele>
        <time>2020-08-05T14:08:12.356Z</time>
      </trkpt>
      <trkpt lat="63.28729" lon="9.81519">
        <ele>50.045286</ele>
        <time>2020-08-05T14:08:14.365Z</time>
      </trkpt>
      <trkpt lat="63.28739" lon="9.81535">
        <ele>49.805213</ele>
        <time>2020-08-05T14:08:16.346Z</time>
      </trkpt>
      <trkpt lat="63.28748" lon="9.81551">
        <ele>49.575875</ele>
        <time>2020-08-05T14:08:18.342Z</time>
      </trkpt>
      <trkpt lat="63.28756" lon="9.81566">
        <ele>49.36397</ele>
        <time>2020-08-05T14:08:20.363Z</time>
      </trkpt>
      <trkpt lat="63.28765" lon="9.81583">
        <ele>49.132051</ele>
        <time>2020-08-05T14:08:22.342Z</time>
      </trkpt>
      <trkpt lat="63.28774" lon="9.816">
        <ele>48.906424</ele>
        <time>2020-08-05T14:08:24.368Z</time>
      </trkpt>
      <trkpt lat="63.28782" lon="9.81616">
        <ele>48.69058</ele>
        <time>2020-08-05T14:08:26.358Z</time>
      </trkpt>
      <trkpt lat="63.28789" lon="9.81633">
        <ele>48.477624</ele>
        <time>2020-08-05T14:08:28.368Z</time>
      </trkpt>
      <trkpt lat="63.28797" lon="9.8165">
        <ele>48.278947</ele>
        <time>2020-08-05T14:08:30.371Z</time>
      </trkpt>
      <trkpt lat="63.28805" lon="9.81668">
        <ele>48.14853</ele>
        <time>2020-08-05T14:08:32.372Z</time>
      </trkpt>
      <trkpt lat="63.28813" lon="9.81686">
        <ele>48.016538</ele>
        <time>2020-08-05T14:08:34.374Z</time>
      </trkpt>
      <trkpt lat="63.2882" lon="9.81704">
        <ele>47.886981</ele>
        <time>2020-08-05T14:08:36.416Z</time>
      </trkpt>
      <trkpt lat="63.28827" lon="9.81722">
        <ele>47.756626</ele>
        <time>2020-08-05T14:08:38.344Z</time>
      </trkpt>
      <trkpt lat="63.28835" lon="9.81741">
        <ele>47.624271</ele>
        <time>2020-08-05T14:08:40.362Z</time>
      </trkpt>
      <trkpt lat="63.28842" lon="9.8176">
        <ele>47.491951</ele>
        <time>2020-08-05T14:08:42.343Z</time>
      </trkpt>
      <trkpt lat="63.28849" lon="9.81779">
        <ele>47.363002</ele>
        <time>2020-08-05T14:08:44.341Z</time>
      </trkpt>
      <trkpt lat="63.28856" lon="9.81798">
        <ele>47.234937</ele>
        <time>2020-08-05T14:08:46.384Z</time>
      </trkpt>
      <trkpt lat="63.28863" lon="9.81817">
        <ele>47.107216</ele>
        <time>2020-08-05T14:08:48.350Z</time>
      </trkpt>
      <trkpt lat="63.28869" lon="9.81835">
        <ele>46.984586</ele>
        <time>2020-08-05T14:08:50.365Z</time>
      </trkpt>
      <trkpt lat="63.28876" lon="9.81852">
        <ele>46.865896</ele>
        <time>2020-08-05T14:08:52.344Z</time>
      </trkpt>
      <trkpt lat="63.28882" lon="9.81869">
        <ele>46.747205</ele>
        <time>2020-08-05T14:08:54.366Z</time>
      </trkpt>
      <trkpt lat="63.28889" lon="9.81887">
        <ele>46.626136</ele>
        <time>2020-08-05T14:08:56.368Z</time>
      </trkpt>
      <trkpt lat="63.28895" lon="9.81904">
        <ele>46.506383</ele>
        <time>2020-08-05T14:08:58.364Z</time>
      </trkpt>
      <trkpt lat="63.28902" lon="9.81923">
        <ele>46.380288</ele>
        <time>2020-08-05T14:09:00.347Z</time>
      </trkpt>
      <trkpt lat="63.28909" lon="9.81941">
        <ele>46.252975</ele>
        <time>2020-08-05T14:09:02.335Z</time>
      </trkpt>
      <trkpt lat="63.28917" lon="9.8196">
        <ele>46.357213</ele>
        <time>2020-08-05T14:09:04.432Z</time>
      </trkpt>
      <trkpt lat="63.28923" lon="9.81978">
        <ele>46.62092</ele>
        <time>2020-08-05T14:09:06.374Z</time>
      </trkpt>
      <trkpt lat="63.2893" lon="9.81995">
        <ele>46.878872</ele>
        <time>2020-08-05T14:09:08.373Z</time>
      </trkpt>
      <trkpt lat="63.28936" lon="9.82013">
        <ele>47.14182</ele>
        <time>2020-08-05T14:09:10.373Z</time>
      </trkpt>
      <trkpt lat="63.28943" lon="9.8203">
        <ele>47.393614</ele>
        <time>2020-08-05T14:09:12.361Z</time>
      </trkpt>
      <trkpt lat="63.28949" lon="9.82046">
        <ele>47.642755</ele>
        <time>2020-08-05T14:09:14.352Z</time>
      </trkpt>
      <trkpt lat="63.28956" lon="9.82062">
        <ele>47.891077</ele>
        <time>2020-08-05T14:09:16.363Z</time>
      </trkpt>
      <trkpt lat="63.28962" lon="9.82078">
        <ele>48.139363</ele>
        <time>2020-08-05T14:09:18.367Z</time>
      </trkpt>
      <trkpt lat="63.28968" lon="9.82094">
        <ele>48.380032</ele>
        <time>2020-08-05T14:09:20.366Z</time>
      </trkpt>
      <trkpt lat="63.28977" lon="9.82117">
        <ele>48.723549</ele>
        <time>2020-08-05T14:09:23.351Z</time>
      </trkpt>
      <trkpt lat="63.28983" lon="9.82132">
        <ele>48.953172</ele>
        <time>2020-08-05T14:09:25.352Z</time>
      </trkpt>
      <trkpt lat="63.28989" lon="9.82147">
        <ele>49.1853</ele>
        <time>2020-08-05T14:09:27.350Z</time>
      </trkpt>
      <trkpt lat="63.28999" lon="9.82169">
        <ele>49.527194</ele>
        <time>2020-08-05T14:09:30.413Z</time>
      </trkpt>
      <trkpt lat="63.29008" lon="9.8219">
        <ele>49.861823</ele>
        <time>2020-08-05T14:09:33.342Z</time>
      </trkpt>
      <trkpt lat="63.29015" lon="9.82203">
        <ele>50.091381</ele>
        <time>2020-08-05T14:09:35.361Z</time>
      </trkpt>
      <trkpt lat="63.29021" lon="9.82217">
        <ele>50.320319</ele>
        <time>2020-08-05T14:09:37.358Z</time>
      </trkpt>
      <trkpt lat="63.29027" lon="9.82232">
        <ele>50.555271</ele>
        <time>2020-08-05T14:09:39.353Z</time>
      </trkpt>
      <trkpt lat="63.29036" lon="9.8225">
        <ele>50.730896</ele>
        <time>2020-08-05T14:09:42.344Z</time>
      </trkpt>
      <trkpt lat="63.29046" lon="9.82269">
        <ele>50.600204</ele>
        <time>2020-08-05T14:09:45.346Z</time>
      </trkpt>
      <trkpt lat="63.29053" lon="9.82283">
        <ele>50.506238</ele>
        <time>2020-08-05T14:09:47.339Z</time>
      </trkpt>
      <trkpt lat="63.29061" lon="9.82302">
        <ele>50.380028</ele>
        <time>2020-08-05T14:09:50.355Z</time>
      </trkpt>
      <trkpt lat="63.2907" lon="9.82321">
        <ele>50.255673</ele>
        <time>2020-08-05T14:09:53.355Z</time>
      </trkpt>
      <trkpt lat="63.29078" lon="9.82341">
        <ele>50.126876</ele>
        <time>2020-08-05T14:09:56.366Z</time>
      </trkpt>
      <trkpt lat="63.29087" lon="9.82362">
        <ele>49.993876</ele>
        <time>2020-08-05T14:09:59.339Z</time>
      </trkpt>
      <trkpt lat="63.29096" lon="9.82383">
        <ele>49.861986</ele>
        <time>2020-08-05T14:10:02.341Z</time>
      </trkpt>
      <trkpt lat="63.29104" lon="9.82406">
        <ele>49.727104</ele>
        <time>2020-08-05T14:10:05.365Z</time>
      </trkpt>
      <trkpt lat="63.29111" lon="9.8243">
        <ele>49.591606</ele>
        <time>2020-08-05T14:10:08.378Z</time>
      </trkpt>
      <trkpt lat="63.29118" lon="9.82455">
        <ele>49.455844</ele>
        <time>2020-08-05T14:10:11.344Z</time>
      </trkpt>
      <trkpt lat="63.29123" lon="9.82472">
        <ele>49.362422</ele>
        <time>2020-08-05T14:10:13.349Z</time>
      </trkpt>
      <trkpt lat="63.29127" lon="9.82489">
        <ele>49.269858</ele>
        <time>2020-08-05T14:10:15.355Z</time>
      </trkpt>
      <trkpt lat="63.29132" lon="9.82508">
        <ele>49.172784</ele>
        <time>2020-08-05T14:10:17.378Z</time>
      </trkpt>
      <trkpt lat="63.29136" lon="9.82526">
        <ele>49.078759</ele>
        <time>2020-08-05T14:10:19.355Z</time>
      </trkpt>
      <trkpt lat="63.2914" lon="9.82544">
        <ele>48.985983</ele>
        <time>2020-08-05T14:10:21.342Z</time>
      </trkpt>
      <trkpt lat="63.29146" lon="9.82571">
        <ele>48.898112</ele>
        <time>2020-08-05T14:10:24.381Z</time>
      </trkpt>
      <trkpt lat="63.29151" lon="9.82596">
        <ele>48.867274</ele>
        <time>2020-08-05T14:10:27.355Z</time>
      </trkpt>
      <trkpt lat="63.29157" lon="9.82622">
        <ele>48.836458</ele>
        <time>2020-08-05T14:10:30.397Z</time>
      </trkpt>
      <trkpt lat="63.29164" lon="9.82644">
        <ele>48.807481</ele>
        <time>2020-08-05T14:10:33.401Z</time>
      </trkpt>
      <trkpt lat="63.29171" lon="9.82668">
        <ele>48.776355</ele>
        <time>2020-08-05T14:10:36.386Z</time>
      </trkpt>
      <trkpt lat="63.2918" lon="9.8269">
        <ele>48.744866</ele>
        <time>2020-08-05T14:10:39.363Z</time>
      </trkpt>
      <trkpt lat="63.29186" lon="9.82704">
        <ele>48.723053</ele>
        <time>2020-08-05T14:10:41.359Z</time>
      </trkpt>
      <trkpt lat="63.29194" lon="9.82718">
        <ele>48.69939</ele>
        <time>2020-08-05T14:10:43.353Z</time>
      </trkpt>
      <trkpt lat="63.29203" lon="9.82733">
        <ele>48.672562</ele>
        <time>2020-08-05T14:10:45.332Z</time>
      </trkpt>
      <trkpt lat="63.29213" lon="9.82748">
        <ele>48.642403</ele>
        <time>2020-08-05T14:10:47.373Z</time>
      </trkpt>
      <trkpt lat="63.29225" lon="9.82762">
        <ele>48.611423</ele>
        <time>2020-08-05T14:10:49.364Z</time>
      </trkpt>
      <trkpt lat="63.29236" lon="9.82774">
        <ele>48.5816</ele>
        <time>2020-08-05T14:10:51.386Z</time>
      </trkpt>
      <trkpt lat="63.29247" lon="9.82784">
        <ele>48.551649</ele>
        <time>2020-08-05T14:10:53.348Z</time>
      </trkpt>
      <trkpt lat="63.29259" lon="9.82793">
        <ele>48.521322</ele>
        <time>2020-08-05T14:10:55.412Z</time>
      </trkpt>
      <trkpt lat="63.29271" lon="9.828">
        <ele>48.491746</ele>
        <time>2020-08-05T14:10:57.345Z</time>
      </trkpt>
      <trkpt lat="63.29283" lon="9.82806">
        <ele>48.350216</ele>
        <time>2020-08-05T14:10:59.354Z</time>
      </trkpt>
      <trkpt lat="63.29294" lon="9.82813">
        <ele>48.147358</ele>
        <time>2020-08-05T14:11:01.380Z</time>
      </trkpt>
      <trkpt lat="63.29304" lon="9.82817">
        <ele>47.964115</ele>
        <time>2020-08-05T14:11:03.342Z</time>
      </trkpt>
      <trkpt lat="63.29315" lon="9.82822">
        <ele>47.772665</ele>
        <time>2020-08-05T14:11:05.339Z</time>
      </trkpt>
      <trkpt lat="63.29327" lon="9.82827">
        <ele>47.570669</ele>
        <time>2020-08-05T14:11:07.339Z</time>
      </trkpt>
      <trkpt lat="63.29338" lon="9.82831">
        <ele>47.36951</ele>
        <time>2020-08-05T14:11:09.343Z</time>
      </trkpt>
      <trkpt lat="63.2935" lon="9.82836">
        <ele>47.16333</ele>
        <time>2020-08-05T14:11:11.377Z</time>
      </trkpt>
      <trkpt lat="63.29361" lon="9.82839">
        <ele>46.955789</ele>
        <time>2020-08-05T14:11:13.380Z</time>
      </trkpt>
      <trkpt lat="63.29373" lon="9.82842">
        <ele>46.746377</ele>
        <time>2020-08-05T14:11:15.359Z</time>
      </trkpt>
      <trkpt lat="63.29386" lon="9.82843">
        <ele>46.535624</ele>
        <time>2020-08-05T14:11:17.354Z</time>
      </trkpt>
      <trkpt lat="63.29397" lon="9.82844">
        <ele>46.330263</ele>
        <time>2020-08-05T14:11:19.331Z</time>
      </trkpt>
      <trkpt lat="63.29409" lon="9.82844">
        <ele>46.126677</ele>
        <time>2020-08-05T14:11:21.370Z</time>
      </trkpt>
      <trkpt lat="63.2942" lon="9.82843">
        <ele>45.928223</ele>
        <time>2020-08-05T14:11:23.369Z</time>
      </trkpt>
      <trkpt lat="63.29432" lon="9.82842">
        <ele>45.735035</ele>
        <time>2020-08-05T14:11:25.366Z</time>
      </trkpt>
      <trkpt lat="63.29442" lon="9.82841">
        <ele>45.553772</ele>
        <time>2020-08-05T14:11:27.379Z</time>
      </trkpt>
      <trkpt lat="63.29452" lon="9.8284">
        <ele>45.374374</ele>
        <time>2020-08-05T14:11:29.336Z</time>
      </trkpt>
      <trkpt lat="63.29464" lon="9.82839">
        <ele>45.271254</ele>
        <time>2020-08-05T14:11:31.358Z</time>
      </trkpt>
      <trkpt lat="63.29475" lon="9.82839">
        <ele>45.187497</ele>
        <time>2020-08-05T14:11:33.333Z</time>
      </trkpt>
      <trkpt lat="63.29487" lon="9.82838">
        <ele>45.095957</ele>
        <time>2020-08-05T14:11:35.352Z</time>
      </trkpt>
      <trkpt lat="63.29498" lon="9.82838">
        <ele>45.006809</ele>
        <time>2020-08-05T14:11:37.336Z</time>
      </trkpt>
      <trkpt lat="63.29509" lon="9.82838">
        <ele>44.923861</ele>
        <time>2020-08-05T14:11:39.354Z</time>
      </trkpt>
      <trkpt lat="63.2952" lon="9.82838">
        <ele>44.84014</ele>
        <time>2020-08-05T14:11:41.359Z</time>
      </trkpt>
      <trkpt lat="63.2953" lon="9.82838">
        <ele>44.755608</ele>
        <time>2020-08-05T14:11:43.358Z</time>
      </trkpt>
      <trkpt lat="63.29542" lon="9.8284">
        <ele>44.663943</ele>
        <time>2020-08-05T14:11:45.344Z</time>
      </trkpt>
      <trkpt lat="63.29555" lon="9.82841">
        <ele>44.567742</ele>
        <time>2020-08-05T14:11:47.386Z</time>
      </trkpt>
      <trkpt lat="63.29567" lon="9.82842">
        <ele>44.471566</ele>
        <time>2020-08-05T14:11:49.396Z</time>
      </trkpt>
      <trkpt lat="63.29579" lon="9.82843">
        <ele>44.379275</ele>
        <time>2020-08-05T14:11:51.390Z</time>
      </trkpt>
      <trkpt lat="63.29591" lon="9.82844">
        <ele>44.286209</ele>
        <time>2020-08-05T14:11:53.338Z</time>
      </trkpt>
      <trkpt lat="63.29603" lon="9.82845">
        <ele>44.196154</ele>
        <time>2020-08-05T14:11:55.399Z</time>
      </trkpt>
      <trkpt lat="63.29614" lon="9.82844">
        <ele>44.106187</ele>
        <time>2020-08-05T14:11:57.354Z</time>
      </trkpt>
      <trkpt lat="63.29625" lon="9.82844">
        <ele>44.018583</ele>
        <time>2020-08-05T14:11:59.399Z</time>
      </trkpt>
      <trkpt lat="63.29636" lon="9.82844">
        <ele>43.940187</ele>
        <time>2020-08-05T14:12:01.342Z</time>
      </trkpt>
      <trkpt lat="63.29647" lon="9.82843">
        <ele>43.878944</ele>
        <time>2020-08-05T14:12:03.364Z</time>
      </trkpt>
      <trkpt lat="63.29658" lon="9.82842">
        <ele>43.819215</ele>
        <time>2020-08-05T14:12:05.343Z</time>
      </trkpt>
      <trkpt lat="63.29669" lon="9.8284">
        <ele>43.759503</ele>
        <time>2020-08-05T14:12:07.358Z</time>
      </trkpt>
      <trkpt lat="63.2968" lon="9.82838">
        <ele>43.696896</ele>
        <time>2020-08-05T14:12:09.391Z</time>
      </trkpt>
      <trkpt lat="63.29691" lon="9.82836">
        <ele>43.638256</ele>
        <time>2020-08-05T14:12:11.383Z</time>
      </trkpt>
      <trkpt lat="63.297" lon="9.82835">
        <ele>43.585317</ele>
        <time>2020-08-05T14:12:13.395Z</time>
      </trkpt>
      <trkpt lat="63.29709" lon="9.82833">
        <ele>43.534019</ele>
        <time>2020-08-05T14:12:15.353Z</time>
      </trkpt>
      <trkpt lat="63.29722" lon="9.8283">
        <ele>43.462376</ele>
        <time>2020-08-05T14:12:18.362Z</time>
      </trkpt>
      <trkpt lat="63.29734" lon="9.82828">
        <ele>43.393578</ele>
        <time>2020-08-05T14:12:21.360Z</time>
      </trkpt>
      <trkpt lat="63.29746" lon="9.82826">
        <ele>43.326703</ele>
        <time>2020-08-05T14:12:24.349Z</time>
      </trkpt>
      <trkpt lat="63.29759" lon="9.82829">
        <ele>43.256193</ele>
        <time>2020-08-05T14:12:27.399Z</time>
      </trkpt>
      <trkpt lat="63.29766" lon="9.82844">
        <ele>43.200717</ele>
        <time>2020-08-05T14:12:31.345Z</time>
      </trkpt>
      <trkpt lat="63.2977" lon="9.82866">
        <ele>43.143627</ele>
        <time>2020-08-05T14:12:35.350Z</time>
      </trkpt>
      <trkpt lat="63.2977" lon="9.82886">
        <ele>43.091601</ele>
        <time>2020-08-05T14:12:39.342Z</time>
      </trkpt>
      <trkpt lat="63.29768" lon="9.82906">
        <ele>43.040306</ele>
        <time>2020-08-05T14:12:42.366Z</time>
      </trkpt>
      <trkpt lat="63.29766" lon="9.82929">
        <ele>42.981219</ele>
        <time>2020-08-05T14:12:45.350Z</time>
      </trkpt>
      <trkpt lat="63.29764" lon="9.82954">
        <ele>42.992699</ele>
        <time>2020-08-05T14:12:48.363Z</time>
      </trkpt>
      <trkpt lat="63.29762" lon="9.82977">
        <ele>43.048158</ele>
        <time>2020-08-05T14:12:51.374Z</time>
      </trkpt>
      <trkpt lat="63.29761" lon="9.83002">
        <ele>43.108004</ele>
        <time>2020-08-05T14:12:54.355Z</time>
      </trkpt>
      <trkpt lat="63.29759" lon="9.83027">
        <ele>43.168158</ele>
        <time>2020-08-05T14:12:57.343Z</time>
      </trkpt>
      <trkpt lat="63.29758" lon="9.83053">
        <ele>43.229995</ele>
        <time>2020-08-05T14:13:00.370Z</time>
      </trkpt>
      <trkpt lat="63.29757" lon="9.8308">
        <ele>43.293354</ele>
        <time>2020-08-05T14:13:03.360Z</time>
      </trkpt>
      <trkpt lat="63.29755" lon="9.83107">
        <ele>43.359259</ele>
        <time>2020-08-05T14:13:06.361Z</time>
      </trkpt>
      <trkpt lat="63.29754" lon="9.83136">
        <ele>43.426995</ele>
        <time>2020-08-05T14:13:09.413Z</time>
      </trkpt>
      <trkpt lat="63.29752" lon="9.83164">
        <ele>43.49414</ele>
        <time>2020-08-05T14:13:12.357Z</time>
      </trkpt>
      <trkpt lat="63.29751" lon="9.83193">
        <ele>43.563293</ele>
        <time>2020-08-05T14:13:15.333Z</time>
      </trkpt>
      <trkpt lat="63.29749" lon="9.83222">
        <ele>43.632597</ele>
        <time>2020-08-05T14:13:18.375Z</time>
      </trkpt>
      <trkpt lat="63.29748" lon="9.83242">
        <ele>43.680527</ele>
        <time>2020-08-05T14:13:20.342Z</time>
      </trkpt>
      <trkpt lat="63.29747" lon="9.83271">
        <ele>43.74879</ele>
        <time>2020-08-05T14:13:23.345Z</time>
      </trkpt>
      <trkpt lat="63.29745" lon="9.83298">
        <ele>43.815167</ele>
        <time>2020-08-05T14:13:26.338Z</time>
      </trkpt>
      <trkpt lat="63.29744" lon="9.83328">
        <ele>43.885268</ele>
        <time>2020-08-05T14:13:29.339Z</time>
      </trkpt>
      <trkpt lat="63.29742" lon="9.83357">
        <ele>44.096716</ele>
        <time>2020-08-05T14:13:32.397Z</time>
      </trkpt>
      <trkpt lat="63.2974" lon="9.83386">
        <ele>44.361491</ele>
        <time>2020-08-05T14:13:35.358Z</time>
      </trkpt>
      <trkpt lat="63.29739" lon="9.83406">
        <ele>44.546398</ele>
        <time>2020-08-05T14:13:37.395Z</time>
      </trkpt>
      <trkpt lat="63.29738" lon="9.83428">
        <ele>44.741651</ele>
        <time>2020-08-05T14:13:39.365Z</time>
      </trkpt>
      <trkpt lat="63.29737" lon="9.83448">
        <ele>44.930813</ele>
        <time>2020-08-05T14:13:41.343Z</time>
      </trkpt>
      <trkpt lat="63.29736" lon="9.83469">
        <ele>45.117027</ele>
        <time>2020-08-05T14:13:43.379Z</time>
      </trkpt>
      <trkpt lat="63.29735" lon="9.83495">
        <ele>45.357152</ele>
        <time>2020-08-05T14:13:46.364Z</time>
      </trkpt>
      <trkpt lat="63.29739" lon="9.83519">
        <ele>45.58979</ele>
        <time>2020-08-05T14:13:49.417Z</time>
      </trkpt>
      <trkpt lat="63.29744" lon="9.8354">
        <ele>45.796922</ele>
        <time>2020-08-05T14:13:52.402Z</time>
      </trkpt>
      <trkpt lat="63.2975" lon="9.83558">
        <ele>45.997928</ele>
        <time>2020-08-05T14:13:55.351Z</time>
      </trkpt>
      <trkpt lat="63.29743" lon="9.83575">
        <ele>46.20213</ele>
        <time>2020-08-05T14:13:59.383Z</time>
      </trkpt>
      <trkpt lat="63.29738" lon="9.83595">
        <ele>46.409096</ele>
        <time>2020-08-05T14:14:02.366Z</time>
      </trkpt>
      <trkpt lat="63.29732" lon="9.83618">
        <ele>46.651969</ele>
        <time>2020-08-05T14:14:05.360Z</time>
      </trkpt>
      <trkpt lat="63.29729" lon="9.83645">
        <ele>46.904077</ele>
        <time>2020-08-05T14:14:08.362Z</time>
      </trkpt>
      <trkpt lat="63.29728" lon="9.83671">
        <ele>47.140244</ele>
        <time>2020-08-05T14:14:11.366Z</time>
      </trkpt>
      <trkpt lat="63.29726" lon="9.83696">
        <ele>47.374495</ele>
        <time>2020-08-05T14:14:14.381Z</time>
      </trkpt>
      <trkpt lat="63.29723" lon="9.83722">
        <ele>47.556455</ele>
        <time>2020-08-05T14:14:17.394Z</time>
      </trkpt>
      <trkpt lat="63.29722" lon="9.83749">
        <ele>47.615744</ele>
        <time>2020-08-05T14:14:20.370Z</time>
      </trkpt>
      <trkpt lat="63.2972" lon="9.83777">
        <ele>47.677187</ele>
        <time>2020-08-05T14:14:23.369Z</time>
      </trkpt>
      <trkpt lat="63.29718" lon="9.83807">
        <ele>47.742782</ele>
        <time>2020-08-05T14:14:26.358Z</time>
      </trkpt>
      <trkpt lat="63.29717" lon="9.83827">
        <ele>47.78784</ele>
        <time>2020-08-05T14:14:28.340Z</time>
      </trkpt>
      <trkpt lat="63.29715" lon="9.83856">
        <ele>47.850211</ele>
        <time>2020-08-05T14:14:31.355Z</time>
      </trkpt>
      <trkpt lat="63.29714" lon="9.83884">
        <ele>47.911807</ele>
        <time>2020-08-05T14:14:34.353Z</time>
      </trkpt>
      <trkpt lat="63.29713" lon="9.83911">
        <ele>47.970403</ele>
        <time>2020-08-05T14:14:37.378Z</time>
      </trkpt>
      <trkpt lat="63.29711" lon="9.83935">
        <ele>48.023894</ele>
        <time>2020-08-05T14:14:40.364Z</time>
      </trkpt>
      <trkpt lat="63.29711" lon="9.8396">
        <ele>48.077134</ele>
        <time>2020-08-05T14:14:43.361Z</time>
      </trkpt>
      <trkpt lat="63.29709" lon="9.83982">
        <ele>48.126315</ele>
        <time>2020-08-05T14:14:46.408Z</time>
      </trkpt>
      <trkpt lat="63.29708" lon="9.84004">
        <ele>48.175371</ele>
        <time>2020-08-05T14:14:49.399Z</time>
      </trkpt>
      <trkpt lat="63.29707" lon="9.84027">
        <ele>48.225351</ele>
        <time>2020-08-05T14:14:52.334Z</time>
      </trkpt>
      <trkpt lat="63.29705" lon="9.84051">
        <ele>48.277117</ele>
        <time>2020-08-05T14:14:55.351Z</time>
      </trkpt>
      <trkpt lat="63.29704" lon="9.84074">
        <ele>48.328089</ele>
        <time>2020-08-05T14:14:58.368Z</time>
      </trkpt>
      <trkpt lat="63.29702" lon="9.84096">
        <ele>48.376289</ele>
        <time>2020-08-05T14:15:01.377Z</time>
      </trkpt>
      <trkpt lat="63.29701" lon="9.84117">
        <ele>48.475227</ele>
        <time>2020-08-05T14:15:04.350Z</time>
      </trkpt>
      <trkpt lat="63.29699" lon="9.8414">
        <ele>48.714864</ele>
        <time>2020-08-05T14:15:07.366Z</time>
      </trkpt>
      <trkpt lat="63.29698" lon="9.84163">
        <ele>48.9531</ele>
        <time>2020-08-05T14:15:10.362Z</time>
      </trkpt>
      <trkpt lat="63.29697" lon="9.84185">
        <ele>49.184336</ele>
        <time>2020-08-05T14:15:13.407Z</time>
      </trkpt>
      <trkpt lat="63.29696" lon="9.84206">
        <ele>49.411291</ele>
        <time>2020-08-05T14:15:16.386Z</time>
      </trkpt>
      <trkpt lat="63.29695" lon="9.84228">
        <ele>49.636076</ele>
        <time>2020-08-05T14:15:19.364Z</time>
      </trkpt>
      <trkpt lat="63.29694" lon="9.84248">
        <ele>49.850519</ele>
        <time>2020-08-05T14:15:22.352Z</time>
      </trkpt>
      <trkpt lat="63.29692" lon="9.8427">
        <ele>50.074387</ele>
        <time>2020-08-05T14:15:25.359Z</time>
      </trkpt>
      <trkpt lat="63.29691" lon="9.84291">
        <ele>50.297225</ele>
        <time>2020-08-05T14:15:28.345Z</time>
      </trkpt>
      <trkpt lat="63.29689" lon="9.84313">
        <ele>50.530203</ele>
        <time>2020-08-05T14:15:31.371Z</time>
      </trkpt>
      <trkpt lat="63.29687" lon="9.84338">
        <ele>50.797965</ele>
        <time>2020-08-05T14:15:34.351Z</time>
      </trkpt>
      <trkpt lat="63.29687" lon="9.84363">
        <ele>51.058994</ele>
        <time>2020-08-05T14:15:37.364Z</time>
      </trkpt>
      <trkpt lat="63.29687" lon="9.84387">
        <ele>51.306894</ele>
        <time>2020-08-05T14:15:40.358Z</time>
      </trkpt>
      <trkpt lat="63.29686" lon="9.84412">
        <ele>51.563454</ele>
        <time>2020-08-05T14:15:43.371Z</time>
      </trkpt>
      <trkpt lat="63.29684" lon="9.84438">
        <ele>51.843202</ele>
        <time>2020-08-05T14:15:46.360Z</time>
      </trkpt>
      <trkpt lat="63.29683" lon="9.84461">
        <ele>52.084334</ele>
        <time>2020-08-05T14:15:48.359Z</time>
      </trkpt>
      <trkpt lat="63.29681" lon="9.8449">
        <ele>52.382748</ele>
        <time>2020-08-05T14:15:50.356Z</time>
      </trkpt>
      <trkpt lat="63.2968" lon="9.84518">
        <ele>52.452129</ele>
        <time>2020-08-05T14:15:52.373Z</time>
      </trkpt>
      <trkpt lat="63.29679" lon="9.84543">
        <ele>52.153676</ele>
        <time>2020-08-05T14:15:55.352Z</time>
      </trkpt>
      <trkpt lat="63.2968" lon="9.84565">
        <ele>51.905009</ele>
        <time>2020-08-05T14:15:58.386Z</time>
      </trkpt>
      <trkpt lat="63.29682" lon="9.8459">
        <ele>51.604247</ele>
        <time>2020-08-05T14:16:02.366Z</time>
      </trkpt>
      <trkpt lat="63.29688" lon="9.8461">
        <ele>51.313146</ele>
        <time>2020-08-05T14:16:05.378Z</time>
      </trkpt>
      <trkpt lat="63.29699" lon="9.84623">
        <ele>50.994926</ele>
        <time>2020-08-05T14:16:08.361Z</time>
      </trkpt>
      <trkpt lat="63.2971" lon="9.84627">
        <ele>50.696124</ele>
        <time>2020-08-05T14:16:12.386Z</time>
      </trkpt>
      <trkpt lat="63.29719" lon="9.8463">
        <ele>50.458033</ele>
        <time>2020-08-05T14:16:15.361Z</time>
      </trkpt>
      <trkpt lat="63.29731" lon="9.84635">
        <ele>50.147739</ele>
        <time>2020-08-05T14:16:19.375Z</time>
      </trkpt>
      <trkpt lat="63.29742" lon="9.84638">
        <ele>49.851198</ele>
        <time>2020-08-05T14:16:23.385Z</time>
      </trkpt>
      <trkpt lat="63.29754" lon="9.84642">
        <ele>49.549432</ele>
        <time>2020-08-05T14:16:27.340Z</time>
      </trkpt>
      <trkpt lat="63.29764" lon="9.84647">
        <ele>49.267535</ele>
        <time>2020-08-05T14:16:31.351Z</time>
      </trkpt>
      <trkpt lat="63.29773" lon="9.84644">
        <ele>49.032763</ele>
        <time>2020-08-05T14:16:37.375Z</time>
      </trkpt>
      <trkpt lat="63.29777" lon="9.8461">
        <ele>48.627392</ele>
        <time>2020-08-05T14:17:37.368Z</time>
      </trkpt>
      <trkpt lat="63.29779" lon="9.84587">
        <ele>48.346064</ele>
        <time>2020-08-05T14:17:42.352Z</time>
      </trkpt>
      <trkpt lat="63.29784" lon="9.8457">
        <ele>48.104079</ele>
        <time>2020-08-05T14:17:46.350Z</time>
      </trkpt>
      <trkpt lat="63.29787" lon="9.84546">
        <ele>47.913508</ele>
        <time>2020-08-05T14:17:51.361Z</time>
      </trkpt>
      <trkpt lat="63.2979" lon="9.84532">
        <ele>48.005234</ele>
        <time>2020-08-05T14:18:14.467Z</time>
      </trkpt>
      <trkpt lat="63.29796" lon="9.84597">
        <ele>48.390704</ele>
        <time>2020-08-05T15:36:51.605Z</time>
      </trkpt>
      <trkpt lat="63.2977" lon="9.84561">
        <ele>48.78158</ele>
        <time>2020-08-05T15:36:52.579Z</time>
      </trkpt>
      <trkpt lat="63.29772" lon="9.84586">
        <ele>48.927025</ele>
        <time>2020-08-05T15:38:16.582Z</time>
      </trkpt>
      <trkpt lat="63.29773" lon="9.84609">
        <ele>49.058449</ele>
        <time>2020-08-05T15:38:22.588Z</time>
      </trkpt>
      <trkpt lat="63.29773" lon="9.84633">
        <ele>49.198046</ele>
        <time>2020-08-05T15:38:27.573Z</time>
      </trkpt>
      <trkpt lat="63.29765" lon="9.84647">
        <ele>49.324519</ele>
        <time>2020-08-05T15:38:33.593Z</time>
      </trkpt>
      <trkpt lat="63.29746" lon="9.84645">
        <ele>49.570952</ele>
        <time>2020-08-05T15:38:36.580Z</time>
      </trkpt>
      <trkpt lat="63.29734" lon="9.8464">
        <ele>49.730446</ele>
        <time>2020-08-05T15:38:39.606Z</time>
      </trkpt>
      <trkpt lat="63.29723" lon="9.84635">
        <ele>49.875428</ele>
        <time>2020-08-05T15:38:42.580Z</time>
      </trkpt>
      <trkpt lat="63.29713" lon="9.84632">
        <ele>50.005335</ele>
        <time>2020-08-05T15:38:45.569Z</time>
      </trkpt>
      <trkpt lat="63.29704" lon="9.84628">
        <ele>50.122929</ele>
        <time>2020-08-05T15:38:48.592Z</time>
      </trkpt>
      <trkpt lat="63.29695" lon="9.8462">
        <ele>50.303541</ele>
        <time>2020-08-05T15:38:51.564Z</time>
      </trkpt>
      <trkpt lat="63.29687" lon="9.84609">
        <ele>50.558327</ele>
        <time>2020-08-05T15:38:53.578Z</time>
      </trkpt>
      <trkpt lat="63.29682" lon="9.84592">
        <ele>50.79956</ele>
        <time>2020-08-05T15:38:55.605Z</time>
      </trkpt>
      <trkpt lat="63.2968" lon="9.84567">
        <ele>51.097345</ele>
        <time>2020-08-05T15:38:58.587Z</time>
      </trkpt>
      <trkpt lat="63.29681" lon="9.84544">
        <ele>51.360761</ele>
        <time>2020-08-05T15:39:01.608Z</time>
      </trkpt>
      <trkpt lat="63.2968" lon="9.84518">
        <ele>51.676955</ele>
        <time>2020-08-05T15:39:04.572Z</time>
      </trkpt>
      <trkpt lat="63.29681" lon="9.84493">
        <ele>51.967856</ele>
        <time>2020-08-05T15:39:06.605Z</time>
      </trkpt>
      <trkpt lat="63.29683" lon="9.84467">
        <ele>52.274802</ele>
        <time>2020-08-05T15:39:08.578Z</time>
      </trkpt>
      <trkpt lat="63.29684" lon="9.84446">
        <ele>52.525132</ele>
        <time>2020-08-05T15:39:10.618Z</time>
      </trkpt>
      <trkpt lat="63.29685" lon="9.84424">
        <ele>52.781277</ele>
        <time>2020-08-05T15:39:14.587Z</time>
      </trkpt>
      <trkpt lat="63.29685" lon="9.84403">
        <ele>53.031651</ele>
        <time>2020-08-05T15:39:19.576Z</time>
      </trkpt>
      <trkpt lat="63.29686" lon="9.84378">
        <ele>53.326442</ele>
        <time>2020-08-05T15:39:23.596Z</time>
      </trkpt>
      <trkpt lat="63.29687" lon="9.84353">
        <ele>53.624588</ele>
        <time>2020-08-05T15:39:27.582Z</time>
      </trkpt>
      <trkpt lat="63.29688" lon="9.8433">
        <ele>53.891229</ele>
        <time>2020-08-05T15:39:30.584Z</time>
      </trkpt>
      <trkpt lat="63.2969" lon="9.84306">
        <ele>54.1742</ele>
        <time>2020-08-05T15:39:33.570Z</time>
      </trkpt>
      <trkpt lat="63.29691" lon="9.84281">
        <ele>54.477649</ele>
        <time>2020-08-05T15:39:36.584Z</time>
      </trkpt>
      <trkpt lat="63.29694" lon="9.84253">
        <ele>54.815958</ele>
        <time>2020-08-05T15:39:39.573Z</time>
      </trkpt>
      <trkpt lat="63.29695" lon="9.84223">
        <ele>54.962856</ele>
        <time>2020-08-05T15:39:42.574Z</time>
      </trkpt>
      <trkpt lat="63.29697" lon="9.84203">
        <ele>55.017068</ele>
        <time>2020-08-05T15:39:44.582Z</time>
      </trkpt>
      <trkpt lat="63.29698" lon="9.84175">
        <ele>55.095539</ele>
        <time>2020-08-05T15:39:47.591Z</time>
      </trkpt>
      <trkpt lat="63.297" lon="9.84145">
        <ele>55.176029</ele>
        <time>2020-08-05T15:39:50.599Z</time>
      </trkpt>
      <trkpt lat="63.29702" lon="9.84115">
        <ele>55.257785</ele>
        <time>2020-08-05T15:39:53.568Z</time>
      </trkpt>
      <trkpt lat="63.29703" lon="9.84095">
        <ele>55.314349</ele>
        <time>2020-08-05T15:39:55.586Z</time>
      </trkpt>
      <trkpt lat="63.29705" lon="9.84073">
        <ele>55.373028</ele>
        <time>2020-08-05T15:39:57.598Z</time>
      </trkpt>
      <trkpt lat="63.29706" lon="9.84052">
        <ele>55.431625</ele>
        <time>2020-08-05T15:39:59.595Z</time>
      </trkpt>
      <trkpt lat="63.29708" lon="9.84031">
        <ele>55.49022</ele>
        <time>2020-08-05T15:40:01.574Z</time>
      </trkpt>
      <trkpt lat="63.29709" lon="9.84009">
        <ele>55.548665</ele>
        <time>2020-08-05T15:40:03.576Z</time>
      </trkpt>
      <trkpt lat="63.2971" lon="9.83987">
        <ele>55.610299</ele>
        <time>2020-08-05T15:40:05.575Z</time>
      </trkpt>
      <trkpt lat="63.29711" lon="9.83963">
        <ele>55.674545</ele>
        <time>2020-08-05T15:40:07.584Z</time>
      </trkpt>
      <trkpt lat="63.29713" lon="9.83938">
        <ele>55.742562</ele>
        <time>2020-08-05T15:40:09.583Z</time>
      </trkpt>
      <trkpt lat="63.29714" lon="9.83914">
        <ele>55.810181</ele>
        <time>2020-08-05T15:40:11.633Z</time>
      </trkpt>
      <trkpt lat="63.29715" lon="9.83889">
        <ele>55.877464</ele>
        <time>2020-08-05T15:40:13.582Z</time>
      </trkpt>
      <trkpt lat="63.29717" lon="9.83865">
        <ele>55.944389</ele>
        <time>2020-08-05T15:40:15.589Z</time>
      </trkpt>
      <trkpt lat="63.29718" lon="9.83841">
        <ele>55.902553</ele>
        <time>2020-08-05T15:40:17.581Z</time>
      </trkpt>
      <trkpt lat="63.29719" lon="9.83817">
        <ele>55.649977</ele>
        <time>2020-08-05T15:40:19.573Z</time>
      </trkpt>
      <trkpt lat="63.2972" lon="9.83793">
        <ele>55.390586</ele>
        <time>2020-08-05T15:40:21.580Z</time>
      </trkpt>
      <trkpt lat="63.29721" lon="9.8377">
        <ele>55.136705</ele>
        <time>2020-08-05T15:40:23.583Z</time>
      </trkpt>
      <trkpt lat="63.29722" lon="9.83749">
        <ele>54.904093</ele>
        <time>2020-08-05T15:40:25.575Z</time>
      </trkpt>
      <trkpt lat="63.29723" lon="9.8372">
        <ele>54.59021</ele>
        <time>2020-08-05T15:40:28.578Z</time>
      </trkpt>
      <trkpt lat="63.29724" lon="9.83691">
        <ele>54.283121</ele>
        <time>2020-08-05T15:40:31.591Z</time>
      </trkpt>
      <trkpt lat="63.29726" lon="9.83664">
        <ele>53.985442</ele>
        <time>2020-08-05T15:40:34.570Z</time>
      </trkpt>
      <trkpt lat="63.29727" lon="9.83639">
        <ele>53.709886</ele>
        <time>2020-08-05T15:40:37.586Z</time>
      </trkpt>
      <trkpt lat="63.29731" lon="9.83615">
        <ele>53.437333</ele>
        <time>2020-08-05T15:40:40.585Z</time>
      </trkpt>
      <trkpt lat="63.29737" lon="9.83594">
        <ele>53.168702</ele>
        <time>2020-08-05T15:40:43.578Z</time>
      </trkpt>
      <trkpt lat="63.29742" lon="9.83575">
        <ele>52.93148</ele>
        <time>2020-08-05T15:40:46.576Z</time>
      </trkpt>
      <trkpt lat="63.29753" lon="9.83567">
        <ele>52.652721</ele>
        <time>2020-08-05T15:40:50.566Z</time>
      </trkpt>
      <trkpt lat="63.29763" lon="9.83569">
        <ele>52.406942</ele>
        <time>2020-08-05T15:40:53.598Z</time>
      </trkpt>
      <trkpt lat="63.29775" lon="9.8357">
        <ele>52.1333</ele>
        <time>2020-08-05T15:40:56.577Z</time>
      </trkpt>
      <trkpt lat="63.29786" lon="9.83569">
        <ele>51.852431</ele>
        <time>2020-08-05T15:40:59.585Z</time>
      </trkpt>
      <trkpt lat="63.29798" lon="9.83571">
        <ele>51.639224</ele>
        <time>2020-08-05T15:41:02.583Z</time>
      </trkpt>
      <trkpt lat="63.2981" lon="9.83572">
        <ele>51.541397</ele>
        <time>2020-08-05T15:41:05.572Z</time>
      </trkpt>
      <trkpt lat="63.29821" lon="9.83572">
        <ele>51.4469</ele>
        <time>2020-08-05T15:41:08.576Z</time>
      </trkpt>
      <trkpt lat="63.29833" lon="9.8357">
        <ele>51.348118</ele>
        <time>2020-08-05T15:41:11.618Z</time>
      </trkpt>
      <trkpt lat="63.29846" lon="9.83568">
        <ele>51.241717</ele>
        <time>2020-08-05T15:41:14.589Z</time>
      </trkpt>
      <trkpt lat="63.29859" lon="9.83566">
        <ele>51.134711</ele>
        <time>2020-08-05T15:41:17.582Z</time>
      </trkpt>
      <trkpt lat="63.29868" lon="9.83563">
        <ele>51.059008</ele>
        <time>2020-08-05T15:41:19.573Z</time>
      </trkpt>
      <trkpt lat="63.29877" lon="9.83562">
        <ele>50.983321</ele>
        <time>2020-08-05T15:41:21.563Z</time>
      </trkpt>
      <trkpt lat="63.2989" lon="9.8356">
        <ele>50.877857</ele>
        <time>2020-08-05T15:41:24.575Z</time>
      </trkpt>
      <trkpt lat="63.29902" lon="9.83561">
        <ele>50.782453</ele>
        <time>2020-08-05T15:41:27.574Z</time>
      </trkpt>
      <trkpt lat="63.29913" lon="9.83563">
        <ele>50.693267</ele>
        <time>2020-08-05T15:41:30.576Z</time>
      </trkpt>
      <trkpt lat="63.29923" lon="9.83563">
        <ele>50.607803</ele>
        <time>2020-08-05T15:41:33.579Z</time>
      </trkpt>
      <trkpt lat="63.29933" lon="9.83568">
        <ele>50.525817</ele>
        <time>2020-08-05T15:41:37.579Z</time>
      </trkpt>
      <trkpt lat="63.2994" lon="9.83585">
        <ele>50.442033</ele>
        <time>2020-08-05T15:41:41.576Z</time>
      </trkpt>
      <trkpt lat="63.29941" lon="9.83605">
        <ele>50.367367</ele>
        <time>2020-08-05T15:41:45.572Z</time>
      </trkpt>
      <trkpt lat="63.29939" lon="9.83626">
        <ele>50.28606</ele>
        <time>2020-08-05T15:41:50.578Z</time>
      </trkpt>
      <trkpt lat="63.29937" lon="9.83648">
        <ele>50.205698</ele>
        <time>2020-08-05T15:41:54.570Z</time>
      </trkpt>
      <trkpt lat="63.29934" lon="9.83671">
        <ele>50.193042</ele>
        <time>2020-08-05T15:41:59.585Z</time>
      </trkpt>
      <trkpt lat="63.29932" lon="9.83693">
        <ele>50.193042</ele>
        <time>2020-08-05T15:42:03.602Z</time>
      </trkpt>
      <trkpt lat="63.2993" lon="9.83716">
        <ele>50.193042</ele>
        <time>2020-08-05T15:42:07.576Z</time>
      </trkpt>
      <trkpt lat="63.29925" lon="9.83735">
        <ele>50.193042</ele>
        <time>2020-08-05T15:42:11.591Z</time>
      </trkpt>
      <trkpt lat="63.29923" lon="9.83756">
        <ele>50.193042</ele>
        <time>2020-08-05T15:42:16.571Z</time>
      </trkpt>
      <trkpt lat="63.29924" lon="9.83776">
        <ele>50.193042</ele>
        <time>2020-08-05T15:42:22.578Z</time>
      </trkpt>
      <trkpt lat="63.29914" lon="9.83768">
        <ele>50.193042</ele>
        <time>2020-08-05T15:43:06.602Z</time>
      </trkpt>
      <trkpt lat="63.29889" lon="9.83762">
        <ele>50.193042</ele>
        <time>2020-08-05T15:43:21.564Z</time>
      </trkpt>
      <trkpt lat="63.29879" lon="9.83761">
        <ele>50.193042</ele>
        <time>2020-08-05T15:43:24.570Z</time>
      </trkpt>
      <trkpt lat="63.2987" lon="9.83771">
        <ele>50.193042</ele>
        <time>2020-08-05T15:43:30.565Z</time>
      </trkpt>
      <trkpt lat="63.29861" lon="9.83769">
        <ele>50.193042</ele>
        <time>2020-08-05T15:43:37.578Z</time>
      </trkpt>
      <trkpt lat="63.29862" lon="9.83751">
        <ele>50.193042</ele>
        <time>2020-08-05T15:45:08.783Z</time>
      </trkpt>
    </trkseg>
  </trk>
</gpx>